<?xml version='1.0' encoding='UTF-8'?><gpx version="1.1" creator="JPX - https://github.com/jenetics/jpx" xmlns="http://www.topografix.com/GPX/1/1"><trk><trkseg><trkpt lat="39.2658375" lon="16.7083862"><ele>986.0000000000001</ele><time>2026-03-28T11:14:56.703Z</time></trkpt><trkpt lat="39.2658605" lon="16.7084626"><ele>986.0</ele><time>2026-03-28T11:15:04.696Z</time></trkpt><trkpt lat="39.2658895" lon="16.7085638"><ele>986.0</ele><time>2026-03-28T11:15:07.699Z</time></trkpt><trkpt lat="39.2658654" lon="16.7086624"><ele>986.0</ele><time>2026-03-28T11:16:44.684Z</time></trkpt><trkpt lat="39.2658919" lon="16.7087696"><ele>986.0000000000001</ele><time>2026-03-28T11:17:02.698Z</time></trkpt><trkpt lat="39.2659511" lon="16.708831"><ele>986.0</ele><time>2026-03-28T11:17:05.722Z</time></trkpt><trkpt lat="39.2659813" lon="16.7089339"><ele>986.3333333333334</ele><time>2026-03-28T11:17:08.721Z</time></trkpt><trkpt lat="39.2659426" lon="16.7090054"><ele>986.6666666666667</ele><time>2026-03-28T11:17:09.693Z</time></trkpt><trkpt lat="39.2658872" lon="16.7091231"><ele>987.0</ele><time>2026-03-28T11:17:11.744Z</time></trkpt><trkpt lat="39.2658848" lon="16.7092423"><ele>987.3333333333333</ele><time>2026-03-28T11:17:13.687Z</time></trkpt><trkpt lat="39.2658641" lon="16.7093368"><ele>987.6666666666666</ele><time>2026-03-28T11:17:14.698Z</time></trkpt><trkpt lat="39.2658343" lon="16.709431"><ele>988.0</ele><time>2026-03-28T11:17:15.687Z</time></trkpt><trkpt lat="39.2657893" lon="16.7095159"><ele>988.3333333333333</ele><time>2026-03-28T11:17:16.688Z</time></trkpt><trkpt lat="39.26573" lon="16.7095943"><ele>988.6666666666666</ele><time>2026-03-28T11:17:17.694Z</time></trkpt><trkpt lat="39.2656608" lon="16.709666"><ele>989.0</ele><time>2026-03-28T11:17:18.693Z</time></trkpt><trkpt lat="39.2655856" lon="16.7097328"><ele>989.3333333333333</ele><time>2026-03-28T11:17:19.687Z</time></trkpt><trkpt lat="39.2655118" lon="16.7098062"><ele>989.6666666666666</ele><time>2026-03-28T11:17:20.697Z</time></trkpt><trkpt lat="39.2654497" lon="16.7098918"><ele>990.0</ele><time>2026-03-28T11:17:21.688Z</time></trkpt><trkpt lat="39.2654001" lon="16.7099909"><ele>988.0</ele><time>2026-03-28T11:17:22.696Z</time></trkpt><trkpt lat="39.2653607" lon="16.7100962"><ele>986.0</ele><time>2026-03-28T11:17:23.686Z</time></trkpt><trkpt lat="39.2653275" lon="16.7102024"><ele>984.0</ele><time>2026-03-28T11:17:24.697Z</time></trkpt><trkpt lat="39.2653044" lon="16.7103103"><ele>982.0</ele><time>2026-03-28T11:17:25.693Z</time></trkpt><trkpt lat="39.2653002" lon="16.7104208"><ele>980.0</ele><time>2026-03-28T11:17:26.683Z</time></trkpt><trkpt lat="39.2653175" lon="16.7105298"><ele>978.0</ele><time>2026-03-28T11:17:27.693Z</time></trkpt><trkpt lat="39.2653508" lon="16.7106355"><ele>978.0</ele><time>2026-03-28T11:17:28.692Z</time></trkpt><trkpt lat="39.2653788" lon="16.7107446"><ele>978.0</ele><time>2026-03-28T11:17:29.689Z</time></trkpt><trkpt lat="39.2653856" lon="16.7108581"><ele>978.0</ele><time>2026-03-28T11:17:30.698Z</time></trkpt><trkpt lat="39.2653688" lon="16.7109674"><ele>978.0</ele><time>2026-03-28T11:17:31.687Z</time></trkpt><trkpt lat="39.265337" lon="16.71107"><ele>978.0</ele><time>2026-03-28T11:17:32.691Z</time></trkpt><trkpt lat="39.2652924" lon="16.711164"><ele>978.0</ele><time>2026-03-28T11:17:33.691Z</time></trkpt><trkpt lat="39.2652397" lon="16.71125"><ele>978.0</ele><time>2026-03-28T11:17:34.689Z</time></trkpt><trkpt lat="39.2651849" lon="16.7113331"><ele>978.0</ele><time>2026-03-28T11:17:35.689Z</time></trkpt><trkpt lat="39.2651343" lon="16.7114207"><ele>978.0</ele><time>2026-03-28T11:17:36.692Z</time></trkpt><trkpt lat="39.2650975" lon="16.7115198"><ele>978.0</ele><time>2026-03-28T11:17:37.692Z</time></trkpt><trkpt lat="39.2650802" lon="16.7116283"><ele>978.0</ele><time>2026-03-28T11:17:38.7Z</time></trkpt><trkpt lat="39.2650825" lon="16.711739"><ele>978.0</ele><time>2026-03-28T11:17:39.697Z</time></trkpt><trkpt lat="39.2651042" lon="16.7118462"><ele>976.5999999999999</ele><time>2026-03-28T11:17:40.695Z</time></trkpt><trkpt lat="39.2651439" lon="16.7119463"><ele>975.1999999999999</ele><time>2026-03-28T11:17:41.69Z</time></trkpt><trkpt lat="39.2652015" lon="16.7120475"><ele>973.8</ele><time>2026-03-28T11:17:42.705Z</time></trkpt><trkpt lat="39.2652731" lon="16.71214"><ele>972.4</ele><time>2026-03-28T11:17:43.687Z</time></trkpt><trkpt lat="39.2653303" lon="16.7122319"><ele>971.0</ele><time>2026-03-28T11:17:44.694Z</time></trkpt><trkpt lat="39.2653591" lon="16.7123329"><ele>971.0</ele><time>2026-03-28T11:17:45.687Z</time></trkpt><trkpt lat="39.2653552" lon="16.7124428"><ele>970.9999999999999</ele><time>2026-03-28T11:17:46.683Z</time></trkpt><trkpt lat="39.265326" lon="16.7125541"><ele>970.9999999999999</ele><time>2026-03-28T11:17:47.69Z</time></trkpt><trkpt lat="39.2652814" lon="16.7126656"><ele>971.0</ele><time>2026-03-28T11:17:48.697Z</time></trkpt><trkpt lat="39.2652328" lon="16.7127789"><ele>971.0</ele><time>2026-03-28T11:17:49.688Z</time></trkpt><trkpt lat="39.2651828" lon="16.7128931"><ele>971.5999999999999</ele><time>2026-03-28T11:17:50.693Z</time></trkpt><trkpt lat="39.2651321" lon="16.7130056"><ele>972.1999999999999</ele><time>2026-03-28T11:17:51.693Z</time></trkpt><trkpt lat="39.2650823" lon="16.7131198"><ele>972.8000000000001</ele><time>2026-03-28T11:17:52.69Z</time></trkpt><trkpt lat="39.2650335" lon="16.7132378"><ele>973.4000000000001</ele><time>2026-03-28T11:17:53.691Z</time></trkpt><trkpt lat="39.2649833" lon="16.7133583"><ele>974.0</ele><time>2026-03-28T11:17:54.69Z</time></trkpt><trkpt lat="39.2649312" lon="16.7134802"><ele>972.5</ele><time>2026-03-28T11:17:55.688Z</time></trkpt><trkpt lat="39.2648774" lon="16.7136036"><ele>971.0</ele><time>2026-03-28T11:17:56.688Z</time></trkpt><trkpt lat="39.2648223" lon="16.7137308"><ele>969.5</ele><time>2026-03-28T11:17:57.69Z</time></trkpt><trkpt lat="39.2647657" lon="16.7138626"><ele>968.0</ele><time>2026-03-28T11:17:58.688Z</time></trkpt><trkpt lat="39.2647025" lon="16.7140064"><ele>968.0</ele><time>2026-03-28T11:17:59.688Z</time></trkpt><trkpt lat="39.2646367" lon="16.7141587"><ele>968.0</ele><time>2026-03-28T11:18:00.692Z</time></trkpt><trkpt lat="39.264571" lon="16.7143164"><ele>968.0</ele><time>2026-03-28T11:18:01.693Z</time></trkpt><trkpt lat="39.2644973" lon="16.7144906"><ele>968.0</ele><time>2026-03-28T11:18:02.69Z</time></trkpt><trkpt lat="39.2644177" lon="16.7146785"><ele>970.6666666666667</ele><time>2026-03-28T11:18:03.69Z</time></trkpt><trkpt lat="39.2643338" lon="16.7148779"><ele>973.3333333333333</ele><time>2026-03-28T11:18:04.692Z</time></trkpt><trkpt lat="39.2642422" lon="16.7150957"><ele>976.0</ele><time>2026-03-28T11:18:05.69Z</time></trkpt><trkpt lat="39.2641458" lon="16.7153237"><ele>976.0</ele><time>2026-03-28T11:18:06.69Z</time></trkpt><trkpt lat="39.2640508" lon="16.7155482"><ele>976.0</ele><time>2026-03-28T11:18:07.691Z</time></trkpt><trkpt lat="39.2639595" lon="16.7157668"><ele>976.0</ele><time>2026-03-28T11:18:08.69Z</time></trkpt><trkpt lat="39.2638711" lon="16.7159795"><ele>976.0</ele><time>2026-03-28T11:18:09.69Z</time></trkpt><trkpt lat="39.2637872" lon="16.7161847"><ele>976.0</ele><time>2026-03-28T11:18:10.691Z</time></trkpt><trkpt lat="39.2637115" lon="16.7163774"><ele>976.0</ele><time>2026-03-28T11:18:11.685Z</time></trkpt><trkpt lat="39.2636428" lon="16.7165549"><ele>976.0</ele><time>2026-03-28T11:18:12.688Z</time></trkpt><trkpt lat="39.2635784" lon="16.7167177"><ele>976.0</ele><time>2026-03-28T11:18:13.69Z</time></trkpt><trkpt lat="39.2635127" lon="16.7168714"><ele>976.0</ele><time>2026-03-28T11:18:14.692Z</time></trkpt><trkpt lat="39.263441" lon="16.7170203"><ele>976.0</ele><time>2026-03-28T11:18:15.684Z</time></trkpt><trkpt lat="39.2633579" lon="16.7171637"><ele>975.5</ele><time>2026-03-28T11:18:16.689Z</time></trkpt><trkpt lat="39.2632766" lon="16.7172954"><ele>975.0</ele><time>2026-03-28T11:18:17.688Z</time></trkpt><trkpt lat="39.2631735" lon="16.7173859"><ele>974.5</ele><time>2026-03-28T11:18:18.691Z</time></trkpt><trkpt lat="39.2630607" lon="16.7174641"><ele>974.0</ele><time>2026-03-28T11:18:19.69Z</time></trkpt><trkpt lat="39.262942" lon="16.7175289"><ele>973.75</ele><time>2026-03-28T11:18:20.687Z</time></trkpt><trkpt lat="39.2628202" lon="16.7175876"><ele>973.5</ele><time>2026-03-28T11:18:21.686Z</time></trkpt><trkpt lat="39.262695" lon="16.7176517"><ele>973.25</ele><time>2026-03-28T11:18:22.704Z</time></trkpt><trkpt lat="39.262562" lon="16.7177201"><ele>973.0</ele><time>2026-03-28T11:18:23.698Z</time></trkpt><trkpt lat="39.2624268" lon="16.7177956"><ele>972.75</ele><time>2026-03-28T11:18:24.692Z</time></trkpt><trkpt lat="39.262298" lon="16.7178656"><ele>972.5</ele><time>2026-03-28T11:18:25.688Z</time></trkpt><trkpt lat="39.2621774" lon="16.7179347"><ele>972.25</ele><time>2026-03-28T11:18:26.696Z</time></trkpt><trkpt lat="39.2620639" lon="16.718002"><ele>972.0</ele><time>2026-03-28T11:18:27.695Z</time></trkpt><trkpt lat="39.2619564" lon="16.7180689"><ele>973.6</ele><time>2026-03-28T11:18:28.695Z</time></trkpt><trkpt lat="39.261848" lon="16.7181374"><ele>975.2</ele><time>2026-03-28T11:18:29.689Z</time></trkpt><trkpt lat="39.2617589" lon="16.7182251"><ele>976.8</ele><time>2026-03-28T11:18:30.688Z</time></trkpt><trkpt lat="39.2616855" lon="16.7183281"><ele>978.4</ele><time>2026-03-28T11:18:31.688Z</time></trkpt><trkpt lat="39.2616211" lon="16.718439"><ele>980.0</ele><time>2026-03-28T11:18:32.688Z</time></trkpt><trkpt lat="39.2615654" lon="16.7185377"><ele>979.2</ele><time>2026-03-28T11:18:33.694Z</time></trkpt><trkpt lat="39.2615215" lon="16.7186137"><ele>978.4</ele><time>2026-03-28T11:18:34.69Z</time></trkpt><trkpt lat="39.2614441" lon="16.7186785"><ele>977.5999999999999</ele><time>2026-03-28T11:18:36.692Z</time></trkpt><trkpt lat="39.2613794" lon="16.7187368"><ele>976.8</ele><time>2026-03-28T11:18:38.695Z</time></trkpt><trkpt lat="39.2612684" lon="16.7188518"><ele>976.0</ele><time>2026-03-28T11:18:40.69Z</time></trkpt><trkpt lat="39.2611796" lon="16.7189352"><ele>979.8</ele><time>2026-03-28T11:18:41.69Z</time></trkpt><trkpt lat="39.2610801" lon="16.7190042"><ele>983.5999999999999</ele><time>2026-03-28T11:18:42.693Z</time></trkpt><trkpt lat="39.2609846" lon="16.7190529"><ele>987.4</ele><time>2026-03-28T11:18:43.688Z</time></trkpt><trkpt lat="39.2609009" lon="16.71906"><ele>991.2</ele><time>2026-03-28T11:18:44.696Z</time></trkpt><trkpt lat="39.260831" lon="16.7190769"><ele>995.0</ele><time>2026-03-28T11:18:45.687Z</time></trkpt><trkpt lat="39.2607188" lon="16.7191174"><ele>995.0</ele><time>2026-03-28T11:18:47.685Z</time></trkpt><trkpt lat="39.2606549" lon="16.7191283"><ele>995.0</ele><time>2026-03-28T11:18:54.696Z</time></trkpt><trkpt lat="39.2605826" lon="16.7191688"><ele>995.0</ele><time>2026-03-28T11:18:57.793Z</time></trkpt><trkpt lat="39.2605217" lon="16.7192429"><ele>995.0</ele><time>2026-03-28T11:19:00.733Z</time></trkpt><trkpt lat="39.2604678" lon="16.7193001"><ele>995.0</ele><time>2026-03-28T11:19:03.714Z</time></trkpt><trkpt lat="39.2603963" lon="16.7193101"><ele>995.0</ele><time>2026-03-28T11:19:06.779Z</time></trkpt><trkpt lat="39.260318" lon="16.719305"><ele>995.0</ele><time>2026-03-28T11:19:09.769Z</time></trkpt><trkpt lat="39.2602531" lon="16.7192953"><ele>997.6666666666667</ele><time>2026-03-28T11:19:12.72Z</time></trkpt><trkpt lat="39.2601796" lon="16.7193217"><ele>1000.3333333333334</ele><time>2026-03-28T11:19:15.716Z</time></trkpt><trkpt lat="39.2601131" lon="16.7193626"><ele>1003.0</ele><time>2026-03-28T11:19:17.651Z</time></trkpt><trkpt lat="39.2600562" lon="16.7194376"><ele>1005.6666666666667</ele><time>2026-03-28T11:19:19.671Z</time></trkpt><trkpt lat="39.259988" lon="16.719461"><ele>1008.3333333333334</ele><time>2026-03-28T11:19:21.737Z</time></trkpt><trkpt lat="39.2599225" lon="16.7194801"><ele>1011.0</ele><time>2026-03-28T11:19:23.698Z</time></trkpt><trkpt lat="39.2598375" lon="16.7194966"><ele>1013.9999999999999</ele><time>2026-03-28T11:19:26.672Z</time></trkpt><trkpt lat="39.2597654" lon="16.7194937"><ele>1017.0</ele><time>2026-03-28T11:19:28.752Z</time></trkpt><trkpt lat="39.2596909" lon="16.7195008"><ele>1019.9999999999999</ele><time>2026-03-28T11:19:30.935Z</time></trkpt><trkpt lat="39.2596283" lon="16.719521"><ele>1022.9999999999999</ele><time>2026-03-28T11:19:32.998Z</time></trkpt><trkpt lat="39.2595665" lon="16.7195692"><ele>1026.0</ele><time>2026-03-28T11:19:35.437Z</time></trkpt><trkpt lat="39.2595071" lon="16.7196152"><ele>1028.9999999999998</ele><time>2026-03-28T11:19:38.723Z</time></trkpt><trkpt lat="39.2594314" lon="16.7196391"><ele>1032.0</ele><time>2026-03-28T11:19:41.703Z</time></trkpt><trkpt lat="39.2593633" lon="16.719628"><ele>1031.9999999999998</ele><time>2026-03-28T11:19:43.631Z</time></trkpt><trkpt lat="39.259279" lon="16.7196102"><ele>1032.0</ele><time>2026-03-28T11:19:45.691Z</time></trkpt><trkpt lat="39.2592084" lon="16.7195952"><ele>1032.0</ele><time>2026-03-28T11:19:47.727Z</time></trkpt><trkpt lat="39.2591468" lon="16.7196158"><ele>1032.0</ele><time>2026-03-28T11:19:49.797Z</time></trkpt><trkpt lat="39.2590887" lon="16.7196709"><ele>1032.0</ele><time>2026-03-28T11:19:52.09Z</time></trkpt><trkpt lat="39.2590215" lon="16.719697"><ele>1031.9999999999998</ele><time>2026-03-28T11:19:54.594Z</time></trkpt><trkpt lat="39.2589586" lon="16.7197255"><ele>1032.0</ele><time>2026-03-28T11:19:56.698Z</time></trkpt><trkpt lat="39.2588822" lon="16.7197589"><ele>1033.8333333333333</ele><time>2026-03-28T11:19:59.774Z</time></trkpt><trkpt lat="39.2587851" lon="16.7197698"><ele>1035.6666666666667</ele><time>2026-03-28T11:20:02.699Z</time></trkpt><trkpt lat="39.2587001" lon="16.7197762"><ele>1037.5</ele><time>2026-03-28T11:20:05.75Z</time></trkpt><trkpt lat="39.2586025" lon="16.7197592"><ele>1039.3333333333335</ele><time>2026-03-28T11:20:07.689Z</time></trkpt><trkpt lat="39.2585215" lon="16.7197642"><ele>1041.1666666666667</ele><time>2026-03-28T11:20:09.618Z</time></trkpt><trkpt lat="39.2584638" lon="16.7198038"><ele>1043.0</ele><time>2026-03-28T11:20:12.754Z</time></trkpt><trkpt lat="39.2583936" lon="16.7198609"><ele>1043.0</ele><time>2026-03-28T11:20:14.697Z</time></trkpt><trkpt lat="39.258326" lon="16.7199142"><ele>1043.0</ele><time>2026-03-28T11:20:16.734Z</time></trkpt><trkpt lat="39.2582561" lon="16.7200437"><ele>1043.0</ele><time>2026-03-28T11:20:18.69Z</time></trkpt><trkpt lat="39.2582026" lon="16.7201327"><ele>1043.0</ele><time>2026-03-28T11:20:19.687Z</time></trkpt><trkpt lat="39.2581118" lon="16.7202109"><ele>1043.0</ele><time>2026-03-28T11:20:21.692Z</time></trkpt><trkpt lat="39.2580341" lon="16.7202394"><ele>1044.6</ele><time>2026-03-28T11:20:23.696Z</time></trkpt><trkpt lat="39.257946" lon="16.7202658"><ele>1046.1999999999998</ele><time>2026-03-28T11:20:26.687Z</time></trkpt><trkpt lat="39.257796" lon="16.7203487"><ele>1047.8</ele><time>2026-03-28T11:20:29.705Z</time></trkpt><trkpt lat="39.2577368" lon="16.7203951"><ele>1049.3999999999999</ele><time>2026-03-28T11:20:30.692Z</time></trkpt><trkpt lat="39.257677" lon="16.7204535"><ele>1051.0</ele><time>2026-03-28T11:20:31.693Z</time></trkpt><trkpt lat="39.2576334" lon="16.720522"><ele>1051.0</ele><time>2026-03-28T11:20:32.694Z</time></trkpt><trkpt lat="39.2575964" lon="16.7205939"><ele>1051.0</ele><time>2026-03-28T11:20:33.69Z</time></trkpt><trkpt lat="39.257523" lon="16.7207267"><ele>1051.0</ele><time>2026-03-28T11:20:35.689Z</time></trkpt><trkpt lat="39.2574889" lon="16.7207951"><ele>1051.0</ele><time>2026-03-28T11:20:36.694Z</time></trkpt><trkpt lat="39.2574475" lon="16.7208721"><ele>1051.0</ele><time>2026-03-28T11:20:37.692Z</time></trkpt><trkpt lat="39.257388" lon="16.72094"><ele>1051.0</ele><time>2026-03-28T11:20:38.689Z</time></trkpt><trkpt lat="39.257313" lon="16.7210034"><ele>1051.0</ele><time>2026-03-28T11:20:39.687Z</time></trkpt><trkpt lat="39.2572396" lon="16.7210608"><ele>1051.0</ele><time>2026-03-28T11:20:40.689Z</time></trkpt><trkpt lat="39.2571775" lon="16.7211063"><ele>1051.0</ele><time>2026-03-28T11:20:41.694Z</time></trkpt><trkpt lat="39.257077" lon="16.7211651"><ele>1051.0</ele><time>2026-03-28T11:20:43.691Z</time></trkpt><trkpt lat="39.2570185" lon="16.7212112"><ele>1051.0</ele><time>2026-03-28T11:20:44.689Z</time></trkpt><trkpt lat="39.2569494" lon="16.7212707"><ele>1051.0</ele><time>2026-03-28T11:20:45.69Z</time></trkpt><trkpt lat="39.2568737" lon="16.7213391"><ele>1051.5</ele><time>2026-03-28T11:20:46.686Z</time></trkpt><trkpt lat="39.2567948" lon="16.7214234"><ele>1052.0</ele><time>2026-03-28T11:20:47.687Z</time></trkpt><trkpt lat="39.2567198" lon="16.7215317"><ele>1052.5</ele><time>2026-03-28T11:20:48.694Z</time></trkpt><trkpt lat="39.2566444" lon="16.7216605"><ele>1053.0</ele><time>2026-03-28T11:20:49.689Z</time></trkpt><trkpt lat="39.2565581" lon="16.7217912"><ele>1052.0</ele><time>2026-03-28T11:20:50.689Z</time></trkpt><trkpt lat="39.2564501" lon="16.7219155"><ele>1051.0</ele><time>2026-03-28T11:20:51.691Z</time></trkpt><trkpt lat="39.2563373" lon="16.7220345"><ele>1050.0</ele><time>2026-03-28T11:20:52.688Z</time></trkpt><trkpt lat="39.2562261" lon="16.7221513"><ele>1049.0</ele><time>2026-03-28T11:20:53.689Z</time></trkpt><trkpt lat="39.2561199" lon="16.7222611"><ele>1049.0</ele><time>2026-03-28T11:20:54.69Z</time></trkpt><trkpt lat="39.2560238" lon="16.7223567"><ele>1049.0</ele><time>2026-03-28T11:20:55.684Z</time></trkpt><trkpt lat="39.2559376" lon="16.7224414"><ele>1049.0</ele><time>2026-03-28T11:20:56.69Z</time></trkpt><trkpt lat="39.2558577" lon="16.7225082"><ele>1049.0</ele><time>2026-03-28T11:20:57.687Z</time></trkpt><trkpt lat="39.2557779" lon="16.7225481"><ele>1049.0</ele><time>2026-03-28T11:20:58.688Z</time></trkpt><trkpt lat="39.2557002" lon="16.7225815"><ele>1049.0</ele><time>2026-03-28T11:20:59.688Z</time></trkpt><trkpt lat="39.2556303" lon="16.7226159"><ele>1049.0</ele><time>2026-03-28T11:21:00.686Z</time></trkpt><trkpt lat="39.255571" lon="16.7226547"><ele>1049.0</ele><time>2026-03-28T11:21:01.69Z</time></trkpt><trkpt lat="39.2554895" lon="16.7227469"><ele>1049.0</ele><time>2026-03-28T11:21:03.689Z</time></trkpt><trkpt lat="39.2554058" lon="16.7228515"><ele>1049.0</ele><time>2026-03-28T11:21:05.689Z</time></trkpt><trkpt lat="39.2553623" lon="16.7229316"><ele>1049.0</ele><time>2026-03-28T11:21:06.689Z</time></trkpt><trkpt lat="39.2553163" lon="16.7230233"><ele>1048.2</ele><time>2026-03-28T11:21:07.69Z</time></trkpt><trkpt lat="39.255281" lon="16.7231258"><ele>1047.4</ele><time>2026-03-28T11:21:08.693Z</time></trkpt><trkpt lat="39.2552485" lon="16.7232329"><ele>1046.6</ele><time>2026-03-28T11:21:09.686Z</time></trkpt><trkpt lat="39.2552288" lon="16.7233554"><ele>1045.8</ele><time>2026-03-28T11:21:10.682Z</time></trkpt><trkpt lat="39.2552133" lon="16.723486"><ele>1045.0</ele><time>2026-03-28T11:21:11.694Z</time></trkpt><trkpt lat="39.2552058" lon="16.7236206"><ele>1045.0</ele><time>2026-03-28T11:21:12.686Z</time></trkpt><trkpt lat="39.2552007" lon="16.7237623"><ele>1045.0</ele><time>2026-03-28T11:21:13.687Z</time></trkpt><trkpt lat="39.2551789" lon="16.7239065"><ele>1045.0</ele><time>2026-03-28T11:21:14.69Z</time></trkpt><trkpt lat="39.255121" lon="16.7240603"><ele>1045.0</ele><time>2026-03-28T11:21:15.684Z</time></trkpt><trkpt lat="39.2550525" lon="16.7242158"><ele>1045.0</ele><time>2026-03-28T11:21:16.684Z</time></trkpt><trkpt lat="39.2549928" lon="16.7243558"><ele>1045.0</ele><time>2026-03-28T11:21:17.686Z</time></trkpt><trkpt lat="39.2549329" lon="16.7244639"><ele>1045.0</ele><time>2026-03-28T11:21:18.686Z</time></trkpt><trkpt lat="39.2548815" lon="16.7245559"><ele>1045.0</ele><time>2026-03-28T11:21:19.692Z</time></trkpt><trkpt lat="39.2548418" lon="16.7246519"><ele>1045.0</ele><time>2026-03-28T11:21:20.695Z</time></trkpt><trkpt lat="39.25481" lon="16.7247392"><ele>1048.6666666666665</ele><time>2026-03-28T11:21:21.685Z</time></trkpt><trkpt lat="39.2547844" lon="16.7248158"><ele>1052.3333333333333</ele><time>2026-03-28T11:21:22.685Z</time></trkpt><trkpt lat="39.2547427" lon="16.7249284"><ele>1056.0</ele><time>2026-03-28T11:21:24.683Z</time></trkpt><trkpt lat="39.2547228" lon="16.7250138"><ele>1059.6666666666667</ele><time>2026-03-28T11:21:26.689Z</time></trkpt><trkpt lat="39.2546952" lon="16.7250898"><ele>1063.3333333333335</ele><time>2026-03-28T11:21:29.688Z</time></trkpt><trkpt lat="39.2546591" lon="16.7251852"><ele>1067.0</ele><time>2026-03-28T11:21:31.691Z</time></trkpt><trkpt lat="39.2545899" lon="16.725308"><ele>1067.0</ele><time>2026-03-28T11:21:33.685Z</time></trkpt><trkpt lat="39.2545083" lon="16.7253992"><ele>1067.0</ele><time>2026-03-28T11:21:35.688Z</time></trkpt><trkpt lat="39.2544396" lon="16.7254892"><ele>1067.0</ele><time>2026-03-28T11:21:37.692Z</time></trkpt><trkpt lat="39.2543824" lon="16.7255963"><ele>1067.0</ele><time>2026-03-28T11:21:40.773Z</time></trkpt><trkpt lat="39.2543155" lon="16.7256633"><ele>1067.0</ele><time>2026-03-28T11:21:42.626Z</time></trkpt><trkpt lat="39.2542583" lon="16.725733"><ele>1067.0</ele><time>2026-03-28T11:21:44.76Z</time></trkpt><trkpt lat="39.2542019" lon="16.7258106"><ele>1067.0</ele><time>2026-03-28T11:21:47.728Z</time></trkpt><trkpt lat="39.2541603" lon="16.7259"><ele>1067.0</ele><time>2026-03-28T11:21:50.691Z</time></trkpt><trkpt lat="39.2541525" lon="16.726013"><ele>1067.0</ele><time>2026-03-28T11:21:53.723Z</time></trkpt><trkpt lat="39.2541692" lon="16.72612"><ele>1067.0</ele><time>2026-03-28T11:21:55.726Z</time></trkpt><trkpt lat="39.2541616" lon="16.7262399"><ele>1067.0</ele><time>2026-03-28T11:21:57.693Z</time></trkpt><trkpt lat="39.2541457" lon="16.7263412"><ele>1067.3333333333335</ele><time>2026-03-28T11:21:59.7Z</time></trkpt><trkpt lat="39.2541247" lon="16.7265111"><ele>1067.6666666666667</ele><time>2026-03-28T11:22:01.692Z</time></trkpt><trkpt lat="39.2540966" lon="16.726598"><ele>1068.0</ele><time>2026-03-28T11:22:02.696Z</time></trkpt><trkpt lat="39.2540621" lon="16.7266745"><ele>1068.3333333333333</ele><time>2026-03-28T11:22:03.689Z</time></trkpt><trkpt lat="39.2540293" lon="16.7267443"><ele>1068.6666666666665</ele><time>2026-03-28T11:22:04.685Z</time></trkpt><trkpt lat="39.2540029" lon="16.7268204"><ele>1069.0</ele><time>2026-03-28T11:22:05.693Z</time></trkpt><trkpt lat="39.2539533" lon="16.7269682"><ele>1073.6666666666665</ele><time>2026-03-28T11:22:07.688Z</time></trkpt><trkpt lat="39.253892" lon="16.7271142"><ele>1078.3333333333333</ele><time>2026-03-28T11:22:09.687Z</time></trkpt><trkpt lat="39.2538582" lon="16.7271965"><ele>1083.0</ele><time>2026-03-28T11:22:10.684Z</time></trkpt><trkpt lat="39.2538318" lon="16.7272898"><ele>1087.6666666666667</ele><time>2026-03-28T11:22:11.691Z</time></trkpt><trkpt lat="39.2538096" lon="16.7273782"><ele>1092.3333333333335</ele><time>2026-03-28T11:22:12.694Z</time></trkpt><trkpt lat="39.2537783" lon="16.7274609"><ele>1097.0</ele><time>2026-03-28T11:22:13.689Z</time></trkpt><trkpt lat="39.2537405" lon="16.7275407"><ele>1097.0</ele><time>2026-03-28T11:22:14.686Z</time></trkpt><trkpt lat="39.2537062" lon="16.7276217"><ele>1097.0</ele><time>2026-03-28T11:22:15.687Z</time></trkpt><trkpt lat="39.2536743" lon="16.7277004"><ele>1097.0</ele><time>2026-03-28T11:22:16.692Z</time></trkpt><trkpt lat="39.253653" lon="16.7277813"><ele>1097.0</ele><time>2026-03-28T11:22:17.689Z</time></trkpt><trkpt lat="39.2535992" lon="16.7279069"><ele>1097.0</ele><time>2026-03-28T11:22:19.688Z</time></trkpt><trkpt lat="39.2535577" lon="16.7280458"><ele>1097.0</ele><time>2026-03-28T11:22:21.688Z</time></trkpt><trkpt lat="39.2535107" lon="16.7281925"><ele>1098.4</ele><time>2026-03-28T11:22:23.689Z</time></trkpt><trkpt lat="39.2534728" lon="16.7283446"><ele>1099.8000000000002</ele><time>2026-03-28T11:22:25.689Z</time></trkpt><trkpt lat="39.2534323" lon="16.7284834"><ele>1101.2</ele><time>2026-03-28T11:22:27.691Z</time></trkpt><trkpt lat="39.2533799" lon="16.728629"><ele>1102.6000000000001</ele><time>2026-03-28T11:22:29.691Z</time></trkpt><trkpt lat="39.2533492" lon="16.7287029"><ele>1104.0</ele><time>2026-03-28T11:22:30.696Z</time></trkpt><trkpt lat="39.2533154" lon="16.7287766"><ele>1104.5</ele><time>2026-03-28T11:22:31.685Z</time></trkpt><trkpt lat="39.2532765" lon="16.7288535"><ele>1105.0</ele><time>2026-03-28T11:22:32.691Z</time></trkpt><trkpt lat="39.2532125" lon="16.7288974"><ele>1105.5</ele><time>2026-03-28T11:22:33.698Z</time></trkpt><trkpt lat="39.2531361" lon="16.7289348"><ele>1106.0</ele><time>2026-03-28T11:22:34.688Z</time></trkpt><trkpt lat="39.2530497" lon="16.7289718"><ele>1106.5</ele><time>2026-03-28T11:22:35.687Z</time></trkpt><trkpt lat="39.2529562" lon="16.7290089"><ele>1107.0</ele><time>2026-03-28T11:22:36.69Z</time></trkpt><trkpt lat="39.2528569" lon="16.7290324"><ele>1107.8</ele><time>2026-03-28T11:22:37.687Z</time></trkpt><trkpt lat="39.2527556" lon="16.7290534"><ele>1108.6</ele><time>2026-03-28T11:22:38.692Z</time></trkpt><trkpt lat="39.2526533" lon="16.7290757"><ele>1109.3999999999999</ele><time>2026-03-28T11:22:39.688Z</time></trkpt><trkpt lat="39.2525593" lon="16.7291158"><ele>1110.2</ele><time>2026-03-28T11:22:40.7Z</time></trkpt><trkpt lat="39.2524737" lon="16.7291587"><ele>1111.0</ele><time>2026-03-28T11:22:41.692Z</time></trkpt><trkpt lat="39.252412" lon="16.729207"><ele>1111.0</ele><time>2026-03-28T11:22:42.692Z</time></trkpt><trkpt lat="39.2523589" lon="16.7293201"><ele>1111.0</ele><time>2026-03-28T11:22:44.694Z</time></trkpt><trkpt lat="39.2523074" lon="16.7294081"><ele>1111.0</ele><time>2026-03-28T11:22:46.701Z</time></trkpt><trkpt lat="39.2522491" lon="16.7294537"><ele>1111.0</ele><time>2026-03-28T11:22:48.694Z</time></trkpt><trkpt lat="39.2521919" lon="16.7295109"><ele>1111.0</ele><time>2026-03-28T11:23:18.666Z</time></trkpt><trkpt lat="39.252118" lon="16.7295604"><ele>1111.0</ele><time>2026-03-28T11:23:22.703Z</time></trkpt><trkpt lat="39.2518967" lon="16.7296602"><ele>1110.5</ele><time>2026-03-28T11:23:25.69Z</time></trkpt><trkpt lat="39.2518129" lon="16.7297088"><ele>1110.0</ele><time>2026-03-28T11:23:26.694Z</time></trkpt><trkpt lat="39.251746" lon="16.7297523"><ele>1109.5</ele><time>2026-03-28T11:23:27.691Z</time></trkpt><trkpt lat="39.2516818" lon="16.7297968"><ele>1109.0</ele><time>2026-03-28T11:23:28.692Z</time></trkpt><trkpt lat="39.2516188" lon="16.7298379"><ele>1108.5</ele><time>2026-03-28T11:23:29.7Z</time></trkpt><trkpt lat="39.2515042" lon="16.7299378"><ele>1108.0</ele><time>2026-03-28T11:23:31.693Z</time></trkpt><trkpt lat="39.2514352" lon="16.730005"><ele>1108.0</ele><time>2026-03-28T11:23:32.692Z</time></trkpt><trkpt lat="39.2513635" lon="16.7300768"><ele>1108.0</ele><time>2026-03-28T11:23:33.701Z</time></trkpt><trkpt lat="39.2512948" lon="16.7301416"><ele>1108.0</ele><time>2026-03-28T11:23:34.695Z</time></trkpt><trkpt lat="39.2512311" lon="16.7302001"><ele>1108.0</ele><time>2026-03-28T11:23:35.696Z</time></trkpt><trkpt lat="39.2511755" lon="16.7302521"><ele>1108.0</ele><time>2026-03-28T11:23:36.689Z</time></trkpt><trkpt lat="39.2511246" lon="16.7303025"><ele>1108.0</ele><time>2026-03-28T11:23:37.686Z</time></trkpt><trkpt lat="39.2510256" lon="16.7304097"><ele>1107.4</ele><time>2026-03-28T11:23:39.686Z</time></trkpt><trkpt lat="39.2509649" lon="16.7304775"><ele>1106.8</ele><time>2026-03-28T11:23:40.695Z</time></trkpt><trkpt lat="39.2509024" lon="16.7305476"><ele>1106.2</ele><time>2026-03-28T11:23:41.699Z</time></trkpt><trkpt lat="39.2508344" lon="16.7306197"><ele>1105.6</ele><time>2026-03-28T11:23:42.693Z</time></trkpt><trkpt lat="39.2507552" lon="16.7306953"><ele>1105.0</ele><time>2026-03-28T11:23:43.683Z</time></trkpt><trkpt lat="39.2506606" lon="16.7307897"><ele>1105.6</ele><time>2026-03-28T11:23:44.697Z</time></trkpt><trkpt lat="39.2505648" lon="16.7308884"><ele>1106.2</ele><time>2026-03-28T11:23:45.692Z</time></trkpt><trkpt lat="39.2504784" lon="16.7309822"><ele>1106.8</ele><time>2026-03-28T11:23:46.701Z</time></trkpt><trkpt lat="39.2504032" lon="16.7310682"><ele>1107.4</ele><time>2026-03-28T11:23:47.701Z</time></trkpt><trkpt lat="39.2503389" lon="16.7311459"><ele>1108.0</ele><time>2026-03-28T11:23:48.699Z</time></trkpt><trkpt lat="39.2502875" lon="16.7312245"><ele>1107.0</ele><time>2026-03-28T11:23:49.689Z</time></trkpt><trkpt lat="39.2502387" lon="16.7313043"><ele>1106.0</ele><time>2026-03-28T11:23:50.698Z</time></trkpt><trkpt lat="39.2501847" lon="16.7313806"><ele>1105.0</ele><time>2026-03-28T11:23:51.689Z</time></trkpt><trkpt lat="39.25013" lon="16.7314525"><ele>1104.0</ele><time>2026-03-28T11:23:52.689Z</time></trkpt><trkpt lat="39.2500768" lon="16.731531"><ele>1103.0</ele><time>2026-03-28T11:23:53.687Z</time></trkpt><trkpt lat="39.2500251" lon="16.7316232"><ele>1102.0</ele><time>2026-03-28T11:23:54.691Z</time></trkpt><trkpt lat="39.2499755" lon="16.731724"><ele>1102.0</ele><time>2026-03-28T11:23:55.694Z</time></trkpt><trkpt lat="39.2499333" lon="16.7318308"><ele>1102.0</ele><time>2026-03-28T11:23:56.689Z</time></trkpt><trkpt lat="39.2498989" lon="16.7319652"><ele>1102.0</ele><time>2026-03-28T11:23:57.686Z</time></trkpt><trkpt lat="39.2498979" lon="16.7321235"><ele>1102.0</ele><time>2026-03-28T11:23:58.687Z</time></trkpt><trkpt lat="39.2499165" lon="16.7323062"><ele>1102.2</ele><time>2026-03-28T11:23:59.69Z</time></trkpt><trkpt lat="39.249939" lon="16.7324924"><ele>1102.4</ele><time>2026-03-28T11:24:00.695Z</time></trkpt><trkpt lat="39.2499706" lon="16.732641"><ele>1102.6</ele><time>2026-03-28T11:24:01.691Z</time></trkpt><trkpt lat="39.2500199" lon="16.7327451"><ele>1102.8</ele><time>2026-03-28T11:24:02.696Z</time></trkpt><trkpt lat="39.2500843" lon="16.7328225"><ele>1103.0</ele><time>2026-03-28T11:24:03.693Z</time></trkpt><trkpt lat="39.250148" lon="16.7328914"><ele>1103.6666666666667</ele><time>2026-03-28T11:24:04.689Z</time></trkpt><trkpt lat="39.2502081" lon="16.7329654"><ele>1104.3333333333335</ele><time>2026-03-28T11:24:05.688Z</time></trkpt><trkpt lat="39.2502641" lon="16.7330604"><ele>1105.0</ele><time>2026-03-28T11:24:06.69Z</time></trkpt><trkpt lat="39.2503097" lon="16.7331659"><ele>1105.6666666666667</ele><time>2026-03-28T11:24:07.688Z</time></trkpt><trkpt lat="39.2503498" lon="16.7332483"><ele>1106.3333333333333</ele><time>2026-03-28T11:24:08.693Z</time></trkpt><trkpt lat="39.2503853" lon="16.7333308"><ele>1107.0</ele><time>2026-03-28T11:24:09.692Z</time></trkpt><trkpt lat="39.2504145" lon="16.7334334"><ele>1107.0</ele><time>2026-03-28T11:24:10.701Z</time></trkpt><trkpt lat="39.2504325" lon="16.7335445"><ele>1107.0</ele><time>2026-03-28T11:24:11.691Z</time></trkpt><trkpt lat="39.2504234" lon="16.7336693"><ele>1107.0</ele><time>2026-03-28T11:24:12.681Z</time></trkpt><trkpt lat="39.2503904" lon="16.7337816"><ele>1107.0</ele><time>2026-03-28T11:24:13.688Z</time></trkpt><trkpt lat="39.2503488" lon="16.7338794"><ele>1107.0</ele><time>2026-03-28T11:24:14.688Z</time></trkpt><trkpt lat="39.2503061" lon="16.733977"><ele>1107.6</ele><time>2026-03-28T11:24:15.693Z</time></trkpt><trkpt lat="39.2502565" lon="16.7340747"><ele>1108.2</ele><time>2026-03-28T11:24:16.694Z</time></trkpt><trkpt lat="39.25019" lon="16.7342038"><ele>1108.8</ele><time>2026-03-28T11:24:18.689Z</time></trkpt><trkpt lat="39.2501217" lon="16.7343106"><ele>1109.4</ele><time>2026-03-28T11:24:20.704Z</time></trkpt><trkpt lat="39.2500655" lon="16.7343941"><ele>1110.0</ele><time>2026-03-28T11:24:21.69Z</time></trkpt><trkpt lat="39.2500217" lon="16.7345084"><ele>1110.25</ele><time>2026-03-28T11:24:22.694Z</time></trkpt><trkpt lat="39.2500084" lon="16.7346625"><ele>1110.5</ele><time>2026-03-28T11:24:23.688Z</time></trkpt><trkpt lat="39.2500686" lon="16.7348513"><ele>1110.75</ele><time>2026-03-28T11:24:24.698Z</time></trkpt><trkpt lat="39.2501425" lon="16.7350142"><ele>1111.0</ele><time>2026-03-28T11:24:25.697Z</time></trkpt><trkpt lat="39.2502082" lon="16.735134"><ele>1111.0</ele><time>2026-03-28T11:24:26.686Z</time></trkpt><trkpt lat="39.250251" lon="16.7352033"><ele>1111.0</ele><time>2026-03-28T11:24:27.702Z</time></trkpt><trkpt lat="39.2503013" lon="16.7352653"><ele>1111.0</ele><time>2026-03-28T11:24:29.621Z</time></trkpt><trkpt lat="39.2503681" lon="16.7352265"><ele>1111.0</ele><time>2026-03-28T11:24:32.712Z</time></trkpt><trkpt lat="39.2504833" lon="16.7352138"><ele>1111.0</ele><time>2026-03-28T11:24:34.747Z</time></trkpt><trkpt lat="39.2505615" lon="16.7352243"><ele>1111.0</ele><time>2026-03-28T11:24:36.697Z</time></trkpt><trkpt lat="39.2506343" lon="16.7352273"><ele>1110.3333333333333</ele><time>2026-03-28T11:24:38.707Z</time></trkpt><trkpt lat="39.2507231" lon="16.7352598"><ele>1109.6666666666665</ele><time>2026-03-28T11:24:41.77Z</time></trkpt><trkpt lat="39.2507993" lon="16.7352947"><ele>1109.0</ele><time>2026-03-28T11:24:43.775Z</time></trkpt><trkpt lat="39.2508637" lon="16.7352892"><ele>1108.3333333333333</ele><time>2026-03-28T11:24:44.69Z</time></trkpt><trkpt lat="39.250931" lon="16.7352876"><ele>1107.6666666666667</ele><time>2026-03-28T11:24:45.691Z</time></trkpt><trkpt lat="39.2509951" lon="16.7352914"><ele>1107.0</ele><time>2026-03-28T11:24:46.697Z</time></trkpt><trkpt lat="39.2510963" lon="16.7353769"><ele>1107.0</ele><time>2026-03-28T11:24:48.682Z</time></trkpt><trkpt lat="39.2511299" lon="16.735449"><ele>1107.0</ele><time>2026-03-28T11:24:49.696Z</time></trkpt><trkpt lat="39.251146" lon="16.7355302"><ele>1107.0</ele><time>2026-03-28T11:24:50.7Z</time></trkpt><trkpt lat="39.2511619" lon="16.7356774"><ele>1107.0</ele><time>2026-03-28T11:24:52.687Z</time></trkpt><trkpt lat="39.2511706" lon="16.7357916"><ele>1107.0</ele><time>2026-03-28T11:24:54.691Z</time></trkpt><trkpt lat="39.2511846" lon="16.7359209"><ele>1107.0</ele><time>2026-03-28T11:24:56.705Z</time></trkpt><trkpt lat="39.2512505" lon="16.7360411"><ele>1107.6</ele><time>2026-03-28T11:24:58.693Z</time></trkpt><trkpt lat="39.2513357" lon="16.7361544"><ele>1108.2</ele><time>2026-03-28T11:25:00.691Z</time></trkpt><trkpt lat="39.2513831" lon="16.7362122"><ele>1108.8</ele><time>2026-03-28T11:25:01.688Z</time></trkpt><trkpt lat="39.2514394" lon="16.7362512"><ele>1109.4</ele><time>2026-03-28T11:25:02.691Z</time></trkpt><trkpt lat="39.2515467" lon="16.736323"><ele>1110.0</ele><time>2026-03-28T11:25:04.693Z</time></trkpt><trkpt lat="39.2516351" lon="16.7364145"><ele>1108.3333333333333</ele><time>2026-03-28T11:25:06.695Z</time></trkpt><trkpt lat="39.251694" lon="16.7365538"><ele>1106.6666666666667</ele><time>2026-03-28T11:25:08.685Z</time></trkpt><trkpt lat="39.2517081" lon="16.7366393"><ele>1105.0</ele><time>2026-03-28T11:25:09.69Z</time></trkpt><trkpt lat="39.2517208" lon="16.7367251"><ele>1103.3333333333335</ele><time>2026-03-28T11:25:10.692Z</time></trkpt><trkpt lat="39.2517399" lon="16.7368118"><ele>1101.6666666666667</ele><time>2026-03-28T11:25:11.69Z</time></trkpt><trkpt lat="39.2517678" lon="16.7368975"><ele>1100.0</ele><time>2026-03-28T11:25:12.689Z</time></trkpt><trkpt lat="39.2518106" lon="16.7369794"><ele>1100.0</ele><time>2026-03-28T11:25:13.687Z</time></trkpt><trkpt lat="39.2518504" lon="16.7370579"><ele>1100.0</ele><time>2026-03-28T11:25:14.697Z</time></trkpt><trkpt lat="39.2518806" lon="16.7371842"><ele>1100.0</ele><time>2026-03-28T11:25:16.699Z</time></trkpt><trkpt lat="39.2518798" lon="16.7373011"><ele>1100.0</ele><time>2026-03-28T11:25:18.689Z</time></trkpt><trkpt lat="39.2518556" lon="16.7374066"><ele>1100.0</ele><time>2026-03-28T11:25:20.689Z</time></trkpt><trkpt lat="39.2517877" lon="16.7375072"><ele>1100.0</ele><time>2026-03-28T11:25:22.692Z</time></trkpt><trkpt lat="39.2517273" lon="16.7376228"><ele>1100.0</ele><time>2026-03-28T11:25:24.7Z</time></trkpt><trkpt lat="39.2516581" lon="16.7377517"><ele>1100.0</ele><time>2026-03-28T11:25:26.696Z</time></trkpt><trkpt lat="39.2515817" lon="16.7378479"><ele>1100.0</ele><time>2026-03-28T11:25:28.699Z</time></trkpt><trkpt lat="39.2515174" lon="16.7379098"><ele>1100.0</ele><time>2026-03-28T11:25:30.671Z</time></trkpt><trkpt lat="39.2514375" lon="16.7379635"><ele>1099.4</ele><time>2026-03-28T11:25:33.732Z</time></trkpt><trkpt lat="39.2513251" lon="16.7379853"><ele>1098.8</ele><time>2026-03-28T11:25:35.708Z</time></trkpt><trkpt lat="39.2512454" lon="16.7380217"><ele>1098.2</ele><time>2026-03-28T11:25:37.699Z</time></trkpt><trkpt lat="39.2511567" lon="16.7380592"><ele>1097.6</ele><time>2026-03-28T11:25:39.746Z</time></trkpt><trkpt lat="39.2510705" lon="16.7381406"><ele>1097.0</ele><time>2026-03-28T11:25:40.704Z</time></trkpt><trkpt lat="39.2509964" lon="16.7382024"><ele>1097.0</ele><time>2026-03-28T11:25:41.687Z</time></trkpt><trkpt lat="39.2509262" lon="16.7382468"><ele>1097.0</ele><time>2026-03-28T11:25:42.69Z</time></trkpt><trkpt lat="39.2508307" lon="16.7382911"><ele>1097.0</ele><time>2026-03-28T11:25:44.699Z</time></trkpt><trkpt lat="39.2508548" lon="16.7383768"><ele>1097.0</ele><time>2026-03-28T11:25:48.702Z</time></trkpt><trkpt lat="39.2509456" lon="16.7384606"><ele>1097.0</ele><time>2026-03-28T11:25:51.707Z</time></trkpt><trkpt lat="39.2510832" lon="16.7384314"><ele>1097.0</ele><time>2026-03-28T11:25:54.725Z</time></trkpt><trkpt lat="39.2511448" lon="16.7384059"><ele>1097.0</ele><time>2026-03-28T11:25:56.802Z</time></trkpt><trkpt lat="39.251205" lon="16.7384375"><ele>1097.0</ele><time>2026-03-28T11:25:58.724Z</time></trkpt><trkpt lat="39.2512871" lon="16.738413"><ele>1097.0</ele><time>2026-03-28T11:26:02.723Z</time></trkpt><trkpt lat="39.2513505" lon="16.7384267"><ele>1097.0</ele><time>2026-03-28T11:26:04.681Z</time></trkpt><trkpt lat="39.251426" lon="16.7384427"><ele>1097.0</ele><time>2026-03-28T11:26:06.748Z</time></trkpt><trkpt lat="39.2515012" lon="16.7384322"><ele>1097.0</ele><time>2026-03-28T11:26:08.75Z</time></trkpt><trkpt lat="39.25159" lon="16.7384118"><ele>1094.25</ele><time>2026-03-28T11:26:10.732Z</time></trkpt><trkpt lat="39.2517404" lon="16.7383715"><ele>1091.5</ele><time>2026-03-28T11:26:12.697Z</time></trkpt><trkpt lat="39.2518196" lon="16.7383803"><ele>1088.75</ele><time>2026-03-28T11:26:15.629Z</time></trkpt><trkpt lat="39.2519835" lon="16.7383235"><ele>1086.0</ele><time>2026-03-28T11:26:17.695Z</time></trkpt><trkpt lat="39.2520722" lon="16.7382561"><ele>1086.0</ele><time>2026-03-28T11:26:18.696Z</time></trkpt><trkpt lat="39.2521348" lon="16.7381803"><ele>1086.0</ele><time>2026-03-28T11:26:19.695Z</time></trkpt><trkpt lat="39.2521941" lon="16.7381163"><ele>1086.0</ele><time>2026-03-28T11:26:20.702Z</time></trkpt><trkpt lat="39.2522625" lon="16.7379929"><ele>1086.0</ele><time>2026-03-28T11:26:22.693Z</time></trkpt><trkpt lat="39.2523073" lon="16.7378754"><ele>1086.0</ele><time>2026-03-28T11:26:24.709Z</time></trkpt><trkpt lat="39.2524013" lon="16.737844"><ele>1082.8</ele><time>2026-03-28T11:26:26.703Z</time></trkpt><trkpt lat="39.2524802" lon="16.7378737"><ele>1079.6</ele><time>2026-03-28T11:26:28.695Z</time></trkpt><trkpt lat="39.252579" lon="16.7379671"><ele>1076.4</ele><time>2026-03-28T11:26:31.695Z</time></trkpt><trkpt lat="39.2526734" lon="16.738037"><ele>1073.2</ele><time>2026-03-28T11:26:33.695Z</time></trkpt><trkpt lat="39.252765" lon="16.7381041"><ele>1070.0</ele><time>2026-03-28T11:26:35.694Z</time></trkpt><trkpt lat="39.2528729" lon="16.7381785"><ele>1070.0</ele><time>2026-03-28T11:26:37.696Z</time></trkpt><trkpt lat="39.2529809" lon="16.7382703"><ele>1070.0</ele><time>2026-03-28T11:26:39.703Z</time></trkpt><trkpt lat="39.2529969" lon="16.7383915"><ele>1070.0</ele><time>2026-03-28T11:26:41.693Z</time></trkpt><trkpt lat="39.2529245" lon="16.7384888"><ele>1070.0</ele><time>2026-03-28T11:26:43.693Z</time></trkpt><trkpt lat="39.2529292" lon="16.7386384"><ele>1070.0</ele><time>2026-03-28T11:26:45.693Z</time></trkpt><trkpt lat="39.2529503" lon="16.7387472"><ele>1067.6</ele><time>2026-03-28T11:26:47.696Z</time></trkpt><trkpt lat="39.2529733" lon="16.7388261"><ele>1065.2</ele><time>2026-03-28T11:26:49.705Z</time></trkpt><trkpt lat="39.2530319" lon="16.7387923"><ele>1062.8</ele><time>2026-03-28T11:26:57.722Z</time></trkpt><trkpt lat="39.2532043" lon="16.7386481"><ele>1060.4</ele><time>2026-03-28T11:27:03.691Z</time></trkpt><trkpt lat="39.2532995" lon="16.7385895"><ele>1058.0</ele><time>2026-03-28T11:27:04.697Z</time></trkpt><trkpt lat="39.2533641" lon="16.7385542"><ele>1058.1666666666667</ele><time>2026-03-28T11:27:05.694Z</time></trkpt><trkpt lat="39.2534282" lon="16.7385154"><ele>1058.3333333333335</ele><time>2026-03-28T11:27:06.69Z</time></trkpt><trkpt lat="39.2534824" lon="16.738473"><ele>1058.5</ele><time>2026-03-28T11:27:07.69Z</time></trkpt><trkpt lat="39.2535777" lon="16.7383803"><ele>1058.6666666666667</ele><time>2026-03-28T11:27:09.689Z</time></trkpt><trkpt lat="39.2536434" lon="16.738292"><ele>1058.8333333333333</ele><time>2026-03-28T11:27:11.696Z</time></trkpt><trkpt lat="39.2537165" lon="16.7382976"><ele>1059.0</ele><time>2026-03-28T11:27:13.696Z</time></trkpt><trkpt lat="39.2538203" lon="16.7384192"><ele>1059.0</ele><time>2026-03-28T11:27:15.696Z</time></trkpt><trkpt lat="39.2538918" lon="16.7385054"><ele>1059.0</ele><time>2026-03-28T11:27:16.697Z</time></trkpt><trkpt lat="39.2539753" lon="16.7385917"><ele>1059.0</ele><time>2026-03-28T11:27:17.69Z</time></trkpt><trkpt lat="39.2540629" lon="16.7386631"><ele>1059.0</ele><time>2026-03-28T11:27:18.693Z</time></trkpt><trkpt lat="39.2541365" lon="16.7387114"><ele>1059.0</ele><time>2026-03-28T11:27:19.691Z</time></trkpt><trkpt lat="39.254203" lon="16.7387119"><ele>1057.8</ele><time>2026-03-28T11:27:20.702Z</time></trkpt><trkpt lat="39.2542699" lon="16.7386888"><ele>1056.6000000000001</ele><time>2026-03-28T11:27:21.69Z</time></trkpt><trkpt lat="39.2543412" lon="16.7386381"><ele>1055.4</ele><time>2026-03-28T11:27:22.693Z</time></trkpt><trkpt lat="39.2544101" lon="16.7385477"><ele>1054.2</ele><time>2026-03-28T11:27:23.688Z</time></trkpt><trkpt lat="39.254476" lon="16.7384341"><ele>1053.0</ele><time>2026-03-28T11:27:24.693Z</time></trkpt><trkpt lat="39.2545639" lon="16.7382804"><ele>1053.0</ele><time>2026-03-28T11:27:25.69Z</time></trkpt><trkpt lat="39.2546487" lon="16.7381324"><ele>1053.0</ele><time>2026-03-28T11:27:26.699Z</time></trkpt><trkpt lat="39.2547082" lon="16.7380207"><ele>1053.0</ele><time>2026-03-28T11:27:27.689Z</time></trkpt><trkpt lat="39.2547592" lon="16.7379428"><ele>1053.0</ele><time>2026-03-28T11:27:29.684Z</time></trkpt><trkpt lat="39.2548334" lon="16.7380572"><ele>1053.0</ele><time>2026-03-28T11:27:31.692Z</time></trkpt><trkpt lat="39.2548892" lon="16.7381693"><ele>1051.1666666666667</ele><time>2026-03-28T11:27:32.695Z</time></trkpt><trkpt lat="39.2549444" lon="16.7382841"><ele>1049.3333333333333</ele><time>2026-03-28T11:27:33.691Z</time></trkpt><trkpt lat="39.2549819" lon="16.7383764"><ele>1047.5</ele><time>2026-03-28T11:27:34.685Z</time></trkpt><trkpt lat="39.2550127" lon="16.7384663"><ele>1045.6666666666665</ele><time>2026-03-28T11:27:35.695Z</time></trkpt><trkpt lat="39.2550386" lon="16.7385423"><ele>1043.8333333333333</ele><time>2026-03-28T11:27:36.698Z</time></trkpt><trkpt lat="39.2550493" lon="16.7384451"><ele>1042.0</ele><time>2026-03-28T11:29:49.734Z</time></trkpt><trkpt lat="39.2550775" lon="16.7383599"><ele>1042.0</ele><time>2026-03-28T11:29:57.901Z</time></trkpt><trkpt lat="39.2550939" lon="16.7382814"><ele>1042.0</ele><time>2026-03-28T11:30:02.736Z</time></trkpt><trkpt lat="39.255173" lon="16.7382767"><ele>1042.0</ele><time>2026-03-28T11:30:06.72Z</time></trkpt><trkpt lat="39.2552394" lon="16.7382954"><ele>1042.0</ele><time>2026-03-28T11:30:08.621Z</time></trkpt><trkpt lat="39.2553212" lon="16.7383407"><ele>1042.0</ele><time>2026-03-28T11:30:10.736Z</time></trkpt><trkpt lat="39.2553901" lon="16.7383713"><ele>1042.0</ele><time>2026-03-28T11:30:12.757Z</time></trkpt><trkpt lat="39.2554547" lon="16.7383987"><ele>1042.0</ele><time>2026-03-28T11:30:14.719Z</time></trkpt><trkpt lat="39.2554899" lon="16.7384734"><ele>1040.0</ele><time>2026-03-28T11:30:16.763Z</time></trkpt><trkpt lat="39.2554809" lon="16.7385577"><ele>1038.0</ele><time>2026-03-28T11:30:18.78Z</time></trkpt><trkpt lat="39.2554517" lon="16.7386398"><ele>1036.0</ele><time>2026-03-28T11:30:21.636Z</time></trkpt><trkpt lat="39.2553946" lon="16.7387128"><ele>1034.0</ele><time>2026-03-28T11:30:24.763Z</time></trkpt><trkpt lat="39.2553322" lon="16.7387981"><ele>1032.0</ele><time>2026-03-28T11:30:27.598Z</time></trkpt><trkpt lat="39.2552802" lon="16.7388837"><ele>1030.0</ele><time>2026-03-28T11:30:29.723Z</time></trkpt><trkpt lat="39.2552423" lon="16.7389676"><ele>1030.0</ele><time>2026-03-28T11:30:31.745Z</time></trkpt><trkpt lat="39.2551934" lon="16.7390868"><ele>1030.0</ele><time>2026-03-28T11:30:34.703Z</time></trkpt><trkpt lat="39.2551534" lon="16.7391722"><ele>1030.0</ele><time>2026-03-28T11:30:36.695Z</time></trkpt><trkpt lat="39.2551113" lon="16.7392559"><ele>1030.0</ele><time>2026-03-28T11:30:38.712Z</time></trkpt><trkpt lat="39.2550713" lon="16.7393335"><ele>1030.0</ele><time>2026-03-28T11:30:40.749Z</time></trkpt><trkpt lat="39.2550229" lon="16.7394157"><ele>1030.0</ele><time>2026-03-28T11:30:42.756Z</time></trkpt><trkpt lat="39.2549717" lon="16.739494"><ele>1024.6</ele><time>2026-03-28T11:30:44.775Z</time></trkpt><trkpt lat="39.2549146" lon="16.7395771"><ele>1019.2</ele><time>2026-03-28T11:30:46.637Z</time></trkpt><trkpt lat="39.2548582" lon="16.7397001"><ele>1013.8</ele><time>2026-03-28T11:30:48.754Z</time></trkpt><trkpt lat="39.2548465" lon="16.7398247"><ele>1008.4</ele><time>2026-03-28T11:30:50.716Z</time></trkpt><trkpt lat="39.2548408" lon="16.7399531"><ele>1003.0</ele><time>2026-03-28T11:30:52.716Z</time></trkpt><trkpt lat="39.2547913" lon="16.7400514"><ele>1006.8</ele><time>2026-03-28T11:30:54.717Z</time></trkpt><trkpt lat="39.2547185" lon="16.7400768"><ele>1010.5999999999999</ele><time>2026-03-28T11:30:56.758Z</time></trkpt><trkpt lat="39.2546261" lon="16.740072"><ele>1014.4000000000001</ele><time>2026-03-28T11:30:58.742Z</time></trkpt><trkpt lat="39.2545353" lon="16.740074"><ele>1018.2</ele><time>2026-03-28T11:31:00.765Z</time></trkpt><trkpt lat="39.2544244" lon="16.7400827"><ele>1022.0</ele><time>2026-03-28T11:31:02.705Z</time></trkpt><trkpt lat="39.2543133" lon="16.7400774"><ele>1022.0000000000001</ele><time>2026-03-28T11:31:04.692Z</time></trkpt><trkpt lat="39.2542208" lon="16.7400827"><ele>1022.0</ele><time>2026-03-28T11:31:06.696Z</time></trkpt><trkpt lat="39.25419" lon="16.7401701"><ele>1022.0</ele><time>2026-03-28T11:31:08.703Z</time></trkpt><trkpt lat="39.2542132" lon="16.7403183"><ele>1022.0</ele><time>2026-03-28T11:31:10.703Z</time></trkpt><trkpt lat="39.2542263" lon="16.7403995"><ele>1022.0000000000001</ele><time>2026-03-28T11:31:11.687Z</time></trkpt><trkpt lat="39.2542398" lon="16.7404822"><ele>1022.0</ele><time>2026-03-28T11:31:12.699Z</time></trkpt><trkpt lat="39.2542656" lon="16.7406149"><ele>1019.3333333333334</ele><time>2026-03-28T11:31:14.7Z</time></trkpt><trkpt lat="39.2542755" lon="16.7407109"><ele>1016.6666666666667</ele><time>2026-03-28T11:31:16.708Z</time></trkpt><trkpt lat="39.2540112" lon="16.7410211"><ele>1014.0</ele><time>2026-03-28T11:31:20.703Z</time></trkpt><trkpt lat="39.2539019" lon="16.7411181"><ele>1014.0</ele><time>2026-03-28T11:31:21.698Z</time></trkpt><trkpt lat="39.253791" lon="16.7412064"><ele>1014.0000000000001</ele><time>2026-03-28T11:31:22.698Z</time></trkpt><trkpt lat="39.2536953" lon="16.7412549"><ele>1014.0000000000001</ele><time>2026-03-28T11:31:23.69Z</time></trkpt><trkpt lat="39.2536025" lon="16.7412744"><ele>1014.0</ele><time>2026-03-28T11:31:24.692Z</time></trkpt><trkpt lat="39.253505" lon="16.7412757"><ele>1014.0</ele><time>2026-03-28T11:31:25.694Z</time></trkpt><trkpt lat="39.2534075" lon="16.7413005"><ele>1014.0</ele><time>2026-03-28T11:31:26.7Z</time></trkpt><trkpt lat="39.2533152" lon="16.7413386"><ele>1014.0</ele><time>2026-03-28T11:31:27.688Z</time></trkpt><trkpt lat="39.2532343" lon="16.7413846"><ele>1014.0</ele><time>2026-03-28T11:31:28.686Z</time></trkpt><trkpt lat="39.2531693" lon="16.7414358"><ele>1014.0</ele><time>2026-03-28T11:31:29.692Z</time></trkpt><trkpt lat="39.2531577" lon="16.7415249"><ele>1014.0</ele><time>2026-03-28T11:31:31.699Z</time></trkpt><trkpt lat="39.2532434" lon="16.741599"><ele>1014.0</ele><time>2026-03-28T11:31:33.701Z</time></trkpt><trkpt lat="39.2533046" lon="16.7416417"><ele>1014.0</ele><time>2026-03-28T11:31:34.694Z</time></trkpt><trkpt lat="39.2533593" lon="16.741706"><ele>1014.0000000000001</ele><time>2026-03-28T11:31:35.697Z</time></trkpt><trkpt lat="39.2534147" lon="16.7417828"><ele>1014.0000000000001</ele><time>2026-03-28T11:31:36.705Z</time></trkpt><trkpt lat="39.2534955" lon="16.7418477"><ele>1014.0</ele><time>2026-03-28T11:31:37.696Z</time></trkpt><trkpt lat="39.253594" lon="16.7418895"><ele>1014.0</ele><time>2026-03-28T11:31:38.699Z</time></trkpt><trkpt lat="39.2536948" lon="16.7419271"><ele>1013.8333333333334</ele><time>2026-03-28T11:31:39.701Z</time></trkpt><trkpt lat="39.2537799" lon="16.7419521"><ele>1013.6666666666667</ele><time>2026-03-28T11:31:40.701Z</time></trkpt><trkpt lat="39.2538597" lon="16.741987"><ele>1013.5</ele><time>2026-03-28T11:31:41.69Z</time></trkpt><trkpt lat="39.2539328" lon="16.7420413"><ele>1013.3333333333334</ele><time>2026-03-28T11:31:42.692Z</time></trkpt><trkpt lat="39.2539986" lon="16.742103"><ele>1013.1666666666667</ele><time>2026-03-28T11:31:43.7Z</time></trkpt><trkpt lat="39.2540656" lon="16.7421792"><ele>1013.0</ele><time>2026-03-28T11:31:44.696Z</time></trkpt><trkpt lat="39.2541309" lon="16.7422573"><ele>1009.3333333333334</ele><time>2026-03-28T11:31:45.69Z</time></trkpt><trkpt lat="39.2541929" lon="16.7423343"><ele>1005.6666666666667</ele><time>2026-03-28T11:31:46.697Z</time></trkpt><trkpt lat="39.2542375" lon="16.7424211"><ele>1002.0</ele><time>2026-03-28T11:31:47.698Z</time></trkpt><trkpt lat="39.2542593" lon="16.7425227"><ele>998.3333333333333</ele><time>2026-03-28T11:31:48.704Z</time></trkpt><trkpt lat="39.2542689" lon="16.7426238"><ele>994.6666666666666</ele><time>2026-03-28T11:31:49.698Z</time></trkpt><trkpt lat="39.2542608" lon="16.7427223"><ele>991.0</ele><time>2026-03-28T11:31:50.705Z</time></trkpt><trkpt lat="39.2542387" lon="16.7428132"><ele>990.1428571428573</ele><time>2026-03-28T11:31:51.695Z</time></trkpt><trkpt lat="39.2542014" lon="16.7428882"><ele>989.2857142857143</ele><time>2026-03-28T11:31:52.707Z</time></trkpt><trkpt lat="39.2541654" lon="16.7429557"><ele>988.4285714285716</ele><time>2026-03-28T11:31:53.691Z</time></trkpt><trkpt lat="39.2541305" lon="16.743027"><ele>987.5714285714287</ele><time>2026-03-28T11:31:54.7Z</time></trkpt><trkpt lat="39.2540924" lon="16.7431102"><ele>986.7142857142858</ele><time>2026-03-28T11:31:55.703Z</time></trkpt><trkpt lat="39.2540484" lon="16.7431935"><ele>985.8571428571429</ele><time>2026-03-28T11:31:56.698Z</time></trkpt><trkpt lat="39.2540064" lon="16.7432649"><ele>985.0</ele><time>2026-03-28T11:31:57.69Z</time></trkpt><trkpt lat="39.2539673" lon="16.7433454"><ele>984.4999999999999</ele><time>2026-03-28T11:31:58.696Z</time></trkpt><trkpt lat="39.2539332" lon="16.7434783"><ele>984.0</ele><time>2026-03-28T11:32:00.703Z</time></trkpt><trkpt lat="39.2539363" lon="16.7435598"><ele>983.5</ele><time>2026-03-28T11:32:02.697Z</time></trkpt><trkpt lat="39.253998" lon="16.7436408"><ele>983.0</ele><time>2026-03-28T11:32:05.69Z</time></trkpt><trkpt lat="39.2540688" lon="16.7436656"><ele>982.4999999999999</ele><time>2026-03-28T11:32:08.695Z</time></trkpt><trkpt lat="39.2541532" lon="16.7436802"><ele>982.0</ele><time>2026-03-28T11:32:13.697Z</time></trkpt><trkpt lat="39.2542087" lon="16.7437295"><ele>981.4999999999999</ele><time>2026-03-28T11:32:17.714Z</time></trkpt><trkpt lat="39.2542257" lon="16.7438217"><ele>981.0</ele><time>2026-03-28T11:32:20.706Z</time></trkpt><trkpt lat="39.2542156" lon="16.7439154"><ele>980.5</ele><time>2026-03-28T11:32:23.705Z</time></trkpt><trkpt lat="39.2541528" lon="16.7439706"><ele>980.0</ele><time>2026-03-28T11:32:26.731Z</time></trkpt><trkpt lat="39.2540901" lon="16.7439931"><ele>979.4999999999999</ele><time>2026-03-28T11:32:28.792Z</time></trkpt><trkpt lat="39.2541513" lon="16.7441286"><ele>979.0</ele><time>2026-03-28T11:32:30.697Z</time></trkpt><trkpt lat="39.254201" lon="16.7442098"><ele>978.9999999999999</ele><time>2026-03-28T11:32:31.699Z</time></trkpt><trkpt lat="39.2542239" lon="16.7443507"><ele>979.0</ele><time>2026-03-28T11:32:33.696Z</time></trkpt><trkpt lat="39.2542554" lon="16.7444218"><ele>979.0</ele><time>2026-03-28T11:32:36.697Z</time></trkpt><trkpt lat="39.2543258" lon="16.744418"><ele>979.0</ele><time>2026-03-28T11:32:39.689Z</time></trkpt><trkpt lat="39.2543519" lon="16.7445324"><ele>978.9999999999999</ele><time>2026-03-28T11:32:42.621Z</time></trkpt><trkpt lat="39.2543922" lon="16.7446135"><ele>979.0</ele><time>2026-03-28T11:32:45.361Z</time></trkpt><trkpt lat="39.254451" lon="16.7446802"><ele>977.9999999999999</ele><time>2026-03-28T11:32:48.764Z</time></trkpt><trkpt lat="39.2544835" lon="16.7447895"><ele>977.0</ele><time>2026-03-28T11:32:52.709Z</time></trkpt><trkpt lat="39.2544748" lon="16.7448835"><ele>976.0</ele><time>2026-03-28T11:32:54.696Z</time></trkpt><trkpt lat="39.2544849" lon="16.7449666"><ele>975.0</ele><time>2026-03-28T11:32:58.7Z</time></trkpt><trkpt lat="39.2545015" lon="16.7450451"><ele>973.9999999999999</ele><time>2026-03-28T11:33:22.781Z</time></trkpt><trkpt lat="39.2545274" lon="16.7451576"><ele>973.0</ele><time>2026-03-28T11:33:25.781Z</time></trkpt><trkpt lat="39.2545644" lon="16.7452453"><ele>971.75</ele><time>2026-03-28T11:33:27.695Z</time></trkpt><trkpt lat="39.2547554" lon="16.7453841"><ele>970.5</ele><time>2026-03-28T11:33:29.705Z</time></trkpt><trkpt lat="39.2548181" lon="16.7454288"><ele>969.25</ele><time>2026-03-28T11:33:30.703Z</time></trkpt><trkpt lat="39.2549144" lon="16.7455071"><ele>968.0</ele><time>2026-03-28T11:33:32.703Z</time></trkpt><trkpt lat="39.2550008" lon="16.7455854"><ele>969.8</ele><time>2026-03-28T11:33:34.704Z</time></trkpt><trkpt lat="39.2550908" lon="16.7456652"><ele>971.5999999999999</ele><time>2026-03-28T11:33:36.707Z</time></trkpt><trkpt lat="39.2551523" lon="16.7457554"><ele>973.4000000000001</ele><time>2026-03-28T11:33:38.706Z</time></trkpt><trkpt lat="39.2551493" lon="16.7458582"><ele>975.2</ele><time>2026-03-28T11:33:40.702Z</time></trkpt><trkpt lat="39.2551356" lon="16.7459578"><ele>977.0</ele><time>2026-03-28T11:33:42.71Z</time></trkpt><trkpt lat="39.2551149" lon="16.7460702"><ele>977.0</ele><time>2026-03-28T11:33:44.702Z</time></trkpt><trkpt lat="39.2550964" lon="16.7462039"><ele>977.0</ele><time>2026-03-28T11:33:46.699Z</time></trkpt><trkpt lat="39.2550844" lon="16.7463518"><ele>977.0</ele><time>2026-03-28T11:33:48.701Z</time></trkpt><trkpt lat="39.2550739" lon="16.7464903"><ele>977.0</ele><time>2026-03-28T11:33:50.695Z</time></trkpt><trkpt lat="39.2550588" lon="16.7466107"><ele>977.0</ele><time>2026-03-28T11:33:52.691Z</time></trkpt><trkpt lat="39.2550402" lon="16.7467071"><ele>977.0000000000001</ele><time>2026-03-28T11:33:54.692Z</time></trkpt><trkpt lat="39.2550363" lon="16.7468382"><ele>977.0</ele><time>2026-03-28T11:33:56.696Z</time></trkpt><trkpt lat="39.255034" lon="16.7469204"><ele>977.0</ele><time>2026-03-28T11:33:58.705Z</time></trkpt><trkpt lat="39.2550269" lon="16.7470248"><ele>977.0</ele><time>2026-03-28T11:34:01.713Z</time></trkpt><trkpt lat="39.2550146" lon="16.7471047"><ele>977.0000000000001</ele><time>2026-03-28T11:34:03.692Z</time></trkpt><trkpt lat="39.2549939" lon="16.7472032"><ele>977.0</ele><time>2026-03-28T11:34:06.717Z</time></trkpt><trkpt lat="39.2549632" lon="16.7474566"><ele>977.0000000000001</ele><time>2026-03-28T11:34:09.694Z</time></trkpt><trkpt lat="39.2549734" lon="16.74754"><ele>977.0</ele><time>2026-03-28T11:34:10.704Z</time></trkpt><trkpt lat="39.254986" lon="16.7476252"><ele>977.0000000000001</ele><time>2026-03-28T11:34:11.694Z</time></trkpt><trkpt lat="39.2549926" lon="16.747712"><ele>977.0000000000001</ele><time>2026-03-28T11:34:12.694Z</time></trkpt><trkpt lat="39.2549958" lon="16.7477999"><ele>977.0</ele><time>2026-03-28T11:34:13.7Z</time></trkpt><trkpt lat="39.2550027" lon="16.7478922"><ele>977.0000000000001</ele><time>2026-03-28T11:34:14.7Z</time></trkpt><trkpt lat="39.2550135" lon="16.7479905"><ele>977.0000000000001</ele><time>2026-03-28T11:34:15.691Z</time></trkpt><trkpt lat="39.2550246" lon="16.7480914"><ele>977.1666666666667</ele><time>2026-03-28T11:34:16.693Z</time></trkpt><trkpt lat="39.2550326" lon="16.7481886"><ele>977.3333333333334</ele><time>2026-03-28T11:34:17.69Z</time></trkpt><trkpt lat="39.2550356" lon="16.7482716"><ele>977.5</ele><time>2026-03-28T11:34:18.698Z</time></trkpt><trkpt lat="39.255044" lon="16.7483844"><ele>977.6666666666667</ele><time>2026-03-28T11:34:20.695Z</time></trkpt><trkpt lat="39.255056" lon="16.7484796"><ele>977.8333333333334</ele><time>2026-03-28T11:34:22.697Z</time></trkpt><trkpt lat="39.2550727" lon="16.7485684"><ele>978.0</ele><time>2026-03-28T11:34:24.702Z</time></trkpt><trkpt lat="39.2550837" lon="16.7487055"><ele>978.0</ele><time>2026-03-28T11:34:28.754Z</time></trkpt><trkpt lat="39.2551552" lon="16.7488268"><ele>978.0</ele><time>2026-03-28T11:34:30.781Z</time></trkpt><trkpt lat="39.255169" lon="16.7489263"><ele>978.0</ele><time>2026-03-28T11:34:32.722Z</time></trkpt><trkpt lat="39.2551221" lon="16.7489816"><ele>978.0</ele><time>2026-03-28T11:34:33.742Z</time></trkpt><trkpt lat="39.2551261" lon="16.7490916"><ele>978.0</ele><time>2026-03-28T11:34:35.699Z</time></trkpt><trkpt lat="39.2551905" lon="16.7492208"><ele>978.0</ele><time>2026-03-28T11:34:37.699Z</time></trkpt><trkpt lat="39.2552314" lon="16.7492885"><ele>978.0000000000001</ele><time>2026-03-28T11:34:38.699Z</time></trkpt><trkpt lat="39.2552704" lon="16.7493575"><ele>978.0</ele><time>2026-03-28T11:34:39.699Z</time></trkpt><trkpt lat="39.255315" lon="16.74942"><ele>978.0</ele><time>2026-03-28T11:34:40.697Z</time></trkpt><trkpt lat="39.2553673" lon="16.7494767"><ele>978.0000000000001</ele><time>2026-03-28T11:34:41.698Z</time></trkpt><trkpt lat="39.2554161" lon="16.7495388"><ele>978.0</ele><time>2026-03-28T11:34:42.696Z</time></trkpt><trkpt lat="39.2554774" lon="16.7496619"><ele>978.0</ele><time>2026-03-28T11:34:44.692Z</time></trkpt><trkpt lat="39.2555484" lon="16.7497616"><ele>978.4</ele><time>2026-03-28T11:34:46.697Z</time></trkpt><trkpt lat="39.2556035" lon="16.7498803"><ele>978.8</ele><time>2026-03-28T11:34:48.706Z</time></trkpt><trkpt lat="39.2556218" lon="16.7499834"><ele>979.2</ele><time>2026-03-28T11:34:50.701Z</time></trkpt><trkpt lat="39.2556025" lon="16.7501157"><ele>979.6</ele><time>2026-03-28T11:34:52.698Z</time></trkpt><trkpt lat="39.2555969" lon="16.7502487"><ele>980.0</ele><time>2026-03-28T11:34:54.701Z</time></trkpt><trkpt lat="39.2556015" lon="16.7503574"><ele>980.0</ele><time>2026-03-28T11:34:56.691Z</time></trkpt><trkpt lat="39.2555986" lon="16.7505071"><ele>980.0</ele><time>2026-03-28T11:34:59.701Z</time></trkpt><trkpt lat="39.2555789" lon="16.7506501"><ele>980.0</ele><time>2026-03-28T11:35:01.697Z</time></trkpt><trkpt lat="39.2555833" lon="16.7507881"><ele>980.0</ele><time>2026-03-28T11:35:03.698Z</time></trkpt><trkpt lat="39.255615" lon="16.7509136"><ele>980.0</ele><time>2026-03-28T11:35:05.69Z</time></trkpt><trkpt lat="39.2556454" lon="16.7510279"><ele>979.3333333333334</ele><time>2026-03-28T11:35:07.69Z</time></trkpt><trkpt lat="39.2556627" lon="16.7511525"><ele>978.6666666666667</ele><time>2026-03-28T11:35:09.7Z</time></trkpt><trkpt lat="39.2556635" lon="16.7512811"><ele>978.0</ele><time>2026-03-28T11:35:11.696Z</time></trkpt><trkpt lat="39.255662" lon="16.7513774"><ele>977.3333333333333</ele><time>2026-03-28T11:35:13.705Z</time></trkpt><trkpt lat="39.2556357" lon="16.7514598"><ele>976.6666666666666</ele><time>2026-03-28T11:35:15.703Z</time></trkpt><trkpt lat="39.2555775" lon="16.7515314"><ele>976.0</ele><time>2026-03-28T11:35:17.697Z</time></trkpt><trkpt lat="39.2555091" lon="16.7515656"><ele>975.9999999999999</ele><time>2026-03-28T11:35:20.719Z</time></trkpt><trkpt lat="39.2554449" lon="16.7516379"><ele>976.0</ele><time>2026-03-28T11:35:22.758Z</time></trkpt><trkpt lat="39.2553781" lon="16.7516583"><ele>975.9999999999999</ele><time>2026-03-28T11:35:25.682Z</time></trkpt><trkpt lat="39.2553154" lon="16.7517157"><ele>975.9999999999999</ele><time>2026-03-28T11:35:28.761Z</time></trkpt><trkpt lat="39.2552905" lon="16.7517907"><ele>976.0</ele><time>2026-03-28T11:35:31.723Z</time></trkpt><trkpt lat="39.2552253" lon="16.751818"><ele>975.9999999999999</ele><time>2026-03-28T11:35:34.77Z</time></trkpt><trkpt lat="39.2551592" lon="16.7518316"><ele>975.9999999999999</ele><time>2026-03-28T11:35:36.713Z</time></trkpt><trkpt lat="39.2550988" lon="16.7518615"><ele>974.6666666666666</ele><time>2026-03-28T11:35:39.775Z</time></trkpt><trkpt lat="39.2550327" lon="16.7519106"><ele>973.3333333333333</ele><time>2026-03-28T11:35:43.759Z</time></trkpt><trkpt lat="39.2549651" lon="16.7519328"><ele>972.0</ele><time>2026-03-28T11:35:46.761Z</time></trkpt><trkpt lat="39.2548955" lon="16.7519741"><ele>970.6666666666667</ele><time>2026-03-28T11:35:51.803Z</time></trkpt><trkpt lat="39.2548427" lon="16.7520363"><ele>969.3333333333334</ele><time>2026-03-28T11:35:54.757Z</time></trkpt><trkpt lat="39.2548148" lon="16.7521345"><ele>968.0</ele><time>2026-03-28T11:35:58.801Z</time></trkpt><trkpt lat="39.2548539" lon="16.7522254"><ele>968.0000000000001</ele><time>2026-03-28T11:36:01.716Z</time></trkpt><trkpt lat="39.254835" lon="16.7523213"><ele>968.0</ele><time>2026-03-28T11:36:04.715Z</time></trkpt><trkpt lat="39.2547739" lon="16.7523879"><ele>968.0</ele><time>2026-03-28T11:36:08.757Z</time></trkpt><trkpt lat="39.2547237" lon="16.7524627"><ele>968.0</ele><time>2026-03-28T11:36:12.692Z</time></trkpt><trkpt lat="39.2546943" lon="16.7525427"><ele>968.0000000000001</ele><time>2026-03-28T11:36:15.808Z</time></trkpt><trkpt lat="39.2546604" lon="16.7526478"><ele>968.0</ele><time>2026-03-28T11:36:19.382Z</time></trkpt><trkpt lat="39.2546032" lon="16.7527046"><ele>963.5000000000001</ele><time>2026-03-28T11:36:22.788Z</time></trkpt><trkpt lat="39.254553" lon="16.7527579"><ele>959.0</ele><time>2026-03-28T11:36:25.751Z</time></trkpt><trkpt lat="39.2544621" lon="16.7527519"><ele>954.5</ele><time>2026-03-28T11:36:28.711Z</time></trkpt><trkpt lat="39.2543913" lon="16.7527323"><ele>950.0</ele><time>2026-03-28T11:36:31.674Z</time></trkpt><trkpt lat="39.2543334" lon="16.7527788"><ele>945.5000000000001</ele><time>2026-03-28T11:36:35.71Z</time></trkpt><trkpt lat="39.2543511" lon="16.7528803"><ele>941.0</ele><time>2026-03-28T11:36:37.703Z</time></trkpt><trkpt lat="39.2543968" lon="16.7529622"><ele>941.0000000000001</ele><time>2026-03-28T11:36:39.661Z</time></trkpt><trkpt lat="39.2544395" lon="16.7530697"><ele>941.0</ele><time>2026-03-28T11:36:41.751Z</time></trkpt><trkpt lat="39.2544795" lon="16.7531488"><ele>941.0</ele><time>2026-03-28T11:36:44.708Z</time></trkpt><trkpt lat="39.2544272" lon="16.7532038"><ele>941.0</ele><time>2026-03-28T11:37:03.781Z</time></trkpt><trkpt lat="39.2543093" lon="16.7531572"><ele>941.0000000000001</ele><time>2026-03-28T11:37:06.703Z</time></trkpt><trkpt lat="39.2542506" lon="16.7531077"><ele>941.0</ele><time>2026-03-28T11:37:07.703Z</time></trkpt><trkpt lat="39.254164" lon="16.7530191"><ele>941.0000000000001</ele><time>2026-03-28T11:37:09.702Z</time></trkpt><trkpt lat="39.2540945" lon="16.7529626"><ele>941.0</ele><time>2026-03-28T11:37:11.696Z</time></trkpt><trkpt lat="39.2540198" lon="16.7529176"><ele>941.0</ele><time>2026-03-28T11:37:13.696Z</time></trkpt><trkpt lat="39.2539499" lon="16.7528633"><ele>941.0</ele><time>2026-03-28T11:37:15.697Z</time></trkpt><trkpt lat="39.2538809" lon="16.7528565"><ele>941.0000000000001</ele><time>2026-03-28T11:37:17.707Z</time></trkpt><trkpt lat="39.2538045" lon="16.7528889"><ele>941.0</ele><time>2026-03-28T11:37:19.743Z</time></trkpt><trkpt lat="39.2537352" lon="16.7529328"><ele>939.0000000000001</ele><time>2026-03-28T11:37:21.703Z</time></trkpt><trkpt lat="39.2536753" lon="16.7529991"><ele>937.0</ele><time>2026-03-28T11:37:23.759Z</time></trkpt><trkpt lat="39.2536286" lon="16.7530786"><ele>935.0</ele><time>2026-03-28T11:37:25.703Z</time></trkpt><trkpt lat="39.253485" lon="16.7530561"><ele>933.0</ele><time>2026-03-28T11:37:30.762Z</time></trkpt><trkpt lat="39.2534466" lon="16.7531382"><ele>931.0000000000001</ele><time>2026-03-28T11:37:31.725Z</time></trkpt><trkpt lat="39.2534253" lon="16.7532263"><ele>929.0</ele><time>2026-03-28T11:37:33.599Z</time></trkpt><trkpt lat="39.2534423" lon="16.7531235"><ele>929.0</ele><time>2026-03-28T11:37:37.72Z</time></trkpt><trkpt lat="39.2535329" lon="16.7533705"><ele>929.0</ele><time>2026-03-28T11:37:44.694Z</time></trkpt><trkpt lat="39.2535725" lon="16.7534409"><ele>929.0</ele><time>2026-03-28T11:37:45.696Z</time></trkpt><trkpt lat="39.2536335" lon="16.7535635"><ele>929.0</ele><time>2026-03-28T11:37:47.699Z</time></trkpt><trkpt lat="39.2536767" lon="16.7536813"><ele>927.8333333333334</ele><time>2026-03-28T11:37:49.696Z</time></trkpt><trkpt lat="39.2537081" lon="16.7538102"><ele>926.6666666666667</ele><time>2026-03-28T11:37:51.702Z</time></trkpt><trkpt lat="39.2537295" lon="16.7539687"><ele>925.5</ele><time>2026-03-28T11:37:53.702Z</time></trkpt><trkpt lat="39.2537385" lon="16.7540501"><ele>924.3333333333333</ele><time>2026-03-28T11:37:54.706Z</time></trkpt><trkpt lat="39.2537456" lon="16.7541357"><ele>923.1666666666666</ele><time>2026-03-28T11:37:55.703Z</time></trkpt><trkpt lat="39.2537483" lon="16.7542187"><ele>922.0</ele><time>2026-03-28T11:37:56.702Z</time></trkpt><trkpt lat="39.2537427" lon="16.7543769"><ele>920.8333333333333</ele><time>2026-03-28T11:37:58.698Z</time></trkpt><trkpt lat="39.2537194" lon="16.7545429"><ele>919.6666666666666</ele><time>2026-03-28T11:38:00.697Z</time></trkpt><trkpt lat="39.253708" lon="16.7546331"><ele>918.5</ele><time>2026-03-28T11:38:01.693Z</time></trkpt><trkpt lat="39.2536983" lon="16.7547217"><ele>917.3333333333333</ele><time>2026-03-28T11:38:02.691Z</time></trkpt><trkpt lat="39.2536918" lon="16.7548104"><ele>916.1666666666666</ele><time>2026-03-28T11:38:03.698Z</time></trkpt><trkpt lat="39.2536871" lon="16.7548974"><ele>915.0</ele><time>2026-03-28T11:38:04.693Z</time></trkpt><trkpt lat="39.2536885" lon="16.7549825"><ele>915.0</ele><time>2026-03-28T11:38:05.698Z</time></trkpt><trkpt lat="39.2536914" lon="16.7550664"><ele>915.0</ele><time>2026-03-28T11:38:06.703Z</time></trkpt><trkpt lat="39.2537117" lon="16.7551597"><ele>915.0</ele><time>2026-03-28T11:38:08.706Z</time></trkpt><trkpt lat="39.2536714" lon="16.755269"><ele>915.0</ele><time>2026-03-28T11:38:22.699Z</time></trkpt><trkpt lat="39.2536717" lon="16.7553845"><ele>915.0</ele><time>2026-03-28T11:38:25.696Z</time></trkpt><trkpt lat="39.2536667" lon="16.7554869"><ele>915.0</ele><time>2026-03-28T11:38:28.803Z</time></trkpt><trkpt lat="39.2536268" lon="16.7555555"><ele>913.1666666666666</ele><time>2026-03-28T11:38:31.7Z</time></trkpt><trkpt lat="39.2535255" lon="16.7555457"><ele>911.3333333333333</ele><time>2026-03-28T11:38:33.718Z</time></trkpt><trkpt lat="39.2534583" lon="16.7555288"><ele>909.5</ele><time>2026-03-28T11:38:38.765Z</time></trkpt><trkpt lat="39.2533937" lon="16.755532"><ele>907.6666666666666</ele><time>2026-03-28T11:38:45.703Z</time></trkpt><trkpt lat="39.2533155" lon="16.755502"><ele>905.8333333333333</ele><time>2026-03-28T11:38:50.709Z</time></trkpt><trkpt lat="39.2532214" lon="16.7555208"><ele>904.0</ele><time>2026-03-28T11:38:53.75Z</time></trkpt><trkpt lat="39.2531685" lon="16.7556008"><ele>903.3333333333333</ele><time>2026-03-28T11:38:56.751Z</time></trkpt><trkpt lat="39.2531042" lon="16.7556826"><ele>902.6666666666666</ele><time>2026-03-28T11:39:00.752Z</time></trkpt><trkpt lat="39.2530531" lon="16.7557414"><ele>902.0</ele><time>2026-03-28T11:39:02.78Z</time></trkpt><trkpt lat="39.2529837" lon="16.7557664"><ele>901.3333333333333</ele><time>2026-03-28T11:39:21.705Z</time></trkpt><trkpt lat="39.252894" lon="16.7557494"><ele>900.6666666666666</ele><time>2026-03-28T11:39:24.699Z</time></trkpt><trkpt lat="39.2528153" lon="16.7557614"><ele>900.0</ele><time>2026-03-28T11:39:26.708Z</time></trkpt><trkpt lat="39.2527499" lon="16.7557675"><ele>900.0</ele><time>2026-03-28T11:39:29.786Z</time></trkpt><trkpt lat="39.2526911" lon="16.7558688"><ele>900.0</ele><time>2026-03-28T11:39:42.705Z</time></trkpt><trkpt lat="39.2526499" lon="16.7559433"><ele>900.0</ele><time>2026-03-28T11:39:45.708Z</time></trkpt><trkpt lat="39.2526296" lon="16.756057"><ele>900.0</ele><time>2026-03-28T11:39:48.708Z</time></trkpt><trkpt lat="39.2526226" lon="16.7561682"><ele>900.0</ele><time>2026-03-28T11:39:50.773Z</time></trkpt><trkpt lat="39.2526336" lon="16.7562682"><ele>900.0</ele><time>2026-03-28T11:39:52.751Z</time></trkpt><trkpt lat="39.2526814" lon="16.7563578"><ele>899.0</ele><time>2026-03-28T11:39:54.676Z</time></trkpt><trkpt lat="39.2525859" lon="16.7565161"><ele>898.0</ele><time>2026-03-28T11:39:55.704Z</time></trkpt><trkpt lat="39.2526093" lon="16.7566619"><ele>897.0</ele><time>2026-03-28T11:39:57.697Z</time></trkpt><trkpt lat="39.2526427" lon="16.7567948"><ele>896.0</ele><time>2026-03-28T11:39:59.697Z</time></trkpt><trkpt lat="39.2526733" lon="16.756921"><ele>895.0</ele><time>2026-03-28T11:40:01.699Z</time></trkpt><trkpt lat="39.2526914" lon="16.7570515"><ele>893.9999999999999</ele><time>2026-03-28T11:40:03.696Z</time></trkpt><trkpt lat="39.2526697" lon="16.7571914"><ele>892.9999999999999</ele><time>2026-03-28T11:40:05.704Z</time></trkpt><trkpt lat="39.2526234" lon="16.7573148"><ele>892.0</ele><time>2026-03-28T11:40:07.705Z</time></trkpt><trkpt lat="39.2525452" lon="16.7574078"><ele>891.0</ele><time>2026-03-28T11:40:09.7Z</time></trkpt><trkpt lat="39.2524626" lon="16.7574656"><ele>891.0</ele><time>2026-03-28T11:40:11.699Z</time></trkpt><trkpt lat="39.2523869" lon="16.757512"><ele>891.0</ele><time>2026-03-28T11:40:13.699Z</time></trkpt><trkpt lat="39.2523161" lon="16.7575457"><ele>891.0</ele><time>2026-03-28T11:40:15.697Z</time></trkpt><trkpt lat="39.2522494" lon="16.7575991"><ele>891.0</ele><time>2026-03-28T11:40:17.699Z</time></trkpt><trkpt lat="39.2521941" lon="16.7576537"><ele>891.0</ele><time>2026-03-28T11:40:20.681Z</time></trkpt><trkpt lat="39.2521124" lon="16.7577234"><ele>891.0</ele><time>2026-03-28T11:40:23.719Z</time></trkpt><trkpt lat="39.252061" lon="16.7578042"><ele>889.8333333333334</ele><time>2026-03-28T11:40:25.758Z</time></trkpt><trkpt lat="39.2520212" lon="16.7579019"><ele>888.6666666666667</ele><time>2026-03-28T11:40:27.779Z</time></trkpt><trkpt lat="39.2519714" lon="16.7579863"><ele>887.5</ele><time>2026-03-28T11:40:29.683Z</time></trkpt><trkpt lat="39.2518937" lon="16.7580429"><ele>886.3333333333334</ele><time>2026-03-28T11:40:31.78Z</time></trkpt><trkpt lat="39.2518164" lon="16.758086"><ele>885.1666666666667</ele><time>2026-03-28T11:40:33.705Z</time></trkpt><trkpt lat="39.2517684" lon="16.7581657"><ele>884.0</ele><time>2026-03-28T11:40:35.787Z</time></trkpt><trkpt lat="39.2517399" lon="16.7582625"><ele>884.0000000000001</ele><time>2026-03-28T11:40:37.782Z</time></trkpt><trkpt lat="39.2516971" lon="16.7583487"><ele>884.0</ele><time>2026-03-28T11:40:39.781Z</time></trkpt><trkpt lat="39.2516594" lon="16.7584334"><ele>884.0</ele><time>2026-03-28T11:40:41.764Z</time></trkpt><trkpt lat="39.2516179" lon="16.7585162"><ele>884.0</ele><time>2026-03-28T11:40:43.784Z</time></trkpt><trkpt lat="39.2515806" lon="16.7586142"><ele>884.0000000000001</ele><time>2026-03-28T11:40:45.705Z</time></trkpt><trkpt lat="39.2515411" lon="16.7587148"><ele>884.0</ele><time>2026-03-28T11:40:47.762Z</time></trkpt><trkpt lat="39.2515418" lon="16.7588186"><ele>883.0000000000001</ele><time>2026-03-28T11:40:49.728Z</time></trkpt><trkpt lat="39.2515639" lon="16.7589047"><ele>882.0</ele><time>2026-03-28T11:40:51.768Z</time></trkpt><trkpt lat="39.2515029" lon="16.7589748"><ele>881.0</ele><time>2026-03-28T11:40:55.704Z</time></trkpt><trkpt lat="39.2514754" lon="16.7590493"><ele>880.0</ele><time>2026-03-28T11:40:57.73Z</time></trkpt><trkpt lat="39.2514414" lon="16.7591298"><ele>879.0</ele><time>2026-03-28T11:40:59.721Z</time></trkpt><trkpt lat="39.2514118" lon="16.7592131"><ele>878.0000000000001</ele><time>2026-03-28T11:41:01.664Z</time></trkpt><trkpt lat="39.2513689" lon="16.7593054"><ele>877.0</ele><time>2026-03-28T11:41:03.768Z</time></trkpt><trkpt lat="39.2513147" lon="16.7593869"><ele>875.1666666666666</ele><time>2026-03-28T11:41:05.725Z</time></trkpt><trkpt lat="39.2512395" lon="16.7594486"><ele>873.3333333333333</ele><time>2026-03-28T11:41:08.703Z</time></trkpt><trkpt lat="39.2511899" lon="16.7595029"><ele>871.5</ele><time>2026-03-28T11:41:10.725Z</time></trkpt><trkpt lat="39.2511548" lon="16.7595907"><ele>869.6666666666667</ele><time>2026-03-28T11:41:13.712Z</time></trkpt><trkpt lat="39.2510994" lon="16.7596435"><ele>867.8333333333334</ele><time>2026-03-28T11:41:17.724Z</time></trkpt><trkpt lat="39.2510429" lon="16.7596999"><ele>866.0</ele><time>2026-03-28T11:41:20.564Z</time></trkpt><trkpt lat="39.2510102" lon="16.7597996"><ele>865.9999999999999</ele><time>2026-03-28T11:41:23.693Z</time></trkpt><trkpt lat="39.2509781" lon="16.7598705"><ele>866.0</ele><time>2026-03-28T11:41:27.772Z</time></trkpt><trkpt lat="39.2509545" lon="16.7599561"><ele>866.0</ele><time>2026-03-28T11:41:30.736Z</time></trkpt><trkpt lat="39.2509229" lon="16.7600397"><ele>866.0</ele><time>2026-03-28T11:41:33.759Z</time></trkpt><trkpt lat="39.2508996" lon="16.7601244"><ele>866.0</ele><time>2026-03-28T11:41:36.738Z</time></trkpt><trkpt lat="39.2508793" lon="16.7602069"><ele>865.9999999999999</ele><time>2026-03-28T11:41:39.698Z</time></trkpt><trkpt lat="39.2508381" lon="16.7602715"><ele>866.0</ele><time>2026-03-28T11:41:44.7Z</time></trkpt><trkpt lat="39.250821" lon="16.7603605"><ele>864.0000000000001</ele><time>2026-03-28T11:41:48.763Z</time></trkpt><trkpt lat="39.2507869" lon="16.7604385"><ele>862.0</ele><time>2026-03-28T11:41:51.763Z</time></trkpt><trkpt lat="39.2507251" lon="16.7604963"><ele>860.0</ele><time>2026-03-28T11:41:53.765Z</time></trkpt><trkpt lat="39.250644" lon="16.7605259"><ele>858.0</ele><time>2026-03-28T11:41:55.766Z</time></trkpt><trkpt lat="39.2505661" lon="16.76055"><ele>856.0000000000001</ele><time>2026-03-28T11:41:57.702Z</time></trkpt><trkpt lat="39.2504968" lon="16.7605461"><ele>854.0</ele><time>2026-03-28T11:41:59.768Z</time></trkpt><trkpt lat="39.2504312" lon="16.7605114"><ele>852.8571428571429</ele><time>2026-03-28T11:42:01.727Z</time></trkpt><trkpt lat="39.2503752" lon="16.7605522"><ele>851.7142857142858</ele><time>2026-03-28T11:42:03.681Z</time></trkpt><trkpt lat="39.2503342" lon="16.7606253"><ele>850.5714285714286</ele><time>2026-03-28T11:42:07.644Z</time></trkpt><trkpt lat="39.2503193" lon="16.7607337"><ele>849.4285714285714</ele><time>2026-03-28T11:42:32.734Z</time></trkpt><trkpt lat="39.2503097" lon="16.7608304"><ele>848.2857142857143</ele><time>2026-03-28T11:42:35.704Z</time></trkpt><trkpt lat="39.2503078" lon="16.7609203"><ele>847.1428571428571</ele><time>2026-03-28T11:42:38.777Z</time></trkpt><trkpt lat="39.2503236" lon="16.7610269"><ele>846.0</ele><time>2026-03-28T11:42:41.704Z</time></trkpt><trkpt lat="39.25033" lon="16.7611282"><ele>844.3333333333334</ele><time>2026-03-28T11:42:43.781Z</time></trkpt><trkpt lat="39.2503304" lon="16.7612192"><ele>842.6666666666667</ele><time>2026-03-28T11:42:45.762Z</time></trkpt><trkpt lat="39.2503174" lon="16.7613221"><ele>841.0</ele><time>2026-03-28T11:42:47.728Z</time></trkpt><trkpt lat="39.2503005" lon="16.761432"><ele>839.3333333333334</ele><time>2026-03-28T11:42:49.709Z</time></trkpt><trkpt lat="39.2502848" lon="16.7615322"><ele>837.6666666666667</ele><time>2026-03-28T11:42:51.705Z</time></trkpt><trkpt lat="39.250294" lon="16.7616204"><ele>836.0</ele><time>2026-03-28T11:42:53.78Z</time></trkpt><trkpt lat="39.2503316" lon="16.7617307"><ele>836.0</ele><time>2026-03-28T11:42:56.699Z</time></trkpt><trkpt lat="39.2503334" lon="16.7618299"><ele>836.0</ele><time>2026-03-28T11:42:58.786Z</time></trkpt><trkpt lat="39.2503247" lon="16.7619333"><ele>836.0</ele><time>2026-03-28T11:43:00.74Z</time></trkpt><trkpt lat="39.2503075" lon="16.7620162"><ele>836.0</ele><time>2026-03-28T11:43:02.622Z</time></trkpt><trkpt lat="39.250271" lon="16.7620872"><ele>836.0</ele><time>2026-03-28T11:43:04.729Z</time></trkpt><trkpt lat="39.2502309" lon="16.7621649"><ele>836.0</ele><time>2026-03-28T11:43:06.742Z</time></trkpt><trkpt lat="39.2501947" lon="16.762266"><ele>836.0</ele><time>2026-03-28T11:43:08.749Z</time></trkpt><trkpt lat="39.250178" lon="16.7623532"><ele>834.3333333333334</ele><time>2026-03-28T11:43:10.731Z</time></trkpt><trkpt lat="39.2501687" lon="16.762449"><ele>832.6666666666667</ele><time>2026-03-28T11:43:13.731Z</time></trkpt><trkpt lat="39.2500985" lon="16.7624948"><ele>831.0</ele><time>2026-03-28T11:43:17.701Z</time></trkpt><trkpt lat="39.2500912" lon="16.7626169"><ele>829.3333333333333</ele><time>2026-03-28T11:43:21.713Z</time></trkpt><trkpt lat="39.2500949" lon="16.7627263"><ele>827.6666666666666</ele><time>2026-03-28T11:43:23.703Z</time></trkpt><trkpt lat="39.2501173" lon="16.7628303"><ele>826.0</ele><time>2026-03-28T11:43:25.77Z</time></trkpt><trkpt lat="39.2501212" lon="16.7629227"><ele>824.1999999999999</ele><time>2026-03-28T11:43:28.733Z</time></trkpt><trkpt lat="39.2500509" lon="16.7629556"><ele>822.4</ele><time>2026-03-28T11:43:32.753Z</time></trkpt><trkpt lat="39.2499026" lon="16.7630789"><ele>820.6</ele><time>2026-03-28T11:43:49.699Z</time></trkpt><trkpt lat="39.2498201" lon="16.763149"><ele>818.8</ele><time>2026-03-28T11:43:50.707Z</time></trkpt><trkpt lat="39.2497661" lon="16.7631964"><ele>817.0</ele><time>2026-03-28T11:43:51.7Z</time></trkpt><trkpt lat="39.249705" lon="16.763246"><ele>817.0</ele><time>2026-03-28T11:43:53.705Z</time></trkpt><trkpt lat="39.2496159" lon="16.763311"><ele>817.0</ele><time>2026-03-28T11:43:56.705Z</time></trkpt><trkpt lat="39.2495318" lon="16.7633683"><ele>817.0</ele><time>2026-03-28T11:43:58.702Z</time></trkpt><trkpt lat="39.2493885" lon="16.7634128"><ele>817.0</ele><time>2026-03-28T11:44:02.702Z</time></trkpt><trkpt lat="39.249271" lon="16.7634485"><ele>817.0</ele><time>2026-03-28T11:44:04.702Z</time></trkpt><trkpt lat="39.2492091" lon="16.7634723"><ele>817.0</ele><time>2026-03-28T11:44:05.697Z</time></trkpt><trkpt lat="39.2491507" lon="16.7635045"><ele>817.0</ele><time>2026-03-28T11:44:06.698Z</time></trkpt><trkpt lat="39.2490546" lon="16.7636021"><ele>817.0</ele><time>2026-03-28T11:44:08.693Z</time></trkpt><trkpt lat="39.2489864" lon="16.7637315"><ele>817.0</ele><time>2026-03-28T11:44:10.7Z</time></trkpt><trkpt lat="39.2489313" lon="16.7638694"><ele>815.8333333333333</ele><time>2026-03-28T11:44:12.701Z</time></trkpt><trkpt lat="39.2488939" lon="16.7640198"><ele>814.6666666666666</ele><time>2026-03-28T11:44:14.699Z</time></trkpt><trkpt lat="39.2488942" lon="16.7641051"><ele>813.5</ele><time>2026-03-28T11:44:15.698Z</time></trkpt><trkpt lat="39.2489086" lon="16.7641924"><ele>812.3333333333333</ele><time>2026-03-28T11:44:16.699Z</time></trkpt><trkpt lat="39.2489292" lon="16.7642786"><ele>811.1666666666666</ele><time>2026-03-28T11:44:17.7Z</time></trkpt><trkpt lat="39.2489506" lon="16.7643599"><ele>810.0</ele><time>2026-03-28T11:44:18.703Z</time></trkpt><trkpt lat="39.2489674" lon="16.7645095"><ele>808.1666666666666</ele><time>2026-03-28T11:44:20.698Z</time></trkpt><trkpt lat="39.2489362" lon="16.7646632"><ele>806.3333333333333</ele><time>2026-03-28T11:44:22.696Z</time></trkpt><trkpt lat="39.2489048" lon="16.764738"><ele>804.5</ele><time>2026-03-28T11:44:23.702Z</time></trkpt><trkpt lat="39.2488614" lon="16.7647993"><ele>802.6666666666666</ele><time>2026-03-28T11:44:24.706Z</time></trkpt><trkpt lat="39.2487484" lon="16.7648599"><ele>800.8333333333333</ele><time>2026-03-28T11:44:26.693Z</time></trkpt><trkpt lat="39.2486848" lon="16.7648655"><ele>799.0</ele><time>2026-03-28T11:44:27.701Z</time></trkpt><trkpt lat="39.2486196" lon="16.7648555"><ele>799.0</ele><time>2026-03-28T11:44:28.7Z</time></trkpt><trkpt lat="39.248556" lon="16.7648246"><ele>799.0</ele><time>2026-03-28T11:44:29.702Z</time></trkpt><trkpt lat="39.2484967" lon="16.764781"><ele>799.0</ele><time>2026-03-28T11:44:30.694Z</time></trkpt><trkpt lat="39.248438" lon="16.7647331"><ele>799.0</ele><time>2026-03-28T11:44:31.693Z</time></trkpt><trkpt lat="39.2483773" lon="16.7646868"><ele>799.0</ele><time>2026-03-28T11:44:32.697Z</time></trkpt><trkpt lat="39.2483171" lon="16.7646483"><ele>799.0</ele><time>2026-03-28T11:44:33.702Z</time></trkpt><trkpt lat="39.2482546" lon="16.7646247"><ele>799.0</ele><time>2026-03-28T11:44:34.702Z</time></trkpt><trkpt lat="39.2481857" lon="16.7646157"><ele>798.6666666666666</ele><time>2026-03-28T11:44:35.688Z</time></trkpt><trkpt lat="39.2481091" lon="16.7646202"><ele>798.3333333333333</ele><time>2026-03-28T11:44:36.699Z</time></trkpt><trkpt lat="39.2480268" lon="16.764642"><ele>798.0</ele><time>2026-03-28T11:44:37.727Z</time></trkpt><trkpt lat="39.2479405" lon="16.7646675"><ele>797.6666666666667</ele><time>2026-03-28T11:44:38.702Z</time></trkpt><trkpt lat="39.2478479" lon="16.7646964"><ele>797.3333333333334</ele><time>2026-03-28T11:44:39.689Z</time></trkpt><trkpt lat="39.2477517" lon="16.764728"><ele>797.0</ele><time>2026-03-28T11:44:40.734Z</time></trkpt><trkpt lat="39.24766" lon="16.7647572"><ele>797.0</ele><time>2026-03-28T11:44:41.701Z</time></trkpt><trkpt lat="39.2475689" lon="16.7647854"><ele>797.0</ele><time>2026-03-28T11:44:42.695Z</time></trkpt><trkpt lat="39.2474791" lon="16.7648139"><ele>797.0</ele><time>2026-03-28T11:44:43.687Z</time></trkpt><trkpt lat="39.2473885" lon="16.7648507"><ele>797.0</ele><time>2026-03-28T11:44:44.698Z</time></trkpt><trkpt lat="39.2473002" lon="16.7649081"><ele>797.0</ele><time>2026-03-28T11:44:45.698Z</time></trkpt><trkpt lat="39.2472173" lon="16.7649879"><ele>797.4000000000001</ele><time>2026-03-28T11:44:46.696Z</time></trkpt><trkpt lat="39.2471413" lon="16.7650856"><ele>797.8000000000001</ele><time>2026-03-28T11:44:47.693Z</time></trkpt><trkpt lat="39.2470767" lon="16.7652038"><ele>798.2</ele><time>2026-03-28T11:44:48.697Z</time></trkpt><trkpt lat="39.2470228" lon="16.7653313"><ele>798.6</ele><time>2026-03-28T11:44:49.693Z</time></trkpt><trkpt lat="39.2469834" lon="16.7654689"><ele>799.0</ele><time>2026-03-28T11:44:50.693Z</time></trkpt><trkpt lat="39.2469602" lon="16.7656144"><ele>797.6</ele><time>2026-03-28T11:44:51.696Z</time></trkpt><trkpt lat="39.2469469" lon="16.7657621"><ele>796.2</ele><time>2026-03-28T11:44:52.704Z</time></trkpt><trkpt lat="39.2469337" lon="16.7659011"><ele>794.8000000000001</ele><time>2026-03-28T11:44:53.704Z</time></trkpt><trkpt lat="39.2469063" lon="16.7660271"><ele>793.4000000000001</ele><time>2026-03-28T11:44:54.694Z</time></trkpt><trkpt lat="39.2468562" lon="16.7661454"><ele>792.0</ele><time>2026-03-28T11:44:55.697Z</time></trkpt><trkpt lat="39.2467826" lon="16.7662513"><ele>790.25</ele><time>2026-03-28T11:44:56.695Z</time></trkpt><trkpt lat="39.2466953" lon="16.7663506"><ele>788.5</ele><time>2026-03-28T11:44:57.701Z</time></trkpt><trkpt lat="39.2465887" lon="16.7664168"><ele>786.75</ele><time>2026-03-28T11:44:58.699Z</time></trkpt><trkpt lat="39.2464841" lon="16.766481"><ele>785.0</ele><time>2026-03-28T11:44:59.693Z</time></trkpt><trkpt lat="39.2463804" lon="16.766551"><ele>783.5</ele><time>2026-03-28T11:45:00.698Z</time></trkpt><trkpt lat="39.2463028" lon="16.7666596"><ele>782.0</ele><time>2026-03-28T11:45:01.7Z</time></trkpt><trkpt lat="39.2462433" lon="16.7667906"><ele>780.5</ele><time>2026-03-28T11:45:02.693Z</time></trkpt><trkpt lat="39.2462031" lon="16.7669393"><ele>779.0</ele><time>2026-03-28T11:45:03.7Z</time></trkpt><trkpt lat="39.2461768" lon="16.7670979"><ele>777.0</ele><time>2026-03-28T11:45:04.703Z</time></trkpt><trkpt lat="39.2461504" lon="16.767252"><ele>775.0</ele><time>2026-03-28T11:45:05.698Z</time></trkpt><trkpt lat="39.246123" lon="16.7673961"><ele>773.0</ele><time>2026-03-28T11:45:06.695Z</time></trkpt><trkpt lat="39.246099" lon="16.7675276"><ele>771.0</ele><time>2026-03-28T11:45:07.693Z</time></trkpt><trkpt lat="39.2460868" lon="16.7676504"><ele>769.0</ele><time>2026-03-28T11:45:08.695Z</time></trkpt><trkpt lat="39.2460985" lon="16.7677632"><ele>768.8333333333333</ele><time>2026-03-28T11:45:09.696Z</time></trkpt><trkpt lat="39.2461405" lon="16.7678598"><ele>768.6666666666666</ele><time>2026-03-28T11:45:10.696Z</time></trkpt><trkpt lat="39.2461893" lon="16.76794"><ele>768.5</ele><time>2026-03-28T11:45:11.694Z</time></trkpt><trkpt lat="39.2462625" lon="16.7679749"><ele>768.3333333333333</ele><time>2026-03-28T11:45:12.704Z</time></trkpt><trkpt lat="39.2463449" lon="16.7679845"><ele>768.1666666666666</ele><time>2026-03-28T11:45:13.693Z</time></trkpt><trkpt lat="39.2464357" lon="16.7679408"><ele>768.0</ele><time>2026-03-28T11:45:14.697Z</time></trkpt><trkpt lat="39.2465078" lon="16.767858"><ele>768.0</ele><time>2026-03-28T11:45:15.694Z</time></trkpt><trkpt lat="39.2465738" lon="16.7677596"><ele>768.0</ele><time>2026-03-28T11:45:16.698Z</time></trkpt><trkpt lat="39.246639" lon="16.7676567"><ele>768.0</ele><time>2026-03-28T11:45:17.694Z</time></trkpt><trkpt lat="39.2467041" lon="16.7675607"><ele>768.0</ele><time>2026-03-28T11:45:18.702Z</time></trkpt><trkpt lat="39.2467662" lon="16.7674781"><ele>768.0</ele><time>2026-03-28T11:45:19.706Z</time></trkpt><trkpt lat="39.2468275" lon="16.7674182"><ele>767.9999999999999</ele><time>2026-03-28T11:45:20.701Z</time></trkpt><trkpt lat="39.2468894" lon="16.7673752"><ele>768.0</ele><time>2026-03-28T11:45:21.698Z</time></trkpt><trkpt lat="39.2469546" lon="16.767384"><ele>768.0</ele><time>2026-03-28T11:45:22.704Z</time></trkpt><trkpt lat="39.2470089" lon="16.767431"><ele>768.0</ele><time>2026-03-28T11:45:23.696Z</time></trkpt><trkpt lat="39.2470445" lon="16.7675087"><ele>768.0</ele><time>2026-03-28T11:45:24.698Z</time></trkpt><trkpt lat="39.2470593" lon="16.7676038"><ele>767.9999999999999</ele><time>2026-03-28T11:45:25.699Z</time></trkpt><trkpt lat="39.2470545" lon="16.7677093"><ele>768.0</ele><time>2026-03-28T11:45:26.7Z</time></trkpt><trkpt lat="39.2470448" lon="16.7678197"><ele>768.0</ele><time>2026-03-28T11:45:27.7Z</time></trkpt><trkpt lat="39.2470347" lon="16.7679385"><ele>768.0</ele><time>2026-03-28T11:45:28.696Z</time></trkpt><trkpt lat="39.2470243" lon="16.7680658"><ele>768.0</ele><time>2026-03-28T11:45:29.697Z</time></trkpt><trkpt lat="39.2470145" lon="16.7682018"><ele>768.0</ele><time>2026-03-28T11:45:30.704Z</time></trkpt><trkpt lat="39.2470025" lon="16.7683448"><ele>768.0</ele><time>2026-03-28T11:45:31.696Z</time></trkpt><trkpt lat="39.2469861" lon="16.7684934"><ele>765.8</ele><time>2026-03-28T11:45:32.696Z</time></trkpt><trkpt lat="39.2469632" lon="16.7686447"><ele>763.5999999999999</ele><time>2026-03-28T11:45:33.709Z</time></trkpt><trkpt lat="39.2469306" lon="16.768784"><ele>761.4000000000001</ele><time>2026-03-28T11:45:34.703Z</time></trkpt><trkpt lat="39.2468909" lon="16.7689069"><ele>759.2</ele><time>2026-03-28T11:45:35.695Z</time></trkpt><trkpt lat="39.2468488" lon="16.7690163"><ele>757.0</ele><time>2026-03-28T11:45:36.708Z</time></trkpt><trkpt lat="39.2468064" lon="16.7691177"><ele>757.0</ele><time>2026-03-28T11:45:37.705Z</time></trkpt><trkpt lat="39.2467651" lon="16.7692207"><ele>757.0</ele><time>2026-03-28T11:45:38.696Z</time></trkpt><trkpt lat="39.2467308" lon="16.7693301"><ele>757.0</ele><time>2026-03-28T11:45:39.699Z</time></trkpt><trkpt lat="39.2467188" lon="16.7694377"><ele>757.0</ele><time>2026-03-28T11:45:40.705Z</time></trkpt><trkpt lat="39.2467458" lon="16.7695322"><ele>757.0</ele><time>2026-03-28T11:45:41.706Z</time></trkpt><trkpt lat="39.2467859" lon="16.769616"><ele>757.0</ele><time>2026-03-28T11:45:42.704Z</time></trkpt><trkpt lat="39.2468644" lon="16.7696411"><ele>757.1666666666667</ele><time>2026-03-28T11:45:43.696Z</time></trkpt><trkpt lat="39.2469555" lon="16.7696333"><ele>757.3333333333334</ele><time>2026-03-28T11:45:44.701Z</time></trkpt><trkpt lat="39.2470453" lon="16.7696353"><ele>757.5</ele><time>2026-03-28T11:45:45.693Z</time></trkpt><trkpt lat="39.2471264" lon="16.7696696"><ele>757.6666666666666</ele><time>2026-03-28T11:45:46.697Z</time></trkpt><trkpt lat="39.2471915" lon="16.7697288"><ele>757.8333333333333</ele><time>2026-03-28T11:45:47.691Z</time></trkpt><trkpt lat="39.2472474" lon="16.7698019"><ele>758.0</ele><time>2026-03-28T11:45:48.708Z</time></trkpt><trkpt lat="39.2473081" lon="16.7698715"><ele>758.0</ele><time>2026-03-28T11:45:49.691Z</time></trkpt><trkpt lat="39.2473829" lon="16.7699203"><ele>758.0</ele><time>2026-03-28T11:45:50.692Z</time></trkpt><trkpt lat="39.2474675" lon="16.7699383"><ele>758.0</ele><time>2026-03-28T11:45:51.703Z</time></trkpt><trkpt lat="39.2475596" lon="16.7699289"><ele>758.0</ele><time>2026-03-28T11:45:52.73Z</time></trkpt><trkpt lat="39.2476533" lon="16.7698969"><ele>758.0</ele><time>2026-03-28T11:45:53.693Z</time></trkpt><trkpt lat="39.2477473" lon="16.7698444"><ele>758.0</ele><time>2026-03-28T11:45:54.691Z</time></trkpt><trkpt lat="39.2478373" lon="16.7697791"><ele>758.0</ele><time>2026-03-28T11:45:55.698Z</time></trkpt><trkpt lat="39.2479234" lon="16.7697003"><ele>758.0</ele><time>2026-03-28T11:45:56.696Z</time></trkpt><trkpt lat="39.248003" lon="16.7696077"><ele>758.0</ele><time>2026-03-28T11:45:57.688Z</time></trkpt><trkpt lat="39.2480752" lon="16.7695039"><ele>758.0</ele><time>2026-03-28T11:45:58.696Z</time></trkpt><trkpt lat="39.2481428" lon="16.7693973"><ele>757.6666666666666</ele><time>2026-03-28T11:45:59.695Z</time></trkpt><trkpt lat="39.2482087" lon="16.7692924"><ele>757.3333333333333</ele><time>2026-03-28T11:46:00.696Z</time></trkpt><trkpt lat="39.2482694" lon="16.7692027"><ele>757.0</ele><time>2026-03-28T11:46:01.7Z</time></trkpt><trkpt lat="39.2483323" lon="16.7691414"><ele>756.6666666666666</ele><time>2026-03-28T11:46:02.701Z</time></trkpt><trkpt lat="39.2483962" lon="16.7691023"><ele>756.3333333333334</ele><time>2026-03-28T11:46:03.69Z</time></trkpt><trkpt lat="39.2484629" lon="16.7691213"><ele>756.0</ele><time>2026-03-28T11:46:04.695Z</time></trkpt><trkpt lat="39.2485146" lon="16.7691808"><ele>756.0</ele><time>2026-03-28T11:46:05.691Z</time></trkpt><trkpt lat="39.2485603" lon="16.7692573"><ele>756.0</ele><time>2026-03-28T11:46:06.697Z</time></trkpt><trkpt lat="39.2485691" lon="16.7693555"><ele>756.0</ele><time>2026-03-28T11:46:07.695Z</time></trkpt><trkpt lat="39.2485787" lon="16.7694585"><ele>756.0</ele><time>2026-03-28T11:46:08.697Z</time></trkpt><trkpt lat="39.2485923" lon="16.7695664"><ele>756.0</ele><time>2026-03-28T11:46:09.698Z</time></trkpt><trkpt lat="39.2486165" lon="16.7696821"><ele>756.0</ele><time>2026-03-28T11:46:10.699Z</time></trkpt><trkpt lat="39.2486624" lon="16.7697891"><ele>754.5999999999999</ele><time>2026-03-28T11:46:11.692Z</time></trkpt><trkpt lat="39.2487306" lon="16.7698744"><ele>753.2</ele><time>2026-03-28T11:46:12.702Z</time></trkpt><trkpt lat="39.248825" lon="16.7699297"><ele>751.8</ele><time>2026-03-28T11:46:13.701Z</time></trkpt><trkpt lat="39.2489242" lon="16.7699611"><ele>750.4000000000001</ele><time>2026-03-28T11:46:14.701Z</time></trkpt><trkpt lat="39.2490152" lon="16.7699875"><ele>749.0</ele><time>2026-03-28T11:46:15.695Z</time></trkpt><trkpt lat="39.249096" lon="16.7700279"><ele>748.6666666666666</ele><time>2026-03-28T11:46:16.699Z</time></trkpt><trkpt lat="39.2491719" lon="16.7700912"><ele>748.3333333333333</ele><time>2026-03-28T11:46:17.695Z</time></trkpt><trkpt lat="39.2492389" lon="16.7701652"><ele>748.0</ele><time>2026-03-28T11:46:18.695Z</time></trkpt><trkpt lat="39.2492979" lon="16.7702412"><ele>747.6666666666666</ele><time>2026-03-28T11:46:19.696Z</time></trkpt><trkpt lat="39.2493493" lon="16.7703112"><ele>747.3333333333334</ele><time>2026-03-28T11:46:20.694Z</time></trkpt><trkpt lat="39.2493927" lon="16.770372"><ele>747.0</ele><time>2026-03-28T11:46:21.693Z</time></trkpt><trkpt lat="39.2494266" lon="16.7704784"><ele>745.0</ele><time>2026-03-28T11:46:23.698Z</time></trkpt><trkpt lat="39.2494112" lon="16.7705579"><ele>743.0</ele><time>2026-03-28T11:46:25.701Z</time></trkpt><trkpt lat="39.2494046" lon="16.7706457"><ele>741.0</ele><time>2026-03-28T11:46:27.694Z</time></trkpt><trkpt lat="39.2493999" lon="16.7707576"><ele>739.0</ele><time>2026-03-28T11:46:29.701Z</time></trkpt><trkpt lat="39.2493839" lon="16.770874"><ele>737.0</ele><time>2026-03-28T11:46:32.696Z</time></trkpt><trkpt lat="39.2493813" lon="16.7709884"><ele>735.0</ele><time>2026-03-28T11:46:34.694Z</time></trkpt><trkpt lat="39.2494102" lon="16.7711248"><ele>733.8333333333334</ele><time>2026-03-28T11:46:36.696Z</time></trkpt><trkpt lat="39.2494044" lon="16.7712063"><ele>732.6666666666666</ele><time>2026-03-28T11:46:37.695Z</time></trkpt><trkpt lat="39.2493917" lon="16.7712971"><ele>731.5</ele><time>2026-03-28T11:46:38.695Z</time></trkpt><trkpt lat="39.2493776" lon="16.7713948"><ele>730.3333333333333</ele><time>2026-03-28T11:46:39.699Z</time></trkpt><trkpt lat="39.2493622" lon="16.7714951"><ele>729.1666666666666</ele><time>2026-03-28T11:46:40.698Z</time></trkpt><trkpt lat="39.2493465" lon="16.7715955"><ele>728.0</ele><time>2026-03-28T11:46:41.694Z</time></trkpt><trkpt lat="39.2493356" lon="16.7717033"><ele>728.0</ele><time>2026-03-28T11:46:42.703Z</time></trkpt><trkpt lat="39.2493262" lon="16.7718122"><ele>728.0</ele><time>2026-03-28T11:46:43.7Z</time></trkpt><trkpt lat="39.2493166" lon="16.771919"><ele>728.0</ele><time>2026-03-28T11:46:44.706Z</time></trkpt><trkpt lat="39.2493079" lon="16.7720155"><ele>728.0</ele><time>2026-03-28T11:46:45.697Z</time></trkpt><trkpt lat="39.2492955" lon="16.7721055"><ele>728.0</ele><time>2026-03-28T11:46:46.69Z</time></trkpt><trkpt lat="39.2492791" lon="16.7721978"><ele>728.0</ele><time>2026-03-28T11:46:47.693Z</time></trkpt><trkpt lat="39.2492655" lon="16.7722878"><ele>727.5</ele><time>2026-03-28T11:46:48.699Z</time></trkpt><trkpt lat="39.249255" lon="16.7723819"><ele>727.0</ele><time>2026-03-28T11:46:49.692Z</time></trkpt><trkpt lat="39.2492472" lon="16.7724811"><ele>726.5</ele><time>2026-03-28T11:46:50.706Z</time></trkpt><trkpt lat="39.2492418" lon="16.7725821"><ele>726.0</ele><time>2026-03-28T11:46:51.696Z</time></trkpt><trkpt lat="39.2492355" lon="16.7726856"><ele>725.5</ele><time>2026-03-28T11:46:52.694Z</time></trkpt><trkpt lat="39.2492245" lon="16.7727859"><ele>725.0</ele><time>2026-03-28T11:46:53.708Z</time></trkpt><trkpt lat="39.2492083" lon="16.7728801"><ele>725.0</ele><time>2026-03-28T11:46:54.699Z</time></trkpt><trkpt lat="39.2491888" lon="16.772966"><ele>725.0</ele><time>2026-03-28T11:46:55.696Z</time></trkpt><trkpt lat="39.2491573" lon="16.773076"><ele>725.0</ele><time>2026-03-28T11:46:57.7Z</time></trkpt><trkpt lat="39.2491059" lon="16.7731788"><ele>725.0</ele><time>2026-03-28T11:47:02.723Z</time></trkpt><trkpt lat="39.2490506" lon="16.7733198"><ele>725.0</ele><time>2026-03-28T11:47:04.724Z</time></trkpt><trkpt lat="39.2489959" lon="16.7734715"><ele>725.0</ele><time>2026-03-28T11:47:06.698Z</time></trkpt><trkpt lat="39.2489618" lon="16.773556"><ele>725.0</ele><time>2026-03-28T11:47:07.764Z</time></trkpt><trkpt lat="39.2489248" lon="16.7736364"><ele>725.0</ele><time>2026-03-28T11:47:08.719Z</time></trkpt><trkpt lat="39.2488819" lon="16.7737235"><ele>725.0</ele><time>2026-03-28T11:47:09.698Z</time></trkpt><trkpt lat="39.248834" lon="16.7738278"><ele>725.0</ele><time>2026-03-28T11:47:10.704Z</time></trkpt><trkpt lat="39.2487634" lon="16.7739516"><ele>725.0</ele><time>2026-03-28T11:47:11.701Z</time></trkpt><trkpt lat="39.2486674" lon="16.7740954"><ele>724.6666666666666</ele><time>2026-03-28T11:47:12.709Z</time></trkpt><trkpt lat="39.248553" lon="16.7742547"><ele>724.3333333333334</ele><time>2026-03-28T11:47:13.71Z</time></trkpt><trkpt lat="39.2484364" lon="16.7744179"><ele>724.0</ele><time>2026-03-28T11:47:14.694Z</time></trkpt><trkpt lat="39.248328" lon="16.7745734"><ele>721.75</ele><time>2026-03-28T11:47:15.703Z</time></trkpt><trkpt lat="39.2482316" lon="16.7747184"><ele>719.5</ele><time>2026-03-28T11:47:16.711Z</time></trkpt><trkpt lat="39.2481347" lon="16.774858"><ele>717.25</ele><time>2026-03-28T11:47:17.713Z</time></trkpt><trkpt lat="39.2480411" lon="16.7749909"><ele>715.0</ele><time>2026-03-28T11:47:18.696Z</time></trkpt><trkpt lat="39.2479489" lon="16.775117"><ele>712.25</ele><time>2026-03-28T11:47:19.712Z</time></trkpt><trkpt lat="39.2478622" lon="16.7752341"><ele>709.5</ele><time>2026-03-28T11:47:20.711Z</time></trkpt><trkpt lat="39.2477862" lon="16.7753515"><ele>706.75</ele><time>2026-03-28T11:47:21.699Z</time></trkpt><trkpt lat="39.2477175" lon="16.7754673"><ele>704.0</ele><time>2026-03-28T11:47:22.745Z</time></trkpt><trkpt lat="39.2476501" lon="16.7755736"><ele>704.0</ele><time>2026-03-28T11:47:23.704Z</time></trkpt><trkpt lat="39.247582" lon="16.7756788"><ele>704.0</ele><time>2026-03-28T11:47:24.697Z</time></trkpt><trkpt lat="39.2475153" lon="16.7757827"><ele>704.0</ele><time>2026-03-28T11:47:25.712Z</time></trkpt><trkpt lat="39.2474519" lon="16.7758872"><ele>704.0</ele><time>2026-03-28T11:47:26.719Z</time></trkpt><trkpt lat="39.2473911" lon="16.7759891"><ele>704.0</ele><time>2026-03-28T11:47:27.705Z</time></trkpt><trkpt lat="39.2473338" lon="16.7760927"><ele>699.8000000000001</ele><time>2026-03-28T11:47:28.699Z</time></trkpt><trkpt lat="39.2472798" lon="16.7762004"><ele>695.6</ele><time>2026-03-28T11:47:29.701Z</time></trkpt><trkpt lat="39.2472343" lon="16.7763145"><ele>691.4</ele><time>2026-03-28T11:47:30.696Z</time></trkpt><trkpt lat="39.2471951" lon="16.7764333"><ele>687.2</ele><time>2026-03-28T11:47:31.69Z</time></trkpt><trkpt lat="39.2471601" lon="16.7765474"><ele>683.0</ele><time>2026-03-28T11:47:32.697Z</time></trkpt><trkpt lat="39.2471302" lon="16.7766389"><ele>683.0</ele><time>2026-03-28T11:47:33.7Z</time></trkpt><trkpt lat="39.2470897" lon="16.7767482"><ele>683.0</ele><time>2026-03-28T11:47:35.697Z</time></trkpt><trkpt lat="39.2470162" lon="16.7768355"><ele>683.0</ele><time>2026-03-28T11:47:37.697Z</time></trkpt><trkpt lat="39.2469512" lon="16.7768726"><ele>683.0</ele><time>2026-03-28T11:47:38.699Z</time></trkpt><trkpt lat="39.2468736" lon="16.7769092"><ele>683.0</ele><time>2026-03-28T11:47:39.694Z</time></trkpt><trkpt lat="39.2467888" lon="16.7769477"><ele>683.0</ele><time>2026-03-28T11:47:40.692Z</time></trkpt><trkpt lat="39.2466997" lon="16.7769875"><ele>683.4</ele><time>2026-03-28T11:47:41.696Z</time></trkpt><trkpt lat="39.2466093" lon="16.7770282"><ele>683.8</ele><time>2026-03-28T11:47:42.702Z</time></trkpt><trkpt lat="39.2465205" lon="16.7770719"><ele>684.2</ele><time>2026-03-28T11:47:43.709Z</time></trkpt><trkpt lat="39.2464342" lon="16.7771212"><ele>684.6</ele><time>2026-03-28T11:47:44.688Z</time></trkpt><trkpt lat="39.2463512" lon="16.777186"><ele>685.0</ele><time>2026-03-28T11:47:45.684Z</time></trkpt><trkpt lat="39.2462776" lon="16.7772721"><ele>683.4</ele><time>2026-03-28T11:47:46.692Z</time></trkpt><trkpt lat="39.2462165" lon="16.7773742"><ele>681.8</ele><time>2026-03-28T11:47:47.696Z</time></trkpt><trkpt lat="39.2461679" lon="16.777489"><ele>680.2</ele><time>2026-03-28T11:47:48.705Z</time></trkpt><trkpt lat="39.2461295" lon="16.7776148"><ele>678.6</ele><time>2026-03-28T11:47:49.695Z</time></trkpt><trkpt lat="39.2460967" lon="16.7777503"><ele>677.0</ele><time>2026-03-28T11:47:50.692Z</time></trkpt><trkpt lat="39.2460629" lon="16.7778897"><ele>676.25</ele><time>2026-03-28T11:47:51.696Z</time></trkpt><trkpt lat="39.2460258" lon="16.7780285"><ele>675.5</ele><time>2026-03-28T11:47:52.703Z</time></trkpt><trkpt lat="39.2459861" lon="16.7781671"><ele>674.75</ele><time>2026-03-28T11:47:53.701Z</time></trkpt><trkpt lat="39.2459458" lon="16.7783096"><ele>674.0</ele><time>2026-03-28T11:47:54.729Z</time></trkpt><trkpt lat="39.2459062" lon="16.7784492"><ele>673.5</ele><time>2026-03-28T11:47:55.698Z</time></trkpt><trkpt lat="39.2458671" lon="16.7785885"><ele>673.0</ele><time>2026-03-28T11:47:56.685Z</time></trkpt><trkpt lat="39.2458294" lon="16.7787274"><ele>672.5</ele><time>2026-03-28T11:47:57.693Z</time></trkpt><trkpt lat="39.2457906" lon="16.7788662"><ele>672.0</ele><time>2026-03-28T11:47:58.694Z</time></trkpt><trkpt lat="39.2457503" lon="16.779006"><ele>672.0</ele><time>2026-03-28T11:47:59.697Z</time></trkpt><trkpt lat="39.2457086" lon="16.7791462"><ele>672.0</ele><time>2026-03-28T11:48:00.69Z</time></trkpt><trkpt lat="39.2456639" lon="16.779288"><ele>672.0</ele><time>2026-03-28T11:48:01.698Z</time></trkpt><trkpt lat="39.2456189" lon="16.7794308"><ele>672.0</ele><time>2026-03-28T11:48:02.694Z</time></trkpt><trkpt lat="39.2455764" lon="16.7795779"><ele>670.25</ele><time>2026-03-28T11:48:03.692Z</time></trkpt><trkpt lat="39.2455358" lon="16.7797284"><ele>668.5</ele><time>2026-03-28T11:48:04.702Z</time></trkpt><trkpt lat="39.2454946" lon="16.7798765"><ele>666.75</ele><time>2026-03-28T11:48:05.692Z</time></trkpt><trkpt lat="39.2454546" lon="16.7800188"><ele>665.0</ele><time>2026-03-28T11:48:06.687Z</time></trkpt><trkpt lat="39.2454175" lon="16.7801566"><ele>665.0</ele><time>2026-03-28T11:48:07.702Z</time></trkpt><trkpt lat="39.2453818" lon="16.7802906"><ele>665.0</ele><time>2026-03-28T11:48:08.695Z</time></trkpt><trkpt lat="39.2453444" lon="16.7804265"><ele>665.0</ele><time>2026-03-28T11:48:09.691Z</time></trkpt><trkpt lat="39.2453045" lon="16.7805623"><ele>665.0</ele><time>2026-03-28T11:48:10.696Z</time></trkpt><trkpt lat="39.2452619" lon="16.7806935"><ele>665.0</ele><time>2026-03-28T11:48:11.686Z</time></trkpt><trkpt lat="39.2452173" lon="16.7808202"><ele>665.0</ele><time>2026-03-28T11:48:12.688Z</time></trkpt><trkpt lat="39.2451749" lon="16.7809446"><ele>665.0</ele><time>2026-03-28T11:48:13.703Z</time></trkpt><trkpt lat="39.2451355" lon="16.7810633"><ele>665.0</ele><time>2026-03-28T11:48:14.694Z</time></trkpt><trkpt lat="39.2450988" lon="16.7811739"><ele>665.0</ele><time>2026-03-28T11:48:15.69Z</time></trkpt><trkpt lat="39.2450611" lon="16.7812861"><ele>665.0</ele><time>2026-03-28T11:48:16.694Z</time></trkpt><trkpt lat="39.2450222" lon="16.7814024"><ele>664.2</ele><time>2026-03-28T11:48:17.696Z</time></trkpt><trkpt lat="39.2449801" lon="16.7815157"><ele>663.4</ele><time>2026-03-28T11:48:18.702Z</time></trkpt><trkpt lat="39.244926" lon="16.7816225"><ele>662.5999999999999</ele><time>2026-03-28T11:48:19.691Z</time></trkpt><trkpt lat="39.244871" lon="16.7817203"><ele>661.8</ele><time>2026-03-28T11:48:20.69Z</time></trkpt><trkpt lat="39.2447916" lon="16.7818246"><ele>661.0</ele><time>2026-03-28T11:48:21.69Z</time></trkpt><trkpt lat="39.2447119" lon="16.7819289"><ele>658.5</ele><time>2026-03-28T11:48:22.694Z</time></trkpt><trkpt lat="39.244635" lon="16.7820389"><ele>656.0</ele><time>2026-03-28T11:48:23.694Z</time></trkpt><trkpt lat="39.2445575" lon="16.7821535"><ele>653.5</ele><time>2026-03-28T11:48:24.692Z</time></trkpt><trkpt lat="39.244484" lon="16.7822724"><ele>651.0</ele><time>2026-03-28T11:48:25.695Z</time></trkpt><trkpt lat="39.2444164" lon="16.7823912"><ele>651.0</ele><time>2026-03-28T11:48:26.69Z</time></trkpt><trkpt lat="39.2443522" lon="16.7825101"><ele>651.0</ele><time>2026-03-28T11:48:27.693Z</time></trkpt><trkpt lat="39.2442923" lon="16.7826229"><ele>651.0</ele><time>2026-03-28T11:48:28.69Z</time></trkpt><trkpt lat="39.2442349" lon="16.7827316"><ele>651.0</ele><time>2026-03-28T11:48:29.696Z</time></trkpt><trkpt lat="39.2441818" lon="16.7828287"><ele>651.0</ele><time>2026-03-28T11:48:30.697Z</time></trkpt><trkpt lat="39.244133" lon="16.7829223"><ele>650.5</ele><time>2026-03-28T11:48:31.693Z</time></trkpt><trkpt lat="39.2440869" lon="16.783008"><ele>650.0</ele><time>2026-03-28T11:48:32.689Z</time></trkpt><trkpt lat="39.2440374" lon="16.7830971"><ele>649.5</ele><time>2026-03-28T11:48:33.706Z</time></trkpt><trkpt lat="39.2439853" lon="16.7831892"><ele>649.0</ele><time>2026-03-28T11:48:34.691Z</time></trkpt><trkpt lat="39.2439365" lon="16.783279"><ele>648.5</ele><time>2026-03-28T11:48:35.686Z</time></trkpt><trkpt lat="39.2438934" lon="16.7833562"><ele>648.0</ele><time>2026-03-28T11:48:36.692Z</time></trkpt><trkpt lat="39.243839" lon="16.7834646"><ele>646.0</ele><time>2026-03-28T11:48:38.69Z</time></trkpt><trkpt lat="39.2438107" lon="16.7835402"><ele>644.0</ele><time>2026-03-28T11:48:39.697Z</time></trkpt><trkpt lat="39.2437794" lon="16.7836272"><ele>642.0</ele><time>2026-03-28T11:48:40.691Z</time></trkpt><trkpt lat="39.2437387" lon="16.783718"><ele>640.0</ele><time>2026-03-28T11:48:41.686Z</time></trkpt><trkpt lat="39.2436985" lon="16.7837814"><ele>638.0</ele><time>2026-03-28T11:48:42.696Z</time></trkpt><trkpt lat="39.2435869" lon="16.7838785"><ele>636.0</ele><time>2026-03-28T11:48:44.688Z</time></trkpt><trkpt lat="39.2435038" lon="16.7839289"><ele>636.0</ele><time>2026-03-28T11:48:45.69Z</time></trkpt><trkpt lat="39.2434123" lon="16.7839963"><ele>636.0</ele><time>2026-03-28T11:48:46.694Z</time></trkpt><trkpt lat="39.2433237" lon="16.7840919"><ele>636.0</ele><time>2026-03-28T11:48:47.687Z</time></trkpt><trkpt lat="39.2432488" lon="16.7841996"><ele>636.0</ele><time>2026-03-28T11:48:48.692Z</time></trkpt><trkpt lat="39.2431945" lon="16.7843116"><ele>636.0</ele><time>2026-03-28T11:48:49.687Z</time></trkpt><trkpt lat="39.2431572" lon="16.7844331"><ele>635.0</ele><time>2026-03-28T11:48:50.685Z</time></trkpt><trkpt lat="39.2431286" lon="16.7845635"><ele>634.0</ele><time>2026-03-28T11:48:51.69Z</time></trkpt><trkpt lat="39.2431022" lon="16.7846964"><ele>633.0</ele><time>2026-03-28T11:48:52.697Z</time></trkpt><trkpt lat="39.2430695" lon="16.7848242"><ele>632.0</ele><time>2026-03-28T11:48:53.69Z</time></trkpt><trkpt lat="39.2430334" lon="16.7849519"><ele>631.0</ele><time>2026-03-28T11:48:54.69Z</time></trkpt><trkpt lat="39.2430026" lon="16.7850884"><ele>630.6</ele><time>2026-03-28T11:48:55.694Z</time></trkpt><trkpt lat="39.2429774" lon="16.7852312"><ele>630.2</ele><time>2026-03-28T11:48:56.692Z</time></trkpt><trkpt lat="39.2429536" lon="16.7853751"><ele>629.8</ele><time>2026-03-28T11:48:57.689Z</time></trkpt><trkpt lat="39.2429296" lon="16.7855168"><ele>629.4</ele><time>2026-03-28T11:48:58.695Z</time></trkpt><trkpt lat="39.2429045" lon="16.7856465"><ele>629.0</ele><time>2026-03-28T11:48:59.693Z</time></trkpt><trkpt lat="39.2428818" lon="16.7857536"><ele>629.0</ele><time>2026-03-28T11:49:00.697Z</time></trkpt><trkpt lat="39.2428607" lon="16.7858611"><ele>629.0</ele><time>2026-03-28T11:49:01.7Z</time></trkpt><trkpt lat="39.2428374" lon="16.785969"><ele>629.0</ele><time>2026-03-28T11:49:02.689Z</time></trkpt><trkpt lat="39.2428118" lon="16.786078"><ele>629.0</ele><time>2026-03-28T11:49:03.693Z</time></trkpt><trkpt lat="39.2427822" lon="16.7862021"><ele>629.0</ele><time>2026-03-28T11:49:04.699Z</time></trkpt><trkpt lat="39.2427519" lon="16.7863238"><ele>628.25</ele><time>2026-03-28T11:49:05.699Z</time></trkpt><trkpt lat="39.2427224" lon="16.7864514"><ele>627.5</ele><time>2026-03-28T11:49:06.69Z</time></trkpt><trkpt lat="39.2426919" lon="16.7865952"><ele>626.75</ele><time>2026-03-28T11:49:07.69Z</time></trkpt><trkpt lat="39.2426618" lon="16.7867454"><ele>626.0</ele><time>2026-03-28T11:49:08.697Z</time></trkpt><trkpt lat="39.2426298" lon="16.7869024"><ele>624.25</ele><time>2026-03-28T11:49:09.697Z</time></trkpt><trkpt lat="39.2425991" lon="16.7870619"><ele>622.5</ele><time>2026-03-28T11:49:10.709Z</time></trkpt><trkpt lat="39.2425786" lon="16.7872256"><ele>620.75</ele><time>2026-03-28T11:49:11.69Z</time></trkpt><trkpt lat="39.2425559" lon="16.7873918"><ele>619.0</ele><time>2026-03-28T11:49:12.688Z</time></trkpt><trkpt lat="39.2425228" lon="16.7875647"><ele>617.5</ele><time>2026-03-28T11:49:13.697Z</time></trkpt><trkpt lat="39.2424813" lon="16.7877378"><ele>616.0</ele><time>2026-03-28T11:49:14.694Z</time></trkpt><trkpt lat="39.2424226" lon="16.7879107"><ele>614.5</ele><time>2026-03-28T11:49:15.695Z</time></trkpt><trkpt lat="39.2423489" lon="16.7880874"><ele>613.0</ele><time>2026-03-28T11:49:16.691Z</time></trkpt><trkpt lat="39.2422623" lon="16.7883016"><ele>611.0</ele><time>2026-03-28T11:49:17.689Z</time></trkpt><trkpt lat="39.2421744" lon="16.7885158"><ele>609.0</ele><time>2026-03-28T11:49:18.694Z</time></trkpt><trkpt lat="39.2420961" lon="16.788723"><ele>607.0</ele><time>2026-03-28T11:49:19.696Z</time></trkpt><trkpt lat="39.2420132" lon="16.788913"><ele>607.0</ele><time>2026-03-28T11:49:20.701Z</time></trkpt><trkpt lat="39.2419212" lon="16.7890799"><ele>607.0</ele><time>2026-03-28T11:49:21.697Z</time></trkpt><trkpt lat="39.2418232" lon="16.789227"><ele>607.0</ele><time>2026-03-28T11:49:22.694Z</time></trkpt><trkpt lat="39.2417256" lon="16.7893608"><ele>604.25</ele><time>2026-03-28T11:49:23.693Z</time></trkpt><trkpt lat="39.2416335" lon="16.7894854"><ele>601.5</ele><time>2026-03-28T11:49:24.698Z</time></trkpt><trkpt lat="39.2415461" lon="16.7896052"><ele>598.75</ele><time>2026-03-28T11:49:25.697Z</time></trkpt><trkpt lat="39.2414663" lon="16.7897179"><ele>596.0</ele><time>2026-03-28T11:49:26.695Z</time></trkpt><trkpt lat="39.2413946" lon="16.7898158"><ele>594.5</ele><time>2026-03-28T11:49:27.697Z</time></trkpt><trkpt lat="39.241339" lon="16.7898885"><ele>593.0</ele><time>2026-03-28T11:49:28.697Z</time></trkpt><trkpt lat="39.2412585" lon="16.7899732"><ele>591.5</ele><time>2026-03-28T11:49:30.693Z</time></trkpt><trkpt lat="39.2411648" lon="16.7899896"><ele>590.0</ele><time>2026-03-28T11:49:34.699Z</time></trkpt><trkpt lat="39.2411029" lon="16.7900233"><ele>588.5</ele><time>2026-03-28T11:49:46.708Z</time></trkpt><trkpt lat="39.2410361" lon="16.7900767"><ele>587.0</ele><time>2026-03-28T11:49:48.705Z</time></trkpt><trkpt lat="39.2409778" lon="16.7901515"><ele>586.4</ele><time>2026-03-28T11:49:50.697Z</time></trkpt><trkpt lat="39.2409204" lon="16.7902724"><ele>585.8000000000001</ele><time>2026-03-28T11:49:52.689Z</time></trkpt><trkpt lat="39.2408858" lon="16.7903906"><ele>585.2</ele><time>2026-03-28T11:49:54.688Z</time></trkpt><trkpt lat="39.2408678" lon="16.7905192"><ele>584.6</ele><time>2026-03-28T11:49:56.69Z</time></trkpt><trkpt lat="39.2408125" lon="16.7906354"><ele>584.0</ele><time>2026-03-28T11:49:58.697Z</time></trkpt><trkpt lat="39.2407658" lon="16.7907402"><ele>584.0</ele><time>2026-03-28T11:50:00.699Z</time></trkpt><trkpt lat="39.2407338" lon="16.7908314"><ele>584.0</ele><time>2026-03-28T11:50:02.691Z</time></trkpt><trkpt lat="39.2407002" lon="16.7909407"><ele>584.0</ele><time>2026-03-28T11:50:05.695Z</time></trkpt><trkpt lat="39.2406865" lon="16.7910614"><ele>584.0</ele><time>2026-03-28T11:50:08.695Z</time></trkpt><trkpt lat="39.2406722" lon="16.7911716"><ele>584.0</ele><time>2026-03-28T11:50:10.693Z</time></trkpt><trkpt lat="39.2406409" lon="16.7913225"><ele>582.6666666666666</ele><time>2026-03-28T11:50:12.693Z</time></trkpt><trkpt lat="39.2406372" lon="16.7914147"><ele>581.3333333333333</ele><time>2026-03-28T11:50:13.703Z</time></trkpt><trkpt lat="39.2405967" lon="16.7915078"><ele>580.0</ele><time>2026-03-28T11:50:14.699Z</time></trkpt><trkpt lat="39.2405538" lon="16.7915966"><ele>578.6666666666666</ele><time>2026-03-28T11:50:15.695Z</time></trkpt><trkpt lat="39.2405089" lon="16.7916807"><ele>577.3333333333334</ele><time>2026-03-28T11:50:16.698Z</time></trkpt><trkpt lat="39.2404689" lon="16.7917644"><ele>576.0</ele><time>2026-03-28T11:50:17.701Z</time></trkpt><trkpt lat="39.2404357" lon="16.791841"><ele>574.8</ele><time>2026-03-28T11:50:18.697Z</time></trkpt><trkpt lat="39.240399" lon="16.7919763"><ele>573.6</ele><time>2026-03-28T11:50:20.708Z</time></trkpt><trkpt lat="39.2403445" lon="16.7920427"><ele>572.4</ele><time>2026-03-28T11:50:22.702Z</time></trkpt><trkpt lat="39.2402669" lon="16.7921431"><ele>571.2</ele><time>2026-03-28T11:50:24.695Z</time></trkpt><trkpt lat="39.2401899" lon="16.7922362"><ele>570.0</ele><time>2026-03-28T11:50:26.697Z</time></trkpt><trkpt lat="39.2401049" lon="16.7923056"><ele>570.0</ele><time>2026-03-28T11:50:28.705Z</time></trkpt><trkpt lat="39.2400307" lon="16.7923668"><ele>570.0</ele><time>2026-03-28T11:50:30.686Z</time></trkpt><trkpt lat="39.2399421" lon="16.7924476"><ele>570.0</ele><time>2026-03-28T11:50:32.699Z</time></trkpt><trkpt lat="39.2398591" lon="16.7925336"><ele>570.0</ele><time>2026-03-28T11:50:34.707Z</time></trkpt><trkpt lat="39.2398099" lon="16.7926385"><ele>570.0</ele><time>2026-03-28T11:50:36.694Z</time></trkpt><trkpt lat="39.2397571" lon="16.7927658"><ele>566.0</ele><time>2026-03-28T11:50:38.707Z</time></trkpt><trkpt lat="39.2396793" lon="16.7928185"><ele>562.0</ele><time>2026-03-28T11:50:40.693Z</time></trkpt><trkpt lat="39.2396183" lon="16.7928785"><ele>558.0</ele><time>2026-03-28T11:50:42.702Z</time></trkpt><trkpt lat="39.2395624" lon="16.7929251"><ele>554.0</ele><time>2026-03-28T11:50:44.692Z</time></trkpt><trkpt lat="39.2395662" lon="16.7930161"><ele>550.0</ele><time>2026-03-28T11:50:47.692Z</time></trkpt><trkpt lat="39.2395493" lon="16.7931261"><ele>546.0</ele><time>2026-03-28T11:50:49.701Z</time></trkpt><trkpt lat="39.2394932" lon="16.7932299"><ele>546.0</ele><time>2026-03-28T11:50:51.693Z</time></trkpt><trkpt lat="39.2394738" lon="16.7933081"><ele>546.0</ele><time>2026-03-28T11:50:52.69Z</time></trkpt><trkpt lat="39.239474" lon="16.7934011"><ele>546.0</ele><time>2026-03-28T11:50:53.691Z</time></trkpt><trkpt lat="39.2394771" lon="16.793503"><ele>546.0</ele><time>2026-03-28T11:50:54.708Z</time></trkpt><trkpt lat="39.2394812" lon="16.7936081"><ele>546.0</ele><time>2026-03-28T11:50:55.691Z</time></trkpt><trkpt lat="39.2394775" lon="16.7937129"><ele>546.0</ele><time>2026-03-28T11:50:56.696Z</time></trkpt><trkpt lat="39.2394678" lon="16.7938053"><ele>545.6666666666666</ele><time>2026-03-28T11:50:57.688Z</time></trkpt><trkpt lat="39.2394532" lon="16.793893"><ele>545.3333333333334</ele><time>2026-03-28T11:50:58.7Z</time></trkpt><trkpt lat="39.2394485" lon="16.7940307"><ele>545.0</ele><time>2026-03-28T11:51:00.696Z</time></trkpt><trkpt lat="39.2395054" lon="16.7941143"><ele>544.6666666666667</ele><time>2026-03-28T11:51:02.695Z</time></trkpt><trkpt lat="39.2395961" lon="16.7941582"><ele>544.3333333333334</ele><time>2026-03-28T11:51:04.691Z</time></trkpt><trkpt lat="39.2396792" lon="16.7941445"><ele>544.0</ele><time>2026-03-28T11:51:06.701Z</time></trkpt><trkpt lat="39.2397549" lon="16.7941294"><ele>544.5</ele><time>2026-03-28T11:51:08.701Z</time></trkpt><trkpt lat="39.2398409" lon="16.7940805"><ele>545.0</ele><time>2026-03-28T11:51:10.692Z</time></trkpt><trkpt lat="39.2399013" lon="16.7940333"><ele>545.5</ele><time>2026-03-28T11:51:12.697Z</time></trkpt><trkpt lat="39.2399216" lon="16.7941161"><ele>546.0</ele><time>2026-03-28T11:51:15.695Z</time></trkpt><trkpt lat="39.2399008" lon="16.7942019"><ele>546.5</ele><time>2026-03-28T11:51:17.69Z</time></trkpt><trkpt lat="39.2398806" lon="16.7943107"><ele>547.0</ele><time>2026-03-28T11:51:19.692Z</time></trkpt><trkpt lat="39.2398599" lon="16.7944011"><ele>545.6666666666667</ele><time>2026-03-28T11:51:21.692Z</time></trkpt><trkpt lat="39.2398315" lon="16.7944996"><ele>544.3333333333334</ele><time>2026-03-28T11:51:23.704Z</time></trkpt><trkpt lat="39.2398195" lon="16.7946008"><ele>543.0</ele><time>2026-03-28T11:51:25.692Z</time></trkpt><trkpt lat="39.2397966" lon="16.7947136"><ele>541.6666666666666</ele><time>2026-03-28T11:51:27.695Z</time></trkpt><trkpt lat="39.2397789" lon="16.7948635"><ele>540.3333333333333</ele><time>2026-03-28T11:51:29.694Z</time></trkpt><trkpt lat="39.2397757" lon="16.7949665"><ele>539.0</ele><time>2026-03-28T11:51:31.695Z</time></trkpt><trkpt lat="39.239784" lon="16.7950577"><ele>539.0</ele><time>2026-03-28T11:51:36.694Z</time></trkpt><trkpt lat="39.2397854" lon="16.7951629"><ele>539.0</ele><time>2026-03-28T11:51:38.704Z</time></trkpt><trkpt lat="39.2397878" lon="16.7952769"><ele>539.0</ele><time>2026-03-28T11:51:40.69Z</time></trkpt><trkpt lat="39.2397649" lon="16.7954367"><ele>539.0</ele><time>2026-03-28T11:51:42.693Z</time></trkpt><trkpt lat="39.239745" lon="16.7955401"><ele>539.0</ele><time>2026-03-28T11:51:43.688Z</time></trkpt><trkpt lat="39.2397367" lon="16.7956736"><ele>537.3333333333333</ele><time>2026-03-28T11:51:45.689Z</time></trkpt><trkpt lat="39.2397341" lon="16.7957716"><ele>535.6666666666666</ele><time>2026-03-28T11:51:47.693Z</time></trkpt><trkpt lat="39.2397002" lon="16.7958595"><ele>534.0</ele><time>2026-03-28T11:51:50.691Z</time></trkpt><trkpt lat="39.2396759" lon="16.7959633"><ele>532.3333333333334</ele><time>2026-03-28T11:51:54.703Z</time></trkpt><trkpt lat="39.2396949" lon="16.796056"><ele>530.6666666666667</ele><time>2026-03-28T11:51:57.693Z</time></trkpt><trkpt lat="39.2397089" lon="16.796144"><ele>529.0</ele><time>2026-03-28T11:51:59.691Z</time></trkpt><trkpt lat="39.2397133" lon="16.7962531"><ele>526.5714285714286</ele><time>2026-03-28T11:52:01.702Z</time></trkpt><trkpt lat="39.2396883" lon="16.7963304"><ele>524.1428571428571</ele><time>2026-03-28T11:52:03.689Z</time></trkpt><trkpt lat="39.2396831" lon="16.7964165"><ele>521.7142857142857</ele><time>2026-03-28T11:52:05.697Z</time></trkpt><trkpt lat="39.2396877" lon="16.7964988"><ele>519.2857142857142</ele><time>2026-03-28T11:52:07.695Z</time></trkpt><trkpt lat="39.2397044" lon="16.7965907"><ele>516.8571428571428</ele><time>2026-03-28T11:52:10.701Z</time></trkpt><trkpt lat="39.2397743" lon="16.7966504"><ele>514.4285714285714</ele><time>2026-03-28T11:52:55.696Z</time></trkpt><trkpt lat="39.239795" lon="16.7967345"><ele>512.0</ele><time>2026-03-28T11:52:59.702Z</time></trkpt><trkpt lat="39.2398044" lon="16.7968306"><ele>510.99999999999994</ele><time>2026-03-28T11:53:48.704Z</time></trkpt><trkpt lat="39.2398009" lon="16.7969327"><ele>510.0</ele><time>2026-03-28T11:53:51.692Z</time></trkpt><trkpt lat="39.2397935" lon="16.7970179"><ele>509.0</ele><time>2026-03-28T11:53:54.693Z</time></trkpt><trkpt lat="39.2397872" lon="16.7971169"><ele>508.0</ele><time>2026-03-28T11:55:14.7Z</time></trkpt><trkpt lat="39.2397715" lon="16.7972353"><ele>506.99999999999994</ele><time>2026-03-28T11:55:16.693Z</time></trkpt><trkpt lat="39.2397558" lon="16.7973189"><ele>506.0</ele><time>2026-03-28T11:55:17.7Z</time></trkpt><trkpt lat="39.2397217" lon="16.7974186"><ele>506.0</ele><time>2026-03-28T11:55:18.695Z</time></trkpt><trkpt lat="39.2397" lon="16.7975139"><ele>506.0</ele><time>2026-03-28T11:55:19.696Z</time></trkpt><trkpt lat="39.2396933" lon="16.7976002"><ele>506.0</ele><time>2026-03-28T11:55:20.696Z</time></trkpt><trkpt lat="39.2396597" lon="16.7977402"><ele>506.0</ele><time>2026-03-28T11:55:22.704Z</time></trkpt><trkpt lat="39.2395959" lon="16.7978187"><ele>506.0</ele><time>2026-03-28T11:55:24.694Z</time></trkpt><trkpt lat="39.2395438" lon="16.7979402"><ele>505.3333333333333</ele><time>2026-03-28T11:55:27.693Z</time></trkpt><trkpt lat="39.2394969" lon="16.7980009"><ele>504.66666666666663</ele><time>2026-03-28T11:55:33.695Z</time></trkpt><trkpt lat="39.2394494" lon="16.7980654"><ele>504.0</ele><time>2026-03-28T11:55:51.7Z</time></trkpt><trkpt lat="39.2394007" lon="16.7981392"><ele>503.33333333333337</ele><time>2026-03-28T11:56:00.698Z</time></trkpt><trkpt lat="39.2393395" lon="16.7981843"><ele>502.6666666666667</ele><time>2026-03-28T11:56:04.692Z</time></trkpt><trkpt lat="39.2392818" lon="16.7982454"><ele>502.0</ele><time>2026-03-28T11:56:10.707Z</time></trkpt><trkpt lat="39.2392363" lon="16.798356"><ele>502.00000000000006</ele><time>2026-03-28T11:56:28.709Z</time></trkpt><trkpt lat="39.2392084" lon="16.7984817"><ele>502.0</ele><time>2026-03-28T11:56:30.696Z</time></trkpt><trkpt lat="39.2392003" lon="16.7986038"><ele>502.0</ele><time>2026-03-28T11:56:32.688Z</time></trkpt><trkpt lat="39.239199" lon="16.7986864"><ele>502.0</ele><time>2026-03-28T11:56:34.694Z</time></trkpt><trkpt lat="39.2391935" lon="16.79877"><ele>502.00000000000006</ele><time>2026-03-28T11:56:42.71Z</time></trkpt><trkpt lat="39.2392075" lon="16.7988669"><ele>502.0</ele><time>2026-03-28T11:56:47.695Z</time></trkpt><trkpt lat="39.2391966" lon="16.7989513"><ele>501.33333333333337</ele><time>2026-03-28T11:56:54.7Z</time></trkpt><trkpt lat="39.2391765" lon="16.7990521"><ele>500.6666666666667</ele><time>2026-03-28T11:56:58.691Z</time></trkpt><trkpt lat="39.2391418" lon="16.7991539"><ele>500.0</ele><time>2026-03-28T11:57:01.698Z</time></trkpt><trkpt lat="39.2391236" lon="16.7992387"><ele>499.33333333333337</ele><time>2026-03-28T11:57:03.692Z</time></trkpt><trkpt lat="39.2391094" lon="16.7993489"><ele>498.6666666666667</ele><time>2026-03-28T11:57:06.693Z</time></trkpt><trkpt lat="39.2390981" lon="16.7994392"><ele>498.0</ele><time>2026-03-28T11:57:09.693Z</time></trkpt><trkpt lat="39.2391061" lon="16.799548"><ele>496.8333333333333</ele><time>2026-03-28T11:57:12.7Z</time></trkpt><trkpt lat="39.2391183" lon="16.7996584"><ele>495.66666666666663</ele><time>2026-03-28T11:57:15.695Z</time></trkpt><trkpt lat="39.2391163" lon="16.7997605"><ele>494.5</ele><time>2026-03-28T11:57:18.695Z</time></trkpt><trkpt lat="39.239075" lon="16.7998259"><ele>493.3333333333333</ele><time>2026-03-28T11:57:22.702Z</time></trkpt><trkpt lat="39.2389889" lon="16.7998342"><ele>492.16666666666663</ele><time>2026-03-28T11:58:11.703Z</time></trkpt><trkpt lat="39.2388971" lon="16.7998627"><ele>491.0</ele><time>2026-03-28T11:58:14.695Z</time></trkpt><trkpt lat="39.2388343" lon="16.7999132"><ele>489.20000000000005</ele><time>2026-03-28T11:58:16.684Z</time></trkpt><trkpt lat="39.2387547" lon="16.7999796"><ele>487.40000000000003</ele><time>2026-03-28T11:58:18.69Z</time></trkpt><trkpt lat="39.2386689" lon="16.8000526"><ele>485.6</ele><time>2026-03-28T11:58:20.69Z</time></trkpt><trkpt lat="39.2385926" lon="16.8001185"><ele>483.8</ele><time>2026-03-28T11:58:22.69Z</time></trkpt><trkpt lat="39.2385162" lon="16.8001771"><ele>482.0</ele><time>2026-03-28T11:58:24.695Z</time></trkpt><trkpt lat="39.2384417" lon="16.8002438"><ele>482.0</ele><time>2026-03-28T11:58:26.689Z</time></trkpt><trkpt lat="39.2383776" lon="16.8003439"><ele>482.00000000000006</ele><time>2026-03-28T11:58:28.687Z</time></trkpt><trkpt lat="39.2383256" lon="16.8004427"><ele>482.00000000000006</ele><time>2026-03-28T11:58:30.696Z</time></trkpt><trkpt lat="39.2382666" lon="16.8005568"><ele>482.0</ele><time>2026-03-28T11:58:32.693Z</time></trkpt><trkpt lat="39.2382041" lon="16.8006754"><ele>482.0</ele><time>2026-03-28T11:58:34.695Z</time></trkpt><trkpt lat="39.2381342" lon="16.8008038"><ele>479.49999999999994</ele><time>2026-03-28T11:58:36.691Z</time></trkpt><trkpt lat="39.2380551" lon="16.800945"><ele>477.0</ele><time>2026-03-28T11:58:38.701Z</time></trkpt><trkpt lat="39.2380158" lon="16.8010204"><ele>474.5</ele><time>2026-03-28T11:58:39.701Z</time></trkpt><trkpt lat="39.2379845" lon="16.8010929"><ele>472.0</ele><time>2026-03-28T11:58:40.694Z</time></trkpt><trkpt lat="39.2379569" lon="16.8011704"><ele>469.49999999999994</ele><time>2026-03-28T11:58:41.695Z</time></trkpt><trkpt lat="39.2379311" lon="16.8012554"><ele>467.0</ele><time>2026-03-28T11:58:42.696Z</time></trkpt><trkpt lat="39.2379059" lon="16.8013487"><ele>466.3333333333333</ele><time>2026-03-28T11:58:43.694Z</time></trkpt><trkpt lat="39.2378804" lon="16.8014436"><ele>465.66666666666663</ele><time>2026-03-28T11:58:44.695Z</time></trkpt><trkpt lat="39.237853" lon="16.8015387"><ele>465.0</ele><time>2026-03-28T11:58:45.691Z</time></trkpt><trkpt lat="39.2378262" lon="16.8016328"><ele>464.33333333333337</ele><time>2026-03-28T11:58:46.694Z</time></trkpt><trkpt lat="39.2378033" lon="16.8017263"><ele>463.6666666666667</ele><time>2026-03-28T11:58:47.693Z</time></trkpt><trkpt lat="39.2377813" lon="16.8018169"><ele>463.0</ele><time>2026-03-28T11:58:48.704Z</time></trkpt><trkpt lat="39.2377604" lon="16.8019053"><ele>462.1428571428571</ele><time>2026-03-28T11:58:49.691Z</time></trkpt><trkpt lat="39.2377429" lon="16.8019926"><ele>461.2857142857142</ele><time>2026-03-28T11:58:50.694Z</time></trkpt><trkpt lat="39.2377331" lon="16.8020793"><ele>460.42857142857144</ele><time>2026-03-28T11:58:51.69Z</time></trkpt><trkpt lat="39.2377349" lon="16.8021648"><ele>459.57142857142856</ele><time>2026-03-28T11:58:52.692Z</time></trkpt><trkpt lat="39.2377541" lon="16.8022441"><ele>458.7142857142857</ele><time>2026-03-28T11:58:53.688Z</time></trkpt><trkpt lat="39.2377928" lon="16.8023129"><ele>457.8571428571429</ele><time>2026-03-28T11:58:54.691Z</time></trkpt><trkpt lat="39.237847" lon="16.8023692"><ele>457.00000000000006</ele><time>2026-03-28T11:58:55.697Z</time></trkpt><trkpt lat="39.237909" lon="16.8024067"><ele>457.00000000000006</ele><time>2026-03-28T11:58:56.697Z</time></trkpt><trkpt lat="39.2379762" lon="16.8024208"><ele>457.0</ele><time>2026-03-28T11:58:57.694Z</time></trkpt><trkpt lat="39.2380442" lon="16.8024119"><ele>457.00000000000006</ele><time>2026-03-28T11:58:58.703Z</time></trkpt><trkpt lat="39.2381103" lon="16.8023936"><ele>457.00000000000006</ele><time>2026-03-28T11:58:59.687Z</time></trkpt><trkpt lat="39.2381766" lon="16.8023765"><ele>457.0</ele><time>2026-03-28T11:59:00.689Z</time></trkpt><trkpt lat="39.2382454" lon="16.8023672"><ele>457.00000000000006</ele><time>2026-03-28T11:59:01.69Z</time></trkpt><trkpt lat="39.2383162" lon="16.8023582"><ele>457.00000000000006</ele><time>2026-03-28T11:59:02.703Z</time></trkpt><trkpt lat="39.2383949" lon="16.8023649"><ele>458.6666666666667</ele><time>2026-03-28T11:59:03.687Z</time></trkpt><trkpt lat="39.2384698" lon="16.8023731"><ele>460.33333333333337</ele><time>2026-03-28T11:59:04.693Z</time></trkpt><trkpt lat="39.2385467" lon="16.8023835"><ele>462.0</ele><time>2026-03-28T11:59:05.695Z</time></trkpt><trkpt lat="39.2386225" lon="16.8023915"><ele>463.66666666666663</ele><time>2026-03-28T11:59:06.693Z</time></trkpt><trkpt lat="39.2386993" lon="16.8024056"><ele>465.3333333333333</ele><time>2026-03-28T11:59:07.685Z</time></trkpt><trkpt lat="39.2387758" lon="16.8024246"><ele>467.0</ele><time>2026-03-28T11:59:08.698Z</time></trkpt><trkpt lat="39.2388518" lon="16.8024508"><ele>466.99999999999994</ele><time>2026-03-28T11:59:09.695Z</time></trkpt><trkpt lat="39.2389257" lon="16.8024897"><ele>467.0</ele><time>2026-03-28T11:59:10.689Z</time></trkpt><trkpt lat="39.2389869" lon="16.802543"><ele>466.99999999999994</ele><time>2026-03-28T11:59:11.692Z</time></trkpt><trkpt lat="39.2390384" lon="16.8026072"><ele>466.99999999999994</ele><time>2026-03-28T11:59:12.699Z</time></trkpt><trkpt lat="39.2390798" lon="16.8026775"><ele>467.0</ele><time>2026-03-28T11:59:13.698Z</time></trkpt><trkpt lat="39.2391205" lon="16.802748"><ele>466.99999999999994</ele><time>2026-03-28T11:59:14.695Z</time></trkpt><trkpt lat="39.2391457" lon="16.802833"><ele>466.99999999999994</ele><time>2026-03-28T11:59:15.692Z</time></trkpt><trkpt lat="39.2391579" lon="16.8029256"><ele>467.16666666666663</ele><time>2026-03-28T11:59:16.691Z</time></trkpt><trkpt lat="39.2391571" lon="16.8030241"><ele>467.3333333333333</ele><time>2026-03-28T11:59:17.696Z</time></trkpt><trkpt lat="39.2391409" lon="16.8031183"><ele>467.5</ele><time>2026-03-28T11:59:18.691Z</time></trkpt><trkpt lat="39.2391087" lon="16.8031902"><ele>467.66666666666663</ele><time>2026-03-28T11:59:19.696Z</time></trkpt><trkpt lat="39.2390625" lon="16.8032458"><ele>467.8333333333333</ele><time>2026-03-28T11:59:20.693Z</time></trkpt><trkpt lat="39.2389504" lon="16.8032652"><ele>468.0</ele><time>2026-03-28T11:59:22.696Z</time></trkpt><trkpt lat="39.2388577" lon="16.8031904"><ele>464.79999999999995</ele><time>2026-03-28T11:59:24.695Z</time></trkpt><trkpt lat="39.2387856" lon="16.8030613"><ele>461.59999999999997</ele><time>2026-03-28T11:59:26.691Z</time></trkpt><trkpt lat="39.23875" lon="16.8029891"><ele>458.40000000000003</ele><time>2026-03-28T11:59:27.694Z</time></trkpt><trkpt lat="39.2387124" lon="16.8029157"><ele>455.20000000000005</ele><time>2026-03-28T11:59:28.695Z</time></trkpt><trkpt lat="39.2386174" lon="16.8028062"><ele>452.0</ele><time>2026-03-28T11:59:30.694Z</time></trkpt><trkpt lat="39.2385557" lon="16.8027729"><ele>451.99999999999994</ele><time>2026-03-28T11:59:31.701Z</time></trkpt><trkpt lat="39.2384824" lon="16.8027536"><ele>452.0</ele><time>2026-03-28T11:59:32.691Z</time></trkpt><trkpt lat="39.2384023" lon="16.8027552"><ele>452.0</ele><time>2026-03-28T11:59:33.689Z</time></trkpt><trkpt lat="39.2383233" lon="16.8027878"><ele>452.0</ele><time>2026-03-28T11:59:34.689Z</time></trkpt><trkpt lat="39.2382512" lon="16.8028486"><ele>451.99999999999994</ele><time>2026-03-28T11:59:35.693Z</time></trkpt><trkpt lat="39.2381848" lon="16.8029245"><ele>452.0</ele><time>2026-03-28T11:59:36.69Z</time></trkpt><trkpt lat="39.2381187" lon="16.8029993"><ele>450.20000000000005</ele><time>2026-03-28T11:59:37.687Z</time></trkpt><trkpt lat="39.238046" lon="16.8030613"><ele>448.40000000000003</ele><time>2026-03-28T11:59:38.699Z</time></trkpt><trkpt lat="39.2379618" lon="16.8030907"><ele>446.59999999999997</ele><time>2026-03-28T11:59:39.689Z</time></trkpt><trkpt lat="39.2378743" lon="16.8030795"><ele>444.79999999999995</ele><time>2026-03-28T11:59:40.695Z</time></trkpt><trkpt lat="39.2377858" lon="16.8030408"><ele>443.0</ele><time>2026-03-28T11:59:41.697Z</time></trkpt><trkpt lat="39.2376956" lon="16.8029887"><ele>443.0</ele><time>2026-03-28T11:59:42.69Z</time></trkpt><trkpt lat="39.237607" lon="16.802926"><ele>442.99999999999994</ele><time>2026-03-28T11:59:43.693Z</time></trkpt><trkpt lat="39.2375225" lon="16.8028493"><ele>442.99999999999994</ele><time>2026-03-28T11:59:44.69Z</time></trkpt><trkpt lat="39.2374378" lon="16.8027717"><ele>443.0</ele><time>2026-03-28T11:59:45.689Z</time></trkpt><trkpt lat="39.2373711" lon="16.8026708"><ele>443.0</ele><time>2026-03-28T11:59:46.694Z</time></trkpt><trkpt lat="39.2373097" lon="16.8025721"><ele>443.4</ele><time>2026-03-28T11:59:47.686Z</time></trkpt><trkpt lat="39.2372475" lon="16.8024783"><ele>443.79999999999995</ele><time>2026-03-28T11:59:48.689Z</time></trkpt><trkpt lat="39.2371727" lon="16.8024125"><ele>444.2</ele><time>2026-03-28T11:59:49.695Z</time></trkpt><trkpt lat="39.2370857" lon="16.8023762"><ele>444.6</ele><time>2026-03-28T11:59:50.698Z</time></trkpt><trkpt lat="39.2369914" lon="16.8023625"><ele>445.0</ele><time>2026-03-28T11:59:51.689Z</time></trkpt><trkpt lat="39.2369011" lon="16.8023589"><ele>445.00000000000006</ele><time>2026-03-28T11:59:52.686Z</time></trkpt><trkpt lat="39.2368194" lon="16.8023499"><ele>445.0</ele><time>2026-03-28T11:59:53.698Z</time></trkpt><trkpt lat="39.2367438" lon="16.8023411"><ele>445.0</ele><time>2026-03-28T11:59:54.699Z</time></trkpt><trkpt lat="39.2366714" lon="16.8022955"><ele>445.0</ele><time>2026-03-28T11:59:55.702Z</time></trkpt><trkpt lat="39.2366116" lon="16.8022274"><ele>445.00000000000006</ele><time>2026-03-28T11:59:56.704Z</time></trkpt><trkpt lat="39.2365632" lon="16.8021409"><ele>445.0</ele><time>2026-03-28T11:59:57.69Z</time></trkpt><trkpt lat="39.2365231" lon="16.8020406"><ele>445.0</ele><time>2026-03-28T11:59:58.701Z</time></trkpt><trkpt lat="39.2364923" lon="16.8019298"><ele>445.0</ele><time>2026-03-28T11:59:59.699Z</time></trkpt><trkpt lat="39.2364625" lon="16.8018176"><ele>445.0</ele><time>2026-03-28T12:00:00.69Z</time></trkpt><trkpt lat="39.2364343" lon="16.8016929"><ele>445.0</ele><time>2026-03-28T12:00:01.69Z</time></trkpt><trkpt lat="39.2364036" lon="16.8015796"><ele>445.0</ele><time>2026-03-28T12:00:02.691Z</time></trkpt><trkpt lat="39.2363614" lon="16.8014815"><ele>444.1666666666667</ele><time>2026-03-28T12:00:03.691Z</time></trkpt><trkpt lat="39.2363039" lon="16.8014044"><ele>443.33333333333337</ele><time>2026-03-28T12:00:04.686Z</time></trkpt><trkpt lat="39.2362364" lon="16.8013395"><ele>442.5</ele><time>2026-03-28T12:00:05.693Z</time></trkpt><trkpt lat="39.2361676" lon="16.801276"><ele>441.66666666666663</ele><time>2026-03-28T12:00:06.693Z</time></trkpt><trkpt lat="39.2360843" lon="16.8012529"><ele>440.8333333333333</ele><time>2026-03-28T12:00:07.694Z</time></trkpt><trkpt lat="39.2359969" lon="16.8012475"><ele>440.0</ele><time>2026-03-28T12:00:08.686Z</time></trkpt><trkpt lat="39.2359088" lon="16.8012666"><ele>440.0</ele><time>2026-03-28T12:00:09.683Z</time></trkpt><trkpt lat="39.2358244" lon="16.8013152"><ele>440.0</ele><time>2026-03-28T12:00:10.692Z</time></trkpt><trkpt lat="39.2357483" lon="16.801389"><ele>440.0</ele><time>2026-03-28T12:00:11.686Z</time></trkpt><trkpt lat="39.2356805" lon="16.801478"><ele>440.0</ele><time>2026-03-28T12:00:12.695Z</time></trkpt><trkpt lat="39.2356159" lon="16.8015755"><ele>440.0</ele><time>2026-03-28T12:00:13.69Z</time></trkpt><trkpt lat="39.2355534" lon="16.80168"><ele>438.2</ele><time>2026-03-28T12:00:14.693Z</time></trkpt><trkpt lat="39.2354893" lon="16.8017837"><ele>436.4</ele><time>2026-03-28T12:00:15.695Z</time></trkpt><trkpt lat="39.2354233" lon="16.8018847"><ele>434.6</ele><time>2026-03-28T12:00:16.693Z</time></trkpt><trkpt lat="39.2353583" lon="16.8019884"><ele>432.8</ele><time>2026-03-28T12:00:17.686Z</time></trkpt><trkpt lat="39.2352934" lon="16.8020931"><ele>431.0</ele><time>2026-03-28T12:00:18.692Z</time></trkpt><trkpt lat="39.2352283" lon="16.8021963"><ele>431.0</ele><time>2026-03-28T12:00:19.693Z</time></trkpt><trkpt lat="39.2351604" lon="16.8022977"><ele>431.0</ele><time>2026-03-28T12:00:20.698Z</time></trkpt><trkpt lat="39.2350917" lon="16.8023987"><ele>431.0</ele><time>2026-03-28T12:00:21.694Z</time></trkpt><trkpt lat="39.2350244" lon="16.8024979"><ele>431.0</ele><time>2026-03-28T12:00:22.69Z</time></trkpt><trkpt lat="39.2349602" lon="16.8025969"><ele>431.0</ele><time>2026-03-28T12:00:23.688Z</time></trkpt><trkpt lat="39.2348965" lon="16.8026956"><ele>431.0</ele><time>2026-03-28T12:00:24.694Z</time></trkpt><trkpt lat="39.234834" lon="16.802792"><ele>431.0</ele><time>2026-03-28T12:00:25.687Z</time></trkpt><trkpt lat="39.2347761" lon="16.8028892"><ele>431.0</ele><time>2026-03-28T12:00:26.696Z</time></trkpt><trkpt lat="39.2347207" lon="16.8029891"><ele>431.0</ele><time>2026-03-28T12:00:27.695Z</time></trkpt><trkpt lat="39.2346695" lon="16.8030904"><ele>431.0</ele><time>2026-03-28T12:00:28.689Z</time></trkpt><trkpt lat="39.2346232" lon="16.8031987"><ele>430.0</ele><time>2026-03-28T12:00:29.697Z</time></trkpt><trkpt lat="39.2345794" lon="16.8033155"><ele>429.0</ele><time>2026-03-28T12:00:30.697Z</time></trkpt><trkpt lat="39.234541" lon="16.8034399"><ele>428.0</ele><time>2026-03-28T12:00:31.692Z</time></trkpt><trkpt lat="39.2345068" lon="16.8035683"><ele>427.0</ele><time>2026-03-28T12:00:32.69Z</time></trkpt><trkpt lat="39.2344759" lon="16.8036937"><ele>426.0</ele><time>2026-03-28T12:00:33.69Z</time></trkpt><trkpt lat="39.2344536" lon="16.8038119"><ele>426.0</ele><time>2026-03-28T12:00:34.697Z</time></trkpt><trkpt lat="39.2344501" lon="16.8039304"><ele>426.0</ele><time>2026-03-28T12:00:35.697Z</time></trkpt><trkpt lat="39.2344705" lon="16.804047"><ele>426.0</ele><time>2026-03-28T12:00:36.682Z</time></trkpt><trkpt lat="39.2345166" lon="16.8041482"><ele>426.0</ele><time>2026-03-28T12:00:37.693Z</time></trkpt><trkpt lat="39.23458" lon="16.8042238"><ele>426.0</ele><time>2026-03-28T12:00:38.696Z</time></trkpt><trkpt lat="39.2346417" lon="16.8042963"><ele>426.0</ele><time>2026-03-28T12:00:39.69Z</time></trkpt><trkpt lat="39.2347261" lon="16.8043106"><ele>426.0</ele><time>2026-03-28T12:00:40.685Z</time></trkpt><trkpt lat="39.2348076" lon="16.8043085"><ele>426.0</ele><time>2026-03-28T12:00:41.699Z</time></trkpt><trkpt lat="39.2348903" lon="16.8043105"><ele>426.0</ele><time>2026-03-28T12:00:42.695Z</time></trkpt><trkpt lat="39.2349716" lon="16.8043243"><ele>426.0</ele><time>2026-03-28T12:00:43.688Z</time></trkpt><trkpt lat="39.2350453" lon="16.8043645"><ele>426.0</ele><time>2026-03-28T12:00:44.695Z</time></trkpt><trkpt lat="39.235106" lon="16.8044277"><ele>426.0</ele><time>2026-03-28T12:00:45.699Z</time></trkpt><trkpt lat="39.2351474" lon="16.8045125"><ele>424.3333333333333</ele><time>2026-03-28T12:00:46.692Z</time></trkpt><trkpt lat="39.2351718" lon="16.8046133"><ele>422.66666666666663</ele><time>2026-03-28T12:00:47.692Z</time></trkpt><trkpt lat="39.2351824" lon="16.8047218"><ele>421.0</ele><time>2026-03-28T12:00:48.692Z</time></trkpt><trkpt lat="39.235182" lon="16.8048341"><ele>419.3333333333333</ele><time>2026-03-28T12:00:49.69Z</time></trkpt><trkpt lat="39.2351748" lon="16.8049498"><ele>417.66666666666663</ele><time>2026-03-28T12:00:50.686Z</time></trkpt><trkpt lat="39.2351589" lon="16.8050674"><ele>416.0</ele><time>2026-03-28T12:00:51.701Z</time></trkpt><trkpt lat="39.2351284" lon="16.8051795"><ele>414.66666666666663</ele><time>2026-03-28T12:00:52.693Z</time></trkpt><trkpt lat="39.2350801" lon="16.8052806"><ele>413.3333333333333</ele><time>2026-03-28T12:00:53.688Z</time></trkpt><trkpt lat="39.2350123" lon="16.8053612"><ele>412.0</ele><time>2026-03-28T12:00:54.687Z</time></trkpt><trkpt lat="39.2349341" lon="16.8054099"><ele>410.66666666666663</ele><time>2026-03-28T12:00:55.695Z</time></trkpt><trkpt lat="39.2348523" lon="16.8054255"><ele>409.3333333333333</ele><time>2026-03-28T12:00:56.693Z</time></trkpt><trkpt lat="39.234769" lon="16.805419"><ele>408.0</ele><time>2026-03-28T12:00:57.695Z</time></trkpt><trkpt lat="39.2346838" lon="16.8054035"><ele>408.0</ele><time>2026-03-28T12:00:58.693Z</time></trkpt><trkpt lat="39.2345962" lon="16.80539"><ele>408.0</ele><time>2026-03-28T12:00:59.692Z</time></trkpt><trkpt lat="39.2345078" lon="16.8053766"><ele>408.0</ele><time>2026-03-28T12:01:00.693Z</time></trkpt><trkpt lat="39.2344194" lon="16.8054004"><ele>408.0</ele><time>2026-03-28T12:01:01.699Z</time></trkpt><trkpt lat="39.2343405" lon="16.8054556"><ele>408.0</ele><time>2026-03-28T12:01:02.707Z</time></trkpt><trkpt lat="39.2342616" lon="16.8055122"><ele>408.0</ele><time>2026-03-28T12:01:03.689Z</time></trkpt><trkpt lat="39.2342184" lon="16.8056195"><ele>408.0</ele><time>2026-03-28T12:01:04.689Z</time></trkpt><trkpt lat="39.2341823" lon="16.8057339"><ele>408.0</ele><time>2026-03-28T12:01:05.694Z</time></trkpt><trkpt lat="39.2341498" lon="16.805855"><ele>408.0</ele><time>2026-03-28T12:01:06.703Z</time></trkpt><trkpt lat="39.2341148" lon="16.8059757"><ele>408.0</ele><time>2026-03-28T12:01:07.698Z</time></trkpt><trkpt lat="39.2340778" lon="16.8061013"><ele>408.0</ele><time>2026-03-28T12:01:08.698Z</time></trkpt><trkpt lat="39.2340401" lon="16.8062272"><ele>406.3333333333333</ele><time>2026-03-28T12:01:09.695Z</time></trkpt><trkpt lat="39.2339993" lon="16.8063494"><ele>404.66666666666663</ele><time>2026-03-28T12:01:10.689Z</time></trkpt><trkpt lat="39.2339431" lon="16.8064489"><ele>403.0</ele><time>2026-03-28T12:01:11.694Z</time></trkpt><trkpt lat="39.2338732" lon="16.8065051"><ele>401.3333333333333</ele><time>2026-03-28T12:01:12.695Z</time></trkpt><trkpt lat="39.233801" lon="16.8065126"><ele>399.66666666666663</ele><time>2026-03-28T12:01:13.696Z</time></trkpt><trkpt lat="39.2337392" lon="16.8064714"><ele>398.0</ele><time>2026-03-28T12:01:14.704Z</time></trkpt><trkpt lat="39.2336918" lon="16.8063937"><ele>397.66666666666663</ele><time>2026-03-28T12:01:15.697Z</time></trkpt><trkpt lat="39.2336455" lon="16.8063001"><ele>397.3333333333333</ele><time>2026-03-28T12:01:16.695Z</time></trkpt><trkpt lat="39.2335989" lon="16.806207"><ele>397.0</ele><time>2026-03-28T12:01:17.697Z</time></trkpt><trkpt lat="39.2335392" lon="16.8061326"><ele>396.66666666666663</ele><time>2026-03-28T12:01:18.696Z</time></trkpt><trkpt lat="39.2334577" lon="16.8061056"><ele>396.3333333333333</ele><time>2026-03-28T12:01:19.693Z</time></trkpt><trkpt lat="39.2333686" lon="16.8060896"><ele>396.0</ele><time>2026-03-28T12:01:20.697Z</time></trkpt><trkpt lat="39.2332696" lon="16.8060832"><ele>396.0</ele><time>2026-03-28T12:01:21.702Z</time></trkpt><trkpt lat="39.2331629" lon="16.8060812"><ele>396.0</ele><time>2026-03-28T12:01:22.692Z</time></trkpt><trkpt lat="39.2330541" lon="16.8060812"><ele>396.0</ele><time>2026-03-28T12:01:23.695Z</time></trkpt><trkpt lat="39.2329475" lon="16.8060837"><ele>396.0</ele><time>2026-03-28T12:01:24.702Z</time></trkpt><trkpt lat="39.2328472" lon="16.8060801"><ele>396.0</ele><time>2026-03-28T12:01:25.689Z</time></trkpt><trkpt lat="39.2327492" lon="16.8060677"><ele>396.8</ele><time>2026-03-28T12:01:26.694Z</time></trkpt><trkpt lat="39.2326539" lon="16.8060304"><ele>397.6</ele><time>2026-03-28T12:01:27.689Z</time></trkpt><trkpt lat="39.2325645" lon="16.8059715"><ele>398.4</ele><time>2026-03-28T12:01:28.699Z</time></trkpt><trkpt lat="39.232481" lon="16.8058948"><ele>399.2</ele><time>2026-03-28T12:01:29.694Z</time></trkpt><trkpt lat="39.2324052" lon="16.8058191"><ele>400.0</ele><time>2026-03-28T12:01:30.688Z</time></trkpt><trkpt lat="39.2323363" lon="16.8057576"><ele>399.1666666666667</ele><time>2026-03-28T12:01:31.688Z</time></trkpt><trkpt lat="39.2322673" lon="16.8057201"><ele>398.33333333333337</ele><time>2026-03-28T12:01:32.703Z</time></trkpt><trkpt lat="39.2321896" lon="16.8057027"><ele>397.5</ele><time>2026-03-28T12:01:33.704Z</time></trkpt><trkpt lat="39.2321031" lon="16.80569"><ele>396.66666666666663</ele><time>2026-03-28T12:01:34.694Z</time></trkpt><trkpt lat="39.2320126" lon="16.8056881"><ele>395.8333333333333</ele><time>2026-03-28T12:01:35.7Z</time></trkpt><trkpt lat="39.2319202" lon="16.8057022"><ele>395.0</ele><time>2026-03-28T12:01:36.7Z</time></trkpt><trkpt lat="39.2318268" lon="16.8057348"><ele>395.0</ele><time>2026-03-28T12:01:37.688Z</time></trkpt><trkpt lat="39.2317361" lon="16.8057831"><ele>395.0</ele><time>2026-03-28T12:01:38.689Z</time></trkpt><trkpt lat="39.2316491" lon="16.8058453"><ele>395.0</ele><time>2026-03-28T12:01:39.699Z</time></trkpt><trkpt lat="39.2315636" lon="16.8059181"><ele>395.0</ele><time>2026-03-28T12:01:40.7Z</time></trkpt><trkpt lat="39.2314775" lon="16.8059985"><ele>395.0</ele><time>2026-03-28T12:01:41.689Z</time></trkpt><trkpt lat="39.2313911" lon="16.8060863"><ele>393.0</ele><time>2026-03-28T12:01:42.692Z</time></trkpt><trkpt lat="39.2313026" lon="16.8061791"><ele>391.0</ele><time>2026-03-28T12:01:43.699Z</time></trkpt><trkpt lat="39.2312133" lon="16.8062715"><ele>389.0</ele><time>2026-03-28T12:01:44.7Z</time></trkpt><trkpt lat="39.2311238" lon="16.8063631"><ele>387.0</ele><time>2026-03-28T12:01:45.692Z</time></trkpt><trkpt lat="39.2310333" lon="16.8064555"><ele>387.0</ele><time>2026-03-28T12:01:46.695Z</time></trkpt><trkpt lat="39.2309424" lon="16.8065493"><ele>387.0</ele><time>2026-03-28T12:01:47.7Z</time></trkpt><trkpt lat="39.2308497" lon="16.8066426"><ele>387.0</ele><time>2026-03-28T12:01:48.697Z</time></trkpt><trkpt lat="39.2307575" lon="16.8067378"><ele>387.0</ele><time>2026-03-28T12:01:49.691Z</time></trkpt><trkpt lat="39.2306659" lon="16.8068334"><ele>385.75</ele><time>2026-03-28T12:01:50.697Z</time></trkpt><trkpt lat="39.2305756" lon="16.8069292"><ele>384.5</ele><time>2026-03-28T12:01:51.702Z</time></trkpt><trkpt lat="39.2304858" lon="16.8070216"><ele>383.25</ele><time>2026-03-28T12:01:52.695Z</time></trkpt><trkpt lat="39.230398" lon="16.8071139"><ele>382.0</ele><time>2026-03-28T12:01:53.697Z</time></trkpt><trkpt lat="39.2303197" lon="16.8072119"><ele>382.0</ele><time>2026-03-28T12:01:54.688Z</time></trkpt><trkpt lat="39.2302625" lon="16.8073249"><ele>382.0</ele><time>2026-03-28T12:01:55.687Z</time></trkpt><trkpt lat="39.2302106" lon="16.8074371"><ele>382.0</ele><time>2026-03-28T12:01:56.698Z</time></trkpt><trkpt lat="39.2301493" lon="16.8075351"><ele>382.0</ele><time>2026-03-28T12:01:57.698Z</time></trkpt><trkpt lat="39.2300727" lon="16.8076028"><ele>382.0</ele><time>2026-03-28T12:01:58.696Z</time></trkpt><trkpt lat="39.2299984" lon="16.8076674"><ele>379.8</ele><time>2026-03-28T12:01:59.695Z</time></trkpt><trkpt lat="39.2299087" lon="16.8076926"><ele>377.6</ele><time>2026-03-28T12:02:00.694Z</time></trkpt><trkpt lat="39.2298179" lon="16.8077229"><ele>375.40000000000003</ele><time>2026-03-28T12:02:01.7Z</time></trkpt><trkpt lat="39.2297306" lon="16.8077777"><ele>373.20000000000005</ele><time>2026-03-28T12:02:02.688Z</time></trkpt><trkpt lat="39.2296538" lon="16.8078622"><ele>371.0</ele><time>2026-03-28T12:02:03.694Z</time></trkpt><trkpt lat="39.2295814" lon="16.8079675"><ele>371.0</ele><time>2026-03-28T12:02:04.696Z</time></trkpt><trkpt lat="39.2295043" lon="16.8080766"><ele>371.0</ele><time>2026-03-28T12:02:05.7Z</time></trkpt><trkpt lat="39.2294288" lon="16.8081826"><ele>371.0</ele><time>2026-03-28T12:02:06.694Z</time></trkpt><trkpt lat="39.2293307" lon="16.8082517"><ele>371.0</ele><time>2026-03-28T12:02:07.688Z</time></trkpt><trkpt lat="39.2292256" lon="16.808292"><ele>371.0</ele><time>2026-03-28T12:02:08.693Z</time></trkpt><trkpt lat="39.2291126" lon="16.8083097"><ele>371.0</ele><time>2026-03-28T12:02:09.696Z</time></trkpt><trkpt lat="39.2289967" lon="16.8083121"><ele>371.0</ele><time>2026-03-28T12:02:10.693Z</time></trkpt><trkpt lat="39.2288844" lon="16.8083029"><ele>371.0</ele><time>2026-03-28T12:02:11.693Z</time></trkpt><trkpt lat="39.2287815" lon="16.808286"><ele>371.0</ele><time>2026-03-28T12:02:12.691Z</time></trkpt><trkpt lat="39.228687" lon="16.8082656"><ele>371.0</ele><time>2026-03-28T12:02:13.697Z</time></trkpt><trkpt lat="39.2285967" lon="16.8082467"><ele>370.57142857142856</ele><time>2026-03-28T12:02:14.706Z</time></trkpt><trkpt lat="39.22852" lon="16.8082477"><ele>370.1428571428571</ele><time>2026-03-28T12:02:15.698Z</time></trkpt><trkpt lat="39.2284529" lon="16.8082626"><ele>369.7142857142857</ele><time>2026-03-28T12:02:16.698Z</time></trkpt><trkpt lat="39.2283882" lon="16.8082882"><ele>369.2857142857143</ele><time>2026-03-28T12:02:17.701Z</time></trkpt><trkpt lat="39.2283245" lon="16.8083214"><ele>368.85714285714283</ele><time>2026-03-28T12:02:18.698Z</time></trkpt><trkpt lat="39.2282661" lon="16.8083661"><ele>368.42857142857144</ele><time>2026-03-28T12:02:19.689Z</time></trkpt><trkpt lat="39.2282141" lon="16.808428"><ele>368.0</ele><time>2026-03-28T12:02:20.7Z</time></trkpt><trkpt lat="39.2281699" lon="16.8085057"><ele>366.6666666666667</ele><time>2026-03-28T12:02:21.698Z</time></trkpt><trkpt lat="39.2281327" lon="16.8085942"><ele>365.33333333333337</ele><time>2026-03-28T12:02:22.695Z</time></trkpt><trkpt lat="39.2280927" lon="16.8086876"><ele>364.0</ele><time>2026-03-28T12:02:23.691Z</time></trkpt><trkpt lat="39.2280519" lon="16.8087838"><ele>362.6666666666667</ele><time>2026-03-28T12:02:24.692Z</time></trkpt><trkpt lat="39.2280063" lon="16.8088874"><ele>361.3333333333333</ele><time>2026-03-28T12:02:25.686Z</time></trkpt><trkpt lat="39.227958" lon="16.8089955"><ele>360.0</ele><time>2026-03-28T12:02:26.701Z</time></trkpt><trkpt lat="39.2279073" lon="16.8091125"><ele>360.0</ele><time>2026-03-28T12:02:27.694Z</time></trkpt><trkpt lat="39.2278568" lon="16.80923"><ele>360.0</ele><time>2026-03-28T12:02:28.69Z</time></trkpt><trkpt lat="39.2278072" lon="16.8093476"><ele>360.0</ele><time>2026-03-28T12:02:29.703Z</time></trkpt><trkpt lat="39.2277628" lon="16.8094543"><ele>360.0</ele><time>2026-03-28T12:02:30.693Z</time></trkpt><trkpt lat="39.2277178" lon="16.8095552"><ele>360.0</ele><time>2026-03-28T12:02:31.696Z</time></trkpt><trkpt lat="39.2276651" lon="16.8096538"><ele>359.8333333333333</ele><time>2026-03-28T12:02:32.699Z</time></trkpt><trkpt lat="39.2276052" lon="16.809735"><ele>359.6666666666667</ele><time>2026-03-28T12:02:33.696Z</time></trkpt><trkpt lat="39.2275335" lon="16.8097899"><ele>359.5</ele><time>2026-03-28T12:02:34.701Z</time></trkpt><trkpt lat="39.2274537" lon="16.8098293"><ele>359.33333333333337</ele><time>2026-03-28T12:02:35.692Z</time></trkpt><trkpt lat="39.227369" lon="16.8098538"><ele>359.1666666666667</ele><time>2026-03-28T12:02:36.688Z</time></trkpt><trkpt lat="39.2272804" lon="16.8098783"><ele>359.0</ele><time>2026-03-28T12:02:37.698Z</time></trkpt><trkpt lat="39.2271879" lon="16.8099073"><ele>357.4</ele><time>2026-03-28T12:02:38.697Z</time></trkpt><trkpt lat="39.2270917" lon="16.8099392"><ele>355.79999999999995</ele><time>2026-03-28T12:02:39.686Z</time></trkpt><trkpt lat="39.2269903" lon="16.8099751"><ele>354.20000000000005</ele><time>2026-03-28T12:02:40.692Z</time></trkpt><trkpt lat="39.226888" lon="16.8100104"><ele>352.6</ele><time>2026-03-28T12:02:41.687Z</time></trkpt><trkpt lat="39.2267866" lon="16.8100464"><ele>351.0</ele><time>2026-03-28T12:02:42.688Z</time></trkpt><trkpt lat="39.2266895" lon="16.8100795"><ele>351.0</ele><time>2026-03-28T12:02:43.69Z</time></trkpt><trkpt lat="39.226592" lon="16.8101107"><ele>351.0</ele><time>2026-03-28T12:02:44.688Z</time></trkpt><trkpt lat="39.2264923" lon="16.8101418"><ele>351.0</ele><time>2026-03-28T12:02:45.687Z</time></trkpt><trkpt lat="39.2263919" lon="16.8101742"><ele>351.0</ele><time>2026-03-28T12:02:46.695Z</time></trkpt><trkpt lat="39.2262925" lon="16.8102081"><ele>351.0</ele><time>2026-03-28T12:02:47.689Z</time></trkpt><trkpt lat="39.226199" lon="16.8102389"><ele>349.0</ele><time>2026-03-28T12:02:48.699Z</time></trkpt><trkpt lat="39.2261092" lon="16.8102724"><ele>347.0</ele><time>2026-03-28T12:02:49.692Z</time></trkpt><trkpt lat="39.2260246" lon="16.8103155"><ele>345.0</ele><time>2026-03-28T12:02:50.689Z</time></trkpt><trkpt lat="39.2259498" lon="16.8103795"><ele>343.0</ele><time>2026-03-28T12:02:51.702Z</time></trkpt><trkpt lat="39.225887" lon="16.8104642"><ele>341.0</ele><time>2026-03-28T12:02:52.693Z</time></trkpt><trkpt lat="39.2258228" lon="16.8105521"><ele>341.0</ele><time>2026-03-28T12:02:53.693Z</time></trkpt><trkpt lat="39.2257768" lon="16.8106613"><ele>341.0</ele><time>2026-03-28T12:02:54.713Z</time></trkpt><trkpt lat="39.2257394" lon="16.8107742"><ele>341.0</ele><time>2026-03-28T12:02:55.69Z</time></trkpt><trkpt lat="39.225718" lon="16.8108825"><ele>341.0</ele><time>2026-03-28T12:02:56.688Z</time></trkpt><trkpt lat="39.2257152" lon="16.8109878"><ele>341.0</ele><time>2026-03-28T12:02:57.691Z</time></trkpt><trkpt lat="39.2257347" lon="16.8111036"><ele>339.6</ele><time>2026-03-28T12:02:58.691Z</time></trkpt><trkpt lat="39.2257735" lon="16.8112299"><ele>338.20000000000005</ele><time>2026-03-28T12:02:59.697Z</time></trkpt><trkpt lat="39.2258141" lon="16.8113497"><ele>336.79999999999995</ele><time>2026-03-28T12:03:00.702Z</time></trkpt><trkpt lat="39.2258586" lon="16.8114741"><ele>335.4</ele><time>2026-03-28T12:03:01.7Z</time></trkpt><trkpt lat="39.2259033" lon="16.8116035"><ele>334.0</ele><time>2026-03-28T12:03:02.699Z</time></trkpt><trkpt lat="39.2259429" lon="16.811722"><ele>333.0</ele><time>2026-03-28T12:03:03.695Z</time></trkpt><trkpt lat="39.2259816" lon="16.811836"><ele>332.0</ele><time>2026-03-28T12:03:04.694Z</time></trkpt><trkpt lat="39.2260223" lon="16.8119504"><ele>331.0</ele><time>2026-03-28T12:03:05.701Z</time></trkpt><trkpt lat="39.226059" lon="16.8120581"><ele>330.0</ele><time>2026-03-28T12:03:06.698Z</time></trkpt><trkpt lat="39.2260878" lon="16.8121515"><ele>329.0</ele><time>2026-03-28T12:03:07.689Z</time></trkpt><trkpt lat="39.2261023" lon="16.8122318"><ele>328.0</ele><time>2026-03-28T12:03:08.696Z</time></trkpt><trkpt lat="39.2260844" lon="16.8123797"><ele>328.0</ele><time>2026-03-28T12:03:10.692Z</time></trkpt><trkpt lat="39.2260268" lon="16.8124186"><ele>328.0</ele><time>2026-03-28T12:03:11.69Z</time></trkpt><trkpt lat="39.2259527" lon="16.8124439"><ele>328.0</ele><time>2026-03-28T12:03:12.702Z</time></trkpt><trkpt lat="39.2258678" lon="16.8124723"><ele>328.0</ele><time>2026-03-28T12:03:13.691Z</time></trkpt><trkpt lat="39.2257838" lon="16.8125059"><ele>328.0</ele><time>2026-03-28T12:03:14.695Z</time></trkpt><trkpt lat="39.2257007" lon="16.812539"><ele>328.0</ele><time>2026-03-28T12:03:15.691Z</time></trkpt><trkpt lat="39.225624" lon="16.8125674"><ele>326.5</ele><time>2026-03-28T12:03:16.692Z</time></trkpt><trkpt lat="39.2255572" lon="16.8125993"><ele>325.0</ele><time>2026-03-28T12:03:17.687Z</time></trkpt><trkpt lat="39.2255043" lon="16.812645"><ele>323.5</ele><time>2026-03-28T12:03:18.691Z</time></trkpt><trkpt lat="39.2254544" lon="16.8127721"><ele>322.0</ele><time>2026-03-28T12:03:20.692Z</time></trkpt><trkpt lat="39.2255386" lon="16.8128837"><ele>320.5</ele><time>2026-03-28T12:03:22.693Z</time></trkpt><trkpt lat="39.2256072" lon="16.8128956"><ele>319.0</ele><time>2026-03-28T12:03:23.689Z</time></trkpt><trkpt lat="39.22568" lon="16.8129079"><ele>319.0</ele><time>2026-03-28T12:03:24.689Z</time></trkpt><trkpt lat="39.2257527" lon="16.8129266"><ele>319.0</ele><time>2026-03-28T12:03:25.7Z</time></trkpt><trkpt lat="39.2258143" lon="16.8129705"><ele>319.0</ele><time>2026-03-28T12:03:26.696Z</time></trkpt><trkpt lat="39.2258747" lon="16.8130177"><ele>319.0</ele><time>2026-03-28T12:03:27.687Z</time></trkpt><trkpt lat="39.2258925" lon="16.8131145"><ele>319.0</ele><time>2026-03-28T12:03:28.695Z</time></trkpt><trkpt lat="39.2258897" lon="16.813224"><ele>319.0</ele><time>2026-03-28T12:03:29.707Z</time></trkpt><trkpt lat="39.2258864" lon="16.8133483"><ele>319.0</ele><time>2026-03-28T12:03:30.695Z</time></trkpt><trkpt lat="39.2258659" lon="16.8134768"><ele>319.0</ele><time>2026-03-28T12:03:31.69Z</time></trkpt><trkpt lat="39.2258454" lon="16.8136069"><ele>319.0</ele><time>2026-03-28T12:03:32.689Z</time></trkpt><trkpt lat="39.225828" lon="16.8137327"><ele>319.0</ele><time>2026-03-28T12:03:33.702Z</time></trkpt><trkpt lat="39.2258045" lon="16.8138581"><ele>319.0</ele><time>2026-03-28T12:03:34.696Z</time></trkpt><trkpt lat="39.2257662" lon="16.8139684"><ele>317.4</ele><time>2026-03-28T12:03:35.7Z</time></trkpt><trkpt lat="39.2257083" lon="16.8140569"><ele>315.79999999999995</ele><time>2026-03-28T12:03:36.698Z</time></trkpt><trkpt lat="39.2256487" lon="16.8141473"><ele>314.20000000000005</ele><time>2026-03-28T12:03:37.69Z</time></trkpt><trkpt lat="39.2255543" lon="16.8141896"><ele>312.6</ele><time>2026-03-28T12:03:38.699Z</time></trkpt><trkpt lat="39.2254501" lon="16.8142177"><ele>311.0</ele><time>2026-03-28T12:03:39.697Z</time></trkpt><trkpt lat="39.2253505" lon="16.8142472"><ele>309.5</ele><time>2026-03-28T12:03:40.696Z</time></trkpt><trkpt lat="39.2252526" lon="16.8142743"><ele>308.0</ele><time>2026-03-28T12:03:41.693Z</time></trkpt><trkpt lat="39.2251583" lon="16.8143002"><ele>306.5</ele><time>2026-03-28T12:03:42.692Z</time></trkpt><trkpt lat="39.2250734" lon="16.8143274"><ele>305.0</ele><time>2026-03-28T12:03:43.693Z</time></trkpt><trkpt lat="39.2249954" lon="16.8143686"><ele>303.5</ele><time>2026-03-28T12:03:44.694Z</time></trkpt><trkpt lat="39.2249334" lon="16.8144309"><ele>302.0</ele><time>2026-03-28T12:03:45.689Z</time></trkpt><trkpt lat="39.2248938" lon="16.8145033"><ele>301.42857142857144</ele><time>2026-03-28T12:03:46.694Z</time></trkpt><trkpt lat="39.2248563" lon="16.8145761"><ele>300.8571428571429</ele><time>2026-03-28T12:03:47.697Z</time></trkpt><trkpt lat="39.2248575" lon="16.8146655"><ele>300.2857142857143</ele><time>2026-03-28T12:03:48.693Z</time></trkpt><trkpt lat="39.2248791" lon="16.8147509"><ele>299.7142857142857</ele><time>2026-03-28T12:03:49.689Z</time></trkpt><trkpt lat="39.2249181" lon="16.8148248"><ele>299.1428571428571</ele><time>2026-03-28T12:03:50.698Z</time></trkpt><trkpt lat="39.2249689" lon="16.8148945"><ele>298.57142857142856</ele><time>2026-03-28T12:03:51.692Z</time></trkpt><trkpt lat="39.2250319" lon="16.8149635"><ele>298.0</ele><time>2026-03-28T12:03:52.687Z</time></trkpt><trkpt lat="39.2250972" lon="16.8150386"><ele>298.0</ele><time>2026-03-28T12:03:53.69Z</time></trkpt><trkpt lat="39.2251595" lon="16.815115"><ele>298.0</ele><time>2026-03-28T12:03:54.692Z</time></trkpt><trkpt lat="39.2252134" lon="16.8151861"><ele>298.0</ele><time>2026-03-28T12:03:55.684Z</time></trkpt><trkpt lat="39.2252528" lon="16.8152637"><ele>298.0</ele><time>2026-03-28T12:03:56.686Z</time></trkpt><trkpt lat="39.2252713" lon="16.8153531"><ele>298.0</ele><time>2026-03-28T12:03:57.684Z</time></trkpt><trkpt lat="39.2252632" lon="16.8154387"><ele>298.0</ele><time>2026-03-28T12:03:58.698Z</time></trkpt><trkpt lat="39.2252314" lon="16.815522"><ele>298.0</ele><time>2026-03-28T12:03:59.696Z</time></trkpt><trkpt lat="39.2251769" lon="16.81559"><ele>296.5</ele><time>2026-03-28T12:04:00.701Z</time></trkpt><trkpt lat="39.2251092" lon="16.8156306"><ele>295.0</ele><time>2026-03-28T12:04:01.698Z</time></trkpt><trkpt lat="39.2250328" lon="16.8156448"><ele>293.5</ele><time>2026-03-28T12:04:02.698Z</time></trkpt><trkpt lat="39.2249523" lon="16.8156306"><ele>292.0</ele><time>2026-03-28T12:04:03.695Z</time></trkpt><trkpt lat="39.224868" lon="16.8156005"><ele>290.5</ele><time>2026-03-28T12:04:04.697Z</time></trkpt><trkpt lat="39.2247813" lon="16.8155665"><ele>289.0</ele><time>2026-03-28T12:04:05.693Z</time></trkpt><trkpt lat="39.2246969" lon="16.8155298"><ele>287.5</ele><time>2026-03-28T12:04:06.7Z</time></trkpt><trkpt lat="39.2246138" lon="16.815493"><ele>286.0</ele><time>2026-03-28T12:04:07.7Z</time></trkpt><trkpt lat="39.2245346" lon="16.815459"><ele>284.5</ele><time>2026-03-28T12:04:08.69Z</time></trkpt><trkpt lat="39.2244625" lon="16.8154364"><ele>283.0</ele><time>2026-03-28T12:04:09.689Z</time></trkpt><trkpt lat="39.2243986" lon="16.8154393"><ele>281.5</ele><time>2026-03-28T12:04:10.693Z</time></trkpt><trkpt lat="39.22429" lon="16.8154869"><ele>280.0</ele><time>2026-03-28T12:04:12.696Z</time></trkpt><trkpt lat="39.2242684" lon="16.8156465"><ele>280.0</ele><time>2026-03-28T12:04:14.701Z</time></trkpt><trkpt lat="39.2242856" lon="16.8157453"><ele>280.0</ele><time>2026-03-28T12:04:15.694Z</time></trkpt><trkpt lat="39.2243067" lon="16.8158583"><ele>280.0</ele><time>2026-03-28T12:04:16.695Z</time></trkpt><trkpt lat="39.2243281" lon="16.8159752"><ele>280.0</ele><time>2026-03-28T12:04:17.688Z</time></trkpt><trkpt lat="39.2243501" lon="16.8160937"><ele>280.0</ele><time>2026-03-28T12:04:18.698Z</time></trkpt><trkpt lat="39.2243676" lon="16.8162151"><ele>278.8333333333333</ele><time>2026-03-28T12:04:19.692Z</time></trkpt><trkpt lat="39.224389" lon="16.8163385"><ele>277.66666666666663</ele><time>2026-03-28T12:04:20.698Z</time></trkpt><trkpt lat="39.2244129" lon="16.8164547"><ele>276.5</ele><time>2026-03-28T12:04:21.689Z</time></trkpt><trkpt lat="39.2244446" lon="16.8165606"><ele>275.3333333333333</ele><time>2026-03-28T12:04:22.694Z</time></trkpt><trkpt lat="39.2244903" lon="16.8166544"><ele>274.1666666666667</ele><time>2026-03-28T12:04:23.687Z</time></trkpt><trkpt lat="39.2245359" lon="16.8167453"><ele>273.0</ele><time>2026-03-28T12:04:24.703Z</time></trkpt><trkpt lat="39.2245971" lon="16.8168211"><ele>271.8333333333333</ele><time>2026-03-28T12:04:25.695Z</time></trkpt><trkpt lat="39.2246685" lon="16.8168862"><ele>270.6666666666667</ele><time>2026-03-28T12:04:26.693Z</time></trkpt><trkpt lat="39.2247412" lon="16.8169525"><ele>269.5</ele><time>2026-03-28T12:04:27.692Z</time></trkpt><trkpt lat="39.2248122" lon="16.8170151"><ele>268.33333333333337</ele><time>2026-03-28T12:04:28.701Z</time></trkpt><trkpt lat="39.2248778" lon="16.8170726"><ele>267.1666666666667</ele><time>2026-03-28T12:04:29.69Z</time></trkpt><trkpt lat="39.224938" lon="16.8171241"><ele>266.0</ele><time>2026-03-28T12:04:30.686Z</time></trkpt><trkpt lat="39.2250245" lon="16.8172276"><ele>266.0</ele><time>2026-03-28T12:04:32.695Z</time></trkpt><trkpt lat="39.2250516" lon="16.8173738"><ele>266.0</ele><time>2026-03-28T12:04:34.686Z</time></trkpt><trkpt lat="39.2250324" lon="16.817454"><ele>266.0</ele><time>2026-03-28T12:04:35.691Z</time></trkpt><trkpt lat="39.2250109" lon="16.8175333"><ele>266.0</ele><time>2026-03-28T12:04:36.691Z</time></trkpt><trkpt lat="39.2249556" lon="16.8175896"><ele>266.0</ele><time>2026-03-28T12:04:37.699Z</time></trkpt><trkpt lat="39.2248903" lon="16.8176365"><ele>266.0</ele><time>2026-03-28T12:04:38.702Z</time></trkpt><trkpt lat="39.2248159" lon="16.8176716"><ele>264.33333333333337</ele><time>2026-03-28T12:04:39.698Z</time></trkpt><trkpt lat="39.2247359" lon="16.8177031"><ele>262.6666666666667</ele><time>2026-03-28T12:04:40.688Z</time></trkpt><trkpt lat="39.2246548" lon="16.8177408"><ele>261.0</ele><time>2026-03-28T12:04:41.702Z</time></trkpt><trkpt lat="39.2245745" lon="16.8177741"><ele>259.3333333333333</ele><time>2026-03-28T12:04:42.695Z</time></trkpt><trkpt lat="39.2244936" lon="16.8178057"><ele>257.66666666666663</ele><time>2026-03-28T12:04:43.691Z</time></trkpt><trkpt lat="39.2244136" lon="16.817833"><ele>256.0</ele><time>2026-03-28T12:04:44.701Z</time></trkpt><trkpt lat="39.2243351" lon="16.8178586"><ele>255.99999999999997</ele><time>2026-03-28T12:04:45.701Z</time></trkpt><trkpt lat="39.2242599" lon="16.8178825"><ele>256.0</ele><time>2026-03-28T12:04:46.7Z</time></trkpt><trkpt lat="39.2241939" lon="16.8179014"><ele>256.0</ele><time>2026-03-28T12:04:47.696Z</time></trkpt><trkpt lat="39.2240901" lon="16.8179148"><ele>256.0</ele><time>2026-03-28T12:04:49.698Z</time></trkpt><trkpt lat="39.2239801" lon="16.8179087"><ele>255.99999999999997</ele><time>2026-03-28T12:04:51.693Z</time></trkpt><trkpt lat="39.2239135" lon="16.8178972"><ele>256.0</ele><time>2026-03-28T12:04:52.692Z</time></trkpt><trkpt lat="39.223843" lon="16.8178811"><ele>254.83333333333331</ele><time>2026-03-28T12:04:53.703Z</time></trkpt><trkpt lat="39.2237712" lon="16.8178681"><ele>253.66666666666666</ele><time>2026-03-28T12:04:54.694Z</time></trkpt><trkpt lat="39.2236986" lon="16.8178565"><ele>252.5</ele><time>2026-03-28T12:04:55.692Z</time></trkpt><trkpt lat="39.2236299" lon="16.8178404"><ele>251.33333333333331</ele><time>2026-03-28T12:04:56.694Z</time></trkpt><trkpt lat="39.2235583" lon="16.8178261"><ele>250.16666666666666</ele><time>2026-03-28T12:04:57.696Z</time></trkpt><trkpt lat="39.2234914" lon="16.8178312"><ele>249.0</ele><time>2026-03-28T12:04:58.693Z</time></trkpt><trkpt lat="39.2233824" lon="16.8178794"><ele>249.0</ele><time>2026-03-28T12:05:00.698Z</time></trkpt><trkpt lat="39.2233091" lon="16.8180107"><ele>249.0</ele><time>2026-03-28T12:05:02.693Z</time></trkpt><trkpt lat="39.2233169" lon="16.818093"><ele>249.0</ele><time>2026-03-28T12:05:03.699Z</time></trkpt><trkpt lat="39.2233245" lon="16.8181797"><ele>249.0</ele><time>2026-03-28T12:05:04.697Z</time></trkpt><trkpt lat="39.2233748" lon="16.818248"><ele>249.0</ele><time>2026-03-28T12:05:05.7Z</time></trkpt><trkpt lat="39.2234355" lon="16.8183131"><ele>249.0</ele><time>2026-03-28T12:05:06.721Z</time></trkpt><trkpt lat="39.2234965" lon="16.8183834"><ele>249.0</ele><time>2026-03-28T12:05:07.692Z</time></trkpt><trkpt lat="39.2235604" lon="16.8184535"><ele>249.0</ele><time>2026-03-28T12:05:08.687Z</time></trkpt><trkpt lat="39.2236233" lon="16.818525"><ele>249.0</ele><time>2026-03-28T12:05:09.685Z</time></trkpt><trkpt lat="39.2236853" lon="16.8185928"><ele>249.0</ele><time>2026-03-28T12:05:10.694Z</time></trkpt><trkpt lat="39.2237472" lon="16.8186563"><ele>249.0</ele><time>2026-03-28T12:05:11.691Z</time></trkpt><trkpt lat="39.2238138" lon="16.8187107"><ele>249.0</ele><time>2026-03-28T12:05:12.687Z</time></trkpt><trkpt lat="39.2238867" lon="16.8187493"><ele>248.16666666666666</ele><time>2026-03-28T12:05:13.694Z</time></trkpt><trkpt lat="39.2239507" lon="16.8187783"><ele>247.33333333333331</ele><time>2026-03-28T12:05:14.7Z</time></trkpt><trkpt lat="39.2240454" lon="16.8188346"><ele>246.5</ele><time>2026-03-28T12:05:16.69Z</time></trkpt><trkpt lat="39.224103" lon="16.8188862"><ele>245.66666666666666</ele><time>2026-03-28T12:05:18.697Z</time></trkpt><trkpt lat="39.2241489" lon="16.8189548"><ele>244.83333333333331</ele><time>2026-03-28T12:05:21.693Z</time></trkpt><trkpt lat="39.2241623" lon="16.8190502"><ele>244.0</ele><time>2026-03-28T12:05:25.717Z</time></trkpt><trkpt lat="39.2241413" lon="16.8191473"><ele>243.99999999999997</ele><time>2026-03-28T12:07:36.7Z</time></trkpt><trkpt lat="39.2240612" lon="16.8192038"><ele>244.0</ele><time>2026-03-28T12:07:39.695Z</time></trkpt><trkpt lat="39.223977" lon="16.8192459"><ele>244.0</ele><time>2026-03-28T12:07:41.697Z</time></trkpt><trkpt lat="39.2238873" lon="16.8192833"><ele>244.0</ele><time>2026-03-28T12:07:43.687Z</time></trkpt><trkpt lat="39.2238015" lon="16.8193101"><ele>243.99999999999997</ele><time>2026-03-28T12:07:45.689Z</time></trkpt><trkpt lat="39.223717" lon="16.8193205"><ele>244.0</ele><time>2026-03-28T12:07:47.699Z</time></trkpt><trkpt lat="39.223622" lon="16.8193184"><ele>243.49999999999997</ele><time>2026-03-28T12:07:49.692Z</time></trkpt><trkpt lat="39.2235401" lon="16.8192963"><ele>243.0</ele><time>2026-03-28T12:07:52.694Z</time></trkpt><trkpt lat="39.2234309" lon="16.819295"><ele>242.5</ele><time>2026-03-28T12:07:55.698Z</time></trkpt><trkpt lat="39.2233813" lon="16.8193546"><ele>242.0</ele><time>2026-03-28T12:07:56.704Z</time></trkpt><trkpt lat="39.2233393" lon="16.8194433"><ele>241.49999999999997</ele><time>2026-03-28T12:07:57.691Z</time></trkpt><trkpt lat="39.2233047" lon="16.8195507"><ele>241.0</ele><time>2026-03-28T12:07:58.702Z</time></trkpt><trkpt lat="39.2232673" lon="16.8196692"><ele>239.20000000000002</ele><time>2026-03-28T12:07:59.695Z</time></trkpt><trkpt lat="39.2232239" lon="16.8197946"><ele>237.40000000000003</ele><time>2026-03-28T12:08:00.69Z</time></trkpt><trkpt lat="39.2231802" lon="16.8199216"><ele>235.6</ele><time>2026-03-28T12:08:01.705Z</time></trkpt><trkpt lat="39.2231412" lon="16.8200464"><ele>233.8</ele><time>2026-03-28T12:08:02.696Z</time></trkpt><trkpt lat="39.2231048" lon="16.8201628"><ele>232.0</ele><time>2026-03-28T12:08:03.697Z</time></trkpt><trkpt lat="39.2230729" lon="16.8202684"><ele>231.00000000000003</ele><time>2026-03-28T12:08:04.692Z</time></trkpt><trkpt lat="39.2230435" lon="16.8203619"><ele>230.0</ele><time>2026-03-28T12:08:05.693Z</time></trkpt><trkpt lat="39.2230159" lon="16.8204452"><ele>229.00000000000003</ele><time>2026-03-28T12:08:06.701Z</time></trkpt><trkpt lat="39.2229832" lon="16.8205245"><ele>228.00000000000003</ele><time>2026-03-28T12:08:07.697Z</time></trkpt><trkpt lat="39.2229443" lon="16.8206008"><ele>227.0</ele><time>2026-03-28T12:08:08.69Z</time></trkpt><trkpt lat="39.2228972" lon="16.8206729"><ele>226.00000000000003</ele><time>2026-03-28T12:08:09.696Z</time></trkpt><trkpt lat="39.2228441" lon="16.8207494"><ele>225.00000000000003</ele><time>2026-03-28T12:08:10.704Z</time></trkpt><trkpt lat="39.2227849" lon="16.8208388"><ele>225.0</ele><time>2026-03-28T12:08:11.691Z</time></trkpt><trkpt lat="39.2227239" lon="16.8209284"><ele>225.0</ele><time>2026-03-28T12:08:12.699Z</time></trkpt><trkpt lat="39.2226646" lon="16.8210015"><ele>225.0</ele><time>2026-03-28T12:08:13.699Z</time></trkpt><trkpt lat="39.2226055" lon="16.8210736"><ele>225.0</ele><time>2026-03-28T12:08:14.7Z</time></trkpt><trkpt lat="39.2225248" lon="16.8211133"><ele>225.0</ele><time>2026-03-28T12:08:15.69Z</time></trkpt><trkpt lat="39.2224326" lon="16.8211421"><ele>225.0</ele><time>2026-03-28T12:08:16.689Z</time></trkpt><trkpt lat="39.2223463" lon="16.8211676"><ele>224.16666666666666</ele><time>2026-03-28T12:08:17.705Z</time></trkpt><trkpt lat="39.2222661" lon="16.8211933"><ele>223.33333333333331</ele><time>2026-03-28T12:08:18.694Z</time></trkpt><trkpt lat="39.2221988" lon="16.8212448"><ele>222.5</ele><time>2026-03-28T12:08:19.692Z</time></trkpt><trkpt lat="39.2221359" lon="16.8213149"><ele>221.66666666666666</ele><time>2026-03-28T12:08:20.692Z</time></trkpt><trkpt lat="39.2220783" lon="16.8214047"><ele>220.83333333333331</ele><time>2026-03-28T12:08:21.693Z</time></trkpt><trkpt lat="39.2220264" lon="16.8215013"><ele>220.0</ele><time>2026-03-28T12:08:22.699Z</time></trkpt><trkpt lat="39.2219764" lon="16.8215909"><ele>220.0</ele><time>2026-03-28T12:08:23.69Z</time></trkpt><trkpt lat="39.2219256" lon="16.8216784"><ele>220.0</ele><time>2026-03-28T12:08:24.687Z</time></trkpt><trkpt lat="39.2218764" lon="16.8217684"><ele>220.0</ele><time>2026-03-28T12:08:25.695Z</time></trkpt><trkpt lat="39.2218266" lon="16.8218634"><ele>220.0</ele><time>2026-03-28T12:08:26.697Z</time></trkpt><trkpt lat="39.221773" lon="16.8219617"><ele>220.0</ele><time>2026-03-28T12:08:27.698Z</time></trkpt><trkpt lat="39.2217149" lon="16.8220643"><ele>219.16666666666666</ele><time>2026-03-28T12:08:28.697Z</time></trkpt><trkpt lat="39.2216608" lon="16.8221612"><ele>218.33333333333331</ele><time>2026-03-28T12:08:29.692Z</time></trkpt><trkpt lat="39.2216136" lon="16.8222483"><ele>217.5</ele><time>2026-03-28T12:08:30.692Z</time></trkpt><trkpt lat="39.2215717" lon="16.8223247"><ele>216.66666666666669</ele><time>2026-03-28T12:08:31.689Z</time></trkpt><trkpt lat="39.2215257" lon="16.8223984"><ele>215.83333333333334</ele><time>2026-03-28T12:08:32.7Z</time></trkpt><trkpt lat="39.2214741" lon="16.8224684"><ele>215.0</ele><time>2026-03-28T12:08:33.697Z</time></trkpt><trkpt lat="39.2214137" lon="16.8225332"><ele>215.0</ele><time>2026-03-28T12:08:34.695Z</time></trkpt><trkpt lat="39.2213442" lon="16.8225906"><ele>215.0</ele><time>2026-03-28T12:08:35.697Z</time></trkpt><trkpt lat="39.2212653" lon="16.8226445"><ele>215.0</ele><time>2026-03-28T12:08:36.695Z</time></trkpt><trkpt lat="39.2211779" lon="16.8226927"><ele>215.0</ele><time>2026-03-28T12:08:37.695Z</time></trkpt><trkpt lat="39.2210836" lon="16.8227353"><ele>215.0</ele><time>2026-03-28T12:08:38.701Z</time></trkpt><trkpt lat="39.2209851" lon="16.8227784"><ele>212.4</ele><time>2026-03-28T12:08:39.701Z</time></trkpt><trkpt lat="39.2208914" lon="16.8228209"><ele>209.8</ele><time>2026-03-28T12:08:40.7Z</time></trkpt><trkpt lat="39.2207993" lon="16.8228622"><ele>207.2</ele><time>2026-03-28T12:08:41.692Z</time></trkpt><trkpt lat="39.220707" lon="16.8229057"><ele>204.6</ele><time>2026-03-28T12:08:42.692Z</time></trkpt><trkpt lat="39.2206186" lon="16.8229454"><ele>202.0</ele><time>2026-03-28T12:08:43.689Z</time></trkpt><trkpt lat="39.2205383" lon="16.8229825"><ele>201.49999999999997</ele><time>2026-03-28T12:08:44.689Z</time></trkpt><trkpt lat="39.2204542" lon="16.8230182"><ele>201.0</ele><time>2026-03-28T12:08:45.688Z</time></trkpt><trkpt lat="39.2203739" lon="16.8230533"><ele>200.5</ele><time>2026-03-28T12:08:46.695Z</time></trkpt><trkpt lat="39.2202978" lon="16.8230866"><ele>200.0</ele><time>2026-03-28T12:08:47.693Z</time></trkpt><trkpt lat="39.2202279" lon="16.8231218"><ele>199.49999999999997</ele><time>2026-03-28T12:08:48.698Z</time></trkpt><trkpt lat="39.2201707" lon="16.823164"><ele>199.0</ele><time>2026-03-28T12:08:49.689Z</time></trkpt><trkpt lat="39.2200838" lon="16.8232778"><ele>199.0</ele><time>2026-03-28T12:08:51.696Z</time></trkpt><trkpt lat="39.2201321" lon="16.8234283"><ele>199.0</ele><time>2026-03-28T12:08:53.693Z</time></trkpt><trkpt lat="39.2201793" lon="16.8235024"><ele>199.0</ele><time>2026-03-28T12:08:54.69Z</time></trkpt><trkpt lat="39.2202624" lon="16.8235361"><ele>199.0</ele><time>2026-03-28T12:08:55.69Z</time></trkpt><trkpt lat="39.22035" lon="16.823538"><ele>199.0</ele><time>2026-03-28T12:08:56.691Z</time></trkpt><trkpt lat="39.220429" lon="16.8235663"><ele>197.83333333333331</ele><time>2026-03-28T12:08:57.699Z</time></trkpt><trkpt lat="39.2204923" lon="16.8236352"><ele>196.66666666666666</ele><time>2026-03-28T12:08:58.69Z</time></trkpt><trkpt lat="39.2205477" lon="16.8237027"><ele>195.5</ele><time>2026-03-28T12:08:59.687Z</time></trkpt><trkpt lat="39.2206158" lon="16.823749"><ele>194.33333333333331</ele><time>2026-03-28T12:09:00.691Z</time></trkpt><trkpt lat="39.2206964" lon="16.8237627"><ele>193.16666666666666</ele><time>2026-03-28T12:09:01.696Z</time></trkpt><trkpt lat="39.2207716" lon="16.823762"><ele>192.0</ele><time>2026-03-28T12:09:02.688Z</time></trkpt><trkpt lat="39.2208346" lon="16.8237774"><ele>192.0</ele><time>2026-03-28T12:09:03.686Z</time></trkpt><trkpt lat="39.2209156" lon="16.8238858"><ele>192.0</ele><time>2026-03-28T12:09:05.692Z</time></trkpt><trkpt lat="39.2208996" lon="16.8239776"><ele>192.0</ele><time>2026-03-28T12:09:06.692Z</time></trkpt><trkpt lat="39.2208802" lon="16.8240834"><ele>192.0</ele><time>2026-03-28T12:09:07.687Z</time></trkpt><trkpt lat="39.2208803" lon="16.8241954"><ele>192.0</ele><time>2026-03-28T12:09:08.696Z</time></trkpt><trkpt lat="39.2209034" lon="16.8242939"><ele>192.0</ele><time>2026-03-28T12:09:09.699Z</time></trkpt><trkpt lat="39.2209454" lon="16.8243683"><ele>190.33333333333334</ele><time>2026-03-28T12:09:10.687Z</time></trkpt><trkpt lat="39.2210057" lon="16.824418"><ele>188.66666666666666</ele><time>2026-03-28T12:09:11.693Z</time></trkpt><trkpt lat="39.2210872" lon="16.8244421"><ele>187.0</ele><time>2026-03-28T12:09:12.695Z</time></trkpt><trkpt lat="39.221182" lon="16.8244572"><ele>185.33333333333331</ele><time>2026-03-28T12:09:13.691Z</time></trkpt><trkpt lat="39.22128" lon="16.8244716"><ele>183.66666666666666</ele><time>2026-03-28T12:09:14.693Z</time></trkpt><trkpt lat="39.2213724" lon="16.8244817"><ele>182.0</ele><time>2026-03-28T12:09:15.693Z</time></trkpt><trkpt lat="39.2214739" lon="16.8244726"><ele>182.0</ele><time>2026-03-28T12:09:16.694Z</time></trkpt><trkpt lat="39.2215813" lon="16.8244321"><ele>182.0</ele><time>2026-03-28T12:09:17.688Z</time></trkpt><trkpt lat="39.2216824" lon="16.8243939"><ele>182.0</ele><time>2026-03-28T12:09:18.694Z</time></trkpt><trkpt lat="39.2217633" lon="16.8243344"><ele>182.0</ele><time>2026-03-28T12:09:19.69Z</time></trkpt><trkpt lat="39.2218377" lon="16.8242894"><ele>182.0</ele><time>2026-03-28T12:09:20.693Z</time></trkpt><trkpt lat="39.2219066" lon="16.82428"><ele>182.0</ele><time>2026-03-28T12:09:21.688Z</time></trkpt><trkpt lat="39.2219967" lon="16.8243656"><ele>182.0</ele><time>2026-03-28T12:09:23.696Z</time></trkpt><trkpt lat="39.2220117" lon="16.8244874"><ele>182.0</ele><time>2026-03-28T12:09:25.69Z</time></trkpt><trkpt lat="39.2219708" lon="16.8245519"><ele>182.0</ele><time>2026-03-28T12:09:26.686Z</time></trkpt><trkpt lat="39.2219113" lon="16.8246206"><ele>182.0</ele><time>2026-03-28T12:09:27.692Z</time></trkpt><trkpt lat="39.2218469" lon="16.8247039"><ele>182.0</ele><time>2026-03-28T12:09:28.698Z</time></trkpt><trkpt lat="39.2217834" lon="16.8247991"><ele>182.0</ele><time>2026-03-28T12:09:29.692Z</time></trkpt><trkpt lat="39.2217178" lon="16.8248993"><ele>182.0</ele><time>2026-03-28T12:09:30.685Z</time></trkpt><trkpt lat="39.2216566" lon="16.8250038"><ele>182.0</ele><time>2026-03-28T12:09:31.693Z</time></trkpt><trkpt lat="39.2215927" lon="16.8251057"><ele>182.0</ele><time>2026-03-28T12:09:32.694Z</time></trkpt><trkpt lat="39.2215358" lon="16.8252027"><ele>182.0</ele><time>2026-03-28T12:09:33.691Z</time></trkpt><trkpt lat="39.2214857" lon="16.8252798"><ele>181.0</ele><time>2026-03-28T12:09:34.691Z</time></trkpt><trkpt lat="39.2214237" lon="16.8253803"><ele>180.0</ele><time>2026-03-28T12:09:36.706Z</time></trkpt><trkpt lat="39.2213665" lon="16.8254709"><ele>179.0</ele><time>2026-03-28T12:09:39.702Z</time></trkpt><trkpt lat="39.22132" lon="16.8255334"><ele>178.0</ele><time>2026-03-28T12:09:41.695Z</time></trkpt><trkpt lat="39.2212635" lon="16.8256016"><ele>177.0</ele><time>2026-03-28T12:09:43.696Z</time></trkpt><trkpt lat="39.2211653" lon="16.8256926"><ele>177.0</ele><time>2026-03-28T12:09:45.705Z</time></trkpt><trkpt lat="39.2211059" lon="16.8257522"><ele>177.0</ele><time>2026-03-28T12:09:46.69Z</time></trkpt><trkpt lat="39.2210552" lon="16.8258135"><ele>177.0</ele><time>2026-03-28T12:09:47.696Z</time></trkpt><trkpt lat="39.2210023" lon="16.825874"><ele>177.0</ele><time>2026-03-28T12:09:48.706Z</time></trkpt><trkpt lat="39.2209495" lon="16.8259244"><ele>177.0</ele><time>2026-03-28T12:09:49.694Z</time></trkpt><trkpt lat="39.2208935" lon="16.8259678"><ele>177.0</ele><time>2026-03-28T12:09:50.693Z</time></trkpt><trkpt lat="39.2208362" lon="16.8260016"><ele>177.0</ele><time>2026-03-28T12:09:51.691Z</time></trkpt><trkpt lat="39.2207274" lon="16.8260477"><ele>177.2</ele><time>2026-03-28T12:09:53.692Z</time></trkpt><trkpt lat="39.2206009" lon="16.8260704"><ele>177.39999999999998</ele><time>2026-03-28T12:09:55.69Z</time></trkpt><trkpt lat="39.2205294" lon="16.8260606"><ele>177.60000000000002</ele><time>2026-03-28T12:09:56.696Z</time></trkpt><trkpt lat="39.2204462" lon="16.8260477"><ele>177.8</ele><time>2026-03-28T12:09:57.691Z</time></trkpt><trkpt lat="39.220374" lon="16.8259525"><ele>178.0</ele><time>2026-03-28T12:09:58.69Z</time></trkpt><trkpt lat="39.2203028" lon="16.8258955"><ele>178.0</ele><time>2026-03-28T12:09:59.689Z</time></trkpt><trkpt lat="39.2202355" lon="16.8258418"><ele>178.0</ele><time>2026-03-28T12:10:00.688Z</time></trkpt><trkpt lat="39.2201603" lon="16.8258651"><ele>178.0</ele><time>2026-03-28T12:10:01.692Z</time></trkpt><trkpt lat="39.2200917" lon="16.8259172"><ele>178.0</ele><time>2026-03-28T12:10:02.695Z</time></trkpt><trkpt lat="39.2200235" lon="16.8259803"><ele>178.0</ele><time>2026-03-28T12:10:03.697Z</time></trkpt><trkpt lat="39.2199578" lon="16.826038"><ele>178.0</ele><time>2026-03-28T12:10:04.691Z</time></trkpt><trkpt lat="39.2198944" lon="16.8260752"><ele>178.0</ele><time>2026-03-28T12:10:05.693Z</time></trkpt><trkpt lat="39.2198275" lon="16.8260833"><ele>178.0</ele><time>2026-03-28T12:10:06.69Z</time></trkpt><trkpt lat="39.2197632" lon="16.8260895"><ele>178.0</ele><time>2026-03-28T12:10:07.693Z</time></trkpt><trkpt lat="39.2196922" lon="16.8260388"><ele>178.0</ele><time>2026-03-28T12:10:08.698Z</time></trkpt><trkpt lat="39.2196125" lon="16.8259787"><ele>178.0</ele><time>2026-03-28T12:10:09.69Z</time></trkpt><trkpt lat="39.2195292" lon="16.8259148"><ele>178.0</ele><time>2026-03-28T12:10:10.697Z</time></trkpt><trkpt lat="39.2194401" lon="16.825858"><ele>177.4</ele><time>2026-03-28T12:10:11.692Z</time></trkpt><trkpt lat="39.2193465" lon="16.8258263"><ele>176.8</ele><time>2026-03-28T12:10:12.695Z</time></trkpt><trkpt lat="39.2192615" lon="16.8258296"><ele>176.2</ele><time>2026-03-28T12:10:13.689Z</time></trkpt><trkpt lat="39.2191755" lon="16.8258586"><ele>175.6</ele><time>2026-03-28T12:10:14.689Z</time></trkpt><trkpt lat="39.21909" lon="16.8259105"><ele>175.0</ele><time>2026-03-28T12:10:15.686Z</time></trkpt><trkpt lat="39.2190082" lon="16.825981"><ele>173.8</ele><time>2026-03-28T12:10:16.695Z</time></trkpt><trkpt lat="39.218935" lon="16.8260509"><ele>172.6</ele><time>2026-03-28T12:10:17.696Z</time></trkpt><trkpt lat="39.2188672" lon="16.8261273"><ele>171.39999999999998</ele><time>2026-03-28T12:10:18.697Z</time></trkpt><trkpt lat="39.2187996" lon="16.8262056"><ele>170.2</ele><time>2026-03-28T12:10:19.696Z</time></trkpt><trkpt lat="39.2187297" lon="16.8262812"><ele>169.0</ele><time>2026-03-28T12:10:20.694Z</time></trkpt><trkpt lat="39.2186579" lon="16.8263561"><ele>169.0</ele><time>2026-03-28T12:10:21.685Z</time></trkpt><trkpt lat="39.2185905" lon="16.8264294"><ele>169.0</ele><time>2026-03-28T12:10:22.695Z</time></trkpt><trkpt lat="39.2185217" lon="16.8265002"><ele>169.0</ele><time>2026-03-28T12:10:23.699Z</time></trkpt><trkpt lat="39.2184533" lon="16.8265711"><ele>169.0</ele><time>2026-03-28T12:10:24.694Z</time></trkpt><trkpt lat="39.2183877" lon="16.8266377"><ele>169.0</ele><time>2026-03-28T12:10:25.698Z</time></trkpt><trkpt lat="39.2183256" lon="16.8267053"><ele>169.0</ele><time>2026-03-28T12:10:26.689Z</time></trkpt><trkpt lat="39.2182645" lon="16.8267748"><ele>168.0</ele><time>2026-03-28T12:10:27.696Z</time></trkpt><trkpt lat="39.2182081" lon="16.8268497"><ele>167.0</ele><time>2026-03-28T12:10:28.696Z</time></trkpt><trkpt lat="39.2181728" lon="16.82693"><ele>166.0</ele><time>2026-03-28T12:10:29.69Z</time></trkpt><trkpt lat="39.2181603" lon="16.8270141"><ele>165.0</ele><time>2026-03-28T12:10:30.694Z</time></trkpt><trkpt lat="39.2181728" lon="16.827105"><ele>164.0</ele><time>2026-03-28T12:10:31.696Z</time></trkpt><trkpt lat="39.218209" lon="16.8272013"><ele>163.0</ele><time>2026-03-28T12:10:32.689Z</time></trkpt><trkpt lat="39.2182578" lon="16.8272963"><ele>163.0</ele><time>2026-03-28T12:10:33.689Z</time></trkpt><trkpt lat="39.218314" lon="16.8273865"><ele>163.0</ele><time>2026-03-28T12:10:34.695Z</time></trkpt><trkpt lat="39.2183687" lon="16.8274704"><ele>163.0</ele><time>2026-03-28T12:10:35.691Z</time></trkpt><trkpt lat="39.2184181" lon="16.8275427"><ele>163.0</ele><time>2026-03-28T12:10:36.706Z</time></trkpt><trkpt lat="39.2184627" lon="16.8276114"><ele>163.0</ele><time>2026-03-28T12:10:37.701Z</time></trkpt><trkpt lat="39.2185013" lon="16.8276875"><ele>163.0</ele><time>2026-03-28T12:10:38.705Z</time></trkpt><trkpt lat="39.2185285" lon="16.8277759"><ele>161.83333333333334</ele><time>2026-03-28T12:10:39.693Z</time></trkpt><trkpt lat="39.2185419" lon="16.8278759"><ele>160.66666666666669</ele><time>2026-03-28T12:10:40.693Z</time></trkpt><trkpt lat="39.2185458" lon="16.8279797"><ele>159.5</ele><time>2026-03-28T12:10:41.71Z</time></trkpt><trkpt lat="39.2185497" lon="16.8280854"><ele>158.33333333333334</ele><time>2026-03-28T12:10:42.705Z</time></trkpt><trkpt lat="39.2185648" lon="16.8281906"><ele>157.16666666666666</ele><time>2026-03-28T12:10:43.697Z</time></trkpt><trkpt lat="39.2185936" lon="16.8282917"><ele>156.0</ele><time>2026-03-28T12:10:44.692Z</time></trkpt><trkpt lat="39.2186345" lon="16.8283824"><ele>156.0</ele><time>2026-03-28T12:10:45.699Z</time></trkpt><trkpt lat="39.2186814" lon="16.8284691"><ele>156.0</ele><time>2026-03-28T12:10:46.704Z</time></trkpt><trkpt lat="39.2187296" lon="16.828551"><ele>156.0</ele><time>2026-03-28T12:10:47.694Z</time></trkpt><trkpt lat="39.2187853" lon="16.8286331"><ele>156.0</ele><time>2026-03-28T12:10:48.697Z</time></trkpt><trkpt lat="39.2188493" lon="16.828712"><ele>156.0</ele><time>2026-03-28T12:10:49.696Z</time></trkpt><trkpt lat="39.2189185" lon="16.828788"><ele>156.0</ele><time>2026-03-28T12:10:50.693Z</time></trkpt><trkpt lat="39.2189933" lon="16.8288639"><ele>155.5</ele><time>2026-03-28T12:10:51.696Z</time></trkpt><trkpt lat="39.2190727" lon="16.8289392"><ele>155.0</ele><time>2026-03-28T12:10:52.693Z</time></trkpt><trkpt lat="39.2191462" lon="16.8290067"><ele>154.5</ele><time>2026-03-28T12:10:53.698Z</time></trkpt><trkpt lat="39.2192085" lon="16.8290701"><ele>154.0</ele><time>2026-03-28T12:10:54.689Z</time></trkpt><trkpt lat="39.2192632" lon="16.8291354"><ele>153.5</ele><time>2026-03-28T12:10:55.696Z</time></trkpt><trkpt lat="39.2193122" lon="16.8292159"><ele>153.0</ele><time>2026-03-28T12:10:56.698Z</time></trkpt><trkpt lat="39.2193625" lon="16.8292996"><ele>152.0</ele><time>2026-03-28T12:10:57.696Z</time></trkpt><trkpt lat="39.2194061" lon="16.8294028"><ele>151.0</ele><time>2026-03-28T12:10:58.691Z</time></trkpt><trkpt lat="39.2194513" lon="16.8294928"><ele>150.0</ele><time>2026-03-28T12:10:59.694Z</time></trkpt><trkpt lat="39.2195024" lon="16.8295629"><ele>149.0</ele><time>2026-03-28T12:11:00.696Z</time></trkpt><trkpt lat="39.2195583" lon="16.8296177"><ele>148.0</ele><time>2026-03-28T12:11:01.696Z</time></trkpt><trkpt lat="39.2196127" lon="16.8296621"><ele>147.0</ele><time>2026-03-28T12:11:02.693Z</time></trkpt><trkpt lat="39.2196806" lon="16.829781"><ele>147.0</ele><time>2026-03-28T12:11:04.695Z</time></trkpt><trkpt lat="39.219661" lon="16.829917"><ele>147.0</ele><time>2026-03-28T12:11:06.691Z</time></trkpt><trkpt lat="39.2196248" lon="16.8299868"><ele>147.0</ele><time>2026-03-28T12:11:07.69Z</time></trkpt><trkpt lat="39.2195781" lon="16.8300558"><ele>147.0</ele><time>2026-03-28T12:11:08.697Z</time></trkpt><trkpt lat="39.2195157" lon="16.8301096"><ele>147.0</ele><time>2026-03-28T12:11:09.695Z</time></trkpt><trkpt lat="39.2194415" lon="16.8301545"><ele>147.0</ele><time>2026-03-28T12:11:10.689Z</time></trkpt><trkpt lat="39.2193621" lon="16.8302028"><ele>146.66666666666666</ele><time>2026-03-28T12:11:11.689Z</time></trkpt><trkpt lat="39.219285" lon="16.8302551"><ele>146.33333333333334</ele><time>2026-03-28T12:11:12.69Z</time></trkpt><trkpt lat="39.2192173" lon="16.8303069"><ele>146.0</ele><time>2026-03-28T12:11:13.69Z</time></trkpt><trkpt lat="39.2191528" lon="16.8303556"><ele>145.66666666666669</ele><time>2026-03-28T12:11:14.688Z</time></trkpt><trkpt lat="39.2191079" lon="16.8304288"><ele>145.33333333333334</ele><time>2026-03-28T12:11:15.69Z</time></trkpt><trkpt lat="39.2190615" lon="16.8305051"><ele>145.0</ele><time>2026-03-28T12:11:16.697Z</time></trkpt><trkpt lat="39.2190254" lon="16.830579"><ele>145.0</ele><time>2026-03-28T12:11:17.692Z</time></trkpt><trkpt lat="39.2189931" lon="16.8306553"><ele>145.0</ele><time>2026-03-28T12:11:18.688Z</time></trkpt><trkpt lat="39.2189584" lon="16.830731"><ele>145.0</ele><time>2026-03-28T12:11:19.693Z</time></trkpt><trkpt lat="39.2188932" lon="16.8308605"><ele>145.0</ele><time>2026-03-28T12:11:21.696Z</time></trkpt><trkpt lat="39.2188535" lon="16.8309723"><ele>145.0</ele><time>2026-03-28T12:11:23.694Z</time></trkpt><trkpt lat="39.2188287" lon="16.8310624"><ele>145.0</ele><time>2026-03-28T12:11:25.699Z</time></trkpt><trkpt lat="39.2188125" lon="16.8311433"><ele>144.0</ele><time>2026-03-28T12:11:27.702Z</time></trkpt><trkpt lat="39.2187896" lon="16.8312776"><ele>143.0</ele><time>2026-03-28T12:11:30.692Z</time></trkpt><trkpt lat="39.2187599" lon="16.8313905"><ele>142.0</ele><time>2026-03-28T12:11:32.697Z</time></trkpt><trkpt lat="39.2187331" lon="16.831476"><ele>141.0</ele><time>2026-03-28T12:11:34.701Z</time></trkpt><trkpt lat="39.2186935" lon="16.8315851"><ele>140.0</ele><time>2026-03-28T12:11:37.697Z</time></trkpt><trkpt lat="39.2186678" lon="16.8316711"><ele>139.0</ele><time>2026-03-28T12:11:39.69Z</time></trkpt><trkpt lat="39.2186365" lon="16.8317685"><ele>139.42857142857142</ele><time>2026-03-28T12:11:41.698Z</time></trkpt><trkpt lat="39.2186064" lon="16.8318524"><ele>139.85714285714286</ele><time>2026-03-28T12:11:43.727Z</time></trkpt><trkpt lat="39.2185702" lon="16.8319356"><ele>140.28571428571428</ele><time>2026-03-28T12:11:45.708Z</time></trkpt><trkpt lat="39.2185432" lon="16.8320297"><ele>140.71428571428572</ele><time>2026-03-28T12:11:47.751Z</time></trkpt><trkpt lat="39.218501" lon="16.8321"><ele>141.14285714285714</ele><time>2026-03-28T12:11:49.719Z</time></trkpt><trkpt lat="39.2184528" lon="16.8321578"><ele>141.57142857142856</ele><time>2026-03-28T12:11:52.697Z</time></trkpt><trkpt lat="39.2183792" lon="16.8322125"><ele>142.0</ele><time>2026-03-28T12:12:04.692Z</time></trkpt><trkpt lat="39.2183163" lon="16.832264"><ele>142.0</ele><time>2026-03-28T12:12:13.693Z</time></trkpt><trkpt lat="39.2182572" lon="16.8323131"><ele>142.0</ele><time>2026-03-28T12:12:16.701Z</time></trkpt><trkpt lat="39.2181911" lon="16.8323727"><ele>142.0</ele><time>2026-03-28T12:12:19.693Z</time></trkpt><trkpt lat="39.2181397" lon="16.8324246"><ele>142.0</ele><time>2026-03-28T12:12:23.695Z</time></trkpt><trkpt lat="39.218114" lon="16.8325022"><ele>142.0</ele><time>2026-03-28T12:12:27.697Z</time></trkpt><trkpt lat="39.2180992" lon="16.8325919"><ele>142.0</ele><time>2026-03-28T12:12:32.694Z</time></trkpt><trkpt lat="39.2181082" lon="16.8326839"><ele>142.0</ele><time>2026-03-28T12:12:35.701Z</time></trkpt><trkpt lat="39.218131" lon="16.8327702"><ele>141.71428571428572</ele><time>2026-03-28T12:12:42.704Z</time></trkpt><trkpt lat="39.2181451" lon="16.8328498"><ele>141.42857142857142</ele><time>2026-03-28T12:12:47.697Z</time></trkpt><trkpt lat="39.2181264" lon="16.8329299"><ele>141.14285714285714</ele><time>2026-03-28T12:13:00.701Z</time></trkpt><trkpt lat="39.2180991" lon="16.8330181"><ele>140.85714285714286</ele><time>2026-03-28T12:13:10.697Z</time></trkpt><trkpt lat="39.2180756" lon="16.8330964"><ele>140.57142857142856</ele><time>2026-03-28T12:13:16.698Z</time></trkpt><trkpt lat="39.2180498" lon="16.8331887"><ele>140.28571428571428</ele><time>2026-03-28T12:13:21.687Z</time></trkpt><trkpt lat="39.2180152" lon="16.8332705"><ele>140.0</ele><time>2026-03-28T12:13:26.701Z</time></trkpt><trkpt lat="39.2179731" lon="16.8333558"><ele>140.0</ele><time>2026-03-28T12:14:03.7Z</time></trkpt><trkpt lat="39.2179516" lon="16.8334522"><ele>140.0</ele><time>2026-03-28T12:14:06.697Z</time></trkpt><trkpt lat="39.2179647" lon="16.8335657"><ele>140.0</ele><time>2026-03-28T12:14:09.694Z</time></trkpt><trkpt lat="39.2179755" lon="16.8336505"><ele>140.0</ele><time>2026-03-28T12:14:13.702Z</time></trkpt><trkpt lat="39.2179787" lon="16.8337463"><ele>140.0</ele><time>2026-03-28T12:14:16.715Z</time></trkpt><trkpt lat="39.2179757" lon="16.8338316"><ele>140.0</ele><time>2026-03-28T12:14:18.709Z</time></trkpt><trkpt lat="39.2179182" lon="16.8339145"><ele>139.5</ele><time>2026-03-28T12:14:21.697Z</time></trkpt><trkpt lat="39.2178638" lon="16.8339691"><ele>139.0</ele><time>2026-03-28T12:14:23.701Z</time></trkpt><trkpt lat="39.2178097" lon="16.8340205"><ele>138.5</ele><time>2026-03-28T12:14:25.69Z</time></trkpt><trkpt lat="39.2177667" lon="16.8341048"><ele>138.0</ele><time>2026-03-28T12:14:27.69Z</time></trkpt><trkpt lat="39.2177605" lon="16.8342033"><ele>137.5</ele><time>2026-03-28T12:14:30.699Z</time></trkpt><trkpt lat="39.2177722" lon="16.8342925"><ele>137.0</ele><time>2026-03-28T12:15:20.714Z</time></trkpt><trkpt lat="39.2178048" lon="16.834409"><ele>136.79999999999998</ele><time>2026-03-28T12:15:23.699Z</time></trkpt><trkpt lat="39.2178307" lon="16.8345601"><ele>136.6</ele><time>2026-03-28T12:15:25.699Z</time></trkpt><trkpt lat="39.2178448" lon="16.8346542"><ele>136.39999999999998</ele><time>2026-03-28T12:15:26.698Z</time></trkpt><trkpt lat="39.217863" lon="16.8347532"><ele>136.2</ele><time>2026-03-28T12:15:27.697Z</time></trkpt><trkpt lat="39.2178789" lon="16.8348506"><ele>136.0</ele><time>2026-03-28T12:15:28.694Z</time></trkpt><trkpt lat="39.2178947" lon="16.8349895"><ele>136.0</ele><time>2026-03-28T12:15:30.697Z</time></trkpt><trkpt lat="39.2178977" lon="16.8350794"><ele>136.0</ele><time>2026-03-28T12:15:32.696Z</time></trkpt><trkpt lat="39.2178717" lon="16.8351855"><ele>136.0</ele><time>2026-03-28T12:15:34.697Z</time></trkpt><trkpt lat="39.2178296" lon="16.8353044"><ele>136.0</ele><time>2026-03-28T12:15:36.702Z</time></trkpt><trkpt lat="39.2178212" lon="16.8354373"><ele>136.0</ele><time>2026-03-28T12:15:38.698Z</time></trkpt><trkpt lat="39.2178245" lon="16.8355957"><ele>136.0</ele><time>2026-03-28T12:15:40.69Z</time></trkpt><trkpt lat="39.2178333" lon="16.8357305"><ele>136.0</ele><time>2026-03-28T12:15:42.696Z</time></trkpt><trkpt lat="39.2177736" lon="16.835847"><ele>136.0</ele><time>2026-03-28T12:15:44.694Z</time></trkpt><trkpt lat="39.2177057" lon="16.8358834"><ele>136.0</ele><time>2026-03-28T12:15:45.694Z</time></trkpt><trkpt lat="39.217632" lon="16.8359242"><ele>136.0</ele><time>2026-03-28T12:15:46.695Z</time></trkpt><trkpt lat="39.2175658" lon="16.8359909"><ele>136.0</ele><time>2026-03-28T12:15:47.696Z</time></trkpt><trkpt lat="39.217507" lon="16.8360549"><ele>136.0</ele><time>2026-03-28T12:15:48.691Z</time></trkpt><trkpt lat="39.2174971" lon="16.836168"><ele>136.0</ele><time>2026-03-28T12:15:50.7Z</time></trkpt><trkpt lat="39.2175226" lon="16.8362755"><ele>136.0</ele><time>2026-03-28T12:15:52.687Z</time></trkpt><trkpt lat="39.217517" lon="16.8363645"><ele>136.0</ele><time>2026-03-28T12:15:55.695Z</time></trkpt><trkpt lat="39.2175001" lon="16.8364588"><ele>136.0</ele><time>2026-03-28T12:15:57.698Z</time></trkpt><trkpt lat="39.2174784" lon="16.8365731"><ele>136.0</ele><time>2026-03-28T12:15:59.695Z</time></trkpt><trkpt lat="39.2174431" lon="16.8366437"><ele>136.0</ele><time>2026-03-28T12:16:00.695Z</time></trkpt><trkpt lat="39.2173982" lon="16.8367099"><ele>136.0</ele><time>2026-03-28T12:16:01.694Z</time></trkpt><trkpt lat="39.2173562" lon="16.8367752"><ele>136.0</ele><time>2026-03-28T12:16:02.697Z</time></trkpt><trkpt lat="39.2173172" lon="16.8368457"><ele>136.0</ele><time>2026-03-28T12:16:03.694Z</time></trkpt><trkpt lat="39.2172534" lon="16.836985"><ele>136.0</ele><time>2026-03-28T12:16:05.692Z</time></trkpt><trkpt lat="39.2172061" lon="16.8371232"><ele>138.16666666666669</ele><time>2026-03-28T12:16:07.689Z</time></trkpt><trkpt lat="39.2171923" lon="16.8372388"><ele>140.33333333333334</ele><time>2026-03-28T12:16:09.692Z</time></trkpt><trkpt lat="39.2172002" lon="16.8373601"><ele>142.5</ele><time>2026-03-28T12:16:21.689Z</time></trkpt><trkpt lat="39.2172019" lon="16.8374702"><ele>144.66666666666666</ele><time>2026-03-28T12:16:23.697Z</time></trkpt><trkpt lat="39.217223" lon="16.8375632"><ele>146.83333333333331</ele><time>2026-03-28T12:16:25.695Z</time></trkpt><trkpt lat="39.2172412" lon="16.8376648"><ele>149.0</ele><time>2026-03-28T12:16:28.696Z</time></trkpt><trkpt lat="39.2172324" lon="16.8377637"><ele>150.0</ele><time>2026-03-28T12:16:32.699Z</time></trkpt><trkpt lat="39.2172582" lon="16.8378497"><ele>151.0</ele><time>2026-03-28T12:16:37.712Z</time></trkpt><trkpt lat="39.2173028" lon="16.8379306"><ele>152.0</ele><time>2026-03-28T12:16:40.707Z</time></trkpt><trkpt lat="39.2173334" lon="16.8380049"><ele>153.0</ele><time>2026-03-28T12:16:42.691Z</time></trkpt><trkpt lat="39.2173669" lon="16.8380981"><ele>154.0</ele><time>2026-03-28T12:16:45.69Z</time></trkpt><trkpt lat="39.2174145" lon="16.8381786"><ele>155.0</ele><time>2026-03-28T12:16:48.692Z</time></trkpt><trkpt lat="39.2174643" lon="16.8382367"><ele>156.0</ele><time>2026-03-28T12:16:51.695Z</time></trkpt><trkpt lat="39.2175083" lon="16.8383203"><ele>152.5</ele><time>2026-03-28T12:16:54.688Z</time></trkpt><trkpt lat="39.21754" lon="16.8384229"><ele>149.0</ele><time>2026-03-28T12:16:58.689Z</time></trkpt><trkpt lat="39.2176158" lon="16.8384708"><ele>145.5</ele><time>2026-03-28T12:17:01.695Z</time></trkpt><trkpt lat="39.2176809" lon="16.8385241"><ele>142.0</ele><time>2026-03-28T12:17:04.689Z</time></trkpt><trkpt lat="39.2177459" lon="16.8385618"><ele>138.5</ele><time>2026-03-28T12:17:07.693Z</time></trkpt><trkpt lat="39.2178064" lon="16.8386036"><ele>135.0</ele><time>2026-03-28T12:17:11.699Z</time></trkpt><trkpt lat="39.2178718" lon="16.8386148"><ele>135.0</ele><time>2026-03-28T12:17:14.695Z</time></trkpt><trkpt lat="39.2179568" lon="16.8386091"><ele>135.0</ele><time>2026-03-28T12:17:18.703Z</time></trkpt><trkpt lat="39.2180195" lon="16.8386187"><ele>135.0</ele><time>2026-03-28T12:17:20.691Z</time></trkpt><trkpt lat="39.2180884" lon="16.8386354"><ele>135.0</ele><time>2026-03-28T12:17:23.7Z</time></trkpt><trkpt lat="39.2181459" lon="16.8386799"><ele>135.0</ele><time>2026-03-28T12:17:32.7Z</time></trkpt><trkpt lat="39.21818" lon="16.8387602"><ele>135.0</ele><time>2026-03-28T12:17:40.7Z</time></trkpt><trkpt lat="39.2182074" lon="16.8388358"><ele>135.0</ele><time>2026-03-28T12:17:47.699Z</time></trkpt><trkpt lat="39.2182367" lon="16.8389233"><ele>135.0</ele><time>2026-03-28T12:17:52.701Z</time></trkpt><trkpt lat="39.2182341" lon="16.8390232"><ele>135.0</ele><time>2026-03-28T12:17:57.703Z</time></trkpt><trkpt lat="39.2182344" lon="16.8391118"><ele>135.0</ele><time>2026-03-28T12:18:01.687Z</time></trkpt><trkpt lat="39.2182228" lon="16.8391927"><ele>135.0</ele><time>2026-03-28T12:18:05.69Z</time></trkpt><trkpt lat="39.2182413" lon="16.8392781"><ele>135.0</ele><time>2026-03-28T12:18:09.727Z</time></trkpt><trkpt lat="39.2181978" lon="16.8393646"><ele>135.0</ele><time>2026-03-28T12:18:13.705Z</time></trkpt><trkpt lat="39.2182104" lon="16.8394479"><ele>135.0</ele><time>2026-03-28T12:18:16.702Z</time></trkpt><trkpt lat="39.2182777" lon="16.8395284"><ele>135.0</ele><time>2026-03-28T12:18:19.693Z</time></trkpt><trkpt lat="39.2183366" lon="16.8395639"><ele>135.0</ele><time>2026-03-28T12:18:21.699Z</time></trkpt><trkpt lat="39.2184006" lon="16.8396066"><ele>135.0</ele><time>2026-03-28T12:18:55.7Z</time></trkpt><trkpt lat="39.2184663" lon="16.8396256"><ele>135.0</ele><time>2026-03-28T12:18:59.699Z</time></trkpt><trkpt lat="39.2185387" lon="16.8396632"><ele>135.0</ele><time>2026-03-28T12:19:04.707Z</time></trkpt><trkpt lat="39.218579" lon="16.8397344"><ele>135.0</ele><time>2026-03-28T12:19:07.701Z</time></trkpt><trkpt lat="39.2186268" lon="16.8397973"><ele>135.0</ele><time>2026-03-28T12:19:10.698Z</time></trkpt><trkpt lat="39.2186224" lon="16.8398927"><ele>135.0</ele><time>2026-03-28T12:19:17.703Z</time></trkpt><trkpt lat="39.2185719" lon="16.8399537"><ele>135.0</ele><time>2026-03-28T12:19:20.694Z</time></trkpt><trkpt lat="39.2185601" lon="16.8400628"><ele>135.0</ele><time>2026-03-28T12:19:22.699Z</time></trkpt><trkpt lat="39.218578" lon="16.8402032"><ele>135.0</ele><time>2026-03-28T12:19:24.693Z</time></trkpt><trkpt lat="39.2186054" lon="16.8403036"><ele>135.0</ele><time>2026-03-28T12:19:26.691Z</time></trkpt><trkpt lat="39.2186391" lon="16.8403994"><ele>135.0</ele><time>2026-03-28T12:19:28.697Z</time></trkpt><trkpt lat="39.2187086" lon="16.8404956"><ele>135.16666666666666</ele><time>2026-03-28T12:19:30.7Z</time></trkpt><trkpt lat="39.2187755" lon="16.8405827"><ele>135.33333333333334</ele><time>2026-03-28T12:19:32.7Z</time></trkpt><trkpt lat="39.2188548" lon="16.8406584"><ele>135.5</ele><time>2026-03-28T12:19:34.696Z</time></trkpt><trkpt lat="39.218924" lon="16.8407421"><ele>135.66666666666669</ele><time>2026-03-28T12:19:36.696Z</time></trkpt><trkpt lat="39.2189874" lon="16.8407981"><ele>135.83333333333334</ele><time>2026-03-28T12:19:38.698Z</time></trkpt><trkpt lat="39.2190529" lon="16.8408477"><ele>136.0</ele><time>2026-03-28T12:19:40.69Z</time></trkpt><trkpt lat="39.2191379" lon="16.8408494"><ele>136.0</ele><time>2026-03-28T12:19:43.699Z</time></trkpt><trkpt lat="39.2192051" lon="16.8408688"><ele>136.0</ele><time>2026-03-28T12:19:54.707Z</time></trkpt><trkpt lat="39.2192545" lon="16.8409518"><ele>136.0</ele><time>2026-03-28T12:19:57.693Z</time></trkpt><trkpt lat="39.2193174" lon="16.8410055"><ele>136.0</ele><time>2026-03-28T12:20:00.696Z</time></trkpt><trkpt lat="39.2193825" lon="16.8410776"><ele>136.0</ele><time>2026-03-28T12:20:04.698Z</time></trkpt><trkpt lat="39.2194308" lon="16.8411379"><ele>136.0</ele><time>2026-03-28T12:20:07.699Z</time></trkpt><trkpt lat="39.2194825" lon="16.8412142"><ele>137.99999999999997</ele><time>2026-03-28T12:20:11.7Z</time></trkpt><trkpt lat="39.2195073" lon="16.8412975"><ele>140.0</ele><time>2026-03-28T12:20:14.696Z</time></trkpt><trkpt lat="39.2195356" lon="16.841403"><ele>142.0</ele><time>2026-03-28T12:20:17.692Z</time></trkpt><trkpt lat="39.2195711" lon="16.8414946"><ele>144.0</ele><time>2026-03-28T12:20:20.692Z</time></trkpt><trkpt lat="39.2196124" lon="16.841569"><ele>146.0</ele><time>2026-03-28T12:20:23.692Z</time></trkpt><trkpt lat="39.2196401" lon="16.8416472"><ele>147.99999999999997</ele><time>2026-03-28T12:20:26.694Z</time></trkpt><trkpt lat="39.2196614" lon="16.8417353"><ele>150.0</ele><time>2026-03-28T12:20:29.687Z</time></trkpt><trkpt lat="39.2197003" lon="16.8418087"><ele>148.16666666666666</ele><time>2026-03-28T12:20:33.697Z</time></trkpt><trkpt lat="39.2197427" lon="16.841904"><ele>146.33333333333334</ele><time>2026-03-28T12:20:38.722Z</time></trkpt><trkpt lat="39.2197939" lon="16.8419875"><ele>144.5</ele><time>2026-03-28T12:20:41.706Z</time></trkpt><trkpt lat="39.2198426" lon="16.8420392"><ele>142.66666666666669</ele><time>2026-03-28T12:20:43.689Z</time></trkpt><trkpt lat="39.2198908" lon="16.8421174"><ele>140.83333333333334</ele><time>2026-03-28T12:20:46.706Z</time></trkpt><trkpt lat="39.2199522" lon="16.8421688"><ele>139.0</ele><time>2026-03-28T12:20:51.697Z</time></trkpt><trkpt lat="39.2200132" lon="16.8422319"><ele>139.0</ele><time>2026-03-28T12:20:55.696Z</time></trkpt><trkpt lat="39.2200792" lon="16.8422712"><ele>139.0</ele><time>2026-03-28T12:20:59.695Z</time></trkpt><trkpt lat="39.2201541" lon="16.8422698"><ele>139.0</ele><time>2026-03-28T12:21:02.695Z</time></trkpt><trkpt lat="39.220237" lon="16.842302"><ele>139.0</ele><time>2026-03-28T12:21:05.692Z</time></trkpt><trkpt lat="39.2203021" lon="16.8423542"><ele>139.0</ele><time>2026-03-28T12:21:08.692Z</time></trkpt><trkpt lat="39.2203729" lon="16.8423901"><ele>139.0</ele><time>2026-03-28T12:21:11.706Z</time></trkpt><trkpt lat="39.2204225" lon="16.8424497"><ele>139.0</ele><time>2026-03-28T12:21:14.697Z</time></trkpt><trkpt lat="39.2204759" lon="16.8425166"><ele>139.0</ele><time>2026-03-28T12:21:17.694Z</time></trkpt><trkpt lat="39.2205377" lon="16.8425813"><ele>139.0</ele><time>2026-03-28T12:21:20.702Z</time></trkpt><trkpt lat="39.2205677" lon="16.8426732"><ele>139.0</ele><time>2026-03-28T12:21:48.695Z</time></trkpt><trkpt lat="39.220614" lon="16.8427613"><ele>139.0</ele><time>2026-03-28T12:21:54.693Z</time></trkpt><trkpt lat="39.2206583" lon="16.842864"><ele>139.0</ele><time>2026-03-28T12:21:57.7Z</time></trkpt><trkpt lat="39.2206954" lon="16.842936"><ele>139.14285714285714</ele><time>2026-03-28T12:21:59.692Z</time></trkpt><trkpt lat="39.2207208" lon="16.8430221"><ele>139.28571428571428</ele><time>2026-03-28T12:22:03.701Z</time></trkpt><trkpt lat="39.220698" lon="16.8430999"><ele>139.42857142857144</ele><time>2026-03-28T12:22:07.699Z</time></trkpt><trkpt lat="39.2207071" lon="16.8431871"><ele>139.57142857142856</ele><time>2026-03-28T12:22:26.697Z</time></trkpt><trkpt lat="39.2206887" lon="16.8432661"><ele>139.71428571428572</ele><time>2026-03-28T12:23:23.695Z</time></trkpt><trkpt lat="39.2206428" lon="16.8433382"><ele>139.85714285714286</ele><time>2026-03-28T12:23:32.699Z</time></trkpt><trkpt lat="39.2206671" lon="16.843423"><ele>140.0</ele><time>2026-03-28T12:23:40.693Z</time></trkpt><trkpt lat="39.2206637" lon="16.8435486"><ele>138.42857142857142</ele><time>2026-03-28T12:26:52.702Z</time></trkpt><trkpt lat="39.2206547" lon="16.8436361"><ele>136.85714285714286</ele><time>2026-03-28T12:26:54.69Z</time></trkpt><trkpt lat="39.2206578" lon="16.8437211"><ele>135.28571428571428</ele><time>2026-03-28T12:26:57.693Z</time></trkpt><trkpt lat="39.2207133" lon="16.843767"><ele>133.71428571428572</ele><time>2026-03-28T12:27:05.692Z</time></trkpt><trkpt lat="39.2207704" lon="16.8438356"><ele>132.14285714285714</ele><time>2026-03-28T12:27:10.688Z</time></trkpt><trkpt lat="39.2207992" lon="16.8439213"><ele>130.57142857142856</ele><time>2026-03-28T12:27:13.695Z</time></trkpt><trkpt lat="39.2208238" lon="16.8440144"><ele>129.0</ele><time>2026-03-28T12:27:16.707Z</time></trkpt><trkpt lat="39.2208279" lon="16.8441047"><ele>129.0</ele><time>2026-03-28T12:27:19.692Z</time></trkpt><trkpt lat="39.2208418" lon="16.8442169"><ele>129.0</ele><time>2026-03-28T12:27:22.705Z</time></trkpt><trkpt lat="39.2208795" lon="16.8443111"><ele>129.0</ele><time>2026-03-28T12:27:25.695Z</time></trkpt><trkpt lat="39.2209074" lon="16.8443925"><ele>129.0</ele><time>2026-03-28T12:27:28.696Z</time></trkpt><trkpt lat="39.2209293" lon="16.8444834"><ele>129.0</ele><time>2026-03-28T12:27:32.691Z</time></trkpt><trkpt lat="39.2209146" lon="16.8445849"><ele>129.0</ele><time>2026-03-28T12:27:36.697Z</time></trkpt><trkpt lat="39.2209149" lon="16.8446731"><ele>129.66666666666666</ele><time>2026-03-28T12:27:39.694Z</time></trkpt><trkpt lat="39.2209444" lon="16.8447734"><ele>130.33333333333334</ele><time>2026-03-28T12:27:43.697Z</time></trkpt><trkpt lat="39.2210221" lon="16.844823"><ele>131.0</ele><time>2026-03-28T12:27:47.701Z</time></trkpt><trkpt lat="39.2210802" lon="16.8448657"><ele>131.66666666666669</ele><time>2026-03-28T12:27:50.694Z</time></trkpt><trkpt lat="39.2211517" lon="16.8448879"><ele>132.33333333333334</ele><time>2026-03-28T12:27:53.692Z</time></trkpt><trkpt lat="39.221224" lon="16.8448834"><ele>133.0</ele><time>2026-03-28T12:27:56.701Z</time></trkpt><trkpt lat="39.2212939" lon="16.8448909"><ele>133.0</ele><time>2026-03-28T12:27:59.691Z</time></trkpt><trkpt lat="39.2213719" lon="16.8449339"><ele>133.0</ele><time>2026-03-28T12:28:03.699Z</time></trkpt><trkpt lat="39.221427" lon="16.8450047"><ele>133.0</ele><time>2026-03-28T12:28:06.706Z</time></trkpt><trkpt lat="39.2214712" lon="16.8450835"><ele>133.0</ele><time>2026-03-28T12:28:10.694Z</time></trkpt><trkpt lat="39.2215211" lon="16.845138"><ele>133.0</ele><time>2026-03-28T12:28:13.709Z</time></trkpt><trkpt lat="39.2215818" lon="16.8451065"><ele>133.0</ele><time>2026-03-28T12:28:16.692Z</time></trkpt><trkpt lat="39.221633" lon="16.8450181"><ele>132.33333333333334</ele><time>2026-03-28T12:28:19.717Z</time></trkpt><trkpt lat="39.2217098" lon="16.8450156"><ele>131.66666666666669</ele><time>2026-03-28T12:28:22.716Z</time></trkpt><trkpt lat="39.221792" lon="16.8450392"><ele>131.0</ele><time>2026-03-28T12:28:25.694Z</time></trkpt><trkpt lat="39.2218685" lon="16.8450949"><ele>130.33333333333334</ele><time>2026-03-28T12:28:28.69Z</time></trkpt><trkpt lat="39.221917" lon="16.8451609"><ele>129.66666666666666</ele><time>2026-03-28T12:28:30.702Z</time></trkpt><trkpt lat="39.2219764" lon="16.8452246"><ele>129.0</ele><time>2026-03-28T12:28:32.693Z</time></trkpt><trkpt lat="39.2220424" lon="16.8452881"><ele>129.0</ele><time>2026-03-28T12:28:34.693Z</time></trkpt><trkpt lat="39.2221109" lon="16.8453425"><ele>129.0</ele><time>2026-03-28T12:28:36.703Z</time></trkpt><trkpt lat="39.2221804" lon="16.8453921"><ele>129.0</ele><time>2026-03-28T12:28:38.689Z</time></trkpt><trkpt lat="39.2222489" lon="16.8454385"><ele>129.0</ele><time>2026-03-28T12:28:40.705Z</time></trkpt><trkpt lat="39.2223134" lon="16.8454992"><ele>129.0</ele><time>2026-03-28T12:28:42.691Z</time></trkpt><trkpt lat="39.2223909" lon="16.8455245"><ele>129.0</ele><time>2026-03-28T12:28:44.697Z</time></trkpt><trkpt lat="39.2224646" lon="16.8455495"><ele>129.0</ele><time>2026-03-28T12:28:46.726Z</time></trkpt><trkpt lat="39.2225181" lon="16.8456273"><ele>129.0</ele><time>2026-03-28T12:28:49.702Z</time></trkpt><trkpt lat="39.2225211" lon="16.8457282"><ele>129.0</ele><time>2026-03-28T12:28:56.701Z</time></trkpt><trkpt lat="39.2225464" lon="16.8458275"><ele>129.0</ele><time>2026-03-28T12:29:00.696Z</time></trkpt><trkpt lat="39.2226121" lon="16.8458784"><ele>129.0</ele><time>2026-03-28T12:29:03.697Z</time></trkpt><trkpt lat="39.2226768" lon="16.8458721"><ele>129.0</ele><time>2026-03-28T12:29:06.695Z</time></trkpt><trkpt lat="39.222736" lon="16.8459223"><ele>130.33333333333334</ele><time>2026-03-28T12:29:10.697Z</time></trkpt><trkpt lat="39.2227752" lon="16.8460047"><ele>131.66666666666666</ele><time>2026-03-28T12:29:13.698Z</time></trkpt><trkpt lat="39.222817" lon="16.8460893"><ele>133.0</ele><time>2026-03-28T12:29:16.708Z</time></trkpt><trkpt lat="39.22288" lon="16.8461437"><ele>134.33333333333331</ele><time>2026-03-28T12:29:19.742Z</time></trkpt><trkpt lat="39.2229479" lon="16.8462118"><ele>135.66666666666666</ele><time>2026-03-28T12:29:22.695Z</time></trkpt><trkpt lat="39.2229983" lon="16.8462869"><ele>137.0</ele><time>2026-03-28T12:29:24.704Z</time></trkpt><trkpt lat="39.2230331" lon="16.8463853"><ele>137.00000000000003</ele><time>2026-03-28T12:29:26.692Z</time></trkpt><trkpt lat="39.2230667" lon="16.8464796"><ele>137.0</ele><time>2026-03-28T12:29:28.702Z</time></trkpt><trkpt lat="39.2230914" lon="16.8465548"><ele>137.0</ele><time>2026-03-28T12:29:30.69Z</time></trkpt><trkpt lat="39.2230743" lon="16.8466362"><ele>137.0</ele><time>2026-03-28T12:29:34.695Z</time></trkpt><trkpt lat="39.223086" lon="16.8467241"><ele>137.0</ele><time>2026-03-28T12:29:39.703Z</time></trkpt><trkpt lat="39.2230796" lon="16.8468085"><ele>137.00000000000003</ele><time>2026-03-28T12:29:42.706Z</time></trkpt><trkpt lat="39.2230244" lon="16.8468777"><ele>137.0</ele><time>2026-03-28T12:29:46.703Z</time></trkpt><trkpt lat="39.2229855" lon="16.846949"><ele>135.71428571428572</ele><time>2026-03-28T12:29:48.698Z</time></trkpt><trkpt lat="39.2229566" lon="16.8470349"><ele>134.42857142857144</ele><time>2026-03-28T12:29:50.694Z</time></trkpt><trkpt lat="39.2229529" lon="16.8471248"><ele>133.14285714285714</ele><time>2026-03-28T12:29:53.708Z</time></trkpt><trkpt lat="39.2229225" lon="16.847204"><ele>131.85714285714286</ele><time>2026-03-28T12:29:56.706Z</time></trkpt><trkpt lat="39.2228792" lon="16.8472852"><ele>130.57142857142856</ele><time>2026-03-28T12:30:03.698Z</time></trkpt><trkpt lat="39.2228372" lon="16.8473607"><ele>129.28571428571428</ele><time>2026-03-28T12:30:10.696Z</time></trkpt><trkpt lat="39.2227744" lon="16.8473987"><ele>128.0</ele><time>2026-03-28T12:30:15.698Z</time></trkpt><trkpt lat="39.2227077" lon="16.8473771"><ele>127.99999999999999</ele><time>2026-03-28T12:30:19.697Z</time></trkpt><trkpt lat="39.2226343" lon="16.8473707"><ele>128.0</ele><time>2026-03-28T12:30:23.696Z</time></trkpt><trkpt lat="39.2225523" lon="16.8474076"><ele>128.0</ele><time>2026-03-28T12:30:27.691Z</time></trkpt><trkpt lat="39.222484" lon="16.847457"><ele>128.0</ele><time>2026-03-28T12:30:30.691Z</time></trkpt><trkpt lat="39.2224789" lon="16.8475425"><ele>127.99999999999999</ele><time>2026-03-28T12:30:34.706Z</time></trkpt><trkpt lat="39.2225357" lon="16.8476184"><ele>128.0</ele><time>2026-03-28T12:30:37.7Z</time></trkpt><trkpt lat="39.2225695" lon="16.8477153"><ele>127.83333333333333</ele><time>2026-03-28T12:30:39.718Z</time></trkpt><trkpt lat="39.2225874" lon="16.8478143"><ele>127.66666666666666</ele><time>2026-03-28T12:30:41.699Z</time></trkpt><trkpt lat="39.22259" lon="16.8479077"><ele>127.5</ele><time>2026-03-28T12:30:43.698Z</time></trkpt><trkpt lat="39.2225714" lon="16.8480155"><ele>127.33333333333334</ele><time>2026-03-28T12:30:46.694Z</time></trkpt><trkpt lat="39.2225947" lon="16.8481266"><ele>127.16666666666667</ele><time>2026-03-28T12:30:49.704Z</time></trkpt><trkpt lat="39.2226161" lon="16.8482128"><ele>127.0</ele><time>2026-03-28T12:30:51.699Z</time></trkpt><trkpt lat="39.2226409" lon="16.8483012"><ele>127.0</ele><time>2026-03-28T12:30:53.703Z</time></trkpt><trkpt lat="39.2226705" lon="16.8484022"><ele>127.0</ele><time>2026-03-28T12:30:56.7Z</time></trkpt><trkpt lat="39.2226631" lon="16.8485142"><ele>127.0</ele><time>2026-03-28T12:30:59.712Z</time></trkpt><trkpt lat="39.2226879" lon="16.8486038"><ele>127.0</ele><time>2026-03-28T12:31:01.699Z</time></trkpt><trkpt lat="39.2226904" lon="16.8486872"><ele>127.0</ele><time>2026-03-28T12:31:03.699Z</time></trkpt><trkpt lat="39.2227087" lon="16.8487734"><ele>127.0</ele><time>2026-03-28T12:31:11.699Z</time></trkpt><trkpt lat="39.2227562" lon="16.8488292"><ele>127.0</ele><time>2026-03-28T12:31:14.695Z</time></trkpt><trkpt lat="39.2228243" lon="16.8488834"><ele>128.83333333333334</ele><time>2026-03-28T12:31:18.697Z</time></trkpt><trkpt lat="39.2228756" lon="16.8489574"><ele>130.66666666666669</ele><time>2026-03-28T12:31:22.69Z</time></trkpt><trkpt lat="39.2229094" lon="16.8490332"><ele>132.5</ele><time>2026-03-28T12:31:27.698Z</time></trkpt><trkpt lat="39.2229455" lon="16.8491074"><ele>134.33333333333334</ele><time>2026-03-28T12:31:31.688Z</time></trkpt><trkpt lat="39.2229683" lon="16.8492011"><ele>136.16666666666666</ele><time>2026-03-28T12:31:36.7Z</time></trkpt><trkpt lat="39.2230022" lon="16.8493095"><ele>138.0</ele><time>2026-03-28T12:31:40.698Z</time></trkpt><trkpt lat="39.2230335" lon="16.8494108"><ele>136.0</ele><time>2026-03-28T12:31:43.696Z</time></trkpt><trkpt lat="39.2229867" lon="16.8494801"><ele>134.0</ele><time>2026-03-28T12:31:46.7Z</time></trkpt><trkpt lat="39.2229675" lon="16.8495847"><ele>132.0</ele><time>2026-03-28T12:31:49.695Z</time></trkpt><trkpt lat="39.2230055" lon="16.8496865"><ele>130.0</ele><time>2026-03-28T12:31:51.687Z</time></trkpt><trkpt lat="39.2230626" lon="16.8497595"><ele>128.0</ele><time>2026-03-28T12:31:53.695Z</time></trkpt><trkpt lat="39.2231393" lon="16.8497967"><ele>126.0</ele><time>2026-03-28T12:31:55.697Z</time></trkpt><trkpt lat="39.2232291" lon="16.849869"><ele>126.0</ele><time>2026-03-28T12:31:57.695Z</time></trkpt><trkpt lat="39.2232954" lon="16.8499934"><ele>126.0</ele><time>2026-03-28T12:31:59.693Z</time></trkpt><trkpt lat="39.2233659" lon="16.8501012"><ele>126.0</ele><time>2026-03-28T12:32:01.691Z</time></trkpt><trkpt lat="39.223423" lon="16.8502034"><ele>126.0</ele><time>2026-03-28T12:32:03.699Z</time></trkpt><trkpt lat="39.2234447" lon="16.8503488"><ele>126.0</ele><time>2026-03-28T12:32:05.697Z</time></trkpt><trkpt lat="39.2234772" lon="16.8504558"><ele>126.14285714285714</ele><time>2026-03-28T12:32:07.697Z</time></trkpt><trkpt lat="39.2235256" lon="16.8505396"><ele>126.28571428571428</ele><time>2026-03-28T12:32:10.694Z</time></trkpt><trkpt lat="39.2235394" lon="16.8506337"><ele>126.42857142857143</ele><time>2026-03-28T12:32:20.706Z</time></trkpt><trkpt lat="39.2235282" lon="16.8507146"><ele>126.57142857142857</ele><time>2026-03-28T12:32:24.696Z</time></trkpt><trkpt lat="39.2235198" lon="16.8507967"><ele>126.71428571428571</ele><time>2026-03-28T12:32:27.702Z</time></trkpt><trkpt lat="39.2235105" lon="16.8508913"><ele>126.85714285714286</ele><time>2026-03-28T12:32:32.697Z</time></trkpt><trkpt lat="39.2235043" lon="16.851004"><ele>127.0</ele><time>2026-03-28T12:32:36.697Z</time></trkpt><trkpt lat="39.2235113" lon="16.8510899"><ele>126.14285714285714</ele><time>2026-03-28T12:32:39.699Z</time></trkpt><trkpt lat="39.2235235" lon="16.8511795"><ele>125.28571428571428</ele><time>2026-03-28T12:32:42.703Z</time></trkpt><trkpt lat="39.2235186" lon="16.8512698"><ele>124.42857142857142</ele><time>2026-03-28T12:32:45.689Z</time></trkpt><trkpt lat="39.2235053" lon="16.8513497"><ele>123.57142857142857</ele><time>2026-03-28T12:32:48.693Z</time></trkpt><trkpt lat="39.2235017" lon="16.8514744"><ele>122.7142857142857</ele><time>2026-03-28T12:32:51.717Z</time></trkpt><trkpt lat="39.2235064" lon="16.8515607"><ele>121.85714285714285</ele><time>2026-03-28T12:32:53.701Z</time></trkpt><trkpt lat="39.2234967" lon="16.8516482"><ele>121.0</ele><time>2026-03-28T12:32:56.703Z</time></trkpt><trkpt lat="39.2235075" lon="16.8517418"><ele>120.00000000000001</ele><time>2026-03-28T12:32:59.7Z</time></trkpt><trkpt lat="39.2234939" lon="16.8518602"><ele>119.0</ele><time>2026-03-28T12:33:02.703Z</time></trkpt><trkpt lat="39.2234895" lon="16.8519493"><ele>118.0</ele><time>2026-03-28T12:33:04.702Z</time></trkpt><trkpt lat="39.2234908" lon="16.8520352"><ele>117.0</ele><time>2026-03-28T12:33:06.695Z</time></trkpt><trkpt lat="39.2234768" lon="16.8521488"><ele>116.00000000000001</ele><time>2026-03-28T12:33:09.695Z</time></trkpt><trkpt lat="39.2234657" lon="16.8522472"><ele>115.0</ele><time>2026-03-28T12:33:12.702Z</time></trkpt><trkpt lat="39.2234413" lon="16.8523581"><ele>115.00000000000001</ele><time>2026-03-28T12:33:15.701Z</time></trkpt><trkpt lat="39.2234065" lon="16.8524495"><ele>115.0</ele><time>2026-03-28T12:33:18.697Z</time></trkpt><trkpt lat="39.2233692" lon="16.8525509"><ele>115.0</ele><time>2026-03-28T12:33:21.704Z</time></trkpt><trkpt lat="39.2233339" lon="16.8526605"><ele>115.0</ele><time>2026-03-28T12:33:24.697Z</time></trkpt><trkpt lat="39.2232869" lon="16.8527612"><ele>115.00000000000001</ele><time>2026-03-28T12:33:27.7Z</time></trkpt><trkpt lat="39.2232489" lon="16.8528753"><ele>115.0</ele><time>2026-03-28T12:33:30.713Z</time></trkpt><trkpt lat="39.2232203" lon="16.8529535"><ele>115.00000000000001</ele><time>2026-03-28T12:33:32.704Z</time></trkpt><trkpt lat="39.2231849" lon="16.8530337"><ele>115.0</ele><time>2026-03-28T12:33:34.7Z</time></trkpt><trkpt lat="39.2231556" lon="16.8531228"><ele>115.0</ele><time>2026-03-28T12:33:36.706Z</time></trkpt><trkpt lat="39.2231161" lon="16.8532157"><ele>115.0</ele><time>2026-03-28T12:33:38.706Z</time></trkpt><trkpt lat="39.2230746" lon="16.8533176"><ele>115.00000000000001</ele><time>2026-03-28T12:33:40.701Z</time></trkpt><trkpt lat="39.223027" lon="16.8534326"><ele>115.0</ele><time>2026-03-28T12:33:42.702Z</time></trkpt><trkpt lat="39.2229792" lon="16.8535653"><ele>115.0</ele><time>2026-03-28T12:33:44.698Z</time></trkpt><trkpt lat="39.2229312" lon="16.8536869"><ele>115.0</ele><time>2026-03-28T12:33:46.705Z</time></trkpt><trkpt lat="39.2228827" lon="16.8538074"><ele>115.0</ele><time>2026-03-28T12:33:48.704Z</time></trkpt><trkpt lat="39.2228338" lon="16.8539003"><ele>115.0</ele><time>2026-03-28T12:33:50.709Z</time></trkpt><trkpt lat="39.2227874" lon="16.8539758"><ele>115.0</ele><time>2026-03-28T12:33:53.698Z</time></trkpt><trkpt lat="39.2227391" lon="16.8540573"><ele>115.00000000000001</ele><time>2026-03-28T12:33:56.702Z</time></trkpt><trkpt lat="39.2226842" lon="16.8541517"><ele>115.0</ele><time>2026-03-28T12:33:59.695Z</time></trkpt><trkpt lat="39.2226522" lon="16.8542318"><ele>115.0</ele><time>2026-03-28T12:34:02.697Z</time></trkpt><trkpt lat="39.222601" lon="16.8542979"><ele>115.0</ele><time>2026-03-28T12:34:06.7Z</time></trkpt><trkpt lat="39.2225433" lon="16.8543849"><ele>115.00000000000001</ele><time>2026-03-28T12:35:15.695Z</time></trkpt><trkpt lat="39.2224821" lon="16.8544155"><ele>115.0</ele><time>2026-03-28T12:35:17.71Z</time></trkpt><trkpt lat="39.2224012" lon="16.8544524"><ele>114.42857142857142</ele><time>2026-03-28T12:35:20.704Z</time></trkpt><trkpt lat="39.2223476" lon="16.8545656"><ele>113.85714285714286</ele><time>2026-03-28T12:35:23.691Z</time></trkpt><trkpt lat="39.2223013" lon="16.854637"><ele>113.28571428571428</ele><time>2026-03-28T12:35:25.701Z</time></trkpt><trkpt lat="39.2222516" lon="16.8546997"><ele>112.71428571428571</ele><time>2026-03-28T12:35:27.693Z</time></trkpt><trkpt lat="39.2221991" lon="16.8547667"><ele>112.14285714285714</ele><time>2026-03-28T12:35:29.695Z</time></trkpt><trkpt lat="39.2221645" lon="16.854842"><ele>111.57142857142857</ele><time>2026-03-28T12:35:32.694Z</time></trkpt><trkpt lat="39.2221288" lon="16.8549097"><ele>111.0</ele><time>2026-03-28T12:35:35.694Z</time></trkpt><trkpt lat="39.2220968" lon="16.8549802"><ele>110.66666666666667</ele><time>2026-03-28T12:35:38.702Z</time></trkpt><trkpt lat="39.2220507" lon="16.8550874"><ele>110.33333333333334</ele><time>2026-03-28T12:35:41.697Z</time></trkpt><trkpt lat="39.222026" lon="16.8551773"><ele>110.0</ele><time>2026-03-28T12:35:43.692Z</time></trkpt><trkpt lat="39.222007" lon="16.8552662"><ele>109.66666666666667</ele><time>2026-03-28T12:35:45.702Z</time></trkpt><trkpt lat="39.2219887" lon="16.8553573"><ele>109.33333333333334</ele><time>2026-03-28T12:35:48.698Z</time></trkpt><trkpt lat="39.2219534" lon="16.8554431"><ele>109.0</ele><time>2026-03-28T12:35:53.697Z</time></trkpt><trkpt lat="39.221951" lon="16.8555482"><ele>109.00000000000001</ele><time>2026-03-28T12:36:06.714Z</time></trkpt><trkpt lat="39.2219505" lon="16.8556425"><ele>109.0</ele><time>2026-03-28T12:36:08.698Z</time></trkpt><trkpt lat="39.2219584" lon="16.8557507"><ele>109.0</ele><time>2026-03-28T12:36:10.71Z</time></trkpt><trkpt lat="39.2219602" lon="16.8558394"><ele>109.0</ele><time>2026-03-28T12:36:16.695Z</time></trkpt><trkpt lat="39.2219244" lon="16.8559582"><ele>109.00000000000001</ele><time>2026-03-28T12:36:19.707Z</time></trkpt><trkpt lat="39.2218931" lon="16.8560828"><ele>109.0</ele><time>2026-03-28T12:36:21.697Z</time></trkpt><trkpt lat="39.2218414" lon="16.8562224"><ele>108.83333333333334</ele><time>2026-03-28T12:36:23.703Z</time></trkpt><trkpt lat="39.2217956" lon="16.8562923"><ele>108.66666666666667</ele><time>2026-03-28T12:36:24.733Z</time></trkpt><trkpt lat="39.2217478" lon="16.8563554"><ele>108.5</ele><time>2026-03-28T12:36:25.752Z</time></trkpt><trkpt lat="39.2217025" lon="16.8564217"><ele>108.33333333333334</ele><time>2026-03-28T12:36:26.696Z</time></trkpt><trkpt lat="39.2216642" lon="16.8564906"><ele>108.16666666666667</ele><time>2026-03-28T12:36:27.719Z</time></trkpt><trkpt lat="39.221587" lon="16.8566196"><ele>108.0</ele><time>2026-03-28T12:36:29.731Z</time></trkpt><trkpt lat="39.2215431" lon="16.8566836"><ele>108.0</ele><time>2026-03-28T12:36:30.709Z</time></trkpt><trkpt lat="39.2214985" lon="16.8567434"><ele>108.0</ele><time>2026-03-28T12:36:31.689Z</time></trkpt><trkpt lat="39.2214125" lon="16.8567923"><ele>108.0</ele><time>2026-03-28T12:36:33.694Z</time></trkpt><trkpt lat="39.2213476" lon="16.8568748"><ele>108.0</ele><time>2026-03-28T12:36:35.746Z</time></trkpt><trkpt lat="39.2212744" lon="16.8569375"><ele>108.0</ele><time>2026-03-28T12:36:37.696Z</time></trkpt><trkpt lat="39.2212092" lon="16.8570023"><ele>108.0</ele><time>2026-03-28T12:36:39.704Z</time></trkpt><trkpt lat="39.2211713" lon="16.8570801"><ele>107.80000000000001</ele><time>2026-03-28T12:36:41.701Z</time></trkpt><trkpt lat="39.2211707" lon="16.8571861"><ele>107.60000000000001</ele><time>2026-03-28T12:36:43.699Z</time></trkpt><trkpt lat="39.2211546" lon="16.8572977"><ele>107.39999999999999</ele><time>2026-03-28T12:36:45.738Z</time></trkpt><trkpt lat="39.2210867" lon="16.8574007"><ele>107.19999999999999</ele><time>2026-03-28T12:36:47.696Z</time></trkpt><trkpt lat="39.221004" lon="16.8574797"><ele>107.0</ele><time>2026-03-28T12:36:49.706Z</time></trkpt><trkpt lat="39.220981" lon="16.8575742"><ele>107.28571428571429</ele><time>2026-03-28T12:36:51.697Z</time></trkpt><trkpt lat="39.2209688" lon="16.8576608"><ele>107.57142857142857</ele><time>2026-03-28T12:36:53.696Z</time></trkpt><trkpt lat="39.2209594" lon="16.857759"><ele>107.85714285714286</ele><time>2026-03-28T12:36:57.697Z</time></trkpt><trkpt lat="39.2209406" lon="16.8578485"><ele>108.14285714285714</ele><time>2026-03-28T12:37:09.706Z</time></trkpt><trkpt lat="39.2208933" lon="16.8579346"><ele>108.42857142857143</ele><time>2026-03-28T12:37:23.702Z</time></trkpt><trkpt lat="39.2208699" lon="16.8580223"><ele>108.71428571428572</ele><time>2026-03-28T12:37:26.7Z</time></trkpt><trkpt lat="39.2208523" lon="16.8581155"><ele>109.0</ele><time>2026-03-28T12:37:29.702Z</time></trkpt><trkpt lat="39.2208341" lon="16.8582367"><ele>109.00000000000001</ele><time>2026-03-28T12:37:32.691Z</time></trkpt><trkpt lat="39.2208231" lon="16.8583243"><ele>109.0</ele><time>2026-03-28T12:37:34.698Z</time></trkpt><trkpt lat="39.2207917" lon="16.8584379"><ele>109.0</ele><time>2026-03-28T12:37:37.711Z</time></trkpt><trkpt lat="39.2207664" lon="16.8585351"><ele>109.0</ele><time>2026-03-28T12:37:39.695Z</time></trkpt><trkpt lat="39.2207387" lon="16.8586168"><ele>109.00000000000001</ele><time>2026-03-28T12:37:41.706Z</time></trkpt><trkpt lat="39.2207026" lon="16.8587041"><ele>109.0</ele><time>2026-03-28T12:37:43.69Z</time></trkpt><trkpt lat="39.2206579" lon="16.8587783"><ele>108.71428571428572</ele><time>2026-03-28T12:37:45.705Z</time></trkpt><trkpt lat="39.220613" lon="16.8588422"><ele>108.42857142857143</ele><time>2026-03-28T12:37:47.691Z</time></trkpt><trkpt lat="39.2205873" lon="16.8589178"><ele>108.14285714285714</ele><time>2026-03-28T12:37:49.697Z</time></trkpt><trkpt lat="39.2205722" lon="16.859016"><ele>107.85714285714286</ele><time>2026-03-28T12:37:52.696Z</time></trkpt><trkpt lat="39.2205806" lon="16.8591181"><ele>107.57142857142857</ele><time>2026-03-28T12:37:55.698Z</time></trkpt><trkpt lat="39.2205726" lon="16.8592234"><ele>107.28571428571429</ele><time>2026-03-28T12:37:58.698Z</time></trkpt><trkpt lat="39.2205136" lon="16.8592639"><ele>107.0</ele><time>2026-03-28T12:38:01.701Z</time></trkpt><trkpt lat="39.2204271" lon="16.8592637"><ele>107.0</ele><time>2026-03-28T12:38:04.703Z</time></trkpt><trkpt lat="39.2203594" lon="16.8592526"><ele>106.99999999999999</ele><time>2026-03-28T12:38:06.703Z</time></trkpt><trkpt lat="39.2202758" lon="16.8592753"><ele>106.99999999999999</ele><time>2026-03-28T12:38:08.704Z</time></trkpt><trkpt lat="39.2201822" lon="16.8593308"><ele>107.0</ele><time>2026-03-28T12:38:10.706Z</time></trkpt><trkpt lat="39.2200843" lon="16.8594257"><ele>107.0</ele><time>2026-03-28T12:38:12.704Z</time></trkpt><trkpt lat="39.2199943" lon="16.8595202"><ele>106.8</ele><time>2026-03-28T12:38:14.699Z</time></trkpt><trkpt lat="39.2199125" lon="16.8596149"><ele>106.6</ele><time>2026-03-28T12:38:16.697Z</time></trkpt><trkpt lat="39.2198261" lon="16.8597038"><ele>106.39999999999999</ele><time>2026-03-28T12:38:18.707Z</time></trkpt><trkpt lat="39.2197486" lon="16.8597827"><ele>106.19999999999999</ele><time>2026-03-28T12:38:20.702Z</time></trkpt><trkpt lat="39.2196895" lon="16.8598667"><ele>106.0</ele><time>2026-03-28T12:38:22.702Z</time></trkpt><trkpt lat="39.2196104" lon="16.8599595"><ele>106.00000000000001</ele><time>2026-03-28T12:38:24.695Z</time></trkpt><trkpt lat="39.2195241" lon="16.8599697"><ele>106.0</ele><time>2026-03-28T12:38:26.707Z</time></trkpt><trkpt lat="39.2194358" lon="16.8599727"><ele>106.0</ele><time>2026-03-28T12:38:28.694Z</time></trkpt><trkpt lat="39.2193523" lon="16.8599854"><ele>106.0</ele><time>2026-03-28T12:38:30.7Z</time></trkpt><trkpt lat="39.2192634" lon="16.8600195"><ele>106.00000000000001</ele><time>2026-03-28T12:38:32.707Z</time></trkpt><trkpt lat="39.2191772" lon="16.860066"><ele>106.0</ele><time>2026-03-28T12:38:34.698Z</time></trkpt><trkpt lat="39.2190849" lon="16.8601065"><ele>106.00000000000001</ele><time>2026-03-28T12:38:36.698Z</time></trkpt><trkpt lat="39.2189781" lon="16.8601298"><ele>106.0</ele><time>2026-03-28T12:38:38.712Z</time></trkpt><trkpt lat="39.2189134" lon="16.8601482"><ele>106.0</ele><time>2026-03-28T12:38:39.697Z</time></trkpt><trkpt lat="39.2188438" lon="16.8601744"><ele>106.0</ele><time>2026-03-28T12:38:40.698Z</time></trkpt><trkpt lat="39.2187693" lon="16.860206"><ele>106.00000000000001</ele><time>2026-03-28T12:38:41.702Z</time></trkpt><trkpt lat="39.2186909" lon="16.8602399"><ele>106.0</ele><time>2026-03-28T12:38:42.705Z</time></trkpt><trkpt lat="39.2186016" lon="16.8602639"><ele>106.0</ele><time>2026-03-28T12:38:43.704Z</time></trkpt><trkpt lat="39.2185146" lon="16.8602744"><ele>106.0</ele><time>2026-03-28T12:38:44.698Z</time></trkpt><trkpt lat="39.2184379" lon="16.8602842"><ele>106.0</ele><time>2026-03-28T12:38:45.7Z</time></trkpt><trkpt lat="39.2183714" lon="16.8603022"><ele>106.0</ele><time>2026-03-28T12:38:46.699Z</time></trkpt><trkpt lat="39.2183114" lon="16.8603295"><ele>106.0</ele><time>2026-03-28T12:38:47.697Z</time></trkpt><trkpt lat="39.2182509" lon="16.8603651"><ele>106.0</ele><time>2026-03-28T12:38:48.703Z</time></trkpt><trkpt lat="39.218187" lon="16.8604034"><ele>106.0</ele><time>2026-03-28T12:38:49.706Z</time></trkpt><trkpt lat="39.2181231" lon="16.8604399"><ele>105.71428571428572</ele><time>2026-03-28T12:38:50.712Z</time></trkpt><trkpt lat="39.2180477" lon="16.8604406"><ele>105.42857142857142</ele><time>2026-03-28T12:38:51.701Z</time></trkpt><trkpt lat="39.2179767" lon="16.8604521"><ele>105.14285714285714</ele><time>2026-03-28T12:38:52.695Z</time></trkpt><trkpt lat="39.2179128" lon="16.8604746"><ele>104.85714285714286</ele><time>2026-03-28T12:38:53.705Z</time></trkpt><trkpt lat="39.2178504" lon="16.8604966"><ele>104.57142857142858</ele><time>2026-03-28T12:38:54.699Z</time></trkpt><trkpt lat="39.2177909" lon="16.8605283"><ele>104.28571428571428</ele><time>2026-03-28T12:38:55.699Z</time></trkpt><trkpt lat="39.2177301" lon="16.8605676"><ele>104.0</ele><time>2026-03-28T12:38:56.696Z</time></trkpt><trkpt lat="39.2176686" lon="16.8605942"><ele>104.0</ele><time>2026-03-28T12:38:57.704Z</time></trkpt><trkpt lat="39.2176065" lon="16.8606287"><ele>104.0</ele><time>2026-03-28T12:38:58.705Z</time></trkpt><trkpt lat="39.2175087" lon="16.8607073"><ele>104.0</ele><time>2026-03-28T12:39:00.693Z</time></trkpt><trkpt lat="39.217393" lon="16.8607838"><ele>104.0</ele><time>2026-03-28T12:39:02.712Z</time></trkpt><trkpt lat="39.2173245" lon="16.8608269"><ele>104.0</ele><time>2026-03-28T12:39:03.704Z</time></trkpt><trkpt lat="39.2172635" lon="16.8608649"><ele>103.83333333333333</ele><time>2026-03-28T12:39:04.701Z</time></trkpt><trkpt lat="39.217203" lon="16.8609052"><ele>103.66666666666666</ele><time>2026-03-28T12:39:05.701Z</time></trkpt><trkpt lat="39.2171355" lon="16.8609471"><ele>103.5</ele><time>2026-03-28T12:39:06.708Z</time></trkpt><trkpt lat="39.2170579" lon="16.8609856"><ele>103.33333333333334</ele><time>2026-03-28T12:39:07.699Z</time></trkpt><trkpt lat="39.2169796" lon="16.8610348"><ele>103.16666666666667</ele><time>2026-03-28T12:39:08.701Z</time></trkpt><trkpt lat="39.2168926" lon="16.8610981"><ele>103.0</ele><time>2026-03-28T12:39:09.692Z</time></trkpt><trkpt lat="39.2168018" lon="16.8611598"><ele>103.0</ele><time>2026-03-28T12:39:10.704Z</time></trkpt><trkpt lat="39.2167057" lon="16.8611801"><ele>103.0</ele><time>2026-03-28T12:39:11.709Z</time></trkpt><trkpt lat="39.2166072" lon="16.8612002"><ele>103.0</ele><time>2026-03-28T12:39:12.707Z</time></trkpt><trkpt lat="39.2164942" lon="16.8612232"><ele>103.0</ele><time>2026-03-28T12:39:13.694Z</time></trkpt><trkpt lat="39.2163424" lon="16.8612528"><ele>102.25</ele><time>2026-03-28T12:39:14.712Z</time></trkpt><trkpt lat="39.2161813" lon="16.8612895"><ele>101.5</ele><time>2026-03-28T12:39:15.695Z</time></trkpt><trkpt lat="39.2160394" lon="16.8613204"><ele>100.75</ele><time>2026-03-28T12:39:16.702Z</time></trkpt><trkpt lat="39.2159069" lon="16.8613522"><ele>100.0</ele><time>2026-03-28T12:39:17.697Z</time></trkpt><trkpt lat="39.2157886" lon="16.8613696"><ele>100.0</ele><time>2026-03-28T12:39:18.7Z</time></trkpt><trkpt lat="39.2156892" lon="16.8613819"><ele>100.0</ele><time>2026-03-28T12:39:19.695Z</time></trkpt><trkpt lat="39.215617" lon="16.8613897"><ele>100.0</ele><time>2026-03-28T12:39:20.694Z</time></trkpt><trkpt lat="39.215519" lon="16.861412"><ele>100.0</ele><time>2026-03-28T12:39:22.705Z</time></trkpt><trkpt lat="39.2154131" lon="16.861452"><ele>100.0</ele><time>2026-03-28T12:39:24.693Z</time></trkpt><trkpt lat="39.2153122" lon="16.8614378"><ele>100.2</ele><time>2026-03-28T12:39:26.702Z</time></trkpt><trkpt lat="39.2151814" lon="16.8614191"><ele>100.4</ele><time>2026-03-28T12:39:28.69Z</time></trkpt><trkpt lat="39.2151177" lon="16.8614795"><ele>100.6</ele><time>2026-03-28T12:39:29.698Z</time></trkpt><trkpt lat="39.215067" lon="16.8615404"><ele>100.8</ele><time>2026-03-28T12:39:30.701Z</time></trkpt><trkpt lat="39.2149984" lon="16.8616247"><ele>101.0</ele><time>2026-03-28T12:39:32.717Z</time></trkpt><trkpt lat="39.214943" lon="16.8616917"><ele>100.99999999999999</ele><time>2026-03-28T12:39:35.706Z</time></trkpt><trkpt lat="39.2148975" lon="16.8617654"><ele>101.0</ele><time>2026-03-28T12:39:42.706Z</time></trkpt><trkpt lat="39.2148536" lon="16.8618522"><ele>101.0</ele><time>2026-03-28T12:39:51.704Z</time></trkpt><trkpt lat="39.2147948" lon="16.8619196"><ele>101.0</ele><time>2026-03-28T12:39:55.698Z</time></trkpt><trkpt lat="39.2147634" lon="16.8620269"><ele>100.99999999999999</ele><time>2026-03-28T12:39:59.694Z</time></trkpt><trkpt lat="39.2147554" lon="16.8621311"><ele>101.0</ele><time>2026-03-28T12:40:01.697Z</time></trkpt><trkpt lat="39.2147241" lon="16.862245"><ele>100.99999999999999</ele><time>2026-03-28T12:40:03.696Z</time></trkpt><trkpt lat="39.2146783" lon="16.8623318"><ele>101.0</ele><time>2026-03-28T12:40:05.703Z</time></trkpt><trkpt lat="39.2146213" lon="16.8624051"><ele>101.0</ele><time>2026-03-28T12:40:08.702Z</time></trkpt><trkpt lat="39.2145553" lon="16.8624416"><ele>101.0</ele><time>2026-03-28T12:40:11.707Z</time></trkpt><trkpt lat="39.2144928" lon="16.8624849"><ele>100.99999999999999</ele><time>2026-03-28T12:40:14.701Z</time></trkpt><trkpt lat="39.2144302" lon="16.8625376"><ele>101.0</ele><time>2026-03-28T12:40:18.699Z</time></trkpt><trkpt lat="39.2143932" lon="16.8626188"><ele>100.49999999999999</ele><time>2026-03-28T12:40:39.701Z</time></trkpt><trkpt lat="39.2143549" lon="16.8627097"><ele>100.0</ele><time>2026-03-28T12:40:48.706Z</time></trkpt><trkpt lat="39.2143136" lon="16.862779"><ele>99.5</ele><time>2026-03-28T12:40:50.699Z</time></trkpt><trkpt lat="39.214258" lon="16.8628623"><ele>99.0</ele><time>2026-03-28T12:40:52.708Z</time></trkpt><trkpt lat="39.2142299" lon="16.8629618"><ele>98.49999999999999</ele><time>2026-03-28T12:40:54.71Z</time></trkpt><trkpt lat="39.2141673" lon="16.8630644"><ele>98.0</ele><time>2026-03-28T12:40:56.69Z</time></trkpt><trkpt lat="39.2141082" lon="16.8631853"><ele>98.0</ele><time>2026-03-28T12:40:58.699Z</time></trkpt><trkpt lat="39.2140334" lon="16.8632312"><ele>98.0</ele><time>2026-03-28T12:41:00.693Z</time></trkpt><trkpt lat="39.2139698" lon="16.8631664"><ele>98.0</ele><time>2026-03-28T12:41:03.693Z</time></trkpt><trkpt lat="39.2139204" lon="16.8631092"><ele>98.0</ele><time>2026-03-28T12:41:07.698Z</time></trkpt><trkpt lat="39.2138552" lon="16.8630966"><ele>98.0</ele><time>2026-03-28T12:41:14.7Z</time></trkpt><trkpt lat="39.2137763" lon="16.8630964"><ele>98.0</ele><time>2026-03-28T12:41:18.702Z</time></trkpt><trkpt lat="39.2137145" lon="16.8631493"><ele>98.0</ele><time>2026-03-28T12:41:20.694Z</time></trkpt><trkpt lat="39.2136604" lon="16.8631994"><ele>97.99999999999999</ele><time>2026-03-28T12:41:22.704Z</time></trkpt><trkpt lat="39.213575" lon="16.863177"><ele>98.0</ele><time>2026-03-28T12:41:25.693Z</time></trkpt><trkpt lat="39.213515" lon="16.8632088"><ele>98.0</ele><time>2026-03-28T12:41:27.695Z</time></trkpt><trkpt lat="39.2134483" lon="16.8632952"><ele>98.0</ele><time>2026-03-28T12:41:29.703Z</time></trkpt><trkpt lat="39.2133915" lon="16.8633834"><ele>97.99999999999999</ele><time>2026-03-28T12:41:31.701Z</time></trkpt><trkpt lat="39.2133241" lon="16.8634446"><ele>98.0</ele><time>2026-03-28T12:41:33.722Z</time></trkpt><trkpt lat="39.2132529" lon="16.8635232"><ele>98.0</ele><time>2026-03-28T12:41:35.71Z</time></trkpt><trkpt lat="39.2132089" lon="16.863619"><ele>98.0</ele><time>2026-03-28T12:41:37.701Z</time></trkpt><trkpt lat="39.2132028" lon="16.8637272"><ele>98.0</ele><time>2026-03-28T12:41:39.704Z</time></trkpt><trkpt lat="39.2131967" lon="16.8638152"><ele>98.0</ele><time>2026-03-28T12:41:41.699Z</time></trkpt><trkpt lat="39.2131678" lon="16.8639279"><ele>98.0</ele><time>2026-03-28T12:41:43.698Z</time></trkpt><trkpt lat="39.2131104" lon="16.8640676"><ele>97.99999999999999</ele><time>2026-03-28T12:41:45.699Z</time></trkpt><trkpt lat="39.2130806" lon="16.864141"><ele>98.0</ele><time>2026-03-28T12:41:46.703Z</time></trkpt><trkpt lat="39.2130259" lon="16.8642871"><ele>98.0</ele><time>2026-03-28T12:41:48.702Z</time></trkpt><trkpt lat="39.2129964" lon="16.8643628"><ele>98.0</ele><time>2026-03-28T12:41:49.701Z</time></trkpt><trkpt lat="39.2129602" lon="16.8644346"><ele>97.99999999999999</ele><time>2026-03-28T12:41:50.696Z</time></trkpt><trkpt lat="39.2129197" lon="16.8645069"><ele>98.0</ele><time>2026-03-28T12:41:51.698Z</time></trkpt><trkpt lat="39.2128782" lon="16.8645784"><ele>97.99999999999999</ele><time>2026-03-28T12:41:52.694Z</time></trkpt><trkpt lat="39.2128374" lon="16.8646475"><ele>98.0</ele><time>2026-03-28T12:41:53.695Z</time></trkpt><trkpt lat="39.2127817" lon="16.8646957"><ele>98.0</ele><time>2026-03-28T12:41:54.695Z</time></trkpt><trkpt lat="39.2127191" lon="16.8647372"><ele>98.0</ele><time>2026-03-28T12:41:55.699Z</time></trkpt><trkpt lat="39.2126644" lon="16.8647799"><ele>97.99999999999999</ele><time>2026-03-28T12:41:56.714Z</time></trkpt><trkpt lat="39.2125804" lon="16.8648582"><ele>98.0</ele><time>2026-03-28T12:41:58.696Z</time></trkpt><trkpt lat="39.2125" lon="16.864907"><ele>98.0</ele><time>2026-03-28T12:42:00.699Z</time></trkpt><trkpt lat="39.2123866" lon="16.8649419"><ele>98.0</ele><time>2026-03-28T12:42:02.698Z</time></trkpt><trkpt lat="39.2122934" lon="16.865035"><ele>98.0</ele><time>2026-03-28T12:42:04.698Z</time></trkpt><trkpt lat="39.2122391" lon="16.8651199"><ele>98.0</ele><time>2026-03-28T12:42:06.7Z</time></trkpt><trkpt lat="39.2121713" lon="16.8651721"><ele>98.0</ele><time>2026-03-28T12:42:08.703Z</time></trkpt><trkpt lat="39.2121384" lon="16.8652683"><ele>97.99999999999999</ele><time>2026-03-28T12:42:10.697Z</time></trkpt><trkpt lat="39.2121639" lon="16.8653802"><ele>98.0</ele><time>2026-03-28T12:42:12.698Z</time></trkpt><trkpt lat="39.2121769" lon="16.8654638"><ele>98.0</ele><time>2026-03-28T12:42:15.697Z</time></trkpt><trkpt lat="39.2121837" lon="16.8655583"><ele>98.0</ele><time>2026-03-28T12:42:18.696Z</time></trkpt><trkpt lat="39.2121481" lon="16.8657041"><ele>97.99999999999999</ele><time>2026-03-28T12:42:20.707Z</time></trkpt><trkpt lat="39.2121084" lon="16.8657746"><ele>98.0</ele><time>2026-03-28T12:42:21.703Z</time></trkpt><trkpt lat="39.2120581" lon="16.865827"><ele>98.0</ele><time>2026-03-28T12:42:22.702Z</time></trkpt><trkpt lat="39.2119919" lon="16.8658711"><ele>98.0</ele><time>2026-03-28T12:42:23.699Z</time></trkpt><trkpt lat="39.2119172" lon="16.8659173"><ele>98.0</ele><time>2026-03-28T12:42:24.704Z</time></trkpt><trkpt lat="39.2118613" lon="16.8659652"><ele>98.0</ele><time>2026-03-28T12:42:25.703Z</time></trkpt><trkpt lat="39.2118064" lon="16.8660874"><ele>98.0</ele><time>2026-03-28T12:42:27.696Z</time></trkpt><trkpt lat="39.2118268" lon="16.8662458"><ele>97.83333333333333</ele><time>2026-03-28T12:42:29.699Z</time></trkpt><trkpt lat="39.21188" lon="16.8663502"><ele>97.66666666666666</ele><time>2026-03-28T12:42:31.705Z</time></trkpt><trkpt lat="39.2119127" lon="16.8664476"><ele>97.5</ele><time>2026-03-28T12:42:33.711Z</time></trkpt><trkpt lat="39.2119264" lon="16.8665847"><ele>97.33333333333334</ele><time>2026-03-28T12:42:35.698Z</time></trkpt><trkpt lat="39.2119259" lon="16.8666867"><ele>97.16666666666667</ele><time>2026-03-28T12:42:37.705Z</time></trkpt><trkpt lat="39.2119313" lon="16.8667686"><ele>97.0</ele><time>2026-03-28T12:42:39.696Z</time></trkpt><trkpt lat="39.2119458" lon="16.8668744"><ele>97.0</ele><time>2026-03-28T12:42:42.697Z</time></trkpt><trkpt lat="39.2119574" lon="16.866966"><ele>97.0</ele><time>2026-03-28T12:42:46.701Z</time></trkpt><trkpt lat="39.2119341" lon="16.8670588"><ele>97.0</ele><time>2026-03-28T12:42:59.699Z</time></trkpt><trkpt lat="39.2118833" lon="16.8671365"><ele>97.0</ele><time>2026-03-28T12:43:02.704Z</time></trkpt><trkpt lat="39.2118428" lon="16.8672045"><ele>97.0</ele><time>2026-03-28T12:43:05.702Z</time></trkpt><trkpt lat="39.2118029" lon="16.8672737"><ele>97.0</ele><time>2026-03-28T12:43:08.7Z</time></trkpt><trkpt lat="39.2117545" lon="16.8673414"><ele>97.0</ele><time>2026-03-28T12:43:11.697Z</time></trkpt><trkpt lat="39.2117082" lon="16.8674052"><ele>97.0</ele><time>2026-03-28T12:43:13.7Z</time></trkpt><trkpt lat="39.2116701" lon="16.8674804"><ele>97.0</ele><time>2026-03-28T12:43:15.699Z</time></trkpt><trkpt lat="39.2116401" lon="16.8675854"><ele>97.0</ele><time>2026-03-28T12:43:18.694Z</time></trkpt><trkpt lat="39.2116085" lon="16.8676655"><ele>97.0</ele><time>2026-03-28T12:43:20.694Z</time></trkpt><trkpt lat="39.2115707" lon="16.8677466"><ele>97.0</ele><time>2026-03-28T12:43:23.699Z</time></trkpt><trkpt lat="39.2115633" lon="16.8678382"><ele>97.0</ele><time>2026-03-28T12:43:39.698Z</time></trkpt><trkpt lat="39.2115804" lon="16.8679251"><ele>97.0</ele><time>2026-03-28T12:43:42.708Z</time></trkpt><trkpt lat="39.2116141" lon="16.8680044"><ele>97.33333333333334</ele><time>2026-03-28T12:43:48.704Z</time></trkpt><trkpt lat="39.2116526" lon="16.8680815"><ele>97.66666666666667</ele><time>2026-03-28T12:43:51.694Z</time></trkpt><trkpt lat="39.2116881" lon="16.868176"><ele>98.0</ele><time>2026-03-28T12:43:54.715Z</time></trkpt><trkpt lat="39.2117304" lon="16.8682764"><ele>98.33333333333334</ele><time>2026-03-28T12:43:57.695Z</time></trkpt><trkpt lat="39.2117633" lon="16.8683478"><ele>98.66666666666667</ele><time>2026-03-28T12:43:59.698Z</time></trkpt><trkpt lat="39.2118013" lon="16.8684141"><ele>99.0</ele><time>2026-03-28T12:44:01.706Z</time></trkpt><trkpt lat="39.2118546" lon="16.868505"><ele>100.42857142857143</ele><time>2026-03-28T12:44:04.695Z</time></trkpt><trkpt lat="39.2119014" lon="16.8685609"><ele>101.85714285714285</ele><time>2026-03-28T12:44:06.703Z</time></trkpt><trkpt lat="39.2119257" lon="16.8686752"><ele>103.28571428571428</ele><time>2026-03-28T12:44:09.697Z</time></trkpt><trkpt lat="39.211955" lon="16.8687579"><ele>104.71428571428572</ele><time>2026-03-28T12:44:11.711Z</time></trkpt><trkpt lat="39.2119834" lon="16.8688351"><ele>106.14285714285714</ele><time>2026-03-28T12:44:13.702Z</time></trkpt><trkpt lat="39.212011" lon="16.8689203"><ele>107.57142857142857</ele><time>2026-03-28T12:44:15.703Z</time></trkpt><trkpt lat="39.2120419" lon="16.8690113"><ele>109.0</ele><time>2026-03-28T12:44:17.694Z</time></trkpt><trkpt lat="39.2120666" lon="16.8690953"><ele>109.00000000000001</ele><time>2026-03-28T12:44:19.693Z</time></trkpt><trkpt lat="39.2120785" lon="16.8691861"><ele>109.0</ele><time>2026-03-28T12:44:21.7Z</time></trkpt><trkpt lat="39.2120899" lon="16.869281"><ele>109.0</ele><time>2026-03-28T12:44:23.7Z</time></trkpt><trkpt lat="39.2121025" lon="16.8693771"><ele>109.0</ele><time>2026-03-28T12:44:25.701Z</time></trkpt><trkpt lat="39.2121142" lon="16.8694765"><ele>109.00000000000001</ele><time>2026-03-28T12:44:27.7Z</time></trkpt><trkpt lat="39.2121263" lon="16.8695794"><ele>109.0</ele><time>2026-03-28T12:44:29.705Z</time></trkpt><trkpt lat="39.2121439" lon="16.8696856"><ele>111.16666666666667</ele><time>2026-03-28T12:44:31.694Z</time></trkpt><trkpt lat="39.2121605" lon="16.8697991"><ele>113.33333333333334</ele><time>2026-03-28T12:44:33.699Z</time></trkpt><trkpt lat="39.212188" lon="16.8699078"><ele>115.5</ele><time>2026-03-28T12:44:35.703Z</time></trkpt><trkpt lat="39.212224" lon="16.870004"><ele>117.66666666666666</ele><time>2026-03-28T12:44:37.706Z</time></trkpt><trkpt lat="39.2122565" lon="16.8700949"><ele>119.83333333333333</ele><time>2026-03-28T12:44:39.696Z</time></trkpt><trkpt lat="39.2122824" lon="16.8701718"><ele>122.0</ele><time>2026-03-28T12:44:41.704Z</time></trkpt><trkpt lat="39.2123036" lon="16.8702656"><ele>123.16666666666666</ele><time>2026-03-28T12:44:43.7Z</time></trkpt><trkpt lat="39.2123459" lon="16.8703981"><ele>124.33333333333333</ele><time>2026-03-28T12:44:45.699Z</time></trkpt><trkpt lat="39.2123674" lon="16.8704883"><ele>125.5</ele><time>2026-03-28T12:44:47.696Z</time></trkpt><trkpt lat="39.2123575" lon="16.8705707"><ele>126.66666666666666</ele><time>2026-03-28T12:44:51.695Z</time></trkpt><trkpt lat="39.2123449" lon="16.8706591"><ele>127.83333333333333</ele><time>2026-03-28T12:45:53.697Z</time></trkpt><trkpt lat="39.2123215" lon="16.8707704"><ele>129.0</ele><time>2026-03-28T12:45:55.707Z</time></trkpt><trkpt lat="39.2123186" lon="16.8708777"><ele>127.2</ele><time>2026-03-28T12:45:57.691Z</time></trkpt><trkpt lat="39.2123245" lon="16.8709806"><ele>125.4</ele><time>2026-03-28T12:45:59.699Z</time></trkpt><trkpt lat="39.2123473" lon="16.8710888"><ele>123.6</ele><time>2026-03-28T12:46:01.699Z</time></trkpt><trkpt lat="39.2123957" lon="16.8711947"><ele>121.8</ele><time>2026-03-28T12:46:03.704Z</time></trkpt><trkpt lat="39.2124865" lon="16.8712887"><ele>120.0</ele><time>2026-03-28T12:46:05.692Z</time></trkpt><trkpt lat="39.2126" lon="16.8713598"><ele>120.0</ele><time>2026-03-28T12:46:07.699Z</time></trkpt><trkpt lat="39.2127031" lon="16.8714347"><ele>120.0</ele><time>2026-03-28T12:46:09.693Z</time></trkpt><trkpt lat="39.2128015" lon="16.8715056"><ele>120.0</ele><time>2026-03-28T12:46:11.7Z</time></trkpt><trkpt lat="39.212898" lon="16.8715824"><ele>120.0</ele><time>2026-03-28T12:46:13.691Z</time></trkpt><trkpt lat="39.212985" lon="16.8716661"><ele>121.5</ele><time>2026-03-28T12:46:15.697Z</time></trkpt><trkpt lat="39.2130535" lon="16.8717921"><ele>123.0</ele><time>2026-03-28T12:46:17.698Z</time></trkpt><trkpt lat="39.2130958" lon="16.8719377"><ele>124.5</ele><time>2026-03-28T12:46:19.695Z</time></trkpt><trkpt lat="39.2131343" lon="16.872079"><ele>126.0</ele><time>2026-03-28T12:46:21.697Z</time></trkpt><trkpt lat="39.2131754" lon="16.8722562"><ele>123.4</ele><time>2026-03-28T12:46:23.695Z</time></trkpt><trkpt lat="39.213202" lon="16.8723778"><ele>120.8</ele><time>2026-03-28T12:46:24.69Z</time></trkpt><trkpt lat="39.2132304" lon="16.8725133"><ele>118.20000000000002</ele><time>2026-03-28T12:46:25.701Z</time></trkpt><trkpt lat="39.213257" lon="16.872664"><ele>115.60000000000001</ele><time>2026-03-28T12:46:26.704Z</time></trkpt><trkpt lat="39.2132753" lon="16.8728082"><ele>113.0</ele><time>2026-03-28T12:46:27.698Z</time></trkpt><trkpt lat="39.2132866" lon="16.8729431"><ele>112.99999999999999</ele><time>2026-03-28T12:46:28.705Z</time></trkpt><trkpt lat="39.2132917" lon="16.8730658"><ele>113.0</ele><time>2026-03-28T12:46:29.716Z</time></trkpt><trkpt lat="39.2132933" lon="16.8731826"><ele>113.0</ele><time>2026-03-28T12:46:30.71Z</time></trkpt><trkpt lat="39.2132922" lon="16.8732849"><ele>113.0</ele><time>2026-03-28T12:46:31.692Z</time></trkpt><trkpt lat="39.2132927" lon="16.8734142"><ele>112.99999999999999</ele><time>2026-03-28T12:46:33.702Z</time></trkpt><trkpt lat="39.2133431" lon="16.8734968"><ele>113.0</ele><time>2026-03-28T12:46:35.708Z</time></trkpt><trkpt lat="39.2134443" lon="16.8736285"><ele>113.4</ele><time>2026-03-28T12:46:37.697Z</time></trkpt><trkpt lat="39.2135194" lon="16.8737278"><ele>113.80000000000001</ele><time>2026-03-28T12:46:38.694Z</time></trkpt><trkpt lat="39.213594" lon="16.8738264"><ele>114.2</ele><time>2026-03-28T12:46:39.696Z</time></trkpt><trkpt lat="39.2136681" lon="16.8739225"><ele>114.6</ele><time>2026-03-28T12:46:40.702Z</time></trkpt><trkpt lat="39.2137387" lon="16.8740221"><ele>115.0</ele><time>2026-03-28T12:46:41.697Z</time></trkpt><trkpt lat="39.2138099" lon="16.8741225"><ele>115.0</ele><time>2026-03-28T12:46:42.703Z</time></trkpt><trkpt lat="39.2138776" lon="16.8742372"><ele>115.0</ele><time>2026-03-28T12:46:43.697Z</time></trkpt><trkpt lat="39.2139401" lon="16.87436"><ele>115.0</ele><time>2026-03-28T12:46:44.693Z</time></trkpt><trkpt lat="39.2140079" lon="16.8744993"><ele>115.0</ele><time>2026-03-28T12:46:45.701Z</time></trkpt><trkpt lat="39.2140771" lon="16.8746472"><ele>115.75</ele><time>2026-03-28T12:46:46.696Z</time></trkpt><trkpt lat="39.2141409" lon="16.8747869"><ele>116.5</ele><time>2026-03-28T12:46:47.693Z</time></trkpt><trkpt lat="39.2141953" lon="16.8749116"><ele>117.25</ele><time>2026-03-28T12:46:48.704Z</time></trkpt><trkpt lat="39.2142455" lon="16.8750342"><ele>118.0</ele><time>2026-03-28T12:46:49.697Z</time></trkpt><trkpt lat="39.2142912" lon="16.8751615"><ele>119.0</ele><time>2026-03-28T12:46:50.694Z</time></trkpt><trkpt lat="39.2143402" lon="16.8752888"><ele>120.00000000000001</ele><time>2026-03-28T12:46:51.698Z</time></trkpt><trkpt lat="39.2143931" lon="16.8754139"><ele>121.00000000000001</ele><time>2026-03-28T12:46:52.703Z</time></trkpt><trkpt lat="39.2144466" lon="16.8755397"><ele>122.0</ele><time>2026-03-28T12:46:53.707Z</time></trkpt><trkpt lat="39.214502" lon="16.8756617"><ele>123.0</ele><time>2026-03-28T12:46:54.702Z</time></trkpt><trkpt lat="39.2145514" lon="16.8757758"><ele>123.0</ele><time>2026-03-28T12:46:55.699Z</time></trkpt><trkpt lat="39.214601" lon="16.8758941"><ele>123.0</ele><time>2026-03-28T12:46:56.698Z</time></trkpt><trkpt lat="39.2146261" lon="16.8760527"><ele>123.0</ele><time>2026-03-28T12:46:57.698Z</time></trkpt><trkpt lat="39.2146424" lon="16.876214"><ele>123.0</ele><time>2026-03-28T12:46:58.698Z</time></trkpt><trkpt lat="39.2146599" lon="16.8763643"><ele>124.4</ele><time>2026-03-28T12:46:59.695Z</time></trkpt><trkpt lat="39.2146797" lon="16.8765072"><ele>125.80000000000001</ele><time>2026-03-28T12:47:00.694Z</time></trkpt><trkpt lat="39.2147012" lon="16.8766445"><ele>127.2</ele><time>2026-03-28T12:47:01.698Z</time></trkpt><trkpt lat="39.2147192" lon="16.8767785"><ele>128.6</ele><time>2026-03-28T12:47:02.701Z</time></trkpt><trkpt lat="39.2147209" lon="16.8768971"><ele>130.0</ele><time>2026-03-28T12:47:03.696Z</time></trkpt><trkpt lat="39.2147212" lon="16.8770115"><ele>131.2</ele><time>2026-03-28T12:47:04.7Z</time></trkpt><trkpt lat="39.2147039" lon="16.8771315"><ele>132.4</ele><time>2026-03-28T12:47:05.705Z</time></trkpt><trkpt lat="39.2146874" lon="16.8772539"><ele>133.6</ele><time>2026-03-28T12:47:06.7Z</time></trkpt><trkpt lat="39.2147099" lon="16.8773875"><ele>134.8</ele><time>2026-03-28T12:47:07.695Z</time></trkpt><trkpt lat="39.2147345" lon="16.8775183"><ele>136.0</ele><time>2026-03-28T12:47:08.706Z</time></trkpt><trkpt lat="39.2148062" lon="16.877625"><ele>137.66666666666669</ele><time>2026-03-28T12:47:09.694Z</time></trkpt><trkpt lat="39.2148924" lon="16.8777022"><ele>139.33333333333334</ele><time>2026-03-28T12:47:10.695Z</time></trkpt><trkpt lat="39.2149762" lon="16.8777676"><ele>141.0</ele><time>2026-03-28T12:47:11.696Z</time></trkpt><trkpt lat="39.2150405" lon="16.8778426"><ele>142.66666666666666</ele><time>2026-03-28T12:47:12.713Z</time></trkpt><trkpt lat="39.2150794" lon="16.8779297"><ele>144.33333333333331</ele><time>2026-03-28T12:47:13.694Z</time></trkpt><trkpt lat="39.2150882" lon="16.8780236"><ele>146.0</ele><time>2026-03-28T12:47:14.696Z</time></trkpt><trkpt lat="39.2150749" lon="16.8781257"><ele>146.0</ele><time>2026-03-28T12:47:15.698Z</time></trkpt><trkpt lat="39.2150453" lon="16.8782294"><ele>146.0</ele><time>2026-03-28T12:47:16.702Z</time></trkpt><trkpt lat="39.2150014" lon="16.8783316"><ele>146.0</ele><time>2026-03-28T12:47:17.702Z</time></trkpt><trkpt lat="39.2149422" lon="16.8784389"><ele>146.0</ele><time>2026-03-28T12:47:18.7Z</time></trkpt><trkpt lat="39.2148741" lon="16.878555"><ele>146.0</ele><time>2026-03-28T12:47:19.696Z</time></trkpt><trkpt lat="39.2148034" lon="16.8786825"><ele>149.25</ele><time>2026-03-28T12:47:20.699Z</time></trkpt><trkpt lat="39.2147315" lon="16.8788176"><ele>152.5</ele><time>2026-03-28T12:47:21.699Z</time></trkpt><trkpt lat="39.21466" lon="16.8789593"><ele>155.75</ele><time>2026-03-28T12:47:22.705Z</time></trkpt><trkpt lat="39.2145866" lon="16.8791041"><ele>159.0</ele><time>2026-03-28T12:47:23.701Z</time></trkpt><trkpt lat="39.2145248" lon="16.8792389"><ele>162.4</ele><time>2026-03-28T12:47:24.702Z</time></trkpt><trkpt lat="39.2144913" lon="16.8793693"><ele>165.8</ele><time>2026-03-28T12:47:25.694Z</time></trkpt><trkpt lat="39.2144831" lon="16.8795033"><ele>169.20000000000002</ele><time>2026-03-28T12:47:26.698Z</time></trkpt><trkpt lat="39.2144808" lon="16.8796154"><ele>172.60000000000002</ele><time>2026-03-28T12:47:27.72Z</time></trkpt><trkpt lat="39.2144287" lon="16.8797282"><ele>176.0</ele><time>2026-03-28T12:47:29.691Z</time></trkpt><trkpt lat="39.2143449" lon="16.8795805"><ele>176.0</ele><time>2026-03-28T12:47:31.698Z</time></trkpt><trkpt lat="39.214295" lon="16.8794861"><ele>176.0</ele><time>2026-03-28T12:47:32.694Z</time></trkpt><trkpt lat="39.2142173" lon="16.8794118"><ele>176.0</ele><time>2026-03-28T12:47:33.701Z</time></trkpt><trkpt lat="39.2141248" lon="16.8793977"><ele>176.0</ele><time>2026-03-28T12:47:34.702Z</time></trkpt><trkpt lat="39.2140351" lon="16.879493"><ele>176.0</ele><time>2026-03-28T12:47:35.696Z</time></trkpt><trkpt lat="39.2139611" lon="16.8795948"><ele>177.0</ele><time>2026-03-28T12:47:36.692Z</time></trkpt><trkpt lat="39.2139052" lon="16.8797355"><ele>178.0</ele><time>2026-03-28T12:47:37.693Z</time></trkpt><trkpt lat="39.2138616" lon="16.8798598"><ele>179.0</ele><time>2026-03-28T12:47:38.703Z</time></trkpt><trkpt lat="39.2138005" lon="16.8799939"><ele>180.0</ele><time>2026-03-28T12:47:39.7Z</time></trkpt><trkpt lat="39.2137387" lon="16.8801223"><ele>182.0</ele><time>2026-03-28T12:47:40.693Z</time></trkpt><trkpt lat="39.2137039" lon="16.8802448"><ele>184.0</ele><time>2026-03-28T12:47:41.697Z</time></trkpt><trkpt lat="39.2137055" lon="16.8803674"><ele>186.0</ele><time>2026-03-28T12:47:42.704Z</time></trkpt><trkpt lat="39.2137345" lon="16.8804758"><ele>188.0</ele><time>2026-03-28T12:47:43.698Z</time></trkpt><trkpt lat="39.2137576" lon="16.8805742"><ele>190.0</ele><time>2026-03-28T12:47:44.692Z</time></trkpt><trkpt lat="39.2137485" lon="16.8806701"><ele>192.0</ele><time>2026-03-28T12:47:45.695Z</time></trkpt><trkpt lat="39.2136947" lon="16.8807828"><ele>192.0</ele><time>2026-03-28T12:47:46.711Z</time></trkpt><trkpt lat="39.2136495" lon="16.8809007"><ele>192.0</ele><time>2026-03-28T12:47:47.693Z</time></trkpt><trkpt lat="39.2136071" lon="16.8810211"><ele>192.0</ele><time>2026-03-28T12:47:48.699Z</time></trkpt><trkpt lat="39.2135637" lon="16.8811376"><ele>192.0</ele><time>2026-03-28T12:47:49.698Z</time></trkpt><trkpt lat="39.2135234" lon="16.8812628"><ele>192.0</ele><time>2026-03-28T12:47:50.704Z</time></trkpt><trkpt lat="39.213481" lon="16.8813873"><ele>193.6</ele><time>2026-03-28T12:47:51.696Z</time></trkpt><trkpt lat="39.2134392" lon="16.8815177"><ele>195.2</ele><time>2026-03-28T12:47:52.693Z</time></trkpt><trkpt lat="39.2133977" lon="16.8816485"><ele>196.8</ele><time>2026-03-28T12:47:53.694Z</time></trkpt><trkpt lat="39.2133645" lon="16.8817685"><ele>198.4</ele><time>2026-03-28T12:47:54.704Z</time></trkpt><trkpt lat="39.2133517" lon="16.8818848"><ele>200.0</ele><time>2026-03-28T12:47:55.701Z</time></trkpt><trkpt lat="39.2133733" lon="16.8819976"><ele>203.25</ele><time>2026-03-28T12:47:56.7Z</time></trkpt><trkpt lat="39.2134291" lon="16.8820967"><ele>206.5</ele><time>2026-03-28T12:47:57.707Z</time></trkpt><trkpt lat="39.213518" lon="16.8822002"><ele>209.75</ele><time>2026-03-28T12:47:58.694Z</time></trkpt><trkpt lat="39.2136343" lon="16.8823232"><ele>213.0</ele><time>2026-03-28T12:47:59.687Z</time></trkpt><trkpt lat="39.2137612" lon="16.8824604"><ele>213.0</ele><time>2026-03-28T12:48:00.696Z</time></trkpt><trkpt lat="39.2138678" lon="16.8825767"><ele>213.0</ele><time>2026-03-28T12:48:01.696Z</time></trkpt><trkpt lat="39.2139313" lon="16.8826592"><ele>213.0</ele><time>2026-03-28T12:48:02.698Z</time></trkpt><trkpt lat="39.2139513" lon="16.8827891"><ele>213.0</ele><time>2026-03-28T12:48:04.704Z</time></trkpt><trkpt lat="39.2138887" lon="16.8828089"><ele>213.0</ele><time>2026-03-28T12:48:05.698Z</time></trkpt><trkpt lat="39.2138064" lon="16.8828036"><ele>218.0</ele><time>2026-03-28T12:48:06.704Z</time></trkpt><trkpt lat="39.2136951" lon="16.8827879"><ele>223.0</ele><time>2026-03-28T12:48:07.691Z</time></trkpt><trkpt lat="39.2135505" lon="16.8827618"><ele>228.0</ele><time>2026-03-28T12:48:08.717Z</time></trkpt><trkpt lat="39.2133826" lon="16.8827437"><ele>233.0</ele><time>2026-03-28T12:48:09.701Z</time></trkpt><trkpt lat="39.2132278" lon="16.8827275"><ele>234.4</ele><time>2026-03-28T12:48:10.69Z</time></trkpt><trkpt lat="39.2130825" lon="16.8827081"><ele>235.8</ele><time>2026-03-28T12:48:11.702Z</time></trkpt><trkpt lat="39.2129931" lon="16.8827179"><ele>237.2</ele><time>2026-03-28T12:48:12.695Z</time></trkpt><trkpt lat="39.2129133" lon="16.8828196"><ele>238.6</ele><time>2026-03-28T12:48:14.7Z</time></trkpt><trkpt lat="39.2129788" lon="16.8828873"><ele>240.0</ele><time>2026-03-28T12:48:15.697Z</time></trkpt><trkpt lat="39.2130874" lon="16.8829716"><ele>238.25</ele><time>2026-03-28T12:48:16.689Z</time></trkpt><trkpt lat="39.2132101" lon="16.8830703"><ele>236.5</ele><time>2026-03-28T12:48:17.698Z</time></trkpt><trkpt lat="39.2133395" lon="16.8831771"><ele>234.75</ele><time>2026-03-28T12:48:18.698Z</time></trkpt><trkpt lat="39.213444" lon="16.8832594"><ele>233.0</ele><time>2026-03-28T12:48:19.699Z</time></trkpt><trkpt lat="39.213531" lon="16.883325"><ele>233.00000000000003</ele><time>2026-03-28T12:48:20.693Z</time></trkpt><trkpt lat="39.2136012" lon="16.8833764"><ele>233.0</ele><time>2026-03-28T12:48:21.699Z</time></trkpt><trkpt lat="39.2136566" lon="16.883466"><ele>233.0</ele><time>2026-03-28T12:48:23.706Z</time></trkpt><trkpt lat="39.2135931" lon="16.8834717"><ele>233.0</ele><time>2026-03-28T12:48:24.693Z</time></trkpt><trkpt lat="39.2135214" lon="16.8834559"><ele>233.00000000000003</ele><time>2026-03-28T12:48:25.698Z</time></trkpt><trkpt lat="39.2134174" lon="16.88341"><ele>233.0</ele><time>2026-03-28T12:48:26.689Z</time></trkpt><trkpt lat="39.213277" lon="16.8833586"><ele>235.33333333333334</ele><time>2026-03-28T12:48:27.697Z</time></trkpt><trkpt lat="39.2131143" lon="16.8833018"><ele>237.66666666666669</ele><time>2026-03-28T12:48:28.696Z</time></trkpt><trkpt lat="39.2129543" lon="16.8832444"><ele>240.0</ele><time>2026-03-28T12:48:29.699Z</time></trkpt><trkpt lat="39.2128076" lon="16.8831913"><ele>240.0</ele><time>2026-03-28T12:48:30.695Z</time></trkpt><trkpt lat="39.2126802" lon="16.8831497"><ele>240.0</ele><time>2026-03-28T12:48:31.698Z</time></trkpt><trkpt lat="39.2125954" lon="16.8831301"><ele>240.0</ele><time>2026-03-28T12:48:32.692Z</time></trkpt><trkpt lat="39.2125357" lon="16.8831569"><ele>240.0</ele><time>2026-03-28T12:48:33.698Z</time></trkpt><trkpt lat="39.212517" lon="16.8832625"><ele>240.0</ele><time>2026-03-28T12:48:35.693Z</time></trkpt><trkpt lat="39.2125576" lon="16.8833425"><ele>240.0</ele><time>2026-03-28T12:48:36.703Z</time></trkpt><trkpt lat="39.2126179" lon="16.8834441"><ele>241.5</ele><time>2026-03-28T12:48:37.692Z</time></trkpt><trkpt lat="39.2126876" lon="16.8835703"><ele>243.0</ele><time>2026-03-28T12:48:38.699Z</time></trkpt><trkpt lat="39.2127511" lon="16.8836963"><ele>244.5</ele><time>2026-03-28T12:48:39.699Z</time></trkpt><trkpt lat="39.2128123" lon="16.8838187"><ele>246.0</ele><time>2026-03-28T12:48:40.695Z</time></trkpt><trkpt lat="39.2128648" lon="16.8839351"><ele>246.0</ele><time>2026-03-28T12:48:41.699Z</time></trkpt><trkpt lat="39.212913" lon="16.8840421"><ele>246.00000000000003</ele><time>2026-03-28T12:48:42.696Z</time></trkpt><trkpt lat="39.2129552" lon="16.8841512"><ele>246.00000000000003</ele><time>2026-03-28T12:48:43.702Z</time></trkpt><trkpt lat="39.2129933" lon="16.8842651"><ele>246.0</ele><time>2026-03-28T12:48:44.694Z</time></trkpt><trkpt lat="39.2130262" lon="16.8843805"><ele>246.0</ele><time>2026-03-28T12:48:45.696Z</time></trkpt><trkpt lat="39.2130497" lon="16.8844968"><ele>246.0</ele><time>2026-03-28T12:48:46.694Z</time></trkpt><trkpt lat="39.2130656" lon="16.8846123"><ele>246.0</ele><time>2026-03-28T12:48:47.702Z</time></trkpt><trkpt lat="39.2130784" lon="16.8847131"><ele>246.0</ele><time>2026-03-28T12:48:48.707Z</time></trkpt><trkpt lat="39.2130899" lon="16.8847941"><ele>246.0</ele><time>2026-03-28T12:48:49.696Z</time></trkpt><trkpt lat="39.2131072" lon="16.8848983"><ele>246.0</ele><time>2026-03-28T12:48:51.694Z</time></trkpt><trkpt lat="39.2130945" lon="16.8850071"><ele>246.0</ele><time>2026-03-28T12:49:34.701Z</time></trkpt><trkpt lat="39.213041" lon="16.8851212"><ele>247.4</ele><time>2026-03-28T12:49:37.699Z</time></trkpt><trkpt lat="39.2129813" lon="16.8852322"><ele>248.8</ele><time>2026-03-28T12:49:39.705Z</time></trkpt><trkpt lat="39.2129136" lon="16.8853354"><ele>250.20000000000002</ele><time>2026-03-28T12:49:41.695Z</time></trkpt><trkpt lat="39.2128385" lon="16.885444"><ele>251.60000000000002</ele><time>2026-03-28T12:49:43.697Z</time></trkpt><trkpt lat="39.2127705" lon="16.8855398"><ele>253.0</ele><time>2026-03-28T12:49:45.694Z</time></trkpt><trkpt lat="39.212712" lon="16.8856237"><ele>253.0</ele><time>2026-03-28T12:49:47.698Z</time></trkpt><trkpt lat="39.212649" lon="16.8857045"><ele>253.0</ele><time>2026-03-28T12:49:49.692Z</time></trkpt><trkpt lat="39.2125701" lon="16.8857912"><ele>253.0</ele><time>2026-03-28T12:49:51.693Z</time></trkpt><trkpt lat="39.2124773" lon="16.8859096"><ele>253.0</ele><time>2026-03-28T12:49:53.701Z</time></trkpt><trkpt lat="39.2124252" lon="16.8859755"><ele>253.0</ele><time>2026-03-28T12:49:54.697Z</time></trkpt><trkpt lat="39.2123683" lon="16.886047"><ele>253.2</ele><time>2026-03-28T12:49:55.689Z</time></trkpt><trkpt lat="39.2123152" lon="16.8861174"><ele>253.4</ele><time>2026-03-28T12:49:56.698Z</time></trkpt><trkpt lat="39.2122713" lon="16.8861786"><ele>253.59999999999997</ele><time>2026-03-28T12:49:57.694Z</time></trkpt><trkpt lat="39.2121864" lon="16.8862885"><ele>253.79999999999998</ele><time>2026-03-28T12:49:59.697Z</time></trkpt><trkpt lat="39.2121123" lon="16.8864183"><ele>254.0</ele><time>2026-03-28T12:50:01.69Z</time></trkpt><trkpt lat="39.2120745" lon="16.886489"><ele>254.0</ele><time>2026-03-28T12:50:02.693Z</time></trkpt><trkpt lat="39.2120264" lon="16.8865584"><ele>253.99999999999997</ele><time>2026-03-28T12:50:03.701Z</time></trkpt><trkpt lat="39.2119852" lon="16.886685"><ele>253.99999999999997</ele><time>2026-03-28T12:50:05.694Z</time></trkpt><trkpt lat="39.2119509" lon="16.886769"><ele>254.0</ele><time>2026-03-28T12:50:06.714Z</time></trkpt><trkpt lat="39.2119103" lon="16.8868817"><ele>254.0</ele><time>2026-03-28T12:50:07.695Z</time></trkpt><trkpt lat="39.2118715" lon="16.8870027"><ele>255.79999999999998</ele><time>2026-03-28T12:50:08.699Z</time></trkpt><trkpt lat="39.2118331" lon="16.8871294"><ele>257.59999999999997</ele><time>2026-03-28T12:50:09.705Z</time></trkpt><trkpt lat="39.2117915" lon="16.8872667"><ele>259.4</ele><time>2026-03-28T12:50:10.705Z</time></trkpt><trkpt lat="39.2117548" lon="16.8873959"><ele>261.2</ele><time>2026-03-28T12:50:11.689Z</time></trkpt><trkpt lat="39.211712" lon="16.8875197"><ele>263.0</ele><time>2026-03-28T12:50:12.69Z</time></trkpt><trkpt lat="39.2116784" lon="16.8876322"><ele>263.2</ele><time>2026-03-28T12:50:13.696Z</time></trkpt><trkpt lat="39.2116475" lon="16.8877291"><ele>263.4</ele><time>2026-03-28T12:50:14.704Z</time></trkpt><trkpt lat="39.211611" lon="16.8878668"><ele>263.59999999999997</ele><time>2026-03-28T12:50:16.701Z</time></trkpt><trkpt lat="39.2115717" lon="16.8879751"><ele>263.8</ele><time>2026-03-28T12:50:18.712Z</time></trkpt><trkpt lat="39.2116117" lon="16.8880667"><ele>264.0</ele><time>2026-03-28T12:50:20.705Z</time></trkpt><trkpt lat="39.211717" lon="16.8880675"><ele>264.0</ele><time>2026-03-28T12:50:22.721Z</time></trkpt><trkpt lat="39.2117956" lon="16.8880435"><ele>264.0</ele><time>2026-03-28T12:50:23.698Z</time></trkpt><trkpt lat="39.2119056" lon="16.8880217"><ele>264.0</ele><time>2026-03-28T12:50:24.697Z</time></trkpt><trkpt lat="39.2120063" lon="16.887993"><ele>264.0</ele><time>2026-03-28T12:50:25.704Z</time></trkpt><trkpt lat="39.2121022" lon="16.887965"><ele>264.0</ele><time>2026-03-28T12:50:26.703Z</time></trkpt><trkpt lat="39.2121896" lon="16.8879324"><ele>264.0</ele><time>2026-03-28T12:50:27.693Z</time></trkpt><trkpt lat="39.2122696" lon="16.8878883"><ele>264.0</ele><time>2026-03-28T12:50:28.697Z</time></trkpt><trkpt lat="39.2123465" lon="16.8878427"><ele>264.0</ele><time>2026-03-28T12:50:29.695Z</time></trkpt><trkpt lat="39.2124209" lon="16.8877988"><ele>264.0</ele><time>2026-03-28T12:50:30.695Z</time></trkpt><trkpt lat="39.2124992" lon="16.8877537"><ele>264.0</ele><time>2026-03-28T12:50:31.698Z</time></trkpt><trkpt lat="39.2125738" lon="16.8877078"><ele>264.0</ele><time>2026-03-28T12:50:32.697Z</time></trkpt><trkpt lat="39.2126448" lon="16.8876612"><ele>265.6666666666667</ele><time>2026-03-28T12:50:33.723Z</time></trkpt><trkpt lat="39.2127171" lon="16.8876141"><ele>267.3333333333333</ele><time>2026-03-28T12:50:34.718Z</time></trkpt><trkpt lat="39.2127887" lon="16.8875628"><ele>269.0</ele><time>2026-03-28T12:50:35.694Z</time></trkpt><trkpt lat="39.2128644" lon="16.8875123"><ele>270.66666666666663</ele><time>2026-03-28T12:50:36.706Z</time></trkpt><trkpt lat="39.2129398" lon="16.8874644"><ele>272.3333333333333</ele><time>2026-03-28T12:50:37.69Z</time></trkpt><trkpt lat="39.2130183" lon="16.8874215"><ele>274.0</ele><time>2026-03-28T12:50:38.691Z</time></trkpt><trkpt lat="39.2130967" lon="16.8873813"><ele>275.3333333333333</ele><time>2026-03-28T12:50:39.693Z</time></trkpt><trkpt lat="39.2131745" lon="16.887342"><ele>276.66666666666663</ele><time>2026-03-28T12:50:40.695Z</time></trkpt><trkpt lat="39.2132526" lon="16.8873281"><ele>278.0</ele><time>2026-03-28T12:50:41.709Z</time></trkpt><trkpt lat="39.2133307" lon="16.8873358"><ele>279.3333333333333</ele><time>2026-03-28T12:50:42.694Z</time></trkpt><trkpt lat="39.2134274" lon="16.8873588"><ele>280.6666666666667</ele><time>2026-03-28T12:50:43.706Z</time></trkpt><trkpt lat="39.2135284" lon="16.8873881"><ele>282.0</ele><time>2026-03-28T12:50:44.703Z</time></trkpt><trkpt lat="39.2136254" lon="16.8874171"><ele>282.0</ele><time>2026-03-28T12:50:45.687Z</time></trkpt><trkpt lat="39.2137321" lon="16.8874447"><ele>282.0</ele><time>2026-03-28T12:50:46.691Z</time></trkpt><trkpt lat="39.2138418" lon="16.8874735"><ele>282.0</ele><time>2026-03-28T12:50:47.695Z</time></trkpt><trkpt lat="39.2139536" lon="16.8875083"><ele>282.0</ele><time>2026-03-28T12:50:48.691Z</time></trkpt><trkpt lat="39.2140555" lon="16.8875432"><ele>282.0</ele><time>2026-03-28T12:50:49.692Z</time></trkpt><trkpt lat="39.2141547" lon="16.8875795"><ele>284.2</ele><time>2026-03-28T12:50:50.697Z</time></trkpt><trkpt lat="39.2142383" lon="16.8876537"><ele>286.4</ele><time>2026-03-28T12:50:51.701Z</time></trkpt><trkpt lat="39.214306" lon="16.8877424"><ele>288.6</ele><time>2026-03-28T12:50:52.696Z</time></trkpt><trkpt lat="39.2143653" lon="16.887845"><ele>290.8</ele><time>2026-03-28T12:50:53.694Z</time></trkpt><trkpt lat="39.2144251" lon="16.8879582"><ele>293.0</ele><time>2026-03-28T12:50:54.698Z</time></trkpt><trkpt lat="39.2144851" lon="16.8880702"><ele>293.0</ele><time>2026-03-28T12:50:55.691Z</time></trkpt><trkpt lat="39.2145437" lon="16.8881781"><ele>293.0</ele><time>2026-03-28T12:50:56.695Z</time></trkpt><trkpt lat="39.2146023" lon="16.8882851"><ele>293.0</ele><time>2026-03-28T12:50:57.695Z</time></trkpt><trkpt lat="39.2146658" lon="16.8883864"><ele>293.0</ele><time>2026-03-28T12:50:58.689Z</time></trkpt><trkpt lat="39.2147394" lon="16.8884867"><ele>293.0</ele><time>2026-03-28T12:50:59.693Z</time></trkpt><trkpt lat="39.2148242" lon="16.8885804"><ele>292.8</ele><time>2026-03-28T12:51:00.69Z</time></trkpt><trkpt lat="39.214915" lon="16.8886646"><ele>292.6</ele><time>2026-03-28T12:51:01.694Z</time></trkpt><trkpt lat="39.2150019" lon="16.8887406"><ele>292.4</ele><time>2026-03-28T12:51:02.697Z</time></trkpt><trkpt lat="39.2150837" lon="16.8888138"><ele>292.2</ele><time>2026-03-28T12:51:03.693Z</time></trkpt><trkpt lat="39.2151617" lon="16.8888823"><ele>292.0</ele><time>2026-03-28T12:51:04.694Z</time></trkpt><trkpt lat="39.215236" lon="16.8889498"><ele>292.0</ele><time>2026-03-28T12:51:05.693Z</time></trkpt><trkpt lat="39.215312" lon="16.8890163"><ele>292.0</ele><time>2026-03-28T12:51:06.701Z</time></trkpt><trkpt lat="39.2153928" lon="16.8890699"><ele>292.0</ele><time>2026-03-28T12:51:07.701Z</time></trkpt><trkpt lat="39.215476" lon="16.8891275"><ele>292.0</ele><time>2026-03-28T12:51:08.694Z</time></trkpt><trkpt lat="39.215551" lon="16.8892117"><ele>292.0</ele><time>2026-03-28T12:51:09.707Z</time></trkpt><trkpt lat="39.2156184" lon="16.8893016"><ele>290.4</ele><time>2026-03-28T12:51:10.703Z</time></trkpt><trkpt lat="39.2156776" lon="16.8893996"><ele>288.79999999999995</ele><time>2026-03-28T12:51:11.697Z</time></trkpt><trkpt lat="39.2157322" lon="16.8895038"><ele>287.2</ele><time>2026-03-28T12:51:12.698Z</time></trkpt><trkpt lat="39.2157839" lon="16.8896128"><ele>285.59999999999997</ele><time>2026-03-28T12:51:13.7Z</time></trkpt><trkpt lat="39.215831" lon="16.8897179"><ele>284.0</ele><time>2026-03-28T12:51:14.697Z</time></trkpt><trkpt lat="39.2158741" lon="16.8898103"><ele>284.0</ele><time>2026-03-28T12:51:15.698Z</time></trkpt><trkpt lat="39.2159164" lon="16.8898811"><ele>284.0</ele><time>2026-03-28T12:51:16.705Z</time></trkpt><trkpt lat="39.2159621" lon="16.8899553"><ele>284.0</ele><time>2026-03-28T12:51:17.694Z</time></trkpt><trkpt lat="39.2160141" lon="16.89002"><ele>284.0</ele><time>2026-03-28T12:51:18.693Z</time></trkpt><trkpt lat="39.2160848" lon="16.8901284"><ele>284.0</ele><time>2026-03-28T12:51:20.692Z</time></trkpt><trkpt lat="39.2161331" lon="16.8902517"><ele>284.0</ele><time>2026-03-28T12:51:22.697Z</time></trkpt><trkpt lat="39.2161685" lon="16.8903602"><ele>283.59999999999997</ele><time>2026-03-28T12:51:24.693Z</time></trkpt><trkpt lat="39.2162546" lon="16.8904528"><ele>283.2</ele><time>2026-03-28T12:51:26.71Z</time></trkpt><trkpt lat="39.2163259" lon="16.8905096"><ele>282.79999999999995</ele><time>2026-03-28T12:51:28.701Z</time></trkpt><trkpt lat="39.2164093" lon="16.8905833"><ele>282.4</ele><time>2026-03-28T12:51:31.694Z</time></trkpt><trkpt lat="39.216497" lon="16.8906579"><ele>282.0</ele><time>2026-03-28T12:51:33.696Z</time></trkpt><trkpt lat="39.2166" lon="16.8907418"><ele>282.0</ele><time>2026-03-28T12:51:35.702Z</time></trkpt><trkpt lat="39.2166617" lon="16.8907871"><ele>282.0</ele><time>2026-03-28T12:51:36.696Z</time></trkpt><trkpt lat="39.2167262" lon="16.8908358"><ele>282.0</ele><time>2026-03-28T12:51:37.699Z</time></trkpt><trkpt lat="39.2167899" lon="16.8908924"><ele>282.0</ele><time>2026-03-28T12:51:38.701Z</time></trkpt><trkpt lat="39.2168518" lon="16.8909551"><ele>282.0</ele><time>2026-03-28T12:51:39.695Z</time></trkpt><trkpt lat="39.2169071" lon="16.8910235"><ele>282.0</ele><time>2026-03-28T12:51:40.697Z</time></trkpt><trkpt lat="39.2169552" lon="16.8910943"><ele>276.5</ele><time>2026-03-28T12:51:41.694Z</time></trkpt><trkpt lat="39.2170006" lon="16.8911686"><ele>271.0</ele><time>2026-03-28T12:51:42.694Z</time></trkpt><trkpt lat="39.2170492" lon="16.8912461"><ele>265.5</ele><time>2026-03-28T12:51:43.697Z</time></trkpt><trkpt lat="39.2171013" lon="16.8913258"><ele>260.0</ele><time>2026-03-28T12:51:44.7Z</time></trkpt><trkpt lat="39.2171568" lon="16.8914069"><ele>254.5</ele><time>2026-03-28T12:51:45.705Z</time></trkpt><trkpt lat="39.2172172" lon="16.8914884"><ele>249.0</ele><time>2026-03-28T12:51:46.702Z</time></trkpt><trkpt lat="39.2172788" lon="16.8915702"><ele>250.79999999999998</ele><time>2026-03-28T12:51:47.698Z</time></trkpt><trkpt lat="39.2173425" lon="16.8916524"><ele>252.59999999999997</ele><time>2026-03-28T12:51:48.7Z</time></trkpt><trkpt lat="39.2174037" lon="16.8917432"><ele>254.4</ele><time>2026-03-28T12:51:49.693Z</time></trkpt><trkpt lat="39.2174673" lon="16.8918373"><ele>256.2</ele><time>2026-03-28T12:51:50.695Z</time></trkpt><trkpt lat="39.2175316" lon="16.8919289"><ele>258.0</ele><time>2026-03-28T12:51:51.7Z</time></trkpt><trkpt lat="39.2175929" lon="16.8920222"><ele>258.0</ele><time>2026-03-28T12:51:52.71Z</time></trkpt><trkpt lat="39.2176565" lon="16.8921199"><ele>258.0</ele><time>2026-03-28T12:51:53.694Z</time></trkpt><trkpt lat="39.2177199" lon="16.8922174"><ele>258.0</ele><time>2026-03-28T12:51:54.705Z</time></trkpt><trkpt lat="39.2177868" lon="16.8923125"><ele>258.0</ele><time>2026-03-28T12:51:55.699Z</time></trkpt><trkpt lat="39.2178553" lon="16.8924068"><ele>258.0</ele><time>2026-03-28T12:51:56.697Z</time></trkpt><trkpt lat="39.217923" lon="16.8925012"><ele>259.5</ele><time>2026-03-28T12:51:57.698Z</time></trkpt><trkpt lat="39.2179888" lon="16.8925948"><ele>261.0</ele><time>2026-03-28T12:51:58.703Z</time></trkpt><trkpt lat="39.2180629" lon="16.8927099"><ele>262.5</ele><time>2026-03-28T12:51:59.703Z</time></trkpt><trkpt lat="39.2181445" lon="16.8928168"><ele>264.0</ele><time>2026-03-28T12:52:00.709Z</time></trkpt><trkpt lat="39.218245" lon="16.8929177"><ele>264.0</ele><time>2026-03-28T12:52:01.698Z</time></trkpt><trkpt lat="39.2183346" lon="16.8929987"><ele>264.0</ele><time>2026-03-28T12:52:02.7Z</time></trkpt><trkpt lat="39.2184032" lon="16.8930573"><ele>264.0</ele><time>2026-03-28T12:52:03.701Z</time></trkpt><trkpt lat="39.2184592" lon="16.8931061"><ele>264.0</ele><time>2026-03-28T12:52:04.704Z</time></trkpt><trkpt lat="39.2185153" lon="16.8931561"><ele>264.0</ele><time>2026-03-28T12:52:05.714Z</time></trkpt><trkpt lat="39.218579" lon="16.8932131"><ele>264.0</ele><time>2026-03-28T12:52:06.707Z</time></trkpt><trkpt lat="39.2186367" lon="16.8932633"><ele>264.0</ele><time>2026-03-28T12:52:07.693Z</time></trkpt><trkpt lat="39.2186922" lon="16.8933102"><ele>264.0</ele><time>2026-03-28T12:52:08.692Z</time></trkpt><trkpt lat="39.2187517" lon="16.8933531"><ele>264.0</ele><time>2026-03-28T12:52:09.696Z</time></trkpt><trkpt lat="39.218825" lon="16.8934067"><ele>264.0</ele><time>2026-03-28T12:52:10.698Z</time></trkpt><trkpt lat="39.2188983" lon="16.8934677"><ele>264.0</ele><time>2026-03-28T12:52:11.694Z</time></trkpt><trkpt lat="39.2189793" lon="16.8935381"><ele>264.0</ele><time>2026-03-28T12:52:12.689Z</time></trkpt><trkpt lat="39.219054" lon="16.8936078"><ele>264.59999999999997</ele><time>2026-03-28T12:52:13.695Z</time></trkpt><trkpt lat="39.2191268" lon="16.8936762"><ele>265.2</ele><time>2026-03-28T12:52:14.694Z</time></trkpt><trkpt lat="39.2192022" lon="16.8937422"><ele>265.79999999999995</ele><time>2026-03-28T12:52:15.693Z</time></trkpt><trkpt lat="39.2192804" lon="16.8938036"><ele>266.4</ele><time>2026-03-28T12:52:16.692Z</time></trkpt><trkpt lat="39.2193588" lon="16.8938651"><ele>267.0</ele><time>2026-03-28T12:52:17.699Z</time></trkpt><trkpt lat="39.2194349" lon="16.8939252"><ele>267.0</ele><time>2026-03-28T12:52:18.697Z</time></trkpt><trkpt lat="39.2195044" lon="16.8939977"><ele>267.0</ele><time>2026-03-28T12:52:19.707Z</time></trkpt><trkpt lat="39.2195729" lon="16.8940729"><ele>267.0</ele><time>2026-03-28T12:52:20.701Z</time></trkpt><trkpt lat="39.2196432" lon="16.8941513"><ele>267.0</ele><time>2026-03-28T12:52:21.708Z</time></trkpt><trkpt lat="39.2197358" lon="16.8942511"><ele>267.0</ele><time>2026-03-28T12:52:22.706Z</time></trkpt><trkpt lat="39.2198252" lon="16.8943465"><ele>269.6</ele><time>2026-03-28T12:52:23.703Z</time></trkpt><trkpt lat="39.2199087" lon="16.8944337"><ele>272.2</ele><time>2026-03-28T12:52:24.705Z</time></trkpt><trkpt lat="39.2199933" lon="16.8945215"><ele>274.8</ele><time>2026-03-28T12:52:25.705Z</time></trkpt><trkpt lat="39.2200799" lon="16.8946103"><ele>277.4</ele><time>2026-03-28T12:52:26.691Z</time></trkpt><trkpt lat="39.2201679" lon="16.8947006"><ele>280.0</ele><time>2026-03-28T12:52:27.709Z</time></trkpt><trkpt lat="39.2202669" lon="16.894806"><ele>280.0</ele><time>2026-03-28T12:52:28.693Z</time></trkpt><trkpt lat="39.2203576" lon="16.8949092"><ele>280.0</ele><time>2026-03-28T12:52:29.701Z</time></trkpt><trkpt lat="39.2204482" lon="16.8950122"><ele>280.0</ele><time>2026-03-28T12:52:30.702Z</time></trkpt><trkpt lat="39.2205285" lon="16.8951234"><ele>280.0</ele><time>2026-03-28T12:52:31.694Z</time></trkpt><trkpt lat="39.2206048" lon="16.8952315"><ele>281.75</ele><time>2026-03-28T12:52:32.709Z</time></trkpt><trkpt lat="39.2206794" lon="16.8953331"><ele>283.5</ele><time>2026-03-28T12:52:33.704Z</time></trkpt><trkpt lat="39.2207582" lon="16.8954301"><ele>285.25</ele><time>2026-03-28T12:52:34.702Z</time></trkpt><trkpt lat="39.2208477" lon="16.8955317"><ele>287.0</ele><time>2026-03-28T12:52:35.697Z</time></trkpt><trkpt lat="39.2209464" lon="16.895636"><ele>287.0</ele><time>2026-03-28T12:52:36.694Z</time></trkpt><trkpt lat="39.2210522" lon="16.8957483"><ele>287.0</ele><time>2026-03-28T12:52:37.691Z</time></trkpt><trkpt lat="39.2211802" lon="16.8958826"><ele>287.0</ele><time>2026-03-28T12:52:38.693Z</time></trkpt><trkpt lat="39.2213302" lon="16.8960302"><ele>289.0</ele><time>2026-03-28T12:52:39.706Z</time></trkpt><trkpt lat="39.2214827" lon="16.8961773"><ele>291.0</ele><time>2026-03-28T12:52:40.697Z</time></trkpt><trkpt lat="39.2216263" lon="16.8963067"><ele>293.0</ele><time>2026-03-28T12:52:41.7Z</time></trkpt><trkpt lat="39.2217554" lon="16.8964139"><ele>293.0</ele><time>2026-03-28T12:52:42.707Z</time></trkpt><trkpt lat="39.2218678" lon="16.8965062"><ele>293.0</ele><time>2026-03-28T12:52:43.704Z</time></trkpt><trkpt lat="39.2219697" lon="16.8965868"><ele>293.0</ele><time>2026-03-28T12:52:44.7Z</time></trkpt><trkpt lat="39.2220716" lon="16.8966623"><ele>293.0</ele><time>2026-03-28T12:52:45.696Z</time></trkpt><trkpt lat="39.2221749" lon="16.8967486"><ele>294.25</ele><time>2026-03-28T12:52:46.705Z</time></trkpt><trkpt lat="39.2222936" lon="16.8968481"><ele>295.5</ele><time>2026-03-28T12:52:47.698Z</time></trkpt><trkpt lat="39.222421" lon="16.8969516"><ele>296.75</ele><time>2026-03-28T12:52:48.702Z</time></trkpt><trkpt lat="39.2225563" lon="16.8970542"><ele>298.0</ele><time>2026-03-28T12:52:49.699Z</time></trkpt><trkpt lat="39.2227116" lon="16.8971727"><ele>298.0</ele><time>2026-03-28T12:52:50.698Z</time></trkpt><trkpt lat="39.2228847" lon="16.8972971"><ele>298.0</ele><time>2026-03-28T12:52:51.699Z</time></trkpt><trkpt lat="39.2230536" lon="16.8974261"><ele>298.0</ele><time>2026-03-28T12:52:52.708Z</time></trkpt><trkpt lat="39.2232073" lon="16.8975559"><ele>298.0</ele><time>2026-03-28T12:52:53.695Z</time></trkpt><trkpt lat="39.2233546" lon="16.897675"><ele>298.0</ele><time>2026-03-28T12:52:54.703Z</time></trkpt><trkpt lat="39.2234967" lon="16.8977903"><ele>298.0</ele><time>2026-03-28T12:52:55.703Z</time></trkpt><trkpt lat="39.2236468" lon="16.8979258"><ele>298.0</ele><time>2026-03-28T12:52:56.697Z</time></trkpt><trkpt lat="39.2238139" lon="16.898066"><ele>298.0</ele><time>2026-03-28T12:52:57.691Z</time></trkpt><trkpt lat="39.2239914" lon="16.8982162"><ele>298.0</ele><time>2026-03-28T12:52:58.697Z</time></trkpt><trkpt lat="39.2241551" lon="16.8983583"><ele>294.3333333333333</ele><time>2026-03-28T12:52:59.694Z</time></trkpt><trkpt lat="39.2243174" lon="16.8984745"><ele>290.6666666666667</ele><time>2026-03-28T12:53:00.694Z</time></trkpt><trkpt lat="39.2244565" lon="16.8985925"><ele>287.0</ele><time>2026-03-28T12:53:01.694Z</time></trkpt><trkpt lat="39.2245978" lon="16.8987193"><ele>287.0</ele><time>2026-03-28T12:53:02.699Z</time></trkpt><trkpt lat="39.2247176" lon="16.8988591"><ele>287.0</ele><time>2026-03-28T12:53:03.702Z</time></trkpt><trkpt lat="39.2248425" lon="16.8990029"><ele>287.0</ele><time>2026-03-28T12:53:04.698Z</time></trkpt><trkpt lat="39.2249797" lon="16.8991643"><ele>286.33333333333337</ele><time>2026-03-28T12:53:05.708Z</time></trkpt><trkpt lat="39.2251378" lon="16.8993405"><ele>285.6666666666667</ele><time>2026-03-28T12:53:06.701Z</time></trkpt><trkpt lat="39.2253202" lon="16.8995347"><ele>285.0</ele><time>2026-03-28T12:53:07.696Z</time></trkpt><trkpt lat="39.2254894" lon="16.8997268"><ele>288.0</ele><time>2026-03-28T12:53:08.7Z</time></trkpt><trkpt lat="39.2256839" lon="16.8999276"><ele>291.0</ele><time>2026-03-28T12:53:09.698Z</time></trkpt><trkpt lat="39.2258607" lon="16.9001192"><ele>291.0</ele><time>2026-03-28T12:53:10.696Z</time></trkpt><trkpt lat="39.226028" lon="16.9002985"><ele>291.0</ele><time>2026-03-28T12:53:11.697Z</time></trkpt><trkpt lat="39.2261873" lon="16.9004712"><ele>291.0</ele><time>2026-03-28T12:53:12.693Z</time></trkpt><trkpt lat="39.2263376" lon="16.900634"><ele>291.0</ele><time>2026-03-28T12:53:13.695Z</time></trkpt><trkpt lat="39.2264757" lon="16.9007965"><ele>291.0</ele><time>2026-03-28T12:53:14.694Z</time></trkpt><trkpt lat="39.2265942" lon="16.9009661"><ele>291.0</ele><time>2026-03-28T12:53:15.694Z</time></trkpt><trkpt lat="39.226691" lon="16.9011376"><ele>298.25</ele><time>2026-03-28T12:53:16.69Z</time></trkpt><trkpt lat="39.2267538" lon="16.9012996"><ele>305.5</ele><time>2026-03-28T12:53:17.693Z</time></trkpt><trkpt lat="39.2267773" lon="16.9014566"><ele>312.75</ele><time>2026-03-28T12:53:18.702Z</time></trkpt><trkpt lat="39.2267916" lon="16.901605"><ele>320.0</ele><time>2026-03-28T12:53:19.699Z</time></trkpt><trkpt lat="39.2268049" lon="16.9017423"><ele>320.25</ele><time>2026-03-28T12:53:20.699Z</time></trkpt><trkpt lat="39.2268278" lon="16.9018935"><ele>320.5</ele><time>2026-03-28T12:53:21.691Z</time></trkpt><trkpt lat="39.226881" lon="16.9020611"><ele>320.75</ele><time>2026-03-28T12:53:22.691Z</time></trkpt><trkpt lat="39.2269491" lon="16.902218"><ele>321.0</ele><time>2026-03-28T12:53:23.696Z</time></trkpt><trkpt lat="39.2270279" lon="16.902361"><ele>321.0</ele><time>2026-03-28T12:53:24.701Z</time></trkpt><trkpt lat="39.2271282" lon="16.9025126"><ele>321.0</ele><time>2026-03-28T12:53:25.707Z</time></trkpt><trkpt lat="39.2272511" lon="16.9026807"><ele>321.0</ele><time>2026-03-28T12:53:26.704Z</time></trkpt><trkpt lat="39.2274048" lon="16.9028538"><ele>325.3333333333333</ele><time>2026-03-28T12:53:27.698Z</time></trkpt><trkpt lat="39.2275565" lon="16.9030261"><ele>329.66666666666663</ele><time>2026-03-28T12:53:28.704Z</time></trkpt><trkpt lat="39.227698" lon="16.9031659"><ele>334.0</ele><time>2026-03-28T12:53:29.7Z</time></trkpt><trkpt lat="39.2278154" lon="16.9032829"><ele>334.0</ele><time>2026-03-28T12:53:30.697Z</time></trkpt><trkpt lat="39.2278922" lon="16.9033569"><ele>334.0</ele><time>2026-03-28T12:53:31.697Z</time></trkpt><trkpt lat="39.227961" lon="16.9034304"><ele>334.0</ele><time>2026-03-28T12:53:32.703Z</time></trkpt><trkpt lat="39.2280363" lon="16.9034944"><ele>334.0</ele><time>2026-03-28T12:53:33.704Z</time></trkpt><trkpt lat="39.2281206" lon="16.903536"><ele>334.0</ele><time>2026-03-28T12:53:34.699Z</time></trkpt><trkpt lat="39.2282228" lon="16.9035569"><ele>335.0</ele><time>2026-03-28T12:53:35.698Z</time></trkpt><trkpt lat="39.228354" lon="16.90357"><ele>336.0</ele><time>2026-03-28T12:53:36.701Z</time></trkpt><trkpt lat="39.2285156" lon="16.9035885"><ele>337.0</ele><time>2026-03-28T12:53:37.697Z</time></trkpt><trkpt lat="39.2286966" lon="16.9036187"><ele>337.0</ele><time>2026-03-28T12:53:38.693Z</time></trkpt><trkpt lat="39.2288729" lon="16.9036497"><ele>337.0</ele><time>2026-03-28T12:53:39.703Z</time></trkpt><trkpt lat="39.2290189" lon="16.9036965"><ele>337.0</ele><time>2026-03-28T12:53:40.698Z</time></trkpt><trkpt lat="39.2291385" lon="16.903746"><ele>338.0</ele><time>2026-03-28T12:53:41.691Z</time></trkpt><trkpt lat="39.2292378" lon="16.9037709"><ele>339.0</ele><time>2026-03-28T12:53:42.693Z</time></trkpt><trkpt lat="39.229321" lon="16.9037804"><ele>340.0</ele><time>2026-03-28T12:53:43.697Z</time></trkpt><trkpt lat="39.2294152" lon="16.9037386"><ele>341.0</ele><time>2026-03-28T12:53:44.713Z</time></trkpt><trkpt lat="39.229541" lon="16.9037027"><ele>342.0</ele><time>2026-03-28T12:53:45.703Z</time></trkpt><trkpt lat="39.2296461" lon="16.9036774"><ele>342.0</ele><time>2026-03-28T12:53:46.696Z</time></trkpt><trkpt lat="39.229735" lon="16.9036717"><ele>342.0</ele><time>2026-03-28T12:53:47.702Z</time></trkpt><trkpt lat="39.2298047" lon="16.9036546"><ele>342.0</ele><time>2026-03-28T12:53:48.705Z</time></trkpt><trkpt lat="39.2298844" lon="16.9036862"><ele>342.0</ele><time>2026-03-28T12:53:50.693Z</time></trkpt><trkpt lat="39.2299261" lon="16.9037938"><ele>342.0</ele><time>2026-03-28T12:53:53.692Z</time></trkpt><trkpt lat="39.2298939" lon="16.9037238"><ele>342.0</ele><time>2026-03-28T13:43:25.679Z</time></trkpt><trkpt lat="39.2298348" lon="16.903691"><ele>342.0</ele><time>2026-03-28T13:54:40.7Z</time></trkpt><trkpt lat="39.229763" lon="16.9036799"><ele>342.0</ele><time>2026-03-28T13:54:43.702Z</time></trkpt><trkpt lat="39.2296754" lon="16.9036765"><ele>342.0</ele><time>2026-03-28T13:54:46.71Z</time></trkpt><trkpt lat="39.2295846" lon="16.9036797"><ele>342.0</ele><time>2026-03-28T13:54:48.698Z</time></trkpt><trkpt lat="39.2294785" lon="16.9037027"><ele>342.0</ele><time>2026-03-28T13:54:50.703Z</time></trkpt><trkpt lat="39.2293701" lon="16.9037361"><ele>342.0</ele><time>2026-03-28T13:54:52.708Z</time></trkpt><trkpt lat="39.2293071" lon="16.9037539"><ele>342.0</ele><time>2026-03-28T13:54:53.707Z</time></trkpt><trkpt lat="39.2291897" lon="16.9037598"><ele>342.0</ele><time>2026-03-28T13:54:55.709Z</time></trkpt><trkpt lat="39.2291254" lon="16.9037365"><ele>342.0</ele><time>2026-03-28T13:54:56.701Z</time></trkpt><trkpt lat="39.2290522" lon="16.9037113"><ele>342.0</ele><time>2026-03-28T13:54:57.699Z</time></trkpt><trkpt lat="39.2289706" lon="16.9036764"><ele>342.0</ele><time>2026-03-28T13:54:58.7Z</time></trkpt><trkpt lat="39.2288779" lon="16.9036445"><ele>341.0</ele><time>2026-03-28T13:54:59.7Z</time></trkpt><trkpt lat="39.2287804" lon="16.9036166"><ele>340.0</ele><time>2026-03-28T13:55:00.697Z</time></trkpt><trkpt lat="39.2286804" lon="16.9036014"><ele>339.0</ele><time>2026-03-28T13:55:01.699Z</time></trkpt><trkpt lat="39.2285905" lon="16.9035891"><ele>338.0</ele><time>2026-03-28T13:55:02.703Z</time></trkpt><trkpt lat="39.2285013" lon="16.9035787"><ele>337.0</ele><time>2026-03-28T13:55:03.701Z</time></trkpt><trkpt lat="39.2284135" lon="16.9035652"><ele>337.00000000000006</ele><time>2026-03-28T13:55:04.699Z</time></trkpt><trkpt lat="39.2283377" lon="16.9035568"><ele>337.0</ele><time>2026-03-28T13:55:05.702Z</time></trkpt><trkpt lat="39.2282663" lon="16.9035487"><ele>337.0</ele><time>2026-03-28T13:55:06.706Z</time></trkpt><trkpt lat="39.2281926" lon="16.9035396"><ele>337.0</ele><time>2026-03-28T13:55:07.702Z</time></trkpt><trkpt lat="39.228124" lon="16.9035198"><ele>337.0</ele><time>2026-03-28T13:55:08.704Z</time></trkpt><trkpt lat="39.228057" lon="16.9034831"><ele>337.00000000000006</ele><time>2026-03-28T13:55:09.705Z</time></trkpt><trkpt lat="39.2279876" lon="16.9034273"><ele>337.0</ele><time>2026-03-28T13:55:10.711Z</time></trkpt><trkpt lat="39.2279129" lon="16.9033579"><ele>336.40000000000003</ele><time>2026-03-28T13:55:11.701Z</time></trkpt><trkpt lat="39.2278318" lon="16.9032812"><ele>335.8</ele><time>2026-03-28T13:55:12.708Z</time></trkpt><trkpt lat="39.227746" lon="16.9031966"><ele>335.2</ele><time>2026-03-28T13:55:13.705Z</time></trkpt><trkpt lat="39.227654" lon="16.9031078"><ele>334.6</ele><time>2026-03-28T13:55:14.702Z</time></trkpt><trkpt lat="39.2275573" lon="16.9030127"><ele>334.0</ele><time>2026-03-28T13:55:15.706Z</time></trkpt><trkpt lat="39.2274593" lon="16.90291"><ele>334.0</ele><time>2026-03-28T13:55:16.71Z</time></trkpt><trkpt lat="39.2273618" lon="16.9027989"><ele>334.0</ele><time>2026-03-28T13:55:17.703Z</time></trkpt><trkpt lat="39.2272685" lon="16.9026833"><ele>334.0</ele><time>2026-03-28T13:55:18.702Z</time></trkpt><trkpt lat="39.2271844" lon="16.9025733"><ele>334.0</ele><time>2026-03-28T13:55:19.698Z</time></trkpt><trkpt lat="39.227111" lon="16.9024681"><ele>331.8333333333333</ele><time>2026-03-28T13:55:20.705Z</time></trkpt><trkpt lat="39.2270474" lon="16.9023691"><ele>329.66666666666663</ele><time>2026-03-28T13:55:21.698Z</time></trkpt><trkpt lat="39.2269948" lon="16.9022798"><ele>327.5</ele><time>2026-03-28T13:55:22.699Z</time></trkpt><trkpt lat="39.2269538" lon="16.9022008"><ele>325.3333333333333</ele><time>2026-03-28T13:55:23.701Z</time></trkpt><trkpt lat="39.2269211" lon="16.902122"><ele>323.1666666666667</ele><time>2026-03-28T13:55:24.707Z</time></trkpt><trkpt lat="39.226894" lon="16.9020366"><ele>321.0</ele><time>2026-03-28T13:55:25.702Z</time></trkpt><trkpt lat="39.2268694" lon="16.9019486"><ele>321.0</ele><time>2026-03-28T13:55:26.701Z</time></trkpt><trkpt lat="39.2268515" lon="16.9018624"><ele>321.0</ele><time>2026-03-28T13:55:27.705Z</time></trkpt><trkpt lat="39.2268323" lon="16.9017227"><ele>321.0</ele><time>2026-03-28T13:55:29.695Z</time></trkpt><trkpt lat="39.2268308" lon="16.9016395"><ele>321.0</ele><time>2026-03-28T13:55:31.698Z</time></trkpt><trkpt lat="39.2268036" lon="16.9015594"><ele>321.0</ele><time>2026-03-28T13:55:35.702Z</time></trkpt><trkpt lat="39.2267416" lon="16.9015992"><ele>321.0</ele><time>2026-03-28T13:58:13.697Z</time></trkpt><trkpt lat="39.2266847" lon="16.9016835"><ele>321.0</ele><time>2026-03-28T13:58:25.699Z</time></trkpt><trkpt lat="39.2266467" lon="16.9017492"><ele>321.0</ele><time>2026-03-28T13:58:26.699Z</time></trkpt><trkpt lat="39.2265947" lon="16.9018317"><ele>321.0</ele><time>2026-03-28T13:58:27.704Z</time></trkpt><trkpt lat="39.226534" lon="16.9019226"><ele>321.0</ele><time>2026-03-28T13:58:28.702Z</time></trkpt><trkpt lat="39.2264527" lon="16.9020468"><ele>321.0</ele><time>2026-03-28T13:58:29.705Z</time></trkpt><trkpt lat="39.2263813" lon="16.9021604"><ele>317.8333333333333</ele><time>2026-03-28T13:58:30.7Z</time></trkpt><trkpt lat="39.2263357" lon="16.9022474"><ele>314.6666666666667</ele><time>2026-03-28T13:58:31.696Z</time></trkpt><trkpt lat="39.2263065" lon="16.9023259"><ele>311.5</ele><time>2026-03-28T13:58:32.697Z</time></trkpt><trkpt lat="39.2262788" lon="16.9024115"><ele>308.33333333333337</ele><time>2026-03-28T13:58:33.698Z</time></trkpt><trkpt lat="39.2262717" lon="16.9025128"><ele>305.1666666666667</ele><time>2026-03-28T13:58:34.7Z</time></trkpt><trkpt lat="39.2262797" lon="16.9026235"><ele>302.0</ele><time>2026-03-28T13:58:35.703Z</time></trkpt><trkpt lat="39.2262979" lon="16.9027359"><ele>302.0</ele><time>2026-03-28T13:58:36.703Z</time></trkpt><trkpt lat="39.2263231" lon="16.9028391"><ele>302.0</ele><time>2026-03-28T13:58:37.696Z</time></trkpt><trkpt lat="39.2263444" lon="16.9029257"><ele>302.0</ele><time>2026-03-28T13:58:38.696Z</time></trkpt><trkpt lat="39.2263624" lon="16.9030148"><ele>302.0</ele><time>2026-03-28T13:58:39.697Z</time></trkpt><trkpt lat="39.2263748" lon="16.903118"><ele>302.0</ele><time>2026-03-28T13:58:40.698Z</time></trkpt><trkpt lat="39.226388" lon="16.9032486"><ele>302.0</ele><time>2026-03-28T13:58:41.7Z</time></trkpt><trkpt lat="39.2264061" lon="16.9034049"><ele>302.5</ele><time>2026-03-28T13:58:42.709Z</time></trkpt><trkpt lat="39.2264103" lon="16.9035914"><ele>303.0</ele><time>2026-03-28T13:58:43.705Z</time></trkpt><trkpt lat="39.2264203" lon="16.9037637"><ele>303.5</ele><time>2026-03-28T13:58:44.704Z</time></trkpt><trkpt lat="39.226447" lon="16.9039354"><ele>304.0</ele><time>2026-03-28T13:58:45.703Z</time></trkpt><trkpt lat="39.226499" lon="16.9041286"><ele>305.75</ele><time>2026-03-28T13:58:46.699Z</time></trkpt><trkpt lat="39.226555" lon="16.9043159"><ele>307.5</ele><time>2026-03-28T13:58:47.699Z</time></trkpt><trkpt lat="39.226608" lon="16.9044793"><ele>309.25</ele><time>2026-03-28T13:58:48.701Z</time></trkpt><trkpt lat="39.2266519" lon="16.9046076"><ele>311.0</ele><time>2026-03-28T13:58:49.699Z</time></trkpt><trkpt lat="39.2266967" lon="16.9047137"><ele>311.0</ele><time>2026-03-28T13:58:50.705Z</time></trkpt><trkpt lat="39.2267392" lon="16.9048137"><ele>311.0</ele><time>2026-03-28T13:58:51.703Z</time></trkpt><trkpt lat="39.2267778" lon="16.9049058"><ele>311.0</ele><time>2026-03-28T13:58:52.701Z</time></trkpt><trkpt lat="39.2268132" lon="16.9050108"><ele>311.0</ele><time>2026-03-28T13:58:53.705Z</time></trkpt><trkpt lat="39.2268475" lon="16.9051148"><ele>311.0</ele><time>2026-03-28T13:58:54.706Z</time></trkpt><trkpt lat="39.2268762" lon="16.9052054"><ele>311.0</ele><time>2026-03-28T13:58:55.704Z</time></trkpt><trkpt lat="39.2269048" lon="16.905284"><ele>309.6</ele><time>2026-03-28T13:58:56.702Z</time></trkpt><trkpt lat="39.2269704" lon="16.9053971"><ele>308.20000000000005</ele><time>2026-03-28T13:58:58.705Z</time></trkpt><trkpt lat="39.2270486" lon="16.905503"><ele>306.79999999999995</ele><time>2026-03-28T13:59:00.701Z</time></trkpt><trkpt lat="39.2270928" lon="16.9055699"><ele>305.4</ele><time>2026-03-28T13:59:01.709Z</time></trkpt><trkpt lat="39.2271759" lon="16.9056821"><ele>304.0</ele><time>2026-03-28T13:59:03.702Z</time></trkpt><trkpt lat="39.2272156" lon="16.905746"><ele>304.0</ele><time>2026-03-28T13:59:04.707Z</time></trkpt><trkpt lat="39.2272522" lon="16.9058175"><ele>304.0</ele><time>2026-03-28T13:59:05.705Z</time></trkpt><trkpt lat="39.2272869" lon="16.9058875"><ele>304.0</ele><time>2026-03-28T13:59:06.699Z</time></trkpt><trkpt lat="39.227349" lon="16.906014"><ele>304.0</ele><time>2026-03-28T13:59:08.701Z</time></trkpt><trkpt lat="39.2274207" lon="16.9061384"><ele>304.0</ele><time>2026-03-28T13:59:10.699Z</time></trkpt><trkpt lat="39.2274876" lon="16.9062461"><ele>302.4</ele><time>2026-03-28T13:59:12.708Z</time></trkpt><trkpt lat="39.2275786" lon="16.9063647"><ele>300.79999999999995</ele><time>2026-03-28T13:59:14.712Z</time></trkpt><trkpt lat="39.2276272" lon="16.906424"><ele>299.20000000000005</ele><time>2026-03-28T13:59:15.708Z</time></trkpt><trkpt lat="39.2277109" lon="16.9065207"><ele>297.6</ele><time>2026-03-28T13:59:17.705Z</time></trkpt><trkpt lat="39.2277944" lon="16.9066245"><ele>296.0</ele><time>2026-03-28T13:59:19.708Z</time></trkpt><trkpt lat="39.227864" lon="16.9067223"><ele>292.33333333333337</ele><time>2026-03-28T13:59:21.7Z</time></trkpt><trkpt lat="39.2279355" lon="16.9067995"><ele>288.6666666666667</ele><time>2026-03-28T13:59:23.706Z</time></trkpt><trkpt lat="39.2279909" lon="16.90686"><ele>285.0</ele><time>2026-03-28T13:59:25.704Z</time></trkpt><trkpt lat="39.2280621" lon="16.906933"><ele>281.3333333333333</ele><time>2026-03-28T13:59:28.709Z</time></trkpt><trkpt lat="39.2281061" lon="16.9070283"><ele>277.66666666666663</ele><time>2026-03-28T13:59:31.71Z</time></trkpt><trkpt lat="39.2280974" lon="16.9071265"><ele>274.0</ele><time>2026-03-28T13:59:33.704Z</time></trkpt><trkpt lat="39.2280927" lon="16.9072395"><ele>274.0</ele><time>2026-03-28T13:59:35.707Z</time></trkpt><trkpt lat="39.2280918" lon="16.9073544"><ele>274.0</ele><time>2026-03-28T13:59:37.702Z</time></trkpt><trkpt lat="39.2281015" lon="16.9074505"><ele>274.0</ele><time>2026-03-28T13:59:39.699Z</time></trkpt><trkpt lat="39.2281377" lon="16.9075396"><ele>274.0</ele><time>2026-03-28T13:59:42.714Z</time></trkpt><trkpt lat="39.2281905" lon="16.907584"><ele>274.0</ele><time>2026-03-28T13:59:44.705Z</time></trkpt><trkpt lat="39.228255" lon="16.9076418"><ele>274.0</ele><time>2026-03-28T13:59:46.706Z</time></trkpt><trkpt lat="39.2283276" lon="16.9077332"><ele>274.0</ele><time>2026-03-28T13:59:48.708Z</time></trkpt><trkpt lat="39.2283812" lon="16.9077879"><ele>274.0</ele><time>2026-03-28T13:59:49.706Z</time></trkpt><trkpt lat="39.2284445" lon="16.9078467"><ele>274.0</ele><time>2026-03-28T13:59:50.704Z</time></trkpt><trkpt lat="39.228512" lon="16.9079094"><ele>274.0</ele><time>2026-03-28T13:59:51.71Z</time></trkpt><trkpt lat="39.2285808" lon="16.9079705"><ele>274.0</ele><time>2026-03-28T13:59:52.713Z</time></trkpt><trkpt lat="39.2286377" lon="16.90802"><ele>274.0</ele><time>2026-03-28T13:59:53.702Z</time></trkpt><trkpt lat="39.2287132" lon="16.9080923"><ele>274.0</ele><time>2026-03-28T13:59:55.704Z</time></trkpt><trkpt lat="39.2287704" lon="16.9081465"><ele>274.0</ele><time>2026-03-28T13:59:57.708Z</time></trkpt><trkpt lat="39.2288387" lon="16.9082168"><ele>274.0</ele><time>2026-03-28T14:00:00.705Z</time></trkpt><trkpt lat="39.2288904" lon="16.9082632"><ele>274.0</ele><time>2026-03-28T14:00:04.717Z</time></trkpt><trkpt lat="39.2289559" lon="16.9083089"><ele>274.0</ele><time>2026-03-28T14:00:08.705Z</time></trkpt><trkpt lat="39.2290336" lon="16.9083744"><ele>274.0</ele><time>2026-03-28T14:00:10.711Z</time></trkpt><trkpt lat="39.2290984" lon="16.9084435"><ele>272.3333333333333</ele><time>2026-03-28T14:00:12.694Z</time></trkpt><trkpt lat="39.2291419" lon="16.9085418"><ele>270.66666666666663</ele><time>2026-03-28T14:00:15.704Z</time></trkpt><trkpt lat="39.229183" lon="16.908629"><ele>269.0</ele><time>2026-03-28T14:00:17.702Z</time></trkpt><trkpt lat="39.2292227" lon="16.9087165"><ele>267.3333333333333</ele><time>2026-03-28T14:00:19.704Z</time></trkpt><trkpt lat="39.2292624" lon="16.9087922"><ele>265.6666666666667</ele><time>2026-03-28T14:00:21.705Z</time></trkpt><trkpt lat="39.2293023" lon="16.9088755"><ele>264.0</ele><time>2026-03-28T14:00:23.703Z</time></trkpt><trkpt lat="39.2293407" lon="16.9089572"><ele>264.0</ele><time>2026-03-28T14:00:25.701Z</time></trkpt><trkpt lat="39.2293902" lon="16.9090232"><ele>264.0</ele><time>2026-03-28T14:00:28.698Z</time></trkpt><trkpt lat="39.2294671" lon="16.9090753"><ele>264.0</ele><time>2026-03-28T14:00:36.706Z</time></trkpt><trkpt lat="39.2295389" lon="16.9091243"><ele>264.0</ele><time>2026-03-28T14:00:39.707Z</time></trkpt><trkpt lat="39.2296219" lon="16.9091617"><ele>264.0</ele><time>2026-03-28T14:00:42.705Z</time></trkpt><trkpt lat="39.2296957" lon="16.9092133"><ele>264.0</ele><time>2026-03-28T14:00:44.715Z</time></trkpt><trkpt lat="39.2297876" lon="16.9092416"><ele>260.8</ele><time>2026-03-28T14:00:46.702Z</time></trkpt><trkpt lat="39.2299073" lon="16.9092637"><ele>257.59999999999997</ele><time>2026-03-28T14:00:48.71Z</time></trkpt><trkpt lat="39.229984" lon="16.909275"><ele>254.4</ele><time>2026-03-28T14:00:49.702Z</time></trkpt><trkpt lat="39.2300651" lon="16.9092886"><ele>251.2</ele><time>2026-03-28T14:00:50.707Z</time></trkpt><trkpt lat="39.2301366" lon="16.9093016"><ele>248.0</ele><time>2026-03-28T14:00:51.698Z</time></trkpt><trkpt lat="39.2302518" lon="16.9093116"><ele>248.00000000000003</ele><time>2026-03-28T14:00:53.698Z</time></trkpt><trkpt lat="39.2303484" lon="16.909286"><ele>248.0</ele><time>2026-03-28T14:00:55.701Z</time></trkpt><trkpt lat="39.2304161" lon="16.9092527"><ele>248.0</ele><time>2026-03-28T14:00:57.7Z</time></trkpt><trkpt lat="39.2304894" lon="16.909208"><ele>248.0</ele><time>2026-03-28T14:00:59.698Z</time></trkpt><trkpt lat="39.2305585" lon="16.9091725"><ele>248.00000000000003</ele><time>2026-03-28T14:01:01.699Z</time></trkpt><trkpt lat="39.2306276" lon="16.9091351"><ele>248.0</ele><time>2026-03-28T14:01:03.705Z</time></trkpt><trkpt lat="39.2307126" lon="16.9091593"><ele>248.50000000000003</ele><time>2026-03-28T14:01:06.699Z</time></trkpt><trkpt lat="39.2307872" lon="16.909198"><ele>249.0</ele><time>2026-03-28T14:01:09.697Z</time></trkpt><trkpt lat="39.2308637" lon="16.9092829"><ele>249.5</ele><time>2026-03-28T14:01:12.701Z</time></trkpt><trkpt lat="39.2309197" lon="16.9093728"><ele>250.0</ele><time>2026-03-28T14:01:14.7Z</time></trkpt><trkpt lat="39.230972" lon="16.9094722"><ele>250.50000000000003</ele><time>2026-03-28T14:01:16.702Z</time></trkpt><trkpt lat="39.2310179" lon="16.9095613"><ele>251.0</ele><time>2026-03-28T14:01:18.708Z</time></trkpt><trkpt lat="39.2310625" lon="16.9096539"><ele>250.99999999999997</ele><time>2026-03-28T14:01:21.698Z</time></trkpt><trkpt lat="39.2311189" lon="16.9097415"><ele>251.0</ele><time>2026-03-28T14:01:24.702Z</time></trkpt><trkpt lat="39.2311775" lon="16.9097932"><ele>250.99999999999997</ele><time>2026-03-28T14:01:26.697Z</time></trkpt><trkpt lat="39.2312347" lon="16.9098466"><ele>250.99999999999997</ele><time>2026-03-28T14:01:28.706Z</time></trkpt><trkpt lat="39.2313039" lon="16.9099162"><ele>251.0</ele><time>2026-03-28T14:01:31.703Z</time></trkpt><trkpt lat="39.2313406" lon="16.9099903"><ele>250.99999999999997</ele><time>2026-03-28T14:01:36.704Z</time></trkpt><trkpt lat="39.2313891" lon="16.9100424"><ele>250.99999999999997</ele><time>2026-03-28T14:01:43.707Z</time></trkpt><trkpt lat="39.2314429" lon="16.9101156"><ele>248.99999999999997</ele><time>2026-03-28T14:01:45.705Z</time></trkpt><trkpt lat="39.2314923" lon="16.9101908"><ele>247.0</ele><time>2026-03-28T14:01:47.71Z</time></trkpt><trkpt lat="39.2315604" lon="16.9102453"><ele>244.99999999999997</ele><time>2026-03-28T14:01:49.697Z</time></trkpt><trkpt lat="39.2316009" lon="16.9103241"><ele>242.99999999999997</ele><time>2026-03-28T14:01:51.696Z</time></trkpt><trkpt lat="39.2315796" lon="16.9104137"><ele>241.0</ele><time>2026-03-28T14:01:54.702Z</time></trkpt><trkpt lat="39.2315183" lon="16.9104413"><ele>238.99999999999997</ele><time>2026-03-28T14:01:56.701Z</time></trkpt><trkpt lat="39.2314499" lon="16.910433"><ele>236.99999999999997</ele><time>2026-03-28T14:01:58.7Z</time></trkpt><trkpt lat="39.2313752" lon="16.9104719"><ele>237.0</ele><time>2026-03-28T14:02:01.697Z</time></trkpt><trkpt lat="39.2313108" lon="16.9105525"><ele>237.0</ele><time>2026-03-28T14:02:04.698Z</time></trkpt><trkpt lat="39.2313176" lon="16.9106342"><ele>237.0</ele><time>2026-03-28T14:02:06.7Z</time></trkpt><trkpt lat="39.2313801" lon="16.9106827"><ele>237.0</ele><time>2026-03-28T14:02:09.699Z</time></trkpt><trkpt lat="39.2314494" lon="16.9107081"><ele>237.0</ele><time>2026-03-28T14:02:11.696Z</time></trkpt><trkpt lat="39.2315266" lon="16.9107381"><ele>237.0</ele><time>2026-03-28T14:02:13.699Z</time></trkpt><trkpt lat="39.2315942" lon="16.9107678"><ele>236.99999999999997</ele><time>2026-03-28T14:02:15.7Z</time></trkpt><trkpt lat="39.2316598" lon="16.9107943"><ele>237.0</ele><time>2026-03-28T14:02:18.706Z</time></trkpt><trkpt lat="39.2317152" lon="16.9108351"><ele>236.99999999999997</ele><time>2026-03-28T14:02:20.699Z</time></trkpt><trkpt lat="39.2317835" lon="16.9108461"><ele>236.99999999999997</ele><time>2026-03-28T14:02:22.704Z</time></trkpt><trkpt lat="39.2318504" lon="16.9108653"><ele>237.0</ele><time>2026-03-28T14:02:24.704Z</time></trkpt><trkpt lat="39.2319189" lon="16.9109173"><ele>236.99999999999997</ele><time>2026-03-28T14:02:26.71Z</time></trkpt><trkpt lat="39.2319948" lon="16.9109911"><ele>236.99999999999997</ele><time>2026-03-28T14:02:28.706Z</time></trkpt><trkpt lat="39.2320745" lon="16.9110663"><ele>235.8</ele><time>2026-03-28T14:02:30.703Z</time></trkpt><trkpt lat="39.2321496" lon="16.9111593"><ele>234.6</ele><time>2026-03-28T14:02:32.704Z</time></trkpt><trkpt lat="39.2322138" lon="16.9112612"><ele>233.40000000000003</ele><time>2026-03-28T14:02:34.714Z</time></trkpt><trkpt lat="39.2322609" lon="16.9113623"><ele>232.20000000000002</ele><time>2026-03-28T14:02:36.7Z</time></trkpt><trkpt lat="39.2323249" lon="16.911492"><ele>231.0</ele><time>2026-03-28T14:02:38.703Z</time></trkpt><trkpt lat="39.2323737" lon="16.9115967"><ele>231.0</ele><time>2026-03-28T14:02:40.702Z</time></trkpt><trkpt lat="39.2324063" lon="16.9116959"><ele>231.0</ele><time>2026-03-28T14:02:42.712Z</time></trkpt><trkpt lat="39.2324556" lon="16.9117894"><ele>231.0</ele><time>2026-03-28T14:02:44.7Z</time></trkpt><trkpt lat="39.232504" lon="16.9118726"><ele>231.0</ele><time>2026-03-28T14:02:46.698Z</time></trkpt><trkpt lat="39.2325453" lon="16.9119544"><ele>231.0</ele><time>2026-03-28T14:02:48.703Z</time></trkpt><trkpt lat="39.2325834" lon="16.9120578"><ele>231.0</ele><time>2026-03-28T14:02:50.698Z</time></trkpt><trkpt lat="39.232617" lon="16.9121475"><ele>229.66666666666666</ele><time>2026-03-28T14:02:52.704Z</time></trkpt><trkpt lat="39.2326482" lon="16.9122311"><ele>228.33333333333331</ele><time>2026-03-28T14:02:55.701Z</time></trkpt><trkpt lat="39.2326808" lon="16.9123044"><ele>227.0</ele><time>2026-03-28T14:02:57.695Z</time></trkpt><trkpt lat="39.2327273" lon="16.9123994"><ele>225.66666666666666</ele><time>2026-03-28T14:02:59.705Z</time></trkpt><trkpt lat="39.2327336" lon="16.9125099"><ele>224.33333333333331</ele><time>2026-03-28T14:03:02.705Z</time></trkpt><trkpt lat="39.2327604" lon="16.9126181"><ele>223.0</ele><time>2026-03-28T14:03:04.698Z</time></trkpt><trkpt lat="39.2327752" lon="16.9127355"><ele>222.99999999999997</ele><time>2026-03-28T14:03:06.698Z</time></trkpt><trkpt lat="39.232791" lon="16.9128741"><ele>223.0</ele><time>2026-03-28T14:03:08.705Z</time></trkpt><trkpt lat="39.2328105" lon="16.9130278"><ele>223.0</ele><time>2026-03-28T14:03:10.7Z</time></trkpt><trkpt lat="39.2328185" lon="16.9131111"><ele>223.0</ele><time>2026-03-28T14:03:11.703Z</time></trkpt><trkpt lat="39.2328258" lon="16.9131964"><ele>222.99999999999997</ele><time>2026-03-28T14:03:12.703Z</time></trkpt><trkpt lat="39.2328309" lon="16.9132805"><ele>223.0</ele><time>2026-03-28T14:03:13.697Z</time></trkpt><trkpt lat="39.2328363" lon="16.9133656"><ele>221.83333333333331</ele><time>2026-03-28T14:03:14.703Z</time></trkpt><trkpt lat="39.2328569" lon="16.9134544"><ele>220.66666666666666</ele><time>2026-03-28T14:03:15.701Z</time></trkpt><trkpt lat="39.2328795" lon="16.9135446"><ele>219.5</ele><time>2026-03-28T14:03:16.706Z</time></trkpt><trkpt lat="39.2329239" lon="16.9136463"><ele>218.33333333333331</ele><time>2026-03-28T14:03:17.71Z</time></trkpt><trkpt lat="39.2329562" lon="16.9137461"><ele>217.16666666666666</ele><time>2026-03-28T14:03:18.71Z</time></trkpt><trkpt lat="39.2329717" lon="16.9138299"><ele>216.0</ele><time>2026-03-28T14:03:19.702Z</time></trkpt><trkpt lat="39.232955" lon="16.9139562"><ele>216.0</ele><time>2026-03-28T14:03:21.699Z</time></trkpt><trkpt lat="39.2329348" lon="16.9140809"><ele>216.0</ele><time>2026-03-28T14:03:23.703Z</time></trkpt><trkpt lat="39.2329392" lon="16.914169"><ele>216.0</ele><time>2026-03-28T14:03:25.702Z</time></trkpt><trkpt lat="39.2329596" lon="16.9142568"><ele>216.0</ele><time>2026-03-28T14:03:28.701Z</time></trkpt><trkpt lat="39.2329956" lon="16.9143263"><ele>216.0</ele><time>2026-03-28T14:03:31.699Z</time></trkpt><trkpt lat="39.2330416" lon="16.91444"><ele>216.0</ele><time>2026-03-28T14:03:34.708Z</time></trkpt><trkpt lat="39.2330921" lon="16.9145052"><ele>216.16666666666666</ele><time>2026-03-28T14:03:36.708Z</time></trkpt><trkpt lat="39.23317" lon="16.9145403"><ele>216.33333333333331</ele><time>2026-03-28T14:03:38.704Z</time></trkpt><trkpt lat="39.2332391" lon="16.9146173"><ele>216.5</ele><time>2026-03-28T14:03:40.701Z</time></trkpt><trkpt lat="39.2332957" lon="16.914706"><ele>216.66666666666666</ele><time>2026-03-28T14:03:42.702Z</time></trkpt><trkpt lat="39.2333493" lon="16.9147782"><ele>216.83333333333331</ele><time>2026-03-28T14:03:44.705Z</time></trkpt><trkpt lat="39.2333943" lon="16.9148533"><ele>217.0</ele><time>2026-03-28T14:03:47.703Z</time></trkpt><trkpt lat="39.233434" lon="16.9149313"><ele>217.0</ele><time>2026-03-28T14:04:03.694Z</time></trkpt><trkpt lat="39.2334713" lon="16.9150219"><ele>217.0</ele><time>2026-03-28T14:04:08.698Z</time></trkpt><trkpt lat="39.2335236" lon="16.9150999"><ele>217.0</ele><time>2026-03-28T14:04:12.707Z</time></trkpt><trkpt lat="39.2335628" lon="16.9151701"><ele>217.0</ele><time>2026-03-28T14:04:18.7Z</time></trkpt><trkpt lat="39.2335847" lon="16.9152486"><ele>217.0</ele><time>2026-03-28T14:04:22.711Z</time></trkpt><trkpt lat="39.2335914" lon="16.9153447"><ele>217.0</ele><time>2026-03-28T14:04:30.7Z</time></trkpt><trkpt lat="39.2335805" lon="16.9154374"><ele>217.0</ele><time>2026-03-28T14:04:33.705Z</time></trkpt><trkpt lat="39.2335756" lon="16.9155597"><ele>214.66666666666666</ele><time>2026-03-28T14:04:36.705Z</time></trkpt><trkpt lat="39.233578" lon="16.9156609"><ele>212.33333333333331</ele><time>2026-03-28T14:04:38.704Z</time></trkpt><trkpt lat="39.2335188" lon="16.9156984"><ele>210.0</ele><time>2026-03-28T14:04:41.706Z</time></trkpt><trkpt lat="39.2334733" lon="16.9157741"><ele>207.66666666666669</ele><time>2026-03-28T14:04:44.697Z</time></trkpt><trkpt lat="39.2334385" lon="16.9158741"><ele>205.33333333333334</ele><time>2026-03-28T14:04:46.708Z</time></trkpt><trkpt lat="39.233469" lon="16.9160003"><ele>203.0</ele><time>2026-03-28T14:04:48.694Z</time></trkpt><trkpt lat="39.2335546" lon="16.9161205"><ele>201.33333333333334</ele><time>2026-03-28T14:04:50.704Z</time></trkpt><trkpt lat="39.2336193" lon="16.9162197"><ele>199.66666666666669</ele><time>2026-03-28T14:04:52.704Z</time></trkpt><trkpt lat="39.2336821" lon="16.9163199"><ele>198.0</ele><time>2026-03-28T14:04:54.705Z</time></trkpt><trkpt lat="39.2337468" lon="16.9164022"><ele>196.33333333333331</ele><time>2026-03-28T14:04:56.708Z</time></trkpt><trkpt lat="39.2338143" lon="16.9164582"><ele>194.66666666666666</ele><time>2026-03-28T14:04:58.7Z</time></trkpt><trkpt lat="39.2338525" lon="16.9165441"><ele>193.0</ele><time>2026-03-28T14:05:00.697Z</time></trkpt><trkpt lat="39.2338842" lon="16.9166305"><ele>193.0</ele><time>2026-03-28T14:05:02.715Z</time></trkpt><trkpt lat="39.2339277" lon="16.9167204"><ele>193.0</ele><time>2026-03-28T14:05:05.697Z</time></trkpt><trkpt lat="39.2339858" lon="16.9167876"><ele>193.0</ele><time>2026-03-28T14:05:11.695Z</time></trkpt><trkpt lat="39.2340393" lon="16.916878"><ele>193.0</ele><time>2026-03-28T14:05:14.708Z</time></trkpt><trkpt lat="39.2341057" lon="16.9169755"><ele>193.0</ele><time>2026-03-28T14:05:16.702Z</time></trkpt><trkpt lat="39.2342051" lon="16.9170797"><ele>191.0</ele><time>2026-03-28T14:05:18.707Z</time></trkpt><trkpt lat="39.2342567" lon="16.9171523"><ele>189.0</ele><time>2026-03-28T14:05:19.704Z</time></trkpt><trkpt lat="39.2343014" lon="16.9172407"><ele>187.0</ele><time>2026-03-28T14:05:20.701Z</time></trkpt><trkpt lat="39.2343452" lon="16.9173441"><ele>185.0</ele><time>2026-03-28T14:05:21.698Z</time></trkpt><trkpt lat="39.2343972" lon="16.9174555"><ele>183.0</ele><time>2026-03-28T14:05:22.703Z</time></trkpt><trkpt lat="39.2344586" lon="16.9175785"><ele>181.4</ele><time>2026-03-28T14:05:23.696Z</time></trkpt><trkpt lat="39.234517" lon="16.9177157"><ele>179.8</ele><time>2026-03-28T14:05:24.697Z</time></trkpt><trkpt lat="39.2345546" lon="16.9178473"><ele>178.2</ele><time>2026-03-28T14:05:25.695Z</time></trkpt><trkpt lat="39.234582" lon="16.9179676"><ele>176.6</ele><time>2026-03-28T14:05:26.698Z</time></trkpt><trkpt lat="39.2346221" lon="16.9180788"><ele>175.0</ele><time>2026-03-28T14:05:27.697Z</time></trkpt><trkpt lat="39.2346863" lon="16.9181961"><ele>175.0</ele><time>2026-03-28T14:05:28.694Z</time></trkpt><trkpt lat="39.2347804" lon="16.9183393"><ele>175.0</ele><time>2026-03-28T14:05:29.7Z</time></trkpt><trkpt lat="39.2348768" lon="16.9184846"><ele>175.0</ele><time>2026-03-28T14:05:30.7Z</time></trkpt><trkpt lat="39.2349644" lon="16.918624"><ele>175.0</ele><time>2026-03-28T14:05:31.693Z</time></trkpt><trkpt lat="39.2350371" lon="16.9187504"><ele>175.16666666666669</ele><time>2026-03-28T14:05:32.695Z</time></trkpt><trkpt lat="39.2350945" lon="16.9188398"><ele>175.33333333333334</ele><time>2026-03-28T14:05:33.697Z</time></trkpt><trkpt lat="39.2351472" lon="16.9189181"><ele>175.5</ele><time>2026-03-28T14:05:35.694Z</time></trkpt><trkpt lat="39.2351964" lon="16.9189981"><ele>175.66666666666666</ele><time>2026-03-28T14:05:38.705Z</time></trkpt><trkpt lat="39.2352322" lon="16.9190701"><ele>175.83333333333331</ele><time>2026-03-28T14:05:41.705Z</time></trkpt><trkpt lat="39.2352932" lon="16.9191886"><ele>176.0</ele><time>2026-03-28T14:05:44.704Z</time></trkpt><trkpt lat="39.2353316" lon="16.9192551"><ele>174.60000000000002</ele><time>2026-03-28T14:05:45.695Z</time></trkpt><trkpt lat="39.2353689" lon="16.9193208"><ele>173.2</ele><time>2026-03-28T14:05:46.697Z</time></trkpt><trkpt lat="39.2354312" lon="16.9194116"><ele>171.8</ele><time>2026-03-28T14:05:48.698Z</time></trkpt><trkpt lat="39.235378" lon="16.9195146"><ele>170.39999999999998</ele><time>2026-03-28T14:05:51.699Z</time></trkpt><trkpt lat="39.2352792" lon="16.9196194"><ele>169.0</ele><time>2026-03-28T14:05:53.695Z</time></trkpt><trkpt lat="39.2352206" lon="16.9196955"><ele>169.0</ele><time>2026-03-28T14:05:55.7Z</time></trkpt><trkpt lat="39.2351862" lon="16.919783"><ele>169.0</ele><time>2026-03-28T14:05:58.704Z</time></trkpt><trkpt lat="39.2351505" lon="16.9198653"><ele>169.0</ele><time>2026-03-28T14:06:01.699Z</time></trkpt><trkpt lat="39.2351064" lon="16.9199306"><ele>169.0</ele><time>2026-03-28T14:06:04.71Z</time></trkpt><trkpt lat="39.2350444" lon="16.9199989"><ele>169.0</ele><time>2026-03-28T14:06:07.697Z</time></trkpt><trkpt lat="39.2349867" lon="16.9200882"><ele>169.0</ele><time>2026-03-28T14:06:10.7Z</time></trkpt><trkpt lat="39.2349394" lon="16.9201847"><ele>167.2</ele><time>2026-03-28T14:06:13.701Z</time></trkpt><trkpt lat="39.2348717" lon="16.9203219"><ele>165.39999999999998</ele><time>2026-03-28T14:06:15.694Z</time></trkpt><trkpt lat="39.2348245" lon="16.9204208"><ele>163.6</ele><time>2026-03-28T14:06:16.694Z</time></trkpt><trkpt lat="39.2347721" lon="16.9205216"><ele>161.8</ele><time>2026-03-28T14:06:17.698Z</time></trkpt><trkpt lat="39.2347295" lon="16.9206117"><ele>160.0</ele><time>2026-03-28T14:06:18.699Z</time></trkpt><trkpt lat="39.2346943" lon="16.9206813"><ele>159.33333333333334</ele><time>2026-03-28T14:06:19.697Z</time></trkpt><trkpt lat="39.2346383" lon="16.9207674"><ele>158.66666666666669</ele><time>2026-03-28T14:06:21.699Z</time></trkpt><trkpt lat="39.2345673" lon="16.9208387"><ele>158.0</ele><time>2026-03-28T14:06:24.696Z</time></trkpt><trkpt lat="39.2345041" lon="16.9208958"><ele>157.33333333333334</ele><time>2026-03-28T14:06:26.701Z</time></trkpt><trkpt lat="39.2344643" lon="16.9209631"><ele>156.66666666666666</ele><time>2026-03-28T14:06:29.694Z</time></trkpt><trkpt lat="39.2344259" lon="16.9210323"><ele>156.0</ele><time>2026-03-28T14:06:34.705Z</time></trkpt><trkpt lat="39.2343913" lon="16.9211324"><ele>155.66666666666666</ele><time>2026-03-28T14:06:40.701Z</time></trkpt><trkpt lat="39.234361" lon="16.9212424"><ele>155.33333333333334</ele><time>2026-03-28T14:06:43.695Z</time></trkpt><trkpt lat="39.2343426" lon="16.9213256"><ele>155.0</ele><time>2026-03-28T14:06:45.7Z</time></trkpt><trkpt lat="39.2343342" lon="16.9214337"><ele>154.66666666666669</ele><time>2026-03-28T14:06:47.697Z</time></trkpt><trkpt lat="39.234331" lon="16.9215521"><ele>154.33333333333334</ele><time>2026-03-28T14:06:49.699Z</time></trkpt><trkpt lat="39.2343031" lon="16.921662"><ele>154.0</ele><time>2026-03-28T14:06:51.697Z</time></trkpt><trkpt lat="39.2342487" lon="16.9217656"><ele>155.2</ele><time>2026-03-28T14:06:53.702Z</time></trkpt><trkpt lat="39.2341986" lon="16.9218834"><ele>156.4</ele><time>2026-03-28T14:06:55.709Z</time></trkpt><trkpt lat="39.2341579" lon="16.9220091"><ele>157.6</ele><time>2026-03-28T14:06:57.699Z</time></trkpt><trkpt lat="39.234102" lon="16.9220815"><ele>158.8</ele><time>2026-03-28T14:06:59.703Z</time></trkpt><trkpt lat="39.2340397" lon="16.9221514"><ele>160.0</ele><time>2026-03-28T14:07:14.708Z</time></trkpt><trkpt lat="39.2339713" lon="16.9222278"><ele>160.2</ele><time>2026-03-28T14:07:16.701Z</time></trkpt><trkpt lat="39.2339105" lon="16.9223326"><ele>160.4</ele><time>2026-03-28T14:07:18.698Z</time></trkpt><trkpt lat="39.2338409" lon="16.9224295"><ele>160.60000000000002</ele><time>2026-03-28T14:07:20.7Z</time></trkpt><trkpt lat="39.233754" lon="16.9225455"><ele>160.8</ele><time>2026-03-28T14:07:22.698Z</time></trkpt><trkpt lat="39.233699" lon="16.9226364"><ele>161.0</ele><time>2026-03-28T14:07:24.707Z</time></trkpt><trkpt lat="39.2336317" lon="16.9226841"><ele>160.5</ele><time>2026-03-28T14:07:26.712Z</time></trkpt><trkpt lat="39.2335574" lon="16.922725"><ele>160.0</ele><time>2026-03-28T14:07:28.709Z</time></trkpt><trkpt lat="39.2334822" lon="16.9227676"><ele>159.5</ele><time>2026-03-28T14:07:30.702Z</time></trkpt><trkpt lat="39.2334073" lon="16.9228176"><ele>159.0</ele><time>2026-03-28T14:07:32.713Z</time></trkpt><trkpt lat="39.233343" lon="16.9228803"><ele>158.5</ele><time>2026-03-28T14:07:34.704Z</time></trkpt><trkpt lat="39.2332929" lon="16.9229366"><ele>158.0</ele><time>2026-03-28T14:07:36.703Z</time></trkpt><trkpt lat="39.2332244" lon="16.923025"><ele>158.0</ele><time>2026-03-28T14:07:39.697Z</time></trkpt><trkpt lat="39.2331739" lon="16.9230916"><ele>158.0</ele><time>2026-03-28T14:07:41.699Z</time></trkpt><trkpt lat="39.233109" lon="16.9231611"><ele>158.0</ele><time>2026-03-28T14:07:43.701Z</time></trkpt><trkpt lat="39.2330367" lon="16.9232392"><ele>158.0</ele><time>2026-03-28T14:07:45.709Z</time></trkpt><trkpt lat="39.2329607" lon="16.9233187"><ele>158.0</ele><time>2026-03-28T14:07:47.703Z</time></trkpt><trkpt lat="39.232916" lon="16.9233918"><ele>158.0</ele><time>2026-03-28T14:07:49.698Z</time></trkpt><trkpt lat="39.2328917" lon="16.9234783"><ele>153.83333333333331</ele><time>2026-03-28T14:07:52.703Z</time></trkpt><trkpt lat="39.2328745" lon="16.9235689"><ele>149.66666666666666</ele><time>2026-03-28T14:07:56.716Z</time></trkpt><trkpt lat="39.2328567" lon="16.9236485"><ele>145.5</ele><time>2026-03-28T14:08:01.707Z</time></trkpt><trkpt lat="39.2328415" lon="16.9237503"><ele>141.33333333333334</ele><time>2026-03-28T14:08:04.706Z</time></trkpt><trkpt lat="39.2328386" lon="16.9238551"><ele>137.16666666666669</ele><time>2026-03-28T14:08:07.698Z</time></trkpt><trkpt lat="39.232829" lon="16.9239601"><ele>133.0</ele><time>2026-03-28T14:08:11.703Z</time></trkpt><trkpt lat="39.2328241" lon="16.9240519"><ele>133.0</ele><time>2026-03-28T14:08:14.704Z</time></trkpt><trkpt lat="39.232803" lon="16.9241461"><ele>133.0</ele><time>2026-03-28T14:08:17.704Z</time></trkpt><trkpt lat="39.2327732" lon="16.9242212"><ele>133.0</ele><time>2026-03-28T14:08:25.692Z</time></trkpt><trkpt lat="39.2327354" lon="16.9242889"><ele>133.0</ele><time>2026-03-28T14:08:38.711Z</time></trkpt><trkpt lat="39.2326809" lon="16.924358"><ele>133.0</ele><time>2026-03-28T14:08:45.702Z</time></trkpt><trkpt lat="39.2326629" lon="16.9244459"><ele>133.0</ele><time>2026-03-28T14:08:50.699Z</time></trkpt><trkpt lat="39.2326551" lon="16.9245312"><ele>133.0</ele><time>2026-03-28T14:08:56.696Z</time></trkpt><trkpt lat="39.2326633" lon="16.9246197"><ele>130.8</ele><time>2026-03-28T14:09:00.698Z</time></trkpt><trkpt lat="39.2326758" lon="16.9247242"><ele>128.60000000000002</ele><time>2026-03-28T14:09:05.7Z</time></trkpt><trkpt lat="39.2326808" lon="16.9248125"><ele>126.39999999999999</ele><time>2026-03-28T14:09:07.698Z</time></trkpt><trkpt lat="39.2326934" lon="16.9249309"><ele>124.19999999999999</ele><time>2026-03-28T14:09:09.702Z</time></trkpt><trkpt lat="39.2327026" lon="16.9250608"><ele>122.0</ele><time>2026-03-28T14:09:11.693Z</time></trkpt><trkpt lat="39.2326987" lon="16.9251977"><ele>121.49999999999999</ele><time>2026-03-28T14:09:13.696Z</time></trkpt><trkpt lat="39.2326999" lon="16.9253478"><ele>121.0</ele><time>2026-03-28T14:09:15.694Z</time></trkpt><trkpt lat="39.2326945" lon="16.9254815"><ele>120.5</ele><time>2026-03-28T14:09:17.701Z</time></trkpt><trkpt lat="39.232652" lon="16.9255745"><ele>120.0</ele><time>2026-03-28T14:09:19.696Z</time></trkpt><trkpt lat="39.2326101" lon="16.9256353"><ele>119.49999999999999</ele><time>2026-03-28T14:09:20.706Z</time></trkpt><trkpt lat="39.2325648" lon="16.9256976"><ele>119.0</ele><time>2026-03-28T14:09:21.696Z</time></trkpt><trkpt lat="39.2325069" lon="16.9258036"><ele>117.83333333333333</ele><time>2026-03-28T14:09:23.697Z</time></trkpt><trkpt lat="39.2324793" lon="16.925921"><ele>116.66666666666666</ele><time>2026-03-28T14:09:25.701Z</time></trkpt><trkpt lat="39.2324745" lon="16.9260138"><ele>115.5</ele><time>2026-03-28T14:09:27.7Z</time></trkpt><trkpt lat="39.2324832" lon="16.9260957"><ele>114.33333333333334</ele><time>2026-03-28T14:09:29.702Z</time></trkpt><trkpt lat="39.232479" lon="16.9261931"><ele>113.16666666666667</ele><time>2026-03-28T14:09:32.697Z</time></trkpt><trkpt lat="39.2324787" lon="16.9262951"><ele>112.0</ele><time>2026-03-28T14:09:34.697Z</time></trkpt><trkpt lat="39.2324745" lon="16.926379"><ele>112.0</ele><time>2026-03-28T14:09:36.703Z</time></trkpt><trkpt lat="39.2324586" lon="16.9264756"><ele>112.0</ele><time>2026-03-28T14:09:39.699Z</time></trkpt><trkpt lat="39.2324438" lon="16.9265704"><ele>112.0</ele><time>2026-03-28T14:09:41.698Z</time></trkpt><trkpt lat="39.2324213" lon="16.9266585"><ele>112.0</ele><time>2026-03-28T14:09:43.697Z</time></trkpt><trkpt lat="39.2324006" lon="16.9267588"><ele>112.0</ele><time>2026-03-28T14:09:46.701Z</time></trkpt><trkpt lat="39.2323857" lon="16.9268489"><ele>112.0</ele><time>2026-03-28T14:09:49.706Z</time></trkpt><trkpt lat="39.2323717" lon="16.9269315"><ele>112.0</ele><time>2026-03-28T14:09:52.699Z</time></trkpt><trkpt lat="39.2323466" lon="16.927033"><ele>111.33333333333334</ele><time>2026-03-28T14:09:55.705Z</time></trkpt><trkpt lat="39.2323242" lon="16.9271598"><ele>110.66666666666667</ele><time>2026-03-28T14:09:58.699Z</time></trkpt><trkpt lat="39.232313" lon="16.9272493"><ele>110.0</ele><time>2026-03-28T14:10:00.698Z</time></trkpt><trkpt lat="39.2322989" lon="16.9273457"><ele>109.33333333333334</ele><time>2026-03-28T14:10:02.707Z</time></trkpt><trkpt lat="39.2322904" lon="16.9274486"><ele>108.66666666666667</ele><time>2026-03-28T14:10:04.699Z</time></trkpt><trkpt lat="39.2323376" lon="16.9275462"><ele>108.0</ele><time>2026-03-28T14:10:06.695Z</time></trkpt><trkpt lat="39.2323922" lon="16.9276159"><ele>108.28571428571428</ele><time>2026-03-28T14:10:08.731Z</time></trkpt><trkpt lat="39.2323574" lon="16.9277057"><ele>108.57142857142857</ele><time>2026-03-28T14:10:12.714Z</time></trkpt><trkpt lat="39.2322918" lon="16.9276983"><ele>108.85714285714286</ele><time>2026-03-28T14:10:14.703Z</time></trkpt><trkpt lat="39.232229" lon="16.9276791"><ele>109.14285714285714</ele><time>2026-03-28T14:10:21.703Z</time></trkpt><trkpt lat="39.2321613" lon="16.9276606"><ele>109.42857142857143</ele><time>2026-03-28T14:10:27.706Z</time></trkpt><trkpt lat="39.2320848" lon="16.9277184"><ele>109.71428571428571</ele><time>2026-03-28T14:10:38.7Z</time></trkpt><trkpt lat="39.2320315" lon="16.9277697"><ele>110.0</ele><time>2026-03-28T14:10:42.697Z</time></trkpt><trkpt lat="39.231949" lon="16.9277987"><ele>109.99999999999999</ele><time>2026-03-28T14:10:45.7Z</time></trkpt><trkpt lat="39.2318618" lon="16.9277666"><ele>110.0</ele><time>2026-03-28T14:10:48.701Z</time></trkpt><trkpt lat="39.2317791" lon="16.9277347"><ele>110.0</ele><time>2026-03-28T14:10:51.695Z</time></trkpt><trkpt lat="39.2317165" lon="16.9277201"><ele>110.0</ele><time>2026-03-28T14:10:53.7Z</time></trkpt><trkpt lat="39.2316384" lon="16.9276971"><ele>109.99999999999999</ele><time>2026-03-28T14:10:56.704Z</time></trkpt><trkpt lat="39.2315617" lon="16.9276645"><ele>110.0</ele><time>2026-03-28T14:10:59.701Z</time></trkpt><trkpt lat="39.2314953" lon="16.9276237"><ele>108.66666666666666</ele><time>2026-03-28T14:11:03.703Z</time></trkpt><trkpt lat="39.231432" lon="16.9276056"><ele>107.33333333333333</ele><time>2026-03-28T14:11:06.698Z</time></trkpt><trkpt lat="39.2313713" lon="16.9275766"><ele>106.0</ele><time>2026-03-28T14:11:09.7Z</time></trkpt><trkpt lat="39.2312721" lon="16.9275449"><ele>104.66666666666666</ele><time>2026-03-28T14:11:12.71Z</time></trkpt><trkpt lat="39.231179" lon="16.9275722"><ele>103.33333333333333</ele><time>2026-03-28T14:11:14.697Z</time></trkpt><trkpt lat="39.231138" lon="16.9276369"><ele>102.0</ele><time>2026-03-28T14:11:15.698Z</time></trkpt><trkpt lat="39.2310984" lon="16.9277017"><ele>102.0</ele><time>2026-03-28T14:11:16.7Z</time></trkpt><trkpt lat="39.2310211" lon="16.927815"><ele>102.0</ele><time>2026-03-28T14:11:18.702Z</time></trkpt><trkpt lat="39.2309495" lon="16.9279225"><ele>102.0</ele><time>2026-03-28T14:11:20.705Z</time></trkpt><trkpt lat="39.230873" lon="16.9280551"><ele>102.0</ele><time>2026-03-28T14:11:22.701Z</time></trkpt><trkpt lat="39.23084" lon="16.9281452"><ele>102.0</ele><time>2026-03-28T14:11:23.699Z</time></trkpt><trkpt lat="39.2308168" lon="16.928238"><ele>102.0</ele><time>2026-03-28T14:11:24.704Z</time></trkpt><trkpt lat="39.230819" lon="16.9283399"><ele>102.0</ele><time>2026-03-28T14:11:25.701Z</time></trkpt><trkpt lat="39.2308313" lon="16.9284601"><ele>102.0</ele><time>2026-03-28T14:11:26.706Z</time></trkpt><trkpt lat="39.2308579" lon="16.9285741"><ele>102.0</ele><time>2026-03-28T14:11:27.7Z</time></trkpt><trkpt lat="39.2308975" lon="16.9286815"><ele>102.0</ele><time>2026-03-28T14:11:28.702Z</time></trkpt><trkpt lat="39.230938" lon="16.9287766"><ele>102.0</ele><time>2026-03-28T14:11:29.7Z</time></trkpt><trkpt lat="39.2309497" lon="16.9288761"><ele>101.83333333333333</ele><time>2026-03-28T14:11:30.709Z</time></trkpt><trkpt lat="39.2309455" lon="16.9289899"><ele>101.66666666666666</ele><time>2026-03-28T14:11:31.7Z</time></trkpt><trkpt lat="39.2309432" lon="16.929096"><ele>101.5</ele><time>2026-03-28T14:11:32.703Z</time></trkpt><trkpt lat="39.2309404" lon="16.9291843"><ele>101.33333333333333</ele><time>2026-03-28T14:11:33.698Z</time></trkpt><trkpt lat="39.2309417" lon="16.9292768"><ele>101.16666666666666</ele><time>2026-03-28T14:11:34.702Z</time></trkpt><trkpt lat="39.2309488" lon="16.929383"><ele>101.0</ele><time>2026-03-28T14:11:35.705Z</time></trkpt><trkpt lat="39.2309613" lon="16.9294934"><ele>101.0</ele><time>2026-03-28T14:11:36.704Z</time></trkpt><trkpt lat="39.2309907" lon="16.9296256"><ele>101.0</ele><time>2026-03-28T14:11:37.705Z</time></trkpt><trkpt lat="39.2310403" lon="16.9297756"><ele>101.0</ele><time>2026-03-28T14:11:38.716Z</time></trkpt><trkpt lat="39.2311095" lon="16.9299227"><ele>101.0</ele><time>2026-03-28T14:11:39.704Z</time></trkpt><trkpt lat="39.231183" lon="16.9300573"><ele>100.19999999999999</ele><time>2026-03-28T14:11:40.703Z</time></trkpt><trkpt lat="39.2312513" lon="16.9301761"><ele>99.39999999999999</ele><time>2026-03-28T14:11:41.704Z</time></trkpt><trkpt lat="39.2313104" lon="16.9302786"><ele>98.6</ele><time>2026-03-28T14:11:42.706Z</time></trkpt><trkpt lat="39.2313566" lon="16.9303644"><ele>97.8</ele><time>2026-03-28T14:11:43.703Z</time></trkpt><trkpt lat="39.2313964" lon="16.9304419"><ele>97.0</ele><time>2026-03-28T14:11:44.703Z</time></trkpt><trkpt lat="39.2314674" lon="16.9305565"><ele>98.00000000000001</ele><time>2026-03-28T14:11:46.706Z</time></trkpt><trkpt lat="39.2315351" lon="16.9306546"><ele>99.0</ele><time>2026-03-28T14:11:48.702Z</time></trkpt><trkpt lat="39.2315662" lon="16.9307273"><ele>100.0</ele><time>2026-03-28T14:11:49.702Z</time></trkpt><trkpt lat="39.2315976" lon="16.9308167"><ele>101.0</ele><time>2026-03-28T14:11:50.7Z</time></trkpt><trkpt lat="39.2316312" lon="16.9309142"><ele>102.00000000000001</ele><time>2026-03-28T14:11:51.704Z</time></trkpt><trkpt lat="39.2316678" lon="16.9310047"><ele>103.0</ele><time>2026-03-28T14:11:52.703Z</time></trkpt><trkpt lat="39.2317122" lon="16.9310851"><ele>103.00000000000001</ele><time>2026-03-28T14:11:53.698Z</time></trkpt><trkpt lat="39.2317578" lon="16.931162"><ele>103.0</ele><time>2026-03-28T14:11:54.697Z</time></trkpt><trkpt lat="39.2318025" lon="16.9312388"><ele>103.0</ele><time>2026-03-28T14:11:55.704Z</time></trkpt><trkpt lat="39.2318444" lon="16.9313103"><ele>103.0</ele><time>2026-03-28T14:11:56.703Z</time></trkpt><trkpt lat="39.2318827" lon="16.9313762"><ele>103.00000000000001</ele><time>2026-03-28T14:11:57.705Z</time></trkpt><trkpt lat="39.2319382" lon="16.9314967"><ele>103.0</ele><time>2026-03-28T14:11:59.702Z</time></trkpt><trkpt lat="39.2319579" lon="16.9315956"><ele>103.00000000000001</ele><time>2026-03-28T14:12:01.701Z</time></trkpt><trkpt lat="39.2319526" lon="16.93168"><ele>103.0</ele><time>2026-03-28T14:12:03.707Z</time></trkpt><trkpt lat="39.2319439" lon="16.9317835"><ele>103.0</ele><time>2026-03-28T14:12:05.705Z</time></trkpt><trkpt lat="39.2319328" lon="16.9319126"><ele>103.0</ele><time>2026-03-28T14:12:07.706Z</time></trkpt><trkpt lat="39.231915" lon="16.9320758"><ele>103.00000000000001</ele><time>2026-03-28T14:12:09.701Z</time></trkpt><trkpt lat="39.2319062" lon="16.9321663"><ele>103.0</ele><time>2026-03-28T14:12:10.703Z</time></trkpt><trkpt lat="39.2318983" lon="16.9322582"><ele>102.71428571428571</ele><time>2026-03-28T14:12:11.709Z</time></trkpt><trkpt lat="39.2318938" lon="16.9323488"><ele>102.42857142857143</ele><time>2026-03-28T14:12:12.699Z</time></trkpt><trkpt lat="39.2318937" lon="16.9324397"><ele>102.14285714285714</ele><time>2026-03-28T14:12:13.706Z</time></trkpt><trkpt lat="39.2318989" lon="16.9325338"><ele>101.85714285714286</ele><time>2026-03-28T14:12:14.706Z</time></trkpt><trkpt lat="39.2319104" lon="16.9326313"><ele>101.57142857142857</ele><time>2026-03-28T14:12:15.699Z</time></trkpt><trkpt lat="39.2319271" lon="16.9327254"><ele>101.28571428571428</ele><time>2026-03-28T14:12:16.704Z</time></trkpt><trkpt lat="39.2319522" lon="16.9328158"><ele>101.0</ele><time>2026-03-28T14:12:17.701Z</time></trkpt><trkpt lat="39.2319843" lon="16.9329052"><ele>100.99999999999999</ele><time>2026-03-28T14:12:18.706Z</time></trkpt><trkpt lat="39.2320139" lon="16.9329901"><ele>101.0</ele><time>2026-03-28T14:12:19.702Z</time></trkpt><trkpt lat="39.2320146" lon="16.9330793"><ele>101.0</ele><time>2026-03-28T14:12:20.703Z</time></trkpt><trkpt lat="39.2319986" lon="16.9331822"><ele>101.0</ele><time>2026-03-28T14:12:21.704Z</time></trkpt><trkpt lat="39.2319684" lon="16.933312"><ele>100.99999999999999</ele><time>2026-03-28T14:12:22.702Z</time></trkpt><trkpt lat="39.2319359" lon="16.9334394"><ele>101.0</ele><time>2026-03-28T14:12:23.708Z</time></trkpt><trkpt lat="39.2318957" lon="16.9335498"><ele>100.6</ele><time>2026-03-28T14:12:24.706Z</time></trkpt><trkpt lat="39.2318435" lon="16.9336555"><ele>100.19999999999999</ele><time>2026-03-28T14:12:25.697Z</time></trkpt><trkpt lat="39.2317751" lon="16.9337533"><ele>99.80000000000001</ele><time>2026-03-28T14:12:26.711Z</time></trkpt><trkpt lat="39.2316945" lon="16.9338478"><ele>99.4</ele><time>2026-03-28T14:12:27.711Z</time></trkpt><trkpt lat="39.2316132" lon="16.9339546"><ele>99.0</ele><time>2026-03-28T14:12:28.708Z</time></trkpt><trkpt lat="39.231535" lon="16.9340695"><ele>97.5</ele><time>2026-03-28T14:12:29.704Z</time></trkpt><trkpt lat="39.231462" lon="16.9341889"><ele>96.0</ele><time>2026-03-28T14:12:30.71Z</time></trkpt><trkpt lat="39.2313929" lon="16.9343102"><ele>94.5</ele><time>2026-03-28T14:12:31.708Z</time></trkpt><trkpt lat="39.2313333" lon="16.9344341"><ele>93.0</ele><time>2026-03-28T14:12:32.704Z</time></trkpt><trkpt lat="39.2312828" lon="16.934558"><ele>93.0</ele><time>2026-03-28T14:12:33.706Z</time></trkpt><trkpt lat="39.2312423" lon="16.9346843"><ele>93.0</ele><time>2026-03-28T14:12:34.705Z</time></trkpt><trkpt lat="39.2312051" lon="16.9348098"><ele>93.0</ele><time>2026-03-28T14:12:35.705Z</time></trkpt><trkpt lat="39.2311768" lon="16.9349381"><ele>93.0</ele><time>2026-03-28T14:12:36.714Z</time></trkpt><trkpt lat="39.2311569" lon="16.9350688"><ele>93.0</ele><time>2026-03-28T14:12:37.705Z</time></trkpt><trkpt lat="39.2311406" lon="16.9351862"><ele>93.2</ele><time>2026-03-28T14:12:38.705Z</time></trkpt><trkpt lat="39.2311126" lon="16.9352851"><ele>93.4</ele><time>2026-03-28T14:12:39.705Z</time></trkpt><trkpt lat="39.2310597" lon="16.9353712"><ele>93.60000000000001</ele><time>2026-03-28T14:12:40.702Z</time></trkpt><trkpt lat="39.230985" lon="16.9354457"><ele>93.80000000000001</ele><time>2026-03-28T14:12:41.706Z</time></trkpt><trkpt lat="39.2309113" lon="16.9355296"><ele>94.0</ele><time>2026-03-28T14:12:42.71Z</time></trkpt><trkpt lat="39.230844" lon="16.9356274"><ele>94.0</ele><time>2026-03-28T14:12:43.719Z</time></trkpt><trkpt lat="39.2307861" lon="16.9357222"><ele>94.0</ele><time>2026-03-28T14:12:44.705Z</time></trkpt><trkpt lat="39.2307419" lon="16.935817"><ele>94.0</ele><time>2026-03-28T14:12:45.704Z</time></trkpt><trkpt lat="39.2307036" lon="16.9359037"><ele>94.0</ele><time>2026-03-28T14:12:46.703Z</time></trkpt><trkpt lat="39.2306668" lon="16.9359799"><ele>94.0</ele><time>2026-03-28T14:12:47.703Z</time></trkpt><trkpt lat="39.230602" lon="16.9361085"><ele>94.0</ele><time>2026-03-28T14:12:49.724Z</time></trkpt><trkpt lat="39.2305453" lon="16.9362131"><ele>93.66666666666666</ele><time>2026-03-28T14:12:51.705Z</time></trkpt><trkpt lat="39.2304964" lon="16.9363007"><ele>93.33333333333333</ele><time>2026-03-28T14:12:53.706Z</time></trkpt><trkpt lat="39.2304608" lon="16.9363775"><ele>93.0</ele><time>2026-03-28T14:12:55.708Z</time></trkpt><trkpt lat="39.2304134" lon="16.936484"><ele>92.66666666666667</ele><time>2026-03-28T14:12:58.701Z</time></trkpt><trkpt lat="39.2303649" lon="16.9365715"><ele>92.33333333333334</ele><time>2026-03-28T14:13:00.703Z</time></trkpt><trkpt lat="39.2303075" lon="16.9366812"><ele>92.0</ele><time>2026-03-28T14:13:02.714Z</time></trkpt><trkpt lat="39.2302514" lon="16.9368056"><ele>92.0</ele><time>2026-03-28T14:13:04.71Z</time></trkpt><trkpt lat="39.2301859" lon="16.9369346"><ele>92.0</ele><time>2026-03-28T14:13:06.708Z</time></trkpt><trkpt lat="39.2301509" lon="16.9370029"><ele>92.0</ele><time>2026-03-28T14:13:07.704Z</time></trkpt><trkpt lat="39.2301139" lon="16.937079"><ele>92.0</ele><time>2026-03-28T14:13:08.711Z</time></trkpt><trkpt lat="39.2300742" lon="16.9371624"><ele>92.0</ele><time>2026-03-28T14:13:09.707Z</time></trkpt><trkpt lat="39.2300317" lon="16.9372515"><ele>92.0</ele><time>2026-03-28T14:13:10.705Z</time></trkpt><trkpt lat="39.2299884" lon="16.9373446"><ele>92.0</ele><time>2026-03-28T14:13:11.704Z</time></trkpt><trkpt lat="39.229943" lon="16.9374398"><ele>92.0</ele><time>2026-03-28T14:13:12.703Z</time></trkpt><trkpt lat="39.2298957" lon="16.9375362"><ele>92.0</ele><time>2026-03-28T14:13:13.706Z</time></trkpt><trkpt lat="39.2298467" lon="16.9376332"><ele>92.0</ele><time>2026-03-28T14:13:14.715Z</time></trkpt><trkpt lat="39.2297982" lon="16.9377309"><ele>92.0</ele><time>2026-03-28T14:13:15.711Z</time></trkpt><trkpt lat="39.229753" lon="16.9378311"><ele>92.0</ele><time>2026-03-28T14:13:16.706Z</time></trkpt><trkpt lat="39.2297063" lon="16.9379296"><ele>92.0</ele><time>2026-03-28T14:13:17.7Z</time></trkpt><trkpt lat="39.2296537" lon="16.9380201"><ele>92.0</ele><time>2026-03-28T14:13:18.707Z</time></trkpt><trkpt lat="39.2295956" lon="16.9380961"><ele>92.0</ele><time>2026-03-28T14:13:19.703Z</time></trkpt><trkpt lat="39.2295298" lon="16.938165"><ele>92.0</ele><time>2026-03-28T14:13:20.704Z</time></trkpt><trkpt lat="39.229445" lon="16.9382341"><ele>92.0</ele><time>2026-03-28T14:13:21.707Z</time></trkpt><trkpt lat="39.2293353" lon="16.9383097"><ele>90.0</ele><time>2026-03-28T14:13:22.705Z</time></trkpt><trkpt lat="39.2292048" lon="16.9383987"><ele>88.0</ele><time>2026-03-28T14:13:23.705Z</time></trkpt><trkpt lat="39.2290903" lon="16.9384866"><ele>86.0</ele><time>2026-03-28T14:13:24.704Z</time></trkpt><trkpt lat="39.2290028" lon="16.9385672"><ele>84.0</ele><time>2026-03-28T14:13:25.7Z</time></trkpt><trkpt lat="39.2289375" lon="16.9386614"><ele>84.0</ele><time>2026-03-28T14:13:26.703Z</time></trkpt><trkpt lat="39.2288724" lon="16.9387574"><ele>84.0</ele><time>2026-03-28T14:13:27.708Z</time></trkpt><trkpt lat="39.2288464" lon="16.9388908"><ele>84.0</ele><time>2026-03-28T14:13:28.707Z</time></trkpt><trkpt lat="39.2288262" lon="16.9390311"><ele>84.0</ele><time>2026-03-28T14:13:29.7Z</time></trkpt><trkpt lat="39.2288093" lon="16.9391927"><ele>84.0</ele><time>2026-03-28T14:13:30.71Z</time></trkpt><trkpt lat="39.2287897" lon="16.9393847"><ele>84.0</ele><time>2026-03-28T14:13:31.7Z</time></trkpt><trkpt lat="39.2287727" lon="16.9395678"><ele>84.0</ele><time>2026-03-28T14:13:32.702Z</time></trkpt><trkpt lat="39.2287588" lon="16.9397382"><ele>84.0</ele><time>2026-03-28T14:13:33.698Z</time></trkpt><trkpt lat="39.2287455" lon="16.9398979"><ele>84.0</ele><time>2026-03-28T14:13:34.7Z</time></trkpt><trkpt lat="39.2287315" lon="16.9400552"><ele>83.5</ele><time>2026-03-28T14:13:35.704Z</time></trkpt><trkpt lat="39.2287201" lon="16.9402115"><ele>83.0</ele><time>2026-03-28T14:13:36.698Z</time></trkpt><trkpt lat="39.2287126" lon="16.940372"><ele>82.5</ele><time>2026-03-28T14:13:37.716Z</time></trkpt><trkpt lat="39.2287045" lon="16.940542"><ele>82.0</ele><time>2026-03-28T14:13:38.703Z</time></trkpt><trkpt lat="39.2287" lon="16.9407064"><ele>82.0</ele><time>2026-03-28T14:13:39.709Z</time></trkpt><trkpt lat="39.2286996" lon="16.9408608"><ele>82.0</ele><time>2026-03-28T14:13:40.704Z</time></trkpt><trkpt lat="39.2286985" lon="16.9410028"><ele>82.0</ele><time>2026-03-28T14:13:41.702Z</time></trkpt><trkpt lat="39.2286948" lon="16.9411207"><ele>82.0</ele><time>2026-03-28T14:13:42.704Z</time></trkpt><trkpt lat="39.2286861" lon="16.9412014"><ele>82.0</ele><time>2026-03-28T14:13:43.699Z</time></trkpt><trkpt lat="39.2286819" lon="16.941297"><ele>82.16666666666666</ele><time>2026-03-28T14:13:45.71Z</time></trkpt><trkpt lat="39.2287432" lon="16.9413588"><ele>82.33333333333333</ele><time>2026-03-28T14:13:49.705Z</time></trkpt><trkpt lat="39.2288206" lon="16.9414077"><ele>82.5</ele><time>2026-03-28T14:13:51.705Z</time></trkpt><trkpt lat="39.2288745" lon="16.9414514"><ele>82.66666666666667</ele><time>2026-03-28T14:13:52.706Z</time></trkpt><trkpt lat="39.228935" lon="16.9414943"><ele>82.83333333333334</ele><time>2026-03-28T14:13:53.702Z</time></trkpt><trkpt lat="39.2290489" lon="16.941555"><ele>83.0</ele><time>2026-03-28T14:13:55.707Z</time></trkpt><trkpt lat="39.2291403" lon="16.9415946"><ele>83.0</ele><time>2026-03-28T14:13:57.702Z</time></trkpt><trkpt lat="39.2292256" lon="16.9416444"><ele>83.0</ele><time>2026-03-28T14:14:00.718Z</time></trkpt><trkpt lat="39.2292995" lon="16.9416843"><ele>83.0</ele><time>2026-03-28T14:14:02.709Z</time></trkpt><trkpt lat="39.2293748" lon="16.9417419"><ele>83.0</ele><time>2026-03-28T14:14:05.704Z</time></trkpt><trkpt lat="39.2294285" lon="16.9417914"><ele>83.0</ele><time>2026-03-28T14:14:07.716Z</time></trkpt><trkpt lat="39.2294837" lon="16.9418602"><ele>83.0</ele><time>2026-03-28T14:14:09.707Z</time></trkpt><trkpt lat="39.2295265" lon="16.9419333"><ele>83.66666666666667</ele><time>2026-03-28T14:14:11.712Z</time></trkpt><trkpt lat="39.229573" lon="16.9420135"><ele>84.33333333333334</ele><time>2026-03-28T14:14:14.703Z</time></trkpt><trkpt lat="39.2296187" lon="16.9420925"><ele>85.0</ele><time>2026-03-28T14:14:16.711Z</time></trkpt><trkpt lat="39.2296738" lon="16.9421864"><ele>85.66666666666667</ele><time>2026-03-28T14:14:18.704Z</time></trkpt><trkpt lat="39.2297149" lon="16.9422602"><ele>86.33333333333333</ele><time>2026-03-28T14:14:20.71Z</time></trkpt><trkpt lat="39.2297567" lon="16.9423446"><ele>87.0</ele><time>2026-03-28T14:14:23.711Z</time></trkpt><trkpt lat="39.2298034" lon="16.9424536"><ele>87.83333333333333</ele><time>2026-03-28T14:14:26.706Z</time></trkpt><trkpt lat="39.2298406" lon="16.9425542"><ele>88.66666666666667</ele><time>2026-03-28T14:14:28.712Z</time></trkpt><trkpt lat="39.2298925" lon="16.9426714"><ele>89.5</ele><time>2026-03-28T14:14:30.712Z</time></trkpt><trkpt lat="39.2299708" lon="16.9427667"><ele>90.33333333333334</ele><time>2026-03-28T14:14:32.709Z</time></trkpt><trkpt lat="39.2300254" lon="16.9428171"><ele>91.16666666666667</ele><time>2026-03-28T14:14:33.702Z</time></trkpt><trkpt lat="39.2300738" lon="16.9428777"><ele>92.0</ele><time>2026-03-28T14:14:34.712Z</time></trkpt><trkpt lat="39.2301186" lon="16.9429375"><ele>92.0</ele><time>2026-03-28T14:14:35.705Z</time></trkpt><trkpt lat="39.2302252" lon="16.9430164"><ele>92.0</ele><time>2026-03-28T14:14:37.706Z</time></trkpt><trkpt lat="39.2303399" lon="16.9430795"><ele>92.0</ele><time>2026-03-28T14:14:39.705Z</time></trkpt><trkpt lat="39.2304188" lon="16.943121"><ele>92.0</ele><time>2026-03-28T14:14:41.706Z</time></trkpt><trkpt lat="39.2304942" lon="16.943197"><ele>92.0</ele><time>2026-03-28T14:14:45.705Z</time></trkpt><trkpt lat="39.2305314" lon="16.9432763"><ele>93.19999999999999</ele><time>2026-03-28T14:14:47.704Z</time></trkpt><trkpt lat="39.2305861" lon="16.9434017"><ele>94.4</ele><time>2026-03-28T14:14:49.712Z</time></trkpt><trkpt lat="39.2306421" lon="16.9435582"><ele>95.6</ele><time>2026-03-28T14:14:51.708Z</time></trkpt><trkpt lat="39.2306743" lon="16.9436469"><ele>96.80000000000001</ele><time>2026-03-28T14:14:52.701Z</time></trkpt><trkpt lat="39.2307032" lon="16.9437289"><ele>98.0</ele><time>2026-03-28T14:14:53.703Z</time></trkpt><trkpt lat="39.2307382" lon="16.943803"><ele>97.99999999999999</ele><time>2026-03-28T14:14:54.707Z</time></trkpt><trkpt lat="39.2308006" lon="16.9438967"><ele>98.0</ele><time>2026-03-28T14:14:56.716Z</time></trkpt><trkpt lat="39.2308614" lon="16.943957"><ele>98.0</ele><time>2026-03-28T14:14:59.712Z</time></trkpt><trkpt lat="39.2309356" lon="16.9440139"><ele>98.0</ele><time>2026-03-28T14:15:02.709Z</time></trkpt><trkpt lat="39.2310217" lon="16.9440713"><ele>97.99999999999999</ele><time>2026-03-28T14:15:04.699Z</time></trkpt><trkpt lat="39.23109" lon="16.9441309"><ele>98.0</ele><time>2026-03-28T14:15:05.712Z</time></trkpt><trkpt lat="39.2311647" lon="16.9442131"><ele>100.5</ele><time>2026-03-28T14:15:06.711Z</time></trkpt><trkpt lat="39.2312351" lon="16.9443212"><ele>103.0</ele><time>2026-03-28T14:15:07.701Z</time></trkpt><trkpt lat="39.2312955" lon="16.9444579"><ele>105.5</ele><time>2026-03-28T14:15:08.71Z</time></trkpt><trkpt lat="39.2313427" lon="16.9445864"><ele>108.0</ele><time>2026-03-28T14:15:09.705Z</time></trkpt><trkpt lat="39.2313871" lon="16.9447237"><ele>108.0</ele><time>2026-03-28T14:15:10.702Z</time></trkpt><trkpt lat="39.231432" lon="16.9448474"><ele>108.0</ele><time>2026-03-28T14:15:11.697Z</time></trkpt><trkpt lat="39.2314742" lon="16.944933"><ele>108.0</ele><time>2026-03-28T14:15:12.705Z</time></trkpt><trkpt lat="39.2315144" lon="16.9450059"><ele>108.0</ele><time>2026-03-28T14:15:14.707Z</time></trkpt><trkpt lat="39.2315628" lon="16.9450967"><ele>108.0</ele><time>2026-03-28T14:15:17.703Z</time></trkpt><trkpt lat="39.2316303" lon="16.9451854"><ele>108.0</ele><time>2026-03-28T14:15:20.713Z</time></trkpt><trkpt lat="39.2316917" lon="16.9452514"><ele>108.0</ele><time>2026-03-28T14:15:22.703Z</time></trkpt><trkpt lat="39.2317624" lon="16.9453356"><ele>108.00000000000001</ele><time>2026-03-28T14:15:24.707Z</time></trkpt><trkpt lat="39.2318468" lon="16.9454271"><ele>108.00000000000001</ele><time>2026-03-28T14:15:26.706Z</time></trkpt><trkpt lat="39.2319639" lon="16.945486"><ele>108.0</ele><time>2026-03-28T14:15:28.708Z</time></trkpt><trkpt lat="39.2320272" lon="16.9455115"><ele>108.0</ele><time>2026-03-28T14:15:29.704Z</time></trkpt><trkpt lat="39.2320919" lon="16.945538"><ele>108.0</ele><time>2026-03-28T14:15:30.705Z</time></trkpt><trkpt lat="39.2321543" lon="16.945561"><ele>108.0</ele><time>2026-03-28T14:15:31.713Z</time></trkpt><trkpt lat="39.2322157" lon="16.9455871"><ele>108.0</ele><time>2026-03-28T14:15:32.705Z</time></trkpt><trkpt lat="39.2323057" lon="16.9456249"><ele>108.0</ele><time>2026-03-28T14:15:34.705Z</time></trkpt><trkpt lat="39.2323885" lon="16.9456577"><ele>108.0</ele><time>2026-03-28T14:15:36.712Z</time></trkpt><trkpt lat="39.2324944" lon="16.9456878"><ele>108.0</ele><time>2026-03-28T14:15:38.703Z</time></trkpt><trkpt lat="39.2325947" lon="16.9457188"><ele>107.4</ele><time>2026-03-28T14:15:40.715Z</time></trkpt><trkpt lat="39.2326978" lon="16.9457427"><ele>106.80000000000001</ele><time>2026-03-28T14:15:42.705Z</time></trkpt><trkpt lat="39.2327825" lon="16.945768"><ele>106.2</ele><time>2026-03-28T14:15:44.707Z</time></trkpt><trkpt lat="39.2328697" lon="16.9457798"><ele>105.6</ele><time>2026-03-28T14:15:46.717Z</time></trkpt><trkpt lat="39.2329678" lon="16.9458175"><ele>105.0</ele><time>2026-03-28T14:15:48.716Z</time></trkpt><trkpt lat="39.233064" lon="16.9458478"><ele>105.8</ele><time>2026-03-28T14:15:50.715Z</time></trkpt><trkpt lat="39.2331416" lon="16.9458719"><ele>106.6</ele><time>2026-03-28T14:15:53.715Z</time></trkpt><trkpt lat="39.2332224" lon="16.9458946"><ele>107.4</ele><time>2026-03-28T14:16:04.712Z</time></trkpt><trkpt lat="39.2333233" lon="16.9459183"><ele>108.2</ele><time>2026-03-28T14:16:06.712Z</time></trkpt><trkpt lat="39.2334161" lon="16.9459529"><ele>109.0</ele><time>2026-03-28T14:16:08.714Z</time></trkpt><trkpt lat="39.233501" lon="16.9459901"><ele>110.66666666666667</ele><time>2026-03-28T14:16:10.702Z</time></trkpt><trkpt lat="39.2335681" lon="16.9460182"><ele>112.33333333333334</ele><time>2026-03-28T14:16:12.714Z</time></trkpt><trkpt lat="39.2336365" lon="16.9460477"><ele>114.0</ele><time>2026-03-28T14:16:14.715Z</time></trkpt><trkpt lat="39.2337417" lon="16.9460992"><ele>115.66666666666666</ele><time>2026-03-28T14:16:16.71Z</time></trkpt><trkpt lat="39.2338047" lon="16.9461324"><ele>117.33333333333333</ele><time>2026-03-28T14:16:17.707Z</time></trkpt><trkpt lat="39.2338697" lon="16.9461615"><ele>119.0</ele><time>2026-03-28T14:16:18.711Z</time></trkpt><trkpt lat="39.2339793" lon="16.9462067"><ele>118.99999999999999</ele><time>2026-03-28T14:16:20.709Z</time></trkpt><trkpt lat="39.234078" lon="16.946242"><ele>119.0</ele><time>2026-03-28T14:16:22.7Z</time></trkpt><trkpt lat="39.23419" lon="16.9462724"><ele>119.0</ele><time>2026-03-28T14:16:24.705Z</time></trkpt><trkpt lat="39.2342683" lon="16.9462643"><ele>119.0</ele><time>2026-03-28T14:16:26.708Z</time></trkpt><trkpt lat="39.234331" lon="16.9462405"><ele>118.99999999999999</ele><time>2026-03-28T14:16:28.71Z</time></trkpt><trkpt lat="39.2343966" lon="16.9462136"><ele>119.0</ele><time>2026-03-28T14:16:29.698Z</time></trkpt><trkpt lat="39.2344723" lon="16.9461813"><ele>119.0</ele><time>2026-03-28T14:16:30.7Z</time></trkpt><trkpt lat="39.2345746" lon="16.9461186"><ele>119.0</ele><time>2026-03-28T14:16:31.701Z</time></trkpt><trkpt lat="39.2346786" lon="16.9460595"><ele>119.0</ele><time>2026-03-28T14:16:32.705Z</time></trkpt><trkpt lat="39.2347702" lon="16.9460008"><ele>119.0</ele><time>2026-03-28T14:16:33.71Z</time></trkpt><trkpt lat="39.2348562" lon="16.9459482"><ele>119.0</ele><time>2026-03-28T14:16:34.708Z</time></trkpt><trkpt lat="39.2349282" lon="16.9459066"><ele>119.49999999999999</ele><time>2026-03-28T14:16:35.701Z</time></trkpt><trkpt lat="39.2349895" lon="16.9458476"><ele>120.0</ele><time>2026-03-28T14:16:36.701Z</time></trkpt><trkpt lat="39.2350435" lon="16.9457685"><ele>120.5</ele><time>2026-03-28T14:16:38.709Z</time></trkpt><trkpt lat="39.2351374" lon="16.9457367"><ele>121.0</ele><time>2026-03-28T14:16:40.71Z</time></trkpt><trkpt lat="39.235202" lon="16.9457396"><ele>121.49999999999999</ele><time>2026-03-28T14:16:41.704Z</time></trkpt><trkpt lat="39.2352745" lon="16.9457419"><ele>122.0</ele><time>2026-03-28T14:16:42.706Z</time></trkpt><trkpt lat="39.2353539" lon="16.945752"><ele>121.99999999999999</ele><time>2026-03-28T14:16:43.702Z</time></trkpt><trkpt lat="39.2354373" lon="16.9457633"><ele>122.0</ele><time>2026-03-28T14:16:44.706Z</time></trkpt><trkpt lat="39.2355279" lon="16.9457623"><ele>122.0</ele><time>2026-03-28T14:16:45.7Z</time></trkpt><trkpt lat="39.2356228" lon="16.9457835"><ele>122.0</ele><time>2026-03-28T14:16:46.703Z</time></trkpt><trkpt lat="39.2357049" lon="16.945802"><ele>121.99999999999999</ele><time>2026-03-28T14:16:47.709Z</time></trkpt><trkpt lat="39.2357736" lon="16.9458352"><ele>122.0</ele><time>2026-03-28T14:16:48.714Z</time></trkpt><trkpt lat="39.2358721" lon="16.9458742"><ele>125.0</ele><time>2026-03-28T14:16:50.709Z</time></trkpt><trkpt lat="39.2359449" lon="16.9458983"><ele>127.99999999999999</ele><time>2026-03-28T14:16:53.706Z</time></trkpt><trkpt lat="39.2360061" lon="16.9459666"><ele>131.0</ele><time>2026-03-28T14:16:55.705Z</time></trkpt><trkpt lat="39.2360312" lon="16.9460772"><ele>134.0</ele><time>2026-03-28T14:16:57.706Z</time></trkpt><trkpt lat="39.236059" lon="16.9461914"><ele>137.0</ele><time>2026-03-28T14:16:59.713Z</time></trkpt><trkpt lat="39.2361044" lon="16.9463232"><ele>137.0</ele><time>2026-03-28T14:17:01.712Z</time></trkpt><trkpt lat="39.2361625" lon="16.9464602"><ele>137.0</ele><time>2026-03-28T14:17:03.704Z</time></trkpt><trkpt lat="39.2362219" lon="16.9465949"><ele>137.0</ele><time>2026-03-28T14:17:05.711Z</time></trkpt><trkpt lat="39.2362854" lon="16.9467132"><ele>137.0</ele><time>2026-03-28T14:17:07.703Z</time></trkpt><trkpt lat="39.2364" lon="16.9468226"><ele>140.6</ele><time>2026-03-28T14:17:09.707Z</time></trkpt><trkpt lat="39.2364697" lon="16.9468658"><ele>144.2</ele><time>2026-03-28T14:17:10.702Z</time></trkpt><trkpt lat="39.2365304" lon="16.9469046"><ele>147.8</ele><time>2026-03-28T14:17:11.708Z</time></trkpt><trkpt lat="39.2366175" lon="16.9469845"><ele>151.4</ele><time>2026-03-28T14:17:13.708Z</time></trkpt><trkpt lat="39.2367109" lon="16.9470585"><ele>155.0</ele><time>2026-03-28T14:17:15.715Z</time></trkpt><trkpt lat="39.2368159" lon="16.9471441"><ele>155.0</ele><time>2026-03-28T14:17:17.702Z</time></trkpt><trkpt lat="39.2368783" lon="16.9471952"><ele>155.0</ele><time>2026-03-28T14:17:18.7Z</time></trkpt><trkpt lat="39.2369405" lon="16.9472713"><ele>155.0</ele><time>2026-03-28T14:17:19.703Z</time></trkpt><trkpt lat="39.2369996" lon="16.9473439"><ele>155.0</ele><time>2026-03-28T14:17:20.706Z</time></trkpt><trkpt lat="39.2370383" lon="16.9474166"><ele>155.0</ele><time>2026-03-28T14:17:21.702Z</time></trkpt><trkpt lat="39.2370684" lon="16.9474896"><ele>155.0</ele><time>2026-03-28T14:17:22.71Z</time></trkpt><trkpt lat="39.2370935" lon="16.9475673"><ele>155.0</ele><time>2026-03-28T14:17:23.7Z</time></trkpt><trkpt lat="39.237109" lon="16.9476905"><ele>156.33333333333331</ele><time>2026-03-28T14:17:25.704Z</time></trkpt><trkpt lat="39.2370687" lon="16.9477825"><ele>157.66666666666666</ele><time>2026-03-28T14:17:27.701Z</time></trkpt><trkpt lat="39.2370314" lon="16.9478929"><ele>159.0</ele><time>2026-03-28T14:17:30.711Z</time></trkpt><trkpt lat="39.2370188" lon="16.947978"><ele>160.33333333333334</ele><time>2026-03-28T14:17:32.704Z</time></trkpt><trkpt lat="39.2369871" lon="16.9480631"><ele>161.66666666666669</ele><time>2026-03-28T14:18:41.702Z</time></trkpt><trkpt lat="39.2369654" lon="16.9481986"><ele>163.0</ele><time>2026-03-28T14:18:44.702Z</time></trkpt><trkpt lat="39.2369489" lon="16.9482908"><ele>163.0</ele><time>2026-03-28T14:18:46.705Z</time></trkpt><trkpt lat="39.2369433" lon="16.948372"><ele>163.0</ele><time>2026-03-28T14:18:49.706Z</time></trkpt><trkpt lat="39.2369751" lon="16.9484557"><ele>163.0</ele><time>2026-03-28T14:18:53.703Z</time></trkpt><trkpt lat="39.2370136" lon="16.9485434"><ele>163.0</ele><time>2026-03-28T14:18:56.71Z</time></trkpt><trkpt lat="39.237055" lon="16.9486384"><ele>163.0</ele><time>2026-03-28T14:18:59.713Z</time></trkpt><trkpt lat="39.2370941" lon="16.9487187"><ele>163.0</ele><time>2026-03-28T14:19:01.707Z</time></trkpt><trkpt lat="39.2371412" lon="16.948799"><ele>163.0</ele><time>2026-03-28T14:19:03.706Z</time></trkpt><trkpt lat="39.2371693" lon="16.9488732"><ele>163.2857142857143</ele><time>2026-03-28T14:19:05.704Z</time></trkpt><trkpt lat="39.2372062" lon="16.9489699"><ele>163.57142857142856</ele><time>2026-03-28T14:19:08.707Z</time></trkpt><trkpt lat="39.2372419" lon="16.9490642"><ele>163.85714285714286</ele><time>2026-03-28T14:19:10.698Z</time></trkpt><trkpt lat="39.2372778" lon="16.9491446"><ele>164.14285714285717</ele><time>2026-03-28T14:19:13.709Z</time></trkpt><trkpt lat="39.2373126" lon="16.9492168"><ele>164.42857142857144</ele><time>2026-03-28T14:19:25.709Z</time></trkpt><trkpt lat="39.2373482" lon="16.9492992"><ele>164.71428571428572</ele><time>2026-03-28T14:19:29.705Z</time></trkpt><trkpt lat="39.2373775" lon="16.9493758"><ele>165.0</ele><time>2026-03-28T14:19:32.7Z</time></trkpt><trkpt lat="39.2374095" lon="16.9494518"><ele>162.85714285714286</ele><time>2026-03-28T14:19:35.704Z</time></trkpt><trkpt lat="39.2374337" lon="16.949536"><ele>160.71428571428572</ele><time>2026-03-28T14:19:38.708Z</time></trkpt><trkpt lat="39.2374361" lon="16.9496242"><ele>158.57142857142856</ele><time>2026-03-28T14:19:41.702Z</time></trkpt><trkpt lat="39.2374254" lon="16.9497341"><ele>156.42857142857144</ele><time>2026-03-28T14:19:44.705Z</time></trkpt><trkpt lat="39.2374325" lon="16.9498341"><ele>154.28571428571428</ele><time>2026-03-28T14:19:47.7Z</time></trkpt><trkpt lat="39.2374543" lon="16.9499341"><ele>152.14285714285714</ele><time>2026-03-28T14:19:50.705Z</time></trkpt><trkpt lat="39.2374936" lon="16.9500041"><ele>150.0</ele><time>2026-03-28T14:19:52.702Z</time></trkpt><trkpt lat="39.2375488" lon="16.9500616"><ele>149.14285714285714</ele><time>2026-03-28T14:19:54.7Z</time></trkpt><trkpt lat="39.2376145" lon="16.9501205"><ele>148.28571428571428</ele><time>2026-03-28T14:19:56.702Z</time></trkpt><trkpt lat="39.2376792" lon="16.9501933"><ele>147.42857142857144</ele><time>2026-03-28T14:19:58.699Z</time></trkpt><trkpt lat="39.2377099" lon="16.9502835"><ele>146.57142857142856</ele><time>2026-03-28T14:20:01.698Z</time></trkpt><trkpt lat="39.2376998" lon="16.9503648"><ele>145.71428571428572</ele><time>2026-03-28T14:20:11.711Z</time></trkpt><trkpt lat="39.2377042" lon="16.9504502"><ele>144.85714285714286</ele><time>2026-03-28T14:20:14.705Z</time></trkpt><trkpt lat="39.2377254" lon="16.9505453"><ele>144.0</ele><time>2026-03-28T14:20:17.701Z</time></trkpt><trkpt lat="39.2377381" lon="16.9506566"><ele>144.0</ele><time>2026-03-28T14:20:20.705Z</time></trkpt><trkpt lat="39.2377485" lon="16.9507605"><ele>144.0</ele><time>2026-03-28T14:20:23.702Z</time></trkpt><trkpt lat="39.2377603" lon="16.9508535"><ele>144.0</ele><time>2026-03-28T14:20:26.7Z</time></trkpt><trkpt lat="39.2377835" lon="16.950947"><ele>144.0</ele><time>2026-03-28T14:20:29.71Z</time></trkpt><trkpt lat="39.2378136" lon="16.9510446"><ele>144.0</ele><time>2026-03-28T14:20:33.702Z</time></trkpt><trkpt lat="39.237841" lon="16.9511213"><ele>144.0</ele><time>2026-03-28T14:20:37.711Z</time></trkpt><trkpt lat="39.2378734" lon="16.9512143"><ele>142.85714285714286</ele><time>2026-03-28T14:20:40.703Z</time></trkpt><trkpt lat="39.2379014" lon="16.951311"><ele>141.71428571428572</ele><time>2026-03-28T14:20:43.7Z</time></trkpt><trkpt lat="39.2379288" lon="16.9514008"><ele>140.57142857142856</ele><time>2026-03-28T14:20:47.707Z</time></trkpt><trkpt lat="39.2379577" lon="16.9514819"><ele>139.42857142857144</ele><time>2026-03-28T14:20:50.704Z</time></trkpt><trkpt lat="39.2379916" lon="16.9515774"><ele>138.28571428571428</ele><time>2026-03-28T14:20:55.709Z</time></trkpt><trkpt lat="39.2380137" lon="16.9516555"><ele>137.14285714285714</ele><time>2026-03-28T14:20:57.709Z</time></trkpt><trkpt lat="39.2380451" lon="16.9517349"><ele>136.0</ele><time>2026-03-28T14:20:59.704Z</time></trkpt><trkpt lat="39.2380938" lon="16.9518343"><ele>135.33333333333334</ele><time>2026-03-28T14:21:02.707Z</time></trkpt><trkpt lat="39.2381339" lon="16.9519179"><ele>134.66666666666669</ele><time>2026-03-28T14:21:05.711Z</time></trkpt><trkpt lat="39.2381786" lon="16.9520055"><ele>134.0</ele><time>2026-03-28T14:21:09.704Z</time></trkpt><trkpt lat="39.2382164" lon="16.9520833"><ele>133.33333333333334</ele><time>2026-03-28T14:21:12.705Z</time></trkpt><trkpt lat="39.238251" lon="16.9521615"><ele>132.66666666666666</ele><time>2026-03-28T14:21:15.703Z</time></trkpt><trkpt lat="39.2382838" lon="16.952266"><ele>132.0</ele><time>2026-03-28T14:21:18.707Z</time></trkpt><trkpt lat="39.2383183" lon="16.9523582"><ele>134.5</ele><time>2026-03-28T14:21:20.699Z</time></trkpt><trkpt lat="39.2383576" lon="16.9524476"><ele>137.0</ele><time>2026-03-28T14:21:22.701Z</time></trkpt><trkpt lat="39.2383905" lon="16.9525253"><ele>139.5</ele><time>2026-03-28T14:21:24.711Z</time></trkpt><trkpt lat="39.2384374" lon="16.9526124"><ele>142.0</ele><time>2026-03-28T14:21:51.712Z</time></trkpt><trkpt lat="39.2384803" lon="16.9527096"><ele>144.5</ele><time>2026-03-28T14:21:54.708Z</time></trkpt><trkpt lat="39.2385219" lon="16.9528138"><ele>147.0</ele><time>2026-03-28T14:21:57.711Z</time></trkpt><trkpt lat="39.2385578" lon="16.95289"><ele>147.16666666666666</ele><time>2026-03-28T14:22:18.703Z</time></trkpt><trkpt lat="39.2385978" lon="16.9529849"><ele>147.33333333333334</ele><time>2026-03-28T14:22:45.711Z</time></trkpt><trkpt lat="39.238633" lon="16.9530704"><ele>147.5</ele><time>2026-03-28T14:22:47.702Z</time></trkpt><trkpt lat="39.2386687" lon="16.953148"><ele>147.66666666666669</ele><time>2026-03-28T14:22:49.708Z</time></trkpt><trkpt lat="39.2387149" lon="16.9532454"><ele>147.83333333333334</ele><time>2026-03-28T14:22:52.702Z</time></trkpt><trkpt lat="39.238748" lon="16.9533382"><ele>148.0</ele><time>2026-03-28T14:22:55.716Z</time></trkpt><trkpt lat="39.2387646" lon="16.9534607"><ele>148.0</ele><time>2026-03-28T14:22:58.708Z</time></trkpt><trkpt lat="39.2387668" lon="16.9535425"><ele>148.0</ele><time>2026-03-28T14:23:00.697Z</time></trkpt><trkpt lat="39.2387696" lon="16.9536341"><ele>148.0</ele><time>2026-03-28T14:23:02.699Z</time></trkpt><trkpt lat="39.2387702" lon="16.9537436"><ele>148.0</ele><time>2026-03-28T14:23:04.707Z</time></trkpt><trkpt lat="39.2387823" lon="16.9538697"><ele>148.0</ele><time>2026-03-28T14:23:06.706Z</time></trkpt><trkpt lat="39.2388365" lon="16.9539674"><ele>148.0</ele><time>2026-03-28T14:23:08.705Z</time></trkpt><trkpt lat="39.2388961" lon="16.954032"><ele>148.0</ele><time>2026-03-28T14:23:10.701Z</time></trkpt><trkpt lat="39.2389556" lon="16.9541001"><ele>148.0</ele><time>2026-03-28T14:23:12.706Z</time></trkpt><trkpt lat="39.239018" lon="16.9541667"><ele>148.0</ele><time>2026-03-28T14:23:14.712Z</time></trkpt><trkpt lat="39.2390772" lon="16.9542551"><ele>148.0</ele><time>2026-03-28T14:23:16.709Z</time></trkpt><trkpt lat="39.23913" lon="16.9543571"><ele>148.0</ele><time>2026-03-28T14:23:18.707Z</time></trkpt><trkpt lat="39.2391892" lon="16.9544912"><ele>151.0</ele><time>2026-03-28T14:23:20.706Z</time></trkpt><trkpt lat="39.2392282" lon="16.9545741"><ele>154.0</ele><time>2026-03-28T14:23:21.704Z</time></trkpt><trkpt lat="39.2392677" lon="16.9546562"><ele>157.0</ele><time>2026-03-28T14:23:22.703Z</time></trkpt><trkpt lat="39.2393066" lon="16.954722"><ele>160.0</ele><time>2026-03-28T14:23:23.704Z</time></trkpt><trkpt lat="39.2393484" lon="16.9547976"><ele>163.0</ele><time>2026-03-28T14:23:24.706Z</time></trkpt><trkpt lat="39.2393998" lon="16.9548724"><ele>166.0</ele><time>2026-03-28T14:23:25.701Z</time></trkpt><trkpt lat="39.2394713" lon="16.9549518"><ele>166.0</ele><time>2026-03-28T14:23:26.713Z</time></trkpt><trkpt lat="39.2395329" lon="16.955009"><ele>166.0</ele><time>2026-03-28T14:23:27.703Z</time></trkpt><trkpt lat="39.2395901" lon="16.9550623"><ele>166.0</ele><time>2026-03-28T14:23:28.707Z</time></trkpt><trkpt lat="39.2397181" lon="16.9551144"><ele>166.0</ele><time>2026-03-28T14:23:30.707Z</time></trkpt><trkpt lat="39.2397864" lon="16.9551345"><ele>166.0</ele><time>2026-03-28T14:23:31.701Z</time></trkpt><trkpt lat="39.2398547" lon="16.9551611"><ele>166.0</ele><time>2026-03-28T14:23:32.708Z</time></trkpt><trkpt lat="39.2399185" lon="16.955184"><ele>166.42857142857142</ele><time>2026-03-28T14:23:33.705Z</time></trkpt><trkpt lat="39.239982" lon="16.955211"><ele>166.85714285714286</ele><time>2026-03-28T14:23:34.709Z</time></trkpt><trkpt lat="39.2400448" lon="16.9552427"><ele>167.28571428571428</ele><time>2026-03-28T14:23:35.702Z</time></trkpt><trkpt lat="39.2401075" lon="16.9552702"><ele>167.71428571428572</ele><time>2026-03-28T14:23:36.702Z</time></trkpt><trkpt lat="39.2401686" lon="16.955292"><ele>168.14285714285714</ele><time>2026-03-28T14:23:37.708Z</time></trkpt><trkpt lat="39.2402732" lon="16.9553156"><ele>168.57142857142858</ele><time>2026-03-28T14:23:39.711Z</time></trkpt><trkpt lat="39.2403432" lon="16.9553112"><ele>169.0</ele><time>2026-03-28T14:23:41.702Z</time></trkpt><trkpt lat="39.2404294" lon="16.9552776"><ele>169.0</ele><time>2026-03-28T14:23:44.704Z</time></trkpt><trkpt lat="39.2405079" lon="16.9552762"><ele>169.0</ele><time>2026-03-28T14:23:46.706Z</time></trkpt><trkpt lat="39.2405981" lon="16.9552945"><ele>169.0</ele><time>2026-03-28T14:23:48.712Z</time></trkpt><trkpt lat="39.240685" lon="16.9552972"><ele>169.0</ele><time>2026-03-28T14:23:50.704Z</time></trkpt><trkpt lat="39.2407878" lon="16.9552553"><ele>169.0</ele><time>2026-03-28T14:23:52.705Z</time></trkpt><trkpt lat="39.2409033" lon="16.9552406"><ele>169.0</ele><time>2026-03-28T14:23:54.698Z</time></trkpt><trkpt lat="39.2410038" lon="16.9552775"><ele>169.0</ele><time>2026-03-28T14:23:56.698Z</time></trkpt><trkpt lat="39.241085" lon="16.9553532"><ele>169.0</ele><time>2026-03-28T14:23:58.709Z</time></trkpt><trkpt lat="39.2411459" lon="16.9554093"><ele>169.0</ele><time>2026-03-28T14:24:00.708Z</time></trkpt><trkpt lat="39.2412039" lon="16.9554505"><ele>169.0</ele><time>2026-03-28T14:24:02.704Z</time></trkpt><trkpt lat="39.2412847" lon="16.9554729"><ele>169.0</ele><time>2026-03-28T14:24:06.704Z</time></trkpt><trkpt lat="39.241357" lon="16.9555268"><ele>169.0</ele><time>2026-03-28T14:24:10.701Z</time></trkpt><trkpt lat="39.2414016" lon="16.9555875"><ele>169.0</ele><time>2026-03-28T14:24:13.7Z</time></trkpt><trkpt lat="39.2414549" lon="16.9556454"><ele>169.0</ele><time>2026-03-28T14:24:16.698Z</time></trkpt><trkpt lat="39.241536" lon="16.9556928"><ele>169.0</ele><time>2026-03-28T14:24:19.706Z</time></trkpt><trkpt lat="39.2416119" lon="16.955729"><ele>169.0</ele><time>2026-03-28T14:24:22.704Z</time></trkpt><trkpt lat="39.2416772" lon="16.9557534"><ele>169.0</ele><time>2026-03-28T14:24:24.704Z</time></trkpt><trkpt lat="39.2417495" lon="16.9558066"><ele>168.2</ele><time>2026-03-28T14:24:26.7Z</time></trkpt><trkpt lat="39.2418294" lon="16.9558757"><ele>167.39999999999998</ele><time>2026-03-28T14:24:28.705Z</time></trkpt><trkpt lat="39.2419197" lon="16.9559394"><ele>166.6</ele><time>2026-03-28T14:24:30.708Z</time></trkpt><trkpt lat="39.2420174" lon="16.9559565"><ele>165.8</ele><time>2026-03-28T14:24:32.699Z</time></trkpt><trkpt lat="39.2421137" lon="16.9559664"><ele>165.0</ele><time>2026-03-28T14:24:34.698Z</time></trkpt><trkpt lat="39.242199" lon="16.9560656"><ele>165.0</ele><time>2026-03-28T14:24:36.704Z</time></trkpt><trkpt lat="39.2422395" lon="16.9561332"><ele>165.0</ele><time>2026-03-28T14:24:37.706Z</time></trkpt><trkpt lat="39.2423062" lon="16.956258"><ele>165.0</ele><time>2026-03-28T14:24:39.703Z</time></trkpt><trkpt lat="39.242339" lon="16.9563789"><ele>165.0</ele><time>2026-03-28T14:24:41.704Z</time></trkpt><trkpt lat="39.2423151" lon="16.9564962"><ele>165.0</ele><time>2026-03-28T14:24:43.706Z</time></trkpt><trkpt lat="39.2423142" lon="16.9566252"><ele>165.83333333333334</ele><time>2026-03-28T14:24:45.703Z</time></trkpt><trkpt lat="39.2423549" lon="16.9567002"><ele>166.66666666666666</ele><time>2026-03-28T14:24:46.704Z</time></trkpt><trkpt lat="39.2423981" lon="16.9567827"><ele>167.5</ele><time>2026-03-28T14:24:47.709Z</time></trkpt><trkpt lat="39.242432" lon="16.9568647"><ele>168.33333333333331</ele><time>2026-03-28T14:24:48.702Z</time></trkpt><trkpt lat="39.2424672" lon="16.956939"><ele>169.16666666666666</ele><time>2026-03-28T14:24:49.699Z</time></trkpt><trkpt lat="39.2424986" lon="16.957014"><ele>170.0</ele><time>2026-03-28T14:24:50.702Z</time></trkpt><trkpt lat="39.2425617" lon="16.9571499"><ele>170.0</ele><time>2026-03-28T14:24:52.706Z</time></trkpt><trkpt lat="39.242621" lon="16.9572862"><ele>170.0</ele><time>2026-03-28T14:24:54.704Z</time></trkpt><trkpt lat="39.2426703" lon="16.9574199"><ele>170.0</ele><time>2026-03-28T14:24:56.702Z</time></trkpt><trkpt lat="39.2426801" lon="16.957585"><ele>170.0</ele><time>2026-03-28T14:24:58.7Z</time></trkpt><trkpt lat="39.2426633" lon="16.9576742"><ele>170.0</ele><time>2026-03-28T14:24:59.703Z</time></trkpt><trkpt lat="39.2426463" lon="16.9577683"><ele>168.5</ele><time>2026-03-28T14:25:00.707Z</time></trkpt><trkpt lat="39.2426405" lon="16.9578631"><ele>167.0</ele><time>2026-03-28T14:25:01.707Z</time></trkpt><trkpt lat="39.2426347" lon="16.9579555"><ele>165.5</ele><time>2026-03-28T14:25:02.706Z</time></trkpt><trkpt lat="39.2426433" lon="16.9580361"><ele>164.0</ele><time>2026-03-28T14:25:03.702Z</time></trkpt><trkpt lat="39.2426763" lon="16.9581388"><ele>162.5</ele><time>2026-03-28T14:25:05.702Z</time></trkpt><trkpt lat="39.2427101" lon="16.9582224"><ele>161.0</ele><time>2026-03-28T14:25:07.708Z</time></trkpt><trkpt lat="39.2427352" lon="16.9583293"><ele>159.66666666666666</ele><time>2026-03-28T14:25:09.708Z</time></trkpt><trkpt lat="39.2427588" lon="16.9584293"><ele>158.33333333333331</ele><time>2026-03-28T14:25:11.705Z</time></trkpt><trkpt lat="39.2427847" lon="16.9585268"><ele>157.0</ele><time>2026-03-28T14:25:13.708Z</time></trkpt><trkpt lat="39.2428104" lon="16.9586338"><ele>155.66666666666666</ele><time>2026-03-28T14:25:15.702Z</time></trkpt><trkpt lat="39.2428173" lon="16.9587394"><ele>154.33333333333334</ele><time>2026-03-28T14:25:17.705Z</time></trkpt><trkpt lat="39.2428202" lon="16.9588805"><ele>153.0</ele><time>2026-03-28T14:25:19.704Z</time></trkpt><trkpt lat="39.2428387" lon="16.9590279"><ele>153.0</ele><time>2026-03-28T14:25:21.703Z</time></trkpt><trkpt lat="39.2428716" lon="16.9591771"><ele>153.0</ele><time>2026-03-28T14:25:23.701Z</time></trkpt><trkpt lat="39.2429497" lon="16.9592979"><ele>153.0</ele><time>2026-03-28T14:25:25.704Z</time></trkpt><trkpt lat="39.2430048" lon="16.9593493"><ele>153.0</ele><time>2026-03-28T14:25:26.703Z</time></trkpt><trkpt lat="39.2430655" lon="16.9594097"><ele>153.0</ele><time>2026-03-28T14:25:27.703Z</time></trkpt><trkpt lat="39.2431316" lon="16.9594757"><ele>150.33333333333334</ele><time>2026-03-28T14:25:28.707Z</time></trkpt><trkpt lat="39.2431965" lon="16.9595423"><ele>147.66666666666666</ele><time>2026-03-28T14:25:29.703Z</time></trkpt><trkpt lat="39.2432583" lon="16.9596202"><ele>145.0</ele><time>2026-03-28T14:25:30.707Z</time></trkpt><trkpt lat="39.2433093" lon="16.9597172"><ele>142.33333333333331</ele><time>2026-03-28T14:25:31.7Z</time></trkpt><trkpt lat="39.2433417" lon="16.9598254"><ele>139.66666666666666</ele><time>2026-03-28T14:25:32.708Z</time></trkpt><trkpt lat="39.2433626" lon="16.9599234"><ele>137.0</ele><time>2026-03-28T14:25:33.706Z</time></trkpt><trkpt lat="39.2433856" lon="16.9600099"><ele>136.85714285714286</ele><time>2026-03-28T14:25:34.702Z</time></trkpt><trkpt lat="39.2434135" lon="16.9600953"><ele>136.71428571428572</ele><time>2026-03-28T14:25:35.704Z</time></trkpt><trkpt lat="39.2434428" lon="16.9601884"><ele>136.57142857142856</ele><time>2026-03-28T14:25:36.702Z</time></trkpt><trkpt lat="39.2434753" lon="16.9602844"><ele>136.42857142857144</ele><time>2026-03-28T14:25:37.695Z</time></trkpt><trkpt lat="39.2435056" lon="16.9603751"><ele>136.28571428571428</ele><time>2026-03-28T14:25:38.702Z</time></trkpt><trkpt lat="39.2435374" lon="16.9604543"><ele>136.14285714285714</ele><time>2026-03-28T14:25:39.702Z</time></trkpt><trkpt lat="39.2435707" lon="16.9605244"><ele>136.0</ele><time>2026-03-28T14:25:40.697Z</time></trkpt><trkpt lat="39.243613" lon="16.9605888"><ele>136.0</ele><time>2026-03-28T14:25:41.693Z</time></trkpt><trkpt lat="39.2437118" lon="16.9606801"><ele>136.0</ele><time>2026-03-28T14:25:43.699Z</time></trkpt><trkpt lat="39.2437712" lon="16.9607124"><ele>136.0</ele><time>2026-03-28T14:25:44.698Z</time></trkpt><trkpt lat="39.243832" lon="16.9607463"><ele>136.0</ele><time>2026-03-28T14:25:45.705Z</time></trkpt><trkpt lat="39.2438917" lon="16.9608142"><ele>136.0</ele><time>2026-03-28T14:25:46.702Z</time></trkpt><trkpt lat="39.2439466" lon="16.9608789"><ele>136.0</ele><time>2026-03-28T14:25:47.699Z</time></trkpt><trkpt lat="39.2440143" lon="16.9609778"><ele>136.2</ele><time>2026-03-28T14:25:49.694Z</time></trkpt><trkpt lat="39.2440709" lon="16.9610678"><ele>136.39999999999998</ele><time>2026-03-28T14:25:51.701Z</time></trkpt><trkpt lat="39.2441659" lon="16.9610955"><ele>136.6</ele><time>2026-03-28T14:25:53.698Z</time></trkpt><trkpt lat="39.2442839" lon="16.9610649"><ele>136.79999999999998</ele><time>2026-03-28T14:25:55.698Z</time></trkpt><trkpt lat="39.2443577" lon="16.9610346"><ele>137.0</ele><time>2026-03-28T14:25:56.699Z</time></trkpt><trkpt lat="39.2444335" lon="16.960992"><ele>137.0</ele><time>2026-03-28T14:25:57.696Z</time></trkpt><trkpt lat="39.2445122" lon="16.9609422"><ele>137.0</ele><time>2026-03-28T14:25:58.704Z</time></trkpt><trkpt lat="39.2446017" lon="16.9609006"><ele>137.0</ele><time>2026-03-28T14:25:59.703Z</time></trkpt><trkpt lat="39.2446934" lon="16.9608684"><ele>137.0</ele><time>2026-03-28T14:26:00.696Z</time></trkpt><trkpt lat="39.2447758" lon="16.960846"><ele>137.0</ele><time>2026-03-28T14:26:01.704Z</time></trkpt><trkpt lat="39.2448535" lon="16.9608345"><ele>137.0</ele><time>2026-03-28T14:26:02.703Z</time></trkpt><trkpt lat="39.2449295" lon="16.9608344"><ele>138.33333333333331</ele><time>2026-03-28T14:26:03.702Z</time></trkpt><trkpt lat="39.2449956" lon="16.9608396"><ele>139.66666666666666</ele><time>2026-03-28T14:26:04.7Z</time></trkpt><trkpt lat="39.2450799" lon="16.9608571"><ele>141.0</ele><time>2026-03-28T14:26:06.706Z</time></trkpt><trkpt lat="39.245195" lon="16.9608044"><ele>142.33333333333334</ele><time>2026-03-28T14:26:09.718Z</time></trkpt><trkpt lat="39.2452621" lon="16.9607597"><ele>143.66666666666669</ele><time>2026-03-28T14:26:10.712Z</time></trkpt><trkpt lat="39.245346" lon="16.9607186"><ele>145.0</ele><time>2026-03-28T14:26:11.7Z</time></trkpt><trkpt lat="39.2454254" lon="16.9606773"><ele>145.0</ele><time>2026-03-28T14:26:12.702Z</time></trkpt><trkpt lat="39.2455096" lon="16.9606327"><ele>145.0</ele><time>2026-03-28T14:26:13.708Z</time></trkpt><trkpt lat="39.2455969" lon="16.9605873"><ele>145.0</ele><time>2026-03-28T14:26:14.702Z</time></trkpt><trkpt lat="39.2456821" lon="16.9605452"><ele>145.0</ele><time>2026-03-28T14:26:15.705Z</time></trkpt><trkpt lat="39.2457656" lon="16.9605003"><ele>145.0</ele><time>2026-03-28T14:26:16.706Z</time></trkpt><trkpt lat="39.2458469" lon="16.9604564"><ele>146.66666666666669</ele><time>2026-03-28T14:26:17.704Z</time></trkpt><trkpt lat="39.2459252" lon="16.9604114"><ele>148.33333333333334</ele><time>2026-03-28T14:26:18.707Z</time></trkpt><trkpt lat="39.2460036" lon="16.9603716"><ele>150.0</ele><time>2026-03-28T14:26:19.702Z</time></trkpt><trkpt lat="39.2460815" lon="16.9603212"><ele>151.66666666666666</ele><time>2026-03-28T14:26:20.702Z</time></trkpt><trkpt lat="39.2461566" lon="16.9602626"><ele>153.33333333333331</ele><time>2026-03-28T14:26:21.701Z</time></trkpt><trkpt lat="39.2462348" lon="16.9602103"><ele>155.0</ele><time>2026-03-28T14:26:22.706Z</time></trkpt><trkpt lat="39.2463122" lon="16.9601603"><ele>155.0</ele><time>2026-03-28T14:26:23.702Z</time></trkpt><trkpt lat="39.246386" lon="16.9601131"><ele>155.0</ele><time>2026-03-28T14:26:24.701Z</time></trkpt><trkpt lat="39.2464636" lon="16.9601042"><ele>155.0</ele><time>2026-03-28T14:26:25.709Z</time></trkpt><trkpt lat="39.2465388" lon="16.9601104"><ele>155.0</ele><time>2026-03-28T14:26:26.706Z</time></trkpt><trkpt lat="39.2466103" lon="16.960133"><ele>155.0</ele><time>2026-03-28T14:26:27.706Z</time></trkpt><trkpt lat="39.2466824" lon="16.9601667"><ele>155.0</ele><time>2026-03-28T14:26:28.706Z</time></trkpt><trkpt lat="39.2467567" lon="16.9602004"><ele>157.16666666666666</ele><time>2026-03-28T14:26:29.7Z</time></trkpt><trkpt lat="39.2468217" lon="16.9602285"><ele>159.33333333333331</ele><time>2026-03-28T14:26:30.704Z</time></trkpt><trkpt lat="39.2468797" lon="16.9601769"><ele>161.5</ele><time>2026-03-28T14:26:32.707Z</time></trkpt><trkpt lat="39.2468638" lon="16.9600376"><ele>163.66666666666666</ele><time>2026-03-28T14:26:34.709Z</time></trkpt><trkpt lat="39.246842" lon="16.9599555"><ele>165.83333333333334</ele><time>2026-03-28T14:26:35.71Z</time></trkpt><trkpt lat="39.2468215" lon="16.9598404"><ele>168.0</ele><time>2026-03-28T14:26:37.71Z</time></trkpt><trkpt lat="39.246856" lon="16.9597321"><ele>169.5</ele><time>2026-03-28T14:26:40.709Z</time></trkpt><trkpt lat="39.2469323" lon="16.9597306"><ele>171.0</ele><time>2026-03-28T14:26:43.699Z</time></trkpt><trkpt lat="39.2469958" lon="16.9597722"><ele>172.5</ele><time>2026-03-28T14:27:01.706Z</time></trkpt><trkpt lat="39.2470724" lon="16.9598383"><ele>174.0</ele><time>2026-03-28T14:27:03.702Z</time></trkpt><trkpt lat="39.2471685" lon="16.9599326"><ele>175.5</ele><time>2026-03-28T14:27:05.703Z</time></trkpt><trkpt lat="39.2472286" lon="16.9599729"><ele>177.0</ele><time>2026-03-28T14:27:06.705Z</time></trkpt><trkpt lat="39.2472971" lon="16.9600031"><ele>178.33333333333334</ele><time>2026-03-28T14:27:07.706Z</time></trkpt><trkpt lat="39.2473708" lon="16.9600239"><ele>179.66666666666666</ele><time>2026-03-28T14:27:08.709Z</time></trkpt><trkpt lat="39.2474448" lon="16.9600431"><ele>181.0</ele><time>2026-03-28T14:27:09.704Z</time></trkpt><trkpt lat="39.2475089" lon="16.9600665"><ele>182.33333333333331</ele><time>2026-03-28T14:27:10.704Z</time></trkpt><trkpt lat="39.247609" lon="16.9601663"><ele>183.66666666666666</ele><time>2026-03-28T14:27:12.703Z</time></trkpt><trkpt lat="39.2476585" lon="16.9602245"><ele>185.0</ele><time>2026-03-28T14:27:13.699Z</time></trkpt><trkpt lat="39.2477084" lon="16.9602791"><ele>184.99999999999997</ele><time>2026-03-28T14:27:14.699Z</time></trkpt><trkpt lat="39.2477598" lon="16.9603278"><ele>185.0</ele><time>2026-03-28T14:27:15.701Z</time></trkpt><trkpt lat="39.2478091" lon="16.9603788"><ele>185.0</ele><time>2026-03-28T14:27:16.703Z</time></trkpt><trkpt lat="39.2478494" lon="16.9604444"><ele>185.0</ele><time>2026-03-28T14:27:17.698Z</time></trkpt><trkpt lat="39.2478796" lon="16.9605193"><ele>185.0</ele><time>2026-03-28T14:27:18.698Z</time></trkpt><trkpt lat="39.2479006" lon="16.9606036"><ele>184.99999999999997</ele><time>2026-03-28T14:27:19.704Z</time></trkpt><trkpt lat="39.2479233" lon="16.9606861"><ele>185.0</ele><time>2026-03-28T14:27:20.702Z</time></trkpt><trkpt lat="39.2479581" lon="16.9607609"><ele>185.0</ele><time>2026-03-28T14:27:21.701Z</time></trkpt><trkpt lat="39.2479954" lon="16.9608373"><ele>185.0</ele><time>2026-03-28T14:27:22.696Z</time></trkpt><trkpt lat="39.2480325" lon="16.9609123"><ele>185.0</ele><time>2026-03-28T14:27:23.696Z</time></trkpt><trkpt lat="39.2480776" lon="16.9609859"><ele>185.0</ele><time>2026-03-28T14:27:24.704Z</time></trkpt><trkpt lat="39.2481261" lon="16.9610777"><ele>185.0</ele><time>2026-03-28T14:27:25.707Z</time></trkpt><trkpt lat="39.2481857" lon="16.961184"><ele>185.0</ele><time>2026-03-28T14:27:26.711Z</time></trkpt><trkpt lat="39.248253" lon="16.9612919"><ele>185.2</ele><time>2026-03-28T14:27:27.705Z</time></trkpt><trkpt lat="39.2483225" lon="16.9613991"><ele>185.4</ele><time>2026-03-28T14:27:28.698Z</time></trkpt><trkpt lat="39.2483939" lon="16.9615058"><ele>185.60000000000002</ele><time>2026-03-28T14:27:29.701Z</time></trkpt><trkpt lat="39.2484683" lon="16.9616093"><ele>185.8</ele><time>2026-03-28T14:27:30.705Z</time></trkpt><trkpt lat="39.248558" lon="16.9617164"><ele>186.0</ele><time>2026-03-28T14:27:31.701Z</time></trkpt><trkpt lat="39.2486559" lon="16.961814"><ele>186.0</ele><time>2026-03-28T14:27:32.702Z</time></trkpt><trkpt lat="39.2487451" lon="16.9618755"><ele>186.0</ele><time>2026-03-28T14:27:33.708Z</time></trkpt><trkpt lat="39.2488229" lon="16.9619286"><ele>186.0</ele><time>2026-03-28T14:27:34.696Z</time></trkpt><trkpt lat="39.2489399" lon="16.9619053"><ele>186.0</ele><time>2026-03-28T14:27:36.703Z</time></trkpt><trkpt lat="39.2489641" lon="16.9617631"><ele>186.0</ele><time>2026-03-28T14:27:38.698Z</time></trkpt><trkpt lat="39.2489514" lon="16.9616503"><ele>188.5</ele><time>2026-03-28T14:27:40.7Z</time></trkpt><trkpt lat="39.2489492" lon="16.9615627"><ele>191.0</ele><time>2026-03-28T14:29:05.711Z</time></trkpt><trkpt lat="39.2489649" lon="16.9614584"><ele>193.5</ele><time>2026-03-28T14:29:08.704Z</time></trkpt><trkpt lat="39.2489504" lon="16.9613614"><ele>196.0</ele><time>2026-03-28T14:29:11.707Z</time></trkpt><trkpt lat="39.2488782" lon="16.9612633"><ele>198.5</ele><time>2026-03-28T14:29:13.7Z</time></trkpt><trkpt lat="39.2488259" lon="16.9612155"><ele>201.0</ele><time>2026-03-28T14:29:14.701Z</time></trkpt><trkpt lat="39.2487438" lon="16.9611493"><ele>201.0</ele><time>2026-03-28T14:29:15.696Z</time></trkpt><trkpt lat="39.2486375" lon="16.9610653"><ele>201.0</ele><time>2026-03-28T14:29:16.697Z</time></trkpt><trkpt lat="39.2485373" lon="16.9609826"><ele>201.0</ele><time>2026-03-28T14:29:17.707Z</time></trkpt><trkpt lat="39.2484793" lon="16.9609016"><ele>201.0</ele><time>2026-03-28T14:29:18.699Z</time></trkpt><trkpt lat="39.2484565" lon="16.9608224"><ele>201.0</ele><time>2026-03-28T14:29:19.705Z</time></trkpt><trkpt lat="39.2484641" lon="16.9606761"><ele>205.20000000000002</ele><time>2026-03-28T14:29:21.71Z</time></trkpt><trkpt lat="39.2485292" lon="16.960619"><ele>209.4</ele><time>2026-03-28T14:29:22.697Z</time></trkpt><trkpt lat="39.2486245" lon="16.9605443"><ele>213.6</ele><time>2026-03-28T14:29:23.698Z</time></trkpt><trkpt lat="39.2487094" lon="16.9604889"><ele>217.8</ele><time>2026-03-28T14:29:24.741Z</time></trkpt><trkpt lat="39.2487871" lon="16.960439"><ele>222.0</ele><time>2026-03-28T14:29:25.7Z</time></trkpt><trkpt lat="39.2488782" lon="16.960428"><ele>225.39999999999998</ele><time>2026-03-28T14:29:26.697Z</time></trkpt><trkpt lat="39.2489802" lon="16.9604523"><ele>228.79999999999998</ele><time>2026-03-28T14:29:27.697Z</time></trkpt><trkpt lat="39.2490874" lon="16.9604806"><ele>232.2</ele><time>2026-03-28T14:29:28.701Z</time></trkpt><trkpt lat="39.2491985" lon="16.960525"><ele>235.6</ele><time>2026-03-28T14:29:29.706Z</time></trkpt><trkpt lat="39.249297" lon="16.9605561"><ele>239.0</ele><time>2026-03-28T14:29:30.704Z</time></trkpt><trkpt lat="39.2493935" lon="16.9605869"><ele>239.00000000000003</ele><time>2026-03-28T14:29:31.702Z</time></trkpt><trkpt lat="39.2494794" lon="16.960575"><ele>239.0</ele><time>2026-03-28T14:29:32.702Z</time></trkpt><trkpt lat="39.2495316" lon="16.9604899"><ele>239.0</ele><time>2026-03-28T14:29:33.7Z</time></trkpt><trkpt lat="39.2495494" lon="16.9604094"><ele>239.0</ele><time>2026-03-28T14:29:34.704Z</time></trkpt><trkpt lat="39.2495553" lon="16.9602976"><ele>239.00000000000003</ele><time>2026-03-28T14:29:36.703Z</time></trkpt><trkpt lat="39.2495817" lon="16.9601463"><ele>239.0</ele><time>2026-03-28T14:29:38.715Z</time></trkpt><trkpt lat="39.2496006" lon="16.9600383"><ele>238.0</ele><time>2026-03-28T14:29:39.698Z</time></trkpt><trkpt lat="39.2496307" lon="16.9599313"><ele>236.99999999999997</ele><time>2026-03-28T14:29:40.706Z</time></trkpt><trkpt lat="39.2496763" lon="16.959828"><ele>235.99999999999997</ele><time>2026-03-28T14:29:41.703Z</time></trkpt><trkpt lat="39.2497469" lon="16.9597388"><ele>235.0</ele><time>2026-03-28T14:29:42.7Z</time></trkpt><trkpt lat="39.2498564" lon="16.9596784"><ele>234.0</ele><time>2026-03-28T14:29:43.697Z</time></trkpt><trkpt lat="39.2499578" lon="16.9596349"><ele>234.0</ele><time>2026-03-28T14:29:44.709Z</time></trkpt><trkpt lat="39.2500425" lon="16.9596043"><ele>234.0</ele><time>2026-03-28T14:29:45.706Z</time></trkpt><trkpt lat="39.2501162" lon="16.9595815"><ele>234.0</ele><time>2026-03-28T14:29:46.706Z</time></trkpt><trkpt lat="39.2501899" lon="16.959566"><ele>234.0</ele><time>2026-03-28T14:29:47.699Z</time></trkpt><trkpt lat="39.2502635" lon="16.9595437"><ele>234.0</ele><time>2026-03-28T14:29:48.702Z</time></trkpt><trkpt lat="39.250334" lon="16.9594945"><ele>234.0</ele><time>2026-03-28T14:29:49.704Z</time></trkpt><trkpt lat="39.2504026" lon="16.9594447"><ele>234.0</ele><time>2026-03-28T14:29:50.709Z</time></trkpt><trkpt lat="39.2504472" lon="16.9593503"><ele>233.99999999999997</ele><time>2026-03-28T14:29:51.702Z</time></trkpt><trkpt lat="39.2504798" lon="16.9592507"><ele>233.99999999999997</ele><time>2026-03-28T14:29:52.698Z</time></trkpt><trkpt lat="39.2505053" lon="16.9591433"><ele>234.0</ele><time>2026-03-28T14:29:53.707Z</time></trkpt><trkpt lat="39.2505237" lon="16.9590231"><ele>234.0</ele><time>2026-03-28T14:29:54.706Z</time></trkpt><trkpt lat="39.2505358" lon="16.9588955"><ele>238.5</ele><time>2026-03-28T14:29:55.701Z</time></trkpt><trkpt lat="39.2505461" lon="16.9587582"><ele>243.0</ele><time>2026-03-28T14:29:56.703Z</time></trkpt><trkpt lat="39.2505592" lon="16.9586045"><ele>247.5</ele><time>2026-03-28T14:29:57.707Z</time></trkpt><trkpt lat="39.2505728" lon="16.9584338"><ele>252.0</ele><time>2026-03-28T14:29:58.707Z</time></trkpt><trkpt lat="39.2506076" lon="16.9582594"><ele>252.0</ele><time>2026-03-28T14:29:59.696Z</time></trkpt><trkpt lat="39.2506439" lon="16.9580693"><ele>252.0</ele><time>2026-03-28T14:30:00.703Z</time></trkpt><trkpt lat="39.2506888" lon="16.9578645"><ele>252.0</ele><time>2026-03-28T14:30:01.696Z</time></trkpt><trkpt lat="39.2507392" lon="16.9576814"><ele>254.25</ele><time>2026-03-28T14:30:02.697Z</time></trkpt><trkpt lat="39.2507993" lon="16.9575154"><ele>256.5</ele><time>2026-03-28T14:30:03.699Z</time></trkpt><trkpt lat="39.2508846" lon="16.957362"><ele>258.75</ele><time>2026-03-28T14:30:04.701Z</time></trkpt><trkpt lat="39.2509783" lon="16.9571956"><ele>261.0</ele><time>2026-03-28T14:30:05.7Z</time></trkpt><trkpt lat="39.2511246" lon="16.9570535"><ele>261.0</ele><time>2026-03-28T14:30:06.698Z</time></trkpt><trkpt lat="39.2512836" lon="16.9569039"><ele>261.0</ele><time>2026-03-28T14:30:07.698Z</time></trkpt><trkpt lat="39.2514275" lon="16.9567632"><ele>261.0</ele><time>2026-03-28T14:30:08.696Z</time></trkpt><trkpt lat="39.2515584" lon="16.9566368"><ele>262.40000000000003</ele><time>2026-03-28T14:30:09.702Z</time></trkpt><trkpt lat="39.2516751" lon="16.9565256"><ele>263.8</ele><time>2026-03-28T14:30:10.698Z</time></trkpt><trkpt lat="39.2517905" lon="16.9564332"><ele>265.20000000000005</ele><time>2026-03-28T14:30:11.702Z</time></trkpt><trkpt lat="39.2518544" lon="16.9563751"><ele>266.6</ele><time>2026-03-28T14:30:12.699Z</time></trkpt><trkpt lat="39.2519178" lon="16.9563101"><ele>268.0</ele><time>2026-03-28T14:30:13.698Z</time></trkpt><trkpt lat="39.2519846" lon="16.9562291"><ele>268.0</ele><time>2026-03-28T14:30:14.7Z</time></trkpt><trkpt lat="39.252045" lon="16.9561821"><ele>268.0</ele><time>2026-03-28T14:30:15.697Z</time></trkpt><trkpt lat="39.2521359" lon="16.9560999"><ele>268.0</ele><time>2026-03-28T14:30:17.705Z</time></trkpt><trkpt lat="39.2522248" lon="16.9560094"><ele>268.0</ele><time>2026-03-28T14:30:19.698Z</time></trkpt><trkpt lat="39.2522655" lon="16.9559329"><ele>268.0</ele><time>2026-03-28T14:30:20.699Z</time></trkpt><trkpt lat="39.2523127" lon="16.9557712"><ele>267.2</ele><time>2026-03-28T14:30:22.703Z</time></trkpt><trkpt lat="39.2523166" lon="16.9556692"><ele>266.4</ele><time>2026-03-28T14:30:23.699Z</time></trkpt><trkpt lat="39.2523048" lon="16.9555528"><ele>265.59999999999997</ele><time>2026-03-28T14:30:24.705Z</time></trkpt><trkpt lat="39.2522857" lon="16.9554318"><ele>264.8</ele><time>2026-03-28T14:30:25.704Z</time></trkpt><trkpt lat="39.252241" lon="16.9553156"><ele>264.0</ele><time>2026-03-28T14:30:26.704Z</time></trkpt><trkpt lat="39.2521928" lon="16.9552061"><ele>266.6666666666667</ele><time>2026-03-28T14:30:27.697Z</time></trkpt><trkpt lat="39.2521374" lon="16.9551283"><ele>269.3333333333333</ele><time>2026-03-28T14:30:28.71Z</time></trkpt><trkpt lat="39.2520839" lon="16.9550613"><ele>272.0</ele><time>2026-03-28T14:30:29.703Z</time></trkpt><trkpt lat="39.2520314" lon="16.9550075"><ele>274.66666666666663</ele><time>2026-03-28T14:30:30.709Z</time></trkpt><trkpt lat="39.2519781" lon="16.9549532"><ele>277.3333333333333</ele><time>2026-03-28T14:30:31.703Z</time></trkpt><trkpt lat="39.2519256" lon="16.9549024"><ele>280.0</ele><time>2026-03-28T14:30:32.703Z</time></trkpt><trkpt lat="39.2518264" lon="16.9548072"><ele>280.2</ele><time>2026-03-28T14:30:34.703Z</time></trkpt><trkpt lat="39.2517742" lon="16.9547581"><ele>280.4</ele><time>2026-03-28T14:30:35.706Z</time></trkpt><trkpt lat="39.2516794" lon="16.9546625"><ele>280.6</ele><time>2026-03-28T14:30:37.7Z</time></trkpt><trkpt lat="39.2516229" lon="16.9545466"><ele>280.8</ele><time>2026-03-28T14:30:39.7Z</time></trkpt><trkpt lat="39.2515911" lon="16.9544262"><ele>281.0</ele><time>2026-03-28T14:30:41.699Z</time></trkpt><trkpt lat="39.2515563" lon="16.9543357"><ele>281.0</ele><time>2026-03-28T14:30:43.701Z</time></trkpt><trkpt lat="39.251478" lon="16.9543411"><ele>281.0</ele><time>2026-03-28T14:30:45.715Z</time></trkpt><trkpt lat="39.2514228" lon="16.9544598"><ele>281.0</ele><time>2026-03-28T14:30:47.699Z</time></trkpt><trkpt lat="39.2513941" lon="16.9545395"><ele>281.0</ele><time>2026-03-28T14:30:48.699Z</time></trkpt><trkpt lat="39.2513782" lon="16.9546203"><ele>281.0</ele><time>2026-03-28T14:30:49.698Z</time></trkpt><trkpt lat="39.251363" lon="16.9547067"><ele>281.0</ele><time>2026-03-28T14:30:50.701Z</time></trkpt><trkpt lat="39.2513557" lon="16.9547981"><ele>282.33333333333337</ele><time>2026-03-28T14:30:51.701Z</time></trkpt><trkpt lat="39.2513458" lon="16.9548938"><ele>283.6666666666667</ele><time>2026-03-28T14:30:52.702Z</time></trkpt><trkpt lat="39.2513318" lon="16.9549957"><ele>285.0</ele><time>2026-03-28T14:30:53.699Z</time></trkpt><trkpt lat="39.2513199" lon="16.9551011"><ele>286.3333333333333</ele><time>2026-03-28T14:30:54.699Z</time></trkpt><trkpt lat="39.2513094" lon="16.9552028"><ele>287.66666666666663</ele><time>2026-03-28T14:30:55.695Z</time></trkpt><trkpt lat="39.2513026" lon="16.9553012"><ele>289.0</ele><time>2026-03-28T14:30:56.697Z</time></trkpt><trkpt lat="39.2512977" lon="16.9553963"><ele>289.0</ele><time>2026-03-28T14:30:57.698Z</time></trkpt><trkpt lat="39.251281" lon="16.9554904"><ele>289.0</ele><time>2026-03-28T14:30:58.702Z</time></trkpt><trkpt lat="39.2512653" lon="16.9555791"><ele>289.0</ele><time>2026-03-28T14:30:59.699Z</time></trkpt><trkpt lat="39.2512039" lon="16.9556674"><ele>289.0</ele><time>2026-03-28T14:31:00.707Z</time></trkpt><trkpt lat="39.2511352" lon="16.9557389"><ele>289.0</ele><time>2026-03-28T14:31:01.702Z</time></trkpt><trkpt lat="39.2510546" lon="16.9557997"><ele>289.0</ele><time>2026-03-28T14:31:02.701Z</time></trkpt><trkpt lat="39.2509731" lon="16.9558491"><ele>289.0</ele><time>2026-03-28T14:31:03.701Z</time></trkpt><trkpt lat="39.2508654" lon="16.9559071"><ele>289.0</ele><time>2026-03-28T14:31:04.707Z</time></trkpt><trkpt lat="39.2507473" lon="16.9558735"><ele>289.0</ele><time>2026-03-28T14:31:05.705Z</time></trkpt><trkpt lat="39.2506315" lon="16.9558111"><ele>289.0</ele><time>2026-03-28T14:31:06.703Z</time></trkpt><trkpt lat="39.2505544" lon="16.9557493"><ele>290.16666666666663</ele><time>2026-03-28T14:31:07.702Z</time></trkpt><trkpt lat="39.2504936" lon="16.9556817"><ele>291.3333333333333</ele><time>2026-03-28T14:31:08.698Z</time></trkpt><trkpt lat="39.250435" lon="16.9556148"><ele>292.5</ele><time>2026-03-28T14:31:09.706Z</time></trkpt><trkpt lat="39.2503744" lon="16.9555487"><ele>293.6666666666667</ele><time>2026-03-28T14:31:10.705Z</time></trkpt><trkpt lat="39.2503104" lon="16.9554819"><ele>294.83333333333337</ele><time>2026-03-28T14:31:11.709Z</time></trkpt><trkpt lat="39.2502237" lon="16.9554119"><ele>296.0</ele><time>2026-03-28T14:31:12.71Z</time></trkpt><trkpt lat="39.2501185" lon="16.9553584"><ele>296.0</ele><time>2026-03-28T14:31:13.699Z</time></trkpt><trkpt lat="39.25" lon="16.9552901"><ele>296.0</ele><time>2026-03-28T14:31:14.702Z</time></trkpt><trkpt lat="39.2498634" lon="16.9552126"><ele>296.0</ele><time>2026-03-28T14:31:15.702Z</time></trkpt><trkpt lat="39.2497389" lon="16.955161"><ele>296.0</ele><time>2026-03-28T14:31:16.701Z</time></trkpt><trkpt lat="39.2496093" lon="16.9551367"><ele>297.33333333333337</ele><time>2026-03-28T14:31:17.711Z</time></trkpt><trkpt lat="39.2495067" lon="16.9551434"><ele>298.6666666666667</ele><time>2026-03-28T14:31:18.703Z</time></trkpt><trkpt lat="39.2494148" lon="16.9551172"><ele>300.0</ele><time>2026-03-28T14:31:19.703Z</time></trkpt><trkpt lat="39.249327" lon="16.9551101"><ele>301.3333333333333</ele><time>2026-03-28T14:31:20.699Z</time></trkpt><trkpt lat="39.2492532" lon="16.955125"><ele>302.66666666666663</ele><time>2026-03-28T14:31:21.701Z</time></trkpt><trkpt lat="39.2491845" lon="16.9551551"><ele>304.0</ele><time>2026-03-28T14:31:22.702Z</time></trkpt><trkpt lat="39.2490968" lon="16.9552238"><ele>304.0</ele><time>2026-03-28T14:31:24.696Z</time></trkpt><trkpt lat="39.2490412" lon="16.9553608"><ele>304.0</ele><time>2026-03-28T14:31:26.705Z</time></trkpt><trkpt lat="39.2490118" lon="16.9554337"><ele>304.0</ele><time>2026-03-28T14:31:27.702Z</time></trkpt><trkpt lat="39.2489639" lon="16.9555962"><ele>304.0</ele><time>2026-03-28T14:31:29.703Z</time></trkpt><trkpt lat="39.2489202" lon="16.9556828"><ele>304.0</ele><time>2026-03-28T14:31:30.7Z</time></trkpt><trkpt lat="39.2488827" lon="16.9557815"><ele>302.3333333333333</ele><time>2026-03-28T14:31:31.702Z</time></trkpt><trkpt lat="39.2488479" lon="16.9558982"><ele>300.66666666666663</ele><time>2026-03-28T14:31:32.706Z</time></trkpt><trkpt lat="39.248791" lon="16.9559919"><ele>299.0</ele><time>2026-03-28T14:31:33.702Z</time></trkpt><trkpt lat="39.2487181" lon="16.9560781"><ele>297.3333333333333</ele><time>2026-03-28T14:31:34.702Z</time></trkpt><trkpt lat="39.248651" lon="16.9561529"><ele>295.6666666666667</ele><time>2026-03-28T14:31:35.702Z</time></trkpt><trkpt lat="39.2486018" lon="16.9562176"><ele>294.0</ele><time>2026-03-28T14:31:36.701Z</time></trkpt><trkpt lat="39.2485509" lon="16.9562738"><ele>294.0</ele><time>2026-03-28T14:31:37.698Z</time></trkpt><trkpt lat="39.248484" lon="16.9563558"><ele>294.0</ele><time>2026-03-28T14:31:39.698Z</time></trkpt><trkpt lat="39.2484929" lon="16.9565369"><ele>294.0</ele><time>2026-03-28T14:31:41.699Z</time></trkpt><trkpt lat="39.2485156" lon="16.9566398"><ele>294.0</ele><time>2026-03-28T14:31:42.696Z</time></trkpt><trkpt lat="39.2485274" lon="16.9567374"><ele>294.0</ele><time>2026-03-28T14:31:43.702Z</time></trkpt><trkpt lat="39.2485549" lon="16.9568496"><ele>293.42857142857144</ele><time>2026-03-28T14:31:44.709Z</time></trkpt><trkpt lat="39.2485851" lon="16.9569573"><ele>292.8571428571429</ele><time>2026-03-28T14:31:45.712Z</time></trkpt><trkpt lat="39.2486123" lon="16.9570466"><ele>292.2857142857143</ele><time>2026-03-28T14:31:46.704Z</time></trkpt><trkpt lat="39.2486244" lon="16.9571301"><ele>291.7142857142857</ele><time>2026-03-28T14:31:47.702Z</time></trkpt><trkpt lat="39.2486239" lon="16.9572267"><ele>291.14285714285717</ele><time>2026-03-28T14:31:49.711Z</time></trkpt><trkpt lat="39.2486335" lon="16.9573142"><ele>290.57142857142856</ele><time>2026-03-28T14:31:51.704Z</time></trkpt><trkpt lat="39.2486381" lon="16.9574008"><ele>290.0</ele><time>2026-03-28T14:31:53.707Z</time></trkpt><trkpt lat="39.2486646" lon="16.9574963"><ele>290.0</ele><time>2026-03-28T14:31:55.705Z</time></trkpt><trkpt lat="39.2487372" lon="16.9574341"><ele>290.0</ele><time>2026-03-28T14:31:58.699Z</time></trkpt><trkpt lat="39.2487222" lon="16.9572779"><ele>290.0</ele><time>2026-03-28T14:32:00.7Z</time></trkpt><trkpt lat="39.2487122" lon="16.9571417"><ele>290.0</ele><time>2026-03-28T14:32:02.705Z</time></trkpt><trkpt lat="39.2487068" lon="16.9570251"><ele>290.0</ele><time>2026-03-28T14:32:04.699Z</time></trkpt><trkpt lat="39.2487014" lon="16.9569249"><ele>290.0</ele><time>2026-03-28T14:32:06.704Z</time></trkpt><trkpt lat="39.2487341" lon="16.9568409"><ele>290.0</ele><time>2026-03-28T14:32:10.708Z</time></trkpt><trkpt lat="39.2487913" lon="16.9567971"><ele>290.0</ele><time>2026-03-28T14:53:55.706Z</time></trkpt><trkpt lat="39.2488599" lon="16.9567817"><ele>290.0</ele><time>2026-03-28T14:53:57.703Z</time></trkpt><trkpt lat="39.2489571" lon="16.9567264"><ele>290.0</ele><time>2026-03-28T14:54:00.704Z</time></trkpt><trkpt lat="39.2490696" lon="16.956637"><ele>290.0</ele><time>2026-03-28T14:54:02.702Z</time></trkpt><trkpt lat="39.249136" lon="16.9566043"><ele>289.6</ele><time>2026-03-28T14:54:03.701Z</time></trkpt><trkpt lat="39.2492168" lon="16.9566004"><ele>289.2</ele><time>2026-03-28T14:54:04.702Z</time></trkpt><trkpt lat="39.2493018" lon="16.9566401"><ele>288.8</ele><time>2026-03-28T14:54:05.699Z</time></trkpt><trkpt lat="39.2493854" lon="16.9567126"><ele>288.4</ele><time>2026-03-28T14:54:06.702Z</time></trkpt><trkpt lat="39.2494726" lon="16.9567808"><ele>288.0</ele><time>2026-03-28T14:54:07.703Z</time></trkpt><trkpt lat="39.2495627" lon="16.9568214"><ele>286.5</ele><time>2026-03-28T14:54:08.708Z</time></trkpt><trkpt lat="39.2496536" lon="16.9568519"><ele>285.0</ele><time>2026-03-28T14:54:09.707Z</time></trkpt><trkpt lat="39.2497416" lon="16.9568815"><ele>283.5</ele><time>2026-03-28T14:54:10.705Z</time></trkpt><trkpt lat="39.2498243" lon="16.9569127"><ele>282.0</ele><time>2026-03-28T14:54:11.702Z</time></trkpt><trkpt lat="39.249902" lon="16.9569375"><ele>280.5</ele><time>2026-03-28T14:54:12.701Z</time></trkpt><trkpt lat="39.2499719" lon="16.9569568"><ele>279.0</ele><time>2026-03-28T14:54:13.7Z</time></trkpt><trkpt lat="39.2500871" lon="16.956989"><ele>278.0</ele><time>2026-03-28T14:54:15.7Z</time></trkpt><trkpt lat="39.2500926" lon="16.9571145"><ele>277.0</ele><time>2026-03-28T14:54:18.699Z</time></trkpt><trkpt lat="39.2500438" lon="16.9571883"><ele>276.0</ele><time>2026-03-28T14:54:19.698Z</time></trkpt><trkpt lat="39.2499925" lon="16.9572622"><ele>275.0</ele><time>2026-03-28T14:54:20.698Z</time></trkpt><trkpt lat="39.2499385" lon="16.9573226"><ele>274.0</ele><time>2026-03-28T14:54:21.701Z</time></trkpt><trkpt lat="39.2498702" lon="16.957399"><ele>273.0</ele><time>2026-03-28T14:54:22.711Z</time></trkpt><trkpt lat="39.2498045" lon="16.95745"><ele>273.5</ele><time>2026-03-28T14:54:23.703Z</time></trkpt><trkpt lat="39.2497439" lon="16.9574886"><ele>274.0</ele><time>2026-03-28T14:54:24.706Z</time></trkpt><trkpt lat="39.2496105" lon="16.9575164"><ele>274.5</ele><time>2026-03-28T14:54:26.705Z</time></trkpt><trkpt lat="39.249536" lon="16.9574818"><ele>275.0</ele><time>2026-03-28T14:54:27.703Z</time></trkpt><trkpt lat="39.2494694" lon="16.9574509"><ele>275.5</ele><time>2026-03-28T14:54:28.708Z</time></trkpt><trkpt lat="39.2493939" lon="16.9574456"><ele>276.0</ele><time>2026-03-28T14:54:30.7Z</time></trkpt><trkpt lat="39.2493474" lon="16.9575599"><ele>276.0</ele><time>2026-03-28T14:54:32.7Z</time></trkpt><trkpt lat="39.2493402" lon="16.9576944"><ele>276.0</ele><time>2026-03-28T14:54:34.702Z</time></trkpt><trkpt lat="39.249353" lon="16.9578669"><ele>276.0</ele><time>2026-03-28T14:54:36.706Z</time></trkpt><trkpt lat="39.2493525" lon="16.9580329"><ele>276.0</ele><time>2026-03-28T14:54:38.7Z</time></trkpt><trkpt lat="39.2493493" lon="16.958145"><ele>276.0</ele><time>2026-03-28T14:54:40.698Z</time></trkpt><trkpt lat="39.2493536" lon="16.9582755"><ele>276.0</ele><time>2026-03-28T14:54:42.696Z</time></trkpt><trkpt lat="39.2493654" lon="16.958395"><ele>276.0</ele><time>2026-03-28T14:54:44.701Z</time></trkpt><trkpt lat="39.2494226" lon="16.9584684"><ele>276.0</ele><time>2026-03-28T14:54:47.702Z</time></trkpt><trkpt lat="39.2495035" lon="16.9584722"><ele>276.0</ele><time>2026-03-28T14:54:49.701Z</time></trkpt><trkpt lat="39.2495675" lon="16.9584883"><ele>276.0</ele><time>2026-03-28T14:54:51.703Z</time></trkpt><trkpt lat="39.2496254" lon="16.9585213"><ele>274.1666666666667</ele><time>2026-03-28T14:54:53.704Z</time></trkpt><trkpt lat="39.2496903" lon="16.9585764"><ele>272.3333333333333</ele><time>2026-03-28T14:54:55.7Z</time></trkpt><trkpt lat="39.2497827" lon="16.9586379"><ele>270.5</ele><time>2026-03-28T14:54:57.698Z</time></trkpt><trkpt lat="39.2498895" lon="16.9586317"><ele>268.66666666666663</ele><time>2026-03-28T14:54:59.699Z</time></trkpt><trkpt lat="39.2499544" lon="16.9585929"><ele>266.8333333333333</ele><time>2026-03-28T14:55:00.711Z</time></trkpt><trkpt lat="39.250007" lon="16.9585292"><ele>265.0</ele><time>2026-03-28T14:55:01.697Z</time></trkpt><trkpt lat="39.2500691" lon="16.9584479"><ele>264.5</ele><time>2026-03-28T14:55:02.698Z</time></trkpt><trkpt lat="39.2501203" lon="16.9583687"><ele>264.0</ele><time>2026-03-28T14:55:03.698Z</time></trkpt><trkpt lat="39.2501715" lon="16.9583053"><ele>263.5</ele><time>2026-03-28T14:55:04.704Z</time></trkpt><trkpt lat="39.2502257" lon="16.9582356"><ele>263.0</ele><time>2026-03-28T14:55:05.699Z</time></trkpt><trkpt lat="39.2502798" lon="16.9581607"><ele>262.5</ele><time>2026-03-28T14:55:06.706Z</time></trkpt><trkpt lat="39.2503253" lon="16.958061"><ele>262.0</ele><time>2026-03-28T14:55:07.704Z</time></trkpt><trkpt lat="39.2503692" lon="16.9579646"><ele>262.0</ele><time>2026-03-28T14:55:08.704Z</time></trkpt><trkpt lat="39.2504096" lon="16.9578734"><ele>262.0</ele><time>2026-03-28T14:55:09.701Z</time></trkpt><trkpt lat="39.2504474" lon="16.9577826"><ele>262.0</ele><time>2026-03-28T14:55:10.697Z</time></trkpt><trkpt lat="39.2504808" lon="16.957694"><ele>262.0</ele><time>2026-03-28T14:55:11.702Z</time></trkpt><trkpt lat="39.2505106" lon="16.957602"><ele>262.0</ele><time>2026-03-28T14:55:12.701Z</time></trkpt><trkpt lat="39.2505423" lon="16.9575045"><ele>262.0</ele><time>2026-03-28T14:55:13.699Z</time></trkpt><trkpt lat="39.2505638" lon="16.957404"><ele>261.8</ele><time>2026-03-28T14:55:14.699Z</time></trkpt><trkpt lat="39.2505843" lon="16.957306"><ele>261.6</ele><time>2026-03-28T14:55:15.699Z</time></trkpt><trkpt lat="39.250605" lon="16.9572192"><ele>261.40000000000003</ele><time>2026-03-28T14:55:16.706Z</time></trkpt><trkpt lat="39.2507065" lon="16.9571028"><ele>261.2</ele><time>2026-03-28T14:55:18.71Z</time></trkpt><trkpt lat="39.2508036" lon="16.9570719"><ele>261.0</ele><time>2026-03-28T14:55:19.7Z</time></trkpt><trkpt lat="39.2509223" lon="16.9570201"><ele>261.0</ele><time>2026-03-28T14:55:20.701Z</time></trkpt><trkpt lat="39.2510299" lon="16.9569629"><ele>261.0</ele><time>2026-03-28T14:55:21.698Z</time></trkpt><trkpt lat="39.2511279" lon="16.9569098"><ele>261.0</ele><time>2026-03-28T14:55:22.698Z</time></trkpt><trkpt lat="39.2512176" lon="16.9568616"><ele>261.0</ele><time>2026-03-28T14:55:23.705Z</time></trkpt><trkpt lat="39.2513078" lon="16.9568127"><ele>261.0</ele><time>2026-03-28T14:55:24.706Z</time></trkpt><trkpt lat="39.2513979" lon="16.9567589"><ele>262.75</ele><time>2026-03-28T14:55:25.697Z</time></trkpt><trkpt lat="39.2514885" lon="16.9566834"><ele>264.5</ele><time>2026-03-28T14:55:26.7Z</time></trkpt><trkpt lat="39.2515889" lon="16.9565978"><ele>266.25</ele><time>2026-03-28T14:55:27.703Z</time></trkpt><trkpt lat="39.2516895" lon="16.9565092"><ele>268.0</ele><time>2026-03-28T14:55:28.705Z</time></trkpt><trkpt lat="39.2517906" lon="16.9564224"><ele>268.0</ele><time>2026-03-28T14:55:29.714Z</time></trkpt><trkpt lat="39.2518833" lon="16.9563389"><ele>268.0</ele><time>2026-03-28T14:55:30.71Z</time></trkpt><trkpt lat="39.2519679" lon="16.9562621"><ele>268.0</ele><time>2026-03-28T14:55:31.702Z</time></trkpt><trkpt lat="39.2520438" lon="16.9561887"><ele>268.0</ele><time>2026-03-28T14:55:32.704Z</time></trkpt><trkpt lat="39.2521073" lon="16.9561185"><ele>268.0</ele><time>2026-03-28T14:55:33.713Z</time></trkpt><trkpt lat="39.2521663" lon="16.956058"><ele>268.0</ele><time>2026-03-28T14:55:34.714Z</time></trkpt><trkpt lat="39.2522093" lon="16.9559974"><ele>268.0</ele><time>2026-03-28T14:55:35.699Z</time></trkpt><trkpt lat="39.2522669" lon="16.9559138"><ele>268.0</ele><time>2026-03-28T14:55:37.708Z</time></trkpt><trkpt lat="39.2523118" lon="16.9558507"><ele>268.0</ele><time>2026-03-28T14:55:39.717Z</time></trkpt><trkpt lat="39.2523507" lon="16.955779"><ele>268.0</ele><time>2026-03-28T14:55:41.707Z</time></trkpt><trkpt lat="39.2523697" lon="16.9556821"><ele>268.0</ele><time>2026-03-28T14:55:43.715Z</time></trkpt><trkpt lat="39.2523807" lon="16.9555673"><ele>267.3333333333333</ele><time>2026-03-28T14:55:45.71Z</time></trkpt><trkpt lat="39.2523897" lon="16.9554407"><ele>266.66666666666663</ele><time>2026-03-28T14:55:47.701Z</time></trkpt><trkpt lat="39.2523921" lon="16.9553095"><ele>266.0</ele><time>2026-03-28T14:55:49.708Z</time></trkpt><trkpt lat="39.2523939" lon="16.9551626"><ele>265.3333333333333</ele><time>2026-03-28T14:55:51.708Z</time></trkpt><trkpt lat="39.252394" lon="16.9550774"><ele>264.6666666666667</ele><time>2026-03-28T14:55:52.714Z</time></trkpt><trkpt lat="39.2523919" lon="16.9549942"><ele>264.0</ele><time>2026-03-28T14:55:53.705Z</time></trkpt><trkpt lat="39.2523857" lon="16.9549095"><ele>263.8</ele><time>2026-03-28T14:55:54.706Z</time></trkpt><trkpt lat="39.2523725" lon="16.9548253"><ele>263.59999999999997</ele><time>2026-03-28T14:55:55.704Z</time></trkpt><trkpt lat="39.2523545" lon="16.9547431"><ele>263.4</ele><time>2026-03-28T14:55:56.708Z</time></trkpt><trkpt lat="39.2523403" lon="16.9545978"><ele>263.2</ele><time>2026-03-28T14:55:58.705Z</time></trkpt><trkpt lat="39.2523893" lon="16.9544671"><ele>263.0</ele><time>2026-03-28T14:56:00.705Z</time></trkpt><trkpt lat="39.2524868" lon="16.9543554"><ele>263.0</ele><time>2026-03-28T14:56:02.708Z</time></trkpt><trkpt lat="39.2525416" lon="16.9542847"><ele>263.0</ele><time>2026-03-28T14:56:03.706Z</time></trkpt><trkpt lat="39.25259" lon="16.9542056"><ele>263.0</ele><time>2026-03-28T14:56:04.71Z</time></trkpt><trkpt lat="39.2526276" lon="16.954117"><ele>263.0</ele><time>2026-03-28T14:56:05.712Z</time></trkpt><trkpt lat="39.2526498" lon="16.954013"><ele>263.0</ele><time>2026-03-28T14:56:06.704Z</time></trkpt><trkpt lat="39.252656" lon="16.9539102"><ele>263.0</ele><time>2026-03-28T14:56:07.705Z</time></trkpt><trkpt lat="39.2526548" lon="16.9538022"><ele>262.0</ele><time>2026-03-28T14:56:08.704Z</time></trkpt><trkpt lat="39.2526477" lon="16.9536941"><ele>261.0</ele><time>2026-03-28T14:56:09.699Z</time></trkpt><trkpt lat="39.2526354" lon="16.9535842"><ele>260.0</ele><time>2026-03-28T14:56:10.701Z</time></trkpt><trkpt lat="39.2526217" lon="16.953476"><ele>259.0</ele><time>2026-03-28T14:56:11.708Z</time></trkpt><trkpt lat="39.2526142" lon="16.9533755"><ele>258.0</ele><time>2026-03-28T14:56:12.701Z</time></trkpt><trkpt lat="39.2526285" lon="16.9532766"><ele>257.0</ele><time>2026-03-28T14:56:13.7Z</time></trkpt><trkpt lat="39.2526577" lon="16.9531805"><ele>256.0</ele><time>2026-03-28T14:56:14.702Z</time></trkpt><trkpt lat="39.252684" lon="16.9530875"><ele>255.0</ele><time>2026-03-28T14:56:15.695Z</time></trkpt><trkpt lat="39.2527111" lon="16.9529915"><ele>254.0</ele><time>2026-03-28T14:56:16.704Z</time></trkpt><trkpt lat="39.2527201" lon="16.9528875"><ele>253.0</ele><time>2026-03-28T14:56:17.703Z</time></trkpt><trkpt lat="39.252727" lon="16.9527793"><ele>252.00000000000003</ele><time>2026-03-28T14:56:18.699Z</time></trkpt><trkpt lat="39.2527369" lon="16.9526697"><ele>251.0</ele><time>2026-03-28T14:56:19.7Z</time></trkpt><trkpt lat="39.2527504" lon="16.9525674"><ele>249.50000000000003</ele><time>2026-03-28T14:56:20.708Z</time></trkpt><trkpt lat="39.2527632" lon="16.9524629"><ele>248.0</ele><time>2026-03-28T14:56:21.7Z</time></trkpt><trkpt lat="39.252769" lon="16.952356"><ele>246.5</ele><time>2026-03-28T14:56:22.699Z</time></trkpt><trkpt lat="39.2527631" lon="16.9522606"><ele>245.0</ele><time>2026-03-28T14:56:23.698Z</time></trkpt><trkpt lat="39.2527565" lon="16.9521775"><ele>243.50000000000003</ele><time>2026-03-28T14:56:24.702Z</time></trkpt><trkpt lat="39.2528059" lon="16.9520551"><ele>242.0</ele><time>2026-03-28T14:56:26.698Z</time></trkpt><trkpt lat="39.2529395" lon="16.9520538"><ele>242.00000000000003</ele><time>2026-03-28T14:56:28.702Z</time></trkpt><trkpt lat="39.2530289" lon="16.9520553"><ele>242.0</ele><time>2026-03-28T14:56:29.702Z</time></trkpt><trkpt lat="39.253119" lon="16.9520564"><ele>242.0</ele><time>2026-03-28T14:56:30.7Z</time></trkpt><trkpt lat="39.2532072" lon="16.9520461"><ele>242.0</ele><time>2026-03-28T14:56:31.707Z</time></trkpt><trkpt lat="39.2532892" lon="16.9520271"><ele>242.00000000000003</ele><time>2026-03-28T14:56:32.704Z</time></trkpt><trkpt lat="39.2533584" lon="16.9519911"><ele>242.0</ele><time>2026-03-28T14:56:33.699Z</time></trkpt><trkpt lat="39.2534101" lon="16.9519363"><ele>239.66666666666669</ele><time>2026-03-28T14:56:34.698Z</time></trkpt><trkpt lat="39.2534484" lon="16.9518646"><ele>237.33333333333334</ele><time>2026-03-28T14:56:35.709Z</time></trkpt><trkpt lat="39.2534791" lon="16.9517688"><ele>235.0</ele><time>2026-03-28T14:56:36.702Z</time></trkpt><trkpt lat="39.2535087" lon="16.9516776"><ele>232.66666666666669</ele><time>2026-03-28T14:56:37.706Z</time></trkpt><trkpt lat="39.2535496" lon="16.9515821"><ele>230.33333333333334</ele><time>2026-03-28T14:56:38.707Z</time></trkpt><trkpt lat="39.2535992" lon="16.9514962"><ele>228.0</ele><time>2026-03-28T14:56:39.707Z</time></trkpt><trkpt lat="39.2536541" lon="16.9514301"><ele>228.0</ele><time>2026-03-28T14:56:40.706Z</time></trkpt><trkpt lat="39.2537161" lon="16.9513851"><ele>228.0</ele><time>2026-03-28T14:56:41.712Z</time></trkpt><trkpt lat="39.2538433" lon="16.9513722"><ele>228.0</ele><time>2026-03-28T14:56:43.704Z</time></trkpt><trkpt lat="39.2539175" lon="16.9513698"><ele>228.0</ele><time>2026-03-28T14:56:44.706Z</time></trkpt><trkpt lat="39.253993" lon="16.9513564"><ele>228.0</ele><time>2026-03-28T14:56:45.704Z</time></trkpt><trkpt lat="39.2540686" lon="16.9513287"><ele>228.0</ele><time>2026-03-28T14:56:46.703Z</time></trkpt><trkpt lat="39.2541469" lon="16.951338"><ele>226.16666666666666</ele><time>2026-03-28T14:56:47.708Z</time></trkpt><trkpt lat="39.2542191" lon="16.951394"><ele>224.33333333333331</ele><time>2026-03-28T14:56:48.707Z</time></trkpt><trkpt lat="39.2542916" lon="16.9514507"><ele>222.5</ele><time>2026-03-28T14:56:49.702Z</time></trkpt><trkpt lat="39.2543571" lon="16.9515195"><ele>220.66666666666666</ele><time>2026-03-28T14:56:50.703Z</time></trkpt><trkpt lat="39.254418" lon="16.951569"><ele>218.83333333333331</ele><time>2026-03-28T14:56:51.703Z</time></trkpt><trkpt lat="39.2545217" lon="16.9515827"><ele>217.0</ele><time>2026-03-28T14:56:53.697Z</time></trkpt><trkpt lat="39.2546276" lon="16.9515646"><ele>217.0</ele><time>2026-03-28T14:56:55.702Z</time></trkpt><trkpt lat="39.2547526" lon="16.9515905"><ele>217.0</ele><time>2026-03-28T14:56:57.698Z</time></trkpt><trkpt lat="39.2548125" lon="16.9516849"><ele>217.0</ele><time>2026-03-28T14:56:59.702Z</time></trkpt><trkpt lat="39.2547766" lon="16.9517999"><ele>217.0</ele><time>2026-03-28T14:57:01.701Z</time></trkpt><trkpt lat="39.2547551" lon="16.9518771"><ele>217.0</ele><time>2026-03-28T14:57:02.705Z</time></trkpt><trkpt lat="39.2547386" lon="16.9519669"><ele>215.99999999999997</ele><time>2026-03-28T14:57:03.702Z</time></trkpt><trkpt lat="39.254742" lon="16.9520556"><ele>215.0</ele><time>2026-03-28T14:57:04.709Z</time></trkpt><trkpt lat="39.2547465" lon="16.9521381"><ele>214.0</ele><time>2026-03-28T14:57:05.702Z</time></trkpt><trkpt lat="39.2548432" lon="16.9522477"><ele>213.0</ele><time>2026-03-28T14:57:07.7Z</time></trkpt><trkpt lat="39.2549018" lon="16.9523065"><ele>211.99999999999997</ele><time>2026-03-28T14:57:08.7Z</time></trkpt><trkpt lat="39.2549625" lon="16.9523712"><ele>211.0</ele><time>2026-03-28T14:57:09.7Z</time></trkpt><trkpt lat="39.2550212" lon="16.9524323"><ele>211.0</ele><time>2026-03-28T14:57:10.705Z</time></trkpt><trkpt lat="39.2550743" lon="16.9524866"><ele>211.0</ele><time>2026-03-28T14:57:11.705Z</time></trkpt><trkpt lat="39.2551685" lon="16.9525668"><ele>211.0</ele><time>2026-03-28T14:57:13.703Z</time></trkpt><trkpt lat="39.2552634" lon="16.9526207"><ele>211.0</ele><time>2026-03-28T14:57:15.699Z</time></trkpt><trkpt lat="39.2553474" lon="16.9526603"><ele>211.0</ele><time>2026-03-28T14:57:17.7Z</time></trkpt><trkpt lat="39.2554375" lon="16.9526911"><ele>209.8</ele><time>2026-03-28T14:57:19.701Z</time></trkpt><trkpt lat="39.2555345" lon="16.9527016"><ele>208.60000000000002</ele><time>2026-03-28T14:57:21.702Z</time></trkpt><trkpt lat="39.2556676" lon="16.9527077"><ele>207.4</ele><time>2026-03-28T14:57:23.706Z</time></trkpt><trkpt lat="39.2557439" lon="16.9527161"><ele>206.2</ele><time>2026-03-28T14:57:24.709Z</time></trkpt><trkpt lat="39.2558208" lon="16.9527232"><ele>205.0</ele><time>2026-03-28T14:57:25.699Z</time></trkpt><trkpt lat="39.2558897" lon="16.9527259"><ele>204.99999999999997</ele><time>2026-03-28T14:57:26.708Z</time></trkpt><trkpt lat="39.2559572" lon="16.9527269"><ele>205.0</ele><time>2026-03-28T14:57:27.697Z</time></trkpt><trkpt lat="39.2560813" lon="16.9526901"><ele>205.0</ele><time>2026-03-28T14:57:29.703Z</time></trkpt><trkpt lat="39.2561448" lon="16.9526546"><ele>205.0</ele><time>2026-03-28T14:57:30.704Z</time></trkpt><trkpt lat="39.2562137" lon="16.9526136"><ele>204.99999999999997</ele><time>2026-03-28T14:57:31.704Z</time></trkpt><trkpt lat="39.2562908" lon="16.9525728"><ele>205.0</ele><time>2026-03-28T14:57:32.706Z</time></trkpt><trkpt lat="39.2563679" lon="16.9525255"><ele>205.83333333333331</ele><time>2026-03-28T14:57:33.706Z</time></trkpt><trkpt lat="39.2564407" lon="16.9524766"><ele>206.66666666666666</ele><time>2026-03-28T14:57:34.704Z</time></trkpt><trkpt lat="39.2565093" lon="16.9524234"><ele>207.5</ele><time>2026-03-28T14:57:35.703Z</time></trkpt><trkpt lat="39.2565807" lon="16.9523689"><ele>208.33333333333331</ele><time>2026-03-28T14:57:36.702Z</time></trkpt><trkpt lat="39.2566489" lon="16.9523183"><ele>209.16666666666666</ele><time>2026-03-28T14:57:37.702Z</time></trkpt><trkpt lat="39.2567148" lon="16.9522761"><ele>210.0</ele><time>2026-03-28T14:57:38.702Z</time></trkpt><trkpt lat="39.2567752" lon="16.9522426"><ele>208.16666666666666</ele><time>2026-03-28T14:57:39.699Z</time></trkpt><trkpt lat="39.2568557" lon="16.9522146"><ele>206.33333333333331</ele><time>2026-03-28T14:57:41.701Z</time></trkpt><trkpt lat="39.2569278" lon="16.952228"><ele>204.5</ele><time>2026-03-28T14:57:44.698Z</time></trkpt><trkpt lat="39.2569719" lon="16.9523091"><ele>202.66666666666666</ele><time>2026-03-28T14:57:46.701Z</time></trkpt><trkpt lat="39.2570214" lon="16.9524557"><ele>200.83333333333331</ele><time>2026-03-28T14:57:48.707Z</time></trkpt><trkpt lat="39.2570471" lon="16.9525436"><ele>199.0</ele><time>2026-03-28T14:57:49.706Z</time></trkpt><trkpt lat="39.2570668" lon="16.9526334"><ele>198.99999999999997</ele><time>2026-03-28T14:57:50.7Z</time></trkpt><trkpt lat="39.2570834" lon="16.9527242"><ele>199.0</ele><time>2026-03-28T14:57:51.71Z</time></trkpt><trkpt lat="39.2570881" lon="16.9528179"><ele>199.0</ele><time>2026-03-28T14:57:52.702Z</time></trkpt><trkpt lat="39.2570829" lon="16.9529088"><ele>199.0</ele><time>2026-03-28T14:57:53.702Z</time></trkpt><trkpt lat="39.2570748" lon="16.9529915"><ele>199.0</ele><time>2026-03-28T14:57:54.698Z</time></trkpt><trkpt lat="39.2570664" lon="16.9530746"><ele>198.99999999999997</ele><time>2026-03-28T14:57:55.7Z</time></trkpt><trkpt lat="39.2570585" lon="16.953159"><ele>199.0</ele><time>2026-03-28T14:57:56.698Z</time></trkpt><trkpt lat="39.2570482" lon="16.9532439"><ele>197.6</ele><time>2026-03-28T14:57:57.697Z</time></trkpt><trkpt lat="39.2570274" lon="16.9533904"><ele>196.2</ele><time>2026-03-28T14:57:59.707Z</time></trkpt><trkpt lat="39.2570072" lon="16.9535518"><ele>194.79999999999998</ele><time>2026-03-28T14:58:01.698Z</time></trkpt><trkpt lat="39.2570095" lon="16.953643"><ele>193.39999999999998</ele><time>2026-03-28T14:58:02.703Z</time></trkpt><trkpt lat="39.2570312" lon="16.9537273"><ele>192.0</ele><time>2026-03-28T14:58:03.705Z</time></trkpt><trkpt lat="39.2570767" lon="16.9537961"><ele>192.0</ele><time>2026-03-28T14:58:04.704Z</time></trkpt><trkpt lat="39.257141" lon="16.9538544"><ele>192.0</ele><time>2026-03-28T14:58:05.709Z</time></trkpt><trkpt lat="39.2572176" lon="16.9539157"><ele>192.0</ele><time>2026-03-28T14:58:06.714Z</time></trkpt><trkpt lat="39.2572901" lon="16.9539756"><ele>192.0</ele><time>2026-03-28T14:58:07.708Z</time></trkpt><trkpt lat="39.2573575" lon="16.9540369"><ele>192.0</ele><time>2026-03-28T14:58:08.698Z</time></trkpt><trkpt lat="39.2574243" lon="16.9540981"><ele>192.0</ele><time>2026-03-28T14:58:09.706Z</time></trkpt><trkpt lat="39.2574895" lon="16.9541503"><ele>190.99999999999997</ele><time>2026-03-28T14:58:10.702Z</time></trkpt><trkpt lat="39.2575519" lon="16.9541905"><ele>190.0</ele><time>2026-03-28T14:58:11.711Z</time></trkpt><trkpt lat="39.257613" lon="16.9542192"><ele>189.0</ele><time>2026-03-28T14:58:12.702Z</time></trkpt><trkpt lat="39.2576776" lon="16.9542354"><ele>188.0</ele><time>2026-03-28T14:58:13.701Z</time></trkpt><trkpt lat="39.2577423" lon="16.9542467"><ele>187.0</ele><time>2026-03-28T14:58:14.708Z</time></trkpt><trkpt lat="39.25781" lon="16.9542622"><ele>185.99999999999997</ele><time>2026-03-28T14:58:15.702Z</time></trkpt><trkpt lat="39.2578847" lon="16.9542871"><ele>185.0</ele><time>2026-03-28T14:58:16.704Z</time></trkpt><trkpt lat="39.257971" lon="16.9543197"><ele>183.6</ele><time>2026-03-28T14:58:17.702Z</time></trkpt><trkpt lat="39.2580591" lon="16.954357"><ele>182.2</ele><time>2026-03-28T14:58:18.699Z</time></trkpt><trkpt lat="39.2581441" lon="16.9544008"><ele>180.8</ele><time>2026-03-28T14:58:19.701Z</time></trkpt><trkpt lat="39.2582274" lon="16.9544586"><ele>179.4</ele><time>2026-03-28T14:58:20.703Z</time></trkpt><trkpt lat="39.2582994" lon="16.9545344"><ele>178.0</ele><time>2026-03-28T14:58:21.704Z</time></trkpt><trkpt lat="39.2583746" lon="16.9546068"><ele>176.4</ele><time>2026-03-28T14:58:22.702Z</time></trkpt><trkpt lat="39.2584598" lon="16.9546683"><ele>174.8</ele><time>2026-03-28T14:58:23.695Z</time></trkpt><trkpt lat="39.2585529" lon="16.9547322"><ele>173.2</ele><time>2026-03-28T14:58:24.703Z</time></trkpt><trkpt lat="39.2586481" lon="16.954799"><ele>171.6</ele><time>2026-03-28T14:58:25.701Z</time></trkpt><trkpt lat="39.258743" lon="16.9548638"><ele>170.0</ele><time>2026-03-28T14:58:26.705Z</time></trkpt><trkpt lat="39.2588396" lon="16.9549266"><ele>170.0</ele><time>2026-03-28T14:58:27.708Z</time></trkpt><trkpt lat="39.258932" lon="16.9549815"><ele>170.0</ele><time>2026-03-28T14:58:28.706Z</time></trkpt><trkpt lat="39.2590199" lon="16.9550281"><ele>170.0</ele><time>2026-03-28T14:58:29.707Z</time></trkpt><trkpt lat="39.2591095" lon="16.9550685"><ele>170.0</ele><time>2026-03-28T14:58:30.7Z</time></trkpt><trkpt lat="39.2592017" lon="16.9551067"><ele>170.0</ele><time>2026-03-28T14:58:31.701Z</time></trkpt><trkpt lat="39.25929" lon="16.9551427"><ele>168.5</ele><time>2026-03-28T14:58:32.701Z</time></trkpt><trkpt lat="39.2593719" lon="16.9551756"><ele>167.0</ele><time>2026-03-28T14:58:33.705Z</time></trkpt><trkpt lat="39.2594532" lon="16.9552064"><ele>165.5</ele><time>2026-03-28T14:58:34.696Z</time></trkpt><trkpt lat="39.2595384" lon="16.9552165"><ele>164.0</ele><time>2026-03-28T14:58:35.697Z</time></trkpt><trkpt lat="39.2596147" lon="16.955197"><ele>162.5</ele><time>2026-03-28T14:58:36.702Z</time></trkpt><trkpt lat="39.2596851" lon="16.9551565"><ele>161.0</ele><time>2026-03-28T14:58:37.703Z</time></trkpt><trkpt lat="39.2597602" lon="16.9551131"><ele>159.83333333333331</ele><time>2026-03-28T14:58:38.699Z</time></trkpt><trkpt lat="39.2598338" lon="16.955068"><ele>158.66666666666666</ele><time>2026-03-28T14:58:39.702Z</time></trkpt><trkpt lat="39.2599074" lon="16.9550337"><ele>157.5</ele><time>2026-03-28T14:58:40.702Z</time></trkpt><trkpt lat="39.2599841" lon="16.9550145"><ele>156.33333333333334</ele><time>2026-03-28T14:58:41.7Z</time></trkpt><trkpt lat="39.2600623" lon="16.9550264"><ele>155.16666666666669</ele><time>2026-03-28T14:58:42.699Z</time></trkpt><trkpt lat="39.2601368" lon="16.9550429"><ele>154.0</ele><time>2026-03-28T14:58:43.701Z</time></trkpt><trkpt lat="39.2602039" lon="16.9551084"><ele>153.66666666666669</ele><time>2026-03-28T14:58:44.696Z</time></trkpt><trkpt lat="39.260265" lon="16.9551715"><ele>153.33333333333334</ele><time>2026-03-28T14:58:45.698Z</time></trkpt><trkpt lat="39.2603312" lon="16.9552225"><ele>153.0</ele><time>2026-03-28T14:58:46.698Z</time></trkpt><trkpt lat="39.2604053" lon="16.9552744"><ele>152.66666666666666</ele><time>2026-03-28T14:58:47.699Z</time></trkpt><trkpt lat="39.2604812" lon="16.9553378"><ele>152.33333333333331</ele><time>2026-03-28T14:58:48.699Z</time></trkpt><trkpt lat="39.2605618" lon="16.9554011"><ele>152.0</ele><time>2026-03-28T14:58:49.707Z</time></trkpt><trkpt lat="39.2606469" lon="16.9554642"><ele>150.5</ele><time>2026-03-28T14:58:50.704Z</time></trkpt><trkpt lat="39.2607266" lon="16.9555254"><ele>149.0</ele><time>2026-03-28T14:58:51.702Z</time></trkpt><trkpt lat="39.2608013" lon="16.9555815"><ele>147.5</ele><time>2026-03-28T14:58:52.707Z</time></trkpt><trkpt lat="39.2608699" lon="16.9556343"><ele>146.0</ele><time>2026-03-28T14:58:53.702Z</time></trkpt><trkpt lat="39.2609321" lon="16.9556874"><ele>144.5</ele><time>2026-03-28T14:58:54.703Z</time></trkpt><trkpt lat="39.2609975" lon="16.9557526"><ele>143.0</ele><time>2026-03-28T14:58:55.702Z</time></trkpt><trkpt lat="39.261068" lon="16.9558339"><ele>142.83333333333331</ele><time>2026-03-28T14:58:56.704Z</time></trkpt><trkpt lat="39.261134" lon="16.955915"><ele>142.66666666666666</ele><time>2026-03-28T14:58:57.703Z</time></trkpt><trkpt lat="39.2611965" lon="16.9559904"><ele>142.5</ele><time>2026-03-28T14:58:58.705Z</time></trkpt><trkpt lat="39.2612502" lon="16.956059"><ele>142.33333333333334</ele><time>2026-03-28T14:58:59.71Z</time></trkpt><trkpt lat="39.2612969" lon="16.9561195"><ele>142.16666666666669</ele><time>2026-03-28T14:59:00.707Z</time></trkpt><trkpt lat="39.2613719" lon="16.956229"><ele>142.0</ele><time>2026-03-28T14:59:02.718Z</time></trkpt><trkpt lat="39.2614258" lon="16.956378"><ele>142.0</ele><time>2026-03-28T14:59:04.698Z</time></trkpt><trkpt lat="39.2614429" lon="16.9564665"><ele>142.0</ele><time>2026-03-28T14:59:05.701Z</time></trkpt><trkpt lat="39.2614551" lon="16.9565538"><ele>142.0</ele><time>2026-03-28T14:59:06.705Z</time></trkpt><trkpt lat="39.2614658" lon="16.956637"><ele>142.0</ele><time>2026-03-28T14:59:07.698Z</time></trkpt><trkpt lat="39.2615379" lon="16.9567362"><ele>142.0</ele><time>2026-03-28T14:59:09.701Z</time></trkpt><trkpt lat="39.2616727" lon="16.956732"><ele>142.0</ele><time>2026-03-28T14:59:11.702Z</time></trkpt><trkpt lat="39.2617474" lon="16.9567221"><ele>139.83333333333334</ele><time>2026-03-28T14:59:12.705Z</time></trkpt><trkpt lat="39.2618196" lon="16.9567132"><ele>137.66666666666669</ele><time>2026-03-28T14:59:13.711Z</time></trkpt><trkpt lat="39.2618884" lon="16.9567096"><ele>135.5</ele><time>2026-03-28T14:59:14.707Z</time></trkpt><trkpt lat="39.2619606" lon="16.9567055"><ele>133.33333333333334</ele><time>2026-03-28T14:59:15.708Z</time></trkpt><trkpt lat="39.2620562" lon="16.9567213"><ele>131.16666666666666</ele><time>2026-03-28T14:59:16.703Z</time></trkpt><trkpt lat="39.2621538" lon="16.9567556"><ele>129.0</ele><time>2026-03-28T14:59:17.708Z</time></trkpt><trkpt lat="39.2622446" lon="16.9567895"><ele>128.0</ele><time>2026-03-28T14:59:18.702Z</time></trkpt><trkpt lat="39.2623062" lon="16.9568485"><ele>127.0</ele><time>2026-03-28T14:59:19.708Z</time></trkpt><trkpt lat="39.2623377" lon="16.9569274"><ele>126.0</ele><time>2026-03-28T14:59:20.699Z</time></trkpt><trkpt lat="39.2623764" lon="16.9570633"><ele>125.0</ele><time>2026-03-28T14:59:22.707Z</time></trkpt><trkpt lat="39.2624126" lon="16.9572064"><ele>124.0</ele><time>2026-03-28T14:59:24.702Z</time></trkpt><trkpt lat="39.2624563" lon="16.957268"><ele>123.0</ele><time>2026-03-28T14:59:25.71Z</time></trkpt><trkpt lat="39.2625187" lon="16.9573292"><ele>123.0</ele><time>2026-03-28T14:59:26.708Z</time></trkpt><trkpt lat="39.2625965" lon="16.957378"><ele>123.0</ele><time>2026-03-28T14:59:27.705Z</time></trkpt><trkpt lat="39.2626729" lon="16.9574336"><ele>123.0</ele><time>2026-03-28T14:59:28.705Z</time></trkpt><trkpt lat="39.2627502" lon="16.9574845"><ele>123.0</ele><time>2026-03-28T14:59:29.701Z</time></trkpt><trkpt lat="39.2628275" lon="16.9575448"><ele>123.0</ele><time>2026-03-28T14:59:30.699Z</time></trkpt><trkpt lat="39.2629055" lon="16.9576049"><ele>123.0</ele><time>2026-03-28T14:59:31.709Z</time></trkpt><trkpt lat="39.262976" lon="16.9576723"><ele>122.5</ele><time>2026-03-28T14:59:32.703Z</time></trkpt><trkpt lat="39.2630419" lon="16.9577363"><ele>122.0</ele><time>2026-03-28T14:59:33.702Z</time></trkpt><trkpt lat="39.2631104" lon="16.957795"><ele>121.5</ele><time>2026-03-28T14:59:34.708Z</time></trkpt><trkpt lat="39.2631821" lon="16.9578351"><ele>121.0</ele><time>2026-03-28T14:59:35.707Z</time></trkpt><trkpt lat="39.2632518" lon="16.9578598"><ele>120.5</ele><time>2026-03-28T14:59:36.712Z</time></trkpt><trkpt lat="39.2633254" lon="16.95788"><ele>120.0</ele><time>2026-03-28T14:59:37.708Z</time></trkpt><trkpt lat="39.2634036" lon="16.9578942"><ele>119.57142857142858</ele><time>2026-03-28T14:59:38.701Z</time></trkpt><trkpt lat="39.2634751" lon="16.9579081"><ele>119.14285714285714</ele><time>2026-03-28T14:59:39.701Z</time></trkpt><trkpt lat="39.2635365" lon="16.957937"><ele>118.71428571428572</ele><time>2026-03-28T14:59:40.702Z</time></trkpt><trkpt lat="39.2635927" lon="16.957986"><ele>118.28571428571429</ele><time>2026-03-28T14:59:41.703Z</time></trkpt><trkpt lat="39.2636503" lon="16.9580346"><ele>117.85714285714286</ele><time>2026-03-28T14:59:42.701Z</time></trkpt><trkpt lat="39.2637221" lon="16.9580746"><ele>117.42857142857143</ele><time>2026-03-28T14:59:43.706Z</time></trkpt><trkpt lat="39.2637964" lon="16.9581187"><ele>117.0</ele><time>2026-03-28T14:59:44.704Z</time></trkpt><trkpt lat="39.2638688" lon="16.9581705"><ele>117.0</ele><time>2026-03-28T14:59:45.696Z</time></trkpt><trkpt lat="39.2639333" lon="16.9582198"><ele>117.0</ele><time>2026-03-28T14:59:46.706Z</time></trkpt><trkpt lat="39.2640041" lon="16.9582731"><ele>117.0</ele><time>2026-03-28T14:59:47.704Z</time></trkpt><trkpt lat="39.2640721" lon="16.9583231"><ele>117.0</ele><time>2026-03-28T14:59:48.703Z</time></trkpt><trkpt lat="39.2641465" lon="16.9583734"><ele>117.0</ele><time>2026-03-28T14:59:49.704Z</time></trkpt><trkpt lat="39.2642184" lon="16.9584219"><ele>117.0</ele><time>2026-03-28T14:59:50.703Z</time></trkpt><trkpt lat="39.2642901" lon="16.9584706"><ele>116.57142857142858</ele><time>2026-03-28T14:59:51.704Z</time></trkpt><trkpt lat="39.2643598" lon="16.9585065"><ele>116.14285714285715</ele><time>2026-03-28T14:59:52.708Z</time></trkpt><trkpt lat="39.264425" lon="16.9585408"><ele>115.71428571428572</ele><time>2026-03-28T14:59:53.708Z</time></trkpt><trkpt lat="39.2644928" lon="16.9585732"><ele>115.28571428571428</ele><time>2026-03-28T14:59:54.712Z</time></trkpt><trkpt lat="39.2645549" lon="16.9586032"><ele>114.85714285714285</ele><time>2026-03-28T14:59:55.71Z</time></trkpt><trkpt lat="39.2646173" lon="16.9586342"><ele>114.42857142857142</ele><time>2026-03-28T14:59:56.702Z</time></trkpt><trkpt lat="39.2646797" lon="16.9586631"><ele>114.0</ele><time>2026-03-28T14:59:57.703Z</time></trkpt><trkpt lat="39.2647835" lon="16.9587062"><ele>113.0</ele><time>2026-03-28T14:59:59.703Z</time></trkpt><trkpt lat="39.2648687" lon="16.9587427"><ele>112.0</ele><time>2026-03-28T15:00:02.701Z</time></trkpt><trkpt lat="39.2649539" lon="16.9587957"><ele>111.0</ele><time>2026-03-28T15:00:04.715Z</time></trkpt><trkpt lat="39.2650502" lon="16.9588448"><ele>110.0</ele><time>2026-03-28T15:00:06.709Z</time></trkpt><trkpt lat="39.2651508" lon="16.9588824"><ele>109.0</ele><time>2026-03-28T15:00:08.71Z</time></trkpt><trkpt lat="39.2652392" lon="16.9588935"><ele>109.00000000000001</ele><time>2026-03-28T15:00:10.704Z</time></trkpt><trkpt lat="39.2652992" lon="16.9589295"><ele>109.0</ele><time>2026-03-28T15:00:13.71Z</time></trkpt><trkpt lat="39.2653769" lon="16.9589746"><ele>109.0</ele><time>2026-03-28T15:00:17.712Z</time></trkpt><trkpt lat="39.2654328" lon="16.9590371"><ele>109.0</ele><time>2026-03-28T15:00:21.705Z</time></trkpt><trkpt lat="39.2654894" lon="16.959118"><ele>109.00000000000001</ele><time>2026-03-28T15:00:24.715Z</time></trkpt><trkpt lat="39.265558" lon="16.959166"><ele>109.0</ele><time>2026-03-28T15:00:26.706Z</time></trkpt><trkpt lat="39.2656525" lon="16.9591984"><ele>109.50000000000001</ele><time>2026-03-28T15:00:28.713Z</time></trkpt><trkpt lat="39.2657371" lon="16.9592427"><ele>110.0</ele><time>2026-03-28T15:00:30.706Z</time></trkpt><trkpt lat="39.2658152" lon="16.9593051"><ele>110.5</ele><time>2026-03-28T15:00:32.703Z</time></trkpt><trkpt lat="39.2658798" lon="16.9593725"><ele>111.0</ele><time>2026-03-28T15:00:34.708Z</time></trkpt><trkpt lat="39.2659436" lon="16.9594296"><ele>111.50000000000001</ele><time>2026-03-28T15:00:36.697Z</time></trkpt><trkpt lat="39.266017" lon="16.9594857"><ele>112.0</ele><time>2026-03-28T15:00:38.703Z</time></trkpt><trkpt lat="39.2660828" lon="16.9595358"><ele>112.0</ele><time>2026-03-28T15:00:40.711Z</time></trkpt><trkpt lat="39.2661677" lon="16.9595926"><ele>111.99999999999999</ele><time>2026-03-28T15:00:42.708Z</time></trkpt><trkpt lat="39.2662583" lon="16.9596723"><ele>111.99999999999999</ele><time>2026-03-28T15:00:44.702Z</time></trkpt><trkpt lat="39.2663398" lon="16.9597431"><ele>112.0</ele><time>2026-03-28T15:00:46.703Z</time></trkpt><trkpt lat="39.2664415" lon="16.9598202"><ele>112.0</ele><time>2026-03-28T15:00:48.703Z</time></trkpt><trkpt lat="39.2664841" lon="16.9598874"><ele>112.5</ele><time>2026-03-28T15:00:49.7Z</time></trkpt><trkpt lat="39.2665651" lon="16.9599997"><ele>113.0</ele><time>2026-03-28T15:00:51.701Z</time></trkpt><trkpt lat="39.266672" lon="16.9600664"><ele>113.5</ele><time>2026-03-28T15:00:53.698Z</time></trkpt><trkpt lat="39.2667766" lon="16.9601164"><ele>114.0</ele><time>2026-03-28T15:00:55.698Z</time></trkpt><trkpt lat="39.2668926" lon="16.9601688"><ele>115.16666666666667</ele><time>2026-03-28T15:00:57.703Z</time></trkpt><trkpt lat="39.2669956" lon="16.9602358"><ele>116.33333333333334</ele><time>2026-03-28T15:00:59.703Z</time></trkpt><trkpt lat="39.2670923" lon="16.9603112"><ele>117.5</ele><time>2026-03-28T15:01:01.702Z</time></trkpt><trkpt lat="39.2671454" lon="16.9603642"><ele>118.66666666666667</ele><time>2026-03-28T15:01:02.711Z</time></trkpt><trkpt lat="39.2671995" lon="16.9604158"><ele>119.83333333333334</ele><time>2026-03-28T15:01:03.71Z</time></trkpt><trkpt lat="39.2672629" lon="16.9604547"><ele>121.0</ele><time>2026-03-28T15:01:04.713Z</time></trkpt><trkpt lat="39.2673714" lon="16.9605232"><ele>121.4</ele><time>2026-03-28T15:01:06.702Z</time></trkpt><trkpt lat="39.2674775" lon="16.9605923"><ele>121.8</ele><time>2026-03-28T15:01:08.709Z</time></trkpt><trkpt lat="39.2675747" lon="16.9606665"><ele>122.20000000000002</ele><time>2026-03-28T15:01:10.703Z</time></trkpt><trkpt lat="39.2676678" lon="16.96077"><ele>122.60000000000001</ele><time>2026-03-28T15:01:12.7Z</time></trkpt><trkpt lat="39.2677269" lon="16.9608255"><ele>123.0</ele><time>2026-03-28T15:01:13.709Z</time></trkpt><trkpt lat="39.2678016" lon="16.960867"><ele>124.66666666666667</ele><time>2026-03-28T15:01:14.7Z</time></trkpt><trkpt lat="39.2678799" lon="16.9609067"><ele>126.33333333333334</ele><time>2026-03-28T15:01:15.711Z</time></trkpt><trkpt lat="39.2679555" lon="16.960945"><ele>128.0</ele><time>2026-03-28T15:01:16.709Z</time></trkpt><trkpt lat="39.2680141" lon="16.9610106"><ele>129.66666666666669</ele><time>2026-03-28T15:01:17.699Z</time></trkpt><trkpt lat="39.2680602" lon="16.9610915"><ele>131.33333333333334</ele><time>2026-03-28T15:01:18.701Z</time></trkpt><trkpt lat="39.2681058" lon="16.9611845"><ele>133.0</ele><time>2026-03-28T15:01:19.704Z</time></trkpt><trkpt lat="39.2681482" lon="16.9612763"><ele>134.66666666666669</ele><time>2026-03-28T15:01:20.698Z</time></trkpt><trkpt lat="39.2681811" lon="16.9613676"><ele>136.33333333333334</ele><time>2026-03-28T15:01:21.702Z</time></trkpt><trkpt lat="39.2682446" lon="16.9614888"><ele>138.0</ele><time>2026-03-28T15:01:23.701Z</time></trkpt><trkpt lat="39.2682798" lon="16.9615563"><ele>139.66666666666666</ele><time>2026-03-28T15:01:24.703Z</time></trkpt><trkpt lat="39.2683168" lon="16.9616238"><ele>141.33333333333331</ele><time>2026-03-28T15:01:25.698Z</time></trkpt><trkpt lat="39.2683965" lon="16.9617432"><ele>143.0</ele><time>2026-03-28T15:01:27.698Z</time></trkpt><trkpt lat="39.2684565" lon="16.9617915"><ele>143.33333333333331</ele><time>2026-03-28T15:01:28.701Z</time></trkpt><trkpt lat="39.2685175" lon="16.9618412"><ele>143.66666666666666</ele><time>2026-03-28T15:01:29.703Z</time></trkpt><trkpt lat="39.2685755" lon="16.9619007"><ele>144.0</ele><time>2026-03-28T15:01:30.706Z</time></trkpt><trkpt lat="39.2686358" lon="16.9619615"><ele>144.33333333333334</ele><time>2026-03-28T15:01:31.703Z</time></trkpt><trkpt lat="39.2687045" lon="16.9620047"><ele>144.66666666666669</ele><time>2026-03-28T15:01:32.698Z</time></trkpt><trkpt lat="39.2687736" lon="16.9620485"><ele>145.0</ele><time>2026-03-28T15:01:33.695Z</time></trkpt><trkpt lat="39.2688433" lon="16.9620973"><ele>145.0</ele><time>2026-03-28T15:01:34.71Z</time></trkpt><trkpt lat="39.2689175" lon="16.9621423"><ele>145.0</ele><time>2026-03-28T15:01:35.702Z</time></trkpt><trkpt lat="39.2689965" lon="16.9621816"><ele>145.0</ele><time>2026-03-28T15:01:36.708Z</time></trkpt><trkpt lat="39.2690691" lon="16.9622214"><ele>145.0</ele><time>2026-03-28T15:01:37.715Z</time></trkpt><trkpt lat="39.2691362" lon="16.9622578"><ele>145.0</ele><time>2026-03-28T15:01:38.709Z</time></trkpt><trkpt lat="39.2691973" lon="16.9622962"><ele>145.0</ele><time>2026-03-28T15:01:39.709Z</time></trkpt><trkpt lat="39.2692591" lon="16.9623375"><ele>146.66666666666669</ele><time>2026-03-28T15:01:40.71Z</time></trkpt><trkpt lat="39.2693542" lon="16.9624089"><ele>148.33333333333334</ele><time>2026-03-28T15:01:42.705Z</time></trkpt><trkpt lat="39.2694198" lon="16.9623427"><ele>150.0</ele><time>2026-03-28T15:01:44.707Z</time></trkpt><trkpt lat="39.2694643" lon="16.9622491"><ele>151.66666666666666</ele><time>2026-03-28T15:01:46.699Z</time></trkpt><trkpt lat="39.2695042" lon="16.9621705"><ele>153.33333333333331</ele><time>2026-03-28T15:01:48.698Z</time></trkpt><trkpt lat="39.2695567" lon="16.962074"><ele>155.0</ele><time>2026-03-28T15:01:50.707Z</time></trkpt><trkpt lat="39.2696315" lon="16.9620118"><ele>155.0</ele><time>2026-03-28T15:01:52.708Z</time></trkpt><trkpt lat="39.2697194" lon="16.9619678"><ele>155.0</ele><time>2026-03-28T15:01:54.702Z</time></trkpt><trkpt lat="39.2698127" lon="16.9619764"><ele>155.0</ele><time>2026-03-28T15:01:56.705Z</time></trkpt><trkpt lat="39.2698876" lon="16.9620029"><ele>155.0</ele><time>2026-03-28T15:01:58.702Z</time></trkpt><trkpt lat="39.2699323" lon="16.9620834"><ele>155.0</ele><time>2026-03-28T15:02:00.703Z</time></trkpt><trkpt lat="39.2699744" lon="16.9622136"><ele>158.0</ele><time>2026-03-28T15:02:02.699Z</time></trkpt><trkpt lat="39.270024" lon="16.9623183"><ele>161.0</ele><time>2026-03-28T15:02:04.698Z</time></trkpt><trkpt lat="39.2701109" lon="16.9623743"><ele>164.0</ele><time>2026-03-28T15:02:06.701Z</time></trkpt><trkpt lat="39.2702029" lon="16.9624154"><ele>167.0</ele><time>2026-03-28T15:02:08.699Z</time></trkpt><trkpt lat="39.2702813" lon="16.9624629"><ele>170.0</ele><time>2026-03-28T15:02:10.704Z</time></trkpt><trkpt lat="39.2703357" lon="16.9625585"><ele>170.16666666666666</ele><time>2026-03-28T15:02:12.695Z</time></trkpt><trkpt lat="39.2703889" lon="16.9626687"><ele>170.33333333333331</ele><time>2026-03-28T15:02:14.702Z</time></trkpt><trkpt lat="39.2704307" lon="16.9627849"><ele>170.5</ele><time>2026-03-28T15:02:16.711Z</time></trkpt><trkpt lat="39.2704273" lon="16.9628874"><ele>170.66666666666666</ele><time>2026-03-28T15:02:18.702Z</time></trkpt><trkpt lat="39.2704103" lon="16.9629713"><ele>170.83333333333334</ele><time>2026-03-28T15:02:20.705Z</time></trkpt><trkpt lat="39.2704435" lon="16.963076"><ele>171.0</ele><time>2026-03-28T15:02:22.708Z</time></trkpt><trkpt lat="39.2705121" lon="16.9632086"><ele>170.99999999999997</ele><time>2026-03-28T15:02:24.702Z</time></trkpt><trkpt lat="39.2705584" lon="16.9633092"><ele>171.0</ele><time>2026-03-28T15:02:26.706Z</time></trkpt><trkpt lat="39.2705979" lon="16.9633883"><ele>171.0</ele><time>2026-03-28T15:02:28.715Z</time></trkpt><trkpt lat="39.2706342" lon="16.9634676"><ele>171.0</ele><time>2026-03-28T15:02:31.709Z</time></trkpt><trkpt lat="39.2706602" lon="16.9635425"><ele>171.0</ele><time>2026-03-28T15:03:22.702Z</time></trkpt><trkpt lat="39.2707126" lon="16.9636018"><ele>170.99999999999997</ele><time>2026-03-28T15:03:25.701Z</time></trkpt><trkpt lat="39.2707552" lon="16.9636879"><ele>171.0</ele><time>2026-03-28T15:03:28.707Z</time></trkpt><trkpt lat="39.2707841" lon="16.9637778"><ele>176.20000000000002</ele><time>2026-03-28T15:03:30.708Z</time></trkpt><trkpt lat="39.2707621" lon="16.9638911"><ele>181.4</ele><time>2026-03-28T15:03:32.696Z</time></trkpt><trkpt lat="39.2707543" lon="16.9640023"><ele>186.6</ele><time>2026-03-28T15:03:34.701Z</time></trkpt><trkpt lat="39.2707616" lon="16.9641197"><ele>191.8</ele><time>2026-03-28T15:03:36.703Z</time></trkpt><trkpt lat="39.2707583" lon="16.964243"><ele>197.0</ele><time>2026-03-28T15:03:38.7Z</time></trkpt><trkpt lat="39.2707839" lon="16.9643673"><ele>197.00000000000003</ele><time>2026-03-28T15:03:40.699Z</time></trkpt><trkpt lat="39.2708276" lon="16.9644635"><ele>197.0</ele><time>2026-03-28T15:03:42.701Z</time></trkpt><trkpt lat="39.2708823" lon="16.9645469"><ele>197.0</ele><time>2026-03-28T15:03:44.7Z</time></trkpt><trkpt lat="39.2709391" lon="16.9646279"><ele>197.0</ele><time>2026-03-28T15:03:46.702Z</time></trkpt><trkpt lat="39.2709954" lon="16.9647192"><ele>197.00000000000003</ele><time>2026-03-28T15:03:48.706Z</time></trkpt><trkpt lat="39.2710519" lon="16.9648197"><ele>197.0</ele><time>2026-03-28T15:03:50.703Z</time></trkpt><trkpt lat="39.2710965" lon="16.9649427"><ele>197.33333333333334</ele><time>2026-03-28T15:03:52.7Z</time></trkpt><trkpt lat="39.2711246" lon="16.9650734"><ele>197.66666666666669</ele><time>2026-03-28T15:03:54.702Z</time></trkpt><trkpt lat="39.2711446" lon="16.9651805"><ele>198.0</ele><time>2026-03-28T15:03:56.702Z</time></trkpt><trkpt lat="39.2711881" lon="16.9652561"><ele>198.33333333333331</ele><time>2026-03-28T15:03:59.708Z</time></trkpt><trkpt lat="39.2712435" lon="16.9653197"><ele>198.66666666666666</ele><time>2026-03-28T15:04:11.703Z</time></trkpt><trkpt lat="39.2713081" lon="16.9653739"><ele>199.0</ele><time>2026-03-28T15:04:14.708Z</time></trkpt><trkpt lat="39.2713723" lon="16.9654414"><ele>198.99999999999997</ele><time>2026-03-28T15:04:17.701Z</time></trkpt><trkpt lat="39.2713911" lon="16.9655295"><ele>199.0</ele><time>2026-03-28T15:04:20.704Z</time></trkpt><trkpt lat="39.2714177" lon="16.9656046"><ele>199.0</ele><time>2026-03-28T15:04:22.706Z</time></trkpt><trkpt lat="39.2714438" lon="16.9656989"><ele>199.0</ele><time>2026-03-28T15:04:24.704Z</time></trkpt><trkpt lat="39.2714408" lon="16.9658033"><ele>198.99999999999997</ele><time>2026-03-28T15:04:26.71Z</time></trkpt><trkpt lat="39.2714479" lon="16.9659006"><ele>199.0</ele><time>2026-03-28T15:04:28.714Z</time></trkpt><trkpt lat="39.2715165" lon="16.9659645"><ele>203.33333333333331</ele><time>2026-03-28T15:04:31.7Z</time></trkpt><trkpt lat="39.2715826" lon="16.9659054"><ele>207.66666666666666</ele><time>2026-03-28T15:04:34.707Z</time></trkpt><trkpt lat="39.2716104" lon="16.9658188"><ele>212.0</ele><time>2026-03-28T15:04:37.707Z</time></trkpt><trkpt lat="39.2716487" lon="16.9657307"><ele>216.33333333333331</ele><time>2026-03-28T15:04:40.7Z</time></trkpt><trkpt lat="39.2717265" lon="16.9656728"><ele>220.66666666666666</ele><time>2026-03-28T15:04:43.708Z</time></trkpt><trkpt lat="39.2717948" lon="16.9655935"><ele>225.0</ele><time>2026-03-28T15:04:46.705Z</time></trkpt><trkpt lat="39.2718459" lon="16.9655374"><ele>225.00000000000003</ele><time>2026-03-28T15:04:48.701Z</time></trkpt><trkpt lat="39.2718975" lon="16.9654889"><ele>225.0</ele><time>2026-03-28T15:04:50.702Z</time></trkpt><trkpt lat="39.2719594" lon="16.9654393"><ele>225.00000000000003</ele><time>2026-03-28T15:04:52.702Z</time></trkpt><trkpt lat="39.2720284" lon="16.9654139"><ele>225.00000000000003</ele><time>2026-03-28T15:04:54.706Z</time></trkpt><trkpt lat="39.2720909" lon="16.9653877"><ele>225.0</ele><time>2026-03-28T15:04:56.698Z</time></trkpt><trkpt lat="39.2721383" lon="16.9653338"><ele>225.00000000000003</ele><time>2026-03-28T15:04:58.71Z</time></trkpt><trkpt lat="39.2721903" lon="16.9652664"><ele>225.00000000000003</ele><time>2026-03-28T15:05:00.699Z</time></trkpt><trkpt lat="39.2722497" lon="16.9651977"><ele>228.28571428571433</ele><time>2026-03-28T15:05:02.699Z</time></trkpt><trkpt lat="39.27231" lon="16.96513"><ele>231.57142857142858</ele><time>2026-03-28T15:05:04.701Z</time></trkpt><trkpt lat="39.2723586" lon="16.9650643"><ele>234.8571428571429</ele><time>2026-03-28T15:05:06.699Z</time></trkpt><trkpt lat="39.2724094" lon="16.964995"><ele>238.14285714285717</ele><time>2026-03-28T15:05:08.717Z</time></trkpt><trkpt lat="39.2724536" lon="16.9649168"><ele>241.42857142857144</ele><time>2026-03-28T15:05:10.701Z</time></trkpt><trkpt lat="39.27248" lon="16.9648284"><ele>244.71428571428572</ele><time>2026-03-28T15:05:12.704Z</time></trkpt><trkpt lat="39.2724913" lon="16.9647439"><ele>248.0</ele><time>2026-03-28T15:05:14.703Z</time></trkpt><trkpt lat="39.272536" lon="16.9646396"><ele>248.00000000000003</ele><time>2026-03-28T15:05:17.702Z</time></trkpt><trkpt lat="39.2725867" lon="16.9645787"><ele>248.0</ele><time>2026-03-28T15:05:19.704Z</time></trkpt><trkpt lat="39.2726422" lon="16.9645226"><ele>248.0</ele><time>2026-03-28T15:05:21.702Z</time></trkpt><trkpt lat="39.2726927" lon="16.9644678"><ele>248.0</ele><time>2026-03-28T15:05:23.7Z</time></trkpt><trkpt lat="39.2727582" lon="16.9643932"><ele>248.00000000000003</ele><time>2026-03-28T15:05:26.703Z</time></trkpt><trkpt lat="39.2728388" lon="16.9643728"><ele>248.0</ele><time>2026-03-28T15:05:29.708Z</time></trkpt><trkpt lat="39.2729304" lon="16.9643814"><ele>248.00000000000003</ele><time>2026-03-28T15:05:32.706Z</time></trkpt><trkpt lat="39.2730057" lon="16.9643875"><ele>248.0</ele><time>2026-03-28T15:05:34.704Z</time></trkpt><trkpt lat="39.2730816" lon="16.9643784"><ele>248.0</ele><time>2026-03-28T15:05:36.701Z</time></trkpt><trkpt lat="39.2731594" lon="16.9643556"><ele>248.0</ele><time>2026-03-28T15:05:38.707Z</time></trkpt><trkpt lat="39.273241" lon="16.9643242"><ele>248.00000000000003</ele><time>2026-03-28T15:05:40.721Z</time></trkpt><trkpt lat="39.2733155" lon="16.9642953"><ele>248.0</ele><time>2026-03-28T15:05:42.707Z</time></trkpt><trkpt lat="39.273392" lon="16.9642609"><ele>251.00000000000003</ele><time>2026-03-28T15:05:44.71Z</time></trkpt><trkpt lat="39.273457" lon="16.9642227"><ele>254.0</ele><time>2026-03-28T15:05:46.7Z</time></trkpt><trkpt lat="39.2735279" lon="16.9641788"><ele>257.0</ele><time>2026-03-28T15:05:48.724Z</time></trkpt><trkpt lat="39.2735918" lon="16.9641359"><ele>260.0</ele><time>2026-03-28T15:05:50.705Z</time></trkpt><trkpt lat="39.2736546" lon="16.9641017"><ele>263.0</ele><time>2026-03-28T15:05:52.708Z</time></trkpt><trkpt lat="39.2737151" lon="16.9640633"><ele>266.0</ele><time>2026-03-28T15:05:54.706Z</time></trkpt><trkpt lat="39.2738023" lon="16.9640043"><ele>266.0</ele><time>2026-03-28T15:05:57.707Z</time></trkpt><trkpt lat="39.2738572" lon="16.9639317"><ele>266.0</ele><time>2026-03-28T15:05:59.708Z</time></trkpt><trkpt lat="39.2739318" lon="16.9638818"><ele>266.0</ele><time>2026-03-28T15:06:01.699Z</time></trkpt><trkpt lat="39.2740071" lon="16.9638342"><ele>266.0</ele><time>2026-03-28T15:06:03.702Z</time></trkpt><trkpt lat="39.2740934" lon="16.9638039"><ele>266.0</ele><time>2026-03-28T15:06:05.705Z</time></trkpt><trkpt lat="39.2741661" lon="16.9637922"><ele>266.0</ele><time>2026-03-28T15:06:08.707Z</time></trkpt><trkpt lat="39.2742365" lon="16.9638171"><ele>269.2</ele><time>2026-03-28T15:06:40.708Z</time></trkpt><trkpt lat="39.2743237" lon="16.9638607"><ele>272.40000000000003</ele><time>2026-03-28T15:06:42.701Z</time></trkpt><trkpt lat="39.2744132" lon="16.9639234"><ele>275.6</ele><time>2026-03-28T15:06:44.699Z</time></trkpt><trkpt lat="39.2744944" lon="16.9640151"><ele>278.8</ele><time>2026-03-28T15:06:46.712Z</time></trkpt><trkpt lat="39.2745466" lon="16.9641005"><ele>282.0</ele><time>2026-03-28T15:06:48.698Z</time></trkpt><trkpt lat="39.2745552" lon="16.9641932"><ele>281.8333333333333</ele><time>2026-03-28T15:06:50.701Z</time></trkpt><trkpt lat="39.2745653" lon="16.9642928"><ele>281.6666666666667</ele><time>2026-03-28T15:06:52.704Z</time></trkpt><trkpt lat="39.2745854" lon="16.9644174"><ele>281.5</ele><time>2026-03-28T15:06:54.713Z</time></trkpt><trkpt lat="39.2746227" lon="16.9645358"><ele>281.33333333333337</ele><time>2026-03-28T15:06:56.703Z</time></trkpt><trkpt lat="39.2747015" lon="16.9645913"><ele>281.1666666666667</ele><time>2026-03-28T15:06:59.703Z</time></trkpt><trkpt lat="39.2747824" lon="16.9645754"><ele>281.0</ele><time>2026-03-28T15:07:07.703Z</time></trkpt><trkpt lat="39.2748634" lon="16.9645689"><ele>282.2</ele><time>2026-03-28T15:07:09.702Z</time></trkpt><trkpt lat="39.2749459" lon="16.9645804"><ele>283.40000000000003</ele><time>2026-03-28T15:07:11.702Z</time></trkpt><trkpt lat="39.2750256" lon="16.964637"><ele>284.6</ele><time>2026-03-28T15:07:13.698Z</time></trkpt><trkpt lat="39.2751182" lon="16.9646761"><ele>285.8</ele><time>2026-03-28T15:07:15.701Z</time></trkpt><trkpt lat="39.2752283" lon="16.9646578"><ele>287.0</ele><time>2026-03-28T15:07:17.7Z</time></trkpt><trkpt lat="39.2753519" lon="16.9646587"><ele>287.0</ele><time>2026-03-28T15:07:19.707Z</time></trkpt><trkpt lat="39.2754171" lon="16.9646759"><ele>287.0</ele><time>2026-03-28T15:07:20.704Z</time></trkpt><trkpt lat="39.2754873" lon="16.9646936"><ele>287.0</ele><time>2026-03-28T15:07:21.704Z</time></trkpt><trkpt lat="39.2755584" lon="16.9647073"><ele>287.0</ele><time>2026-03-28T15:07:22.71Z</time></trkpt><trkpt lat="39.2756238" lon="16.9647133"><ele>287.0</ele><time>2026-03-28T15:07:23.702Z</time></trkpt><trkpt lat="39.2757252" lon="16.9647091"><ele>287.0</ele><time>2026-03-28T15:07:25.703Z</time></trkpt><trkpt lat="39.2758226" lon="16.964689"><ele>289.33333333333337</ele><time>2026-03-28T15:07:27.702Z</time></trkpt><trkpt lat="39.2759253" lon="16.9646375"><ele>291.6666666666667</ele><time>2026-03-28T15:07:29.702Z</time></trkpt><trkpt lat="39.2760325" lon="16.9645721"><ele>294.0</ele><time>2026-03-28T15:07:31.699Z</time></trkpt><trkpt lat="39.27609" lon="16.9645344"><ele>296.3333333333333</ele><time>2026-03-28T15:07:32.702Z</time></trkpt><trkpt lat="39.2761477" lon="16.9644881"><ele>298.66666666666663</ele><time>2026-03-28T15:07:33.71Z</time></trkpt><trkpt lat="39.2762087" lon="16.9644296"><ele>301.0</ele><time>2026-03-28T15:07:34.705Z</time></trkpt><trkpt lat="39.2762661" lon="16.9643603"><ele>301.0</ele><time>2026-03-28T15:07:35.708Z</time></trkpt><trkpt lat="39.2763417" lon="16.964248"><ele>301.0</ele><time>2026-03-28T15:07:37.705Z</time></trkpt><trkpt lat="39.2763868" lon="16.9641501"><ele>301.0</ele><time>2026-03-28T15:07:39.697Z</time></trkpt><trkpt lat="39.2764096" lon="16.9640574"><ele>301.0</ele><time>2026-03-28T15:07:41.705Z</time></trkpt><trkpt lat="39.2764293" lon="16.9639503"><ele>301.0</ele><time>2026-03-28T15:07:43.702Z</time></trkpt><trkpt lat="39.2764487" lon="16.963835"><ele>304.0</ele><time>2026-03-28T15:07:45.708Z</time></trkpt><trkpt lat="39.2764838" lon="16.9637359"><ele>307.0</ele><time>2026-03-28T15:07:47.701Z</time></trkpt><trkpt lat="39.2765251" lon="16.9636536"><ele>310.0</ele><time>2026-03-28T15:07:49.7Z</time></trkpt><trkpt lat="39.2765698" lon="16.9635834"><ele>313.0</ele><time>2026-03-28T15:07:51.705Z</time></trkpt><trkpt lat="39.2766075" lon="16.9635085"><ele>316.0</ele><time>2026-03-28T15:07:55.698Z</time></trkpt><trkpt lat="39.276653" lon="16.9634148"><ele>319.0</ele><time>2026-03-28T15:07:58.706Z</time></trkpt><trkpt lat="39.2766831" lon="16.9633367"><ele>319.0</ele><time>2026-03-28T15:08:00.705Z</time></trkpt><trkpt lat="39.2767178" lon="16.9632497"><ele>319.0</ele><time>2026-03-28T15:08:02.714Z</time></trkpt><trkpt lat="39.2767753" lon="16.963162"><ele>319.0</ele><time>2026-03-28T15:08:04.712Z</time></trkpt><trkpt lat="39.2768372" lon="16.9630569"><ele>319.0</ele><time>2026-03-28T15:08:06.715Z</time></trkpt><trkpt lat="39.2769054" lon="16.9629388"><ele>319.0</ele><time>2026-03-28T15:08:08.703Z</time></trkpt><trkpt lat="39.2769614" lon="16.9628574"><ele>319.0</ele><time>2026-03-28T15:08:10.704Z</time></trkpt><trkpt lat="39.2770346" lon="16.9627825"><ele>319.0</ele><time>2026-03-28T15:08:12.701Z</time></trkpt><trkpt lat="39.2771016" lon="16.9626883"><ele>319.0</ele><time>2026-03-28T15:08:24.711Z</time></trkpt><trkpt lat="39.2771825" lon="16.9626103"><ele>319.0</ele><time>2026-03-28T15:08:27.702Z</time></trkpt><trkpt lat="39.2772464" lon="16.9625467"><ele>319.0</ele><time>2026-03-28T15:08:29.7Z</time></trkpt><trkpt lat="39.2773028" lon="16.9624975"><ele>319.0</ele><time>2026-03-28T15:08:31.703Z</time></trkpt><trkpt lat="39.2773653" lon="16.9624448"><ele>322.3333333333333</ele><time>2026-03-28T15:08:33.7Z</time></trkpt><trkpt lat="39.277416" lon="16.9623941"><ele>325.66666666666663</ele><time>2026-03-28T15:08:35.701Z</time></trkpt><trkpt lat="39.2775032" lon="16.9623242"><ele>329.0</ele><time>2026-03-28T15:08:38.699Z</time></trkpt><trkpt lat="39.2775901" lon="16.962246"><ele>332.3333333333333</ele><time>2026-03-28T15:08:40.708Z</time></trkpt><trkpt lat="39.2776578" lon="16.9621759"><ele>335.6666666666667</ele><time>2026-03-28T15:08:42.707Z</time></trkpt><trkpt lat="39.2777103" lon="16.9621248"><ele>339.0</ele><time>2026-03-28T15:08:44.707Z</time></trkpt><trkpt lat="39.2777764" lon="16.9620614"><ele>339.0</ele><time>2026-03-28T15:08:46.703Z</time></trkpt><trkpt lat="39.2778611" lon="16.9619966"><ele>339.0</ele><time>2026-03-28T15:08:48.706Z</time></trkpt><trkpt lat="39.2779317" lon="16.9619437"><ele>339.0</ele><time>2026-03-28T15:08:50.701Z</time></trkpt><trkpt lat="39.2780153" lon="16.9619007"><ele>339.0</ele><time>2026-03-28T15:08:52.7Z</time></trkpt><trkpt lat="39.2781087" lon="16.9618774"><ele>339.0</ele><time>2026-03-28T15:08:54.698Z</time></trkpt><trkpt lat="39.2782048" lon="16.9618674"><ele>341.79999999999995</ele><time>2026-03-28T15:08:56.713Z</time></trkpt><trkpt lat="39.2783172" lon="16.9618588"><ele>344.59999999999997</ele><time>2026-03-28T15:08:58.703Z</time></trkpt><trkpt lat="39.2783882" lon="16.9618454"><ele>347.4</ele><time>2026-03-28T15:08:59.703Z</time></trkpt><trkpt lat="39.2784688" lon="16.9618347"><ele>350.2</ele><time>2026-03-28T15:09:00.698Z</time></trkpt><trkpt lat="39.2785854" lon="16.9618072"><ele>353.0</ele><time>2026-03-28T15:09:02.703Z</time></trkpt><trkpt lat="39.2786501" lon="16.9617837"><ele>353.0</ele><time>2026-03-28T15:09:03.699Z</time></trkpt><trkpt lat="39.2787177" lon="16.9617516"><ele>353.0</ele><time>2026-03-28T15:09:04.711Z</time></trkpt><trkpt lat="39.2787848" lon="16.9617071"><ele>353.0</ele><time>2026-03-28T15:09:05.703Z</time></trkpt><trkpt lat="39.2788451" lon="16.961651"><ele>353.0</ele><time>2026-03-28T15:09:06.714Z</time></trkpt><trkpt lat="39.2789186" lon="16.9615688"><ele>353.0</ele><time>2026-03-28T15:09:08.704Z</time></trkpt><trkpt lat="39.2789753" lon="16.9615077"><ele>353.0</ele><time>2026-03-28T15:09:10.703Z</time></trkpt><trkpt lat="39.2790343" lon="16.9614446"><ele>354.33333333333337</ele><time>2026-03-28T15:09:12.71Z</time></trkpt><trkpt lat="39.2790955" lon="16.9613863"><ele>355.6666666666667</ele><time>2026-03-28T15:09:14.71Z</time></trkpt><trkpt lat="39.2791515" lon="16.9613328"><ele>357.0</ele><time>2026-03-28T15:09:16.71Z</time></trkpt><trkpt lat="39.2792035" lon="16.9612725"><ele>358.3333333333333</ele><time>2026-03-28T15:09:18.711Z</time></trkpt><trkpt lat="39.27927" lon="16.9612061"><ele>359.66666666666663</ele><time>2026-03-28T15:09:20.704Z</time></trkpt><trkpt lat="39.2793372" lon="16.9611423"><ele>361.0</ele><time>2026-03-28T15:09:22.701Z</time></trkpt><trkpt lat="39.2794196" lon="16.9610518"><ele>361.0</ele><time>2026-03-28T15:09:24.706Z</time></trkpt><trkpt lat="39.279447" lon="16.9609422"><ele>361.0</ele><time>2026-03-28T15:09:26.706Z</time></trkpt><trkpt lat="39.2794414" lon="16.9607906"><ele>361.0</ele><time>2026-03-28T15:09:28.702Z</time></trkpt><trkpt lat="39.2794211" lon="16.9607111"><ele>361.0</ele><time>2026-03-28T15:09:29.698Z</time></trkpt><trkpt lat="39.279383" lon="16.9606407"><ele>361.0</ele><time>2026-03-28T15:09:30.701Z</time></trkpt><trkpt lat="39.2793397" lon="16.9605737"><ele>361.0</ele><time>2026-03-28T15:09:31.708Z</time></trkpt><trkpt lat="39.2792977" lon="16.9605054"><ele>360.8571428571429</ele><time>2026-03-28T15:09:32.701Z</time></trkpt><trkpt lat="39.2792568" lon="16.9604352"><ele>360.71428571428567</ele><time>2026-03-28T15:09:33.704Z</time></trkpt><trkpt lat="39.2792202" lon="16.9603631"><ele>360.57142857142856</ele><time>2026-03-28T15:09:34.705Z</time></trkpt><trkpt lat="39.279187" lon="16.960291"><ele>360.42857142857144</ele><time>2026-03-28T15:09:35.701Z</time></trkpt><trkpt lat="39.2791589" lon="16.9602181"><ele>360.28571428571433</ele><time>2026-03-28T15:09:36.701Z</time></trkpt><trkpt lat="39.2791209" lon="16.9600972"><ele>360.1428571428571</ele><time>2026-03-28T15:09:38.708Z</time></trkpt><trkpt lat="39.2791076" lon="16.9600139"><ele>360.0</ele><time>2026-03-28T15:10:02.712Z</time></trkpt><trkpt lat="39.2790876" lon="16.9599189"><ele>360.3333333333333</ele><time>2026-03-28T15:10:29.705Z</time></trkpt><trkpt lat="39.2790903" lon="16.9598353"><ele>360.6666666666667</ele><time>2026-03-28T15:10:32.71Z</time></trkpt><trkpt lat="39.2790774" lon="16.9597273"><ele>361.0</ele><time>2026-03-28T15:10:35.708Z</time></trkpt><trkpt lat="39.2790832" lon="16.9596307"><ele>361.33333333333337</ele><time>2026-03-28T15:10:37.716Z</time></trkpt><trkpt lat="39.2791336" lon="16.9595578"><ele>361.6666666666667</ele><time>2026-03-28T15:10:39.698Z</time></trkpt><trkpt lat="39.2792168" lon="16.9595111"><ele>362.0</ele><time>2026-03-28T15:10:42.702Z</time></trkpt><trkpt lat="39.2793008" lon="16.9594818"><ele>362.0</ele><time>2026-03-28T15:10:44.707Z</time></trkpt><trkpt lat="39.2793775" lon="16.9594646"><ele>362.0</ele><time>2026-03-28T15:10:46.705Z</time></trkpt><trkpt lat="39.2794959" lon="16.9594411"><ele>362.0</ele><time>2026-03-28T15:10:48.71Z</time></trkpt><trkpt lat="39.2795638" lon="16.9594138"><ele>362.0</ele><time>2026-03-28T15:10:49.709Z</time></trkpt><trkpt lat="39.2796286" lon="16.9593726"><ele>362.0</ele><time>2026-03-28T15:10:50.706Z</time></trkpt><trkpt lat="39.2796842" lon="16.959321"><ele>362.0</ele><time>2026-03-28T15:10:51.702Z</time></trkpt><trkpt lat="39.2797363" lon="16.9592724"><ele>363.33333333333337</ele><time>2026-03-28T15:10:52.709Z</time></trkpt><trkpt lat="39.2798202" lon="16.9591717"><ele>364.6666666666667</ele><time>2026-03-28T15:10:54.712Z</time></trkpt><trkpt lat="39.2798897" lon="16.9590992"><ele>366.0</ele><time>2026-03-28T15:10:56.702Z</time></trkpt><trkpt lat="39.2799553" lon="16.9590231"><ele>367.3333333333333</ele><time>2026-03-28T15:10:58.709Z</time></trkpt><trkpt lat="39.2800048" lon="16.9589666"><ele>368.66666666666663</ele><time>2026-03-28T15:11:00.703Z</time></trkpt><trkpt lat="39.2800593" lon="16.9589171"><ele>370.0</ele><time>2026-03-28T15:11:02.72Z</time></trkpt><trkpt lat="39.2801163" lon="16.9588486"><ele>370.0</ele><time>2026-03-28T15:11:04.709Z</time></trkpt><trkpt lat="39.2801892" lon="16.9587633"><ele>370.0</ele><time>2026-03-28T15:11:06.703Z</time></trkpt><trkpt lat="39.2802619" lon="16.9586649"><ele>370.0</ele><time>2026-03-28T15:11:08.71Z</time></trkpt><trkpt lat="39.2803369" lon="16.9585877"><ele>370.0</ele><time>2026-03-28T15:11:10.705Z</time></trkpt><trkpt lat="39.2804326" lon="16.9585696"><ele>370.0</ele><time>2026-03-28T15:11:12.705Z</time></trkpt><trkpt lat="39.2805315" lon="16.9585935"><ele>370.57142857142856</ele><time>2026-03-28T15:11:14.705Z</time></trkpt><trkpt lat="39.2806073" lon="16.9586288"><ele>371.1428571428571</ele><time>2026-03-28T15:11:16.713Z</time></trkpt><trkpt lat="39.2806725" lon="16.9586634"><ele>371.71428571428567</ele><time>2026-03-28T15:11:18.698Z</time></trkpt><trkpt lat="39.2807332" lon="16.9586964"><ele>372.2857142857143</ele><time>2026-03-28T15:11:21.703Z</time></trkpt><trkpt lat="39.2808014" lon="16.9587225"><ele>372.8571428571429</ele><time>2026-03-28T15:11:25.703Z</time></trkpt><trkpt lat="39.280867" lon="16.9587257"><ele>373.4285714285714</ele><time>2026-03-28T15:11:28.703Z</time></trkpt><trkpt lat="39.28094" lon="16.9587033"><ele>374.0</ele><time>2026-03-28T15:11:31.699Z</time></trkpt><trkpt lat="39.2810008" lon="16.9586768"><ele>374.0</ele><time>2026-03-28T15:11:34.699Z</time></trkpt><trkpt lat="39.2810672" lon="16.958644"><ele>374.0</ele><time>2026-03-28T15:12:00.708Z</time></trkpt><trkpt lat="39.2811597" lon="16.9586283"><ele>374.0</ele><time>2026-03-28T15:12:03.697Z</time></trkpt><trkpt lat="39.2812319" lon="16.9586104"><ele>374.0</ele><time>2026-03-28T15:12:05.701Z</time></trkpt><trkpt lat="39.2812966" lon="16.9585936"><ele>374.0</ele><time>2026-03-28T15:12:07.701Z</time></trkpt><trkpt lat="39.281365" lon="16.9585742"><ele>374.0</ele><time>2026-03-28T15:12:10.7Z</time></trkpt><trkpt lat="39.2814367" lon="16.9585501"><ele>374.0</ele><time>2026-03-28T15:12:13.7Z</time></trkpt><trkpt lat="39.281517" lon="16.9585065"><ele>373.4</ele><time>2026-03-28T15:12:15.709Z</time></trkpt><trkpt lat="39.2816145" lon="16.9584605"><ele>372.79999999999995</ele><time>2026-03-28T15:12:17.706Z</time></trkpt><trkpt lat="39.2817227" lon="16.9583979"><ele>372.20000000000005</ele><time>2026-03-28T15:12:19.705Z</time></trkpt><trkpt lat="39.2818295" lon="16.9583521"><ele>371.6</ele><time>2026-03-28T15:12:21.704Z</time></trkpt><trkpt lat="39.2819001" lon="16.9583377"><ele>371.0</ele><time>2026-03-28T15:12:23.699Z</time></trkpt><trkpt lat="39.2819794" lon="16.9583095"><ele>370.33333333333337</ele><time>2026-03-28T15:12:26.711Z</time></trkpt><trkpt lat="39.2820399" lon="16.958287"><ele>369.6666666666667</ele><time>2026-03-28T15:12:28.697Z</time></trkpt><trkpt lat="39.2821015" lon="16.9582665"><ele>369.0</ele><time>2026-03-28T15:12:30.705Z</time></trkpt><trkpt lat="39.28219" lon="16.9582524"><ele>368.3333333333333</ele><time>2026-03-28T15:12:32.706Z</time></trkpt><trkpt lat="39.2822723" lon="16.9582673"><ele>367.66666666666663</ele><time>2026-03-28T15:12:34.704Z</time></trkpt><trkpt lat="39.282353" lon="16.958289"><ele>367.0</ele><time>2026-03-28T15:12:36.708Z</time></trkpt><trkpt lat="39.2824284" lon="16.9583039"><ele>364.66666666666663</ele><time>2026-03-28T15:12:38.707Z</time></trkpt><trkpt lat="39.2825079" lon="16.9583206"><ele>362.3333333333333</ele><time>2026-03-28T15:12:40.708Z</time></trkpt><trkpt lat="39.2825909" lon="16.9583277"><ele>360.0</ele><time>2026-03-28T15:12:42.701Z</time></trkpt><trkpt lat="39.2826642" lon="16.9583357"><ele>357.6666666666667</ele><time>2026-03-28T15:12:44.707Z</time></trkpt><trkpt lat="39.2827474" lon="16.9583477"><ele>355.33333333333337</ele><time>2026-03-28T15:12:46.715Z</time></trkpt><trkpt lat="39.2828226" lon="16.9583612"><ele>353.0</ele><time>2026-03-28T15:12:48.705Z</time></trkpt><trkpt lat="39.2828899" lon="16.9583785"><ele>350.4285714285714</ele><time>2026-03-28T15:12:50.707Z</time></trkpt><trkpt lat="39.2829537" lon="16.9583997"><ele>347.8571428571429</ele><time>2026-03-28T15:12:53.708Z</time></trkpt><trkpt lat="39.2830217" lon="16.9584075"><ele>345.2857142857143</ele><time>2026-03-28T15:12:56.714Z</time></trkpt><trkpt lat="39.2830878" lon="16.9583936"><ele>342.71428571428567</ele><time>2026-03-28T15:12:59.703Z</time></trkpt><trkpt lat="39.2831507" lon="16.9583626"><ele>340.1428571428571</ele><time>2026-03-28T15:13:02.7Z</time></trkpt><trkpt lat="39.2832279" lon="16.9583297"><ele>337.57142857142856</ele><time>2026-03-28T15:13:05.715Z</time></trkpt><trkpt lat="39.2832934" lon="16.9583299"><ele>335.0</ele><time>2026-03-28T15:13:15.703Z</time></trkpt><trkpt lat="39.2833607" lon="16.9583656"><ele>334.6666666666667</ele><time>2026-03-28T15:13:20.7Z</time></trkpt><trkpt lat="39.283435" lon="16.9584058"><ele>334.33333333333337</ele><time>2026-03-28T15:13:24.703Z</time></trkpt><trkpt lat="39.2835008" lon="16.9584408"><ele>334.0</ele><time>2026-03-28T15:13:27.696Z</time></trkpt><trkpt lat="39.2835941" lon="16.9584109"><ele>333.6666666666667</ele><time>2026-03-28T15:13:30.699Z</time></trkpt><trkpt lat="39.2836741" lon="16.9583679"><ele>333.3333333333333</ele><time>2026-03-28T15:13:32.7Z</time></trkpt><trkpt lat="39.2837566" lon="16.9583264"><ele>333.0</ele><time>2026-03-28T15:13:34.707Z</time></trkpt><trkpt lat="39.2838242" lon="16.9582966"><ele>333.0</ele><time>2026-03-28T15:13:36.698Z</time></trkpt><trkpt lat="39.2839039" lon="16.9582695"><ele>333.0</ele><time>2026-03-28T15:13:39.7Z</time></trkpt><trkpt lat="39.2839743" lon="16.9582628"><ele>333.0</ele><time>2026-03-28T15:13:51.699Z</time></trkpt><trkpt lat="39.2840418" lon="16.9582679"><ele>333.0</ele><time>2026-03-28T15:13:55.709Z</time></trkpt><trkpt lat="39.2841123" lon="16.9582763"><ele>333.0</ele><time>2026-03-28T15:14:02.705Z</time></trkpt><trkpt lat="39.2842002" lon="16.9582829"><ele>333.0</ele><time>2026-03-28T15:14:06.711Z</time></trkpt><trkpt lat="39.2842696" lon="16.9582789"><ele>333.0</ele><time>2026-03-28T15:14:09.705Z</time></trkpt><trkpt lat="39.2843369" lon="16.9582603"><ele>332.5</ele><time>2026-03-28T15:14:13.717Z</time></trkpt><trkpt lat="39.2844054" lon="16.9582253"><ele>332.0</ele><time>2026-03-28T15:14:16.702Z</time></trkpt><trkpt lat="39.2844682" lon="16.9581819"><ele>331.5</ele><time>2026-03-28T15:14:18.706Z</time></trkpt><trkpt lat="39.2845418" lon="16.9581297"><ele>331.0</ele><time>2026-03-28T15:14:20.698Z</time></trkpt><trkpt lat="39.284619" lon="16.9580752"><ele>330.5</ele><time>2026-03-28T15:14:22.702Z</time></trkpt><trkpt lat="39.2847034" lon="16.9580334"><ele>330.0</ele><time>2026-03-28T15:14:24.704Z</time></trkpt><trkpt lat="39.284791" lon="16.9580111"><ele>328.8333333333333</ele><time>2026-03-28T15:14:26.706Z</time></trkpt><trkpt lat="39.2848755" lon="16.9579878"><ele>327.6666666666667</ele><time>2026-03-28T15:14:28.703Z</time></trkpt><trkpt lat="39.2849584" lon="16.9579683"><ele>326.5</ele><time>2026-03-28T15:14:30.7Z</time></trkpt><trkpt lat="39.285044" lon="16.957959"><ele>325.33333333333337</ele><time>2026-03-28T15:14:32.712Z</time></trkpt><trkpt lat="39.285105" lon="16.9579274"><ele>324.1666666666667</ele><time>2026-03-28T15:14:35.704Z</time></trkpt><trkpt lat="39.2851648" lon="16.9578843"><ele>323.0</ele><time>2026-03-28T15:14:42.704Z</time></trkpt><trkpt lat="39.2852185" lon="16.9578343"><ele>323.0</ele><time>2026-03-28T15:14:45.71Z</time></trkpt><trkpt lat="39.2852702" lon="16.9577778"><ele>323.0</ele><time>2026-03-28T15:14:48.705Z</time></trkpt><trkpt lat="39.2853311" lon="16.9577066"><ele>323.0</ele><time>2026-03-28T15:14:52.703Z</time></trkpt><trkpt lat="39.2853818" lon="16.9576451"><ele>323.0</ele><time>2026-03-28T15:14:55.705Z</time></trkpt><trkpt lat="39.2854382" lon="16.9575794"><ele>323.0</ele><time>2026-03-28T15:14:58.709Z</time></trkpt><trkpt lat="39.2854959" lon="16.9575113"><ele>323.0</ele><time>2026-03-28T15:15:01.702Z</time></trkpt><trkpt lat="39.285561" lon="16.9574404"><ele>323.5</ele><time>2026-03-28T15:15:04.705Z</time></trkpt><trkpt lat="39.2856386" lon="16.9573711"><ele>324.0</ele><time>2026-03-28T15:15:07.709Z</time></trkpt><trkpt lat="39.2857016" lon="16.9573285"><ele>324.5</ele><time>2026-03-28T15:15:09.705Z</time></trkpt><trkpt lat="39.2857695" lon="16.9572892"><ele>325.0</ele><time>2026-03-28T15:15:11.704Z</time></trkpt><trkpt lat="39.2858456" lon="16.9572465"><ele>325.5</ele><time>2026-03-28T15:15:13.705Z</time></trkpt><trkpt lat="39.285935" lon="16.9572066"><ele>326.0</ele><time>2026-03-28T15:15:15.705Z</time></trkpt><trkpt lat="39.2860244" lon="16.9571394"><ele>326.0</ele><time>2026-03-28T15:15:17.702Z</time></trkpt><trkpt lat="39.2860865" lon="16.9570316"><ele>326.0</ele><time>2026-03-28T15:15:19.71Z</time></trkpt><trkpt lat="39.2861201" lon="16.956902"><ele>326.0</ele><time>2026-03-28T15:15:21.702Z</time></trkpt><trkpt lat="39.286144" lon="16.956764"><ele>326.0</ele><time>2026-03-28T15:15:23.703Z</time></trkpt><trkpt lat="39.2861837" lon="16.9566217"><ele>326.0</ele><time>2026-03-28T15:15:25.707Z</time></trkpt><trkpt lat="39.2862396" lon="16.9564784"><ele>327.6</ele><time>2026-03-28T15:15:27.704Z</time></trkpt><trkpt lat="39.2863085" lon="16.9563616"><ele>329.20000000000005</ele><time>2026-03-28T15:15:29.708Z</time></trkpt><trkpt lat="39.2864152" lon="16.9562956"><ele>330.79999999999995</ele><time>2026-03-28T15:15:31.704Z</time></trkpt><trkpt lat="39.2864816" lon="16.9562708"><ele>332.4</ele><time>2026-03-28T15:15:32.707Z</time></trkpt><trkpt lat="39.2865518" lon="16.9562448"><ele>334.0</ele><time>2026-03-28T15:15:33.708Z</time></trkpt><trkpt lat="39.2866345" lon="16.956224"><ele>334.3333333333333</ele><time>2026-03-28T15:15:34.702Z</time></trkpt><trkpt lat="39.2867196" lon="16.9561977"><ele>334.66666666666663</ele><time>2026-03-28T15:15:35.708Z</time></trkpt><trkpt lat="39.2868048" lon="16.9561631"><ele>335.0</ele><time>2026-03-28T15:15:36.709Z</time></trkpt><trkpt lat="39.2868884" lon="16.9561306"><ele>335.3333333333333</ele><time>2026-03-28T15:15:37.712Z</time></trkpt><trkpt lat="39.286968" lon="16.9560953"><ele>335.6666666666667</ele><time>2026-03-28T15:15:38.702Z</time></trkpt><trkpt lat="39.2870313" lon="16.9560663"><ele>336.0</ele><time>2026-03-28T15:15:39.706Z</time></trkpt><trkpt lat="39.28714" lon="16.9560165"><ele>336.0</ele><time>2026-03-28T15:15:41.702Z</time></trkpt><trkpt lat="39.2872279" lon="16.9559778"><ele>336.0</ele><time>2026-03-28T15:15:43.705Z</time></trkpt><trkpt lat="39.2873282" lon="16.9559396"><ele>336.0</ele><time>2026-03-28T15:15:45.707Z</time></trkpt><trkpt lat="39.2873898" lon="16.9559055"><ele>336.0</ele><time>2026-03-28T15:15:46.71Z</time></trkpt><trkpt lat="39.2874594" lon="16.9558679"><ele>336.0</ele><time>2026-03-28T15:15:47.71Z</time></trkpt><trkpt lat="39.2875335" lon="16.955816"><ele>336.0</ele><time>2026-03-28T15:15:48.701Z</time></trkpt><trkpt lat="39.2876154" lon="16.9557692"><ele>338.0</ele><time>2026-03-28T15:15:49.706Z</time></trkpt><trkpt lat="39.2876997" lon="16.9557207"><ele>340.0</ele><time>2026-03-28T15:15:50.709Z</time></trkpt><trkpt lat="39.2878015" lon="16.955683"><ele>342.0</ele><time>2026-03-28T15:15:51.707Z</time></trkpt><trkpt lat="39.2879114" lon="16.95563"><ele>344.0</ele><time>2026-03-28T15:15:52.703Z</time></trkpt><trkpt lat="39.2880256" lon="16.9555705"><ele>346.0</ele><time>2026-03-28T15:15:53.708Z</time></trkpt><trkpt lat="39.2881419" lon="16.9555087"><ele>346.0</ele><time>2026-03-28T15:15:54.708Z</time></trkpt><trkpt lat="39.288262" lon="16.9554191"><ele>346.0</ele><time>2026-03-28T15:15:55.702Z</time></trkpt><trkpt lat="39.2883909" lon="16.9553273"><ele>346.0</ele><time>2026-03-28T15:15:56.701Z</time></trkpt><trkpt lat="39.288504" lon="16.9552558"><ele>346.0</ele><time>2026-03-28T15:15:57.701Z</time></trkpt><trkpt lat="39.2885973" lon="16.9552079"><ele>346.0</ele><time>2026-03-28T15:15:58.704Z</time></trkpt><trkpt lat="39.2886799" lon="16.9551666"><ele>346.0</ele><time>2026-03-28T15:15:59.702Z</time></trkpt><trkpt lat="39.2887539" lon="16.9551586"><ele>346.0</ele><time>2026-03-28T15:16:00.704Z</time></trkpt><trkpt lat="39.2888308" lon="16.9551635"><ele>346.0</ele><time>2026-03-28T15:16:01.704Z</time></trkpt><trkpt lat="39.2889151" lon="16.9551516"><ele>346.0</ele><time>2026-03-28T15:16:02.705Z</time></trkpt><trkpt lat="39.2890042" lon="16.9551132"><ele>346.0</ele><time>2026-03-28T15:16:03.702Z</time></trkpt><trkpt lat="39.2891059" lon="16.9550721"><ele>349.0</ele><time>2026-03-28T15:16:04.706Z</time></trkpt><trkpt lat="39.2892122" lon="16.9550355"><ele>352.0</ele><time>2026-03-28T15:16:05.707Z</time></trkpt><trkpt lat="39.2893135" lon="16.9550034"><ele>355.0</ele><time>2026-03-28T15:16:06.709Z</time></trkpt><trkpt lat="39.2894092" lon="16.9549798"><ele>358.0</ele><time>2026-03-28T15:16:07.706Z</time></trkpt><trkpt lat="39.289512" lon="16.9549626"><ele>361.0</ele><time>2026-03-28T15:16:08.709Z</time></trkpt><trkpt lat="39.2896218" lon="16.9549426"><ele>361.0</ele><time>2026-03-28T15:16:09.707Z</time></trkpt><trkpt lat="39.289733" lon="16.9549145"><ele>361.0</ele><time>2026-03-28T15:16:10.71Z</time></trkpt><trkpt lat="39.2898457" lon="16.954863"><ele>361.0</ele><time>2026-03-28T15:16:11.706Z</time></trkpt><trkpt lat="39.2899613" lon="16.9547702"><ele>361.0</ele><time>2026-03-28T15:16:12.707Z</time></trkpt><trkpt lat="39.2900874" lon="16.9546832"><ele>362.25</ele><time>2026-03-28T15:16:13.708Z</time></trkpt><trkpt lat="39.2902064" lon="16.9546022"><ele>363.5</ele><time>2026-03-28T15:16:14.706Z</time></trkpt><trkpt lat="39.2903134" lon="16.9545286"><ele>364.75</ele><time>2026-03-28T15:16:15.71Z</time></trkpt><trkpt lat="39.2904027" lon="16.9544712"><ele>366.0</ele><time>2026-03-28T15:16:16.705Z</time></trkpt><trkpt lat="39.2904878" lon="16.9543987"><ele>366.0</ele><time>2026-03-28T15:16:17.706Z</time></trkpt><trkpt lat="39.2905562" lon="16.9543425"><ele>366.0</ele><time>2026-03-28T15:16:18.71Z</time></trkpt><trkpt lat="39.2906599" lon="16.9543546"><ele>366.0</ele><time>2026-03-28T15:16:20.702Z</time></trkpt><trkpt lat="39.2907158" lon="16.9543945"><ele>366.0</ele><time>2026-03-28T15:16:21.706Z</time></trkpt><trkpt lat="39.2907795" lon="16.9544409"><ele>366.0</ele><time>2026-03-28T15:16:22.705Z</time></trkpt><trkpt lat="39.2908485" lon="16.954491"><ele>366.0</ele><time>2026-03-28T15:16:23.703Z</time></trkpt><trkpt lat="39.2909306" lon="16.9545329"><ele>366.1666666666667</ele><time>2026-03-28T15:16:24.701Z</time></trkpt><trkpt lat="39.2910129" lon="16.9545645"><ele>366.3333333333333</ele><time>2026-03-28T15:16:25.699Z</time></trkpt><trkpt lat="39.2910954" lon="16.9545971"><ele>366.5</ele><time>2026-03-28T15:16:26.701Z</time></trkpt><trkpt lat="39.2911839" lon="16.9546148"><ele>366.66666666666663</ele><time>2026-03-28T15:16:27.698Z</time></trkpt><trkpt lat="39.2912739" lon="16.9546275"><ele>366.8333333333333</ele><time>2026-03-28T15:16:28.703Z</time></trkpt><trkpt lat="39.291362" lon="16.9546351"><ele>367.0</ele><time>2026-03-28T15:16:29.701Z</time></trkpt><trkpt lat="39.2914411" lon="16.9546396"><ele>366.0</ele><time>2026-03-28T15:16:30.702Z</time></trkpt><trkpt lat="39.2915147" lon="16.9546393"><ele>365.0</ele><time>2026-03-28T15:16:31.7Z</time></trkpt><trkpt lat="39.2915808" lon="16.9546363"><ele>364.0</ele><time>2026-03-28T15:16:32.701Z</time></trkpt><trkpt lat="39.2916483" lon="16.9546333"><ele>363.0</ele><time>2026-03-28T15:16:33.698Z</time></trkpt><trkpt lat="39.2917147" lon="16.9546291"><ele>362.0</ele><time>2026-03-28T15:16:34.697Z</time></trkpt><trkpt lat="39.2918365" lon="16.9546144"><ele>361.0</ele><time>2026-03-28T15:16:36.709Z</time></trkpt><trkpt lat="39.2919043" lon="16.9545971"><ele>361.0</ele><time>2026-03-28T15:16:37.709Z</time></trkpt><trkpt lat="39.2919735" lon="16.954578"><ele>361.0</ele><time>2026-03-28T15:16:38.705Z</time></trkpt><trkpt lat="39.2920431" lon="16.9545556"><ele>361.0</ele><time>2026-03-28T15:16:39.715Z</time></trkpt><trkpt lat="39.2921064" lon="16.9545361"><ele>361.0</ele><time>2026-03-28T15:16:40.702Z</time></trkpt><trkpt lat="39.2922196" lon="16.9544962"><ele>361.0</ele><time>2026-03-28T15:16:42.71Z</time></trkpt><trkpt lat="39.2923243" lon="16.9544569"><ele>361.0</ele><time>2026-03-28T15:16:44.701Z</time></trkpt><trkpt lat="39.2924049" lon="16.9544199"><ele>359.6</ele><time>2026-03-28T15:16:46.711Z</time></trkpt><trkpt lat="39.292475" lon="16.9543934"><ele>358.20000000000005</ele><time>2026-03-28T15:17:00.713Z</time></trkpt><trkpt lat="39.2925756" lon="16.9543835"><ele>356.79999999999995</ele><time>2026-03-28T15:17:03.71Z</time></trkpt><trkpt lat="39.292667" lon="16.9543834"><ele>355.4</ele><time>2026-03-28T15:17:05.702Z</time></trkpt><trkpt lat="39.2927885" lon="16.9543813"><ele>354.0</ele><time>2026-03-28T15:17:07.703Z</time></trkpt><trkpt lat="39.2928635" lon="16.954357"><ele>354.0</ele><time>2026-03-28T15:17:08.704Z</time></trkpt><trkpt lat="39.292949" lon="16.9543266"><ele>354.0</ele><time>2026-03-28T15:17:09.714Z</time></trkpt><trkpt lat="39.2930424" lon="16.9542982"><ele>354.0</ele><time>2026-03-28T15:17:10.702Z</time></trkpt><trkpt lat="39.2931296" lon="16.9542746"><ele>354.0</ele><time>2026-03-28T15:17:11.708Z</time></trkpt><trkpt lat="39.2932098" lon="16.9542367"><ele>354.0</ele><time>2026-03-28T15:17:12.704Z</time></trkpt><trkpt lat="39.293289" lon="16.9541993"><ele>354.0</ele><time>2026-03-28T15:17:13.702Z</time></trkpt><trkpt lat="39.2933567" lon="16.9541291"><ele>356.4</ele><time>2026-03-28T15:17:14.703Z</time></trkpt><trkpt lat="39.2934201" lon="16.9540367"><ele>358.79999999999995</ele><time>2026-03-28T15:17:15.704Z</time></trkpt><trkpt lat="39.2934858" lon="16.9539676"><ele>361.20000000000005</ele><time>2026-03-28T15:17:16.706Z</time></trkpt><trkpt lat="39.293545" lon="16.9539075"><ele>363.6</ele><time>2026-03-28T15:17:17.706Z</time></trkpt><trkpt lat="39.2936398" lon="16.9539579"><ele>366.0</ele><time>2026-03-28T15:17:19.703Z</time></trkpt><trkpt lat="39.2937364" lon="16.9540115"><ele>366.0</ele><time>2026-03-28T15:17:21.701Z</time></trkpt><trkpt lat="39.2938016" lon="16.9540294"><ele>366.0</ele><time>2026-03-28T15:17:22.706Z</time></trkpt><trkpt lat="39.2938716" lon="16.9540385"><ele>366.0</ele><time>2026-03-28T15:17:23.701Z</time></trkpt><trkpt lat="39.2939431" lon="16.9540374"><ele>366.0</ele><time>2026-03-28T15:17:24.701Z</time></trkpt><trkpt lat="39.2940181" lon="16.9540433"><ele>366.0</ele><time>2026-03-28T15:17:25.702Z</time></trkpt><trkpt lat="39.2940922" lon="16.9540568"><ele>366.0</ele><time>2026-03-28T15:17:26.703Z</time></trkpt><trkpt lat="39.294169" lon="16.954076"><ele>366.0</ele><time>2026-03-28T15:17:27.703Z</time></trkpt><trkpt lat="39.294245" lon="16.954089"><ele>366.7142857142857</ele><time>2026-03-28T15:17:28.702Z</time></trkpt><trkpt lat="39.2943164" lon="16.9540962"><ele>367.42857142857144</ele><time>2026-03-28T15:17:29.705Z</time></trkpt><trkpt lat="39.2943889" lon="16.9540998"><ele>368.1428571428571</ele><time>2026-03-28T15:17:30.704Z</time></trkpt><trkpt lat="39.2944595" lon="16.9541118"><ele>368.8571428571429</ele><time>2026-03-28T15:17:31.7Z</time></trkpt><trkpt lat="39.2945229" lon="16.9541395"><ele>369.57142857142856</ele><time>2026-03-28T15:17:32.699Z</time></trkpt><trkpt lat="39.2945835" lon="16.9541679"><ele>370.2857142857143</ele><time>2026-03-28T15:17:33.701Z</time></trkpt><trkpt lat="39.2946445" lon="16.9541908"><ele>371.0</ele><time>2026-03-28T15:17:34.706Z</time></trkpt><trkpt lat="39.2947675" lon="16.954205"><ele>372.20000000000005</ele><time>2026-03-28T15:17:36.706Z</time></trkpt><trkpt lat="39.2948273" lon="16.9541772"><ele>373.40000000000003</ele><time>2026-03-28T15:17:37.701Z</time></trkpt><trkpt lat="39.2949283" lon="16.9540751"><ele>374.6</ele><time>2026-03-28T15:17:39.7Z</time></trkpt><trkpt lat="39.2949887" lon="16.9539613"><ele>375.8</ele><time>2026-03-28T15:17:41.708Z</time></trkpt><trkpt lat="39.2950747" lon="16.9539556"><ele>377.0</ele><time>2026-03-28T15:17:43.7Z</time></trkpt><trkpt lat="39.2951488" lon="16.9540314"><ele>377.0</ele><time>2026-03-28T15:17:45.709Z</time></trkpt><trkpt lat="39.2951726" lon="16.9541661"><ele>377.0</ele><time>2026-03-28T15:17:47.703Z</time></trkpt><trkpt lat="39.295178" lon="16.9543232"><ele>377.0</ele><time>2026-03-28T15:17:49.703Z</time></trkpt><trkpt lat="39.2952501" lon="16.9544247"><ele>377.0</ele><time>2026-03-28T15:17:51.708Z</time></trkpt><trkpt lat="39.2953698" lon="16.954492"><ele>376.0</ele><time>2026-03-28T15:17:53.697Z</time></trkpt><trkpt lat="39.295442" lon="16.95453"><ele>375.0</ele><time>2026-03-28T15:17:54.702Z</time></trkpt><trkpt lat="39.295528" lon="16.9545575"><ele>374.0</ele><time>2026-03-28T15:17:55.709Z</time></trkpt><trkpt lat="39.2956098" lon="16.9545671"><ele>373.0</ele><time>2026-03-28T15:17:56.702Z</time></trkpt><trkpt lat="39.2956873" lon="16.9545604"><ele>372.0</ele><time>2026-03-28T15:17:57.705Z</time></trkpt><trkpt lat="39.295763" lon="16.9545413"><ele>371.0</ele><time>2026-03-28T15:17:58.701Z</time></trkpt><trkpt lat="39.2958392" lon="16.9545257"><ele>375.0</ele><time>2026-03-28T15:17:59.7Z</time></trkpt><trkpt lat="39.2959165" lon="16.9545076"><ele>379.0</ele><time>2026-03-28T15:18:00.701Z</time></trkpt><trkpt lat="39.2959975" lon="16.9544822"><ele>383.0</ele><time>2026-03-28T15:18:01.711Z</time></trkpt><trkpt lat="39.2960784" lon="16.9544573"><ele>387.0</ele><time>2026-03-28T15:18:02.7Z</time></trkpt><trkpt lat="39.2961612" lon="16.9544325"><ele>390.99999999999994</ele><time>2026-03-28T15:18:03.704Z</time></trkpt><trkpt lat="39.2962494" lon="16.9544068"><ele>395.0</ele><time>2026-03-28T15:18:04.7Z</time></trkpt><trkpt lat="39.2963474" lon="16.9543724"><ele>397.2857142857143</ele><time>2026-03-28T15:18:05.712Z</time></trkpt><trkpt lat="39.2964396" lon="16.9543417"><ele>399.5714285714286</ele><time>2026-03-28T15:18:06.707Z</time></trkpt><trkpt lat="39.2965138" lon="16.9543152"><ele>401.8571428571429</ele><time>2026-03-28T15:18:07.701Z</time></trkpt><trkpt lat="39.2965832" lon="16.9542974"><ele>404.1428571428571</ele><time>2026-03-28T15:18:08.7Z</time></trkpt><trkpt lat="39.2966487" lon="16.9542931"><ele>406.42857142857144</ele><time>2026-03-28T15:18:09.713Z</time></trkpt><trkpt lat="39.2967117" lon="16.9543207"><ele>408.7142857142857</ele><time>2026-03-28T15:18:10.72Z</time></trkpt><trkpt lat="39.2967726" lon="16.954374"><ele>411.0</ele><time>2026-03-28T15:18:11.712Z</time></trkpt><trkpt lat="39.2968303" lon="16.9544459"><ele>411.0</ele><time>2026-03-28T15:18:12.711Z</time></trkpt><trkpt lat="39.2968807" lon="16.9545312"><ele>411.0</ele><time>2026-03-28T15:18:13.703Z</time></trkpt><trkpt lat="39.2969315" lon="16.95462"><ele>411.0</ele><time>2026-03-28T15:18:14.709Z</time></trkpt><trkpt lat="39.2969637" lon="16.9547101"><ele>411.0</ele><time>2026-03-28T15:18:15.704Z</time></trkpt><trkpt lat="39.2969852" lon="16.9548637"><ele>411.0</ele><time>2026-03-28T15:18:17.705Z</time></trkpt><trkpt lat="39.2969759" lon="16.9549448"><ele>411.0</ele><time>2026-03-28T15:18:18.701Z</time></trkpt><trkpt lat="39.2969597" lon="16.9550307"><ele>410.1666666666667</ele><time>2026-03-28T15:18:19.706Z</time></trkpt><trkpt lat="39.296976" lon="16.9551615"><ele>409.33333333333337</ele><time>2026-03-28T15:18:21.703Z</time></trkpt><trkpt lat="39.297062" lon="16.9552026"><ele>408.5</ele><time>2026-03-28T15:18:23.706Z</time></trkpt><trkpt lat="39.2971252" lon="16.9552123"><ele>407.6666666666667</ele><time>2026-03-28T15:18:24.706Z</time></trkpt><trkpt lat="39.2971945" lon="16.9552157"><ele>406.83333333333337</ele><time>2026-03-28T15:18:25.704Z</time></trkpt><trkpt lat="39.2972679" lon="16.9552217"><ele>406.0</ele><time>2026-03-28T15:18:26.708Z</time></trkpt><trkpt lat="39.2973412" lon="16.9552321"><ele>409.6666666666667</ele><time>2026-03-28T15:18:27.705Z</time></trkpt><trkpt lat="39.2974054" lon="16.955293"><ele>413.33333333333337</ele><time>2026-03-28T15:18:28.711Z</time></trkpt><trkpt lat="39.2974543" lon="16.9553534"><ele>417.0</ele><time>2026-03-28T15:18:29.702Z</time></trkpt><trkpt lat="39.2975002" lon="16.95541"><ele>420.66666666666663</ele><time>2026-03-28T15:18:30.703Z</time></trkpt><trkpt lat="39.2975733" lon="16.9555031"><ele>424.3333333333333</ele><time>2026-03-28T15:18:32.707Z</time></trkpt><trkpt lat="39.2976524" lon="16.9556135"><ele>428.0</ele><time>2026-03-28T15:18:34.706Z</time></trkpt><trkpt lat="39.2977172" lon="16.9557263"><ele>428.0</ele><time>2026-03-28T15:18:36.703Z</time></trkpt><trkpt lat="39.2977747" lon="16.9558301"><ele>427.99999999999994</ele><time>2026-03-28T15:18:38.699Z</time></trkpt><trkpt lat="39.2978433" lon="16.9559332"><ele>427.99999999999994</ele><time>2026-03-28T15:18:40.703Z</time></trkpt><trkpt lat="39.2979295" lon="16.9560371"><ele>428.0</ele><time>2026-03-28T15:18:42.7Z</time></trkpt><trkpt lat="39.2980102" lon="16.9561393"><ele>428.0</ele><time>2026-03-28T15:18:44.705Z</time></trkpt><trkpt lat="39.2980654" lon="16.9562541"><ele>432.49999999999994</ele><time>2026-03-28T15:18:46.7Z</time></trkpt><trkpt lat="39.2980923" lon="16.9563524"><ele>437.0</ele><time>2026-03-28T15:18:48.7Z</time></trkpt><trkpt lat="39.2981143" lon="16.9564376"><ele>441.5</ele><time>2026-03-28T15:18:50.704Z</time></trkpt><trkpt lat="39.2981399" lon="16.9565225"><ele>446.0</ele><time>2026-03-28T15:18:52.698Z</time></trkpt><trkpt lat="39.2981848" lon="16.9565814"><ele>450.49999999999994</ele><time>2026-03-28T15:18:54.705Z</time></trkpt><trkpt lat="39.2982758" lon="16.956607"><ele>455.0</ele><time>2026-03-28T15:19:02.706Z</time></trkpt><trkpt lat="39.2983496" lon="16.9565853"><ele>454.99999999999994</ele><time>2026-03-28T15:19:05.711Z</time></trkpt><trkpt lat="39.2983852" lon="16.9566546"><ele>455.0</ele><time>2026-03-28T15:19:15.7Z</time></trkpt><trkpt lat="39.2983027" lon="16.9566897"><ele>455.0</ele><time>2026-03-28T15:19:18.704Z</time></trkpt><trkpt lat="39.2982179" lon="16.9566944"><ele>455.0</ele><time>2026-03-28T15:19:21.713Z</time></trkpt><trkpt lat="39.2981322" lon="16.9567052"><ele>454.99999999999994</ele><time>2026-03-28T15:19:24.702Z</time></trkpt><trkpt lat="39.2980701" lon="16.9567353"><ele>455.0</ele><time>2026-03-28T15:19:26.714Z</time></trkpt><trkpt lat="39.2980348" lon="16.9568412"><ele>457.8</ele><time>2026-03-28T15:19:28.708Z</time></trkpt><trkpt lat="39.2980215" lon="16.9569576"><ele>460.6</ele><time>2026-03-28T15:19:30.706Z</time></trkpt><trkpt lat="39.2980387" lon="16.9570988"><ele>463.4</ele><time>2026-03-28T15:19:32.702Z</time></trkpt><trkpt lat="39.2980644" lon="16.9572402"><ele>466.2</ele><time>2026-03-28T15:19:34.701Z</time></trkpt><trkpt lat="39.2980967" lon="16.9573881"><ele>469.0</ele><time>2026-03-28T15:19:36.705Z</time></trkpt><trkpt lat="39.2981268" lon="16.9575377"><ele>472.4</ele><time>2026-03-28T15:19:38.702Z</time></trkpt><trkpt lat="39.298131" lon="16.9576816"><ele>475.79999999999995</ele><time>2026-03-28T15:19:40.703Z</time></trkpt><trkpt lat="39.298133" lon="16.9578377"><ele>479.20000000000005</ele><time>2026-03-28T15:19:42.707Z</time></trkpt><trkpt lat="39.2981388" lon="16.9579297"><ele>482.6</ele><time>2026-03-28T15:19:43.704Z</time></trkpt><trkpt lat="39.2981461" lon="16.9580249"><ele>486.0</ele><time>2026-03-28T15:19:44.706Z</time></trkpt><trkpt lat="39.2981376" lon="16.9581233"><ele>486.0</ele><time>2026-03-28T15:19:45.704Z</time></trkpt><trkpt lat="39.2981111" lon="16.9582267"><ele>486.0</ele><time>2026-03-28T15:19:46.699Z</time></trkpt><trkpt lat="39.2980856" lon="16.9583306"><ele>486.0</ele><time>2026-03-28T15:19:47.698Z</time></trkpt><trkpt lat="39.2980459" lon="16.9584161"><ele>486.0</ele><time>2026-03-28T15:19:48.711Z</time></trkpt><trkpt lat="39.2980168" lon="16.9584893"><ele>486.0</ele><time>2026-03-28T15:19:49.706Z</time></trkpt><trkpt lat="39.2980013" lon="16.9585751"><ele>486.0</ele><time>2026-03-28T15:19:50.703Z</time></trkpt><trkpt lat="39.2979756" lon="16.9586734"><ele>486.5</ele><time>2026-03-28T15:19:51.695Z</time></trkpt><trkpt lat="39.2979493" lon="16.9587637"><ele>487.0</ele><time>2026-03-28T15:19:52.702Z</time></trkpt><trkpt lat="39.297914" lon="16.958861"><ele>487.5</ele><time>2026-03-28T15:19:54.703Z</time></trkpt><trkpt lat="39.2978775" lon="16.9589531"><ele>488.0</ele><time>2026-03-28T15:19:56.704Z</time></trkpt><trkpt lat="39.2978217" lon="16.9590471"><ele>488.5</ele><time>2026-03-28T15:19:58.702Z</time></trkpt><trkpt lat="39.2977635" lon="16.9591689"><ele>489.0</ele><time>2026-03-28T15:20:00.71Z</time></trkpt><trkpt lat="39.2977106" lon="16.959312"><ele>489.0</ele><time>2026-03-28T15:20:02.699Z</time></trkpt><trkpt lat="39.2976454" lon="16.959431"><ele>489.0</ele><time>2026-03-28T15:20:04.701Z</time></trkpt><trkpt lat="39.2975743" lon="16.9595444"><ele>489.0</ele><time>2026-03-28T15:20:06.701Z</time></trkpt><trkpt lat="39.2975047" lon="16.9596585"><ele>489.0</ele><time>2026-03-28T15:20:08.705Z</time></trkpt><trkpt lat="39.2974419" lon="16.9597559"><ele>489.0</ele><time>2026-03-28T15:20:10.701Z</time></trkpt><trkpt lat="39.2974094" lon="16.9598295"><ele>489.0</ele><time>2026-03-28T15:20:13.697Z</time></trkpt><trkpt lat="39.297365" lon="16.9599353"><ele>489.0</ele><time>2026-03-28T15:20:16.698Z</time></trkpt><trkpt lat="39.2972938" lon="16.9600561"><ele>489.0</ele><time>2026-03-28T15:20:18.699Z</time></trkpt><trkpt lat="39.2972227" lon="16.9601527"><ele>489.0</ele><time>2026-03-28T15:20:20.706Z</time></trkpt><trkpt lat="39.2971524" lon="16.9602228"><ele>489.0</ele><time>2026-03-28T15:20:22.705Z</time></trkpt><trkpt lat="39.2970706" lon="16.9603111"><ele>490.1666666666667</ele><time>2026-03-28T15:20:24.706Z</time></trkpt><trkpt lat="39.297017" lon="16.9603538"><ele>491.33333333333337</ele><time>2026-03-28T15:20:25.7Z</time></trkpt><trkpt lat="39.2969537" lon="16.9603825"><ele>492.5</ele><time>2026-03-28T15:20:26.705Z</time></trkpt><trkpt lat="39.2968796" lon="16.9604173"><ele>493.6666666666667</ele><time>2026-03-28T15:20:27.707Z</time></trkpt><trkpt lat="39.2968016" lon="16.9604666"><ele>494.83333333333337</ele><time>2026-03-28T15:20:28.702Z</time></trkpt><trkpt lat="39.2967243" lon="16.960527"><ele>496.0</ele><time>2026-03-28T15:20:29.703Z</time></trkpt><trkpt lat="39.2966441" lon="16.9605879"><ele>496.00000000000006</ele><time>2026-03-28T15:20:30.7Z</time></trkpt><trkpt lat="39.2965602" lon="16.9606353"><ele>496.0</ele><time>2026-03-28T15:20:31.701Z</time></trkpt><trkpt lat="39.2964767" lon="16.9606665"><ele>496.0</ele><time>2026-03-28T15:20:32.699Z</time></trkpt><trkpt lat="39.2964038" lon="16.9607018"><ele>496.0</ele><time>2026-03-28T15:20:33.701Z</time></trkpt><trkpt lat="39.2963587" lon="16.9607588"><ele>496.00000000000006</ele><time>2026-03-28T15:20:34.705Z</time></trkpt><trkpt lat="39.2963194" lon="16.9608367"><ele>496.0</ele><time>2026-03-28T15:20:35.707Z</time></trkpt><trkpt lat="39.2962732" lon="16.9609296"><ele>496.6</ele><time>2026-03-28T15:20:36.699Z</time></trkpt><trkpt lat="39.2962124" lon="16.9610396"><ele>497.20000000000005</ele><time>2026-03-28T15:20:37.703Z</time></trkpt><trkpt lat="39.2961535" lon="16.9611439"><ele>497.79999999999995</ele><time>2026-03-28T15:20:38.697Z</time></trkpt><trkpt lat="39.2961052" lon="16.9612467"><ele>498.4</ele><time>2026-03-28T15:20:39.702Z</time></trkpt><trkpt lat="39.2960657" lon="16.9613508"><ele>499.0</ele><time>2026-03-28T15:20:40.7Z</time></trkpt><trkpt lat="39.2960116" lon="16.9614429"><ele>499.0</ele><time>2026-03-28T15:20:41.712Z</time></trkpt><trkpt lat="39.2959338" lon="16.9615206"><ele>499.0</ele><time>2026-03-28T15:20:42.716Z</time></trkpt><trkpt lat="39.2958342" lon="16.9616127"><ele>499.0</ele><time>2026-03-28T15:20:43.71Z</time></trkpt><trkpt lat="39.2957381" lon="16.9617042"><ele>499.0</ele><time>2026-03-28T15:20:44.701Z</time></trkpt><trkpt lat="39.2956381" lon="16.9617733"><ele>498.2</ele><time>2026-03-28T15:20:45.708Z</time></trkpt><trkpt lat="39.2955547" lon="16.9618369"><ele>497.4</ele><time>2026-03-28T15:20:46.703Z</time></trkpt><trkpt lat="39.2954727" lon="16.9619001"><ele>496.6</ele><time>2026-03-28T15:20:47.701Z</time></trkpt><trkpt lat="39.2954056" lon="16.9620052"><ele>495.8</ele><time>2026-03-28T15:20:48.706Z</time></trkpt><trkpt lat="39.29534" lon="16.9621117"><ele>495.0</ele><time>2026-03-28T15:20:49.701Z</time></trkpt><trkpt lat="39.2952638" lon="16.9621777"><ele>495.0</ele><time>2026-03-28T15:20:50.709Z</time></trkpt><trkpt lat="39.2951813" lon="16.9621986"><ele>495.0</ele><time>2026-03-28T15:20:51.7Z</time></trkpt><trkpt lat="39.2951232" lon="16.9622677"><ele>495.0</ele><time>2026-03-28T15:20:52.696Z</time></trkpt><trkpt lat="39.2950591" lon="16.9623433"><ele>495.0</ele><time>2026-03-28T15:20:53.699Z</time></trkpt><trkpt lat="39.2950168" lon="16.9624433"><ele>495.0</ele><time>2026-03-28T15:20:54.701Z</time></trkpt><trkpt lat="39.2949751" lon="16.9625399"><ele>495.0</ele><time>2026-03-28T15:20:55.707Z</time></trkpt><trkpt lat="39.2949347" lon="16.9626241"><ele>496.71428571428567</ele><time>2026-03-28T15:20:56.716Z</time></trkpt><trkpt lat="39.2949008" lon="16.9627015"><ele>498.42857142857144</ele><time>2026-03-28T15:20:57.706Z</time></trkpt><trkpt lat="39.2948509" lon="16.9628205"><ele>500.1428571428571</ele><time>2026-03-28T15:20:59.701Z</time></trkpt><trkpt lat="39.2948445" lon="16.9629061"><ele>501.85714285714283</ele><time>2026-03-28T15:21:01.708Z</time></trkpt><trkpt lat="39.29485" lon="16.962995"><ele>503.57142857142856</ele><time>2026-03-28T15:21:03.704Z</time></trkpt><trkpt lat="39.2948642" lon="16.9630781"><ele>505.2857142857143</ele><time>2026-03-28T15:21:05.701Z</time></trkpt><trkpt lat="39.2948839" lon="16.963164"><ele>507.0</ele><time>2026-03-28T15:21:09.7Z</time></trkpt><trkpt lat="39.2949018" lon="16.9632502"><ele>507.0</ele><time>2026-03-28T15:21:13.702Z</time></trkpt><trkpt lat="39.2949235" lon="16.9633398"><ele>507.00000000000006</ele><time>2026-03-28T15:21:15.703Z</time></trkpt><trkpt lat="39.2949284" lon="16.9634429"><ele>507.00000000000006</ele><time>2026-03-28T15:21:17.702Z</time></trkpt><trkpt lat="39.2949077" lon="16.9635502"><ele>507.0</ele><time>2026-03-28T15:21:19.702Z</time></trkpt><trkpt lat="39.2948588" lon="16.9636804"><ele>507.0</ele><time>2026-03-28T15:21:21.703Z</time></trkpt><trkpt lat="39.2948038" lon="16.9638091"><ele>506.5</ele><time>2026-03-28T15:21:23.698Z</time></trkpt><trkpt lat="39.2947559" lon="16.9638663"><ele>506.0</ele><time>2026-03-28T15:21:24.702Z</time></trkpt><trkpt lat="39.2947054" lon="16.9639226"><ele>505.5</ele><time>2026-03-28T15:21:25.702Z</time></trkpt><trkpt lat="39.2946602" lon="16.9639972"><ele>505.0</ele><time>2026-03-28T15:21:26.703Z</time></trkpt><trkpt lat="39.2946148" lon="16.9640735"><ele>504.5</ele><time>2026-03-28T15:21:27.702Z</time></trkpt><trkpt lat="39.294566" lon="16.9641635"><ele>504.0</ele><time>2026-03-28T15:21:28.697Z</time></trkpt><trkpt lat="39.2944946" lon="16.964255"><ele>504.0</ele><time>2026-03-28T15:21:29.694Z</time></trkpt><trkpt lat="39.2944328" lon="16.9643432"><ele>504.0</ele><time>2026-03-28T15:21:30.709Z</time></trkpt><trkpt lat="39.2943938" lon="16.9644527"><ele>504.0</ele><time>2026-03-28T15:21:31.704Z</time></trkpt><trkpt lat="39.2943477" lon="16.9645691"><ele>504.0</ele><time>2026-03-28T15:21:32.715Z</time></trkpt><trkpt lat="39.2943029" lon="16.964688"><ele>504.0</ele><time>2026-03-28T15:21:33.705Z</time></trkpt><trkpt lat="39.2942692" lon="16.9648088"><ele>504.0</ele><time>2026-03-28T15:21:34.702Z</time></trkpt><trkpt lat="39.2942539" lon="16.9649318"><ele>504.0</ele><time>2026-03-28T15:21:35.707Z</time></trkpt><trkpt lat="39.2942425" lon="16.9650505"><ele>504.0</ele><time>2026-03-28T15:21:36.702Z</time></trkpt><trkpt lat="39.2942205" lon="16.9651532"><ele>504.0</ele><time>2026-03-28T15:21:37.704Z</time></trkpt><trkpt lat="39.2941633" lon="16.9652417"><ele>504.0</ele><time>2026-03-28T15:21:38.702Z</time></trkpt><trkpt lat="39.2941016" lon="16.9653296"><ele>508.0</ele><time>2026-03-28T15:21:39.7Z</time></trkpt><trkpt lat="39.2940602" lon="16.9654296"><ele>512.0</ele><time>2026-03-28T15:21:40.699Z</time></trkpt><trkpt lat="39.2940299" lon="16.9655631"><ele>516.0</ele><time>2026-03-28T15:21:41.693Z</time></trkpt><trkpt lat="39.2939925" lon="16.9657211"><ele>520.0</ele><time>2026-03-28T15:21:42.699Z</time></trkpt><trkpt lat="39.2939553" lon="16.965848"><ele>524.0</ele><time>2026-03-28T15:21:43.694Z</time></trkpt><trkpt lat="39.293929" lon="16.9659421"><ele>524.0</ele><time>2026-03-28T15:21:44.698Z</time></trkpt><trkpt lat="39.2939707" lon="16.9660245"><ele>524.0</ele><time>2026-03-28T15:21:46.697Z</time></trkpt><trkpt lat="39.2940662" lon="16.9659235"><ele>524.0</ele><time>2026-03-28T15:21:48.703Z</time></trkpt><trkpt lat="39.2941483" lon="16.9658173"><ele>524.0</ele><time>2026-03-28T15:21:49.699Z</time></trkpt><trkpt lat="39.2942306" lon="16.9657125"><ele>524.0</ele><time>2026-03-28T15:21:50.705Z</time></trkpt><trkpt lat="39.2942996" lon="16.965631"><ele>524.0</ele><time>2026-03-28T15:21:51.7Z</time></trkpt><trkpt lat="39.294357" lon="16.9655703"><ele>524.0</ele><time>2026-03-28T15:21:52.705Z</time></trkpt><trkpt lat="39.2944333" lon="16.9655083"><ele>524.0</ele><time>2026-03-28T15:21:54.696Z</time></trkpt><trkpt lat="39.2944611" lon="16.9656104"><ele>524.0</ele><time>2026-03-28T15:21:57.697Z</time></trkpt><trkpt lat="39.2943928" lon="16.9657338"><ele>524.0</ele><time>2026-03-28T15:21:59.701Z</time></trkpt><trkpt lat="39.2943517" lon="16.9658179"><ele>524.0</ele><time>2026-03-28T15:22:00.701Z</time></trkpt><trkpt lat="39.2943037" lon="16.9659374"><ele>528.6</ele><time>2026-03-28T15:22:01.709Z</time></trkpt><trkpt lat="39.2942755" lon="16.9661008"><ele>533.2</ele><time>2026-03-28T15:22:02.704Z</time></trkpt><trkpt lat="39.2942542" lon="16.9662596"><ele>537.8000000000001</ele><time>2026-03-28T15:22:03.698Z</time></trkpt><trkpt lat="39.2942344" lon="16.9663893"><ele>542.4</ele><time>2026-03-28T15:22:04.703Z</time></trkpt><trkpt lat="39.2942184" lon="16.9664872"><ele>547.0</ele><time>2026-03-28T15:22:05.697Z</time></trkpt><trkpt lat="39.2941902" lon="16.9666281"><ele>545.0</ele><time>2026-03-28T15:22:07.7Z</time></trkpt><trkpt lat="39.294147" lon="16.9667477"><ele>543.0</ele><time>2026-03-28T15:22:09.697Z</time></trkpt><trkpt lat="39.2940872" lon="16.9668605"><ele>541.0</ele><time>2026-03-28T15:22:11.698Z</time></trkpt><trkpt lat="39.2940036" lon="16.9669534"><ele>539.0</ele><time>2026-03-28T15:22:13.694Z</time></trkpt><trkpt lat="39.2938935" lon="16.9670454"><ele>537.0</ele><time>2026-03-28T15:22:15.709Z</time></trkpt><trkpt lat="39.2938341" lon="16.967097"><ele>536.9999999999999</ele><time>2026-03-28T15:22:16.697Z</time></trkpt><trkpt lat="39.2937958" lon="16.9671772"><ele>537.0</ele><time>2026-03-28T15:22:17.696Z</time></trkpt><trkpt lat="39.2937573" lon="16.9672653"><ele>537.0</ele><time>2026-03-28T15:22:18.703Z</time></trkpt><trkpt lat="39.2937521" lon="16.9673703"><ele>537.0</ele><time>2026-03-28T15:22:19.699Z</time></trkpt><trkpt lat="39.2937535" lon="16.9674644"><ele>537.0</ele><time>2026-03-28T15:22:20.699Z</time></trkpt><trkpt lat="39.2937519" lon="16.9675518"><ele>536.9999999999999</ele><time>2026-03-28T15:22:21.709Z</time></trkpt><trkpt lat="39.2937308" lon="16.9676291"><ele>537.0</ele><time>2026-03-28T15:22:22.708Z</time></trkpt><trkpt lat="39.2936542" lon="16.9677377"><ele>543.3333333333334</ele><time>2026-03-28T15:22:24.7Z</time></trkpt><trkpt lat="39.2935386" lon="16.9678134"><ele>549.6666666666666</ele><time>2026-03-28T15:22:26.703Z</time></trkpt><trkpt lat="39.2934853" lon="16.9678688"><ele>556.0</ele><time>2026-03-28T15:22:27.697Z</time></trkpt><trkpt lat="39.2934313" lon="16.9679422"><ele>562.3333333333333</ele><time>2026-03-28T15:22:28.698Z</time></trkpt><trkpt lat="39.2933776" lon="16.9680145"><ele>568.6666666666666</ele><time>2026-03-28T15:22:29.703Z</time></trkpt><trkpt lat="39.2933163" lon="16.9680807"><ele>575.0</ele><time>2026-03-28T15:22:30.706Z</time></trkpt><trkpt lat="39.2932459" lon="16.9681295"><ele>575.0</ele><time>2026-03-28T15:22:31.703Z</time></trkpt><trkpt lat="39.2931682" lon="16.9681643"><ele>575.0</ele><time>2026-03-28T15:22:32.696Z</time></trkpt><trkpt lat="39.2931002" lon="16.9681781"><ele>575.0</ele><time>2026-03-28T15:22:33.705Z</time></trkpt><trkpt lat="39.2929977" lon="16.9681774"><ele>575.0</ele><time>2026-03-28T15:22:35.703Z</time></trkpt><trkpt lat="39.2929283" lon="16.96822"><ele>575.0</ele><time>2026-03-28T15:22:38.711Z</time></trkpt><trkpt lat="39.2929382" lon="16.9683077"><ele>575.0</ele><time>2026-03-28T15:22:40.709Z</time></trkpt><trkpt lat="39.2930029" lon="16.9683998"><ele>577.0</ele><time>2026-03-28T15:22:42.71Z</time></trkpt><trkpt lat="39.2931101" lon="16.9685118"><ele>579.0</ele><time>2026-03-28T15:22:44.706Z</time></trkpt><trkpt lat="39.2931747" lon="16.9685694"><ele>581.0</ele><time>2026-03-28T15:22:45.708Z</time></trkpt><trkpt lat="39.2932431" lon="16.9686167"><ele>583.0</ele><time>2026-03-28T15:22:46.703Z</time></trkpt><trkpt lat="39.2933069" lon="16.9686613"><ele>585.0</ele><time>2026-03-28T15:22:47.711Z</time></trkpt><trkpt lat="39.2933647" lon="16.9686994"><ele>587.0</ele><time>2026-03-28T15:22:48.717Z</time></trkpt><trkpt lat="39.2933615" lon="16.9688213"><ele>587.0</ele><time>2026-03-28T15:22:50.702Z</time></trkpt><trkpt lat="39.2933141" lon="16.968931"><ele>587.0</ele><time>2026-03-28T15:22:52.713Z</time></trkpt><trkpt lat="39.2932774" lon="16.9690259"><ele>587.0</ele><time>2026-03-28T15:22:54.702Z</time></trkpt><trkpt lat="39.2932382" lon="16.9691449"><ele>587.0</ele><time>2026-03-28T15:22:56.702Z</time></trkpt><trkpt lat="39.2932033" lon="16.9693055"><ele>587.0</ele><time>2026-03-28T15:22:58.71Z</time></trkpt><trkpt lat="39.2931948" lon="16.9693888"><ele>588.2</ele><time>2026-03-28T15:22:59.703Z</time></trkpt><trkpt lat="39.2931894" lon="16.9695355"><ele>589.4000000000001</ele><time>2026-03-28T15:23:01.699Z</time></trkpt><trkpt lat="39.2931964" lon="16.969626"><ele>590.5999999999999</ele><time>2026-03-28T15:23:03.698Z</time></trkpt><trkpt lat="39.2932572" lon="16.9696518"><ele>591.8</ele><time>2026-03-28T15:23:06.704Z</time></trkpt><trkpt lat="39.2933137" lon="16.9695967"><ele>593.0</ele><time>2026-03-28T15:23:08.701Z</time></trkpt><trkpt lat="39.2934027" lon="16.9694683"><ele>593.0</ele><time>2026-03-28T15:23:10.711Z</time></trkpt><trkpt lat="39.2934583" lon="16.9693995"><ele>593.0</ele><time>2026-03-28T15:23:11.71Z</time></trkpt><trkpt lat="39.2935177" lon="16.9693325"><ele>593.0</ele><time>2026-03-28T15:23:12.706Z</time></trkpt><trkpt lat="39.2935787" lon="16.9692635"><ele>593.0</ele><time>2026-03-28T15:23:13.698Z</time></trkpt><trkpt lat="39.2936447" lon="16.9691858"><ele>593.0</ele><time>2026-03-28T15:23:14.705Z</time></trkpt><trkpt lat="39.2937158" lon="16.9691004"><ele>593.0</ele><time>2026-03-28T15:23:15.703Z</time></trkpt><trkpt lat="39.2938066" lon="16.9689935"><ele>591.3333333333333</ele><time>2026-03-28T15:23:16.708Z</time></trkpt><trkpt lat="39.2939233" lon="16.9688691"><ele>589.6666666666666</ele><time>2026-03-28T15:23:17.697Z</time></trkpt><trkpt lat="39.2940598" lon="16.9687306"><ele>588.0</ele><time>2026-03-28T15:23:18.708Z</time></trkpt><trkpt lat="39.2942148" lon="16.9685794"><ele>588.0</ele><time>2026-03-28T15:23:19.706Z</time></trkpt><trkpt lat="39.2943825" lon="16.9684158"><ele>588.0</ele><time>2026-03-28T15:23:20.706Z</time></trkpt><trkpt lat="39.294561" lon="16.9682505"><ele>588.0</ele><time>2026-03-28T15:23:21.701Z</time></trkpt><trkpt lat="39.2947251" lon="16.9681006"><ele>589.6666666666666</ele><time>2026-03-28T15:23:22.704Z</time></trkpt><trkpt lat="39.2948716" lon="16.9679641"><ele>591.3333333333333</ele><time>2026-03-28T15:23:23.703Z</time></trkpt><trkpt lat="39.2949997" lon="16.9678384"><ele>593.0</ele><time>2026-03-28T15:23:24.704Z</time></trkpt><trkpt lat="39.2951068" lon="16.9677151"><ele>593.0</ele><time>2026-03-28T15:23:25.702Z</time></trkpt><trkpt lat="39.2951991" lon="16.967603"><ele>593.0</ele><time>2026-03-28T15:23:26.706Z</time></trkpt><trkpt lat="39.2952824" lon="16.967506"><ele>593.0</ele><time>2026-03-28T15:23:27.713Z</time></trkpt><trkpt lat="39.2953666" lon="16.9674238"><ele>593.0</ele><time>2026-03-28T15:23:28.702Z</time></trkpt><trkpt lat="39.2954566" lon="16.9673571"><ele>593.0</ele><time>2026-03-28T15:23:29.696Z</time></trkpt><trkpt lat="39.2955581" lon="16.9673106"><ele>595.5</ele><time>2026-03-28T15:23:30.697Z</time></trkpt><trkpt lat="39.2956671" lon="16.9672667"><ele>598.0</ele><time>2026-03-28T15:23:31.698Z</time></trkpt><trkpt lat="39.2957698" lon="16.9672037"><ele>600.5</ele><time>2026-03-28T15:23:32.696Z</time></trkpt><trkpt lat="39.2958542" lon="16.9671031"><ele>603.0</ele><time>2026-03-28T15:23:33.701Z</time></trkpt><trkpt lat="39.2959184" lon="16.9669769"><ele>603.0</ele><time>2026-03-28T15:23:34.7Z</time></trkpt><trkpt lat="39.2959843" lon="16.9668533"><ele>603.0</ele><time>2026-03-28T15:23:35.701Z</time></trkpt><trkpt lat="39.2960258" lon="16.9667115"><ele>603.0</ele><time>2026-03-28T15:23:36.701Z</time></trkpt><trkpt lat="39.2960724" lon="16.9665684"><ele>603.0</ele><time>2026-03-28T15:23:37.704Z</time></trkpt><trkpt lat="39.2961167" lon="16.9664322"><ele>604.1999999999999</ele><time>2026-03-28T15:23:38.706Z</time></trkpt><trkpt lat="39.2961586" lon="16.9663042"><ele>605.4</ele><time>2026-03-28T15:23:39.703Z</time></trkpt><trkpt lat="39.296198" lon="16.9661793"><ele>606.5999999999999</ele><time>2026-03-28T15:23:40.699Z</time></trkpt><trkpt lat="39.2962503" lon="16.9660396"><ele>607.8</ele><time>2026-03-28T15:23:41.701Z</time></trkpt><trkpt lat="39.2962906" lon="16.9659235"><ele>609.0</ele><time>2026-03-28T15:23:42.704Z</time></trkpt><trkpt lat="39.2963204" lon="16.9658201"><ele>609.0</ele><time>2026-03-28T15:23:43.702Z</time></trkpt><trkpt lat="39.2963447" lon="16.9657381"><ele>609.0</ele><time>2026-03-28T15:23:44.71Z</time></trkpt><trkpt lat="39.2963675" lon="16.9656218"><ele>609.0</ele><time>2026-03-28T15:23:46.702Z</time></trkpt><trkpt lat="39.2964396" lon="16.9654777"><ele>609.0</ele><time>2026-03-28T15:23:52.709Z</time></trkpt><trkpt lat="39.2965537" lon="16.9653599"><ele>609.0</ele><time>2026-03-28T15:24:03.705Z</time></trkpt><trkpt lat="39.2966131" lon="16.9652826"><ele>611.6666666666666</ele><time>2026-03-28T15:24:05.7Z</time></trkpt><trkpt lat="39.2966933" lon="16.9652186"><ele>614.3333333333334</ele><time>2026-03-28T15:24:07.699Z</time></trkpt><trkpt lat="39.296794" lon="16.9651727"><ele>617.0</ele><time>2026-03-28T15:24:09.699Z</time></trkpt><trkpt lat="39.2968578" lon="16.9651222"><ele>619.6666666666667</ele><time>2026-03-28T15:24:10.708Z</time></trkpt><trkpt lat="39.2969276" lon="16.9650644"><ele>622.3333333333334</ele><time>2026-03-28T15:24:11.698Z</time></trkpt><trkpt lat="39.2970031" lon="16.965001"><ele>625.0</ele><time>2026-03-28T15:24:12.704Z</time></trkpt><trkpt lat="39.2970855" lon="16.9648955"><ele>627.0</ele><time>2026-03-28T15:24:14.701Z</time></trkpt><trkpt lat="39.29708" lon="16.9647434"><ele>629.0</ele><time>2026-03-28T15:24:16.709Z</time></trkpt><trkpt lat="39.2970377" lon="16.9646803"><ele>631.0</ele><time>2026-03-28T15:24:17.711Z</time></trkpt><trkpt lat="39.2969584" lon="16.9646102"><ele>633.0</ele><time>2026-03-28T15:24:18.703Z</time></trkpt><trkpt lat="39.2968871" lon="16.964559"><ele>635.0</ele><time>2026-03-28T15:24:19.704Z</time></trkpt><trkpt lat="39.2968112" lon="16.964519"><ele>637.0</ele><time>2026-03-28T15:24:20.706Z</time></trkpt><trkpt lat="39.2967341" lon="16.9644971"><ele>637.0</ele><time>2026-03-28T15:24:21.714Z</time></trkpt><trkpt lat="39.2966411" lon="16.9644979"><ele>637.0</ele><time>2026-03-28T15:24:23.703Z</time></trkpt><trkpt lat="39.2965808" lon="16.9645732"><ele>637.0</ele><time>2026-03-28T15:24:26.717Z</time></trkpt><trkpt lat="39.296533" lon="16.9646882"><ele>637.0</ele><time>2026-03-28T15:24:31.699Z</time></trkpt><trkpt lat="39.2965591" lon="16.9646048"><ele>637.0</ele><time>2026-03-28T15:35:43.709Z</time></trkpt><trkpt lat="39.2966065" lon="16.9645271"><ele>637.0</ele><time>2026-03-28T15:36:20.704Z</time></trkpt><trkpt lat="39.2966666" lon="16.9644966"><ele>637.0</ele><time>2026-03-28T15:36:22.703Z</time></trkpt><trkpt lat="39.2967367" lon="16.9645018"><ele>637.0</ele><time>2026-03-28T15:36:24.706Z</time></trkpt><trkpt lat="39.2968211" lon="16.9645278"><ele>637.0</ele><time>2026-03-28T15:36:27.707Z</time></trkpt><trkpt lat="39.2968827" lon="16.9645619"><ele>637.0</ele><time>2026-03-28T15:36:29.709Z</time></trkpt><trkpt lat="39.2969472" lon="16.9646093"><ele>637.0</ele><time>2026-03-28T15:36:31.708Z</time></trkpt><trkpt lat="39.2970153" lon="16.9646751"><ele>637.0</ele><time>2026-03-28T15:36:33.71Z</time></trkpt><trkpt lat="39.297075" lon="16.9647797"><ele>637.0</ele><time>2026-03-28T15:36:35.707Z</time></trkpt><trkpt lat="39.2970823" lon="16.9649109"><ele>637.0</ele><time>2026-03-28T15:36:37.702Z</time></trkpt><trkpt lat="39.2970342" lon="16.9650429"><ele>637.0</ele><time>2026-03-28T15:36:39.699Z</time></trkpt><trkpt lat="39.2969547" lon="16.9650881"><ele>637.0</ele><time>2026-03-28T15:36:40.704Z</time></trkpt><trkpt lat="39.2968833" lon="16.9651338"><ele>637.0</ele><time>2026-03-28T15:36:41.7Z</time></trkpt><trkpt lat="39.2968067" lon="16.9651676"><ele>635.0</ele><time>2026-03-28T15:36:42.701Z</time></trkpt><trkpt lat="39.2967385" lon="16.9652001"><ele>633.0</ele><time>2026-03-28T15:36:43.706Z</time></trkpt><trkpt lat="39.2966353" lon="16.9652645"><ele>631.0</ele><time>2026-03-28T15:36:45.702Z</time></trkpt><trkpt lat="39.2965666" lon="16.965335"><ele>629.0</ele><time>2026-03-28T15:36:47.703Z</time></trkpt><trkpt lat="39.2965169" lon="16.9654128"><ele>627.0</ele><time>2026-03-28T15:36:57.706Z</time></trkpt><trkpt lat="39.2964579" lon="16.9654764"><ele>625.0</ele><time>2026-03-28T15:36:59.708Z</time></trkpt><trkpt lat="39.2964168" lon="16.9655406"><ele>622.8333333333334</ele><time>2026-03-28T15:37:01.717Z</time></trkpt><trkpt lat="39.2963793" lon="16.9656184"><ele>620.6666666666667</ele><time>2026-03-28T15:37:04.712Z</time></trkpt><trkpt lat="39.2963383" lon="16.9657322"><ele>618.5</ele><time>2026-03-28T15:37:06.713Z</time></trkpt><trkpt lat="39.2963042" lon="16.9658205"><ele>616.3333333333334</ele><time>2026-03-28T15:37:07.702Z</time></trkpt><trkpt lat="39.2962676" lon="16.9659231"><ele>614.1666666666666</ele><time>2026-03-28T15:37:08.711Z</time></trkpt><trkpt lat="39.2962298" lon="16.966033"><ele>612.0</ele><time>2026-03-28T15:37:09.704Z</time></trkpt><trkpt lat="39.2961943" lon="16.9661446"><ele>612.0</ele><time>2026-03-28T15:37:10.707Z</time></trkpt><trkpt lat="39.2961649" lon="16.9662447"><ele>612.0</ele><time>2026-03-28T15:37:11.708Z</time></trkpt><trkpt lat="39.2961392" lon="16.9663359"><ele>612.0</ele><time>2026-03-28T15:37:12.696Z</time></trkpt><trkpt lat="39.2961172" lon="16.9664141"><ele>612.0</ele><time>2026-03-28T15:37:13.704Z</time></trkpt><trkpt lat="39.2960869" lon="16.9665334"><ele>612.0</ele><time>2026-03-28T15:37:15.708Z</time></trkpt><trkpt lat="39.296061" lon="16.9666288"><ele>612.0</ele><time>2026-03-28T15:37:18.698Z</time></trkpt><trkpt lat="39.2960406" lon="16.9667113"><ele>610.2</ele><time>2026-03-28T15:37:22.712Z</time></trkpt><trkpt lat="39.2960242" lon="16.9668354"><ele>608.4000000000001</ele><time>2026-03-28T15:37:25.703Z</time></trkpt><trkpt lat="39.2959957" lon="16.9669752"><ele>606.5999999999999</ele><time>2026-03-28T15:37:27.711Z</time></trkpt><trkpt lat="39.2959709" lon="16.9670919"><ele>604.8</ele><time>2026-03-28T15:37:29.705Z</time></trkpt><trkpt lat="39.2959606" lon="16.9671785"><ele>603.0</ele><time>2026-03-28T15:37:31.722Z</time></trkpt><trkpt lat="39.2959576" lon="16.9672806"><ele>603.0</ele><time>2026-03-28T15:37:33.713Z</time></trkpt><trkpt lat="39.2959586" lon="16.9674028"><ele>603.0</ele><time>2026-03-28T15:37:35.707Z</time></trkpt><trkpt lat="39.295962" lon="16.9675281"><ele>603.0</ele><time>2026-03-28T15:37:37.705Z</time></trkpt><trkpt lat="39.2959853" lon="16.9676582"><ele>603.0</ele><time>2026-03-28T15:37:39.711Z</time></trkpt><trkpt lat="39.2960077" lon="16.9677732"><ele>603.0</ele><time>2026-03-28T15:37:41.704Z</time></trkpt><trkpt lat="39.2960317" lon="16.9679169"><ele>600.6</ele><time>2026-03-28T15:37:43.706Z</time></trkpt><trkpt lat="39.2960517" lon="16.9680612"><ele>598.1999999999999</ele><time>2026-03-28T15:37:45.705Z</time></trkpt><trkpt lat="39.2960634" lon="16.9682024"><ele>595.8</ele><time>2026-03-28T15:37:47.704Z</time></trkpt><trkpt lat="39.2960591" lon="16.9683381"><ele>593.4</ele><time>2026-03-28T15:37:49.703Z</time></trkpt><trkpt lat="39.2960384" lon="16.9684229"><ele>591.0</ele><time>2026-03-28T15:37:51.698Z</time></trkpt><trkpt lat="39.2960678" lon="16.9685162"><ele>588.8333333333334</ele><time>2026-03-28T15:37:53.703Z</time></trkpt><trkpt lat="39.2961047" lon="16.9686116"><ele>586.6666666666666</ele><time>2026-03-28T15:37:55.703Z</time></trkpt><trkpt lat="39.2961527" lon="16.9687183"><ele>584.5</ele><time>2026-03-28T15:37:57.706Z</time></trkpt><trkpt lat="39.2961812" lon="16.9687912"><ele>582.3333333333333</ele><time>2026-03-28T15:37:58.704Z</time></trkpt><trkpt lat="39.2962116" lon="16.9688702"><ele>580.1666666666666</ele><time>2026-03-28T15:37:59.706Z</time></trkpt><trkpt lat="39.2962477" lon="16.9689448"><ele>578.0</ele><time>2026-03-28T15:38:00.707Z</time></trkpt><trkpt lat="39.296297" lon="16.9690255"><ele>578.0</ele><time>2026-03-28T15:38:01.705Z</time></trkpt><trkpt lat="39.2963867" lon="16.9691016"><ele>578.0</ele><time>2026-03-28T15:38:03.705Z</time></trkpt><trkpt lat="39.2964884" lon="16.9691435"><ele>578.0</ele><time>2026-03-28T15:38:05.705Z</time></trkpt><trkpt lat="39.2965486" lon="16.9691711"><ele>578.0</ele><time>2026-03-28T15:38:06.705Z</time></trkpt><trkpt lat="39.2966624" lon="16.9692534"><ele>578.0</ele><time>2026-03-28T15:38:08.703Z</time></trkpt><trkpt lat="39.2967585" lon="16.9693437"><ele>577.1999999999999</ele><time>2026-03-28T15:38:10.697Z</time></trkpt><trkpt lat="39.2968498" lon="16.9694467"><ele>576.4</ele><time>2026-03-28T15:38:12.696Z</time></trkpt><trkpt lat="39.296904" lon="16.9695073"><ele>575.5999999999999</ele><time>2026-03-28T15:38:13.704Z</time></trkpt><trkpt lat="39.2969622" lon="16.9695686"><ele>574.8</ele><time>2026-03-28T15:38:14.704Z</time></trkpt><trkpt lat="39.2970285" lon="16.9696395"><ele>574.0</ele><time>2026-03-28T15:38:15.702Z</time></trkpt><trkpt lat="39.2971044" lon="16.9697208"><ele>574.0</ele><time>2026-03-28T15:38:16.7Z</time></trkpt><trkpt lat="39.2971856" lon="16.9697982"><ele>574.0</ele><time>2026-03-28T15:38:17.705Z</time></trkpt><trkpt lat="39.2972635" lon="16.9698701"><ele>574.0</ele><time>2026-03-28T15:38:18.7Z</time></trkpt><trkpt lat="39.2973212" lon="16.9699502"><ele>574.0</ele><time>2026-03-28T15:38:19.703Z</time></trkpt><trkpt lat="39.2973599" lon="16.9700252"><ele>574.0</ele><time>2026-03-28T15:38:20.701Z</time></trkpt><trkpt lat="39.2973981" lon="16.9701049"><ele>574.0</ele><time>2026-03-28T15:38:21.702Z</time></trkpt><trkpt lat="39.2974277" lon="16.9701895"><ele>573.4285714285714</ele><time>2026-03-28T15:38:22.71Z</time></trkpt><trkpt lat="39.2974588" lon="16.9702774"><ele>572.8571428571429</ele><time>2026-03-28T15:38:23.699Z</time></trkpt><trkpt lat="39.2974951" lon="16.9703623"><ele>572.2857142857142</ele><time>2026-03-28T15:38:24.698Z</time></trkpt><trkpt lat="39.2975341" lon="16.9704483"><ele>571.7142857142858</ele><time>2026-03-28T15:38:25.701Z</time></trkpt><trkpt lat="39.2975714" lon="16.9705251"><ele>571.1428571428571</ele><time>2026-03-28T15:38:26.706Z</time></trkpt><trkpt lat="39.2976078" lon="16.9705947"><ele>570.5714285714286</ele><time>2026-03-28T15:38:27.705Z</time></trkpt><trkpt lat="39.2976437" lon="16.9706672"><ele>570.0</ele><time>2026-03-28T15:38:28.699Z</time></trkpt><trkpt lat="39.2976887" lon="16.970752"><ele>570.0</ele><time>2026-03-28T15:38:29.698Z</time></trkpt><trkpt lat="39.2977145" lon="16.9708471"><ele>570.0</ele><time>2026-03-28T15:38:30.706Z</time></trkpt><trkpt lat="39.2977386" lon="16.9709585"><ele>570.0</ele><time>2026-03-28T15:38:31.704Z</time></trkpt><trkpt lat="39.2977561" lon="16.9710674"><ele>570.0</ele><time>2026-03-28T15:38:32.701Z</time></trkpt><trkpt lat="39.2977694" lon="16.9711692"><ele>570.0</ele><time>2026-03-28T15:38:33.703Z</time></trkpt><trkpt lat="39.2977863" lon="16.97128"><ele>570.0</ele><time>2026-03-28T15:38:34.707Z</time></trkpt><trkpt lat="39.2978022" lon="16.9713947"><ele>568.0</ele><time>2026-03-28T15:38:35.701Z</time></trkpt><trkpt lat="39.2978158" lon="16.9714931"><ele>566.0</ele><time>2026-03-28T15:38:36.701Z</time></trkpt><trkpt lat="39.2978343" lon="16.9715863"><ele>564.0</ele><time>2026-03-28T15:38:37.7Z</time></trkpt><trkpt lat="39.2978451" lon="16.9716855"><ele>562.0</ele><time>2026-03-28T15:38:38.698Z</time></trkpt><trkpt lat="39.2978397" lon="16.9717879"><ele>560.0</ele><time>2026-03-28T15:38:39.699Z</time></trkpt><trkpt lat="39.2978136" lon="16.9718797"><ele>558.0</ele><time>2026-03-28T15:38:40.704Z</time></trkpt><trkpt lat="39.2977682" lon="16.9719863"><ele>555.6666666666666</ele><time>2026-03-28T15:38:41.696Z</time></trkpt><trkpt lat="39.2977227" lon="16.9720933"><ele>553.3333333333334</ele><time>2026-03-28T15:38:42.693Z</time></trkpt><trkpt lat="39.2976733" lon="16.9721948"><ele>551.0</ele><time>2026-03-28T15:38:43.691Z</time></trkpt><trkpt lat="39.2976275" lon="16.9722953"><ele>548.6666666666667</ele><time>2026-03-28T15:38:44.698Z</time></trkpt><trkpt lat="39.297588" lon="16.9724056"><ele>546.3333333333334</ele><time>2026-03-28T15:38:45.695Z</time></trkpt><trkpt lat="39.297573" lon="16.9724971"><ele>544.0</ele><time>2026-03-28T15:38:46.697Z</time></trkpt><trkpt lat="39.2975604" lon="16.9725924"><ele>541.6666666666667</ele><time>2026-03-28T15:38:47.705Z</time></trkpt><trkpt lat="39.2975302" lon="16.9726953"><ele>539.3333333333334</ele><time>2026-03-28T15:38:48.702Z</time></trkpt><trkpt lat="39.2974986" lon="16.9727961"><ele>537.0</ele><time>2026-03-28T15:38:49.697Z</time></trkpt><trkpt lat="39.2974393" lon="16.9729143"><ele>534.6666666666666</ele><time>2026-03-28T15:38:50.697Z</time></trkpt><trkpt lat="39.2973907" lon="16.9730094"><ele>532.3333333333333</ele><time>2026-03-28T15:38:51.694Z</time></trkpt><trkpt lat="39.2973469" lon="16.9730961"><ele>530.0</ele><time>2026-03-28T15:38:52.693Z</time></trkpt><trkpt lat="39.2973254" lon="16.9731783"><ele>530.0</ele><time>2026-03-28T15:38:53.697Z</time></trkpt><trkpt lat="39.2973549" lon="16.9733474"><ele>530.0</ele><time>2026-03-28T15:38:55.698Z</time></trkpt><trkpt lat="39.2973848" lon="16.9734344"><ele>530.0</ele><time>2026-03-28T15:38:56.697Z</time></trkpt><trkpt lat="39.2974206" lon="16.9735297"><ele>530.0</ele><time>2026-03-28T15:38:57.697Z</time></trkpt><trkpt lat="39.2974518" lon="16.9736404"><ele>530.0</ele><time>2026-03-28T15:38:58.698Z</time></trkpt><trkpt lat="39.2974838" lon="16.9737676"><ele>526.2</ele><time>2026-03-28T15:38:59.698Z</time></trkpt><trkpt lat="39.2975093" lon="16.9739215"><ele>522.4</ele><time>2026-03-28T15:39:00.698Z</time></trkpt><trkpt lat="39.297534" lon="16.9740622"><ele>518.6</ele><time>2026-03-28T15:39:01.696Z</time></trkpt><trkpt lat="39.2975587" lon="16.974202"><ele>514.8</ele><time>2026-03-28T15:39:02.7Z</time></trkpt><trkpt lat="39.2975636" lon="16.9743341"><ele>511.0</ele><time>2026-03-28T15:39:03.696Z</time></trkpt><trkpt lat="39.2975803" lon="16.9744619"><ele>508.6666666666667</ele><time>2026-03-28T15:39:04.698Z</time></trkpt><trkpt lat="39.297608" lon="16.9745769"><ele>506.33333333333337</ele><time>2026-03-28T15:39:05.698Z</time></trkpt><trkpt lat="39.2976608" lon="16.974647"><ele>504.0</ele><time>2026-03-28T15:39:06.701Z</time></trkpt><trkpt lat="39.2977179" lon="16.9747291"><ele>501.66666666666663</ele><time>2026-03-28T15:39:07.7Z</time></trkpt><trkpt lat="39.2977708" lon="16.9748035"><ele>499.3333333333333</ele><time>2026-03-28T15:39:08.695Z</time></trkpt><trkpt lat="39.297813" lon="16.9748761"><ele>497.0</ele><time>2026-03-28T15:39:09.696Z</time></trkpt><trkpt lat="39.2978447" lon="16.9749969"><ele>493.40000000000003</ele><time>2026-03-28T15:39:10.695Z</time></trkpt><trkpt lat="39.297865" lon="16.9750909"><ele>489.80000000000007</ele><time>2026-03-28T15:39:11.697Z</time></trkpt><trkpt lat="39.297868" lon="16.9751954"><ele>486.2</ele><time>2026-03-28T15:39:12.708Z</time></trkpt><trkpt lat="39.2978675" lon="16.9753496"><ele>482.6</ele><time>2026-03-28T15:39:13.696Z</time></trkpt><trkpt lat="39.2978752" lon="16.9754515"><ele>479.0</ele><time>2026-03-28T15:39:14.698Z</time></trkpt><trkpt lat="39.2979145" lon="16.9755833"><ele>479.0</ele><time>2026-03-28T15:39:16.705Z</time></trkpt><trkpt lat="39.2979821" lon="16.9756518"><ele>479.0</ele><time>2026-03-28T15:39:18.696Z</time></trkpt><trkpt lat="39.298101" lon="16.9757184"><ele>479.0</ele><time>2026-03-28T15:39:20.707Z</time></trkpt><trkpt lat="39.2981748" lon="16.9757812"><ele>479.0</ele><time>2026-03-28T15:39:21.698Z</time></trkpt><trkpt lat="39.2982347" lon="16.9758707"><ele>479.0</ele><time>2026-03-28T15:39:22.696Z</time></trkpt><trkpt lat="39.298301" lon="16.9759248"><ele>477.3333333333333</ele><time>2026-03-28T15:39:23.719Z</time></trkpt><trkpt lat="39.2983674" lon="16.9760134"><ele>475.66666666666663</ele><time>2026-03-28T15:39:24.702Z</time></trkpt><trkpt lat="39.2984244" lon="16.9760997"><ele>474.0</ele><time>2026-03-28T15:39:25.696Z</time></trkpt><trkpt lat="39.2984616" lon="16.9761769"><ele>472.33333333333337</ele><time>2026-03-28T15:39:26.696Z</time></trkpt><trkpt lat="39.2985087" lon="16.9763021"><ele>470.6666666666667</ele><time>2026-03-28T15:39:28.698Z</time></trkpt><trkpt lat="39.2985304" lon="16.9763971"><ele>469.0</ele><time>2026-03-28T15:39:31.706Z</time></trkpt><trkpt lat="39.298582" lon="16.9763302"><ele>469.0</ele><time>2026-03-28T15:39:35.708Z</time></trkpt><trkpt lat="39.2985576" lon="16.9762515"><ele>469.0</ele><time>2026-03-28T15:39:37.702Z</time></trkpt><trkpt lat="39.2985137" lon="16.9761565"><ele>469.0</ele><time>2026-03-28T15:39:40.7Z</time></trkpt><trkpt lat="39.2984748" lon="16.9760639"><ele>469.0</ele><time>2026-03-28T15:39:42.696Z</time></trkpt><trkpt lat="39.2984309" lon="16.9759632"><ele>469.0</ele><time>2026-03-28T15:39:44.701Z</time></trkpt><trkpt lat="39.2983687" lon="16.9758187"><ele>471.2</ele><time>2026-03-28T15:39:46.702Z</time></trkpt><trkpt lat="39.2983302" lon="16.9757249"><ele>473.4</ele><time>2026-03-28T15:39:47.698Z</time></trkpt><trkpt lat="39.2983093" lon="16.9755994"><ele>475.6</ele><time>2026-03-28T15:39:48.695Z</time></trkpt><trkpt lat="39.2983146" lon="16.9754607"><ele>477.8</ele><time>2026-03-28T15:39:49.697Z</time></trkpt><trkpt lat="39.298346" lon="16.9753473"><ele>480.0</ele><time>2026-03-28T15:39:50.709Z</time></trkpt><trkpt lat="39.2983947" lon="16.9752611"><ele>480.0</ele><time>2026-03-28T15:39:51.7Z</time></trkpt><trkpt lat="39.2984523" lon="16.9752115"><ele>480.0</ele><time>2026-03-28T15:39:52.702Z</time></trkpt><trkpt lat="39.2985207" lon="16.9751682"><ele>480.0</ele><time>2026-03-28T15:39:53.696Z</time></trkpt><trkpt lat="39.2985685" lon="16.9751126"><ele>480.0</ele><time>2026-03-28T15:39:54.703Z</time></trkpt><trkpt lat="39.2985838" lon="16.974983"><ele>480.0</ele><time>2026-03-28T15:39:56.702Z</time></trkpt><trkpt lat="39.2985153" lon="16.9748646"><ele>480.0</ele><time>2026-03-28T15:39:58.699Z</time></trkpt><trkpt lat="39.2984279" lon="16.9747639"><ele>481.14285714285717</ele><time>2026-03-28T15:40:00.693Z</time></trkpt><trkpt lat="39.2983624" lon="16.9747188"><ele>482.2857142857142</ele><time>2026-03-28T15:40:01.7Z</time></trkpt><trkpt lat="39.2983062" lon="16.9746688"><ele>483.4285714285714</ele><time>2026-03-28T15:40:02.695Z</time></trkpt><trkpt lat="39.2982445" lon="16.97462"><ele>484.57142857142856</ele><time>2026-03-28T15:40:03.692Z</time></trkpt><trkpt lat="39.2981876" lon="16.9745545"><ele>485.71428571428567</ele><time>2026-03-28T15:40:04.701Z</time></trkpt><trkpt lat="39.2981337" lon="16.9744823"><ele>486.8571428571428</ele><time>2026-03-28T15:40:05.702Z</time></trkpt><trkpt lat="39.298077" lon="16.9744108"><ele>487.99999999999994</ele><time>2026-03-28T15:40:06.695Z</time></trkpt><trkpt lat="39.2980157" lon="16.9743427"><ele>487.79999999999995</ele><time>2026-03-28T15:40:07.694Z</time></trkpt><trkpt lat="39.2979553" lon="16.9742705"><ele>487.59999999999997</ele><time>2026-03-28T15:40:08.7Z</time></trkpt><trkpt lat="39.2979164" lon="16.9741907"><ele>487.40000000000003</ele><time>2026-03-28T15:40:09.694Z</time></trkpt><trkpt lat="39.2979712" lon="16.974087"><ele>487.20000000000005</ele><time>2026-03-28T15:40:11.694Z</time></trkpt><trkpt lat="39.2980421" lon="16.9740484"><ele>487.0</ele><time>2026-03-28T15:40:12.692Z</time></trkpt><trkpt lat="39.29816" lon="16.9739903"><ele>487.00000000000006</ele><time>2026-03-28T15:40:14.7Z</time></trkpt><trkpt lat="39.2982326" lon="16.973957"><ele>487.0</ele><time>2026-03-28T15:40:15.696Z</time></trkpt><trkpt lat="39.298299" lon="16.9739196"><ele>487.0</ele><time>2026-03-28T15:40:16.699Z</time></trkpt><trkpt lat="39.2983733" lon="16.9738691"><ele>487.0</ele><time>2026-03-28T15:40:17.701Z</time></trkpt><trkpt lat="39.2984504" lon="16.9738258"><ele>487.00000000000006</ele><time>2026-03-28T15:40:18.697Z</time></trkpt><trkpt lat="39.2985333" lon="16.9737846"><ele>487.0</ele><time>2026-03-28T15:40:19.696Z</time></trkpt><trkpt lat="39.2986126" lon="16.9737406"><ele>487.00000000000006</ele><time>2026-03-28T15:40:20.701Z</time></trkpt><trkpt lat="39.2986937" lon="16.9736858"><ele>487.0</ele><time>2026-03-28T15:40:21.694Z</time></trkpt><trkpt lat="39.2987727" lon="16.9736454"><ele>487.0</ele><time>2026-03-28T15:40:22.697Z</time></trkpt><trkpt lat="39.2988637" lon="16.9736118"><ele>487.0</ele><time>2026-03-28T15:40:23.696Z</time></trkpt><trkpt lat="39.2989537" lon="16.9735896"><ele>487.00000000000006</ele><time>2026-03-28T15:40:24.693Z</time></trkpt><trkpt lat="39.2990331" lon="16.9735702"><ele>487.0</ele><time>2026-03-28T15:40:25.696Z</time></trkpt><trkpt lat="39.2991061" lon="16.973588"><ele>484.8571428571429</ele><time>2026-03-28T15:40:26.7Z</time></trkpt><trkpt lat="39.2991834" lon="16.9736122"><ele>482.71428571428567</ele><time>2026-03-28T15:40:27.703Z</time></trkpt><trkpt lat="39.2992536" lon="16.973616"><ele>480.57142857142856</ele><time>2026-03-28T15:40:28.697Z</time></trkpt><trkpt lat="39.299319" lon="16.9735906"><ele>478.42857142857144</ele><time>2026-03-28T15:40:29.696Z</time></trkpt><trkpt lat="39.2993855" lon="16.9735459"><ele>476.28571428571433</ele><time>2026-03-28T15:40:30.697Z</time></trkpt><trkpt lat="39.2994506" lon="16.9735024"><ele>474.1428571428571</ele><time>2026-03-28T15:40:31.694Z</time></trkpt><trkpt lat="39.2995145" lon="16.973444"><ele>472.0</ele><time>2026-03-28T15:40:32.696Z</time></trkpt><trkpt lat="39.2995841" lon="16.9733889"><ele>474.00000000000006</ele><time>2026-03-28T15:40:33.693Z</time></trkpt><trkpt lat="39.2996506" lon="16.9733306"><ele>476.0</ele><time>2026-03-28T15:40:34.701Z</time></trkpt><trkpt lat="39.2997104" lon="16.9732731"><ele>478.0</ele><time>2026-03-28T15:40:35.7Z</time></trkpt><trkpt lat="39.2997902" lon="16.9732011"><ele>480.0</ele><time>2026-03-28T15:40:37.706Z</time></trkpt><trkpt lat="39.2998717" lon="16.9732085"><ele>482.00000000000006</ele><time>2026-03-28T15:40:40.704Z</time></trkpt><trkpt lat="39.2999633" lon="16.9732401"><ele>484.0</ele><time>2026-03-28T15:40:42.704Z</time></trkpt><trkpt lat="39.30004" lon="16.9732802"><ele>484.0</ele><time>2026-03-28T15:40:44.701Z</time></trkpt><trkpt lat="39.3001252" lon="16.9733148"><ele>484.0</ele><time>2026-03-28T15:40:46.696Z</time></trkpt><trkpt lat="39.3002219" lon="16.9733431"><ele>484.0</ele><time>2026-03-28T15:40:48.697Z</time></trkpt><trkpt lat="39.3003179" lon="16.9732993"><ele>484.0</ele><time>2026-03-28T15:40:50.711Z</time></trkpt><trkpt lat="39.300395" lon="16.9732166"><ele>484.0</ele><time>2026-03-28T15:40:52.698Z</time></trkpt><trkpt lat="39.3004319" lon="16.9730915"><ele>484.0</ele><time>2026-03-28T15:40:54.7Z</time></trkpt><trkpt lat="39.3004793" lon="16.9729374"><ele>484.0</ele><time>2026-03-28T15:40:56.704Z</time></trkpt><trkpt lat="39.3005275" lon="16.9728656"><ele>484.0</ele><time>2026-03-28T15:40:57.693Z</time></trkpt><trkpt lat="39.3005683" lon="16.9727899"><ele>484.0</ele><time>2026-03-28T15:40:58.702Z</time></trkpt><trkpt lat="39.3006006" lon="16.9726438"><ele>484.0</ele><time>2026-03-28T15:41:00.697Z</time></trkpt><trkpt lat="39.3005202" lon="16.9725112"><ele>485.6</ele><time>2026-03-28T15:41:02.695Z</time></trkpt><trkpt lat="39.3004561" lon="16.9724433"><ele>487.2</ele><time>2026-03-28T15:41:03.697Z</time></trkpt><trkpt lat="39.3003808" lon="16.972361"><ele>488.80000000000007</ele><time>2026-03-28T15:41:04.699Z</time></trkpt><trkpt lat="39.300287" lon="16.9722564"><ele>490.40000000000003</ele><time>2026-03-28T15:41:05.699Z</time></trkpt><trkpt lat="39.3001921" lon="16.9721611"><ele>492.0</ele><time>2026-03-28T15:41:06.696Z</time></trkpt><trkpt lat="39.3000958" lon="16.9720686"><ele>492.0</ele><time>2026-03-28T15:41:07.692Z</time></trkpt><trkpt lat="39.3000056" lon="16.9719632"><ele>492.0</ele><time>2026-03-28T15:41:08.703Z</time></trkpt><trkpt lat="39.2999718" lon="16.9718197"><ele>492.0</ele><time>2026-03-28T15:41:09.701Z</time></trkpt><trkpt lat="39.2999538" lon="16.9716719"><ele>492.0</ele><time>2026-03-28T15:41:10.7Z</time></trkpt><trkpt lat="39.2999344" lon="16.9715174"><ele>489.8</ele><time>2026-03-28T15:41:11.696Z</time></trkpt><trkpt lat="39.2999118" lon="16.9713931"><ele>487.6</ele><time>2026-03-28T15:41:12.697Z</time></trkpt><trkpt lat="39.2999303" lon="16.9713033"><ele>485.40000000000003</ele><time>2026-03-28T15:41:13.7Z</time></trkpt><trkpt lat="39.2999903" lon="16.9711794"><ele>483.20000000000005</ele><time>2026-03-28T15:41:15.696Z</time></trkpt><trkpt lat="39.300069" lon="16.9711674"><ele>481.0</ele><time>2026-03-28T15:41:16.697Z</time></trkpt><trkpt lat="39.3001583" lon="16.9711778"><ele>481.0</ele><time>2026-03-28T15:41:17.695Z</time></trkpt><trkpt lat="39.3002445" lon="16.9711877"><ele>481.0</ele><time>2026-03-28T15:41:18.695Z</time></trkpt><trkpt lat="39.3003388" lon="16.9712225"><ele>481.0</ele><time>2026-03-28T15:41:19.699Z</time></trkpt><trkpt lat="39.3004392" lon="16.9713022"><ele>481.0</ele><time>2026-03-28T15:41:20.701Z</time></trkpt><trkpt lat="39.3005512" lon="16.9713852"><ele>481.0</ele><time>2026-03-28T15:41:21.694Z</time></trkpt><trkpt lat="39.3006826" lon="16.9714506"><ele>479.5</ele><time>2026-03-28T15:41:22.707Z</time></trkpt><trkpt lat="39.3008063" lon="16.9715142"><ele>478.0</ele><time>2026-03-28T15:41:23.693Z</time></trkpt><trkpt lat="39.3009244" lon="16.9715811"><ele>476.5</ele><time>2026-03-28T15:41:24.699Z</time></trkpt><trkpt lat="39.3010205" lon="16.9716868"><ele>475.0</ele><time>2026-03-28T15:41:25.701Z</time></trkpt><trkpt lat="39.3011119" lon="16.9717966"><ele>473.0</ele><time>2026-03-28T15:41:26.702Z</time></trkpt><trkpt lat="39.3011715" lon="16.9719356"><ele>471.0</ele><time>2026-03-28T15:41:27.697Z</time></trkpt><trkpt lat="39.3012397" lon="16.9720618"><ele>469.0</ele><time>2026-03-28T15:41:28.698Z</time></trkpt><trkpt lat="39.3013024" lon="16.9721743"><ele>467.0</ele><time>2026-03-28T15:41:29.7Z</time></trkpt><trkpt lat="39.3013741" lon="16.9722418"><ele>465.0</ele><time>2026-03-28T15:41:30.695Z</time></trkpt><trkpt lat="39.3014484" lon="16.9722576"><ele>461.6</ele><time>2026-03-28T15:41:31.702Z</time></trkpt><trkpt lat="39.3015407" lon="16.9721952"><ele>458.2</ele><time>2026-03-28T15:41:33.697Z</time></trkpt><trkpt lat="39.3015668" lon="16.9721082"><ele>454.79999999999995</ele><time>2026-03-28T15:41:34.697Z</time></trkpt><trkpt lat="39.301603" lon="16.9720108"><ele>451.4</ele><time>2026-03-28T15:41:35.701Z</time></trkpt><trkpt lat="39.3016419" lon="16.9719031"><ele>448.0</ele><time>2026-03-28T15:41:36.703Z</time></trkpt><trkpt lat="39.3016768" lon="16.9717837"><ele>452.59999999999997</ele><time>2026-03-28T15:41:37.705Z</time></trkpt><trkpt lat="39.3017114" lon="16.9716545"><ele>457.19999999999993</ele><time>2026-03-28T15:41:38.694Z</time></trkpt><trkpt lat="39.3017416" lon="16.9715194"><ele>461.8</ele><time>2026-03-28T15:41:39.696Z</time></trkpt><trkpt lat="39.3017681" lon="16.9713757"><ele>466.4</ele><time>2026-03-28T15:41:40.7Z</time></trkpt><trkpt lat="39.3017829" lon="16.9712412"><ele>471.0</ele><time>2026-03-28T15:41:41.7Z</time></trkpt><trkpt lat="39.301797" lon="16.9711146"><ele>471.0</ele><time>2026-03-28T15:41:42.704Z</time></trkpt><trkpt lat="39.3017717" lon="16.9709811"><ele>471.0</ele><time>2026-03-28T15:41:43.697Z</time></trkpt><trkpt lat="39.3017439" lon="16.9708403"><ele>471.0</ele><time>2026-03-28T15:41:44.693Z</time></trkpt><trkpt lat="39.3017175" lon="16.970686"><ele>471.0</ele><time>2026-03-28T15:41:45.699Z</time></trkpt><trkpt lat="39.3017152" lon="16.9705466"><ele>471.0</ele><time>2026-03-28T15:41:46.701Z</time></trkpt><trkpt lat="39.3017084" lon="16.9704332"><ele>472.20000000000005</ele><time>2026-03-28T15:41:47.693Z</time></trkpt><trkpt lat="39.3016998" lon="16.9703386"><ele>473.40000000000003</ele><time>2026-03-28T15:41:48.695Z</time></trkpt><trkpt lat="39.3016434" lon="16.9702543"><ele>474.6</ele><time>2026-03-28T15:41:49.697Z</time></trkpt><trkpt lat="39.3015673" lon="16.970167"><ele>475.8</ele><time>2026-03-28T15:41:50.702Z</time></trkpt><trkpt lat="39.3014893" lon="16.9700454"><ele>477.0</ele><time>2026-03-28T15:41:51.697Z</time></trkpt><trkpt lat="39.3014404" lon="16.969914"><ele>477.0</ele><time>2026-03-28T15:41:52.703Z</time></trkpt><trkpt lat="39.301447" lon="16.9697746"><ele>477.0</ele><time>2026-03-28T15:41:53.698Z</time></trkpt><trkpt lat="39.3014647" lon="16.9696121"><ele>477.0</ele><time>2026-03-28T15:41:54.698Z</time></trkpt><trkpt lat="39.3015112" lon="16.9694569"><ele>477.0</ele><time>2026-03-28T15:41:55.697Z</time></trkpt><trkpt lat="39.3015521" lon="16.9693062"><ele>477.20000000000005</ele><time>2026-03-28T15:41:56.698Z</time></trkpt><trkpt lat="39.3015653" lon="16.9691559"><ele>477.40000000000003</ele><time>2026-03-28T15:41:57.701Z</time></trkpt><trkpt lat="39.3015597" lon="16.9690064"><ele>477.59999999999997</ele><time>2026-03-28T15:41:58.701Z</time></trkpt><trkpt lat="39.3015565" lon="16.9688789"><ele>477.79999999999995</ele><time>2026-03-28T15:41:59.698Z</time></trkpt><trkpt lat="39.3015431" lon="16.9687861"><ele>478.0</ele><time>2026-03-28T15:42:00.702Z</time></trkpt><trkpt lat="39.3015048" lon="16.9686942"><ele>478.0</ele><time>2026-03-28T15:42:01.702Z</time></trkpt><trkpt lat="39.3014386" lon="16.9686131"><ele>477.99999999999994</ele><time>2026-03-28T15:42:02.695Z</time></trkpt><trkpt lat="39.3013781" lon="16.9684954"><ele>477.99999999999994</ele><time>2026-03-28T15:42:03.697Z</time></trkpt><trkpt lat="39.3013833" lon="16.9683473"><ele>478.0</ele><time>2026-03-28T15:42:04.694Z</time></trkpt><trkpt lat="39.3014208" lon="16.9681999"><ele>478.0</ele><time>2026-03-28T15:42:05.691Z</time></trkpt><trkpt lat="39.3014742" lon="16.9680671"><ele>477.50000000000006</ele><time>2026-03-28T15:42:06.697Z</time></trkpt><trkpt lat="39.3015548" lon="16.9679823"><ele>477.0</ele><time>2026-03-28T15:42:07.694Z</time></trkpt><trkpt lat="39.3016296" lon="16.9679088"><ele>476.5</ele><time>2026-03-28T15:42:08.692Z</time></trkpt><trkpt lat="39.3016754" lon="16.9678383"><ele>476.0</ele><time>2026-03-28T15:42:09.692Z</time></trkpt><trkpt lat="39.3017026" lon="16.967731"><ele>475.50000000000006</ele><time>2026-03-28T15:42:10.696Z</time></trkpt><trkpt lat="39.3017199" lon="16.9676176"><ele>475.0</ele><time>2026-03-28T15:42:11.706Z</time></trkpt><trkpt lat="39.3017623" lon="16.9675131"><ele>475.0</ele><time>2026-03-28T15:42:12.698Z</time></trkpt><trkpt lat="39.3018174" lon="16.9674648"><ele>475.0</ele><time>2026-03-28T15:42:13.697Z</time></trkpt><trkpt lat="39.3019423" lon="16.9674993"><ele>475.0</ele><time>2026-03-28T15:42:15.698Z</time></trkpt><trkpt lat="39.302021" lon="16.9675395"><ele>475.0</ele><time>2026-03-28T15:42:16.698Z</time></trkpt><trkpt lat="39.3021019" lon="16.9675808"><ele>475.0</ele><time>2026-03-28T15:42:17.699Z</time></trkpt><trkpt lat="39.302194" lon="16.9676033"><ele>474.25</ele><time>2026-03-28T15:42:18.702Z</time></trkpt><trkpt lat="39.3023009" lon="16.9675863"><ele>473.5</ele><time>2026-03-28T15:42:19.697Z</time></trkpt><trkpt lat="39.3024211" lon="16.9675595"><ele>472.75</ele><time>2026-03-28T15:42:20.698Z</time></trkpt><trkpt lat="39.3025383" lon="16.9674957"><ele>472.0</ele><time>2026-03-28T15:42:21.7Z</time></trkpt><trkpt lat="39.3026603" lon="16.9674311"><ele>472.0</ele><time>2026-03-28T15:42:22.709Z</time></trkpt><trkpt lat="39.3027527" lon="16.967321"><ele>472.0</ele><time>2026-03-28T15:42:23.694Z</time></trkpt><trkpt lat="39.302849" lon="16.9672178"><ele>472.0</ele><time>2026-03-28T15:42:24.693Z</time></trkpt><trkpt lat="39.3029389" lon="16.9671396"><ele>472.0</ele><time>2026-03-28T15:42:25.695Z</time></trkpt><trkpt lat="39.3030229" lon="16.9670619"><ele>470.6666666666667</ele><time>2026-03-28T15:42:26.699Z</time></trkpt><trkpt lat="39.3030943" lon="16.9669999"><ele>469.33333333333337</ele><time>2026-03-28T15:42:27.701Z</time></trkpt><trkpt lat="39.3031366" lon="16.9669162"><ele>468.0</ele><time>2026-03-28T15:42:28.705Z</time></trkpt><trkpt lat="39.3031393" lon="16.9668035"><ele>466.66666666666663</ele><time>2026-03-28T15:42:29.694Z</time></trkpt><trkpt lat="39.3031393" lon="16.9666909"><ele>465.3333333333333</ele><time>2026-03-28T15:42:30.705Z</time></trkpt><trkpt lat="39.3031397" lon="16.9665736"><ele>464.0</ele><time>2026-03-28T15:42:31.696Z</time></trkpt><trkpt lat="39.3031498" lon="16.966479"><ele>464.0</ele><time>2026-03-28T15:42:32.698Z</time></trkpt><trkpt lat="39.3032325" lon="16.9664295"><ele>464.0</ele><time>2026-03-28T15:42:34.698Z</time></trkpt><trkpt lat="39.3032637" lon="16.9665466"><ele>464.0</ele><time>2026-03-28T15:42:36.698Z</time></trkpt><trkpt lat="39.3032796" lon="16.9666526"><ele>464.0</ele><time>2026-03-28T15:42:37.703Z</time></trkpt><trkpt lat="39.3033061" lon="16.9667815"><ele>464.0</ele><time>2026-03-28T15:42:38.705Z</time></trkpt><trkpt lat="39.3033293" lon="16.966916"><ele>462.4</ele><time>2026-03-28T15:42:39.7Z</time></trkpt><trkpt lat="39.3033549" lon="16.9670623"><ele>460.79999999999995</ele><time>2026-03-28T15:42:40.701Z</time></trkpt><trkpt lat="39.3033773" lon="16.9672022"><ele>459.20000000000005</ele><time>2026-03-28T15:42:41.703Z</time></trkpt><trkpt lat="39.3034083" lon="16.967313"><ele>457.6</ele><time>2026-03-28T15:42:42.696Z</time></trkpt><trkpt lat="39.3034925" lon="16.9673595"><ele>456.0</ele><time>2026-03-28T15:42:43.702Z</time></trkpt><trkpt lat="39.3035808" lon="16.9674032"><ele>456.0</ele><time>2026-03-28T15:42:44.71Z</time></trkpt><trkpt lat="39.3036606" lon="16.9674286"><ele>456.0</ele><time>2026-03-28T15:42:45.702Z</time></trkpt><trkpt lat="39.3037239" lon="16.9675091"><ele>456.0</ele><time>2026-03-28T15:42:46.702Z</time></trkpt><trkpt lat="39.3037392" lon="16.9676488"><ele>456.0</ele><time>2026-03-28T15:42:47.694Z</time></trkpt><trkpt lat="39.3037605" lon="16.9678009"><ele>456.0</ele><time>2026-03-28T15:42:48.701Z</time></trkpt><trkpt lat="39.3038144" lon="16.9679328"><ele>458.8</ele><time>2026-03-28T15:42:49.694Z</time></trkpt><trkpt lat="39.3039156" lon="16.9680364"><ele>461.6</ele><time>2026-03-28T15:42:50.697Z</time></trkpt><trkpt lat="39.3040354" lon="16.9681154"><ele>464.4</ele><time>2026-03-28T15:42:51.715Z</time></trkpt><trkpt lat="39.3041117" lon="16.9682037"><ele>467.2</ele><time>2026-03-28T15:42:52.701Z</time></trkpt><trkpt lat="39.3041394" lon="16.9682979"><ele>470.0</ele><time>2026-03-28T15:42:53.693Z</time></trkpt><trkpt lat="39.3041179" lon="16.9684053"><ele>470.0</ele><time>2026-03-28T15:42:54.696Z</time></trkpt><trkpt lat="39.3041171" lon="16.9685318"><ele>470.0</ele><time>2026-03-28T15:42:55.699Z</time></trkpt><trkpt lat="39.3042189" lon="16.9686556"><ele>470.0</ele><time>2026-03-28T15:42:56.697Z</time></trkpt><trkpt lat="39.3043315" lon="16.968781"><ele>470.0</ele><time>2026-03-28T15:42:57.698Z</time></trkpt><trkpt lat="39.3044025" lon="16.9688903"><ele>470.0</ele><time>2026-03-28T15:42:58.698Z</time></trkpt><trkpt lat="39.3044613" lon="16.9689854"><ele>470.0</ele><time>2026-03-28T15:42:59.694Z</time></trkpt><trkpt lat="39.3043653" lon="16.9690821"><ele>470.0</ele><time>2026-03-28T15:43:01.703Z</time></trkpt><trkpt lat="39.3042892" lon="16.969151"><ele>470.0</ele><time>2026-03-28T15:43:02.701Z</time></trkpt><trkpt lat="39.3042455" lon="16.969252"><ele>470.0</ele><time>2026-03-28T15:43:03.698Z</time></trkpt><trkpt lat="39.304211" lon="16.9693627"><ele>469.8</ele><time>2026-03-28T15:43:04.707Z</time></trkpt><trkpt lat="39.3042506" lon="16.9694934"><ele>469.6</ele><time>2026-03-28T15:43:05.711Z</time></trkpt><trkpt lat="39.3043484" lon="16.969557"><ele>469.4</ele><time>2026-03-28T15:43:06.693Z</time></trkpt><trkpt lat="39.3044664" lon="16.9695605"><ele>469.2</ele><time>2026-03-28T15:43:07.698Z</time></trkpt><trkpt lat="39.3045757" lon="16.9695628"><ele>469.0</ele><time>2026-03-28T15:43:08.702Z</time></trkpt><trkpt lat="39.3046537" lon="16.9695727"><ele>469.00000000000006</ele><time>2026-03-28T15:43:09.701Z</time></trkpt><trkpt lat="39.3047136" lon="16.969647"><ele>469.0</ele><time>2026-03-28T15:43:10.698Z</time></trkpt><trkpt lat="39.3047752" lon="16.9697341"><ele>469.0</ele><time>2026-03-28T15:43:11.694Z</time></trkpt><trkpt lat="39.304851" lon="16.9698089"><ele>469.0</ele><time>2026-03-28T15:43:12.698Z</time></trkpt><trkpt lat="39.3049285" lon="16.9698249"><ele>469.00000000000006</ele><time>2026-03-28T15:43:13.697Z</time></trkpt><trkpt lat="39.305012" lon="16.9698474"><ele>469.0</ele><time>2026-03-28T15:43:14.696Z</time></trkpt><trkpt lat="39.3050731" lon="16.9698954"><ele>471.6666666666667</ele><time>2026-03-28T15:43:15.699Z</time></trkpt><trkpt lat="39.305131" lon="16.9699558"><ele>474.33333333333337</ele><time>2026-03-28T15:43:16.696Z</time></trkpt><trkpt lat="39.3052037" lon="16.9700377"><ele>477.0</ele><time>2026-03-28T15:43:18.699Z</time></trkpt><trkpt lat="39.3052512" lon="16.970158"><ele>479.66666666666663</ele><time>2026-03-28T15:44:03.704Z</time></trkpt><trkpt lat="39.3052527" lon="16.9702711"><ele>482.3333333333333</ele><time>2026-03-28T15:44:07.702Z</time></trkpt><trkpt lat="39.30522" lon="16.9703605"><ele>485.0</ele><time>2026-03-28T15:44:09.708Z</time></trkpt><trkpt lat="39.3051668" lon="16.9704716"><ele>485.16666666666663</ele><time>2026-03-28T15:44:11.697Z</time></trkpt><trkpt lat="39.3051306" lon="16.9705397"><ele>485.3333333333333</ele><time>2026-03-28T15:44:12.712Z</time></trkpt><trkpt lat="39.3050917" lon="16.9706159"><ele>485.5</ele><time>2026-03-28T15:44:13.694Z</time></trkpt><trkpt lat="39.3050575" lon="16.9707017"><ele>485.66666666666663</ele><time>2026-03-28T15:44:14.698Z</time></trkpt><trkpt lat="39.3050368" lon="16.9707976"><ele>485.8333333333333</ele><time>2026-03-28T15:44:15.696Z</time></trkpt><trkpt lat="39.3050269" lon="16.9709018"><ele>486.0</ele><time>2026-03-28T15:44:16.701Z</time></trkpt><trkpt lat="39.3050344" lon="16.971019"><ele>486.0</ele><time>2026-03-28T15:44:17.701Z</time></trkpt><trkpt lat="39.3050796" lon="16.971148"><ele>486.0</ele><time>2026-03-28T15:44:18.697Z</time></trkpt><trkpt lat="39.3051759" lon="16.9712753"><ele>486.0</ele><time>2026-03-28T15:44:19.702Z</time></trkpt><trkpt lat="39.3053025" lon="16.9713695"><ele>486.0</ele><time>2026-03-28T15:44:20.705Z</time></trkpt><trkpt lat="39.3054177" lon="16.9714395"><ele>486.0</ele><time>2026-03-28T15:44:21.717Z</time></trkpt><trkpt lat="39.3055194" lon="16.9714783"><ele>486.0</ele><time>2026-03-28T15:44:22.702Z</time></trkpt><trkpt lat="39.3056075" lon="16.9715094"><ele>486.0</ele><time>2026-03-28T15:44:23.7Z</time></trkpt><trkpt lat="39.3056913" lon="16.9715441"><ele>486.0</ele><time>2026-03-28T15:44:24.709Z</time></trkpt><trkpt lat="39.3057847" lon="16.9715836"><ele>486.0</ele><time>2026-03-28T15:44:25.702Z</time></trkpt><trkpt lat="39.3058759" lon="16.9716939"><ele>486.8</ele><time>2026-03-28T15:44:26.716Z</time></trkpt><trkpt lat="39.3059543" lon="16.9717972"><ele>487.6</ele><time>2026-03-28T15:44:27.706Z</time></trkpt><trkpt lat="39.3060238" lon="16.9718899"><ele>488.4</ele><time>2026-03-28T15:44:28.7Z</time></trkpt><trkpt lat="39.3060857" lon="16.971973"><ele>489.2</ele><time>2026-03-28T15:44:29.702Z</time></trkpt><trkpt lat="39.3061481" lon="16.972056"><ele>490.0</ele><time>2026-03-28T15:44:30.705Z</time></trkpt><trkpt lat="39.3062213" lon="16.9721424"><ele>490.0</ele><time>2026-03-28T15:44:31.701Z</time></trkpt><trkpt lat="39.3063055" lon="16.9722279"><ele>490.0</ele><time>2026-03-28T15:44:32.707Z</time></trkpt><trkpt lat="39.3063972" lon="16.972307"><ele>490.0</ele><time>2026-03-28T15:44:33.703Z</time></trkpt><trkpt lat="39.3064909" lon="16.9723763"><ele>490.0</ele><time>2026-03-28T15:44:34.702Z</time></trkpt><trkpt lat="39.3065842" lon="16.9724369"><ele>490.0</ele><time>2026-03-28T15:44:35.715Z</time></trkpt><trkpt lat="39.3066736" lon="16.9724911"><ele>488.00000000000006</ele><time>2026-03-28T15:44:36.699Z</time></trkpt><trkpt lat="39.3067663" lon="16.9725465"><ele>486.0</ele><time>2026-03-28T15:44:37.708Z</time></trkpt><trkpt lat="39.3068509" lon="16.9725974"><ele>484.0</ele><time>2026-03-28T15:44:38.705Z</time></trkpt><trkpt lat="39.3069175" lon="16.9726373"><ele>482.0</ele><time>2026-03-28T15:44:39.703Z</time></trkpt><trkpt lat="39.3069922" lon="16.9726832"><ele>480.00000000000006</ele><time>2026-03-28T15:44:40.707Z</time></trkpt><trkpt lat="39.3070508" lon="16.9727199"><ele>478.0</ele><time>2026-03-28T15:44:41.697Z</time></trkpt><trkpt lat="39.3071568" lon="16.9727798"><ele>482.59999999999997</ele><time>2026-03-28T15:44:43.697Z</time></trkpt><trkpt lat="39.3072539" lon="16.9727734"><ele>487.19999999999993</ele><time>2026-03-28T15:44:45.713Z</time></trkpt><trkpt lat="39.3073212" lon="16.9727111"><ele>491.8</ele><time>2026-03-28T15:44:47.704Z</time></trkpt><trkpt lat="39.3073861" lon="16.9726336"><ele>496.4</ele><time>2026-03-28T15:44:50.701Z</time></trkpt><trkpt lat="39.3074675" lon="16.9725595"><ele>501.0</ele><time>2026-03-28T15:44:53.708Z</time></trkpt><trkpt lat="39.3075484" lon="16.9725365"><ele>501.0</ele><time>2026-03-28T15:44:55.696Z</time></trkpt><trkpt lat="39.3076261" lon="16.9725345"><ele>501.0</ele><time>2026-03-28T15:44:57.7Z</time></trkpt><trkpt lat="39.3077063" lon="16.9725582"><ele>501.0</ele><time>2026-03-28T15:44:59.694Z</time></trkpt><trkpt lat="39.3077893" lon="16.9725933"><ele>501.0</ele><time>2026-03-28T15:45:01.697Z</time></trkpt><trkpt lat="39.3078886" lon="16.9726209"><ele>501.0</ele><time>2026-03-28T15:45:03.7Z</time></trkpt><trkpt lat="39.3079971" lon="16.9726077"><ele>501.25</ele><time>2026-03-28T15:45:05.697Z</time></trkpt><trkpt lat="39.3080943" lon="16.9725368"><ele>501.5</ele><time>2026-03-28T15:45:07.7Z</time></trkpt><trkpt lat="39.3081614" lon="16.9724206"><ele>501.75</ele><time>2026-03-28T15:45:09.698Z</time></trkpt><trkpt lat="39.3082325" lon="16.9723034"><ele>502.0</ele><time>2026-03-28T15:45:11.699Z</time></trkpt><trkpt lat="39.3083351" lon="16.972233"><ele>502.00000000000006</ele><time>2026-03-28T15:45:13.695Z</time></trkpt><trkpt lat="39.3083946" lon="16.9722055"><ele>502.0</ele><time>2026-03-28T15:45:14.703Z</time></trkpt><trkpt lat="39.308469" lon="16.9722165"><ele>502.0</ele><time>2026-03-28T15:45:15.692Z</time></trkpt><trkpt lat="39.3085419" lon="16.9722574"><ele>502.0</ele><time>2026-03-28T15:45:16.702Z</time></trkpt><trkpt lat="39.3086144" lon="16.9723129"><ele>502.00000000000006</ele><time>2026-03-28T15:45:17.7Z</time></trkpt><trkpt lat="39.3086883" lon="16.9723646"><ele>502.0</ele><time>2026-03-28T15:45:18.697Z</time></trkpt><trkpt lat="39.3087736" lon="16.9723608"><ele>502.0</ele><time>2026-03-28T15:45:19.695Z</time></trkpt><trkpt lat="39.3088657" lon="16.9723544"><ele>502.00000000000006</ele><time>2026-03-28T15:45:20.706Z</time></trkpt><trkpt lat="39.3089467" lon="16.9722711"><ele>502.00000000000006</ele><time>2026-03-28T15:45:21.696Z</time></trkpt><trkpt lat="39.3090156" lon="16.972161"><ele>502.0</ele><time>2026-03-28T15:45:22.701Z</time></trkpt><trkpt lat="39.3090857" lon="16.9720585"><ele>502.0</ele><time>2026-03-28T15:45:23.694Z</time></trkpt><trkpt lat="39.3091543" lon="16.9719855"><ele>502.40000000000003</ele><time>2026-03-28T15:45:24.697Z</time></trkpt><trkpt lat="39.3092328" lon="16.9719737"><ele>502.80000000000007</ele><time>2026-03-28T15:45:25.703Z</time></trkpt><trkpt lat="39.3093178" lon="16.9719873"><ele>503.2</ele><time>2026-03-28T15:45:26.697Z</time></trkpt><trkpt lat="39.3093979" lon="16.9720355"><ele>503.6</ele><time>2026-03-28T15:45:27.699Z</time></trkpt><trkpt lat="39.3094743" lon="16.9721085"><ele>504.0</ele><time>2026-03-28T15:45:28.7Z</time></trkpt><trkpt lat="39.3095505" lon="16.9722029"><ele>504.0</ele><time>2026-03-28T15:45:29.696Z</time></trkpt><trkpt lat="39.3096289" lon="16.9722992"><ele>504.0</ele><time>2026-03-28T15:45:30.692Z</time></trkpt><trkpt lat="39.3097136" lon="16.9723793"><ele>504.0</ele><time>2026-03-28T15:45:31.7Z</time></trkpt><trkpt lat="39.3098016" lon="16.9724409"><ele>504.0</ele><time>2026-03-28T15:45:32.697Z</time></trkpt><trkpt lat="39.3099059" lon="16.972484"><ele>504.0</ele><time>2026-03-28T15:45:33.695Z</time></trkpt><trkpt lat="39.3100152" lon="16.9725275"><ele>500.25</ele><time>2026-03-28T15:45:34.72Z</time></trkpt><trkpt lat="39.3101435" lon="16.9725397"><ele>496.5</ele><time>2026-03-28T15:45:35.702Z</time></trkpt><trkpt lat="39.310282" lon="16.9725549"><ele>492.75</ele><time>2026-03-28T15:45:36.704Z</time></trkpt><trkpt lat="39.310433" lon="16.9725657"><ele>489.0</ele><time>2026-03-28T15:45:37.701Z</time></trkpt><trkpt lat="39.3105926" lon="16.9725798"><ele>484.75</ele><time>2026-03-28T15:45:38.722Z</time></trkpt><trkpt lat="39.310739" lon="16.9725921"><ele>480.5</ele><time>2026-03-28T15:45:39.701Z</time></trkpt><trkpt lat="39.3108845" lon="16.9725999"><ele>476.25</ele><time>2026-03-28T15:45:40.717Z</time></trkpt><trkpt lat="39.3110308" lon="16.972605"><ele>472.0</ele><time>2026-03-28T15:45:41.701Z</time></trkpt><trkpt lat="39.3111648" lon="16.9726027"><ele>472.0</ele><time>2026-03-28T15:45:42.694Z</time></trkpt><trkpt lat="39.3112964" lon="16.9725968"><ele>472.0</ele><time>2026-03-28T15:45:43.706Z</time></trkpt><trkpt lat="39.3114294" lon="16.972591"><ele>472.0</ele><time>2026-03-28T15:45:44.721Z</time></trkpt><trkpt lat="39.3115549" lon="16.9725915"><ele>472.0</ele><time>2026-03-28T15:45:45.712Z</time></trkpt><trkpt lat="39.3116595" lon="16.9725939"><ele>472.20000000000005</ele><time>2026-03-28T15:45:46.701Z</time></trkpt><trkpt lat="39.311739" lon="16.972597"><ele>472.40000000000003</ele><time>2026-03-28T15:45:47.702Z</time></trkpt><trkpt lat="39.3118158" lon="16.9726115"><ele>472.59999999999997</ele><time>2026-03-28T15:45:48.703Z</time></trkpt><trkpt lat="39.3119225" lon="16.9726475"><ele>472.79999999999995</ele><time>2026-03-28T15:45:49.702Z</time></trkpt><trkpt lat="39.3120417" lon="16.972689"><ele>473.0</ele><time>2026-03-28T15:45:50.705Z</time></trkpt><trkpt lat="39.3122075" lon="16.9727882"><ele>472.3333333333333</ele><time>2026-03-28T15:45:51.698Z</time></trkpt><trkpt lat="39.3123628" lon="16.972905"><ele>471.66666666666663</ele><time>2026-03-28T15:45:52.696Z</time></trkpt><trkpt lat="39.3125202" lon="16.9730686"><ele>471.0</ele><time>2026-03-28T15:45:53.699Z</time></trkpt><trkpt lat="39.3126699" lon="16.9732801"><ele>466.0</ele><time>2026-03-28T15:45:54.698Z</time></trkpt><trkpt lat="39.3127967" lon="16.9734858"><ele>461.0</ele><time>2026-03-28T15:45:55.692Z</time></trkpt><trkpt lat="39.312899" lon="16.9736608"><ele>456.0</ele><time>2026-03-28T15:45:56.697Z</time></trkpt><trkpt lat="39.3129784" lon="16.9738121"><ele>456.0</ele><time>2026-03-28T15:45:57.701Z</time></trkpt><trkpt lat="39.3130322" lon="16.9739762"><ele>456.0</ele><time>2026-03-28T15:45:58.696Z</time></trkpt><trkpt lat="39.3130795" lon="16.9741541"><ele>456.0</ele><time>2026-03-28T15:45:59.693Z</time></trkpt><trkpt lat="39.3130623" lon="16.9743647"><ele>456.0</ele><time>2026-03-28T15:46:00.697Z</time></trkpt><trkpt lat="39.3130184" lon="16.9745831"><ele>454.0</ele><time>2026-03-28T15:46:01.696Z</time></trkpt><trkpt lat="39.3129696" lon="16.9747914"><ele>452.0</ele><time>2026-03-28T15:46:02.699Z</time></trkpt><trkpt lat="39.3129348" lon="16.9749603"><ele>450.0</ele><time>2026-03-28T15:46:03.696Z</time></trkpt><trkpt lat="39.3129283" lon="16.9751192"><ele>448.0</ele><time>2026-03-28T15:46:04.696Z</time></trkpt><trkpt lat="39.3129567" lon="16.9752742"><ele>449.0</ele><time>2026-03-28T15:46:05.698Z</time></trkpt><trkpt lat="39.3130292" lon="16.9754274"><ele>450.0</ele><time>2026-03-28T15:46:06.694Z</time></trkpt><trkpt lat="39.3131014" lon="16.9755775"><ele>451.0</ele><time>2026-03-28T15:46:07.697Z</time></trkpt><trkpt lat="39.3131438" lon="16.9757375"><ele>452.0</ele><time>2026-03-28T15:46:08.696Z</time></trkpt><trkpt lat="39.3131444" lon="16.9758905"><ele>452.0</ele><time>2026-03-28T15:46:09.694Z</time></trkpt><trkpt lat="39.3131342" lon="16.9760739"><ele>452.0</ele><time>2026-03-28T15:46:10.7Z</time></trkpt><trkpt lat="39.3131194" lon="16.9762326"><ele>452.0</ele><time>2026-03-28T15:46:11.698Z</time></trkpt><trkpt lat="39.3131346" lon="16.976363"><ele>452.0</ele><time>2026-03-28T15:46:12.707Z</time></trkpt><trkpt lat="39.3131757" lon="16.9764854"><ele>452.0</ele><time>2026-03-28T15:46:13.697Z</time></trkpt><trkpt lat="39.3132452" lon="16.9765843"><ele>452.0</ele><time>2026-03-28T15:46:14.701Z</time></trkpt><trkpt lat="39.3133385" lon="16.9766399"><ele>452.0</ele><time>2026-03-28T15:46:15.698Z</time></trkpt><trkpt lat="39.3134512" lon="16.9766466"><ele>452.0</ele><time>2026-03-28T15:46:16.697Z</time></trkpt><trkpt lat="39.3135937" lon="16.9765952"><ele>452.0</ele><time>2026-03-28T15:46:17.696Z</time></trkpt><trkpt lat="39.3137355" lon="16.976505"><ele>452.0</ele><time>2026-03-28T15:46:18.7Z</time></trkpt><trkpt lat="39.313871" lon="16.9764071"><ele>452.0</ele><time>2026-03-28T15:46:19.693Z</time></trkpt><trkpt lat="39.3139746" lon="16.9762835"><ele>451.75</ele><time>2026-03-28T15:46:20.702Z</time></trkpt><trkpt lat="39.3140523" lon="16.9761188"><ele>451.5</ele><time>2026-03-28T15:46:21.703Z</time></trkpt><trkpt lat="39.3141214" lon="16.9759397"><ele>451.25</ele><time>2026-03-28T15:46:22.702Z</time></trkpt><trkpt lat="39.3141622" lon="16.9757862"><ele>451.0</ele><time>2026-03-28T15:46:23.699Z</time></trkpt><trkpt lat="39.3141613" lon="16.9756398"><ele>451.0</ele><time>2026-03-28T15:46:24.703Z</time></trkpt><trkpt lat="39.3141396" lon="16.9754984"><ele>451.0</ele><time>2026-03-28T15:46:25.699Z</time></trkpt><trkpt lat="39.3141156" lon="16.9753635"><ele>451.0</ele><time>2026-03-28T15:46:26.703Z</time></trkpt><trkpt lat="39.314129" lon="16.9752364"><ele>451.0</ele><time>2026-03-28T15:46:27.703Z</time></trkpt><trkpt lat="39.3141725" lon="16.9751149"><ele>451.0</ele><time>2026-03-28T15:46:28.702Z</time></trkpt><trkpt lat="39.3142368" lon="16.9750098"><ele>453.20000000000005</ele><time>2026-03-28T15:46:29.701Z</time></trkpt><trkpt lat="39.3143459" lon="16.9749633"><ele>455.40000000000003</ele><time>2026-03-28T15:46:30.697Z</time></trkpt><trkpt lat="39.314443" lon="16.9749376"><ele>457.6</ele><time>2026-03-28T15:46:31.7Z</time></trkpt><trkpt lat="39.3145286" lon="16.9748718"><ele>459.8</ele><time>2026-03-28T15:46:32.693Z</time></trkpt><trkpt lat="39.3145866" lon="16.974767"><ele>462.0</ele><time>2026-03-28T15:46:33.698Z</time></trkpt><trkpt lat="39.3146099" lon="16.9746387"><ele>462.0</ele><time>2026-03-28T15:46:34.698Z</time></trkpt><trkpt lat="39.3145964" lon="16.9744981"><ele>462.00000000000006</ele><time>2026-03-28T15:46:35.698Z</time></trkpt><trkpt lat="39.3145807" lon="16.9743367"><ele>462.00000000000006</ele><time>2026-03-28T15:46:36.702Z</time></trkpt><trkpt lat="39.3145977" lon="16.9741932"><ele>462.0</ele><time>2026-03-28T15:46:37.699Z</time></trkpt><trkpt lat="39.3146388" lon="16.974075"><ele>462.0</ele><time>2026-03-28T15:46:38.695Z</time></trkpt><trkpt lat="39.314703" lon="16.9740057"><ele>459.6</ele><time>2026-03-28T15:46:39.692Z</time></trkpt><trkpt lat="39.3147788" lon="16.9739882"><ele>457.20000000000005</ele><time>2026-03-28T15:46:40.698Z</time></trkpt><trkpt lat="39.3148494" lon="16.9739871"><ele>454.8</ele><time>2026-03-28T15:46:41.696Z</time></trkpt><trkpt lat="39.3149089" lon="16.9740551"><ele>452.4</ele><time>2026-03-28T15:46:42.699Z</time></trkpt><trkpt lat="39.3149794" lon="16.9741603"><ele>450.0</ele><time>2026-03-28T15:46:43.697Z</time></trkpt><trkpt lat="39.3150534" lon="16.9742803"><ele>446.25</ele><time>2026-03-28T15:46:44.69Z</time></trkpt><trkpt lat="39.3151365" lon="16.9744037"><ele>442.5</ele><time>2026-03-28T15:46:45.694Z</time></trkpt><trkpt lat="39.315241" lon="16.9745105"><ele>438.75</ele><time>2026-03-28T15:46:46.7Z</time></trkpt><trkpt lat="39.3153592" lon="16.9745994"><ele>435.0</ele><time>2026-03-28T15:46:47.693Z</time></trkpt><trkpt lat="39.3154851" lon="16.9746868"><ele>435.25</ele><time>2026-03-28T15:46:48.694Z</time></trkpt><trkpt lat="39.315613" lon="16.9747716"><ele>435.5</ele><time>2026-03-28T15:46:49.693Z</time></trkpt><trkpt lat="39.3157364" lon="16.9748565"><ele>435.75</ele><time>2026-03-28T15:46:50.695Z</time></trkpt><trkpt lat="39.3158416" lon="16.9749803"><ele>436.0</ele><time>2026-03-28T15:46:51.693Z</time></trkpt><trkpt lat="39.3159468" lon="16.9751105"><ele>434.75</ele><time>2026-03-28T15:46:52.694Z</time></trkpt><trkpt lat="39.3160412" lon="16.9752564"><ele>433.5</ele><time>2026-03-28T15:46:53.698Z</time></trkpt><trkpt lat="39.3161307" lon="16.9754031"><ele>432.25</ele><time>2026-03-28T15:46:54.697Z</time></trkpt><trkpt lat="39.3162214" lon="16.9755411"><ele>431.0</ele><time>2026-03-28T15:46:55.697Z</time></trkpt><trkpt lat="39.3163209" lon="16.9756552"><ele>428.75</ele><time>2026-03-28T15:46:56.698Z</time></trkpt><trkpt lat="39.3164342" lon="16.9757272"><ele>426.5</ele><time>2026-03-28T15:46:57.699Z</time></trkpt><trkpt lat="39.3165527" lon="16.9757747"><ele>424.25</ele><time>2026-03-28T15:46:58.697Z</time></trkpt><trkpt lat="39.3166712" lon="16.9757834"><ele>422.0</ele><time>2026-03-28T15:46:59.701Z</time></trkpt><trkpt lat="39.3167937" lon="16.9757803"><ele>422.0</ele><time>2026-03-28T15:47:00.697Z</time></trkpt><trkpt lat="39.3169367" lon="16.9757536"><ele>422.0</ele><time>2026-03-28T15:47:01.7Z</time></trkpt><trkpt lat="39.3170861" lon="16.9757354"><ele>422.0</ele><time>2026-03-28T15:47:02.698Z</time></trkpt><trkpt lat="39.3172407" lon="16.9757437"><ele>422.0</ele><time>2026-03-28T15:47:03.696Z</time></trkpt><trkpt lat="39.317389" lon="16.9757711"><ele>417.8</ele><time>2026-03-28T15:47:04.697Z</time></trkpt><trkpt lat="39.3175261" lon="16.9758109"><ele>413.6</ele><time>2026-03-28T15:47:05.698Z</time></trkpt><trkpt lat="39.3176432" lon="16.975867"><ele>409.40000000000003</ele><time>2026-03-28T15:47:06.694Z</time></trkpt><trkpt lat="39.3177123" lon="16.9759308"><ele>405.20000000000005</ele><time>2026-03-28T15:47:07.694Z</time></trkpt><trkpt lat="39.3177505" lon="16.9760192"><ele>401.0</ele><time>2026-03-28T15:47:08.7Z</time></trkpt><trkpt lat="39.3177543" lon="16.9761291"><ele>400.75</ele><time>2026-03-28T15:47:09.701Z</time></trkpt><trkpt lat="39.3177201" lon="16.9762332"><ele>400.5</ele><time>2026-03-28T15:47:10.698Z</time></trkpt><trkpt lat="39.3176466" lon="16.9763319"><ele>400.25</ele><time>2026-03-28T15:47:11.699Z</time></trkpt><trkpt lat="39.3175422" lon="16.9764349"><ele>400.0</ele><time>2026-03-28T15:47:12.693Z</time></trkpt><trkpt lat="39.3174265" lon="16.9765884"><ele>395.6666666666667</ele><time>2026-03-28T15:47:13.699Z</time></trkpt><trkpt lat="39.317315" lon="16.9767928"><ele>391.33333333333337</ele><time>2026-03-28T15:47:14.698Z</time></trkpt><trkpt lat="39.3172059" lon="16.9770362"><ele>387.0</ele><time>2026-03-28T15:47:15.7Z</time></trkpt><trkpt lat="39.3170992" lon="16.977286"><ele>390.66666666666663</ele><time>2026-03-28T15:47:16.703Z</time></trkpt><trkpt lat="39.316995" lon="16.9775262"><ele>394.3333333333333</ele><time>2026-03-28T15:47:17.692Z</time></trkpt><trkpt lat="39.316888" lon="16.9777706"><ele>398.0</ele><time>2026-03-28T15:47:18.699Z</time></trkpt><trkpt lat="39.3167889" lon="16.9779902"><ele>398.0</ele><time>2026-03-28T15:47:19.699Z</time></trkpt><trkpt lat="39.3167134" lon="16.978157"><ele>398.0</ele><time>2026-03-28T15:47:20.697Z</time></trkpt><trkpt lat="39.3166523" lon="16.9783033"><ele>398.0</ele><time>2026-03-28T15:47:21.694Z</time></trkpt><trkpt lat="39.3165945" lon="16.9784535"><ele>398.0</ele><time>2026-03-28T15:47:22.696Z</time></trkpt><trkpt lat="39.3165398" lon="16.978612"><ele>395.79999999999995</ele><time>2026-03-28T15:47:23.699Z</time></trkpt><trkpt lat="39.3164953" lon="16.9787644"><ele>393.6</ele><time>2026-03-28T15:47:24.695Z</time></trkpt><trkpt lat="39.3164613" lon="16.9788995"><ele>391.4</ele><time>2026-03-28T15:47:25.699Z</time></trkpt><trkpt lat="39.3164403" lon="16.9789921"><ele>389.20000000000005</ele><time>2026-03-28T15:47:26.703Z</time></trkpt><trkpt lat="39.3164221" lon="16.9791283"><ele>387.0</ele><time>2026-03-28T15:47:28.702Z</time></trkpt><trkpt lat="39.3164437" lon="16.9792186"><ele>384.5</ele><time>2026-03-28T15:47:30.705Z</time></trkpt><trkpt lat="39.3164998" lon="16.9793054"><ele>382.0</ele><time>2026-03-28T15:47:33.706Z</time></trkpt><trkpt lat="39.3165502" lon="16.979379"><ele>379.5</ele><time>2026-03-28T15:47:36.702Z</time></trkpt><trkpt lat="39.316541" lon="16.9794678"><ele>377.0</ele><time>2026-03-28T15:47:41.702Z</time></trkpt><trkpt lat="39.3164982" lon="16.9795698"><ele>374.5</ele><time>2026-03-28T15:47:46.704Z</time></trkpt><trkpt lat="39.3164599" lon="16.979668"><ele>372.0</ele><time>2026-03-28T15:47:48.7Z</time></trkpt><trkpt lat="39.3164064" lon="16.9797959"><ele>371.3333333333333</ele><time>2026-03-28T15:47:50.702Z</time></trkpt><trkpt lat="39.3163559" lon="16.9799035"><ele>370.6666666666667</ele><time>2026-03-28T15:47:52.701Z</time></trkpt><trkpt lat="39.3163215" lon="16.9799873"><ele>370.0</ele><time>2026-03-28T15:47:54.698Z</time></trkpt><trkpt lat="39.3162884" lon="16.9800624"><ele>369.33333333333337</ele><time>2026-03-28T15:47:56.706Z</time></trkpt><trkpt lat="39.3162494" lon="16.9801429"><ele>368.6666666666667</ele><time>2026-03-28T15:47:58.696Z</time></trkpt><trkpt lat="39.3161836" lon="16.9802756"><ele>368.0</ele><time>2026-03-28T15:48:00.696Z</time></trkpt><trkpt lat="39.3161355" lon="16.9803642"><ele>365.0</ele><time>2026-03-28T15:48:01.696Z</time></trkpt><trkpt lat="39.3160839" lon="16.9804517"><ele>362.0</ele><time>2026-03-28T15:48:02.697Z</time></trkpt><trkpt lat="39.3160405" lon="16.9805447"><ele>359.0</ele><time>2026-03-28T15:48:03.698Z</time></trkpt><trkpt lat="39.3160036" lon="16.9806306"><ele>356.0</ele><time>2026-03-28T15:48:04.706Z</time></trkpt><trkpt lat="39.3160027" lon="16.9807655"><ele>353.0</ele><time>2026-03-28T15:48:05.708Z</time></trkpt><trkpt lat="39.3160216" lon="16.9809081"><ele>351.25</ele><time>2026-03-28T15:48:06.703Z</time></trkpt><trkpt lat="39.3160379" lon="16.98107"><ele>349.5</ele><time>2026-03-28T15:48:07.702Z</time></trkpt><trkpt lat="39.3160342" lon="16.9812391"><ele>347.75</ele><time>2026-03-28T15:48:08.705Z</time></trkpt><trkpt lat="39.3160267" lon="16.9814035"><ele>346.0</ele><time>2026-03-28T15:48:09.706Z</time></trkpt><trkpt lat="39.3160258" lon="16.9815703"><ele>344.25</ele><time>2026-03-28T15:48:10.706Z</time></trkpt><trkpt lat="39.316028" lon="16.981739"><ele>342.5</ele><time>2026-03-28T15:48:11.707Z</time></trkpt><trkpt lat="39.3160367" lon="16.9819069"><ele>340.75</ele><time>2026-03-28T15:48:12.703Z</time></trkpt><trkpt lat="39.3160565" lon="16.9820666"><ele>339.0</ele><time>2026-03-28T15:48:13.709Z</time></trkpt><trkpt lat="39.3161007" lon="16.9822154"><ele>339.0</ele><time>2026-03-28T15:48:14.703Z</time></trkpt><trkpt lat="39.3161616" lon="16.9823648"><ele>339.0</ele><time>2026-03-28T15:48:15.704Z</time></trkpt><trkpt lat="39.3162328" lon="16.9825122"><ele>339.0</ele><time>2026-03-28T15:48:16.697Z</time></trkpt><trkpt lat="39.3163166" lon="16.9826694"><ele>339.0</ele><time>2026-03-28T15:48:17.705Z</time></trkpt><trkpt lat="39.3164179" lon="16.9828341"><ele>339.5</ele><time>2026-03-28T15:48:18.709Z</time></trkpt><trkpt lat="39.3165062" lon="16.9829985"><ele>340.0</ele><time>2026-03-28T15:48:19.707Z</time></trkpt><trkpt lat="39.3165849" lon="16.9831434"><ele>340.5</ele><time>2026-03-28T15:48:20.697Z</time></trkpt><trkpt lat="39.3166604" lon="16.9833155"><ele>341.0</ele><time>2026-03-28T15:48:21.696Z</time></trkpt><trkpt lat="39.3167247" lon="16.9835054"><ele>338.0</ele><time>2026-03-28T15:48:22.707Z</time></trkpt><trkpt lat="39.3167789" lon="16.9837268"><ele>335.0</ele><time>2026-03-28T15:48:23.702Z</time></trkpt><trkpt lat="39.3168255" lon="16.9839519"><ele>332.0</ele><time>2026-03-28T15:48:24.696Z</time></trkpt><trkpt lat="39.3169042" lon="16.9841601"><ele>328.6666666666667</ele><time>2026-03-28T15:48:25.701Z</time></trkpt><trkpt lat="39.3169785" lon="16.984385"><ele>325.3333333333333</ele><time>2026-03-28T15:48:26.704Z</time></trkpt><trkpt lat="39.3170387" lon="16.9845918"><ele>322.0</ele><time>2026-03-28T15:48:27.702Z</time></trkpt><trkpt lat="39.3170881" lon="16.9847561"><ele>322.0</ele><time>2026-03-28T15:48:28.697Z</time></trkpt><trkpt lat="39.3171476" lon="16.9848879"><ele>322.0</ele><time>2026-03-28T15:48:29.7Z</time></trkpt><trkpt lat="39.3172308" lon="16.984976"><ele>322.0</ele><time>2026-03-28T15:48:30.701Z</time></trkpt><trkpt lat="39.3173313" lon="16.985028"><ele>322.0</ele><time>2026-03-28T15:48:31.701Z</time></trkpt><trkpt lat="39.3174382" lon="16.9850586"><ele>322.0</ele><time>2026-03-28T15:48:32.704Z</time></trkpt><trkpt lat="39.317549" lon="16.9850681"><ele>322.5</ele><time>2026-03-28T15:48:33.704Z</time></trkpt><trkpt lat="39.3176548" lon="16.9850901"><ele>323.0</ele><time>2026-03-28T15:48:34.701Z</time></trkpt><trkpt lat="39.3177567" lon="16.985121"><ele>323.5</ele><time>2026-03-28T15:48:35.703Z</time></trkpt><trkpt lat="39.3178626" lon="16.9851887"><ele>324.0</ele><time>2026-03-28T15:48:36.699Z</time></trkpt><trkpt lat="39.3179955" lon="16.9852597"><ele>324.5</ele><time>2026-03-28T15:48:37.707Z</time></trkpt><trkpt lat="39.318131" lon="16.9853236"><ele>325.0</ele><time>2026-03-28T15:48:38.702Z</time></trkpt><trkpt lat="39.3182527" lon="16.9853753"><ele>325.5</ele><time>2026-03-28T15:48:39.701Z</time></trkpt><trkpt lat="39.3183669" lon="16.9854277"><ele>326.0</ele><time>2026-03-28T15:48:40.706Z</time></trkpt><trkpt lat="39.3184714" lon="16.9854758"><ele>326.0</ele><time>2026-03-28T15:48:41.705Z</time></trkpt><trkpt lat="39.3185672" lon="16.9855261"><ele>326.0</ele><time>2026-03-28T15:48:42.713Z</time></trkpt><trkpt lat="39.3186567" lon="16.9855889"><ele>326.0</ele><time>2026-03-28T15:48:43.702Z</time></trkpt><trkpt lat="39.3187395" lon="16.9856649"><ele>326.0</ele><time>2026-03-28T15:48:44.698Z</time></trkpt><trkpt lat="39.318803" lon="16.9857536"><ele>326.0</ele><time>2026-03-28T15:48:45.698Z</time></trkpt><trkpt lat="39.3188559" lon="16.9858596"><ele>323.2</ele><time>2026-03-28T15:48:46.705Z</time></trkpt><trkpt lat="39.3188994" lon="16.9859786"><ele>320.40000000000003</ele><time>2026-03-28T15:48:47.702Z</time></trkpt><trkpt lat="39.3189301" lon="16.9860861"><ele>317.6</ele><time>2026-03-28T15:48:48.7Z</time></trkpt><trkpt lat="39.3189978" lon="16.9862174"><ele>314.8</ele><time>2026-03-28T15:48:49.707Z</time></trkpt><trkpt lat="39.3190752" lon="16.9863431"><ele>312.0</ele><time>2026-03-28T15:48:50.708Z</time></trkpt><trkpt lat="39.319157" lon="16.9864825"><ele>312.0</ele><time>2026-03-28T15:48:51.705Z</time></trkpt><trkpt lat="39.3192457" lon="16.9866414"><ele>312.0</ele><time>2026-03-28T15:48:52.701Z</time></trkpt><trkpt lat="39.3193373" lon="16.9867987"><ele>312.0</ele><time>2026-03-28T15:48:53.702Z</time></trkpt><trkpt lat="39.3194146" lon="16.9869492"><ele>312.0</ele><time>2026-03-28T15:48:54.709Z</time></trkpt><trkpt lat="39.319482" lon="16.9871021"><ele>309.5</ele><time>2026-03-28T15:48:55.703Z</time></trkpt><trkpt lat="39.3195392" lon="16.9872532"><ele>307.0</ele><time>2026-03-28T15:48:56.7Z</time></trkpt><trkpt lat="39.319587" lon="16.9873998"><ele>304.5</ele><time>2026-03-28T15:48:57.706Z</time></trkpt><trkpt lat="39.3196306" lon="16.9875548"><ele>302.0</ele><time>2026-03-28T15:48:58.707Z</time></trkpt><trkpt lat="39.3196734" lon="16.9877231"><ele>300.25</ele><time>2026-03-28T15:48:59.704Z</time></trkpt><trkpt lat="39.3197148" lon="16.9878863"><ele>298.5</ele><time>2026-03-28T15:49:00.706Z</time></trkpt><trkpt lat="39.3197633" lon="16.9880424"><ele>296.75</ele><time>2026-03-28T15:49:01.698Z</time></trkpt><trkpt lat="39.3198232" lon="16.9881888"><ele>295.0</ele><time>2026-03-28T15:49:02.695Z</time></trkpt><trkpt lat="39.3198928" lon="16.9883278"><ele>292.0</ele><time>2026-03-28T15:49:03.697Z</time></trkpt><trkpt lat="39.3199634" lon="16.9884702"><ele>289.0</ele><time>2026-03-28T15:49:04.698Z</time></trkpt><trkpt lat="39.3200289" lon="16.9886144"><ele>286.0</ele><time>2026-03-28T15:49:05.705Z</time></trkpt><trkpt lat="39.3200924" lon="16.9887574"><ele>283.0</ele><time>2026-03-28T15:49:06.695Z</time></trkpt><trkpt lat="39.3201522" lon="16.9888989"><ele>283.0</ele><time>2026-03-28T15:49:07.701Z</time></trkpt><trkpt lat="39.3202098" lon="16.9890374"><ele>283.0</ele><time>2026-03-28T15:49:08.705Z</time></trkpt><trkpt lat="39.3202623" lon="16.9891778"><ele>283.0</ele><time>2026-03-28T15:49:09.702Z</time></trkpt><trkpt lat="39.3203088" lon="16.9893172"><ele>283.0</ele><time>2026-03-28T15:49:10.699Z</time></trkpt><trkpt lat="39.3203505" lon="16.9894584"><ele>280.6</ele><time>2026-03-28T15:49:11.699Z</time></trkpt><trkpt lat="39.3203803" lon="16.9896045"><ele>278.20000000000005</ele><time>2026-03-28T15:49:12.709Z</time></trkpt><trkpt lat="39.3203863" lon="16.9897536"><ele>275.8</ele><time>2026-03-28T15:49:13.7Z</time></trkpt><trkpt lat="39.3203823" lon="16.9898863"><ele>273.40000000000003</ele><time>2026-03-28T15:49:14.702Z</time></trkpt><trkpt lat="39.3203855" lon="16.9899804"><ele>271.0</ele><time>2026-03-28T15:49:15.698Z</time></trkpt><trkpt lat="39.3204022" lon="16.9900596"><ele>269.8</ele><time>2026-03-28T15:49:16.701Z</time></trkpt><trkpt lat="39.3204403" lon="16.9901366"><ele>268.6</ele><time>2026-03-28T15:49:17.704Z</time></trkpt><trkpt lat="39.3204983" lon="16.9902209"><ele>267.4</ele><time>2026-03-28T15:49:18.706Z</time></trkpt><trkpt lat="39.320575" lon="16.990315"><ele>266.2</ele><time>2026-03-28T15:49:19.698Z</time></trkpt><trkpt lat="39.3206543" lon="16.9904085"><ele>265.0</ele><time>2026-03-28T15:49:20.704Z</time></trkpt><trkpt lat="39.3207308" lon="16.9905"><ele>265.0</ele><time>2026-03-28T15:49:21.71Z</time></trkpt><trkpt lat="39.3208009" lon="16.9905909"><ele>265.0</ele><time>2026-03-28T15:49:22.705Z</time></trkpt><trkpt lat="39.3208567" lon="16.9906863"><ele>265.0</ele><time>2026-03-28T15:49:23.704Z</time></trkpt><trkpt lat="39.3208961" lon="16.9907902"><ele>265.0</ele><time>2026-03-28T15:49:24.709Z</time></trkpt><trkpt lat="39.3209189" lon="16.9909049"><ele>265.0</ele><time>2026-03-28T15:49:25.71Z</time></trkpt><trkpt lat="39.3209397" lon="16.9910104"><ele>262.3333333333333</ele><time>2026-03-28T15:49:26.704Z</time></trkpt><trkpt lat="39.3209542" lon="16.9911161"><ele>259.66666666666663</ele><time>2026-03-28T15:49:27.702Z</time></trkpt><trkpt lat="39.3210026" lon="16.9912199"><ele>257.0</ele><time>2026-03-28T15:49:28.704Z</time></trkpt><trkpt lat="39.3210574" lon="16.9912969"><ele>254.33333333333331</ele><time>2026-03-28T15:49:29.701Z</time></trkpt><trkpt lat="39.3211162" lon="16.9913692"><ele>251.66666666666666</ele><time>2026-03-28T15:49:30.704Z</time></trkpt><trkpt lat="39.3211848" lon="16.9914233"><ele>249.0</ele><time>2026-03-28T15:49:31.694Z</time></trkpt><trkpt lat="39.3212568" lon="16.9914793"><ele>249.0</ele><time>2026-03-28T15:49:32.698Z</time></trkpt><trkpt lat="39.321308" lon="16.9915632"><ele>248.99999999999997</ele><time>2026-03-28T15:49:33.703Z</time></trkpt><trkpt lat="39.3213468" lon="16.9916663"><ele>248.99999999999997</ele><time>2026-03-28T15:49:34.699Z</time></trkpt><trkpt lat="39.3213763" lon="16.991784"><ele>249.0</ele><time>2026-03-28T15:49:35.7Z</time></trkpt><trkpt lat="39.321394" lon="16.9919053"><ele>249.0</ele><time>2026-03-28T15:49:36.694Z</time></trkpt><trkpt lat="39.3213955" lon="16.9920232"><ele>249.33333333333334</ele><time>2026-03-28T15:49:37.703Z</time></trkpt><trkpt lat="39.3213906" lon="16.9921361"><ele>249.66666666666669</ele><time>2026-03-28T15:49:38.699Z</time></trkpt><trkpt lat="39.3213931" lon="16.9922365"><ele>250.0</ele><time>2026-03-28T15:49:39.696Z</time></trkpt><trkpt lat="39.321452" lon="16.9923272"><ele>250.33333333333334</ele><time>2026-03-28T15:49:40.7Z</time></trkpt><trkpt lat="39.3215183" lon="16.9924154"><ele>250.66666666666669</ele><time>2026-03-28T15:49:41.699Z</time></trkpt><trkpt lat="39.3215784" lon="16.992501"><ele>251.0</ele><time>2026-03-28T15:49:42.696Z</time></trkpt><trkpt lat="39.321625" lon="16.9925878"><ele>249.33333333333334</ele><time>2026-03-28T15:49:43.696Z</time></trkpt><trkpt lat="39.3216573" lon="16.9926712"><ele>247.66666666666669</ele><time>2026-03-28T15:49:44.699Z</time></trkpt><trkpt lat="39.3216827" lon="16.9927567"><ele>246.0</ele><time>2026-03-28T15:49:45.702Z</time></trkpt><trkpt lat="39.3217102" lon="16.9928372"><ele>244.33333333333331</ele><time>2026-03-28T15:49:46.702Z</time></trkpt><trkpt lat="39.3217458" lon="16.9929118"><ele>242.66666666666666</ele><time>2026-03-28T15:49:47.705Z</time></trkpt><trkpt lat="39.321825" lon="16.9930262"><ele>241.0</ele><time>2026-03-28T15:49:49.704Z</time></trkpt><trkpt lat="39.3218959" lon="16.9931373"><ele>241.0</ele><time>2026-03-28T15:49:51.703Z</time></trkpt><trkpt lat="39.3219701" lon="16.9932804"><ele>241.00000000000003</ele><time>2026-03-28T15:49:53.703Z</time></trkpt><trkpt lat="39.3220041" lon="16.993358"><ele>241.00000000000003</ele><time>2026-03-28T15:49:54.708Z</time></trkpt><trkpt lat="39.3220551" lon="16.993496"><ele>241.0</ele><time>2026-03-28T15:49:56.704Z</time></trkpt><trkpt lat="39.3220979" lon="16.993563"><ele>241.0</ele><time>2026-03-28T15:49:57.694Z</time></trkpt><trkpt lat="39.3221573" lon="16.9936181"><ele>237.66666666666666</ele><time>2026-03-28T15:49:58.698Z</time></trkpt><trkpt lat="39.322231" lon="16.9936473"><ele>234.33333333333331</ele><time>2026-03-28T15:49:59.699Z</time></trkpt><trkpt lat="39.3223073" lon="16.99366"><ele>231.0</ele><time>2026-03-28T15:50:00.697Z</time></trkpt><trkpt lat="39.322386" lon="16.9936425"><ele>227.66666666666669</ele><time>2026-03-28T15:50:01.692Z</time></trkpt><trkpt lat="39.3224636" lon="16.9936"><ele>224.33333333333334</ele><time>2026-03-28T15:50:02.703Z</time></trkpt><trkpt lat="39.322544" lon="16.9935536"><ele>221.0</ele><time>2026-03-28T15:50:03.696Z</time></trkpt><trkpt lat="39.3226185" lon="16.9935023"><ele>221.00000000000003</ele><time>2026-03-28T15:50:04.703Z</time></trkpt><trkpt lat="39.3227021" lon="16.9934409"><ele>221.0</ele><time>2026-03-28T15:50:05.706Z</time></trkpt><trkpt lat="39.3227821" lon="16.9933968"><ele>221.0</ele><time>2026-03-28T15:50:06.703Z</time></trkpt><trkpt lat="39.3228576" lon="16.9933577"><ele>221.0</ele><time>2026-03-28T15:50:07.696Z</time></trkpt><trkpt lat="39.3229386" lon="16.9933348"><ele>221.00000000000003</ele><time>2026-03-28T15:50:08.699Z</time></trkpt><trkpt lat="39.3230043" lon="16.993329"><ele>221.0</ele><time>2026-03-28T15:50:09.7Z</time></trkpt><trkpt lat="39.323065" lon="16.9933642"><ele>218.0</ele><time>2026-03-28T15:50:10.707Z</time></trkpt><trkpt lat="39.3231039" lon="16.9934642"><ele>215.00000000000003</ele><time>2026-03-28T15:50:11.698Z</time></trkpt><trkpt lat="39.3231287" lon="16.9935824"><ele>212.0</ele><time>2026-03-28T15:50:12.705Z</time></trkpt><trkpt lat="39.3231557" lon="16.9937245"><ele>209.0</ele><time>2026-03-28T15:50:13.702Z</time></trkpt><trkpt lat="39.3231756" lon="16.993878"><ele>206.0</ele><time>2026-03-28T15:50:14.704Z</time></trkpt><trkpt lat="39.3231928" lon="16.9940296"><ele>204.0</ele><time>2026-03-28T15:50:15.7Z</time></trkpt><trkpt lat="39.3232074" lon="16.9941848"><ele>202.0</ele><time>2026-03-28T15:50:16.701Z</time></trkpt><trkpt lat="39.3232198" lon="16.9943363"><ele>200.0</ele><time>2026-03-28T15:50:17.705Z</time></trkpt><trkpt lat="39.3232305" lon="16.9944803"><ele>198.0</ele><time>2026-03-28T15:50:18.701Z</time></trkpt><trkpt lat="39.3232406" lon="16.9946191"><ele>198.0</ele><time>2026-03-28T15:50:19.706Z</time></trkpt><trkpt lat="39.3232499" lon="16.9947362"><ele>198.0</ele><time>2026-03-28T15:50:20.698Z</time></trkpt><trkpt lat="39.3232612" lon="16.9948273"><ele>198.0</ele><time>2026-03-28T15:50:21.702Z</time></trkpt><trkpt lat="39.323289" lon="16.9949198"><ele>198.0</ele><time>2026-03-28T15:50:22.704Z</time></trkpt><trkpt lat="39.3233435" lon="16.995012"><ele>198.0</ele><time>2026-03-28T15:50:23.705Z</time></trkpt><trkpt lat="39.3234145" lon="16.9950801"><ele>198.0</ele><time>2026-03-28T15:50:24.706Z</time></trkpt><trkpt lat="39.3234959" lon="16.9951136"><ele>195.0</ele><time>2026-03-28T15:50:25.699Z</time></trkpt><trkpt lat="39.3235923" lon="16.9951214"><ele>192.0</ele><time>2026-03-28T15:50:26.705Z</time></trkpt><trkpt lat="39.3237005" lon="16.9951192"><ele>189.0</ele><time>2026-03-28T15:50:27.706Z</time></trkpt><trkpt lat="39.3238077" lon="16.995117"><ele>186.0</ele><time>2026-03-28T15:50:28.701Z</time></trkpt><trkpt lat="39.3239119" lon="16.995112"><ele>183.0</ele><time>2026-03-28T15:50:29.705Z</time></trkpt><trkpt lat="39.3240142" lon="16.9951074"><ele>183.0</ele><time>2026-03-28T15:50:30.708Z</time></trkpt><trkpt lat="39.3241153" lon="16.9950977"><ele>183.0</ele><time>2026-03-28T15:50:31.713Z</time></trkpt><trkpt lat="39.3242167" lon="16.9950732"><ele>183.0</ele><time>2026-03-28T15:50:32.706Z</time></trkpt><trkpt lat="39.3243087" lon="16.9950262"><ele>183.0</ele><time>2026-03-28T15:50:33.699Z</time></trkpt><trkpt lat="39.3243884" lon="16.9949631"><ele>183.0</ele><time>2026-03-28T15:50:34.707Z</time></trkpt><trkpt lat="39.3244493" lon="16.9948816"><ele>183.60000000000002</ele><time>2026-03-28T15:50:35.713Z</time></trkpt><trkpt lat="39.3245106" lon="16.9948015"><ele>184.20000000000002</ele><time>2026-03-28T15:50:36.705Z</time></trkpt><trkpt lat="39.324569" lon="16.9947213"><ele>184.8</ele><time>2026-03-28T15:50:37.707Z</time></trkpt><trkpt lat="39.3246187" lon="16.9946549"><ele>185.4</ele><time>2026-03-28T15:50:38.701Z</time></trkpt><trkpt lat="39.3246407" lon="16.994496"><ele>186.0</ele><time>2026-03-28T15:50:40.705Z</time></trkpt><trkpt lat="39.3246213" lon="16.9943846"><ele>186.0</ele><time>2026-03-28T15:50:41.693Z</time></trkpt><trkpt lat="39.3245965" lon="16.9942494"><ele>186.0</ele><time>2026-03-28T15:50:42.706Z</time></trkpt><trkpt lat="39.3245719" lon="16.9941247"><ele>186.0</ele><time>2026-03-28T15:50:43.698Z</time></trkpt><trkpt lat="39.3245464" lon="16.9940143"><ele>186.0</ele><time>2026-03-28T15:50:44.697Z</time></trkpt><trkpt lat="39.3245175" lon="16.9938997"><ele>186.0</ele><time>2026-03-28T15:50:45.694Z</time></trkpt><trkpt lat="39.3245278" lon="16.9937789"><ele>186.16666666666666</ele><time>2026-03-28T15:50:47.694Z</time></trkpt><trkpt lat="39.3245941" lon="16.9938079"><ele>186.33333333333334</ele><time>2026-03-28T15:50:49.697Z</time></trkpt><trkpt lat="39.3246418" lon="16.9938669"><ele>186.5</ele><time>2026-03-28T15:50:50.701Z</time></trkpt><trkpt lat="39.324735" lon="16.9939897"><ele>186.66666666666669</ele><time>2026-03-28T15:50:52.699Z</time></trkpt><trkpt lat="39.3248048" lon="16.9940461"><ele>186.83333333333334</ele><time>2026-03-28T15:50:53.696Z</time></trkpt><trkpt lat="39.3248783" lon="16.9940973"><ele>187.0</ele><time>2026-03-28T15:50:54.698Z</time></trkpt><trkpt lat="39.3249545" lon="16.9941523"><ele>183.39999999999998</ele><time>2026-03-28T15:50:55.698Z</time></trkpt><trkpt lat="39.3250318" lon="16.9942102"><ele>179.79999999999998</ele><time>2026-03-28T15:50:56.699Z</time></trkpt><trkpt lat="39.3251063" lon="16.9942705"><ele>176.2</ele><time>2026-03-28T15:50:57.7Z</time></trkpt><trkpt lat="39.32518" lon="16.9943124"><ele>172.6</ele><time>2026-03-28T15:50:58.705Z</time></trkpt><trkpt lat="39.3252711" lon="16.9943375"><ele>169.0</ele><time>2026-03-28T15:50:59.698Z</time></trkpt><trkpt lat="39.3253719" lon="16.9943553"><ele>169.0</ele><time>2026-03-28T15:51:00.698Z</time></trkpt><trkpt lat="39.3254767" lon="16.9943681"><ele>169.0</ele><time>2026-03-28T15:51:01.704Z</time></trkpt><trkpt lat="39.325579" lon="16.994382"><ele>169.0</ele><time>2026-03-28T15:51:02.707Z</time></trkpt><trkpt lat="39.3256893" lon="16.9943761"><ele>169.0</ele><time>2026-03-28T15:51:03.704Z</time></trkpt><trkpt lat="39.3258062" lon="16.9943625"><ele>169.0</ele><time>2026-03-28T15:51:04.699Z</time></trkpt><trkpt lat="39.3259162" lon="16.9943226"><ele>170.0</ele><time>2026-03-28T15:51:05.704Z</time></trkpt><trkpt lat="39.3260208" lon="16.994264"><ele>171.0</ele><time>2026-03-28T15:51:06.704Z</time></trkpt><trkpt lat="39.3261183" lon="16.9941913"><ele>172.0</ele><time>2026-03-28T15:51:07.697Z</time></trkpt><trkpt lat="39.3262103" lon="16.9941275"><ele>173.0</ele><time>2026-03-28T15:51:08.703Z</time></trkpt><trkpt lat="39.3262885" lon="16.9940604"><ele>174.0</ele><time>2026-03-28T15:51:09.702Z</time></trkpt><trkpt lat="39.3263542" lon="16.9939728"><ele>176.2</ele><time>2026-03-28T15:51:10.706Z</time></trkpt><trkpt lat="39.3264045" lon="16.9938628"><ele>178.39999999999998</ele><time>2026-03-28T15:51:11.698Z</time></trkpt><trkpt lat="39.3264675" lon="16.9937648"><ele>180.6</ele><time>2026-03-28T15:51:12.703Z</time></trkpt><trkpt lat="39.3265515" lon="16.9936909"><ele>182.8</ele><time>2026-03-28T15:51:13.703Z</time></trkpt><trkpt lat="39.3266411" lon="16.99362"><ele>185.0</ele><time>2026-03-28T15:51:14.701Z</time></trkpt><trkpt lat="39.3267351" lon="16.9935588"><ele>185.0</ele><time>2026-03-28T15:51:15.706Z</time></trkpt><trkpt lat="39.3268262" lon="16.9934868"><ele>185.0</ele><time>2026-03-28T15:51:16.707Z</time></trkpt><trkpt lat="39.3268987" lon="16.9934001"><ele>185.0</ele><time>2026-03-28T15:51:17.707Z</time></trkpt><trkpt lat="39.3269462" lon="16.9933193"><ele>185.0</ele><time>2026-03-28T15:51:18.707Z</time></trkpt><trkpt lat="39.3269727" lon="16.9932436"><ele>185.0</ele><time>2026-03-28T15:51:19.704Z</time></trkpt><trkpt lat="39.3270464" lon="16.9932075"><ele>185.0</ele><time>2026-03-28T15:51:22.708Z</time></trkpt><trkpt lat="39.3270941" lon="16.9932882"><ele>185.0</ele><time>2026-03-28T15:51:25.714Z</time></trkpt><trkpt lat="39.3271499" lon="16.993345"><ele>185.0</ele><time>2026-03-28T15:51:32.698Z</time></trkpt><trkpt lat="39.3272126" lon="16.9933841"><ele>185.0</ele><time>2026-03-28T15:51:36.702Z</time></trkpt><trkpt lat="39.3272979" lon="16.9934123"><ele>185.0</ele><time>2026-03-28T15:52:02.704Z</time></trkpt><trkpt lat="39.32737" lon="16.9934004"><ele>185.0</ele><time>2026-03-28T15:52:07.707Z</time></trkpt><trkpt lat="39.3274456" lon="16.993434"><ele>185.0</ele><time>2026-03-28T15:52:11.702Z</time></trkpt><trkpt lat="39.3274647" lon="16.9935232"><ele>186.2</ele><time>2026-03-28T15:52:13.702Z</time></trkpt><trkpt lat="39.3274871" lon="16.9936739"><ele>187.4</ele><time>2026-03-28T15:52:15.7Z</time></trkpt><trkpt lat="39.3275032" lon="16.9937847"><ele>188.60000000000002</ele><time>2026-03-28T15:52:16.716Z</time></trkpt><trkpt lat="39.3275193" lon="16.9938966"><ele>189.8</ele><time>2026-03-28T15:52:17.698Z</time></trkpt><trkpt lat="39.3275354" lon="16.9940032"><ele>191.0</ele><time>2026-03-28T15:52:18.701Z</time></trkpt><trkpt lat="39.3275586" lon="16.9941037"><ele>191.0</ele><time>2026-03-28T15:52:19.701Z</time></trkpt><trkpt lat="39.327592" lon="16.9942032"><ele>191.0</ele><time>2026-03-28T15:52:20.708Z</time></trkpt><trkpt lat="39.3276318" lon="16.9943065"><ele>191.0</ele><time>2026-03-28T15:52:21.709Z</time></trkpt><trkpt lat="39.3276729" lon="16.9944151"><ele>191.0</ele><time>2026-03-28T15:52:22.7Z</time></trkpt><trkpt lat="39.3277159" lon="16.9945308"><ele>191.0</ele><time>2026-03-28T15:52:23.701Z</time></trkpt><trkpt lat="39.3277591" lon="16.9946562"><ele>191.0</ele><time>2026-03-28T15:52:24.707Z</time></trkpt><trkpt lat="39.3277931" lon="16.9947898"><ele>191.0</ele><time>2026-03-28T15:52:25.71Z</time></trkpt><trkpt lat="39.3278171" lon="16.9949296"><ele>191.0</ele><time>2026-03-28T15:52:26.709Z</time></trkpt><trkpt lat="39.3278233" lon="16.9950735"><ele>191.0</ele><time>2026-03-28T15:52:27.695Z</time></trkpt><trkpt lat="39.327827" lon="16.9952226"><ele>191.0</ele><time>2026-03-28T15:52:28.703Z</time></trkpt><trkpt lat="39.3278047" lon="16.9953855"><ele>190.0</ele><time>2026-03-28T15:52:29.703Z</time></trkpt><trkpt lat="39.3277841" lon="16.9955467"><ele>189.0</ele><time>2026-03-28T15:52:30.701Z</time></trkpt><trkpt lat="39.3277647" lon="16.9956922"><ele>188.0</ele><time>2026-03-28T15:52:31.698Z</time></trkpt><trkpt lat="39.3277466" lon="16.9958188"><ele>187.0</ele><time>2026-03-28T15:52:32.704Z</time></trkpt><trkpt lat="39.3277231" lon="16.9959354"><ele>186.0</ele><time>2026-03-28T15:52:33.702Z</time></trkpt><trkpt lat="39.3276943" lon="16.9960397"><ele>184.4</ele><time>2026-03-28T15:52:34.706Z</time></trkpt><trkpt lat="39.327655" lon="16.9961369"><ele>182.8</ele><time>2026-03-28T15:52:35.702Z</time></trkpt><trkpt lat="39.3275996" lon="16.9962141"><ele>181.20000000000002</ele><time>2026-03-28T15:52:36.708Z</time></trkpt><trkpt lat="39.3275188" lon="16.9962631"><ele>179.60000000000002</ele><time>2026-03-28T15:52:37.708Z</time></trkpt><trkpt lat="39.3274218" lon="16.9963024"><ele>178.0</ele><time>2026-03-28T15:52:38.702Z</time></trkpt><trkpt lat="39.3273141" lon="16.9963372"><ele>176.5</ele><time>2026-03-28T15:52:39.704Z</time></trkpt><trkpt lat="39.3272013" lon="16.9963736"><ele>175.0</ele><time>2026-03-28T15:52:40.704Z</time></trkpt><trkpt lat="39.3270886" lon="16.9964081"><ele>173.5</ele><time>2026-03-28T15:52:41.703Z</time></trkpt><trkpt lat="39.3269708" lon="16.9964444"><ele>172.0</ele><time>2026-03-28T15:52:42.703Z</time></trkpt><trkpt lat="39.3268477" lon="16.9964867"><ele>172.0</ele><time>2026-03-28T15:52:43.701Z</time></trkpt><trkpt lat="39.3267253" lon="16.9965329"><ele>172.0</ele><time>2026-03-28T15:52:44.705Z</time></trkpt><trkpt lat="39.3266065" lon="16.9965793"><ele>172.0</ele><time>2026-03-28T15:52:45.708Z</time></trkpt><trkpt lat="39.3265066" lon="16.9966396"><ele>172.0</ele><time>2026-03-28T15:52:46.701Z</time></trkpt><trkpt lat="39.3264244" lon="16.9966859"><ele>169.2</ele><time>2026-03-28T15:52:47.7Z</time></trkpt><trkpt lat="39.3263519" lon="16.9967403"><ele>166.39999999999998</ele><time>2026-03-28T15:52:48.698Z</time></trkpt><trkpt lat="39.326292" lon="16.9968295"><ele>163.60000000000002</ele><time>2026-03-28T15:52:49.697Z</time></trkpt><trkpt lat="39.3262455" lon="16.9969484"><ele>160.8</ele><time>2026-03-28T15:52:50.7Z</time></trkpt><trkpt lat="39.3261972" lon="16.9970747"><ele>158.0</ele><time>2026-03-28T15:52:51.7Z</time></trkpt><trkpt lat="39.3261474" lon="16.9972067"><ele>158.0</ele><time>2026-03-28T15:52:52.7Z</time></trkpt><trkpt lat="39.3260943" lon="16.9973397"><ele>158.0</ele><time>2026-03-28T15:52:53.701Z</time></trkpt><trkpt lat="39.3260394" lon="16.997468"><ele>158.0</ele><time>2026-03-28T15:52:54.699Z</time></trkpt><trkpt lat="39.3259928" lon="16.9975789"><ele>158.0</ele><time>2026-03-28T15:52:55.698Z</time></trkpt><trkpt lat="39.3259504" lon="16.9976765"><ele>158.0</ele><time>2026-03-28T15:52:56.701Z</time></trkpt><trkpt lat="39.3259124" lon="16.9977455"><ele>156.8</ele><time>2026-03-28T15:52:57.699Z</time></trkpt><trkpt lat="39.325864" lon="16.99785"><ele>155.60000000000002</ele><time>2026-03-28T15:52:59.701Z</time></trkpt><trkpt lat="39.3258364" lon="16.9979268"><ele>154.39999999999998</ele><time>2026-03-28T15:53:01.699Z</time></trkpt><trkpt lat="39.3258158" lon="16.9980163"><ele>153.2</ele><time>2026-03-28T15:58:10.676Z</time></trkpt><trkpt lat="39.3257497" lon="16.9982103"><ele>152.0</ele><time>2026-03-28T15:58:12.698Z</time></trkpt><trkpt lat="39.3257125" lon="16.9983439"><ele>148.83333333333331</ele><time>2026-03-28T15:58:13.692Z</time></trkpt><trkpt lat="39.3256948" lon="16.998469"><ele>145.66666666666666</ele><time>2026-03-28T15:58:14.698Z</time></trkpt><trkpt lat="39.3256908" lon="16.9985833"><ele>142.5</ele><time>2026-03-28T15:58:15.699Z</time></trkpt><trkpt lat="39.3257135" lon="16.9986753"><ele>139.33333333333334</ele><time>2026-03-28T15:58:16.699Z</time></trkpt><trkpt lat="39.3257668" lon="16.9987314"><ele>136.16666666666669</ele><time>2026-03-28T15:58:17.695Z</time></trkpt><trkpt lat="39.3258394" lon="16.9987575"><ele>133.0</ele><time>2026-03-28T15:58:18.695Z</time></trkpt><trkpt lat="39.3259275" lon="16.9987508"><ele>133.0</ele><time>2026-03-28T15:58:19.698Z</time></trkpt><trkpt lat="39.3260168" lon="16.9987324"><ele>133.0</ele><time>2026-03-28T15:58:20.701Z</time></trkpt><trkpt lat="39.3261015" lon="16.9987169"><ele>133.0</ele><time>2026-03-28T15:58:21.695Z</time></trkpt><trkpt lat="39.3261677" lon="16.9986519"><ele>133.0</ele><time>2026-03-28T15:58:22.698Z</time></trkpt><trkpt lat="39.326231" lon="16.9985666"><ele>133.0</ele><time>2026-03-28T15:58:23.699Z</time></trkpt><trkpt lat="39.3262749" lon="16.9984771"><ele>133.0</ele><time>2026-03-28T15:58:24.702Z</time></trkpt><trkpt lat="39.3263078" lon="16.9984066"><ele>133.0</ele><time>2026-03-28T15:58:25.697Z</time></trkpt><trkpt lat="39.3263694" lon="16.9983369"><ele>133.0</ele><time>2026-03-28T15:58:27.696Z</time></trkpt><trkpt lat="39.3264205" lon="16.998434"><ele>133.0</ele><time>2026-03-28T15:58:29.694Z</time></trkpt><trkpt lat="39.326405" lon="16.9985173"><ele>133.0</ele><time>2026-03-28T15:58:30.699Z</time></trkpt><trkpt lat="39.3263833" lon="16.9986127"><ele>133.0</ele><time>2026-03-28T15:58:31.699Z</time></trkpt><trkpt lat="39.3263601" lon="16.9987109"><ele>133.0</ele><time>2026-03-28T15:58:32.698Z</time></trkpt><trkpt lat="39.3263283" lon="16.9988141"><ele>133.0</ele><time>2026-03-28T15:58:33.702Z</time></trkpt><trkpt lat="39.3262885" lon="16.9989157"><ele>133.0</ele><time>2026-03-28T15:58:34.695Z</time></trkpt><trkpt lat="39.3262386" lon="16.9990189"><ele>133.0</ele><time>2026-03-28T15:58:35.693Z</time></trkpt><trkpt lat="39.3261775" lon="16.999118"><ele>133.0</ele><time>2026-03-28T15:58:36.692Z</time></trkpt><trkpt lat="39.3261185" lon="16.9992112"><ele>133.0</ele><time>2026-03-28T15:58:37.703Z</time></trkpt><trkpt lat="39.3260495" lon="16.9992895"><ele>129.33333333333334</ele><time>2026-03-28T15:58:38.695Z</time></trkpt><trkpt lat="39.3259787" lon="16.9993619"><ele>125.66666666666667</ele><time>2026-03-28T15:58:39.696Z</time></trkpt><trkpt lat="39.325905" lon="16.9994312"><ele>122.0</ele><time>2026-03-28T15:58:40.698Z</time></trkpt><trkpt lat="39.3258343" lon="16.9994936"><ele>118.33333333333334</ele><time>2026-03-28T15:58:41.699Z</time></trkpt><trkpt lat="39.325757" lon="16.9995376"><ele>114.66666666666667</ele><time>2026-03-28T15:58:42.694Z</time></trkpt><trkpt lat="39.3256939" lon="16.9995731"><ele>111.0</ele><time>2026-03-28T15:58:43.697Z</time></trkpt><trkpt lat="39.3256185" lon="16.9996712"><ele>111.0</ele><time>2026-03-28T15:58:45.7Z</time></trkpt><trkpt lat="39.3256342" lon="16.9997502"><ele>111.0</ele><time>2026-03-28T15:58:46.695Z</time></trkpt><trkpt lat="39.3256833" lon="16.9998169"><ele>111.0</ele><time>2026-03-28T15:58:47.697Z</time></trkpt><trkpt lat="39.3257415" lon="16.999895"><ele>111.0</ele><time>2026-03-28T15:58:48.695Z</time></trkpt><trkpt lat="39.3258093" lon="16.9999955"><ele>111.0</ele><time>2026-03-28T15:58:49.69Z</time></trkpt><trkpt lat="39.3258724" lon="17.0001025"><ele>111.0</ele><time>2026-03-28T15:58:50.696Z</time></trkpt><trkpt lat="39.3258967" lon="17.0002486"><ele>111.0</ele><time>2026-03-28T15:58:51.696Z</time></trkpt><trkpt lat="39.3259004" lon="17.0004051"><ele>111.0</ele><time>2026-03-28T15:58:52.705Z</time></trkpt><trkpt lat="39.3258994" lon="17.0005616"><ele>111.0</ele><time>2026-03-28T15:58:53.696Z</time></trkpt><trkpt lat="39.3258632" lon="17.0006786"><ele>111.0</ele><time>2026-03-28T15:58:54.699Z</time></trkpt><trkpt lat="39.3258134" lon="17.0007725"><ele>111.0</ele><time>2026-03-28T15:58:55.696Z</time></trkpt><trkpt lat="39.3257603" lon="17.0008626"><ele>111.4</ele><time>2026-03-28T15:58:56.698Z</time></trkpt><trkpt lat="39.3256839" lon="17.0009311"><ele>111.8</ele><time>2026-03-28T15:58:57.701Z</time></trkpt><trkpt lat="39.3256171" lon="17.0010194"><ele>112.20000000000002</ele><time>2026-03-28T15:58:58.698Z</time></trkpt><trkpt lat="39.3255665" lon="17.0011278"><ele>112.60000000000001</ele><time>2026-03-28T15:58:59.697Z</time></trkpt><trkpt lat="39.325539" lon="17.0012566"><ele>113.0</ele><time>2026-03-28T15:59:00.698Z</time></trkpt><trkpt lat="39.3255149" lon="17.0013986"><ele>113.0</ele><time>2026-03-28T15:59:01.703Z</time></trkpt><trkpt lat="39.3254929" lon="17.0015511"><ele>113.0</ele><time>2026-03-28T15:59:02.696Z</time></trkpt><trkpt lat="39.3254875" lon="17.001709"><ele>113.0</ele><time>2026-03-28T15:59:03.697Z</time></trkpt><trkpt lat="39.3255055" lon="17.001867"><ele>113.0</ele><time>2026-03-28T15:59:04.697Z</time></trkpt><trkpt lat="39.3255328" lon="17.00202"><ele>112.60000000000001</ele><time>2026-03-28T15:59:05.703Z</time></trkpt><trkpt lat="39.325556" lon="17.0021678"><ele>112.20000000000002</ele><time>2026-03-28T15:59:06.701Z</time></trkpt><trkpt lat="39.3255686" lon="17.0023047"><ele>111.8</ele><time>2026-03-28T15:59:07.699Z</time></trkpt><trkpt lat="39.3255795" lon="17.0024259"><ele>111.4</ele><time>2026-03-28T15:59:08.701Z</time></trkpt><trkpt lat="39.3255887" lon="17.0025374"><ele>111.0</ele><time>2026-03-28T15:59:09.698Z</time></trkpt><trkpt lat="39.3255932" lon="17.002624"><ele>111.5</ele><time>2026-03-28T15:59:10.697Z</time></trkpt><trkpt lat="39.3255812" lon="17.0027871"><ele>112.0</ele><time>2026-03-28T15:59:12.706Z</time></trkpt><trkpt lat="39.3255731" lon="17.0028804"><ele>112.5</ele><time>2026-03-28T15:59:13.709Z</time></trkpt><trkpt lat="39.3255451" lon="17.0029735"><ele>113.0</ele><time>2026-03-28T15:59:14.702Z</time></trkpt><trkpt lat="39.325519" lon="17.0030581"><ele>113.5</ele><time>2026-03-28T15:59:15.7Z</time></trkpt><trkpt lat="39.3254703" lon="17.0031635"><ele>114.0</ele><time>2026-03-28T15:59:17.698Z</time></trkpt><trkpt lat="39.3254201" lon="17.003239"><ele>114.0</ele><time>2026-03-28T15:59:20.696Z</time></trkpt><trkpt lat="39.3253792" lon="17.0033131"><ele>114.0</ele><time>2026-03-28T15:59:34.705Z</time></trkpt><trkpt lat="39.3253566" lon="17.0033946"><ele>114.0</ele><time>2026-03-28T15:59:41.699Z</time></trkpt><trkpt lat="39.3253445" lon="17.0034805"><ele>114.0</ele><time>2026-03-28T15:59:49.698Z</time></trkpt><trkpt lat="39.3252982" lon="17.0035523"><ele>114.0</ele><time>2026-03-28T15:59:56.707Z</time></trkpt><trkpt lat="39.32523" lon="17.0036327"><ele>114.0</ele><time>2026-03-28T15:59:59.701Z</time></trkpt><trkpt lat="39.3251812" lon="17.0037402"><ele>113.66666666666667</ele><time>2026-03-28T16:00:01.701Z</time></trkpt><trkpt lat="39.325146" lon="17.0038498"><ele>113.33333333333334</ele><time>2026-03-28T16:00:03.692Z</time></trkpt><trkpt lat="39.3251364" lon="17.003949"><ele>113.0</ele><time>2026-03-28T16:00:05.698Z</time></trkpt><trkpt lat="39.3251445" lon="17.0040389"><ele>112.66666666666667</ele><time>2026-03-28T16:00:07.701Z</time></trkpt><trkpt lat="39.3251585" lon="17.0041657"><ele>112.33333333333334</ele><time>2026-03-28T16:00:10.7Z</time></trkpt><trkpt lat="39.325163" lon="17.004289"><ele>112.0</ele><time>2026-03-28T16:00:12.698Z</time></trkpt><trkpt lat="39.3251675" lon="17.0043721"><ele>111.16666666666667</ele><time>2026-03-28T16:00:13.699Z</time></trkpt><trkpt lat="39.3251738" lon="17.0044633"><ele>110.33333333333334</ele><time>2026-03-28T16:00:14.698Z</time></trkpt><trkpt lat="39.3251671" lon="17.0045636"><ele>109.5</ele><time>2026-03-28T16:00:15.698Z</time></trkpt><trkpt lat="39.3251638" lon="17.0046804"><ele>108.66666666666666</ele><time>2026-03-28T16:00:16.697Z</time></trkpt><trkpt lat="39.3251594" lon="17.0048011"><ele>107.83333333333333</ele><time>2026-03-28T16:00:17.698Z</time></trkpt><trkpt lat="39.3251566" lon="17.0049222"><ele>107.0</ele><time>2026-03-28T16:00:18.699Z</time></trkpt><trkpt lat="39.3251495" lon="17.0050301"><ele>106.8</ele><time>2026-03-28T16:00:19.697Z</time></trkpt><trkpt lat="39.3251414" lon="17.0051285"><ele>106.6</ele><time>2026-03-28T16:00:20.7Z</time></trkpt><trkpt lat="39.325136" lon="17.0052659"><ele>106.39999999999999</ele><time>2026-03-28T16:00:22.701Z</time></trkpt><trkpt lat="39.3251585" lon="17.0053934"><ele>106.19999999999999</ele><time>2026-03-28T16:00:24.695Z</time></trkpt><trkpt lat="39.3251778" lon="17.0055461"><ele>106.0</ele><time>2026-03-28T16:00:26.697Z</time></trkpt><trkpt lat="39.3251633" lon="17.0056318"><ele>106.00000000000001</ele><time>2026-03-28T16:00:27.7Z</time></trkpt><trkpt lat="39.3251508" lon="17.0057159"><ele>106.0</ele><time>2026-03-28T16:00:28.7Z</time></trkpt><trkpt lat="39.3251538" lon="17.0058044"><ele>106.0</ele><time>2026-03-28T16:00:29.698Z</time></trkpt><trkpt lat="39.3251517" lon="17.0058972"><ele>106.0</ele><time>2026-03-28T16:00:30.702Z</time></trkpt><trkpt lat="39.325152" lon="17.0059873"><ele>106.00000000000001</ele><time>2026-03-28T16:00:31.7Z</time></trkpt><trkpt lat="39.3251214" lon="17.0061128"><ele>106.0</ele><time>2026-03-28T16:00:33.698Z</time></trkpt><trkpt lat="39.3250858" lon="17.0062325"><ele>105.83333333333334</ele><time>2026-03-28T16:00:36.702Z</time></trkpt><trkpt lat="39.3250888" lon="17.0063417"><ele>105.66666666666667</ele><time>2026-03-28T16:00:38.701Z</time></trkpt><trkpt lat="39.325084" lon="17.0064305"><ele>105.5</ele><time>2026-03-28T16:00:40.7Z</time></trkpt><trkpt lat="39.3250841" lon="17.0065141"><ele>105.33333333333334</ele><time>2026-03-28T16:00:42.698Z</time></trkpt><trkpt lat="39.3250949" lon="17.0066323"><ele>105.16666666666667</ele><time>2026-03-28T16:00:45.697Z</time></trkpt><trkpt lat="39.3251157" lon="17.0067157"><ele>105.0</ele><time>2026-03-28T16:00:47.693Z</time></trkpt><trkpt lat="39.325141" lon="17.006808"><ele>105.0</ele><time>2026-03-28T16:00:49.702Z</time></trkpt><trkpt lat="39.3251575" lon="17.0068944"><ele>105.0</ele><time>2026-03-28T16:00:51.695Z</time></trkpt><trkpt lat="39.3251878" lon="17.0069659"><ele>105.0</ele><time>2026-03-28T16:00:53.698Z</time></trkpt><trkpt lat="39.3252348" lon="17.0070346"><ele>105.0</ele><time>2026-03-28T16:00:55.706Z</time></trkpt><trkpt lat="39.3252765" lon="17.0071179"><ele>105.0</ele><time>2026-03-28T16:00:57.699Z</time></trkpt><trkpt lat="39.3253421" lon="17.0071558"><ele>105.0</ele><time>2026-03-28T16:00:59.696Z</time></trkpt><trkpt lat="39.325425" lon="17.0071678"><ele>105.0</ele><time>2026-03-28T16:01:01.697Z</time></trkpt><trkpt lat="39.3255081" lon="17.0071665"><ele>103.4</ele><time>2026-03-28T16:01:03.705Z</time></trkpt><trkpt lat="39.3255952" lon="17.0071674"><ele>101.8</ele><time>2026-03-28T16:01:05.695Z</time></trkpt><trkpt lat="39.3256742" lon="17.0071518"><ele>100.19999999999999</ele><time>2026-03-28T16:01:07.694Z</time></trkpt><trkpt lat="39.3257624" lon="17.0071283"><ele>98.6</ele><time>2026-03-28T16:01:09.7Z</time></trkpt><trkpt lat="39.325849" lon="17.0070998"><ele>97.0</ele><time>2026-03-28T16:01:11.696Z</time></trkpt><trkpt lat="39.3259602" lon="17.0071276"><ele>97.00000000000001</ele><time>2026-03-28T16:01:13.697Z</time></trkpt><trkpt lat="39.3260457" lon="17.0071525"><ele>97.0</ele><time>2026-03-28T16:01:15.697Z</time></trkpt><trkpt lat="39.326121" lon="17.007192"><ele>97.0</ele><time>2026-03-28T16:01:17.696Z</time></trkpt><trkpt lat="39.326202" lon="17.0072325"><ele>97.0</ele><time>2026-03-28T16:01:19.699Z</time></trkpt><trkpt lat="39.326263" lon="17.0072934"><ele>97.00000000000001</ele><time>2026-03-28T16:01:21.698Z</time></trkpt><trkpt lat="39.3263365" lon="17.007353"><ele>97.0</ele><time>2026-03-28T16:01:23.702Z</time></trkpt><trkpt lat="39.3264064" lon="17.0074379"><ele>96.66666666666667</ele><time>2026-03-28T16:01:25.703Z</time></trkpt><trkpt lat="39.3264545" lon="17.0075185"><ele>96.33333333333334</ele><time>2026-03-28T16:01:27.693Z</time></trkpt><trkpt lat="39.3264968" lon="17.0076204"><ele>96.0</ele><time>2026-03-28T16:01:30.696Z</time></trkpt><trkpt lat="39.3265328" lon="17.00771"><ele>95.66666666666667</ele><time>2026-03-28T16:01:32.701Z</time></trkpt><trkpt lat="39.3265677" lon="17.0078104"><ele>95.33333333333334</ele><time>2026-03-28T16:01:34.701Z</time></trkpt><trkpt lat="39.3265992" lon="17.0079259"><ele>95.0</ele><time>2026-03-28T16:01:36.7Z</time></trkpt><trkpt lat="39.3266219" lon="17.0080625"><ele>95.0</ele><time>2026-03-28T16:01:38.698Z</time></trkpt><trkpt lat="39.3265991" lon="17.0081907"><ele>95.0</ele><time>2026-03-28T16:01:40.707Z</time></trkpt><trkpt lat="39.3265366" lon="17.0083102"><ele>95.0</ele><time>2026-03-28T16:01:42.699Z</time></trkpt><trkpt lat="39.3265005" lon="17.008377"><ele>95.0</ele><time>2026-03-28T16:01:43.705Z</time></trkpt><trkpt lat="39.3264584" lon="17.0084742"><ele>95.0</ele><time>2026-03-28T16:01:45.697Z</time></trkpt><trkpt lat="39.3264237" lon="17.0085624"><ele>95.0</ele><time>2026-03-28T16:01:47.701Z</time></trkpt><trkpt lat="39.3264094" lon="17.0086896"><ele>94.6</ele><time>2026-03-28T16:01:50.7Z</time></trkpt><trkpt lat="39.3264162" lon="17.0088317"><ele>94.2</ele><time>2026-03-28T16:01:52.696Z</time></trkpt><trkpt lat="39.3264635" lon="17.0089684"><ele>93.80000000000001</ele><time>2026-03-28T16:01:54.704Z</time></trkpt><trkpt lat="39.3265336" lon="17.0090777"><ele>93.4</ele><time>2026-03-28T16:01:56.703Z</time></trkpt><trkpt lat="39.3266113" lon="17.0091467"><ele>93.0</ele><time>2026-03-28T16:01:58.695Z</time></trkpt><trkpt lat="39.3266934" lon="17.0092137"><ele>92.5</ele><time>2026-03-28T16:02:00.696Z</time></trkpt><trkpt lat="39.3267908" lon="17.0092573"><ele>92.0</ele><time>2026-03-28T16:02:02.694Z</time></trkpt><trkpt lat="39.3268593" lon="17.0092684"><ele>91.5</ele><time>2026-03-28T16:02:04.705Z</time></trkpt><trkpt lat="39.326934" lon="17.0092811"><ele>91.0</ele><time>2026-03-28T16:02:07.701Z</time></trkpt><trkpt lat="39.3270056" lon="17.0093021"><ele>90.5</ele><time>2026-03-28T16:02:10.695Z</time></trkpt><trkpt lat="39.3270734" lon="17.0093483"><ele>90.0</ele><time>2026-03-28T16:02:13.698Z</time></trkpt><trkpt lat="39.3271476" lon="17.0094256"><ele>90.0</ele><time>2026-03-28T16:02:17.697Z</time></trkpt><trkpt lat="39.3272175" lon="17.0094998"><ele>90.0</ele><time>2026-03-28T16:02:19.701Z</time></trkpt><trkpt lat="39.3273287" lon="17.009553"><ele>90.0</ele><time>2026-03-28T16:02:21.7Z</time></trkpt><trkpt lat="39.3273972" lon="17.0095703"><ele>90.0</ele><time>2026-03-28T16:02:22.692Z</time></trkpt><trkpt lat="39.3274667" lon="17.0095882"><ele>90.0</ele><time>2026-03-28T16:02:23.698Z</time></trkpt><trkpt lat="39.3275331" lon="17.0096319"><ele>90.0</ele><time>2026-03-28T16:02:24.696Z</time></trkpt><trkpt lat="39.327553" lon="17.0097252"><ele>89.83333333333333</ele><time>2026-03-28T16:02:25.694Z</time></trkpt><trkpt lat="39.3275498" lon="17.0098143"><ele>89.66666666666667</ele><time>2026-03-28T16:02:26.698Z</time></trkpt><trkpt lat="39.3275324" lon="17.0098938"><ele>89.5</ele><time>2026-03-28T16:02:27.699Z</time></trkpt><trkpt lat="39.3274949" lon="17.0100183"><ele>89.33333333333334</ele><time>2026-03-28T16:02:29.7Z</time></trkpt><trkpt lat="39.3274743" lon="17.0101388"><ele>89.16666666666667</ele><time>2026-03-28T16:02:32.696Z</time></trkpt><trkpt lat="39.3274373" lon="17.0102353"><ele>89.0</ele><time>2026-03-28T16:02:35.695Z</time></trkpt><trkpt lat="39.3273877" lon="17.0103368"><ele>89.0</ele><time>2026-03-28T16:02:37.703Z</time></trkpt><trkpt lat="39.3273486" lon="17.0104244"><ele>89.0</ele><time>2026-03-28T16:02:39.697Z</time></trkpt><trkpt lat="39.3273158" lon="17.0105061"><ele>89.0</ele><time>2026-03-28T16:02:41.702Z</time></trkpt><trkpt lat="39.3272866" lon="17.0106234"><ele>89.0</ele><time>2026-03-28T16:02:43.696Z</time></trkpt><trkpt lat="39.3272862" lon="17.0107217"><ele>89.0</ele><time>2026-03-28T16:02:45.704Z</time></trkpt><trkpt lat="39.3273198" lon="17.0108093"><ele>89.0</ele><time>2026-03-28T16:02:48.698Z</time></trkpt><trkpt lat="39.3273793" lon="17.0108569"><ele>89.16666666666667</ele><time>2026-03-28T16:02:52.697Z</time></trkpt><trkpt lat="39.3274476" lon="17.0108861"><ele>89.33333333333334</ele><time>2026-03-28T16:02:55.699Z</time></trkpt><trkpt lat="39.3274995" lon="17.0109441"><ele>89.5</ele><time>2026-03-28T16:02:58.697Z</time></trkpt><trkpt lat="39.3275548" lon="17.0109928"><ele>89.66666666666667</ele><time>2026-03-28T16:03:00.693Z</time></trkpt><trkpt lat="39.3276182" lon="17.0110441"><ele>89.83333333333333</ele><time>2026-03-28T16:03:02.702Z</time></trkpt><trkpt lat="39.3276894" lon="17.0111041"><ele>90.0</ele><time>2026-03-28T16:03:04.699Z</time></trkpt><trkpt lat="39.3277903" lon="17.0111804"><ele>90.0</ele><time>2026-03-28T16:03:06.698Z</time></trkpt><trkpt lat="39.3278506" lon="17.0112215"><ele>90.0</ele><time>2026-03-28T16:03:07.71Z</time></trkpt><trkpt lat="39.3279065" lon="17.0112682"><ele>90.0</ele><time>2026-03-28T16:03:08.696Z</time></trkpt><trkpt lat="39.3279827" lon="17.0113621"><ele>90.0</ele><time>2026-03-28T16:03:10.7Z</time></trkpt><trkpt lat="39.3280472" lon="17.0114495"><ele>90.0</ele><time>2026-03-28T16:03:12.699Z</time></trkpt><trkpt lat="39.3280892" lon="17.0115431"><ele>90.0</ele><time>2026-03-28T16:03:14.699Z</time></trkpt><trkpt lat="39.3280439" lon="17.0116354"><ele>91.0</ele><time>2026-03-28T16:03:17.702Z</time></trkpt><trkpt lat="39.3279763" lon="17.011689"><ele>92.0</ele><time>2026-03-28T16:03:19.705Z</time></trkpt><trkpt lat="39.327906" lon="17.011736"><ele>93.0</ele><time>2026-03-28T16:03:21.694Z</time></trkpt><trkpt lat="39.3278073" lon="17.0118024"><ele>94.0</ele><time>2026-03-28T16:03:23.703Z</time></trkpt><trkpt lat="39.3277315" lon="17.0118935"><ele>95.0</ele><time>2026-03-28T16:03:25.696Z</time></trkpt><trkpt lat="39.3277162" lon="17.011978"><ele>96.0</ele><time>2026-03-28T16:03:27.698Z</time></trkpt><trkpt lat="39.3277092" lon="17.0120834"><ele>96.0</ele><time>2026-03-28T16:03:29.698Z</time></trkpt><trkpt lat="39.3276971" lon="17.0122095"><ele>96.0</ele><time>2026-03-28T16:03:31.694Z</time></trkpt><trkpt lat="39.3276832" lon="17.0123013"><ele>96.0</ele><time>2026-03-28T16:03:33.705Z</time></trkpt><trkpt lat="39.3276995" lon="17.0124047"><ele>96.0</ele><time>2026-03-28T16:03:35.709Z</time></trkpt><trkpt lat="39.3277227" lon="17.0125434"><ele>96.0</ele><time>2026-03-28T16:03:37.698Z</time></trkpt><trkpt lat="39.3277763" lon="17.0126782"><ele>95.6</ele><time>2026-03-28T16:03:39.71Z</time></trkpt><trkpt lat="39.3278414" lon="17.0127665"><ele>95.19999999999999</ele><time>2026-03-28T16:03:41.698Z</time></trkpt><trkpt lat="39.327901" lon="17.0128024"><ele>94.80000000000001</ele><time>2026-03-28T16:03:43.698Z</time></trkpt><trkpt lat="39.3279785" lon="17.0128172"><ele>94.4</ele><time>2026-03-28T16:03:45.696Z</time></trkpt><trkpt lat="39.3280757" lon="17.0127878"><ele>94.0</ele><time>2026-03-28T16:03:47.696Z</time></trkpt><trkpt lat="39.32819" lon="17.0127356"><ele>93.0</ele><time>2026-03-28T16:03:49.694Z</time></trkpt><trkpt lat="39.3282538" lon="17.0127145"><ele>92.0</ele><time>2026-03-28T16:03:50.701Z</time></trkpt><trkpt lat="39.3283509" lon="17.0127049"><ele>91.0</ele><time>2026-03-28T16:03:52.7Z</time></trkpt><trkpt lat="39.3284185" lon="17.0126938"><ele>90.0</ele><time>2026-03-28T16:03:54.699Z</time></trkpt><trkpt lat="39.3284817" lon="17.012707"><ele>89.0</ele><time>2026-03-28T16:03:57.695Z</time></trkpt><trkpt lat="39.3285795" lon="17.0126952"><ele>88.0</ele><time>2026-03-28T16:04:02.704Z</time></trkpt><trkpt lat="39.3286909" lon="17.0127026"><ele>88.0</ele><time>2026-03-28T16:04:04.697Z</time></trkpt><trkpt lat="39.3287546" lon="17.0127173"><ele>88.0</ele><time>2026-03-28T16:04:05.695Z</time></trkpt><trkpt lat="39.3288238" lon="17.0127368"><ele>88.0</ele><time>2026-03-28T16:04:06.699Z</time></trkpt><trkpt lat="39.3288872" lon="17.0127662"><ele>88.0</ele><time>2026-03-28T16:04:07.694Z</time></trkpt><trkpt lat="39.3289514" lon="17.0127971"><ele>88.0</ele><time>2026-03-28T16:04:08.696Z</time></trkpt><trkpt lat="39.3290176" lon="17.0128333"><ele>88.0</ele><time>2026-03-28T16:04:09.698Z</time></trkpt><trkpt lat="39.3290999" lon="17.0129082"><ele>88.0</ele><time>2026-03-28T16:04:11.708Z</time></trkpt><trkpt lat="39.3291157" lon="17.0129912"><ele>88.0</ele><time>2026-03-28T16:04:14.698Z</time></trkpt><trkpt lat="39.3290721" lon="17.0130641"><ele>88.0</ele><time>2026-03-28T16:04:16.701Z</time></trkpt><trkpt lat="39.329011" lon="17.0131661"><ele>88.0</ele><time>2026-03-28T16:04:18.701Z</time></trkpt><trkpt lat="39.3289804" lon="17.0132455"><ele>88.0</ele><time>2026-03-28T16:04:19.699Z</time></trkpt><trkpt lat="39.3289468" lon="17.0133183"><ele>88.0</ele><time>2026-03-28T16:04:20.699Z</time></trkpt><trkpt lat="39.328912" lon="17.0134553"><ele>88.0</ele><time>2026-03-28T16:04:22.704Z</time></trkpt><trkpt lat="39.3288994" lon="17.013581"><ele>88.0</ele><time>2026-03-28T16:04:24.692Z</time></trkpt><trkpt lat="39.3289263" lon="17.0137264"><ele>88.0</ele><time>2026-03-28T16:04:26.697Z</time></trkpt><trkpt lat="39.3289653" lon="17.0138661"><ele>88.0</ele><time>2026-03-28T16:04:28.701Z</time></trkpt><trkpt lat="39.3289746" lon="17.0139996"><ele>88.0</ele><time>2026-03-28T16:04:30.703Z</time></trkpt><trkpt lat="39.3289783" lon="17.01412"><ele>88.0</ele><time>2026-03-28T16:04:32.697Z</time></trkpt><trkpt lat="39.3290265" lon="17.01426"><ele>88.0</ele><time>2026-03-28T16:04:34.699Z</time></trkpt><trkpt lat="39.3290496" lon="17.0143879"><ele>88.0</ele><time>2026-03-28T16:04:36.697Z</time></trkpt><trkpt lat="39.3290441" lon="17.0145037"><ele>88.0</ele><time>2026-03-28T16:04:38.701Z</time></trkpt><trkpt lat="39.3290658" lon="17.0146538"><ele>88.0</ele><time>2026-03-28T16:04:40.698Z</time></trkpt><trkpt lat="39.329077" lon="17.0147374"><ele>88.0</ele><time>2026-03-28T16:04:41.696Z</time></trkpt><trkpt lat="39.3290923" lon="17.0148715"><ele>88.0</ele><time>2026-03-28T16:04:43.689Z</time></trkpt><trkpt lat="39.3290838" lon="17.0149662"><ele>88.0</ele><time>2026-03-28T16:04:45.695Z</time></trkpt><trkpt lat="39.3290887" lon="17.0150768"><ele>88.0</ele><time>2026-03-28T16:04:47.699Z</time></trkpt><trkpt lat="39.3290997" lon="17.0152251"><ele>88.0</ele><time>2026-03-28T16:04:49.693Z</time></trkpt><trkpt lat="39.3291057" lon="17.0153606"><ele>88.0</ele><time>2026-03-28T16:04:51.696Z</time></trkpt><trkpt lat="39.329117" lon="17.0154466"><ele>88.0</ele><time>2026-03-28T16:04:53.695Z</time></trkpt><trkpt lat="39.3291411" lon="17.0155706"><ele>86.80000000000001</ele><time>2026-03-28T16:04:56.701Z</time></trkpt><trkpt lat="39.3291505" lon="17.015702"><ele>85.6</ele><time>2026-03-28T16:04:58.696Z</time></trkpt><trkpt lat="39.32916" lon="17.0158485"><ele>84.4</ele><time>2026-03-28T16:05:00.695Z</time></trkpt><trkpt lat="39.3291943" lon="17.0159878"><ele>83.19999999999999</ele><time>2026-03-28T16:05:02.699Z</time></trkpt><trkpt lat="39.329228" lon="17.0161072"><ele>82.0</ele><time>2026-03-28T16:05:04.695Z</time></trkpt><trkpt lat="39.3292517" lon="17.0162248"><ele>81.8</ele><time>2026-03-28T16:05:06.699Z</time></trkpt><trkpt lat="39.3292941" lon="17.0163744"><ele>81.6</ele><time>2026-03-28T16:05:08.699Z</time></trkpt><trkpt lat="39.3293208" lon="17.0164588"><ele>81.39999999999999</ele><time>2026-03-28T16:05:09.705Z</time></trkpt><trkpt lat="39.3293592" lon="17.0165473"><ele>81.19999999999999</ele><time>2026-03-28T16:05:10.701Z</time></trkpt><trkpt lat="39.3294051" lon="17.0166418"><ele>81.0</ele><time>2026-03-28T16:05:11.694Z</time></trkpt><trkpt lat="39.3294645" lon="17.0167362"><ele>81.33333333333333</ele><time>2026-03-28T16:05:12.703Z</time></trkpt><trkpt lat="39.3295264" lon="17.0168161"><ele>81.66666666666667</ele><time>2026-03-28T16:05:13.695Z</time></trkpt><trkpt lat="39.3295803" lon="17.0168882"><ele>82.0</ele><time>2026-03-28T16:05:14.694Z</time></trkpt><trkpt lat="39.3296282" lon="17.0169473"><ele>82.33333333333334</ele><time>2026-03-28T16:05:15.703Z</time></trkpt><trkpt lat="39.3296738" lon="17.0170062"><ele>82.66666666666667</ele><time>2026-03-28T16:05:16.705Z</time></trkpt><trkpt lat="39.3297661" lon="17.017101"><ele>83.0</ele><time>2026-03-28T16:05:18.703Z</time></trkpt><trkpt lat="39.3298544" lon="17.0171954"><ele>82.33333333333334</ele><time>2026-03-28T16:05:20.707Z</time></trkpt><trkpt lat="39.3299001" lon="17.0172564"><ele>81.66666666666667</ele><time>2026-03-28T16:05:21.7Z</time></trkpt><trkpt lat="39.3299451" lon="17.017326"><ele>81.0</ele><time>2026-03-28T16:05:22.708Z</time></trkpt><trkpt lat="39.3299867" lon="17.0173944"><ele>80.33333333333333</ele><time>2026-03-28T16:05:23.706Z</time></trkpt><trkpt lat="39.3300551" lon="17.017507"><ele>79.66666666666666</ele><time>2026-03-28T16:05:25.696Z</time></trkpt><trkpt lat="39.3301293" lon="17.0176199"><ele>79.0</ele><time>2026-03-28T16:05:27.7Z</time></trkpt><trkpt lat="39.3301677" lon="17.0176953"><ele>79.0</ele><time>2026-03-28T16:05:28.706Z</time></trkpt><trkpt lat="39.3302089" lon="17.0177739"><ele>79.0</ele><time>2026-03-28T16:05:29.7Z</time></trkpt><trkpt lat="39.3302482" lon="17.0178566"><ele>79.0</ele><time>2026-03-28T16:05:30.702Z</time></trkpt><trkpt lat="39.3302726" lon="17.0179396"><ele>79.0</ele><time>2026-03-28T16:05:31.698Z</time></trkpt><trkpt lat="39.3302915" lon="17.0180499"><ele>79.0</ele><time>2026-03-28T16:05:33.696Z</time></trkpt><trkpt lat="39.3303084" lon="17.0181629"><ele>79.0</ele><time>2026-03-28T16:05:36.705Z</time></trkpt><trkpt lat="39.3303214" lon="17.0182921"><ele>78.85714285714286</ele><time>2026-03-28T16:05:38.699Z</time></trkpt><trkpt lat="39.3303217" lon="17.0183743"><ele>78.71428571428572</ele><time>2026-03-28T16:05:39.699Z</time></trkpt><trkpt lat="39.3303153" lon="17.0184635"><ele>78.57142857142858</ele><time>2026-03-28T16:05:40.695Z</time></trkpt><trkpt lat="39.3303082" lon="17.0185472"><ele>78.42857142857143</ele><time>2026-03-28T16:05:41.695Z</time></trkpt><trkpt lat="39.3302999" lon="17.0186314"><ele>78.28571428571428</ele><time>2026-03-28T16:05:42.697Z</time></trkpt><trkpt lat="39.3302852" lon="17.0187156"><ele>78.14285714285715</ele><time>2026-03-28T16:05:43.703Z</time></trkpt><trkpt lat="39.3302679" lon="17.0187953"><ele>78.0</ele><time>2026-03-28T16:05:44.698Z</time></trkpt><trkpt lat="39.3302381" lon="17.0189441"><ele>78.0</ele><time>2026-03-28T16:05:46.693Z</time></trkpt><trkpt lat="39.3301915" lon="17.0190606"><ele>78.0</ele><time>2026-03-28T16:05:48.712Z</time></trkpt><trkpt lat="39.3301276" lon="17.019149"><ele>78.0</ele><time>2026-03-28T16:05:50.694Z</time></trkpt><trkpt lat="39.3300611" lon="17.0192604"><ele>78.0</ele><time>2026-03-28T16:05:52.712Z</time></trkpt><trkpt lat="39.3299883" lon="17.019373"><ele>78.0</ele><time>2026-03-28T16:05:54.702Z</time></trkpt><trkpt lat="39.3299512" lon="17.0194397"><ele>77.28571428571429</ele><time>2026-03-28T16:05:55.694Z</time></trkpt><trkpt lat="39.3299164" lon="17.0195136"><ele>76.57142857142857</ele><time>2026-03-28T16:05:56.7Z</time></trkpt><trkpt lat="39.3298811" lon="17.0195932"><ele>75.85714285714286</ele><time>2026-03-28T16:05:57.697Z</time></trkpt><trkpt lat="39.3298398" lon="17.0196796"><ele>75.14285714285714</ele><time>2026-03-28T16:05:58.696Z</time></trkpt><trkpt lat="39.3298054" lon="17.0197662"><ele>74.42857142857143</ele><time>2026-03-28T16:05:59.698Z</time></trkpt><trkpt lat="39.3297698" lon="17.0198518"><ele>73.71428571428571</ele><time>2026-03-28T16:06:00.7Z</time></trkpt><trkpt lat="39.329734" lon="17.019936"><ele>73.0</ele><time>2026-03-28T16:06:01.699Z</time></trkpt><trkpt lat="39.3296987" lon="17.0200208"><ele>75.66666666666666</ele><time>2026-03-28T16:06:02.697Z</time></trkpt><trkpt lat="39.3296684" lon="17.0201102"><ele>78.33333333333333</ele><time>2026-03-28T16:06:03.692Z</time></trkpt><trkpt lat="39.3296418" lon="17.0201989"><ele>81.0</ele><time>2026-03-28T16:06:04.695Z</time></trkpt><trkpt lat="39.3296223" lon="17.0202871"><ele>83.66666666666667</ele><time>2026-03-28T16:06:05.698Z</time></trkpt><trkpt lat="39.3296048" lon="17.0203699"><ele>86.33333333333334</ele><time>2026-03-28T16:06:06.696Z</time></trkpt><trkpt lat="39.3296051" lon="17.0205145"><ele>89.0</ele><time>2026-03-28T16:06:08.698Z</time></trkpt><trkpt lat="39.3296482" lon="17.0206258"><ele>89.0</ele><time>2026-03-28T16:06:10.699Z</time></trkpt><trkpt lat="39.3297155" lon="17.0207403"><ele>89.0</ele><time>2026-03-28T16:06:12.7Z</time></trkpt><trkpt lat="39.3297511" lon="17.0208102"><ele>89.0</ele><time>2026-03-28T16:06:13.704Z</time></trkpt><trkpt lat="39.3298017" lon="17.0208792"><ele>89.0</ele><time>2026-03-28T16:06:15.691Z</time></trkpt><trkpt lat="39.3298735" lon="17.0209489"><ele>89.0</ele><time>2026-03-28T16:06:17.704Z</time></trkpt><trkpt lat="39.3299331" lon="17.0210664"><ele>89.0</ele><time>2026-03-28T16:06:19.695Z</time></trkpt><trkpt lat="39.3299381" lon="17.021157"><ele>86.16666666666667</ele><time>2026-03-28T16:06:20.697Z</time></trkpt><trkpt lat="39.3299313" lon="17.0212551"><ele>83.33333333333334</ele><time>2026-03-28T16:06:21.696Z</time></trkpt><trkpt lat="39.3299228" lon="17.0213528"><ele>80.5</ele><time>2026-03-28T16:06:22.697Z</time></trkpt><trkpt lat="39.3299228" lon="17.0214483"><ele>77.66666666666667</ele><time>2026-03-28T16:06:23.692Z</time></trkpt><trkpt lat="39.329919" lon="17.0215308"><ele>74.83333333333333</ele><time>2026-03-28T16:06:24.694Z</time></trkpt><trkpt lat="39.329918" lon="17.021678"><ele>72.0</ele><time>2026-03-28T16:06:26.7Z</time></trkpt><trkpt lat="39.3299128" lon="17.0217752"><ele>71.66666666666667</ele><time>2026-03-28T16:06:27.711Z</time></trkpt><trkpt lat="39.3299021" lon="17.0218912"><ele>71.33333333333333</ele><time>2026-03-28T16:06:28.709Z</time></trkpt><trkpt lat="39.3298994" lon="17.0220112"><ele>71.0</ele><time>2026-03-28T16:06:29.7Z</time></trkpt><trkpt lat="39.3298992" lon="17.0221216"><ele>70.66666666666666</ele><time>2026-03-28T16:06:30.697Z</time></trkpt><trkpt lat="39.329932" lon="17.022215"><ele>70.33333333333333</ele><time>2026-03-28T16:06:31.7Z</time></trkpt><trkpt lat="39.3299735" lon="17.0222998"><ele>70.0</ele><time>2026-03-28T16:06:32.696Z</time></trkpt><trkpt lat="39.3300162" lon="17.0223796"><ele>70.0</ele><time>2026-03-28T16:06:33.696Z</time></trkpt><trkpt lat="39.3300648" lon="17.0224497"><ele>70.0</ele><time>2026-03-28T16:06:34.7Z</time></trkpt><trkpt lat="39.3301255" lon="17.0225098"><ele>70.0</ele><time>2026-03-28T16:06:35.694Z</time></trkpt><trkpt lat="39.3301838" lon="17.0225652"><ele>70.0</ele><time>2026-03-28T16:06:36.699Z</time></trkpt><trkpt lat="39.330244" lon="17.0226101"><ele>70.0</ele><time>2026-03-28T16:06:37.696Z</time></trkpt><trkpt lat="39.3303056" lon="17.0226553"><ele>70.0</ele><time>2026-03-28T16:06:38.703Z</time></trkpt><trkpt lat="39.3303531" lon="17.022712"><ele>70.0</ele><time>2026-03-28T16:06:39.7Z</time></trkpt><trkpt lat="39.3304067" lon="17.0227577"><ele>70.16666666666666</ele><time>2026-03-28T16:06:40.701Z</time></trkpt><trkpt lat="39.3304648" lon="17.0228075"><ele>70.33333333333333</ele><time>2026-03-28T16:06:41.703Z</time></trkpt><trkpt lat="39.3305372" lon="17.0228363"><ele>70.5</ele><time>2026-03-28T16:06:42.7Z</time></trkpt><trkpt lat="39.3306074" lon="17.0228913"><ele>70.66666666666667</ele><time>2026-03-28T16:06:43.702Z</time></trkpt><trkpt lat="39.33068" lon="17.0229557"><ele>70.83333333333334</ele><time>2026-03-28T16:06:44.701Z</time></trkpt><trkpt lat="39.3307584" lon="17.0230296"><ele>71.0</ele><time>2026-03-28T16:06:45.7Z</time></trkpt><trkpt lat="39.3308367" lon="17.0231099"><ele>71.0</ele><time>2026-03-28T16:06:46.701Z</time></trkpt><trkpt lat="39.3309138" lon="17.0231972"><ele>71.0</ele><time>2026-03-28T16:06:47.7Z</time></trkpt><trkpt lat="39.3309971" lon="17.0232883"><ele>71.0</ele><time>2026-03-28T16:06:48.699Z</time></trkpt><trkpt lat="39.3310806" lon="17.0233743"><ele>71.0</ele><time>2026-03-28T16:06:49.698Z</time></trkpt><trkpt lat="39.331179" lon="17.0234367"><ele>71.0</ele><time>2026-03-28T16:06:50.693Z</time></trkpt><trkpt lat="39.3312836" lon="17.0234861"><ele>70.33333333333334</ele><time>2026-03-28T16:06:51.695Z</time></trkpt><trkpt lat="39.3313772" lon="17.0235375"><ele>69.66666666666667</ele><time>2026-03-28T16:06:52.698Z</time></trkpt><trkpt lat="39.3314455" lon="17.0235817"><ele>69.0</ele><time>2026-03-28T16:06:53.695Z</time></trkpt><trkpt lat="39.3315102" lon="17.023617"><ele>68.33333333333333</ele><time>2026-03-28T16:06:54.695Z</time></trkpt><trkpt lat="39.3315768" lon="17.0236532"><ele>67.66666666666666</ele><time>2026-03-28T16:06:55.702Z</time></trkpt><trkpt lat="39.331639" lon="17.0236942"><ele>67.0</ele><time>2026-03-28T16:06:56.705Z</time></trkpt><trkpt lat="39.3316959" lon="17.0237427"><ele>67.5</ele><time>2026-03-28T16:06:57.699Z</time></trkpt><trkpt lat="39.3317521" lon="17.0237873"><ele>68.0</ele><time>2026-03-28T16:06:58.696Z</time></trkpt><trkpt lat="39.3318052" lon="17.0238315"><ele>68.5</ele><time>2026-03-28T16:06:59.703Z</time></trkpt><trkpt lat="39.3318839" lon="17.0239372"><ele>69.0</ele><time>2026-03-28T16:07:01.698Z</time></trkpt><trkpt lat="39.3319177" lon="17.024024"><ele>69.5</ele><time>2026-03-28T16:07:03.696Z</time></trkpt><trkpt lat="39.3319255" lon="17.0241358"><ele>70.0</ele><time>2026-03-28T16:07:06.699Z</time></trkpt><trkpt lat="39.3319079" lon="17.024259"><ele>70.0</ele><time>2026-03-28T16:07:08.692Z</time></trkpt><trkpt lat="39.3318753" lon="17.0243368"><ele>70.0</ele><time>2026-03-28T16:07:09.697Z</time></trkpt><trkpt lat="39.3317833" lon="17.024437"><ele>70.0</ele><time>2026-03-28T16:07:11.694Z</time></trkpt><trkpt lat="39.3316773" lon="17.0245143"><ele>70.0</ele><time>2026-03-28T16:07:13.701Z</time></trkpt><trkpt lat="39.3315676" lon="17.0246021"><ele>70.0</ele><time>2026-03-28T16:07:15.698Z</time></trkpt><trkpt lat="39.3315112" lon="17.0246423"><ele>70.0</ele><time>2026-03-28T16:07:16.707Z</time></trkpt><trkpt lat="39.3314513" lon="17.0246772"><ele>70.0</ele><time>2026-03-28T16:07:17.695Z</time></trkpt><trkpt lat="39.3313804" lon="17.0247058"><ele>70.0</ele><time>2026-03-28T16:07:18.697Z</time></trkpt><trkpt lat="39.331306" lon="17.0247393"><ele>70.0</ele><time>2026-03-28T16:07:19.692Z</time></trkpt><trkpt lat="39.3312353" lon="17.0247773"><ele>70.0</ele><time>2026-03-28T16:07:20.696Z</time></trkpt><trkpt lat="39.3311726" lon="17.0248211"><ele>70.0</ele><time>2026-03-28T16:07:21.695Z</time></trkpt><trkpt lat="39.331113" lon="17.0248754"><ele>70.0</ele><time>2026-03-28T16:07:22.699Z</time></trkpt><trkpt lat="39.3310515" lon="17.0249133"><ele>69.0</ele><time>2026-03-28T16:07:23.698Z</time></trkpt><trkpt lat="39.330946" lon="17.0249754"><ele>68.0</ele><time>2026-03-28T16:07:25.699Z</time></trkpt><trkpt lat="39.3308879" lon="17.0250848"><ele>67.0</ele><time>2026-03-28T16:07:27.7Z</time></trkpt><trkpt lat="39.3308643" lon="17.0251608"><ele>66.0</ele><time>2026-03-28T16:07:29.706Z</time></trkpt><trkpt lat="39.3308476" lon="17.0252551"><ele>65.0</ele><time>2026-03-28T16:08:06.698Z</time></trkpt><trkpt lat="39.3308484" lon="17.0254002"><ele>64.83333333333334</ele><time>2026-03-28T16:08:08.695Z</time></trkpt><trkpt lat="39.3308681" lon="17.0255011"><ele>64.66666666666667</ele><time>2026-03-28T16:08:09.697Z</time></trkpt><trkpt lat="39.3309138" lon="17.0255821"><ele>64.5</ele><time>2026-03-28T16:08:10.694Z</time></trkpt><trkpt lat="39.3309681" lon="17.0256453"><ele>64.33333333333333</ele><time>2026-03-28T16:08:11.696Z</time></trkpt><trkpt lat="39.3310206" lon="17.0257007"><ele>64.16666666666666</ele><time>2026-03-28T16:08:12.696Z</time></trkpt><trkpt lat="39.3311181" lon="17.0257657"><ele>64.0</ele><time>2026-03-28T16:08:14.696Z</time></trkpt><trkpt lat="39.3311647" lon="17.0258771"><ele>63.49999999999999</ele><time>2026-03-28T16:08:16.697Z</time></trkpt><trkpt lat="39.3311942" lon="17.0259937"><ele>63.0</ele><time>2026-03-28T16:08:18.711Z</time></trkpt><trkpt lat="39.3312181" lon="17.0261116"><ele>62.5</ele><time>2026-03-28T16:08:20.701Z</time></trkpt><trkpt lat="39.3312226" lon="17.0262551"><ele>62.0</ele><time>2026-03-28T16:08:22.703Z</time></trkpt><trkpt lat="39.3312193" lon="17.0263423"><ele>61.49999999999999</ele><time>2026-03-28T16:08:23.697Z</time></trkpt><trkpt lat="39.3312136" lon="17.026441"><ele>61.0</ele><time>2026-03-28T16:08:24.694Z</time></trkpt><trkpt lat="39.3312105" lon="17.0265423"><ele>60.599999999999994</ele><time>2026-03-28T16:08:25.696Z</time></trkpt><trkpt lat="39.3312098" lon="17.0266547"><ele>60.199999999999996</ele><time>2026-03-28T16:08:26.71Z</time></trkpt><trkpt lat="39.3311974" lon="17.0267738"><ele>59.800000000000004</ele><time>2026-03-28T16:08:27.703Z</time></trkpt><trkpt lat="39.3311755" lon="17.0268985"><ele>59.400000000000006</ele><time>2026-03-28T16:08:28.697Z</time></trkpt><trkpt lat="39.3311546" lon="17.0270345"><ele>59.0</ele><time>2026-03-28T16:08:29.695Z</time></trkpt><trkpt lat="39.3311435" lon="17.0271741"><ele>59.0</ele><time>2026-03-28T16:08:30.697Z</time></trkpt><trkpt lat="39.3311498" lon="17.0273052"><ele>59.00000000000001</ele><time>2026-03-28T16:08:31.7Z</time></trkpt><trkpt lat="39.3311657" lon="17.0274316"><ele>59.00000000000001</ele><time>2026-03-28T16:08:32.697Z</time></trkpt><trkpt lat="39.3312003" lon="17.0275627"><ele>59.0</ele><time>2026-03-28T16:08:33.692Z</time></trkpt><trkpt lat="39.3312645" lon="17.0277044"><ele>59.0</ele><time>2026-03-28T16:08:34.7Z</time></trkpt><trkpt lat="39.3313444" lon="17.0277982"><ele>59.400000000000006</ele><time>2026-03-28T16:08:35.7Z</time></trkpt><trkpt lat="39.3314418" lon="17.0278661"><ele>59.800000000000004</ele><time>2026-03-28T16:08:36.709Z</time></trkpt><trkpt lat="39.3315367" lon="17.0279319"><ele>60.199999999999996</ele><time>2026-03-28T16:08:37.693Z</time></trkpt><trkpt lat="39.3316257" lon="17.0279711"><ele>60.599999999999994</ele><time>2026-03-28T16:08:38.711Z</time></trkpt><trkpt lat="39.3316973" lon="17.0280172"><ele>61.0</ele><time>2026-03-28T16:08:39.703Z</time></trkpt><trkpt lat="39.3317672" lon="17.0280626"><ele>60.99999999999999</ele><time>2026-03-28T16:08:40.7Z</time></trkpt><trkpt lat="39.3318255" lon="17.0280989"><ele>61.0</ele><time>2026-03-28T16:08:41.7Z</time></trkpt><trkpt lat="39.3319053" lon="17.0281583"><ele>61.0</ele><time>2026-03-28T16:08:43.709Z</time></trkpt><trkpt lat="39.3319546" lon="17.0282135"><ele>61.0</ele><time>2026-03-28T16:08:45.711Z</time></trkpt><trkpt lat="39.3320048" lon="17.0282995"><ele>60.99999999999999</ele><time>2026-03-28T16:08:47.71Z</time></trkpt><trkpt lat="39.3320538" lon="17.0283658"><ele>61.0</ele><time>2026-03-28T16:08:48.698Z</time></trkpt><trkpt lat="39.3321056" lon="17.0284461"><ele>60.49999999999999</ele><time>2026-03-28T16:08:49.698Z</time></trkpt><trkpt lat="39.3321613" lon="17.0285198"><ele>60.0</ele><time>2026-03-28T16:08:50.698Z</time></trkpt><trkpt lat="39.3322136" lon="17.0286"><ele>59.5</ele><time>2026-03-28T16:08:51.698Z</time></trkpt><trkpt lat="39.3322619" lon="17.0286756"><ele>59.0</ele><time>2026-03-28T16:08:52.704Z</time></trkpt><trkpt lat="39.3322643" lon="17.0287749"><ele>58.49999999999999</ele><time>2026-03-28T16:08:53.697Z</time></trkpt><trkpt lat="39.3322496" lon="17.0288702"><ele>58.0</ele><time>2026-03-28T16:08:54.7Z</time></trkpt><trkpt lat="39.332241" lon="17.0289621"><ele>58.666666666666664</ele><time>2026-03-28T16:08:55.697Z</time></trkpt><trkpt lat="39.3322363" lon="17.0290506"><ele>59.33333333333333</ele><time>2026-03-28T16:08:56.709Z</time></trkpt><trkpt lat="39.3322735" lon="17.0291271"><ele>60.0</ele><time>2026-03-28T16:08:57.712Z</time></trkpt><trkpt lat="39.3323084" lon="17.0292157"><ele>60.66666666666667</ele><time>2026-03-28T16:08:58.696Z</time></trkpt><trkpt lat="39.3323364" lon="17.0293212"><ele>61.333333333333336</ele><time>2026-03-28T16:08:59.707Z</time></trkpt><trkpt lat="39.3323592" lon="17.029435"><ele>62.0</ele><time>2026-03-28T16:09:00.716Z</time></trkpt><trkpt lat="39.3323808" lon="17.0295505"><ele>62.00000000000001</ele><time>2026-03-28T16:09:01.696Z</time></trkpt><trkpt lat="39.3324076" lon="17.0296636"><ele>62.0</ele><time>2026-03-28T16:09:02.693Z</time></trkpt><trkpt lat="39.332447" lon="17.0297658"><ele>62.0</ele><time>2026-03-28T16:09:03.705Z</time></trkpt><trkpt lat="39.3324901" lon="17.0298458"><ele>62.0</ele><time>2026-03-28T16:09:04.696Z</time></trkpt><trkpt lat="39.3325519" lon="17.0299304"><ele>62.00000000000001</ele><time>2026-03-28T16:09:06.697Z</time></trkpt><trkpt lat="39.332615" lon="17.0299725"><ele>62.0</ele><time>2026-03-28T16:09:10.698Z</time></trkpt><trkpt lat="39.3326845" lon="17.0299672"><ele>62.0</ele><time>2026-03-28T16:09:12.711Z</time></trkpt><trkpt lat="39.3327692" lon="17.0299681"><ele>62.0</ele><time>2026-03-28T16:09:15.699Z</time></trkpt><trkpt lat="39.3328246" lon="17.0300567"><ele>62.0</ele><time>2026-03-28T16:09:17.697Z</time></trkpt><trkpt lat="39.3328578" lon="17.0301461"><ele>62.0</ele><time>2026-03-28T16:09:18.699Z</time></trkpt><trkpt lat="39.332916" lon="17.0302468"><ele>62.0</ele><time>2026-03-28T16:09:19.704Z</time></trkpt><trkpt lat="39.3329797" lon="17.0303627"><ele>61.00000000000001</ele><time>2026-03-28T16:09:20.702Z</time></trkpt><trkpt lat="39.3330554" lon="17.0304766"><ele>60.0</ele><time>2026-03-28T16:09:21.709Z</time></trkpt><trkpt lat="39.333112" lon="17.0305563"><ele>59.0</ele><time>2026-03-28T16:09:22.713Z</time></trkpt><trkpt lat="39.3331864" lon="17.0306413"><ele>58.0</ele><time>2026-03-28T16:09:24.698Z</time></trkpt><trkpt lat="39.3332367" lon="17.0306977"><ele>57.00000000000001</ele><time>2026-03-28T16:09:40.706Z</time></trkpt><trkpt lat="39.333308" lon="17.0307455"><ele>56.0</ele><time>2026-03-28T16:09:43.697Z</time></trkpt><trkpt lat="39.3333666" lon="17.0307824"><ele>55.0</ele><time>2026-03-28T16:09:45.697Z</time></trkpt><trkpt lat="39.333443" lon="17.0308311"><ele>53.99999999999999</ele><time>2026-03-28T16:09:47.698Z</time></trkpt><trkpt lat="39.3335515" lon="17.0308869"><ele>53.0</ele><time>2026-03-28T16:09:49.696Z</time></trkpt><trkpt lat="39.33362" lon="17.0309234"><ele>52.0</ele><time>2026-03-28T16:09:50.703Z</time></trkpt><trkpt lat="39.3336975" lon="17.0309709"><ele>51.0</ele><time>2026-03-28T16:09:51.702Z</time></trkpt><trkpt lat="39.3337804" lon="17.0310214"><ele>51.0</ele><time>2026-03-28T16:09:52.701Z</time></trkpt><trkpt lat="39.3338781" lon="17.0310737"><ele>51.0</ele><time>2026-03-28T16:09:53.699Z</time></trkpt><trkpt lat="39.3339957" lon="17.0311208"><ele>51.0</ele><time>2026-03-28T16:09:54.702Z</time></trkpt><trkpt lat="39.3340961" lon="17.0311798"><ele>51.0</ele><time>2026-03-28T16:09:55.701Z</time></trkpt><trkpt lat="39.3341969" lon="17.0312393"><ele>51.0</ele><time>2026-03-28T16:09:56.702Z</time></trkpt><trkpt lat="39.3342856" lon="17.0313513"><ele>51.0</ele><time>2026-03-28T16:09:57.703Z</time></trkpt><trkpt lat="39.3343732" lon="17.0314459"><ele>51.0</ele><time>2026-03-28T16:09:58.702Z</time></trkpt><trkpt lat="39.3344534" lon="17.0315289"><ele>51.0</ele><time>2026-03-28T16:09:59.696Z</time></trkpt><trkpt lat="39.3345172" lon="17.0315921"><ele>51.0</ele><time>2026-03-28T16:10:00.7Z</time></trkpt><trkpt lat="39.3345701" lon="17.0317004"><ele>51.0</ele><time>2026-03-28T16:10:02.706Z</time></trkpt><trkpt lat="39.3346187" lon="17.031809"><ele>51.0</ele><time>2026-03-28T16:10:05.708Z</time></trkpt><trkpt lat="39.3346762" lon="17.0319083"><ele>51.0</ele><time>2026-03-28T16:10:07.703Z</time></trkpt><trkpt lat="39.3347435" lon="17.0320347"><ele>51.0</ele><time>2026-03-28T16:10:09.705Z</time></trkpt><trkpt lat="39.3347947" lon="17.0321608"><ele>51.0</ele><time>2026-03-28T16:10:11.705Z</time></trkpt><trkpt lat="39.3348533" lon="17.0322994"><ele>51.0</ele><time>2026-03-28T16:10:13.707Z</time></trkpt><trkpt lat="39.3348887" lon="17.0323705"><ele>51.0</ele><time>2026-03-28T16:10:14.707Z</time></trkpt><trkpt lat="39.334926" lon="17.032441"><ele>51.0</ele><time>2026-03-28T16:10:15.707Z</time></trkpt><trkpt lat="39.3349867" lon="17.0324951"><ele>51.0</ele><time>2026-03-28T16:10:16.697Z</time></trkpt><trkpt lat="39.3350494" lon="17.0325468"><ele>51.0</ele><time>2026-03-28T16:10:17.7Z</time></trkpt><trkpt lat="39.3351189" lon="17.0325884"><ele>51.0</ele><time>2026-03-28T16:10:18.697Z</time></trkpt><trkpt lat="39.3351969" lon="17.0326126"><ele>51.0</ele><time>2026-03-28T16:10:19.699Z</time></trkpt><trkpt lat="39.3352763" lon="17.0326372"><ele>51.0</ele><time>2026-03-28T16:10:20.703Z</time></trkpt><trkpt lat="39.335352" lon="17.03269"><ele>51.0</ele><time>2026-03-28T16:10:21.702Z</time></trkpt><trkpt lat="39.3354309" lon="17.0327416"><ele>51.0</ele><time>2026-03-28T16:10:22.702Z</time></trkpt><trkpt lat="39.3355083" lon="17.032793"><ele>51.0</ele><time>2026-03-28T16:10:23.701Z</time></trkpt><trkpt lat="39.3355804" lon="17.0328462"><ele>51.0</ele><time>2026-03-28T16:10:24.699Z</time></trkpt><trkpt lat="39.3356528" lon="17.0328906"><ele>51.0</ele><time>2026-03-28T16:10:25.698Z</time></trkpt><trkpt lat="39.3357204" lon="17.0329231"><ele>51.0</ele><time>2026-03-28T16:10:26.703Z</time></trkpt><trkpt lat="39.3357769" lon="17.0329653"><ele>51.0</ele><time>2026-03-28T16:10:27.703Z</time></trkpt><trkpt lat="39.3358338" lon="17.0330166"><ele>51.0</ele><time>2026-03-28T16:10:28.7Z</time></trkpt><trkpt lat="39.3358759" lon="17.0330772"><ele>51.0</ele><time>2026-03-28T16:10:29.699Z</time></trkpt><trkpt lat="39.3359302" lon="17.0332225"><ele>51.0</ele><time>2026-03-28T16:10:31.701Z</time></trkpt><trkpt lat="39.3359473" lon="17.0333112"><ele>51.0</ele><time>2026-03-28T16:10:32.694Z</time></trkpt><trkpt lat="39.335944" lon="17.0333989"><ele>50.599999999999994</ele><time>2026-03-28T16:10:33.701Z</time></trkpt><trkpt lat="39.3359514" lon="17.0335404"><ele>50.2</ele><time>2026-03-28T16:10:35.701Z</time></trkpt><trkpt lat="39.3359731" lon="17.0336699"><ele>49.8</ele><time>2026-03-28T16:10:37.7Z</time></trkpt><trkpt lat="39.3359787" lon="17.0337853"><ele>49.400000000000006</ele><time>2026-03-28T16:10:39.71Z</time></trkpt><trkpt lat="39.3359791" lon="17.0338896"><ele>49.0</ele><time>2026-03-28T16:10:42.712Z</time></trkpt><trkpt lat="39.3360111" lon="17.0340054"><ele>49.0</ele><time>2026-03-28T16:10:46.711Z</time></trkpt><trkpt lat="39.3359916" lon="17.0341097"><ele>49.0</ele><time>2026-03-28T16:10:48.71Z</time></trkpt><trkpt lat="39.3359512" lon="17.0342292"><ele>49.0</ele><time>2026-03-28T16:10:50.698Z</time></trkpt><trkpt lat="39.3358816" lon="17.0343012"><ele>49.0</ele><time>2026-03-28T16:10:52.699Z</time></trkpt><trkpt lat="39.3358214" lon="17.0343437"><ele>49.0</ele><time>2026-03-28T16:10:55.703Z</time></trkpt><trkpt lat="39.3357808" lon="17.0345024"><ele>48.800000000000004</ele><time>2026-03-28T16:10:57.7Z</time></trkpt><trkpt lat="39.3357942" lon="17.0346185"><ele>48.6</ele><time>2026-03-28T16:10:58.701Z</time></trkpt><trkpt lat="39.335824" lon="17.0347377"><ele>48.4</ele><time>2026-03-28T16:10:59.702Z</time></trkpt><trkpt lat="39.3358537" lon="17.0348563"><ele>48.2</ele><time>2026-03-28T16:11:00.702Z</time></trkpt><trkpt lat="39.3358615" lon="17.0349782"><ele>48.0</ele><time>2026-03-28T16:11:01.698Z</time></trkpt><trkpt lat="39.3358706" lon="17.0351055"><ele>48.4</ele><time>2026-03-28T16:11:02.7Z</time></trkpt><trkpt lat="39.3358746" lon="17.0352401"><ele>48.8</ele><time>2026-03-28T16:11:03.708Z</time></trkpt><trkpt lat="39.3358684" lon="17.0353737"><ele>49.2</ele><time>2026-03-28T16:11:04.703Z</time></trkpt><trkpt lat="39.3358594" lon="17.0354979"><ele>49.6</ele><time>2026-03-28T16:11:05.708Z</time></trkpt><trkpt lat="39.3358568" lon="17.0356047"><ele>50.0</ele><time>2026-03-28T16:11:06.712Z</time></trkpt><trkpt lat="39.3358604" lon="17.035698"><ele>50.00000000000001</ele><time>2026-03-28T16:11:07.705Z</time></trkpt><trkpt lat="39.335861" lon="17.03581"><ele>50.0</ele><time>2026-03-28T16:11:09.705Z</time></trkpt><trkpt lat="39.335858" lon="17.0359011"><ele>50.0</ele><time>2026-03-28T16:11:12.712Z</time></trkpt><trkpt lat="39.3358535" lon="17.0359925"><ele>50.0</ele><time>2026-03-28T16:11:15.712Z</time></trkpt><trkpt lat="39.335839" lon="17.0361103"><ele>50.00000000000001</ele><time>2026-03-28T16:11:18.703Z</time></trkpt><trkpt lat="39.3358284" lon="17.0362151"><ele>50.0</ele><time>2026-03-28T16:11:20.709Z</time></trkpt><trkpt lat="39.3358104" lon="17.0363458"><ele>50.0</ele><time>2026-03-28T16:11:22.695Z</time></trkpt><trkpt lat="39.3357929" lon="17.0364961"><ele>50.0</ele><time>2026-03-28T16:11:24.704Z</time></trkpt><trkpt lat="39.3357784" lon="17.0366407"><ele>50.0</ele><time>2026-03-28T16:11:26.712Z</time></trkpt><trkpt lat="39.3357438" lon="17.036779"><ele>50.0</ele><time>2026-03-28T16:11:28.701Z</time></trkpt><trkpt lat="39.3357208" lon="17.0369499"><ele>49.66666666666667</ele><time>2026-03-28T16:11:30.706Z</time></trkpt><trkpt lat="39.3357108" lon="17.0370456"><ele>49.333333333333336</ele><time>2026-03-28T16:11:31.701Z</time></trkpt><trkpt lat="39.3357336" lon="17.0371317"><ele>49.0</ele><time>2026-03-28T16:11:32.699Z</time></trkpt><trkpt lat="39.335747" lon="17.0372151"><ele>48.66666666666667</ele><time>2026-03-28T16:11:33.699Z</time></trkpt><trkpt lat="39.3357613" lon="17.037363"><ele>48.333333333333336</ele><time>2026-03-28T16:11:35.703Z</time></trkpt><trkpt lat="39.3357659" lon="17.0374452"><ele>48.0</ele><time>2026-03-28T16:11:36.712Z</time></trkpt><trkpt lat="39.335769" lon="17.037533"><ele>47.857142857142854</ele><time>2026-03-28T16:11:37.702Z</time></trkpt><trkpt lat="39.33577" lon="17.0376181"><ele>47.714285714285715</ele><time>2026-03-28T16:11:38.7Z</time></trkpt><trkpt lat="39.3357711" lon="17.0377016"><ele>47.57142857142857</ele><time>2026-03-28T16:11:39.702Z</time></trkpt><trkpt lat="39.3357727" lon="17.0377831"><ele>47.42857142857143</ele><time>2026-03-28T16:11:40.701Z</time></trkpt><trkpt lat="39.3357846" lon="17.0378733"><ele>47.285714285714285</ele><time>2026-03-28T16:11:41.699Z</time></trkpt><trkpt lat="39.3357964" lon="17.0379655"><ele>47.14285714285714</ele><time>2026-03-28T16:11:42.706Z</time></trkpt><trkpt lat="39.3358115" lon="17.0380754"><ele>47.0</ele><time>2026-03-28T16:11:43.7Z</time></trkpt><trkpt lat="39.3358399" lon="17.038205"><ele>46.666666666666664</ele><time>2026-03-28T16:11:44.699Z</time></trkpt><trkpt lat="39.3358519" lon="17.0383332"><ele>46.33333333333333</ele><time>2026-03-28T16:11:45.704Z</time></trkpt><trkpt lat="39.3358586" lon="17.0384353"><ele>46.0</ele><time>2026-03-28T16:11:46.703Z</time></trkpt><trkpt lat="39.3358683" lon="17.0385461"><ele>45.666666666666664</ele><time>2026-03-28T16:11:47.704Z</time></trkpt><trkpt lat="39.3358811" lon="17.0386675"><ele>45.333333333333336</ele><time>2026-03-28T16:11:48.707Z</time></trkpt><trkpt lat="39.335866" lon="17.0387786"><ele>45.0</ele><time>2026-03-28T16:11:49.702Z</time></trkpt><trkpt lat="39.3358512" lon="17.0388753"><ele>45.0</ele><time>2026-03-28T16:11:50.706Z</time></trkpt><trkpt lat="39.3358348" lon="17.0389687"><ele>45.0</ele><time>2026-03-28T16:11:51.701Z</time></trkpt><trkpt lat="39.3358133" lon="17.0390731"><ele>45.0</ele><time>2026-03-28T16:11:52.701Z</time></trkpt><trkpt lat="39.3357883" lon="17.0391902"><ele>45.0</ele><time>2026-03-28T16:11:53.7Z</time></trkpt><trkpt lat="39.3357694" lon="17.0393402"><ele>45.0</ele><time>2026-03-28T16:11:54.702Z</time></trkpt><trkpt lat="39.3357672" lon="17.0395323"><ele>45.0</ele><time>2026-03-28T16:11:55.707Z</time></trkpt><trkpt lat="39.3357662" lon="17.0397285"><ele>45.0</ele><time>2026-03-28T16:11:56.708Z</time></trkpt><trkpt lat="39.3357463" lon="17.0399008"><ele>45.0</ele><time>2026-03-28T16:11:57.711Z</time></trkpt><trkpt lat="39.3357278" lon="17.0400091"><ele>45.0</ele><time>2026-03-28T16:11:58.702Z</time></trkpt><trkpt lat="39.3357205" lon="17.0400986"><ele>45.0</ele><time>2026-03-28T16:11:59.709Z</time></trkpt><trkpt lat="39.3357168" lon="17.0402581"><ele>45.0</ele><time>2026-03-28T16:12:01.694Z</time></trkpt><trkpt lat="39.3357107" lon="17.0403619"><ele>45.0</ele><time>2026-03-28T16:12:02.71Z</time></trkpt><trkpt lat="39.3356873" lon="17.040474"><ele>45.0</ele><time>2026-03-28T16:12:03.705Z</time></trkpt><trkpt lat="39.3356462" lon="17.0405657"><ele>45.0</ele><time>2026-03-28T16:12:04.697Z</time></trkpt><trkpt lat="39.335605" lon="17.0406548"><ele>45.0</ele><time>2026-03-28T16:12:05.697Z</time></trkpt><trkpt lat="39.3355724" lon="17.0407313"><ele>45.0</ele><time>2026-03-28T16:12:06.698Z</time></trkpt><trkpt lat="39.3355393" lon="17.0408293"><ele>45.6</ele><time>2026-03-28T16:12:07.703Z</time></trkpt><trkpt lat="39.3355101" lon="17.0409639"><ele>46.2</ele><time>2026-03-28T16:12:08.718Z</time></trkpt><trkpt lat="39.3354846" lon="17.0410922"><ele>46.8</ele><time>2026-03-28T16:12:09.704Z</time></trkpt><trkpt lat="39.3354953" lon="17.0412161"><ele>47.4</ele><time>2026-03-28T16:12:10.701Z</time></trkpt><trkpt lat="39.3355266" lon="17.0413232"><ele>48.0</ele><time>2026-03-28T16:12:11.709Z</time></trkpt><trkpt lat="39.3355769" lon="17.0414135"><ele>46.5</ele><time>2026-03-28T16:12:12.696Z</time></trkpt><trkpt lat="39.3356804" lon="17.0414612"><ele>45.0</ele><time>2026-03-28T16:12:13.704Z</time></trkpt><trkpt lat="39.3357983" lon="17.0414733"><ele>43.5</ele><time>2026-03-28T16:12:14.697Z</time></trkpt><trkpt lat="39.3359218" lon="17.0414942"><ele>42.0</ele><time>2026-03-28T16:12:15.699Z</time></trkpt><trkpt lat="39.3360644" lon="17.0414882"><ele>42.0</ele><time>2026-03-28T16:12:16.707Z</time></trkpt><trkpt lat="39.3361961" lon="17.0414818"><ele>42.0</ele><time>2026-03-28T16:12:17.707Z</time></trkpt><trkpt lat="39.3363073" lon="17.041465"><ele>42.0</ele><time>2026-03-28T16:12:18.701Z</time></trkpt><trkpt lat="39.3364037" lon="17.0414454"><ele>42.0</ele><time>2026-03-28T16:12:19.706Z</time></trkpt><trkpt lat="39.3364776" lon="17.0414432"><ele>42.0</ele><time>2026-03-28T16:12:20.714Z</time></trkpt><trkpt lat="39.3365734" lon="17.0414664"><ele>42.0</ele><time>2026-03-28T16:12:22.707Z</time></trkpt><trkpt lat="39.3366408" lon="17.0415369"><ele>42.0</ele><time>2026-03-28T16:12:26.708Z</time></trkpt><trkpt lat="39.3366937" lon="17.0415959"><ele>42.0</ele><time>2026-03-28T16:12:33.709Z</time></trkpt><trkpt lat="39.3367308" lon="17.041677"><ele>42.0</ele><time>2026-03-28T16:12:36.707Z</time></trkpt><trkpt lat="39.336756" lon="17.0417711"><ele>42.0</ele><time>2026-03-28T16:12:38.702Z</time></trkpt><trkpt lat="39.3367878" lon="17.0418937"><ele>42.0</ele><time>2026-03-28T16:12:40.698Z</time></trkpt><trkpt lat="39.3368262" lon="17.0420502"><ele>42.0</ele><time>2026-03-28T16:12:42.71Z</time></trkpt><trkpt lat="39.3368479" lon="17.0421317"><ele>42.0</ele><time>2026-03-28T16:12:43.71Z</time></trkpt><trkpt lat="39.3368674" lon="17.0422828"><ele>42.0</ele><time>2026-03-28T16:12:45.705Z</time></trkpt><trkpt lat="39.3368687" lon="17.0424436"><ele>42.0</ele><time>2026-03-28T16:12:47.705Z</time></trkpt><trkpt lat="39.3368664" lon="17.0425392"><ele>42.0</ele><time>2026-03-28T16:12:48.71Z</time></trkpt><trkpt lat="39.3368661" lon="17.0426454"><ele>41.6</ele><time>2026-03-28T16:12:49.702Z</time></trkpt><trkpt lat="39.3368756" lon="17.0427573"><ele>41.2</ele><time>2026-03-28T16:12:50.706Z</time></trkpt><trkpt lat="39.336894" lon="17.0428736"><ele>40.8</ele><time>2026-03-28T16:12:51.701Z</time></trkpt><trkpt lat="39.3369196" lon="17.042997"><ele>40.4</ele><time>2026-03-28T16:12:52.704Z</time></trkpt><trkpt lat="39.3369554" lon="17.0431257"><ele>40.0</ele><time>2026-03-28T16:12:53.703Z</time></trkpt><trkpt lat="39.3369883" lon="17.0432659"><ele>40.333333333333336</ele><time>2026-03-28T16:12:54.703Z</time></trkpt><trkpt lat="39.3369896" lon="17.0434055"><ele>40.66666666666667</ele><time>2026-03-28T16:12:55.696Z</time></trkpt><trkpt lat="39.3369738" lon="17.0435344"><ele>41.0</ele><time>2026-03-28T16:12:56.704Z</time></trkpt><trkpt lat="39.3369572" lon="17.0436431"><ele>41.333333333333336</ele><time>2026-03-28T16:12:57.703Z</time></trkpt><trkpt lat="39.3369314" lon="17.0437536"><ele>41.666666666666664</ele><time>2026-03-28T16:12:59.701Z</time></trkpt><trkpt lat="39.3369056" lon="17.0438283"><ele>42.0</ele><time>2026-03-28T16:13:02.701Z</time></trkpt><trkpt lat="39.3368965" lon="17.0439464"><ele>42.0</ele><time>2026-03-28T16:13:05.703Z</time></trkpt><trkpt lat="39.3368892" lon="17.0440721"><ele>42.0</ele><time>2026-03-28T16:13:08.707Z</time></trkpt><trkpt lat="39.336895" lon="17.0441787"><ele>42.0</ele><time>2026-03-28T16:13:10.699Z</time></trkpt><trkpt lat="39.3369014" lon="17.0442785"><ele>42.0</ele><time>2026-03-28T16:13:12.703Z</time></trkpt><trkpt lat="39.3369217" lon="17.0444237"><ele>42.0</ele><time>2026-03-28T16:13:14.718Z</time></trkpt><trkpt lat="39.3369401" lon="17.0445116"><ele>42.0</ele><time>2026-03-28T16:13:15.71Z</time></trkpt><trkpt lat="39.3369664" lon="17.0446048"><ele>42.0</ele><time>2026-03-28T16:13:16.706Z</time></trkpt><trkpt lat="39.3369925" lon="17.0447064"><ele>42.0</ele><time>2026-03-28T16:13:17.697Z</time></trkpt><trkpt lat="39.3370156" lon="17.0448145"><ele>42.0</ele><time>2026-03-28T16:13:18.699Z</time></trkpt><trkpt lat="39.3370348" lon="17.0449302"><ele>42.0</ele><time>2026-03-28T16:13:19.704Z</time></trkpt><trkpt lat="39.3370556" lon="17.0450475"><ele>42.0</ele><time>2026-03-28T16:13:20.703Z</time></trkpt><trkpt lat="39.337071" lon="17.0451518"><ele>42.0</ele><time>2026-03-28T16:13:21.704Z</time></trkpt><trkpt lat="39.3370729" lon="17.0452362"><ele>42.0</ele><time>2026-03-28T16:13:22.705Z</time></trkpt><trkpt lat="39.3370668" lon="17.0453284"><ele>42.0</ele><time>2026-03-28T16:13:24.701Z</time></trkpt><trkpt lat="39.3370644" lon="17.0454612"><ele>42.0</ele><time>2026-03-28T16:13:27.709Z</time></trkpt><trkpt lat="39.3370639" lon="17.0455968"><ele>42.0</ele><time>2026-03-28T16:13:29.705Z</time></trkpt><trkpt lat="39.337073" lon="17.045686"><ele>42.0</ele><time>2026-03-28T16:13:30.704Z</time></trkpt><trkpt lat="39.3370838" lon="17.0457842"><ele>42.0</ele><time>2026-03-28T16:13:31.697Z</time></trkpt><trkpt lat="39.3370984" lon="17.0458931"><ele>42.2</ele><time>2026-03-28T16:13:32.702Z</time></trkpt><trkpt lat="39.337116" lon="17.0460131"><ele>42.400000000000006</ele><time>2026-03-28T16:13:33.696Z</time></trkpt><trkpt lat="39.3371405" lon="17.0461421"><ele>42.599999999999994</ele><time>2026-03-28T16:13:34.703Z</time></trkpt><trkpt lat="39.3371718" lon="17.0462788"><ele>42.8</ele><time>2026-03-28T16:13:35.703Z</time></trkpt><trkpt lat="39.3372032" lon="17.0464191"><ele>43.0</ele><time>2026-03-28T16:13:36.7Z</time></trkpt><trkpt lat="39.3372215" lon="17.0465472"><ele>43.0</ele><time>2026-03-28T16:13:37.701Z</time></trkpt><trkpt lat="39.3372112" lon="17.0466712"><ele>43.0</ele><time>2026-03-28T16:13:38.699Z</time></trkpt><trkpt lat="39.3371929" lon="17.0468098"><ele>43.0</ele><time>2026-03-28T16:13:39.707Z</time></trkpt><trkpt lat="39.3371827" lon="17.0469773"><ele>43.0</ele><time>2026-03-28T16:13:40.701Z</time></trkpt><trkpt lat="39.3371635" lon="17.0471462"><ele>43.0</ele><time>2026-03-28T16:13:41.701Z</time></trkpt><trkpt lat="39.3371459" lon="17.047303"><ele>43.0</ele><time>2026-03-28T16:13:42.698Z</time></trkpt><trkpt lat="39.3371242" lon="17.0473941"><ele>43.0</ele><time>2026-03-28T16:13:43.711Z</time></trkpt><trkpt lat="39.3370313" lon="17.0474208"><ele>43.0</ele><time>2026-03-28T16:13:45.709Z</time></trkpt><trkpt lat="39.3369751" lon="17.0474603"><ele>43.0</ele><time>2026-03-28T16:13:46.717Z</time></trkpt><trkpt lat="39.3369209" lon="17.0475262"><ele>43.0</ele><time>2026-03-28T16:13:47.696Z</time></trkpt><trkpt lat="39.3368894" lon="17.0475975"><ele>42.85714285714286</ele><time>2026-03-28T16:13:48.697Z</time></trkpt><trkpt lat="39.3368617" lon="17.0476852"><ele>42.714285714285715</ele><time>2026-03-28T16:13:50.715Z</time></trkpt><trkpt lat="39.336842" lon="17.0477646"><ele>42.57142857142857</ele><time>2026-03-28T16:13:52.71Z</time></trkpt><trkpt lat="39.3368093" lon="17.047848"><ele>42.42857142857143</ele><time>2026-03-28T16:13:54.719Z</time></trkpt><trkpt lat="39.336817" lon="17.0479405"><ele>42.285714285714285</ele><time>2026-03-28T16:13:57.701Z</time></trkpt><trkpt lat="39.33681" lon="17.0480364"><ele>42.142857142857146</ele><time>2026-03-28T16:14:00.711Z</time></trkpt><trkpt lat="39.336796" lon="17.0481349"><ele>42.0</ele><time>2026-03-28T16:14:02.713Z</time></trkpt><trkpt lat="39.3367852" lon="17.0482941"><ele>42.0</ele><time>2026-03-28T16:14:04.71Z</time></trkpt><trkpt lat="39.3367887" lon="17.0483865"><ele>42.0</ele><time>2026-03-28T16:14:05.714Z</time></trkpt><trkpt lat="39.3368003" lon="17.0484844"><ele>42.0</ele><time>2026-03-28T16:14:06.709Z</time></trkpt><trkpt lat="39.3368081" lon="17.048585"><ele>42.0</ele><time>2026-03-28T16:14:07.705Z</time></trkpt><trkpt lat="39.3368198" lon="17.0486902"><ele>42.0</ele><time>2026-03-28T16:14:08.704Z</time></trkpt><trkpt lat="39.3368343" lon="17.0487876"><ele>42.0</ele><time>2026-03-28T16:14:09.706Z</time></trkpt><trkpt lat="39.3368474" lon="17.0488752"><ele>42.0</ele><time>2026-03-28T16:14:10.704Z</time></trkpt><trkpt lat="39.3368587" lon="17.0489601"><ele>42.0</ele><time>2026-03-28T16:14:11.701Z</time></trkpt><trkpt lat="39.3368699" lon="17.0490454"><ele>42.0</ele><time>2026-03-28T16:14:12.697Z</time></trkpt><trkpt lat="39.336881" lon="17.0491314"><ele>42.0</ele><time>2026-03-28T16:14:13.697Z</time></trkpt><trkpt lat="39.3368906" lon="17.0492194"><ele>42.0</ele><time>2026-03-28T16:14:14.701Z</time></trkpt><trkpt lat="39.3369" lon="17.0493109"><ele>42.0</ele><time>2026-03-28T16:14:15.699Z</time></trkpt><trkpt lat="39.3369114" lon="17.0494038"><ele>42.0</ele><time>2026-03-28T16:14:16.708Z</time></trkpt><trkpt lat="39.3369271" lon="17.0494963"><ele>41.75</ele><time>2026-03-28T16:14:17.708Z</time></trkpt><trkpt lat="39.336945" lon="17.049604"><ele>41.5</ele><time>2026-03-28T16:14:18.712Z</time></trkpt><trkpt lat="39.3369634" lon="17.0497363"><ele>41.25</ele><time>2026-03-28T16:14:19.703Z</time></trkpt><trkpt lat="39.3369854" lon="17.0498935"><ele>41.0</ele><time>2026-03-28T16:14:20.714Z</time></trkpt><trkpt lat="39.3370134" lon="17.0500772"><ele>40.33333333333333</ele><time>2026-03-28T16:14:21.71Z</time></trkpt><trkpt lat="39.3370406" lon="17.0502898"><ele>39.666666666666664</ele><time>2026-03-28T16:14:22.699Z</time></trkpt><trkpt lat="39.3370672" lon="17.0504932"><ele>39.0</ele><time>2026-03-28T16:14:23.698Z</time></trkpt><trkpt lat="39.3370903" lon="17.0506634"><ele>39.25</ele><time>2026-03-28T16:14:24.704Z</time></trkpt><trkpt lat="39.3371141" lon="17.0508146"><ele>39.5</ele><time>2026-03-28T16:14:25.702Z</time></trkpt><trkpt lat="39.3371257" lon="17.0509665"><ele>39.75</ele><time>2026-03-28T16:14:26.71Z</time></trkpt><trkpt lat="39.3371365" lon="17.0511221"><ele>40.0</ele><time>2026-03-28T16:14:27.701Z</time></trkpt><trkpt lat="39.3371424" lon="17.0512898"><ele>40.0</ele><time>2026-03-28T16:14:28.704Z</time></trkpt><trkpt lat="39.3371464" lon="17.0514434"><ele>40.0</ele><time>2026-03-28T16:14:29.711Z</time></trkpt><trkpt lat="39.3371449" lon="17.0515744"><ele>40.0</ele><time>2026-03-28T16:14:30.703Z</time></trkpt><trkpt lat="39.3371506" lon="17.0516686"><ele>40.0</ele><time>2026-03-28T16:14:31.698Z</time></trkpt><trkpt lat="39.3371508" lon="17.0518039"><ele>40.0</ele><time>2026-03-28T16:14:33.71Z</time></trkpt><trkpt lat="39.3371467" lon="17.0518944"><ele>39.8</ele><time>2026-03-28T16:14:34.697Z</time></trkpt><trkpt lat="39.3371356" lon="17.0519949"><ele>39.6</ele><time>2026-03-28T16:14:35.711Z</time></trkpt><trkpt lat="39.3371171" lon="17.0521092"><ele>39.4</ele><time>2026-03-28T16:14:36.706Z</time></trkpt><trkpt lat="39.3371011" lon="17.0522344"><ele>39.2</ele><time>2026-03-28T16:14:37.7Z</time></trkpt><trkpt lat="39.3370878" lon="17.0523702"><ele>39.0</ele><time>2026-03-28T16:14:38.71Z</time></trkpt><trkpt lat="39.3370702" lon="17.0525118"><ele>38.8</ele><time>2026-03-28T16:14:39.713Z</time></trkpt><trkpt lat="39.3370476" lon="17.0526529"><ele>38.599999999999994</ele><time>2026-03-28T16:14:40.714Z</time></trkpt><trkpt lat="39.3370173" lon="17.0527744"><ele>38.4</ele><time>2026-03-28T16:14:41.71Z</time></trkpt><trkpt lat="39.3369789" lon="17.0528765"><ele>38.199999999999996</ele><time>2026-03-28T16:14:42.702Z</time></trkpt><trkpt lat="39.3369499" lon="17.0529657"><ele>38.0</ele><time>2026-03-28T16:14:43.699Z</time></trkpt><trkpt lat="39.3369554" lon="17.0531008"><ele>38.0</ele><time>2026-03-28T16:14:45.704Z</time></trkpt><trkpt lat="39.3370252" lon="17.0531077"><ele>38.0</ele><time>2026-03-28T16:14:46.704Z</time></trkpt><trkpt lat="39.3371017" lon="17.0530804"><ele>38.0</ele><time>2026-03-28T16:14:47.711Z</time></trkpt><trkpt lat="39.3371586" lon="17.05303"><ele>38.0</ele><time>2026-03-28T16:14:48.702Z</time></trkpt><trkpt lat="39.3372745" lon="17.0529947"><ele>38.0</ele><time>2026-03-28T16:14:50.706Z</time></trkpt><trkpt lat="39.3373471" lon="17.0529958"><ele>38.0</ele><time>2026-03-28T16:14:51.707Z</time></trkpt><trkpt lat="39.3374029" lon="17.053035"><ele>37.8</ele><time>2026-03-28T16:14:52.714Z</time></trkpt><trkpt lat="39.3374964" lon="17.0530915"><ele>37.599999999999994</ele><time>2026-03-28T16:14:54.698Z</time></trkpt><trkpt lat="39.3375733" lon="17.0531737"><ele>37.400000000000006</ele><time>2026-03-28T16:14:56.707Z</time></trkpt><trkpt lat="39.3376195" lon="17.0532457"><ele>37.2</ele><time>2026-03-28T16:14:58.708Z</time></trkpt><trkpt lat="39.3376722" lon="17.0533516"><ele>37.0</ele><time>2026-03-28T16:15:01.699Z</time></trkpt><trkpt lat="39.337737" lon="17.053451"><ele>37.333333333333336</ele><time>2026-03-28T16:15:03.7Z</time></trkpt><trkpt lat="39.3378165" lon="17.0535805"><ele>37.66666666666667</ele><time>2026-03-28T16:15:05.709Z</time></trkpt><trkpt lat="39.3378608" lon="17.0536556"><ele>38.0</ele><time>2026-03-28T16:15:06.711Z</time></trkpt><trkpt lat="39.3379143" lon="17.0537322"><ele>38.333333333333336</ele><time>2026-03-28T16:15:07.698Z</time></trkpt><trkpt lat="39.3379606" lon="17.053803"><ele>38.666666666666664</ele><time>2026-03-28T16:15:08.709Z</time></trkpt><trkpt lat="39.3380187" lon="17.0538797"><ele>39.0</ele><time>2026-03-28T16:15:10.703Z</time></trkpt><trkpt lat="39.3380459" lon="17.053961"><ele>39.0</ele><time>2026-03-28T16:15:25.705Z</time></trkpt><trkpt lat="39.3380206" lon="17.0538676"><ele>39.0</ele><time>2026-03-28T16:15:28.706Z</time></trkpt><trkpt lat="39.337972" lon="17.0537961"><ele>39.0</ele><time>2026-03-28T16:15:30.7Z</time></trkpt><trkpt lat="39.3379104" lon="17.0537344"><ele>39.0</ele><time>2026-03-28T16:15:33.706Z</time></trkpt><trkpt lat="39.3378628" lon="17.0536565"><ele>39.0</ele><time>2026-03-28T16:15:36.7Z</time></trkpt><trkpt lat="39.3378269" lon="17.0535703"><ele>39.0</ele><time>2026-03-28T16:15:40.702Z</time></trkpt><trkpt lat="39.3377827" lon="17.0534974"><ele>39.0</ele><time>2026-03-28T16:15:44.703Z</time></trkpt><trkpt lat="39.3377368" lon="17.0534338"><ele>39.0</ele><time>2026-03-28T16:15:48.701Z</time></trkpt><trkpt lat="39.3377207" lon="17.0533319"><ele>39.0</ele><time>2026-03-28T16:19:01.712Z</time></trkpt><trkpt lat="39.3377491" lon="17.0532588"><ele>39.0</ele><time>2026-03-28T16:19:03.702Z</time></trkpt><trkpt lat="39.3377937" lon="17.05318"><ele>39.0</ele><time>2026-03-28T16:19:06.708Z</time></trkpt><trkpt lat="39.3378049" lon="17.0530846"><ele>39.0</ele><time>2026-03-28T16:19:09.702Z</time></trkpt><trkpt lat="39.3378005" lon="17.0530018"><ele>39.0</ele><time>2026-03-28T16:19:23.704Z</time></trkpt><trkpt lat="39.3377329" lon="17.0530284"><ele>39.0</ele><time>2026-03-28T16:19:27.705Z</time></trkpt><trkpt lat="39.3377273" lon="17.0531207"><ele>39.0</ele><time>2026-03-28T16:19:31.699Z</time></trkpt><trkpt lat="39.337711" lon="17.0532076"><ele>39.0</ele><time>2026-03-28T16:19:42.705Z</time></trkpt><trkpt lat="39.3377046" lon="17.053306"><ele>39.0</ele><time>2026-03-28T16:20:05.715Z</time></trkpt><trkpt lat="39.3377101" lon="17.053391"><ele>39.0</ele><time>2026-03-28T16:20:07.7Z</time></trkpt><trkpt lat="39.3377233" lon="17.0534896"><ele>39.0</ele><time>2026-03-28T16:20:10.705Z</time></trkpt><trkpt lat="39.3376623" lon="17.0535681"><ele>39.0</ele><time>2026-03-28T16:21:54.705Z</time></trkpt><trkpt lat="39.3376169" lon="17.0536345"><ele>39.0</ele><time>2026-03-28T16:21:56.711Z</time></trkpt><trkpt lat="39.3376028" lon="17.0537517"><ele>39.0</ele><time>2026-03-28T16:21:58.702Z</time></trkpt><trkpt lat="39.3376018" lon="17.0539053"><ele>39.0</ele><time>2026-03-28T16:22:00.713Z</time></trkpt><trkpt lat="39.3375801" lon="17.0540203"><ele>39.0</ele><time>2026-03-28T16:22:02.7Z</time></trkpt><trkpt lat="39.3375463" lon="17.054114"><ele>39.0</ele><time>2026-03-28T16:22:04.7Z</time></trkpt><trkpt lat="39.3375329" lon="17.0542172"><ele>38.666666666666664</ele><time>2026-03-28T16:22:06.706Z</time></trkpt><trkpt lat="39.3375594" lon="17.0543052"><ele>38.333333333333336</ele><time>2026-03-28T16:22:08.705Z</time></trkpt><trkpt lat="39.3375653" lon="17.0544101"><ele>38.0</ele><time>2026-03-28T16:23:35.718Z</time></trkpt><trkpt lat="39.3375631" lon="17.0545075"><ele>37.66666666666667</ele><time>2026-03-28T16:23:37.711Z</time></trkpt><trkpt lat="39.3375638" lon="17.0545969"><ele>37.333333333333336</ele><time>2026-03-28T16:23:39.701Z</time></trkpt><trkpt lat="39.3374946" lon="17.0545313"><ele>37.0</ele><time>2026-03-28T16:23:43.702Z</time></trkpt><trkpt lat="39.3374916" lon="17.0543725"><ele>37.0</ele><time>2026-03-28T16:23:45.708Z</time></trkpt><trkpt lat="39.3375086" lon="17.0542733"><ele>37.0</ele><time>2026-03-28T16:23:47.698Z</time></trkpt><trkpt lat="39.3375239" lon="17.0541929"><ele>37.0</ele><time>2026-03-28T16:23:49.701Z</time></trkpt><trkpt lat="39.3375455" lon="17.0541015"><ele>37.0</ele><time>2026-03-28T16:23:51.7Z</time></trkpt><trkpt lat="39.3375792" lon="17.05402"><ele>37.0</ele><time>2026-03-28T16:23:53.702Z</time></trkpt><trkpt lat="39.337606" lon="17.0539059"><ele>37.0</ele><time>2026-03-28T16:23:55.701Z</time></trkpt><trkpt lat="39.337617" lon="17.0538013"><ele>37.285714285714285</ele><time>2026-03-28T16:23:56.699Z</time></trkpt><trkpt lat="39.3376307" lon="17.0537172"><ele>37.57142857142857</ele><time>2026-03-28T16:23:57.704Z</time></trkpt><trkpt lat="39.3376646" lon="17.0536083"><ele>37.85714285714286</ele><time>2026-03-28T16:23:59.707Z</time></trkpt><trkpt lat="39.3377134" lon="17.0535401"><ele>38.14285714285714</ele><time>2026-03-28T16:24:01.712Z</time></trkpt><trkpt lat="39.337783" lon="17.0535276"><ele>38.42857142857142</ele><time>2026-03-28T16:24:04.7Z</time></trkpt><trkpt lat="39.3378369" lon="17.0535883"><ele>38.714285714285715</ele><time>2026-03-28T16:24:06.721Z</time></trkpt><trkpt lat="39.3378759" lon="17.0536719"><ele>39.0</ele><time>2026-03-28T16:24:08.705Z</time></trkpt><trkpt lat="39.3379189" lon="17.0537461"><ele>39.0</ele><time>2026-03-28T16:24:40.708Z</time></trkpt><trkpt lat="39.3379607" lon="17.0538186"><ele>39.0</ele><time>2026-03-28T16:24:46.712Z</time></trkpt><trkpt lat="39.3380294" lon="17.0539136"><ele>39.0</ele><time>2026-03-28T16:29:00.702Z</time></trkpt><trkpt lat="39.3381392" lon="17.0539973"><ele>39.0</ele><time>2026-03-28T16:29:02.703Z</time></trkpt><trkpt lat="39.338201" lon="17.0540477"><ele>39.0</ele><time>2026-03-28T16:29:03.709Z</time></trkpt><trkpt lat="39.3382612" lon="17.0540926"><ele>39.0</ele><time>2026-03-28T16:29:04.706Z</time></trkpt><trkpt lat="39.3383238" lon="17.0541392"><ele>39.0</ele><time>2026-03-28T16:29:05.703Z</time></trkpt><trkpt lat="39.3383773" lon="17.0542124"><ele>39.0</ele><time>2026-03-28T16:29:06.706Z</time></trkpt><trkpt lat="39.3384133" lon="17.0542996"><ele>39.0</ele><time>2026-03-28T16:29:07.713Z</time></trkpt><trkpt lat="39.3384475" lon="17.0543807"><ele>39.0</ele><time>2026-03-28T16:29:08.707Z</time></trkpt><trkpt lat="39.3384691" lon="17.054518"><ele>39.0</ele><time>2026-03-28T16:29:10.703Z</time></trkpt><trkpt lat="39.3384708" lon="17.0546889"><ele>39.0</ele><time>2026-03-28T16:29:12.704Z</time></trkpt><trkpt lat="39.3384794" lon="17.0547787"><ele>39.0</ele><time>2026-03-28T16:29:13.708Z</time></trkpt><trkpt lat="39.3384925" lon="17.0548672"><ele>39.0</ele><time>2026-03-28T16:29:14.713Z</time></trkpt><trkpt lat="39.3385141" lon="17.0549565"><ele>39.0</ele><time>2026-03-28T16:29:15.703Z</time></trkpt><trkpt lat="39.3385385" lon="17.0550439"><ele>39.0</ele><time>2026-03-28T16:29:16.706Z</time></trkpt><trkpt lat="39.3385635" lon="17.0551337"><ele>39.0</ele><time>2026-03-28T16:29:17.704Z</time></trkpt><trkpt lat="39.3385886" lon="17.055223"><ele>39.0</ele><time>2026-03-28T16:29:18.704Z</time></trkpt><trkpt lat="39.3386144" lon="17.0553124"><ele>39.2</ele><time>2026-03-28T16:29:19.703Z</time></trkpt><trkpt lat="39.3386374" lon="17.0553912"><ele>39.4</ele><time>2026-03-28T16:29:20.702Z</time></trkpt><trkpt lat="39.3386877" lon="17.0555405"><ele>39.6</ele><time>2026-03-28T16:29:22.702Z</time></trkpt><trkpt lat="39.3387164" lon="17.0556144"><ele>39.8</ele><time>2026-03-28T16:29:23.7Z</time></trkpt><trkpt lat="39.3387622" lon="17.0557509"><ele>40.0</ele><time>2026-03-28T16:29:25.7Z</time></trkpt><trkpt lat="39.3387933" lon="17.0558689"><ele>39.6</ele><time>2026-03-28T16:29:27.699Z</time></trkpt><trkpt lat="39.3388222" lon="17.0559777"><ele>39.2</ele><time>2026-03-28T16:29:29.704Z</time></trkpt><trkpt lat="39.3388636" lon="17.0561234"><ele>38.8</ele><time>2026-03-28T16:29:31.704Z</time></trkpt><trkpt lat="39.3388919" lon="17.0562269"><ele>38.4</ele><time>2026-03-28T16:29:32.706Z</time></trkpt><trkpt lat="39.3389253" lon="17.0563463"><ele>38.0</ele><time>2026-03-28T16:29:33.7Z</time></trkpt><trkpt lat="39.3389584" lon="17.0564729"><ele>38.8</ele><time>2026-03-28T16:29:34.701Z</time></trkpt><trkpt lat="39.3389927" lon="17.0566056"><ele>39.599999999999994</ele><time>2026-03-28T16:29:35.702Z</time></trkpt><trkpt lat="39.339025" lon="17.0567421"><ele>40.400000000000006</ele><time>2026-03-28T16:29:36.702Z</time></trkpt><trkpt lat="39.3390436" lon="17.0568811"><ele>41.2</ele><time>2026-03-28T16:29:37.718Z</time></trkpt><trkpt lat="39.3390471" lon="17.0570145"><ele>42.0</ele><time>2026-03-28T16:29:38.699Z</time></trkpt><trkpt lat="39.339042" lon="17.0571399"><ele>42.0</ele><time>2026-03-28T16:29:39.7Z</time></trkpt><trkpt lat="39.3390336" lon="17.0572568"><ele>42.0</ele><time>2026-03-28T16:29:40.711Z</time></trkpt><trkpt lat="39.3390254" lon="17.0573683"><ele>42.0</ele><time>2026-03-28T16:29:41.715Z</time></trkpt><trkpt lat="39.3390169" lon="17.0574756"><ele>42.0</ele><time>2026-03-28T16:29:42.712Z</time></trkpt><trkpt lat="39.3390083" lon="17.057569"><ele>42.0</ele><time>2026-03-28T16:29:43.737Z</time></trkpt><trkpt lat="39.3390002" lon="17.0576568"><ele>42.0</ele><time>2026-03-28T16:29:44.705Z</time></trkpt><trkpt lat="39.3389946" lon="17.057742"><ele>42.0</ele><time>2026-03-28T16:29:45.717Z</time></trkpt><trkpt lat="39.3389906" lon="17.0578925"><ele>42.0</ele><time>2026-03-28T16:29:47.704Z</time></trkpt><trkpt lat="39.3389994" lon="17.0580398"><ele>42.0</ele><time>2026-03-28T16:29:49.711Z</time></trkpt><trkpt lat="39.3390277" lon="17.0582011"><ele>42.0</ele><time>2026-03-28T16:29:51.708Z</time></trkpt><trkpt lat="39.3390514" lon="17.0582892"><ele>42.0</ele><time>2026-03-28T16:29:52.706Z</time></trkpt><trkpt lat="39.3390789" lon="17.0583828"><ele>42.0</ele><time>2026-03-28T16:29:53.703Z</time></trkpt><trkpt lat="39.3391097" lon="17.0584813"><ele>42.0</ele><time>2026-03-28T16:29:54.713Z</time></trkpt><trkpt lat="39.3391397" lon="17.058576"><ele>42.0</ele><time>2026-03-28T16:29:55.697Z</time></trkpt><trkpt lat="39.3391678" lon="17.0586613"><ele>42.0</ele><time>2026-03-28T16:29:56.706Z</time></trkpt><trkpt lat="39.3391932" lon="17.0587361"><ele>42.0</ele><time>2026-03-28T16:29:57.7Z</time></trkpt><trkpt lat="39.3392416" lon="17.0588914"><ele>42.0</ele><time>2026-03-28T16:29:59.708Z</time></trkpt><trkpt lat="39.3392675" lon="17.0589802"><ele>42.0</ele><time>2026-03-28T16:30:00.701Z</time></trkpt><trkpt lat="39.3392955" lon="17.0590697"><ele>42.0</ele><time>2026-03-28T16:30:01.7Z</time></trkpt><trkpt lat="39.3393245" lon="17.059159"><ele>42.0</ele><time>2026-03-28T16:30:02.707Z</time></trkpt><trkpt lat="39.3393498" lon="17.0592369"><ele>42.0</ele><time>2026-03-28T16:30:03.699Z</time></trkpt><trkpt lat="39.3393996" lon="17.0593911"><ele>42.0</ele><time>2026-03-28T16:30:05.702Z</time></trkpt><trkpt lat="39.3394267" lon="17.0594777"><ele>42.0</ele><time>2026-03-28T16:30:06.707Z</time></trkpt><trkpt lat="39.3394697" lon="17.0596328"><ele>41.857142857142854</ele><time>2026-03-28T16:30:08.713Z</time></trkpt><trkpt lat="39.3394893" lon="17.0597198"><ele>41.714285714285715</ele><time>2026-03-28T16:30:09.705Z</time></trkpt><trkpt lat="39.3395082" lon="17.0598134"><ele>41.57142857142857</ele><time>2026-03-28T16:30:10.706Z</time></trkpt><trkpt lat="39.3395258" lon="17.0599006"><ele>41.42857142857143</ele><time>2026-03-28T16:30:11.707Z</time></trkpt><trkpt lat="39.3395449" lon="17.0599946"><ele>41.285714285714285</ele><time>2026-03-28T16:30:12.703Z</time></trkpt><trkpt lat="39.3395676" lon="17.060084"><ele>41.14285714285714</ele><time>2026-03-28T16:30:13.704Z</time></trkpt><trkpt lat="39.3395906" lon="17.0601725"><ele>41.0</ele><time>2026-03-28T16:30:14.702Z</time></trkpt><trkpt lat="39.3396172" lon="17.0602784"><ele>40.33333333333333</ele><time>2026-03-28T16:30:15.698Z</time></trkpt><trkpt lat="39.339646" lon="17.0603957"><ele>39.666666666666664</ele><time>2026-03-28T16:30:16.703Z</time></trkpt><trkpt lat="39.3396684" lon="17.0604993"><ele>39.0</ele><time>2026-03-28T16:30:17.701Z</time></trkpt><trkpt lat="39.3396865" lon="17.0605986"><ele>38.333333333333336</ele><time>2026-03-28T16:30:18.706Z</time></trkpt><trkpt lat="39.3396997" lon="17.0607043"><ele>37.66666666666667</ele><time>2026-03-28T16:30:19.705Z</time></trkpt><trkpt lat="39.3397069" lon="17.060811"><ele>37.0</ele><time>2026-03-28T16:30:20.704Z</time></trkpt><trkpt lat="39.3397096" lon="17.060919"><ele>36.66666666666667</ele><time>2026-03-28T16:30:21.701Z</time></trkpt><trkpt lat="39.3397123" lon="17.0610308"><ele>36.333333333333336</ele><time>2026-03-28T16:30:22.707Z</time></trkpt><trkpt lat="39.339722" lon="17.0611453"><ele>36.0</ele><time>2026-03-28T16:30:23.704Z</time></trkpt><trkpt lat="39.339729" lon="17.0612567"><ele>35.666666666666664</ele><time>2026-03-28T16:30:24.704Z</time></trkpt><trkpt lat="39.3397344" lon="17.0613611"><ele>35.33333333333333</ele><time>2026-03-28T16:30:25.707Z</time></trkpt><trkpt lat="39.3397399" lon="17.0614628"><ele>35.0</ele><time>2026-03-28T16:30:26.704Z</time></trkpt><trkpt lat="39.3397459" lon="17.0615621"><ele>37.33333333333333</ele><time>2026-03-28T16:30:27.702Z</time></trkpt><trkpt lat="39.3397525" lon="17.0616631"><ele>39.666666666666664</ele><time>2026-03-28T16:30:28.715Z</time></trkpt><trkpt lat="39.3397601" lon="17.0617668"><ele>42.0</ele><time>2026-03-28T16:30:29.702Z</time></trkpt><trkpt lat="39.3397683" lon="17.0618724"><ele>44.33333333333333</ele><time>2026-03-28T16:30:30.707Z</time></trkpt><trkpt lat="39.3397751" lon="17.061978"><ele>46.666666666666664</ele><time>2026-03-28T16:30:31.705Z</time></trkpt><trkpt lat="39.3397807" lon="17.0620862"><ele>49.0</ele><time>2026-03-28T16:30:32.704Z</time></trkpt><trkpt lat="39.3397869" lon="17.0621977"><ele>49.0</ele><time>2026-03-28T16:30:33.701Z</time></trkpt><trkpt lat="39.3397978" lon="17.0623174"><ele>49.0</ele><time>2026-03-28T16:30:34.704Z</time></trkpt><trkpt lat="39.339815" lon="17.062443"><ele>49.0</ele><time>2026-03-28T16:30:35.704Z</time></trkpt><trkpt lat="39.3398402" lon="17.062568"><ele>49.0</ele><time>2026-03-28T16:30:36.699Z</time></trkpt><trkpt lat="39.3398717" lon="17.0626924"><ele>49.0</ele><time>2026-03-28T16:30:37.703Z</time></trkpt><trkpt lat="39.3399067" lon="17.0628151"><ele>48.2</ele><time>2026-03-28T16:30:38.708Z</time></trkpt><trkpt lat="39.3399435" lon="17.0629368"><ele>47.400000000000006</ele><time>2026-03-28T16:30:39.707Z</time></trkpt><trkpt lat="39.3399797" lon="17.0630561"><ele>46.6</ele><time>2026-03-28T16:30:40.698Z</time></trkpt><trkpt lat="39.3400152" lon="17.0631759"><ele>45.8</ele><time>2026-03-28T16:30:41.706Z</time></trkpt><trkpt lat="39.3400517" lon="17.0632963"><ele>45.0</ele><time>2026-03-28T16:30:42.703Z</time></trkpt><trkpt lat="39.3400879" lon="17.0634168"><ele>43.8</ele><time>2026-03-28T16:30:43.711Z</time></trkpt><trkpt lat="39.3401238" lon="17.0635373"><ele>42.6</ele><time>2026-03-28T16:30:44.708Z</time></trkpt><trkpt lat="39.3401609" lon="17.0636555"><ele>41.4</ele><time>2026-03-28T16:30:45.711Z</time></trkpt><trkpt lat="39.3402011" lon="17.063772"><ele>40.2</ele><time>2026-03-28T16:30:46.706Z</time></trkpt><trkpt lat="39.3402457" lon="17.0638864"><ele>39.0</ele><time>2026-03-28T16:30:47.71Z</time></trkpt><trkpt lat="39.3402941" lon="17.0639966"><ele>39.0</ele><time>2026-03-28T16:30:48.717Z</time></trkpt><trkpt lat="39.3403471" lon="17.0641008"><ele>39.0</ele><time>2026-03-28T16:30:49.71Z</time></trkpt><trkpt lat="39.3404006" lon="17.064199"><ele>39.0</ele><time>2026-03-28T16:30:50.704Z</time></trkpt><trkpt lat="39.3404546" lon="17.0642946"><ele>39.0</ele><time>2026-03-28T16:30:51.703Z</time></trkpt><trkpt lat="39.3405089" lon="17.064387"><ele>39.0</ele><time>2026-03-28T16:30:52.715Z</time></trkpt><trkpt lat="39.3405596" lon="17.0644784"><ele>40.5</ele><time>2026-03-28T16:30:53.703Z</time></trkpt><trkpt lat="39.3406068" lon="17.0645689"><ele>42.0</ele><time>2026-03-28T16:30:54.719Z</time></trkpt><trkpt lat="39.3406533" lon="17.0646552"><ele>43.5</ele><time>2026-03-28T16:30:55.705Z</time></trkpt><trkpt lat="39.340699" lon="17.06474"><ele>45.0</ele><time>2026-03-28T16:30:56.706Z</time></trkpt><trkpt lat="39.3407439" lon="17.0648261"><ele>46.5</ele><time>2026-03-28T16:30:57.709Z</time></trkpt><trkpt lat="39.3407835" lon="17.0649189"><ele>48.0</ele><time>2026-03-28T16:30:58.707Z</time></trkpt><trkpt lat="39.3408129" lon="17.065019"><ele>48.0</ele><time>2026-03-28T16:30:59.708Z</time></trkpt><trkpt lat="39.3408364" lon="17.0651293"><ele>48.0</ele><time>2026-03-28T16:31:00.714Z</time></trkpt><trkpt lat="39.3408518" lon="17.065247"><ele>48.0</ele><time>2026-03-28T16:31:01.702Z</time></trkpt><trkpt lat="39.340861" lon="17.065368"><ele>48.0</ele><time>2026-03-28T16:31:02.714Z</time></trkpt><trkpt lat="39.3408663" lon="17.0654899"><ele>48.0</ele><time>2026-03-28T16:31:03.698Z</time></trkpt><trkpt lat="39.3408667" lon="17.0656105"><ele>48.0</ele><time>2026-03-28T16:31:04.714Z</time></trkpt><trkpt lat="39.3408626" lon="17.0657323"><ele>48.0</ele><time>2026-03-28T16:31:05.705Z</time></trkpt><trkpt lat="39.3408539" lon="17.065854"><ele>48.0</ele><time>2026-03-28T16:31:06.719Z</time></trkpt><trkpt lat="39.3408423" lon="17.065961"><ele>48.0</ele><time>2026-03-28T16:31:07.707Z</time></trkpt><trkpt lat="39.3408282" lon="17.0660614"><ele>48.0</ele><time>2026-03-28T16:31:08.713Z</time></trkpt><trkpt lat="39.3408128" lon="17.0661623"><ele>48.0</ele><time>2026-03-28T16:31:09.711Z</time></trkpt><trkpt lat="39.3407973" lon="17.0662637"><ele>47.333333333333336</ele><time>2026-03-28T16:31:10.719Z</time></trkpt><trkpt lat="39.340789" lon="17.0663676"><ele>46.666666666666664</ele><time>2026-03-28T16:31:11.717Z</time></trkpt><trkpt lat="39.3407909" lon="17.0664744"><ele>46.0</ele><time>2026-03-28T16:31:12.713Z</time></trkpt><trkpt lat="39.3407998" lon="17.0665827"><ele>45.33333333333333</ele><time>2026-03-28T16:31:13.706Z</time></trkpt><trkpt lat="39.340814" lon="17.0666901"><ele>44.666666666666664</ele><time>2026-03-28T16:31:14.713Z</time></trkpt><trkpt lat="39.3408357" lon="17.0667963"><ele>44.0</ele><time>2026-03-28T16:31:15.713Z</time></trkpt><trkpt lat="39.3408621" lon="17.0669076"><ele>43.33333333333333</ele><time>2026-03-28T16:31:16.719Z</time></trkpt><trkpt lat="39.3408913" lon="17.0670181"><ele>42.666666666666664</ele><time>2026-03-28T16:31:17.706Z</time></trkpt><trkpt lat="39.3409172" lon="17.0671207"><ele>42.0</ele><time>2026-03-28T16:31:18.711Z</time></trkpt><trkpt lat="39.3409435" lon="17.0672294"><ele>41.333333333333336</ele><time>2026-03-28T16:31:19.71Z</time></trkpt><trkpt lat="39.3409701" lon="17.0673417"><ele>40.66666666666667</ele><time>2026-03-28T16:31:20.718Z</time></trkpt><trkpt lat="39.3409949" lon="17.0674441"><ele>40.0</ele><time>2026-03-28T16:31:21.701Z</time></trkpt><trkpt lat="39.3410184" lon="17.0675369"><ele>39.857142857142854</ele><time>2026-03-28T16:31:22.714Z</time></trkpt><trkpt lat="39.3410434" lon="17.0676251"><ele>39.714285714285715</ele><time>2026-03-28T16:31:23.703Z</time></trkpt><trkpt lat="39.3410712" lon="17.0677142"><ele>39.57142857142857</ele><time>2026-03-28T16:31:24.705Z</time></trkpt><trkpt lat="39.3411003" lon="17.0678018"><ele>39.42857142857143</ele><time>2026-03-28T16:31:25.703Z</time></trkpt><trkpt lat="39.34113" lon="17.0678861"><ele>39.285714285714285</ele><time>2026-03-28T16:31:26.701Z</time></trkpt><trkpt lat="39.3411626" lon="17.0679657"><ele>39.142857142857146</ele><time>2026-03-28T16:31:27.705Z</time></trkpt><trkpt lat="39.3412022" lon="17.0680392"><ele>39.0</ele><time>2026-03-28T16:31:28.703Z</time></trkpt><trkpt lat="39.3412493" lon="17.0681032"><ele>39.0</ele><time>2026-03-28T16:31:29.703Z</time></trkpt><trkpt lat="39.3412937" lon="17.0681612"><ele>39.0</ele><time>2026-03-28T16:31:30.702Z</time></trkpt><trkpt lat="39.3413533" lon="17.0681989"><ele>39.0</ele><time>2026-03-28T16:31:31.703Z</time></trkpt><trkpt lat="39.3414164" lon="17.0682284"><ele>39.0</ele><time>2026-03-28T16:31:32.707Z</time></trkpt><trkpt lat="39.3414851" lon="17.0682497"><ele>39.0</ele><time>2026-03-28T16:31:33.712Z</time></trkpt><trkpt lat="39.3415558" lon="17.0682594"><ele>39.0</ele><time>2026-03-28T16:31:34.709Z</time></trkpt><trkpt lat="39.3416248" lon="17.0682633"><ele>39.0</ele><time>2026-03-28T16:31:35.702Z</time></trkpt><trkpt lat="39.341695" lon="17.0682663"><ele>38.833333333333336</ele><time>2026-03-28T16:31:36.706Z</time></trkpt><trkpt lat="39.3417703" lon="17.0682648"><ele>38.666666666666664</ele><time>2026-03-28T16:31:37.703Z</time></trkpt><trkpt lat="39.3418462" lon="17.0682647"><ele>38.5</ele><time>2026-03-28T16:31:38.71Z</time></trkpt><trkpt lat="39.3419232" lon="17.0682664"><ele>38.33333333333333</ele><time>2026-03-28T16:31:39.715Z</time></trkpt><trkpt lat="39.3420011" lon="17.0682827"><ele>38.166666666666664</ele><time>2026-03-28T16:31:40.706Z</time></trkpt><trkpt lat="39.3420764" lon="17.0683145"><ele>38.0</ele><time>2026-03-28T16:31:41.716Z</time></trkpt><trkpt lat="39.3421464" lon="17.0683664"><ele>38.0</ele><time>2026-03-28T16:31:42.716Z</time></trkpt><trkpt lat="39.3422093" lon="17.0684228"><ele>38.0</ele><time>2026-03-28T16:31:43.705Z</time></trkpt><trkpt lat="39.3422745" lon="17.0684827"><ele>38.0</ele><time>2026-03-28T16:31:44.715Z</time></trkpt><trkpt lat="39.3423452" lon="17.0685466"><ele>38.0</ele><time>2026-03-28T16:31:45.707Z</time></trkpt><trkpt lat="39.3424194" lon="17.0686144"><ele>38.0</ele><time>2026-03-28T16:31:46.715Z</time></trkpt><trkpt lat="39.342497" lon="17.0686872"><ele>38.0</ele><time>2026-03-28T16:31:47.704Z</time></trkpt><trkpt lat="39.3425772" lon="17.0687671"><ele>37.199999999999996</ele><time>2026-03-28T16:31:48.711Z</time></trkpt><trkpt lat="39.3426571" lon="17.0688568"><ele>36.4</ele><time>2026-03-28T16:31:49.71Z</time></trkpt><trkpt lat="39.3427364" lon="17.0689565"><ele>35.599999999999994</ele><time>2026-03-28T16:31:50.72Z</time></trkpt><trkpt lat="39.3428109" lon="17.0690632"><ele>34.8</ele><time>2026-03-28T16:31:51.708Z</time></trkpt><trkpt lat="39.3428831" lon="17.0691743"><ele>34.0</ele><time>2026-03-28T16:31:52.717Z</time></trkpt><trkpt lat="39.3429577" lon="17.0692876"><ele>34.0</ele><time>2026-03-28T16:31:53.7Z</time></trkpt><trkpt lat="39.3430347" lon="17.0694004"><ele>34.0</ele><time>2026-03-28T16:31:54.709Z</time></trkpt><trkpt lat="39.3431165" lon="17.0695093"><ele>34.0</ele><time>2026-03-28T16:31:55.704Z</time></trkpt><trkpt lat="39.3432028" lon="17.0696126"><ele>34.0</ele><time>2026-03-28T16:31:56.711Z</time></trkpt><trkpt lat="39.3432917" lon="17.069715"><ele>33.75</ele><time>2026-03-28T16:31:57.717Z</time></trkpt><trkpt lat="39.3433843" lon="17.0698131"><ele>33.5</ele><time>2026-03-28T16:31:58.701Z</time></trkpt><trkpt lat="39.3434778" lon="17.0699086"><ele>33.25</ele><time>2026-03-28T16:31:59.705Z</time></trkpt><trkpt lat="39.3435722" lon="17.0700034"><ele>33.0</ele><time>2026-03-28T16:32:00.706Z</time></trkpt><trkpt lat="39.343666" lon="17.0701004"><ele>33.0</ele><time>2026-03-28T16:32:01.709Z</time></trkpt><trkpt lat="39.3437615" lon="17.0702001"><ele>33.0</ele><time>2026-03-28T16:32:02.7Z</time></trkpt><trkpt lat="39.3438592" lon="17.0703004"><ele>33.0</ele><time>2026-03-28T16:32:03.7Z</time></trkpt><trkpt lat="39.343956" lon="17.0704017"><ele>33.0</ele><time>2026-03-28T16:32:04.705Z</time></trkpt><trkpt lat="39.3440524" lon="17.0705036"><ele>33.25</ele><time>2026-03-28T16:32:05.698Z</time></trkpt><trkpt lat="39.3441476" lon="17.0706041"><ele>33.5</ele><time>2026-03-28T16:32:06.704Z</time></trkpt><trkpt lat="39.3442458" lon="17.0706962"><ele>33.75</ele><time>2026-03-28T16:32:07.7Z</time></trkpt><trkpt lat="39.3443406" lon="17.070773"><ele>34.0</ele><time>2026-03-28T16:32:08.711Z</time></trkpt><trkpt lat="39.3444353" lon="17.0708345"><ele>34.0</ele><time>2026-03-28T16:32:09.712Z</time></trkpt><trkpt lat="39.3445342" lon="17.0708834"><ele>34.0</ele><time>2026-03-28T16:32:10.704Z</time></trkpt><trkpt lat="39.3446384" lon="17.0709199"><ele>34.0</ele><time>2026-03-28T16:32:11.704Z</time></trkpt><trkpt lat="39.3447461" lon="17.0709456"><ele>34.0</ele><time>2026-03-28T16:32:12.704Z</time></trkpt><trkpt lat="39.3448559" lon="17.070967"><ele>34.0</ele><time>2026-03-28T16:32:13.719Z</time></trkpt><trkpt lat="39.3449576" lon="17.0709847"><ele>34.5</ele><time>2026-03-28T16:32:14.704Z</time></trkpt><trkpt lat="39.3450469" lon="17.0709993"><ele>35.0</ele><time>2026-03-28T16:32:15.707Z</time></trkpt><trkpt lat="39.3451229" lon="17.0710112"><ele>35.5</ele><time>2026-03-28T16:32:16.706Z</time></trkpt><trkpt lat="39.3451897" lon="17.0710229"><ele>36.0</ele><time>2026-03-28T16:32:17.712Z</time></trkpt><trkpt lat="39.3452527" lon="17.0710378"><ele>36.5</ele><time>2026-03-28T16:32:18.711Z</time></trkpt><trkpt lat="39.3453702" lon="17.0710932"><ele>37.0</ele><time>2026-03-28T16:32:20.7Z</time></trkpt><trkpt lat="39.3454657" lon="17.0712014"><ele>37.0</ele><time>2026-03-28T16:32:22.705Z</time></trkpt><trkpt lat="39.3454924" lon="17.0712889"><ele>37.0</ele><time>2026-03-28T16:32:23.711Z</time></trkpt><trkpt lat="39.3455077" lon="17.0713883"><ele>37.0</ele><time>2026-03-28T16:32:24.704Z</time></trkpt><trkpt lat="39.3455209" lon="17.0714939"><ele>37.0</ele><time>2026-03-28T16:32:25.71Z</time></trkpt><trkpt lat="39.3455346" lon="17.0716008"><ele>37.0</ele><time>2026-03-28T16:32:26.709Z</time></trkpt><trkpt lat="39.3455496" lon="17.0717079"><ele>37.0</ele><time>2026-03-28T16:32:27.718Z</time></trkpt><trkpt lat="39.3455655" lon="17.0718168"><ele>35.833333333333336</ele><time>2026-03-28T16:32:28.705Z</time></trkpt><trkpt lat="39.3455806" lon="17.0719269"><ele>34.66666666666667</ele><time>2026-03-28T16:32:29.708Z</time></trkpt><trkpt lat="39.3455971" lon="17.0720342"><ele>33.5</ele><time>2026-03-28T16:32:30.703Z</time></trkpt><trkpt lat="39.3456113" lon="17.0721255"><ele>32.333333333333336</ele><time>2026-03-28T16:32:31.713Z</time></trkpt><trkpt lat="39.345624" lon="17.0722057"><ele>31.166666666666668</ele><time>2026-03-28T16:32:32.716Z</time></trkpt><trkpt lat="39.3456494" lon="17.0723663"><ele>30.0</ele><time>2026-03-28T16:32:34.709Z</time></trkpt><trkpt lat="39.3456614" lon="17.0724498"><ele>29.8</ele><time>2026-03-28T16:32:35.721Z</time></trkpt><trkpt lat="39.3456731" lon="17.0725341"><ele>29.6</ele><time>2026-03-28T16:32:36.713Z</time></trkpt><trkpt lat="39.3456847" lon="17.0726187"><ele>29.4</ele><time>2026-03-28T16:32:37.705Z</time></trkpt><trkpt lat="39.3457044" lon="17.0727556"><ele>29.2</ele><time>2026-03-28T16:32:39.71Z</time></trkpt><trkpt lat="39.3457258" lon="17.0728903"><ele>29.0</ele><time>2026-03-28T16:32:41.71Z</time></trkpt><trkpt lat="39.345746" lon="17.0730262"><ele>29.0</ele><time>2026-03-28T16:32:43.721Z</time></trkpt><trkpt lat="39.3457637" lon="17.0731513"><ele>29.0</ele><time>2026-03-28T16:32:45.717Z</time></trkpt><trkpt lat="39.3457847" lon="17.0732917"><ele>29.0</ele><time>2026-03-28T16:32:47.707Z</time></trkpt><trkpt lat="39.3458117" lon="17.073459"><ele>29.0</ele><time>2026-03-28T16:32:49.713Z</time></trkpt><trkpt lat="39.3458281" lon="17.0735567"><ele>29.0</ele><time>2026-03-28T16:32:50.71Z</time></trkpt><trkpt lat="39.3458453" lon="17.0736622"><ele>28.666666666666664</ele><time>2026-03-28T16:32:51.724Z</time></trkpt><trkpt lat="39.3458616" lon="17.0737664"><ele>28.333333333333332</ele><time>2026-03-28T16:32:52.704Z</time></trkpt><trkpt lat="39.3458798" lon="17.0738823"><ele>28.0</ele><time>2026-03-28T16:32:53.708Z</time></trkpt><trkpt lat="39.3458962" lon="17.0740028"><ele>27.666666666666664</ele><time>2026-03-28T16:32:54.717Z</time></trkpt><trkpt lat="39.3459131" lon="17.0741241"><ele>27.333333333333332</ele><time>2026-03-28T16:32:55.719Z</time></trkpt><trkpt lat="39.3459279" lon="17.0742296"><ele>27.0</ele><time>2026-03-28T16:32:56.706Z</time></trkpt><trkpt lat="39.3459445" lon="17.0743384"><ele>27.0</ele><time>2026-03-28T16:32:57.716Z</time></trkpt><trkpt lat="39.3459637" lon="17.0744564"><ele>27.000000000000004</ele><time>2026-03-28T16:32:58.709Z</time></trkpt><trkpt lat="39.3459843" lon="17.0745822"><ele>27.000000000000004</ele><time>2026-03-28T16:32:59.724Z</time></trkpt><trkpt lat="39.3460043" lon="17.0747031"><ele>27.0</ele><time>2026-03-28T16:33:00.709Z</time></trkpt><trkpt lat="39.3460234" lon="17.0748107"><ele>27.0</ele><time>2026-03-28T16:33:01.722Z</time></trkpt><trkpt lat="39.3460422" lon="17.074922"><ele>27.0</ele><time>2026-03-28T16:33:02.715Z</time></trkpt><trkpt lat="39.3460597" lon="17.0750371"><ele>27.000000000000004</ele><time>2026-03-28T16:33:03.709Z</time></trkpt><trkpt lat="39.3460779" lon="17.0751554"><ele>27.000000000000004</ele><time>2026-03-28T16:33:04.715Z</time></trkpt><trkpt lat="39.3460942" lon="17.0752763"><ele>27.0</ele><time>2026-03-28T16:33:05.72Z</time></trkpt><trkpt lat="39.3461106" lon="17.0753975"><ele>27.0</ele><time>2026-03-28T16:33:06.709Z</time></trkpt><trkpt lat="39.3461302" lon="17.0755161"><ele>27.0</ele><time>2026-03-28T16:33:07.724Z</time></trkpt><trkpt lat="39.3461538" lon="17.0756297"><ele>27.000000000000004</ele><time>2026-03-28T16:33:08.706Z</time></trkpt><trkpt lat="39.3461836" lon="17.0757419"><ele>27.000000000000004</ele><time>2026-03-28T16:33:09.708Z</time></trkpt><trkpt lat="39.3462188" lon="17.0758539"><ele>27.0</ele><time>2026-03-28T16:33:10.707Z</time></trkpt><trkpt lat="39.3462584" lon="17.0759643"><ele>27.0</ele><time>2026-03-28T16:33:11.707Z</time></trkpt><trkpt lat="39.3463001" lon="17.0760738"><ele>26.8</ele><time>2026-03-28T16:33:12.705Z</time></trkpt><trkpt lat="39.3463433" lon="17.0761802"><ele>26.6</ele><time>2026-03-28T16:33:13.707Z</time></trkpt><trkpt lat="39.3463873" lon="17.0762847"><ele>26.400000000000002</ele><time>2026-03-28T16:33:14.701Z</time></trkpt><trkpt lat="39.3464337" lon="17.0763898"><ele>26.200000000000003</ele><time>2026-03-28T16:33:15.717Z</time></trkpt><trkpt lat="39.3464834" lon="17.0764952"><ele>26.0</ele><time>2026-03-28T16:33:16.713Z</time></trkpt><trkpt lat="39.3465353" lon="17.0766005"><ele>26.4</ele><time>2026-03-28T16:33:17.704Z</time></trkpt><trkpt lat="39.3465885" lon="17.0767047"><ele>26.8</ele><time>2026-03-28T16:33:18.714Z</time></trkpt><trkpt lat="39.3466431" lon="17.0768065"><ele>27.199999999999996</ele><time>2026-03-28T16:33:19.717Z</time></trkpt><trkpt lat="39.3466981" lon="17.0769062"><ele>27.599999999999998</ele><time>2026-03-28T16:33:20.708Z</time></trkpt><trkpt lat="39.3467533" lon="17.0770014"><ele>28.0</ele><time>2026-03-28T16:33:21.711Z</time></trkpt><trkpt lat="39.3468087" lon="17.0770936"><ele>28.000000000000004</ele><time>2026-03-28T16:33:22.713Z</time></trkpt><trkpt lat="39.3468613" lon="17.0771892"><ele>28.0</ele><time>2026-03-28T16:33:23.713Z</time></trkpt><trkpt lat="39.3469086" lon="17.0772861"><ele>28.0</ele><time>2026-03-28T16:33:24.719Z</time></trkpt><trkpt lat="39.3469487" lon="17.0773873"><ele>28.0</ele><time>2026-03-28T16:33:25.702Z</time></trkpt><trkpt lat="39.3469816" lon="17.0774917"><ele>28.000000000000004</ele><time>2026-03-28T16:33:26.705Z</time></trkpt><trkpt lat="39.3470042" lon="17.0776005"><ele>28.0</ele><time>2026-03-28T16:33:27.705Z</time></trkpt><trkpt lat="39.3470106" lon="17.0777159"><ele>28.0</ele><time>2026-03-28T16:33:28.713Z</time></trkpt><trkpt lat="39.3470024" lon="17.0778402"><ele>27.999999999999996</ele><time>2026-03-28T16:33:29.72Z</time></trkpt><trkpt lat="39.3469848" lon="17.0779725"><ele>27.999999999999996</ele><time>2026-03-28T16:33:30.715Z</time></trkpt><trkpt lat="39.3469658" lon="17.0781071"><ele>28.0</ele><time>2026-03-28T16:33:31.707Z</time></trkpt><trkpt lat="39.3469547" lon="17.0782443"><ele>28.0</ele><time>2026-03-28T16:33:32.72Z</time></trkpt><trkpt lat="39.3469517" lon="17.0783856"><ele>28.0</ele><time>2026-03-28T16:33:33.708Z</time></trkpt><trkpt lat="39.3469519" lon="17.0785322"><ele>28.0</ele><time>2026-03-28T16:33:34.708Z</time></trkpt><trkpt lat="39.34695" lon="17.0786803"><ele>28.0</ele><time>2026-03-28T16:33:35.7Z</time></trkpt><trkpt lat="39.3469439" lon="17.0788259"><ele>28.0</ele><time>2026-03-28T16:33:36.704Z</time></trkpt><trkpt lat="39.3469334" lon="17.0789665"><ele>27.799999999999997</ele><time>2026-03-28T16:33:37.714Z</time></trkpt><trkpt lat="39.3469192" lon="17.0791025"><ele>27.599999999999998</ele><time>2026-03-28T16:33:38.707Z</time></trkpt><trkpt lat="39.3469038" lon="17.0792351"><ele>27.400000000000002</ele><time>2026-03-28T16:33:39.715Z</time></trkpt><trkpt lat="39.3468875" lon="17.0793613"><ele>27.200000000000003</ele><time>2026-03-28T16:33:40.712Z</time></trkpt><trkpt lat="39.346872" lon="17.0794838"><ele>27.0</ele><time>2026-03-28T16:33:41.699Z</time></trkpt><trkpt lat="39.3468571" lon="17.0796071"><ele>27.0</ele><time>2026-03-28T16:33:42.71Z</time></trkpt><trkpt lat="39.346841" lon="17.0797319"><ele>27.000000000000004</ele><time>2026-03-28T16:33:43.709Z</time></trkpt><trkpt lat="39.3468247" lon="17.0798598"><ele>27.000000000000004</ele><time>2026-03-28T16:33:44.71Z</time></trkpt><trkpt lat="39.3468101" lon="17.0799917"><ele>27.0</ele><time>2026-03-28T16:33:45.713Z</time></trkpt><trkpt lat="39.346798" lon="17.0801284"><ele>27.0</ele><time>2026-03-28T16:33:46.707Z</time></trkpt><trkpt lat="39.3467909" lon="17.0802694"><ele>27.0</ele><time>2026-03-28T16:33:47.712Z</time></trkpt><trkpt lat="39.3467975" lon="17.0804128"><ele>27.0</ele><time>2026-03-28T16:33:48.707Z</time></trkpt><trkpt lat="39.3468171" lon="17.0805569"><ele>27.0</ele><time>2026-03-28T16:33:49.704Z</time></trkpt><trkpt lat="39.3468382" lon="17.0807019"><ele>27.0</ele><time>2026-03-28T16:33:50.709Z</time></trkpt><trkpt lat="39.3468882" lon="17.0808423"><ele>26.25</ele><time>2026-03-28T16:33:51.706Z</time></trkpt><trkpt lat="39.3469495" lon="17.0809786"><ele>25.5</ele><time>2026-03-28T16:33:52.716Z</time></trkpt><trkpt lat="39.3470171" lon="17.0811032"><ele>24.75</ele><time>2026-03-28T16:33:53.716Z</time></trkpt><trkpt lat="39.3470831" lon="17.0812141"><ele>24.0</ele><time>2026-03-28T16:33:54.706Z</time></trkpt><trkpt lat="39.3471483" lon="17.0813221"><ele>24.6</ele><time>2026-03-28T16:33:55.707Z</time></trkpt><trkpt lat="39.3472154" lon="17.0814284"><ele>25.2</ele><time>2026-03-28T16:33:56.708Z</time></trkpt><trkpt lat="39.3472822" lon="17.081531"><ele>25.800000000000004</ele><time>2026-03-28T16:33:57.703Z</time></trkpt><trkpt lat="39.347345" lon="17.0816357"><ele>26.400000000000002</ele><time>2026-03-28T16:33:58.718Z</time></trkpt><trkpt lat="39.3474085" lon="17.0817408"><ele>27.0</ele><time>2026-03-28T16:33:59.717Z</time></trkpt><trkpt lat="39.3474756" lon="17.0818432"><ele>27.0</ele><time>2026-03-28T16:34:00.703Z</time></trkpt><trkpt lat="39.347543" lon="17.0819482"><ele>27.000000000000004</ele><time>2026-03-28T16:34:01.71Z</time></trkpt><trkpt lat="39.3476101" lon="17.0820536"><ele>27.000000000000004</ele><time>2026-03-28T16:34:02.722Z</time></trkpt><trkpt lat="39.3476783" lon="17.0821601"><ele>27.0</ele><time>2026-03-28T16:34:03.707Z</time></trkpt><trkpt lat="39.347749" lon="17.0822674"><ele>27.0</ele><time>2026-03-28T16:34:04.709Z</time></trkpt><trkpt lat="39.3478207" lon="17.0823768"><ele>26.400000000000002</ele><time>2026-03-28T16:34:05.711Z</time></trkpt><trkpt lat="39.3478903" lon="17.0824874"><ele>25.800000000000004</ele><time>2026-03-28T16:34:06.709Z</time></trkpt><trkpt lat="39.3479575" lon="17.0825943"><ele>25.2</ele><time>2026-03-28T16:34:07.718Z</time></trkpt><trkpt lat="39.3480253" lon="17.0827046"><ele>24.6</ele><time>2026-03-28T16:34:08.713Z</time></trkpt><trkpt lat="39.3480966" lon="17.0828204"><ele>24.0</ele><time>2026-03-28T16:34:09.715Z</time></trkpt><trkpt lat="39.3481705" lon="17.0829378"><ele>24.0</ele><time>2026-03-28T16:34:10.702Z</time></trkpt><trkpt lat="39.3482463" lon="17.0830551"><ele>24.0</ele><time>2026-03-28T16:34:11.711Z</time></trkpt><trkpt lat="39.3483216" lon="17.0831744"><ele>24.0</ele><time>2026-03-28T16:34:12.704Z</time></trkpt><trkpt lat="39.3483965" lon="17.0832942"><ele>24.0</ele><time>2026-03-28T16:34:13.719Z</time></trkpt><trkpt lat="39.3484715" lon="17.083416"><ele>23.0</ele><time>2026-03-28T16:34:14.703Z</time></trkpt><trkpt lat="39.3485472" lon="17.0835373"><ele>22.0</ele><time>2026-03-28T16:34:15.711Z</time></trkpt><trkpt lat="39.3486237" lon="17.0836593"><ele>21.0</ele><time>2026-03-28T16:34:16.709Z</time></trkpt><trkpt lat="39.3486995" lon="17.0837835"><ele>20.0</ele><time>2026-03-28T16:34:17.704Z</time></trkpt><trkpt lat="39.3487762" lon="17.0839081"><ele>20.0</ele><time>2026-03-28T16:34:18.705Z</time></trkpt><trkpt lat="39.3488534" lon="17.0840318"><ele>20.0</ele><time>2026-03-28T16:34:19.703Z</time></trkpt><trkpt lat="39.3489322" lon="17.0841546"><ele>20.0</ele><time>2026-03-28T16:34:20.713Z</time></trkpt><trkpt lat="39.3490101" lon="17.0842786"><ele>20.0</ele><time>2026-03-28T16:34:21.708Z</time></trkpt><trkpt lat="39.3490882" lon="17.0844038"><ele>20.5</ele><time>2026-03-28T16:34:22.706Z</time></trkpt><trkpt lat="39.3491665" lon="17.0845295"><ele>21.0</ele><time>2026-03-28T16:34:23.702Z</time></trkpt><trkpt lat="39.3492461" lon="17.084656"><ele>21.5</ele><time>2026-03-28T16:34:24.702Z</time></trkpt><trkpt lat="39.3493259" lon="17.0847824"><ele>22.0</ele><time>2026-03-28T16:34:25.708Z</time></trkpt><trkpt lat="39.3494036" lon="17.0849129"><ele>21.0</ele><time>2026-03-28T16:34:26.701Z</time></trkpt><trkpt lat="39.3494779" lon="17.085046"><ele>20.0</ele><time>2026-03-28T16:34:27.707Z</time></trkpt><trkpt lat="39.3495437" lon="17.0851812"><ele>19.0</ele><time>2026-03-28T16:34:28.706Z</time></trkpt><trkpt lat="39.3496005" lon="17.0853204"><ele>18.0</ele><time>2026-03-28T16:34:29.709Z</time></trkpt><trkpt lat="39.3496491" lon="17.0854634"><ele>18.0</ele><time>2026-03-28T16:34:30.706Z</time></trkpt><trkpt lat="39.3496905" lon="17.08561"><ele>18.0</ele><time>2026-03-28T16:34:31.711Z</time></trkpt><trkpt lat="39.3497278" lon="17.0857615"><ele>18.0</ele><time>2026-03-28T16:34:32.704Z</time></trkpt><trkpt lat="39.3497699" lon="17.0859104"><ele>18.0</ele><time>2026-03-28T16:34:33.706Z</time></trkpt><trkpt lat="39.3498092" lon="17.0860661"><ele>18.25</ele><time>2026-03-28T16:34:34.704Z</time></trkpt><trkpt lat="39.3498499" lon="17.0862236"><ele>18.5</ele><time>2026-03-28T16:34:35.707Z</time></trkpt><trkpt lat="39.3498931" lon="17.0863847"><ele>18.75</ele><time>2026-03-28T16:34:36.706Z</time></trkpt><trkpt lat="39.3499357" lon="17.0865519"><ele>19.0</ele><time>2026-03-28T16:34:37.702Z</time></trkpt><trkpt lat="39.3499809" lon="17.0867187"><ele>19.0</ele><time>2026-03-28T16:34:38.712Z</time></trkpt><trkpt lat="39.3500375" lon="17.0868956"><ele>19.0</ele><time>2026-03-28T16:34:39.71Z</time></trkpt><trkpt lat="39.3501079" lon="17.0870901"><ele>19.0</ele><time>2026-03-28T16:34:40.706Z</time></trkpt><trkpt lat="39.350192" lon="17.0873095"><ele>19.0</ele><time>2026-03-28T16:34:41.713Z</time></trkpt><trkpt lat="39.3502892" lon="17.0875561"><ele>19.0</ele><time>2026-03-28T16:34:42.716Z</time></trkpt><trkpt lat="39.3503945" lon="17.0878248"><ele>19.0</ele><time>2026-03-28T16:34:43.713Z</time></trkpt><trkpt lat="39.3505086" lon="17.0881151"><ele>18.5</ele><time>2026-03-28T16:34:44.704Z</time></trkpt><trkpt lat="39.35063" lon="17.088422"><ele>18.0</ele><time>2026-03-28T16:34:45.704Z</time></trkpt><trkpt lat="39.3507549" lon="17.0887445"><ele>18.0</ele><time>2026-03-28T16:34:46.714Z</time></trkpt><trkpt lat="39.3508849" lon="17.0890787"><ele>18.0</ele><time>2026-03-28T16:34:47.715Z</time></trkpt><trkpt lat="39.3510177" lon="17.0894137"><ele>18.0</ele><time>2026-03-28T16:34:48.71Z</time></trkpt><trkpt lat="39.3511443" lon="17.0897263"><ele>18.0</ele><time>2026-03-28T16:34:49.701Z</time></trkpt><trkpt lat="39.3512633" lon="17.0900174"><ele>19.5</ele><time>2026-03-28T16:34:50.703Z</time></trkpt><trkpt lat="39.3513745" lon="17.0902905"><ele>21.0</ele><time>2026-03-28T16:34:51.704Z</time></trkpt><trkpt lat="39.3514801" lon="17.0905467"><ele>20.333333333333332</ele><time>2026-03-28T16:34:52.708Z</time></trkpt><trkpt lat="39.3515766" lon="17.09079"><ele>19.666666666666664</ele><time>2026-03-28T16:34:53.706Z</time></trkpt><trkpt lat="39.3516739" lon="17.0910361"><ele>19.0</ele><time>2026-03-28T16:34:54.703Z</time></trkpt><trkpt lat="39.3517835" lon="17.0913001"><ele>19.0</ele><time>2026-03-28T16:34:55.714Z</time></trkpt><trkpt lat="39.3519014" lon="17.0915843"><ele>19.0</ele><time>2026-03-28T16:34:56.711Z</time></trkpt><trkpt lat="39.3520234" lon="17.0918775"><ele>19.5</ele><time>2026-03-28T16:34:57.699Z</time></trkpt><trkpt lat="39.3521392" lon="17.0921526"><ele>20.0</ele><time>2026-03-28T16:34:58.705Z</time></trkpt><trkpt lat="39.3522472" lon="17.0924099"><ele>19.0</ele><time>2026-03-28T16:34:59.709Z</time></trkpt><trkpt lat="39.3523479" lon="17.0926505"><ele>18.0</ele><time>2026-03-28T16:35:00.71Z</time></trkpt><trkpt lat="39.3524411" lon="17.0928777"><ele>17.0</ele><time>2026-03-28T16:35:01.701Z</time></trkpt><trkpt lat="39.3525288" lon="17.0930949"><ele>16.333333333333336</ele><time>2026-03-28T16:35:02.697Z</time></trkpt><trkpt lat="39.3526179" lon="17.0933162"><ele>15.666666666666668</ele><time>2026-03-28T16:35:03.699Z</time></trkpt><trkpt lat="39.3527123" lon="17.0935434"><ele>15.0</ele><time>2026-03-28T16:35:04.705Z</time></trkpt><trkpt lat="39.3528006" lon="17.0937567"><ele>15.0</ele><time>2026-03-28T16:35:05.703Z</time></trkpt><trkpt lat="39.3528821" lon="17.0939566"><ele>15.0</ele><time>2026-03-28T16:35:06.701Z</time></trkpt><trkpt lat="39.3529607" lon="17.0941515"><ele>15.0</ele><time>2026-03-28T16:35:07.707Z</time></trkpt><trkpt lat="39.3530367" lon="17.0943388"><ele>15.0</ele><time>2026-03-28T16:35:08.698Z</time></trkpt><trkpt lat="39.3531117" lon="17.094519"><ele>15.0</ele><time>2026-03-28T16:35:09.699Z</time></trkpt><trkpt lat="39.3531921" lon="17.0946925"><ele>15.0</ele><time>2026-03-28T16:35:10.711Z</time></trkpt><trkpt lat="39.3532837" lon="17.0948553"><ele>15.0</ele><time>2026-03-28T16:35:11.715Z</time></trkpt><trkpt lat="39.3533826" lon="17.0950024"><ele>15.0</ele><time>2026-03-28T16:35:12.713Z</time></trkpt><trkpt lat="39.3534965" lon="17.095132"><ele>15.0</ele><time>2026-03-28T16:35:13.71Z</time></trkpt><trkpt lat="39.353645" lon="17.0952603"><ele>15.0</ele><time>2026-03-28T16:35:14.717Z</time></trkpt><trkpt lat="39.3538098" lon="17.095382"><ele>15.0</ele><time>2026-03-28T16:35:15.703Z</time></trkpt><trkpt lat="39.3539667" lon="17.0954981"><ele>15.0</ele><time>2026-03-28T16:35:16.702Z</time></trkpt><trkpt lat="39.3541291" lon="17.0956189"><ele>15.0</ele><time>2026-03-28T16:35:17.706Z</time></trkpt><trkpt lat="39.3543043" lon="17.0957376"><ele>15.0</ele><time>2026-03-28T16:35:18.697Z</time></trkpt><trkpt lat="39.3544901" lon="17.0958694"><ele>15.0</ele><time>2026-03-28T16:35:19.702Z</time></trkpt><trkpt lat="39.3546667" lon="17.095997"><ele>16.333333333333332</ele><time>2026-03-28T16:35:20.704Z</time></trkpt><trkpt lat="39.3548378" lon="17.0961247"><ele>17.666666666666664</ele><time>2026-03-28T16:35:21.704Z</time></trkpt><trkpt lat="39.3550007" lon="17.0962493"><ele>19.0</ele><time>2026-03-28T16:35:22.703Z</time></trkpt><trkpt lat="39.3551604" lon="17.0963652"><ele>19.0</ele><time>2026-03-28T16:35:23.702Z</time></trkpt><trkpt lat="39.3553095" lon="17.0964737"><ele>19.0</ele><time>2026-03-28T16:35:24.722Z</time></trkpt><trkpt lat="39.3554526" lon="17.0965824"><ele>19.0</ele><time>2026-03-28T16:35:25.707Z</time></trkpt><trkpt lat="39.3555885" lon="17.0966911"><ele>20.333333333333332</ele><time>2026-03-28T16:35:26.702Z</time></trkpt><trkpt lat="39.355722" lon="17.096793"><ele>21.666666666666668</ele><time>2026-03-28T16:35:27.704Z</time></trkpt><trkpt lat="39.3558476" lon="17.0969074"><ele>23.0</ele><time>2026-03-28T16:35:28.703Z</time></trkpt><trkpt lat="39.355975" lon="17.0970353"><ele>23.0</ele><time>2026-03-28T16:35:29.699Z</time></trkpt><trkpt lat="39.3560991" lon="17.0971713"><ele>23.0</ele><time>2026-03-28T16:35:30.7Z</time></trkpt><trkpt lat="39.3562338" lon="17.0973207"><ele>23.0</ele><time>2026-03-28T16:35:31.705Z</time></trkpt><trkpt lat="39.3563553" lon="17.0974605"><ele>23.666666666666668</ele><time>2026-03-28T16:35:32.71Z</time></trkpt><trkpt lat="39.3564771" lon="17.097603"><ele>24.333333333333336</ele><time>2026-03-28T16:35:33.708Z</time></trkpt><trkpt lat="39.3566006" lon="17.0977441"><ele>25.0</ele><time>2026-03-28T16:35:34.708Z</time></trkpt><trkpt lat="39.3567124" lon="17.0978745"><ele>25.0</ele><time>2026-03-28T16:35:35.709Z</time></trkpt><trkpt lat="39.3568177" lon="17.0980019"><ele>25.0</ele><time>2026-03-28T16:35:36.709Z</time></trkpt><trkpt lat="39.3569173" lon="17.098123"><ele>25.0</ele><time>2026-03-28T16:35:37.711Z</time></trkpt><trkpt lat="39.3570094" lon="17.0982405"><ele>25.0</ele><time>2026-03-28T16:35:38.71Z</time></trkpt><trkpt lat="39.3570884" lon="17.0983612"><ele>24.5</ele><time>2026-03-28T16:35:39.71Z</time></trkpt><trkpt lat="39.3571556" lon="17.0984939"><ele>24.0</ele><time>2026-03-28T16:35:40.709Z</time></trkpt><trkpt lat="39.3572083" lon="17.0986334"><ele>23.5</ele><time>2026-03-28T16:35:41.708Z</time></trkpt><trkpt lat="39.3572435" lon="17.0987717"><ele>23.0</ele><time>2026-03-28T16:35:42.706Z</time></trkpt><trkpt lat="39.3572617" lon="17.0989142"><ele>24.25</ele><time>2026-03-28T16:35:43.711Z</time></trkpt><trkpt lat="39.3572741" lon="17.099059"><ele>25.5</ele><time>2026-03-28T16:35:44.712Z</time></trkpt><trkpt lat="39.3572855" lon="17.0992059"><ele>26.75</ele><time>2026-03-28T16:35:45.709Z</time></trkpt><trkpt lat="39.3572951" lon="17.0993573"><ele>28.0</ele><time>2026-03-28T16:35:46.707Z</time></trkpt><trkpt lat="39.3573042" lon="17.0995117"><ele>28.0</ele><time>2026-03-28T16:35:47.708Z</time></trkpt><trkpt lat="39.3573205" lon="17.0996698"><ele>28.0</ele><time>2026-03-28T16:35:48.71Z</time></trkpt><trkpt lat="39.3573452" lon="17.0998329"><ele>28.0</ele><time>2026-03-28T16:35:49.704Z</time></trkpt><trkpt lat="39.3573783" lon="17.0999993"><ele>28.0</ele><time>2026-03-28T16:35:50.713Z</time></trkpt><trkpt lat="39.3574174" lon="17.1001696"><ele>27.0</ele><time>2026-03-28T16:35:51.711Z</time></trkpt><trkpt lat="39.3574587" lon="17.100345"><ele>26.0</ele><time>2026-03-28T16:35:52.71Z</time></trkpt><trkpt lat="39.3574985" lon="17.100525"><ele>25.0</ele><time>2026-03-28T16:35:53.708Z</time></trkpt><trkpt lat="39.3575366" lon="17.1007066"><ele>24.0</ele><time>2026-03-28T16:35:54.711Z</time></trkpt><trkpt lat="39.3575717" lon="17.1008883"><ele>23.5</ele><time>2026-03-28T16:35:55.707Z</time></trkpt><trkpt lat="39.3576013" lon="17.10107"><ele>23.0</ele><time>2026-03-28T16:35:56.707Z</time></trkpt><trkpt lat="39.3576284" lon="17.10125"><ele>22.5</ele><time>2026-03-28T16:35:57.724Z</time></trkpt><trkpt lat="39.3576558" lon="17.101428"><ele>22.0</ele><time>2026-03-28T16:35:58.713Z</time></trkpt><trkpt lat="39.3576812" lon="17.1016049"><ele>22.0</ele><time>2026-03-28T16:35:59.704Z</time></trkpt><trkpt lat="39.3577041" lon="17.1017795"><ele>22.0</ele><time>2026-03-28T16:36:00.705Z</time></trkpt><trkpt lat="39.357726" lon="17.1019527"><ele>22.0</ele><time>2026-03-28T16:36:01.708Z</time></trkpt><trkpt lat="39.3577464" lon="17.1021235"><ele>22.0</ele><time>2026-03-28T16:36:02.708Z</time></trkpt><trkpt lat="39.3577678" lon="17.1022915"><ele>21.75</ele><time>2026-03-28T16:36:03.712Z</time></trkpt><trkpt lat="39.3577912" lon="17.1024569"><ele>21.5</ele><time>2026-03-28T16:36:04.704Z</time></trkpt><trkpt lat="39.3578144" lon="17.1026203"><ele>21.25</ele><time>2026-03-28T16:36:05.704Z</time></trkpt><trkpt lat="39.3578352" lon="17.1027773"><ele>21.0</ele><time>2026-03-28T16:36:06.706Z</time></trkpt><trkpt lat="39.3578573" lon="17.1029279"><ele>21.0</ele><time>2026-03-28T16:36:07.709Z</time></trkpt><trkpt lat="39.3578793" lon="17.1030768"><ele>21.0</ele><time>2026-03-28T16:36:08.706Z</time></trkpt><trkpt lat="39.3578996" lon="17.103226"><ele>21.0</ele><time>2026-03-28T16:36:09.706Z</time></trkpt><trkpt lat="39.3579171" lon="17.1033759"><ele>21.0</ele><time>2026-03-28T16:36:10.701Z</time></trkpt><trkpt lat="39.3579306" lon="17.1035282"><ele>21.25</ele><time>2026-03-28T16:36:11.717Z</time></trkpt><trkpt lat="39.3579401" lon="17.103684"><ele>21.5</ele><time>2026-03-28T16:36:12.704Z</time></trkpt><trkpt lat="39.3579478" lon="17.1038407"><ele>21.75</ele><time>2026-03-28T16:36:13.706Z</time></trkpt><trkpt lat="39.3579548" lon="17.1040005"><ele>22.0</ele><time>2026-03-28T16:36:14.699Z</time></trkpt><trkpt lat="39.3579608" lon="17.1041632"><ele>22.0</ele><time>2026-03-28T16:36:15.704Z</time></trkpt><trkpt lat="39.3579664" lon="17.1043295"><ele>22.0</ele><time>2026-03-28T16:36:16.708Z</time></trkpt><trkpt lat="39.3579748" lon="17.1044994"><ele>22.0</ele><time>2026-03-28T16:36:17.705Z</time></trkpt><trkpt lat="39.3579873" lon="17.1046677"><ele>22.0</ele><time>2026-03-28T16:36:18.704Z</time></trkpt><trkpt lat="39.3580007" lon="17.1048344"><ele>22.5</ele><time>2026-03-28T16:36:19.705Z</time></trkpt><trkpt lat="39.3580157" lon="17.1050016"><ele>23.0</ele><time>2026-03-28T16:36:20.711Z</time></trkpt><trkpt lat="39.3580347" lon="17.105169"><ele>23.5</ele><time>2026-03-28T16:36:21.706Z</time></trkpt><trkpt lat="39.3580524" lon="17.1053353"><ele>24.0</ele><time>2026-03-28T16:36:22.708Z</time></trkpt><trkpt lat="39.3580691" lon="17.1054937"><ele>24.0</ele><time>2026-03-28T16:36:23.712Z</time></trkpt><trkpt lat="39.3580861" lon="17.1056482"><ele>24.0</ele><time>2026-03-28T16:36:24.707Z</time></trkpt><trkpt lat="39.3581036" lon="17.1058036"><ele>24.0</ele><time>2026-03-28T16:36:25.712Z</time></trkpt><trkpt lat="39.358124" lon="17.1059584"><ele>24.0</ele><time>2026-03-28T16:36:26.707Z</time></trkpt><trkpt lat="39.3581496" lon="17.1061114"><ele>23.75</ele><time>2026-03-28T16:36:27.706Z</time></trkpt><trkpt lat="39.3581804" lon="17.1062612"><ele>23.5</ele><time>2026-03-28T16:36:28.709Z</time></trkpt><trkpt lat="39.3582221" lon="17.1064065"><ele>23.25</ele><time>2026-03-28T16:36:29.709Z</time></trkpt><trkpt lat="39.3582734" lon="17.1065482"><ele>23.0</ele><time>2026-03-28T16:36:30.707Z</time></trkpt><trkpt lat="39.3583302" lon="17.1066884"><ele>23.0</ele><time>2026-03-28T16:36:31.713Z</time></trkpt><trkpt lat="39.3583878" lon="17.1068313"><ele>23.0</ele><time>2026-03-28T16:36:32.707Z</time></trkpt><trkpt lat="39.3584423" lon="17.1069798"><ele>23.0</ele><time>2026-03-28T16:36:33.709Z</time></trkpt><trkpt lat="39.3584935" lon="17.1071315"><ele>23.0</ele><time>2026-03-28T16:36:34.708Z</time></trkpt><trkpt lat="39.3585433" lon="17.1072853"><ele>22.0</ele><time>2026-03-28T16:36:35.703Z</time></trkpt><trkpt lat="39.3585887" lon="17.1074417"><ele>21.0</ele><time>2026-03-28T16:36:36.709Z</time></trkpt><trkpt lat="39.3586316" lon="17.1076005"><ele>20.0</ele><time>2026-03-28T16:36:37.71Z</time></trkpt><trkpt lat="39.3586745" lon="17.1077593"><ele>19.0</ele><time>2026-03-28T16:36:38.717Z</time></trkpt><trkpt lat="39.3587242" lon="17.1079145"><ele>19.0</ele><time>2026-03-28T16:36:39.714Z</time></trkpt><trkpt lat="39.3587765" lon="17.1080678"><ele>19.0</ele><time>2026-03-28T16:36:40.715Z</time></trkpt><trkpt lat="39.358827" lon="17.1082166"><ele>19.0</ele><time>2026-03-28T16:36:41.702Z</time></trkpt><trkpt lat="39.3588757" lon="17.1083552"><ele>19.0</ele><time>2026-03-28T16:36:42.708Z</time></trkpt><trkpt lat="39.3589223" lon="17.1084872"><ele>20.0</ele><time>2026-03-28T16:36:43.717Z</time></trkpt><trkpt lat="39.3589665" lon="17.1086156"><ele>21.0</ele><time>2026-03-28T16:36:44.705Z</time></trkpt><trkpt lat="39.3590091" lon="17.1087406"><ele>22.0</ele><time>2026-03-28T16:36:45.72Z</time></trkpt><trkpt lat="39.3590497" lon="17.1088607"><ele>23.0</ele><time>2026-03-28T16:36:46.709Z</time></trkpt><trkpt lat="39.3590854" lon="17.1089683"><ele>24.0</ele><time>2026-03-28T16:36:47.713Z</time></trkpt><trkpt lat="39.3591157" lon="17.1090599"><ele>23.5</ele><time>2026-03-28T16:36:48.71Z</time></trkpt><trkpt lat="39.3591406" lon="17.1091363"><ele>23.0</ele><time>2026-03-28T16:36:49.712Z</time></trkpt><trkpt lat="39.3591766" lon="17.1092774"><ele>22.5</ele><time>2026-03-28T16:36:51.708Z</time></trkpt><trkpt lat="39.3591898" lon="17.1093619"><ele>22.0</ele><time>2026-03-28T16:36:52.711Z</time></trkpt><trkpt lat="39.3592021" lon="17.1094999"><ele>21.5</ele><time>2026-03-28T16:36:54.713Z</time></trkpt><trkpt lat="39.3592088" lon="17.1095997"><ele>21.0</ele><time>2026-03-28T16:36:56.71Z</time></trkpt><trkpt lat="39.3592192" lon="17.1097015"><ele>21.0</ele><time>2026-03-28T16:36:58.717Z</time></trkpt><trkpt lat="39.359254" lon="17.1098331"><ele>21.0</ele><time>2026-03-28T16:37:00.708Z</time></trkpt><trkpt lat="39.3592833" lon="17.1099204"><ele>21.0</ele><time>2026-03-28T16:37:01.71Z</time></trkpt><trkpt lat="39.3593157" lon="17.1100215"><ele>21.0</ele><time>2026-03-28T16:37:02.71Z</time></trkpt><trkpt lat="39.3593461" lon="17.1101343"><ele>21.0</ele><time>2026-03-28T16:37:03.713Z</time></trkpt><trkpt lat="39.3593722" lon="17.1102567"><ele>21.0</ele><time>2026-03-28T16:37:04.707Z</time></trkpt><trkpt lat="39.3593929" lon="17.1103857"><ele>21.0</ele><time>2026-03-28T16:37:05.702Z</time></trkpt><trkpt lat="39.3594046" lon="17.1105116"><ele>21.0</ele><time>2026-03-28T16:37:06.711Z</time></trkpt><trkpt lat="39.3594077" lon="17.1106206"><ele>21.0</ele><time>2026-03-28T16:37:07.705Z</time></trkpt><trkpt lat="39.3594084" lon="17.1107143"><ele>21.0</ele><time>2026-03-28T16:37:08.707Z</time></trkpt><trkpt lat="39.3594204" lon="17.1108458"><ele>21.0</ele><time>2026-03-28T16:37:10.704Z</time></trkpt><trkpt lat="39.3595034" lon="17.1109907"><ele>21.0</ele><time>2026-03-28T16:37:33.711Z</time></trkpt><trkpt lat="39.3595717" lon="17.1110646"><ele>21.0</ele><time>2026-03-28T16:37:35.71Z</time></trkpt><trkpt lat="39.3596541" lon="17.1111757"><ele>21.0</ele><time>2026-03-28T16:37:37.718Z</time></trkpt><trkpt lat="39.3597006" lon="17.1113143"><ele>21.0</ele><time>2026-03-28T16:37:39.721Z</time></trkpt><trkpt lat="39.359686" lon="17.1113962"><ele>21.0</ele><time>2026-03-28T16:37:40.717Z</time></trkpt><trkpt lat="39.3596588" lon="17.1114836"><ele>21.0</ele><time>2026-03-28T16:37:41.717Z</time></trkpt><trkpt lat="39.3596307" lon="17.1115724"><ele>21.0</ele><time>2026-03-28T16:37:42.716Z</time></trkpt><trkpt lat="39.3596073" lon="17.1116532"><ele>21.0</ele><time>2026-03-28T16:37:43.711Z</time></trkpt><trkpt lat="39.3595843" lon="17.1117322"><ele>21.0</ele><time>2026-03-28T16:37:44.706Z</time></trkpt><trkpt lat="39.3595715" lon="17.1118734"><ele>20.25</ele><time>2026-03-28T16:37:46.718Z</time></trkpt><trkpt lat="39.3596469" lon="17.1119839"><ele>19.5</ele><time>2026-03-28T16:37:48.705Z</time></trkpt><trkpt lat="39.3597559" lon="17.1120041"><ele>18.75</ele><time>2026-03-28T16:37:49.711Z</time></trkpt><trkpt lat="39.3598848" lon="17.1120514"><ele>18.0</ele><time>2026-03-28T16:37:50.706Z</time></trkpt><trkpt lat="39.3600053" lon="17.1120911"><ele>18.0</ele><time>2026-03-28T16:37:51.709Z</time></trkpt><trkpt lat="39.3601313" lon="17.1121354"><ele>18.0</ele><time>2026-03-28T16:37:52.712Z</time></trkpt><trkpt lat="39.3602567" lon="17.1121756"><ele>18.0</ele><time>2026-03-28T16:37:53.708Z</time></trkpt><trkpt lat="39.3603817" lon="17.1122223"><ele>18.0</ele><time>2026-03-28T16:37:54.704Z</time></trkpt><trkpt lat="39.3605091" lon="17.1122693"><ele>18.5</ele><time>2026-03-28T16:37:55.705Z</time></trkpt><trkpt lat="39.3606359" lon="17.112307"><ele>19.0</ele><time>2026-03-28T16:37:56.714Z</time></trkpt><trkpt lat="39.3607566" lon="17.1123421"><ele>19.5</ele><time>2026-03-28T16:37:57.713Z</time></trkpt><trkpt lat="39.360867" lon="17.1123757"><ele>20.0</ele><time>2026-03-28T16:37:58.701Z</time></trkpt><trkpt lat="39.3609706" lon="17.1124112"><ele>20.0</ele><time>2026-03-28T16:37:59.707Z</time></trkpt><trkpt lat="39.3610635" lon="17.1124432"><ele>20.0</ele><time>2026-03-28T16:38:00.742Z</time></trkpt><trkpt lat="39.3611566" lon="17.1124733"><ele>20.0</ele><time>2026-03-28T16:38:01.705Z</time></trkpt><trkpt lat="39.36125" lon="17.1125035"><ele>20.0</ele><time>2026-03-28T16:38:02.711Z</time></trkpt><trkpt lat="39.3613459" lon="17.1125326"><ele>20.0</ele><time>2026-03-28T16:38:03.711Z</time></trkpt><trkpt lat="39.3614441" lon="17.1125611"><ele>19.8</ele><time>2026-03-28T16:38:04.711Z</time></trkpt><trkpt lat="39.3615434" lon="17.1125915"><ele>19.6</ele><time>2026-03-28T16:38:05.712Z</time></trkpt><trkpt lat="39.3616423" lon="17.1126252"><ele>19.4</ele><time>2026-03-28T16:38:06.708Z</time></trkpt><trkpt lat="39.3617429" lon="17.1126614"><ele>19.2</ele><time>2026-03-28T16:38:07.706Z</time></trkpt><trkpt lat="39.3618443" lon="17.1126965"><ele>19.0</ele><time>2026-03-28T16:38:08.717Z</time></trkpt><trkpt lat="39.3619454" lon="17.1127295"><ele>19.0</ele><time>2026-03-28T16:38:09.706Z</time></trkpt><trkpt lat="39.3620483" lon="17.1127639"><ele>19.0</ele><time>2026-03-28T16:38:10.702Z</time></trkpt><trkpt lat="39.3621533" lon="17.1128007"><ele>19.0</ele><time>2026-03-28T16:38:11.704Z</time></trkpt><trkpt lat="39.3622572" lon="17.1128361"><ele>19.0</ele><time>2026-03-28T16:38:12.709Z</time></trkpt><trkpt lat="39.3623602" lon="17.1128683"><ele>19.0</ele><time>2026-03-28T16:38:13.719Z</time></trkpt><trkpt lat="39.3624608" lon="17.1129013"><ele>19.4</ele><time>2026-03-28T16:38:14.713Z</time></trkpt><trkpt lat="39.3625602" lon="17.1129344"><ele>19.799999999999997</ele><time>2026-03-28T16:38:15.716Z</time></trkpt><trkpt lat="39.3626566" lon="17.1129689"><ele>20.200000000000003</ele><time>2026-03-28T16:38:16.709Z</time></trkpt><trkpt lat="39.3627475" lon="17.1130019"><ele>20.6</ele><time>2026-03-28T16:38:17.707Z</time></trkpt><trkpt lat="39.3628337" lon="17.1130331"><ele>21.0</ele><time>2026-03-28T16:38:18.705Z</time></trkpt><trkpt lat="39.3629093" lon="17.1130586"><ele>21.0</ele><time>2026-03-28T16:38:19.706Z</time></trkpt><trkpt lat="39.3630204" lon="17.1130863"><ele>21.0</ele><time>2026-03-28T16:38:21.706Z</time></trkpt><trkpt lat="39.3631087" lon="17.113096"><ele>21.0</ele><time>2026-03-28T16:38:23.708Z</time></trkpt><trkpt lat="39.3632004" lon="17.1131216"><ele>21.0</ele><time>2026-03-28T16:38:25.706Z</time></trkpt><trkpt lat="39.3633099" lon="17.1131997"><ele>21.0</ele><time>2026-03-28T16:38:27.712Z</time></trkpt><trkpt lat="39.3633941" lon="17.113226"><ele>20.666666666666668</ele><time>2026-03-28T16:38:28.705Z</time></trkpt><trkpt lat="39.363473" lon="17.1132487"><ele>20.333333333333332</ele><time>2026-03-28T16:38:29.705Z</time></trkpt><trkpt lat="39.3635464" lon="17.113271"><ele>20.0</ele><time>2026-03-28T16:38:30.71Z</time></trkpt><trkpt lat="39.3636215" lon="17.1132934"><ele>19.666666666666664</ele><time>2026-03-28T16:38:31.704Z</time></trkpt><trkpt lat="39.3636963" lon="17.1133162"><ele>19.333333333333332</ele><time>2026-03-28T16:38:32.712Z</time></trkpt><trkpt lat="39.3637739" lon="17.1133413"><ele>19.0</ele><time>2026-03-28T16:38:33.704Z</time></trkpt><trkpt lat="39.363857" lon="17.1133688"><ele>19.799999999999997</ele><time>2026-03-28T16:38:34.709Z</time></trkpt><trkpt lat="39.363946" lon="17.1133977"><ele>20.599999999999998</ele><time>2026-03-28T16:38:35.707Z</time></trkpt><trkpt lat="39.3640398" lon="17.1134274"><ele>21.4</ele><time>2026-03-28T16:38:36.713Z</time></trkpt><trkpt lat="39.3641375" lon="17.1134577"><ele>22.2</ele><time>2026-03-28T16:38:37.703Z</time></trkpt><trkpt lat="39.3642364" lon="17.1134873"><ele>23.0</ele><time>2026-03-28T16:38:38.711Z</time></trkpt><trkpt lat="39.3643336" lon="17.1135166"><ele>23.0</ele><time>2026-03-28T16:38:39.707Z</time></trkpt><trkpt lat="39.3644297" lon="17.1135455"><ele>23.0</ele><time>2026-03-28T16:38:40.702Z</time></trkpt><trkpt lat="39.3645286" lon="17.113584"><ele>23.0</ele><time>2026-03-28T16:38:41.701Z</time></trkpt><trkpt lat="39.3646299" lon="17.1136312"><ele>23.0</ele><time>2026-03-28T16:38:42.709Z</time></trkpt><trkpt lat="39.3647384" lon="17.1136881"><ele>23.0</ele><time>2026-03-28T16:38:43.707Z</time></trkpt><trkpt lat="39.3648548" lon="17.1137511"><ele>24.0</ele><time>2026-03-28T16:38:44.709Z</time></trkpt><trkpt lat="39.3649798" lon="17.1138188"><ele>25.0</ele><time>2026-03-28T16:38:45.712Z</time></trkpt><trkpt lat="39.3651068" lon="17.1138885"><ele>26.0</ele><time>2026-03-28T16:38:46.714Z</time></trkpt><trkpt lat="39.3652378" lon="17.1139598"><ele>27.0</ele><time>2026-03-28T16:38:47.714Z</time></trkpt><trkpt lat="39.3653744" lon="17.1140338"><ele>25.666666666666668</ele><time>2026-03-28T16:38:48.706Z</time></trkpt><trkpt lat="39.3655159" lon="17.1141114"><ele>24.333333333333336</ele><time>2026-03-28T16:38:49.717Z</time></trkpt><trkpt lat="39.3656624" lon="17.1141876"><ele>23.0</ele><time>2026-03-28T16:38:50.72Z</time></trkpt><trkpt lat="39.3658105" lon="17.1142621"><ele>23.0</ele><time>2026-03-28T16:38:51.714Z</time></trkpt><trkpt lat="39.3659493" lon="17.114333"><ele>23.0</ele><time>2026-03-28T16:38:52.708Z</time></trkpt><trkpt lat="39.3660765" lon="17.1143925"><ele>23.0</ele><time>2026-03-28T16:38:53.705Z</time></trkpt><trkpt lat="39.366194" lon="17.1144504"><ele>23.0</ele><time>2026-03-28T16:38:54.716Z</time></trkpt><trkpt lat="39.366295" lon="17.1145032"><ele>22.799999999999997</ele><time>2026-03-28T16:38:55.704Z</time></trkpt><trkpt lat="39.3664025" lon="17.1145483"><ele>22.6</ele><time>2026-03-28T16:38:56.715Z</time></trkpt><trkpt lat="39.3665134" lon="17.1145898"><ele>22.4</ele><time>2026-03-28T16:38:57.72Z</time></trkpt><trkpt lat="39.3666176" lon="17.1146211"><ele>22.200000000000003</ele><time>2026-03-28T16:38:58.707Z</time></trkpt><trkpt lat="39.3667071" lon="17.114648"><ele>22.0</ele><time>2026-03-28T16:38:59.718Z</time></trkpt><trkpt lat="39.3667906" lon="17.1146801"><ele>22.0</ele><time>2026-03-28T16:39:00.716Z</time></trkpt><trkpt lat="39.3668967" lon="17.1147225"><ele>22.0</ele><time>2026-03-28T16:39:02.721Z</time></trkpt><trkpt lat="39.3669776" lon="17.1147674"><ele>22.0</ele><time>2026-03-28T16:39:04.707Z</time></trkpt><trkpt lat="39.3670563" lon="17.1148121"><ele>22.0</ele><time>2026-03-28T16:39:06.711Z</time></trkpt><trkpt lat="39.3671256" lon="17.1148506"><ele>22.0</ele><time>2026-03-28T16:39:08.71Z</time></trkpt><trkpt lat="39.3671863" lon="17.1148854"><ele>22.0</ele><time>2026-03-28T16:39:11.707Z</time></trkpt><trkpt lat="39.3672581" lon="17.1149111"><ele>22.0</ele><time>2026-03-28T16:39:26.713Z</time></trkpt><trkpt lat="39.3673272" lon="17.1149332"><ele>22.0</ele><time>2026-03-28T16:39:29.717Z</time></trkpt><trkpt lat="39.3673963" lon="17.1149797"><ele>22.0</ele><time>2026-03-28T16:39:34.715Z</time></trkpt><trkpt lat="39.3674493" lon="17.1150256"><ele>22.0</ele><time>2026-03-28T16:39:44.722Z</time></trkpt><trkpt lat="39.3674665" lon="17.1151076"><ele>22.0</ele><time>2026-03-28T16:39:48.71Z</time></trkpt><trkpt lat="39.3674138" lon="17.1151576"><ele>22.0</ele><time>2026-03-28T16:39:55.705Z</time></trkpt><trkpt lat="39.3673454" lon="17.1152145"><ele>22.0</ele><time>2026-03-28T16:39:57.727Z</time></trkpt><trkpt lat="39.3672969" lon="17.1152683"><ele>22.0</ele><time>2026-03-28T16:39:58.711Z</time></trkpt><trkpt lat="39.3672454" lon="17.1153338"><ele>22.0</ele><time>2026-03-28T16:39:59.717Z</time></trkpt><trkpt lat="39.3671925" lon="17.115398"><ele>22.0</ele><time>2026-03-28T16:40:00.71Z</time></trkpt><trkpt lat="39.3671353" lon="17.1154673"><ele>22.0</ele><time>2026-03-28T16:40:01.714Z</time></trkpt><trkpt lat="39.3670763" lon="17.1155395"><ele>22.0</ele><time>2026-03-28T16:40:02.717Z</time></trkpt><trkpt lat="39.367031" lon="17.1156081"><ele>22.0</ele><time>2026-03-28T16:40:03.705Z</time></trkpt><trkpt lat="39.3669943" lon="17.1156827"><ele>22.0</ele><time>2026-03-28T16:40:04.697Z</time></trkpt><trkpt lat="39.3669153" lon="17.1157974"><ele>20.8</ele><time>2026-03-28T16:40:06.717Z</time></trkpt><trkpt lat="39.3668231" lon="17.1158968"><ele>19.6</ele><time>2026-03-28T16:40:08.716Z</time></trkpt><trkpt lat="39.3667622" lon="17.116009"><ele>18.400000000000002</ele><time>2026-03-28T16:40:10.717Z</time></trkpt><trkpt lat="39.3667015" lon="17.1161451"><ele>17.200000000000003</ele><time>2026-03-28T16:40:12.702Z</time></trkpt><trkpt lat="39.3666728" lon="17.1162233"><ele>16.0</ele><time>2026-03-28T16:40:13.71Z</time></trkpt><trkpt lat="39.3666488" lon="17.1163101"><ele>16.0</ele><time>2026-03-28T16:40:14.709Z</time></trkpt><trkpt lat="39.3666393" lon="17.1164055"><ele>15.999999999999998</ele><time>2026-03-28T16:40:15.706Z</time></trkpt><trkpt lat="39.366644" lon="17.1165048"><ele>16.0</ele><time>2026-03-28T16:40:16.697Z</time></trkpt><trkpt lat="39.3666605" lon="17.1165992"><ele>16.0</ele><time>2026-03-28T16:40:17.705Z</time></trkpt><trkpt lat="39.3666816" lon="17.1166859"><ele>15.999999999999998</ele><time>2026-03-28T16:40:18.702Z</time></trkpt><trkpt lat="39.3667066" lon="17.1167654"><ele>16.0</ele><time>2026-03-28T16:40:19.714Z</time></trkpt><trkpt lat="39.3667328" lon="17.1168424"><ele>16.0</ele><time>2026-03-28T16:40:20.701Z</time></trkpt><trkpt lat="39.3667787" lon="17.1169746"><ele>15.666666666666666</ele><time>2026-03-28T16:40:22.709Z</time></trkpt><trkpt lat="39.3668247" lon="17.1171136"><ele>15.333333333333332</ele><time>2026-03-28T16:40:24.715Z</time></trkpt><trkpt lat="39.3668498" lon="17.1171932"><ele>15.0</ele><time>2026-03-28T16:40:25.704Z</time></trkpt><trkpt lat="39.3668733" lon="17.1172807"><ele>14.666666666666668</ele><time>2026-03-28T16:40:26.701Z</time></trkpt><trkpt lat="39.366896" lon="17.1173824"><ele>14.333333333333334</ele><time>2026-03-28T16:40:27.703Z</time></trkpt><trkpt lat="39.366916" lon="17.1174873"><ele>14.0</ele><time>2026-03-28T16:40:28.708Z</time></trkpt><trkpt lat="39.3669307" lon="17.1175781"><ele>13.833333333333334</ele><time>2026-03-28T16:40:29.708Z</time></trkpt><trkpt lat="39.3669434" lon="17.1176587"><ele>13.666666666666668</ele><time>2026-03-28T16:40:30.701Z</time></trkpt><trkpt lat="39.3669577" lon="17.1177441"><ele>13.5</ele><time>2026-03-28T16:40:31.717Z</time></trkpt><trkpt lat="39.36698" lon="17.1178859"><ele>13.333333333333332</ele><time>2026-03-28T16:40:33.706Z</time></trkpt><trkpt lat="39.3669922" lon="17.1179667"><ele>13.166666666666666</ele><time>2026-03-28T16:40:34.709Z</time></trkpt><trkpt lat="39.3670086" lon="17.118067"><ele>13.0</ele><time>2026-03-28T16:40:35.703Z</time></trkpt><trkpt lat="39.3670293" lon="17.1181808"><ele>12.333333333333332</ele><time>2026-03-28T16:40:36.705Z</time></trkpt><trkpt lat="39.3670476" lon="17.1182974"><ele>11.666666666666666</ele><time>2026-03-28T16:40:37.7Z</time></trkpt><trkpt lat="39.3670679" lon="17.1184126"><ele>11.0</ele><time>2026-03-28T16:40:38.699Z</time></trkpt><trkpt lat="39.367072" lon="17.1185193"><ele>10.333333333333332</ele><time>2026-03-28T16:40:39.704Z</time></trkpt><trkpt lat="39.3670861" lon="17.1186258"><ele>9.666666666666666</ele><time>2026-03-28T16:40:40.709Z</time></trkpt><trkpt lat="39.3671026" lon="17.1187305"><ele>9.0</ele><time>2026-03-28T16:40:41.699Z</time></trkpt><trkpt lat="39.3671168" lon="17.1188233"><ele>9.0</ele><time>2026-03-28T16:40:42.71Z</time></trkpt><trkpt lat="39.3671283" lon="17.1189125"><ele>9.0</ele><time>2026-03-28T16:40:43.712Z</time></trkpt><trkpt lat="39.3671723" lon="17.1190672"><ele>9.0</ele><time>2026-03-28T16:40:45.713Z</time></trkpt><trkpt lat="39.3671955" lon="17.1192077"><ele>9.0</ele><time>2026-03-28T16:40:47.706Z</time></trkpt><trkpt lat="39.3672097" lon="17.1193506"><ele>9.0</ele><time>2026-03-28T16:40:49.72Z</time></trkpt><trkpt lat="39.3672227" lon="17.1194315"><ele>9.142857142857144</ele><time>2026-03-28T16:40:50.724Z</time></trkpt><trkpt lat="39.3672338" lon="17.1195148"><ele>9.285714285714286</ele><time>2026-03-28T16:40:51.718Z</time></trkpt><trkpt lat="39.367251" lon="17.1195991"><ele>9.428571428571429</ele><time>2026-03-28T16:40:52.716Z</time></trkpt><trkpt lat="39.367262" lon="17.1196819"><ele>9.571428571428573</ele><time>2026-03-28T16:40:53.708Z</time></trkpt><trkpt lat="39.3672739" lon="17.1197659"><ele>9.714285714285715</ele><time>2026-03-28T16:40:54.712Z</time></trkpt><trkpt lat="39.3672862" lon="17.1198477"><ele>9.857142857142858</ele><time>2026-03-28T16:40:55.703Z</time></trkpt><trkpt lat="39.3672982" lon="17.1199332"><ele>10.0</ele><time>2026-03-28T16:40:56.705Z</time></trkpt><trkpt lat="39.367308" lon="17.1200138"><ele>10.0</ele><time>2026-03-28T16:40:57.706Z</time></trkpt><trkpt lat="39.3673198" lon="17.1200964"><ele>10.0</ele><time>2026-03-28T16:40:58.706Z</time></trkpt><trkpt lat="39.3673325" lon="17.1201838"><ele>10.0</ele><time>2026-03-28T16:40:59.708Z</time></trkpt><trkpt lat="39.3673451" lon="17.1202775"><ele>10.0</ele><time>2026-03-28T16:41:00.72Z</time></trkpt><trkpt lat="39.3673541" lon="17.1203739"><ele>10.0</ele><time>2026-03-28T16:41:01.698Z</time></trkpt><trkpt lat="39.3673684" lon="17.1204768"><ele>10.0</ele><time>2026-03-28T16:41:02.711Z</time></trkpt><trkpt lat="39.3673824" lon="17.1205848"><ele>10.0</ele><time>2026-03-28T16:41:03.706Z</time></trkpt><trkpt lat="39.3673958" lon="17.1206843"><ele>9.6</ele><time>2026-03-28T16:41:04.712Z</time></trkpt><trkpt lat="39.3674072" lon="17.1207664"><ele>9.2</ele><time>2026-03-28T16:41:05.708Z</time></trkpt><trkpt lat="39.3674262" lon="17.1209054"><ele>8.8</ele><time>2026-03-28T16:41:07.697Z</time></trkpt><trkpt lat="39.3674485" lon="17.1210539"><ele>8.4</ele><time>2026-03-28T16:41:09.711Z</time></trkpt><trkpt lat="39.36747" lon="17.1211863"><ele>8.0</ele><time>2026-03-28T16:41:11.702Z</time></trkpt><trkpt lat="39.367487" lon="17.1213111"><ele>8.0</ele><time>2026-03-28T16:41:13.71Z</time></trkpt><trkpt lat="39.3675053" lon="17.1214341"><ele>8.0</ele><time>2026-03-28T16:41:15.703Z</time></trkpt><trkpt lat="39.367524" lon="17.121559"><ele>8.0</ele><time>2026-03-28T16:41:17.709Z</time></trkpt><trkpt lat="39.3675415" lon="17.1216875"><ele>8.0</ele><time>2026-03-28T16:41:19.708Z</time></trkpt><trkpt lat="39.3675579" lon="17.1218021"><ele>8.0</ele><time>2026-03-28T16:41:21.71Z</time></trkpt><trkpt lat="39.3675747" lon="17.1219103"><ele>8.142857142857142</ele><time>2026-03-28T16:41:24.705Z</time></trkpt><trkpt lat="39.3675906" lon="17.1220146"><ele>8.285714285714285</ele><time>2026-03-28T16:41:26.719Z</time></trkpt><trkpt lat="39.367605" lon="17.1221068"><ele>8.428571428571429</ele><time>2026-03-28T16:41:28.704Z</time></trkpt><trkpt lat="39.3676188" lon="17.1222019"><ele>8.571428571428571</ele><time>2026-03-28T16:41:30.703Z</time></trkpt><trkpt lat="39.3676301" lon="17.122298"><ele>8.714285714285715</ele><time>2026-03-28T16:41:32.709Z</time></trkpt><trkpt lat="39.3676437" lon="17.1223905"><ele>8.857142857142858</ele><time>2026-03-28T16:41:34.702Z</time></trkpt><trkpt lat="39.3676562" lon="17.1224787"><ele>9.0</ele><time>2026-03-28T16:41:36.702Z</time></trkpt><trkpt lat="39.3676683" lon="17.1225665"><ele>9.666666666666666</ele><time>2026-03-28T16:41:38.715Z</time></trkpt><trkpt lat="39.36768" lon="17.1226603"><ele>10.333333333333332</ele><time>2026-03-28T16:41:40.728Z</time></trkpt><trkpt lat="39.3676967" lon="17.1227726"><ele>11.0</ele><time>2026-03-28T16:41:42.716Z</time></trkpt><trkpt lat="39.3677085" lon="17.1228556"><ele>11.666666666666666</ele><time>2026-03-28T16:41:44.706Z</time></trkpt><trkpt lat="39.3677206" lon="17.1229644"><ele>12.333333333333332</ele><time>2026-03-28T16:41:47.716Z</time></trkpt><trkpt lat="39.367734" lon="17.1230753"><ele>13.0</ele><time>2026-03-28T16:41:50.706Z</time></trkpt><trkpt lat="39.3677486" lon="17.1231621"><ele>12.499999999999998</ele><time>2026-03-28T16:41:52.709Z</time></trkpt><trkpt lat="39.3677629" lon="17.1232609"><ele>12.0</ele><time>2026-03-28T16:41:54.709Z</time></trkpt><trkpt lat="39.3677789" lon="17.1233609"><ele>11.5</ele><time>2026-03-28T16:41:56.714Z</time></trkpt><trkpt lat="39.3677883" lon="17.1234545"><ele>11.0</ele><time>2026-03-28T16:41:58.713Z</time></trkpt><trkpt lat="39.3677947" lon="17.1235643"><ele>10.5</ele><time>2026-03-28T16:42:01.71Z</time></trkpt><trkpt lat="39.3678023" lon="17.1236555"><ele>10.0</ele><time>2026-03-28T16:42:04.706Z</time></trkpt><trkpt lat="39.3678175" lon="17.1237646"><ele>10.0</ele><time>2026-03-28T16:42:07.711Z</time></trkpt><trkpt lat="39.3678216" lon="17.1238501"><ele>10.0</ele><time>2026-03-28T16:42:09.702Z</time></trkpt><trkpt lat="39.3678253" lon="17.1239651"><ele>10.0</ele><time>2026-03-28T16:42:13.714Z</time></trkpt><trkpt lat="39.3678452" lon="17.1240529"><ele>10.0</ele><time>2026-03-28T16:42:14.71Z</time></trkpt><trkpt lat="39.3678703" lon="17.1241412"><ele>10.0</ele><time>2026-03-28T16:42:15.721Z</time></trkpt><trkpt lat="39.3678908" lon="17.1242232"><ele>10.0</ele><time>2026-03-28T16:42:16.717Z</time></trkpt><trkpt lat="39.367915" lon="17.1243562"><ele>9.833333333333334</ele><time>2026-03-28T16:42:18.708Z</time></trkpt><trkpt lat="39.3679312" lon="17.1244631"><ele>9.666666666666668</ele><time>2026-03-28T16:42:20.708Z</time></trkpt><trkpt lat="39.3679454" lon="17.1245605"><ele>9.5</ele><time>2026-03-28T16:42:22.704Z</time></trkpt><trkpt lat="39.3679627" lon="17.124655"><ele>9.333333333333334</ele><time>2026-03-28T16:42:24.703Z</time></trkpt><trkpt lat="39.3679758" lon="17.1247566"><ele>9.166666666666666</ele><time>2026-03-28T16:42:26.704Z</time></trkpt><trkpt lat="39.3679895" lon="17.1248595"><ele>9.0</ele><time>2026-03-28T16:42:28.706Z</time></trkpt><trkpt lat="39.3679927" lon="17.1249436"><ele>9.0</ele><time>2026-03-28T16:42:45.705Z</time></trkpt><trkpt lat="39.3680076" lon="17.1250294"><ele>9.0</ele><time>2026-03-28T16:42:47.712Z</time></trkpt><trkpt lat="39.3680333" lon="17.1252117"><ele>9.0</ele><time>2026-03-28T16:42:49.706Z</time></trkpt><trkpt lat="39.3680608" lon="17.1253899"><ele>9.0</ele><time>2026-03-28T16:42:50.702Z</time></trkpt><trkpt lat="39.3680899" lon="17.1255907"><ele>9.25</ele><time>2026-03-28T16:42:51.7Z</time></trkpt><trkpt lat="39.3681133" lon="17.1257763"><ele>9.5</ele><time>2026-03-28T16:42:52.715Z</time></trkpt><trkpt lat="39.3681332" lon="17.1259364"><ele>9.75</ele><time>2026-03-28T16:42:53.704Z</time></trkpt><trkpt lat="39.3681482" lon="17.1260447"><ele>10.0</ele><time>2026-03-28T16:42:54.699Z</time></trkpt><trkpt lat="39.3681653" lon="17.1261757"><ele>10.0</ele><time>2026-03-28T16:42:56.712Z</time></trkpt><trkpt lat="39.3681796" lon="17.1262739"><ele>10.0</ele><time>2026-03-28T16:42:59.707Z</time></trkpt><trkpt lat="39.368193" lon="17.12637"><ele>10.0</ele><time>2026-03-28T16:43:02.713Z</time></trkpt><trkpt lat="39.3682048" lon="17.1264515"><ele>10.0</ele><time>2026-03-28T16:43:06.756Z</time></trkpt><trkpt lat="39.368219" lon="17.12654"><ele>10.0</ele><time>2026-03-28T16:43:09.706Z</time></trkpt><trkpt lat="39.3682374" lon="17.1266604"><ele>10.0</ele><time>2026-03-28T16:43:11.703Z</time></trkpt><trkpt lat="39.3682513" lon="17.1267605"><ele>9.8</ele><time>2026-03-28T16:43:13.714Z</time></trkpt><trkpt lat="39.36827" lon="17.12688"><ele>9.6</ele><time>2026-03-28T16:43:15.733Z</time></trkpt><trkpt lat="39.3682854" lon="17.1269964"><ele>9.4</ele><time>2026-03-28T16:43:17.707Z</time></trkpt><trkpt lat="39.3683058" lon="17.1271305"><ele>9.2</ele><time>2026-03-28T16:43:19.705Z</time></trkpt><trkpt lat="39.3683274" lon="17.1272863"><ele>9.0</ele><time>2026-03-28T16:43:21.698Z</time></trkpt><trkpt lat="39.3683386" lon="17.1273694"><ele>9.0</ele><time>2026-03-28T16:43:22.705Z</time></trkpt><trkpt lat="39.3683501" lon="17.1274504"><ele>9.0</ele><time>2026-03-28T16:43:23.713Z</time></trkpt><trkpt lat="39.368367" lon="17.1275831"><ele>9.0</ele><time>2026-03-28T16:43:25.704Z</time></trkpt><trkpt lat="39.36838" lon="17.127705"><ele>9.0</ele><time>2026-03-28T16:43:27.7Z</time></trkpt><trkpt lat="39.3683888" lon="17.1278185"><ele>9.0</ele><time>2026-03-28T16:43:29.7Z</time></trkpt><trkpt lat="39.3684125" lon="17.1279261"><ele>9.0</ele><time>2026-03-28T16:43:32.713Z</time></trkpt><trkpt lat="39.3684303" lon="17.1280285"><ele>9.0</ele><time>2026-03-28T16:43:35.704Z</time></trkpt><trkpt lat="39.368444" lon="17.1281277"><ele>9.0</ele><time>2026-03-28T16:43:38.705Z</time></trkpt><trkpt lat="39.368457" lon="17.1282102"><ele>9.0</ele><time>2026-03-28T16:43:40.708Z</time></trkpt><trkpt lat="39.3684723" lon="17.128321"><ele>9.0</ele><time>2026-03-28T16:43:42.702Z</time></trkpt><trkpt lat="39.3684925" lon="17.1284555"><ele>9.0</ele><time>2026-03-28T16:43:44.705Z</time></trkpt><trkpt lat="39.3685153" lon="17.1286111"><ele>8.8</ele><time>2026-03-28T16:43:46.709Z</time></trkpt><trkpt lat="39.3685272" lon="17.1286952"><ele>8.600000000000001</ele><time>2026-03-28T16:43:47.702Z</time></trkpt><trkpt lat="39.3685384" lon="17.1287758"><ele>8.4</ele><time>2026-03-28T16:43:48.712Z</time></trkpt><trkpt lat="39.3685579" lon="17.1289231"><ele>8.200000000000001</ele><time>2026-03-28T16:43:50.716Z</time></trkpt><trkpt lat="39.3685762" lon="17.1290601"><ele>8.0</ele><time>2026-03-28T16:43:52.704Z</time></trkpt><trkpt lat="39.3685943" lon="17.1291899"><ele>8.0</ele><time>2026-03-28T16:43:54.704Z</time></trkpt><trkpt lat="39.3686118" lon="17.1293188"><ele>8.0</ele><time>2026-03-28T16:43:56.708Z</time></trkpt><trkpt lat="39.3686255" lon="17.1294361"><ele>8.0</ele><time>2026-03-28T16:43:58.718Z</time></trkpt><trkpt lat="39.3686445" lon="17.1295658"><ele>8.0</ele><time>2026-03-28T16:44:00.713Z</time></trkpt><trkpt lat="39.3686654" lon="17.129703"><ele>8.0</ele><time>2026-03-28T16:44:02.704Z</time></trkpt><trkpt lat="39.368682" lon="17.1298379"><ele>7.666666666666666</ele><time>2026-03-28T16:44:04.705Z</time></trkpt><trkpt lat="39.368698" lon="17.1299614"><ele>7.333333333333333</ele><time>2026-03-28T16:44:06.706Z</time></trkpt><trkpt lat="39.3687126" lon="17.130072"><ele>7.0</ele><time>2026-03-28T16:44:08.702Z</time></trkpt><trkpt lat="39.3687293" lon="17.1301794"><ele>6.666666666666666</ele><time>2026-03-28T16:44:10.704Z</time></trkpt><trkpt lat="39.3687426" lon="17.1302816"><ele>6.333333333333333</ele><time>2026-03-28T16:44:12.704Z</time></trkpt><trkpt lat="39.3687563" lon="17.1303812"><ele>6.0</ele><time>2026-03-28T16:44:14.715Z</time></trkpt><trkpt lat="39.3687707" lon="17.1304939"><ele>6.0</ele><time>2026-03-28T16:44:17.701Z</time></trkpt><trkpt lat="39.3687819" lon="17.130582"><ele>6.0</ele><time>2026-03-28T16:44:19.709Z</time></trkpt><trkpt lat="39.3687907" lon="17.1306757"><ele>6.0</ele><time>2026-03-28T16:44:21.7Z</time></trkpt><trkpt lat="39.3687926" lon="17.1307667"><ele>6.0</ele><time>2026-03-28T16:44:23.706Z</time></trkpt><trkpt lat="39.3688116" lon="17.1308636"><ele>6.0</ele><time>2026-03-28T16:44:37.701Z</time></trkpt><trkpt lat="39.3688383" lon="17.1310435"><ele>6.0</ele><time>2026-03-28T16:44:38.705Z</time></trkpt><trkpt lat="39.3688597" lon="17.1312026"><ele>6.0</ele><time>2026-03-28T16:44:39.708Z</time></trkpt><trkpt lat="39.3688779" lon="17.1313215"><ele>6.0</ele><time>2026-03-28T16:44:40.695Z</time></trkpt><trkpt lat="39.3688955" lon="17.1314388"><ele>6.0</ele><time>2026-03-28T16:44:41.709Z</time></trkpt><trkpt lat="39.3689111" lon="17.1315447"><ele>6.0</ele><time>2026-03-28T16:44:42.715Z</time></trkpt><trkpt lat="39.3689239" lon="17.1316311"><ele>6.0</ele><time>2026-03-28T16:44:43.714Z</time></trkpt><trkpt lat="39.368946" lon="17.1317582"><ele>6.0</ele><time>2026-03-28T16:44:45.709Z</time></trkpt><trkpt lat="39.3689643" lon="17.1318598"><ele>6.0</ele><time>2026-03-28T16:44:47.704Z</time></trkpt><trkpt lat="39.3689788" lon="17.1319571"><ele>6.0</ele><time>2026-03-28T16:44:49.714Z</time></trkpt><trkpt lat="39.3689948" lon="17.1320777"><ele>6.0</ele><time>2026-03-28T16:44:51.71Z</time></trkpt><trkpt lat="39.3690092" lon="17.1321923"><ele>6.0</ele><time>2026-03-28T16:44:53.71Z</time></trkpt><trkpt lat="39.3690171" lon="17.132283"><ele>6.0</ele><time>2026-03-28T16:44:55.704Z</time></trkpt><trkpt lat="39.3690185" lon="17.1323877"><ele>6.0</ele><time>2026-03-28T16:44:58.708Z</time></trkpt><trkpt lat="39.369021" lon="17.1324826"><ele>6.333333333333333</ele><time>2026-03-28T16:45:01.705Z</time></trkpt><trkpt lat="39.3690465" lon="17.1325664"><ele>6.666666666666666</ele><time>2026-03-28T16:45:12.719Z</time></trkpt><trkpt lat="39.3691108" lon="17.1326396"><ele>7.0</ele><time>2026-03-28T16:45:19.702Z</time></trkpt><trkpt lat="39.3691802" lon="17.1326742"><ele>7.333333333333333</ele><time>2026-03-28T16:45:22.702Z</time></trkpt><trkpt lat="39.3692443" lon="17.1326956"><ele>7.666666666666666</ele><time>2026-03-28T16:45:25.706Z</time></trkpt><trkpt lat="39.3693246" lon="17.1327526"><ele>8.0</ele><time>2026-03-28T16:45:28.709Z</time></trkpt><trkpt lat="39.3693513" lon="17.1328471"><ele>7.999999999999999</ele><time>2026-03-28T16:45:30.71Z</time></trkpt><trkpt lat="39.3693496" lon="17.1329451"><ele>8.0</ele><time>2026-03-28T16:45:32.708Z</time></trkpt><trkpt lat="39.3693488" lon="17.1330287"><ele>8.0</ele><time>2026-03-28T16:45:34.706Z</time></trkpt><trkpt lat="39.3693408" lon="17.1331296"><ele>8.0</ele><time>2026-03-28T16:45:37.713Z</time></trkpt><trkpt lat="39.3692823" lon="17.1332317"><ele>7.999999999999999</ele><time>2026-03-28T16:45:40.712Z</time></trkpt><trkpt lat="39.3692101" lon="17.133236"><ele>8.0</ele><time>2026-03-28T16:45:41.711Z</time></trkpt><trkpt lat="39.3691201" lon="17.1332417"><ele>8.0</ele><time>2026-03-28T16:45:42.707Z</time></trkpt><trkpt lat="39.3690106" lon="17.1331993"><ele>8.0</ele><time>2026-03-28T16:45:43.701Z</time></trkpt><trkpt lat="39.368887" lon="17.1331668"><ele>8.0</ele><time>2026-03-28T16:45:44.71Z</time></trkpt><trkpt lat="39.3687936" lon="17.1331506"><ele>8.0</ele><time>2026-03-28T16:45:45.703Z</time></trkpt><trkpt lat="39.368714" lon="17.1331394"><ele>8.0</ele><time>2026-03-28T16:45:46.704Z</time></trkpt><trkpt lat="39.3686496" lon="17.1331264"><ele>7.999999999999999</ele><time>2026-03-28T16:45:47.707Z</time></trkpt><trkpt lat="39.3685457" lon="17.1330923"><ele>8.0</ele><time>2026-03-28T16:45:49.7Z</time></trkpt><trkpt lat="39.3684707" lon="17.1330717"><ele>8.0</ele><time>2026-03-28T16:45:51.702Z</time></trkpt><trkpt lat="39.3683895" lon="17.1330658"><ele>8.0</ele><time>2026-03-28T16:45:53.716Z</time></trkpt><trkpt lat="39.3682722" lon="17.1330588"><ele>7.999999999999999</ele><time>2026-03-28T16:45:55.711Z</time></trkpt><trkpt lat="39.3682069" lon="17.133056"><ele>8.0</ele><time>2026-03-28T16:45:56.708Z</time></trkpt><trkpt lat="39.3681012" lon="17.1330481"><ele>8.0</ele><time>2026-03-28T16:45:58.709Z</time></trkpt><trkpt lat="39.3680075" lon="17.1330401"><ele>8.0</ele><time>2026-03-28T16:46:00.712Z</time></trkpt><trkpt lat="39.3679094" lon="17.1330347"><ele>8.0</ele><time>2026-03-28T16:46:02.715Z</time></trkpt><trkpt lat="39.3677789" lon="17.1330283"><ele>8.0</ele><time>2026-03-28T16:46:04.704Z</time></trkpt><trkpt lat="39.3676826" lon="17.1330251"><ele>8.0</ele><time>2026-03-28T16:46:05.711Z</time></trkpt><trkpt lat="39.3675978" lon="17.1330216"><ele>7.999999999999999</ele><time>2026-03-28T16:46:06.715Z</time></trkpt><trkpt lat="39.367531" lon="17.1330177"><ele>8.0</ele><time>2026-03-28T16:46:07.714Z</time></trkpt><trkpt lat="39.3674244" lon="17.1329902"><ele>8.0</ele><time>2026-03-28T16:46:09.702Z</time></trkpt><trkpt lat="39.3673132" lon="17.1329784"><ele>8.0</ele><time>2026-03-28T16:46:11.708Z</time></trkpt><trkpt lat="39.3672428" lon="17.1329781"><ele>7.999999999999999</ele><time>2026-03-28T16:46:12.7Z</time></trkpt><trkpt lat="39.3671569" lon="17.1329796"><ele>8.0</ele><time>2026-03-28T16:46:13.703Z</time></trkpt><trkpt lat="39.3670831" lon="17.1329806"><ele>7.999999999999999</ele><time>2026-03-28T16:46:14.703Z</time></trkpt><trkpt lat="39.366962" lon="17.1329694"><ele>8.0</ele><time>2026-03-28T16:46:16.702Z</time></trkpt><trkpt lat="39.3668611" lon="17.1329545"><ele>8.0</ele><time>2026-03-28T16:46:18.704Z</time></trkpt><trkpt lat="39.3667872" lon="17.1329532"><ele>8.0</ele><time>2026-03-28T16:46:20.703Z</time></trkpt><trkpt lat="39.3667002" lon="17.1329581"><ele>7.999999999999999</ele><time>2026-03-28T16:46:23.71Z</time></trkpt><trkpt lat="39.3666372" lon="17.1329615"><ele>8.0</ele><time>2026-03-28T16:46:25.711Z</time></trkpt><trkpt lat="39.3665656" lon="17.1329694"><ele>8.0</ele><time>2026-03-28T16:46:27.719Z</time></trkpt><trkpt lat="39.3664759" lon="17.1329764"><ele>8.0</ele><time>2026-03-28T16:46:29.713Z</time></trkpt><trkpt lat="39.3663757" lon="17.1329777"><ele>8.0</ele><time>2026-03-28T16:46:31.71Z</time></trkpt><trkpt lat="39.3662547" lon="17.1329763"><ele>8.0</ele><time>2026-03-28T16:46:33.707Z</time></trkpt><trkpt lat="39.3661827" lon="17.1329802"><ele>8.0</ele><time>2026-03-28T16:46:34.71Z</time></trkpt><trkpt lat="39.3661027" lon="17.132979"><ele>7.4</ele><time>2026-03-28T16:46:35.708Z</time></trkpt><trkpt lat="39.3660171" lon="17.1329706"><ele>6.800000000000001</ele><time>2026-03-28T16:46:36.719Z</time></trkpt><trkpt lat="39.365922" lon="17.1329601"><ele>6.2</ele><time>2026-03-28T16:46:37.711Z</time></trkpt><trkpt lat="39.3657993" lon="17.132943"><ele>5.6</ele><time>2026-03-28T16:46:38.714Z</time></trkpt><trkpt lat="39.3656673" lon="17.1329255"><ele>5.0</ele><time>2026-03-28T16:46:39.711Z</time></trkpt><trkpt lat="39.3655525" lon="17.1329103"><ele>5.0</ele><time>2026-03-28T16:46:40.721Z</time></trkpt><trkpt lat="39.3654504" lon="17.1328931"><ele>5.0</ele><time>2026-03-28T16:46:41.711Z</time></trkpt><trkpt lat="39.3653595" lon="17.1328772"><ele>5.0</ele><time>2026-03-28T16:46:42.706Z</time></trkpt><trkpt lat="39.3652699" lon="17.132875"><ele>5.0</ele><time>2026-03-28T16:46:43.706Z</time></trkpt><trkpt lat="39.3651811" lon="17.1328736"><ele>5.0</ele><time>2026-03-28T16:46:44.712Z</time></trkpt><trkpt lat="39.3650937" lon="17.1328714"><ele>5.0</ele><time>2026-03-28T16:46:45.71Z</time></trkpt><trkpt lat="39.3650147" lon="17.1328675"><ele>5.0</ele><time>2026-03-28T16:46:46.706Z</time></trkpt><trkpt lat="39.3649372" lon="17.1328597"><ele>5.0</ele><time>2026-03-28T16:46:47.713Z</time></trkpt><trkpt lat="39.3648588" lon="17.1328516"><ele>5.0</ele><time>2026-03-28T16:46:48.715Z</time></trkpt><trkpt lat="39.3647797" lon="17.1328299"><ele>5.0</ele><time>2026-03-28T16:46:49.711Z</time></trkpt><trkpt lat="39.3647038" lon="17.1328082"><ele>5.0</ele><time>2026-03-28T16:46:50.712Z</time></trkpt><trkpt lat="39.3646248" lon="17.132795"><ele>4.8</ele><time>2026-03-28T16:46:51.718Z</time></trkpt><trkpt lat="39.3645442" lon="17.1327822"><ele>4.6</ele><time>2026-03-28T16:46:52.71Z</time></trkpt><trkpt lat="39.3644606" lon="17.1327701"><ele>4.4</ele><time>2026-03-28T16:46:53.712Z</time></trkpt><trkpt lat="39.3643859" lon="17.1327586"><ele>4.2</ele><time>2026-03-28T16:46:54.713Z</time></trkpt><trkpt lat="39.3642716" lon="17.1327437"><ele>4.0</ele><time>2026-03-28T16:46:56.705Z</time></trkpt><trkpt lat="39.3641606" lon="17.1327283"><ele>3.9999999999999996</ele><time>2026-03-28T16:46:58.717Z</time></trkpt><trkpt lat="39.364076" lon="17.1327201"><ele>4.0</ele><time>2026-03-28T16:47:00.717Z</time></trkpt><trkpt lat="39.3639806" lon="17.1327157"><ele>4.0</ele><time>2026-03-28T16:47:02.714Z</time></trkpt><trkpt lat="39.3638762" lon="17.132647"><ele>4.0</ele><time>2026-03-28T16:47:04.718Z</time></trkpt><trkpt lat="39.3638497" lon="17.132567"><ele>3.9999999999999996</ele><time>2026-03-28T16:47:05.713Z</time></trkpt><trkpt lat="39.363828" lon="17.1324853"><ele>4.0</ele><time>2026-03-28T16:47:06.705Z</time></trkpt><trkpt lat="39.3637938" lon="17.1323531"><ele>4.4</ele><time>2026-03-28T16:47:08.713Z</time></trkpt><trkpt lat="39.3637461" lon="17.1322268"><ele>4.800000000000001</ele><time>2026-03-28T16:47:10.717Z</time></trkpt><trkpt lat="39.3637092" lon="17.1321356"><ele>5.199999999999999</ele><time>2026-03-28T16:47:12.705Z</time></trkpt><trkpt lat="39.363683" lon="17.1320451"><ele>5.6</ele><time>2026-03-28T16:47:14.721Z</time></trkpt><trkpt lat="39.3636376" lon="17.1319345"><ele>6.0</ele><time>2026-03-28T16:47:16.709Z</time></trkpt><trkpt lat="39.363542" lon="17.1318692"><ele>6.0</ele><time>2026-03-28T16:47:18.706Z</time></trkpt><trkpt lat="39.3634684" lon="17.1318838"><ele>6.0</ele><time>2026-03-28T16:47:19.704Z</time></trkpt><trkpt lat="39.3633912" lon="17.1318932"><ele>6.0</ele><time>2026-03-28T16:47:20.711Z</time></trkpt><trkpt lat="39.3633125" lon="17.1319008"><ele>6.0</ele><time>2026-03-28T16:47:21.704Z</time></trkpt><trkpt lat="39.363236" lon="17.1319023"><ele>6.0</ele><time>2026-03-28T16:47:22.709Z</time></trkpt><trkpt lat="39.3631623" lon="17.1319001"><ele>6.0</ele><time>2026-03-28T16:47:23.706Z</time></trkpt><trkpt lat="39.3630903" lon="17.1318951"><ele>5.666666666666667</ele><time>2026-03-28T16:47:24.707Z</time></trkpt><trkpt lat="39.3630211" lon="17.1318931"><ele>5.333333333333333</ele><time>2026-03-28T16:47:25.707Z</time></trkpt><trkpt lat="39.3629576" lon="17.1318956"><ele>5.0</ele><time>2026-03-28T16:47:26.709Z</time></trkpt><trkpt lat="39.3628329" lon="17.1318839"><ele>4.666666666666666</ele><time>2026-03-28T16:47:28.715Z</time></trkpt><trkpt lat="39.362763" lon="17.131871"><ele>4.333333333333333</ele><time>2026-03-28T16:47:29.707Z</time></trkpt><trkpt lat="39.3626851" lon="17.1318549"><ele>4.0</ele><time>2026-03-28T16:47:30.707Z</time></trkpt><trkpt lat="39.3625984" lon="17.13184"><ele>3.9999999999999996</ele><time>2026-03-28T16:47:31.716Z</time></trkpt><trkpt lat="39.3625101" lon="17.1318264"><ele>4.0</ele><time>2026-03-28T16:47:32.707Z</time></trkpt><trkpt lat="39.3624234" lon="17.1318108"><ele>4.0</ele><time>2026-03-28T16:47:33.709Z</time></trkpt><trkpt lat="39.3623459" lon="17.1317984"><ele>4.0</ele><time>2026-03-28T16:47:34.709Z</time></trkpt><trkpt lat="39.3622739" lon="17.1317869"><ele>3.9999999999999996</ele><time>2026-03-28T16:47:35.715Z</time></trkpt><trkpt lat="39.3622017" lon="17.1317726"><ele>4.0</ele><time>2026-03-28T16:47:36.711Z</time></trkpt><trkpt lat="39.362134" lon="17.1317563"><ele>4.4</ele><time>2026-03-28T16:47:37.709Z</time></trkpt><trkpt lat="39.36201" lon="17.1317267"><ele>4.800000000000001</ele><time>2026-03-28T16:47:39.713Z</time></trkpt><trkpt lat="39.3618853" lon="17.1317054"><ele>5.199999999999999</ele><time>2026-03-28T16:47:41.714Z</time></trkpt><trkpt lat="39.3618213" lon="17.1316904"><ele>5.6</ele><time>2026-03-28T16:47:42.708Z</time></trkpt><trkpt lat="39.3617536" lon="17.1316745"><ele>6.0</ele><time>2026-03-28T16:47:43.715Z</time></trkpt><trkpt lat="39.3616887" lon="17.1316602"><ele>6.0</ele><time>2026-03-28T16:47:44.714Z</time></trkpt><trkpt lat="39.3615679" lon="17.1316312"><ele>6.0</ele><time>2026-03-28T16:47:46.705Z</time></trkpt><trkpt lat="39.3614655" lon="17.1316068"><ele>6.0</ele><time>2026-03-28T16:47:48.711Z</time></trkpt><trkpt lat="39.3613712" lon="17.1315874"><ele>6.0</ele><time>2026-03-28T16:47:50.705Z</time></trkpt><trkpt lat="39.3612123" lon="17.1315607"><ele>5.833333333333333</ele><time>2026-03-28T16:47:52.712Z</time></trkpt><trkpt lat="39.3611277" lon="17.1315492"><ele>5.666666666666667</ele><time>2026-03-28T16:47:53.715Z</time></trkpt><trkpt lat="39.3610481" lon="17.1315347"><ele>5.5</ele><time>2026-03-28T16:47:54.711Z</time></trkpt><trkpt lat="39.3609847" lon="17.1315154"><ele>5.333333333333334</ele><time>2026-03-28T16:47:55.717Z</time></trkpt><trkpt lat="39.3608885" lon="17.1314955"><ele>5.166666666666667</ele><time>2026-03-28T16:47:57.715Z</time></trkpt><trkpt lat="39.360802" lon="17.1314946"><ele>5.0</ele><time>2026-03-28T16:47:59.713Z</time></trkpt><trkpt lat="39.3607121" lon="17.1314885"><ele>5.0</ele><time>2026-03-28T16:48:02.708Z</time></trkpt><trkpt lat="39.3606383" lon="17.1314934"><ele>5.0</ele><time>2026-03-28T16:48:04.71Z</time></trkpt><trkpt lat="39.3605698" lon="17.1315387"><ele>5.0</ele><time>2026-03-28T16:48:06.716Z</time></trkpt><trkpt lat="39.3605941" lon="17.1316875"><ele>5.0</ele><time>2026-03-28T16:48:08.708Z</time></trkpt><trkpt lat="39.360636" lon="17.1317765"><ele>5.0</ele><time>2026-03-28T16:48:09.704Z</time></trkpt><trkpt lat="39.3607488" lon="17.1317918"><ele>4.833333333333334</ele><time>2026-03-28T16:48:10.716Z</time></trkpt><trkpt lat="39.3608588" lon="17.1318049"><ele>4.666666666666667</ele><time>2026-03-28T16:48:11.707Z</time></trkpt><trkpt lat="39.3609545" lon="17.1318268"><ele>4.5</ele><time>2026-03-28T16:48:12.72Z</time></trkpt><trkpt lat="39.3610343" lon="17.1318393"><ele>4.333333333333333</ele><time>2026-03-28T16:48:13.714Z</time></trkpt><trkpt lat="39.3611108" lon="17.1318522"><ele>4.166666666666666</ele><time>2026-03-28T16:48:14.706Z</time></trkpt><trkpt lat="39.3611791" lon="17.1318674"><ele>4.0</ele><time>2026-03-28T16:48:15.708Z</time></trkpt><trkpt lat="39.3612625" lon="17.1318882"><ele>4.333333333333333</ele><time>2026-03-28T16:48:16.714Z</time></trkpt><trkpt lat="39.3613779" lon="17.1319167"><ele>4.666666666666666</ele><time>2026-03-28T16:48:17.706Z</time></trkpt><trkpt lat="39.3614826" lon="17.1319405"><ele>5.0</ele><time>2026-03-28T16:48:18.707Z</time></trkpt><trkpt lat="39.3615586" lon="17.1319556"><ele>5.333333333333333</ele><time>2026-03-28T16:48:19.717Z</time></trkpt><trkpt lat="39.3616326" lon="17.1319724"><ele>5.666666666666667</ele><time>2026-03-28T16:48:20.714Z</time></trkpt><trkpt lat="39.3616973" lon="17.1319872"><ele>6.0</ele><time>2026-03-28T16:48:21.712Z</time></trkpt><trkpt lat="39.361765" lon="17.1320058"><ele>6.0</ele><time>2026-03-28T16:48:22.708Z</time></trkpt><trkpt lat="39.3618323" lon="17.1320218"><ele>6.0</ele><time>2026-03-28T16:48:23.717Z</time></trkpt><trkpt lat="39.3618949" lon="17.1320335"><ele>6.0</ele><time>2026-03-28T16:48:24.714Z</time></trkpt><trkpt lat="39.3620089" lon="17.1320477"><ele>6.0</ele><time>2026-03-28T16:48:26.718Z</time></trkpt><trkpt lat="39.3621279" lon="17.1320702"><ele>6.0</ele><time>2026-03-28T16:48:28.712Z</time></trkpt><trkpt lat="39.3622019" lon="17.1320839"><ele>6.0</ele><time>2026-03-28T16:48:29.706Z</time></trkpt><trkpt lat="39.3622753" lon="17.1320979"><ele>5.666666666666667</ele><time>2026-03-28T16:48:30.714Z</time></trkpt><trkpt lat="39.3623408" lon="17.1321121"><ele>5.333333333333333</ele><time>2026-03-28T16:48:31.704Z</time></trkpt><trkpt lat="39.3624681" lon="17.1321405"><ele>5.0</ele><time>2026-03-28T16:48:33.719Z</time></trkpt><trkpt lat="39.3625316" lon="17.1321557"><ele>4.666666666666666</ele><time>2026-03-28T16:48:34.709Z</time></trkpt><trkpt lat="39.3626231" lon="17.1321756"><ele>4.333333333333333</ele><time>2026-03-28T16:48:36.711Z</time></trkpt><trkpt lat="39.3627145" lon="17.1321963"><ele>4.0</ele><time>2026-03-28T16:48:38.715Z</time></trkpt><trkpt lat="39.3628039" lon="17.1322263"><ele>4.0</ele><time>2026-03-28T16:48:40.708Z</time></trkpt><trkpt lat="39.3628712" lon="17.1322523"><ele>4.0</ele><time>2026-03-28T16:48:41.715Z</time></trkpt><trkpt lat="39.3629668" lon="17.1322864"><ele>4.0</ele><time>2026-03-28T16:48:42.709Z</time></trkpt><trkpt lat="39.3630903" lon="17.1323224"><ele>4.0</ele><time>2026-03-28T16:48:43.718Z</time></trkpt><trkpt lat="39.3631943" lon="17.1323422"><ele>4.0</ele><time>2026-03-28T16:48:44.725Z</time></trkpt><trkpt lat="39.3632819" lon="17.1323565"><ele>4.0</ele><time>2026-03-28T16:48:45.717Z</time></trkpt><trkpt lat="39.3633965" lon="17.1323749"><ele>4.0</ele><time>2026-03-28T16:48:47.708Z</time></trkpt><trkpt lat="39.3634918" lon="17.1323979"><ele>4.0</ele><time>2026-03-28T16:48:49.711Z</time></trkpt><trkpt lat="39.3635585" lon="17.1324331"><ele>4.0</ele><time>2026-03-28T16:48:51.716Z</time></trkpt><trkpt lat="39.3636385" lon="17.1324856"><ele>4.0</ele><time>2026-03-28T16:49:00.723Z</time></trkpt><trkpt lat="39.3637038" lon="17.1325886"><ele>4.0</ele><time>2026-03-28T16:49:03.717Z</time></trkpt><trkpt lat="39.3637158" lon="17.1327159"><ele>4.0</ele><time>2026-03-28T16:49:05.712Z</time></trkpt><trkpt lat="39.363737" lon="17.1328313"><ele>4.0</ele><time>2026-03-28T16:49:07.714Z</time></trkpt><trkpt lat="39.3637862" lon="17.132924"><ele>4.0</ele><time>2026-03-28T16:49:09.715Z</time></trkpt><trkpt lat="39.3638562" lon="17.133"><ele>4.0</ele><time>2026-03-28T16:49:11.718Z</time></trkpt><trkpt lat="39.3639389" lon="17.1330373"><ele>4.0</ele><time>2026-03-28T16:49:13.713Z</time></trkpt><trkpt lat="39.3640353" lon="17.1330592"><ele>4.0</ele><time>2026-03-28T16:49:15.716Z</time></trkpt><trkpt lat="39.3641664" lon="17.1330681"><ele>4.0</ele><time>2026-03-28T16:49:17.717Z</time></trkpt><trkpt lat="39.3642526" lon="17.133073"><ele>4.0</ele><time>2026-03-28T16:49:18.701Z</time></trkpt><trkpt lat="39.3643343" lon="17.1330796"><ele>4.0</ele><time>2026-03-28T16:49:19.713Z</time></trkpt><trkpt lat="39.3644045" lon="17.1330871"><ele>3.9999999999999996</ele><time>2026-03-28T16:49:20.718Z</time></trkpt><trkpt lat="39.3644732" lon="17.1330958"><ele>4.0</ele><time>2026-03-28T16:49:21.705Z</time></trkpt><trkpt lat="39.3645929" lon="17.1331156"><ele>4.0</ele><time>2026-03-28T16:49:23.711Z</time></trkpt><trkpt lat="39.3646573" lon="17.133124"><ele>4.0</ele><time>2026-03-28T16:49:24.721Z</time></trkpt><trkpt lat="39.364754" lon="17.1331329"><ele>3.9999999999999996</ele><time>2026-03-28T16:49:25.717Z</time></trkpt><trkpt lat="39.3648498" lon="17.1331453"><ele>4.0</ele><time>2026-03-28T16:49:26.71Z</time></trkpt><trkpt lat="39.3649357" lon="17.1331554"><ele>4.166666666666666</ele><time>2026-03-28T16:49:27.709Z</time></trkpt><trkpt lat="39.3650085" lon="17.1331631"><ele>4.333333333333333</ele><time>2026-03-28T16:49:28.72Z</time></trkpt><trkpt lat="39.3650846" lon="17.1331706"><ele>4.5</ele><time>2026-03-28T16:49:29.716Z</time></trkpt><trkpt lat="39.3651642" lon="17.1331794"><ele>4.666666666666667</ele><time>2026-03-28T16:49:30.708Z</time></trkpt><trkpt lat="39.3652435" lon="17.1331892"><ele>4.833333333333334</ele><time>2026-03-28T16:49:31.712Z</time></trkpt><trkpt lat="39.3653182" lon="17.1331981"><ele>5.0</ele><time>2026-03-28T16:49:32.715Z</time></trkpt><trkpt lat="39.3653854" lon="17.1332046"><ele>5.0</ele><time>2026-03-28T16:49:33.713Z</time></trkpt><trkpt lat="39.3654542" lon="17.1332109"><ele>5.0</ele><time>2026-03-28T16:49:34.704Z</time></trkpt><trkpt lat="39.3655241" lon="17.1332198"><ele>5.0</ele><time>2026-03-28T16:49:35.708Z</time></trkpt><trkpt lat="39.3656457" lon="17.133234"><ele>5.0</ele><time>2026-03-28T16:49:37.707Z</time></trkpt><trkpt lat="39.3657084" lon="17.1332414"><ele>5.0</ele><time>2026-03-28T16:49:38.721Z</time></trkpt><trkpt lat="39.3658279" lon="17.1332552"><ele>5.0</ele><time>2026-03-28T16:49:40.717Z</time></trkpt><trkpt lat="39.3659312" lon="17.133261"><ele>4.2</ele><time>2026-03-28T16:49:42.708Z</time></trkpt><trkpt lat="39.3660158" lon="17.1332694"><ele>3.4</ele><time>2026-03-28T16:49:44.708Z</time></trkpt><trkpt lat="39.366116" lon="17.1332933"><ele>2.6</ele><time>2026-03-28T16:49:46.713Z</time></trkpt><trkpt lat="39.3662063" lon="17.1333253"><ele>1.8</ele><time>2026-03-28T16:49:48.716Z</time></trkpt><trkpt lat="39.3663043" lon="17.133361"><ele>1.0</ele><time>2026-03-28T16:49:50.715Z</time></trkpt><trkpt lat="39.3663994" lon="17.133359"><ele>0.9999999999999999</ele><time>2026-03-28T16:49:52.721Z</time></trkpt><trkpt lat="39.3664774" lon="17.1332927"><ele>1.0</ele><time>2026-03-28T16:49:54.71Z</time></trkpt><trkpt lat="39.3665247" lon="17.1332047"><ele>1.0</ele><time>2026-03-28T16:49:56.706Z</time></trkpt><trkpt lat="39.3665555" lon="17.1331317"><ele>1.0</ele><time>2026-03-28T16:49:58.714Z</time></trkpt><trkpt lat="39.3666429" lon="17.1330766"><ele>0.9999999999999999</ele><time>2026-03-28T16:50:00.713Z</time></trkpt><trkpt lat="39.3667144" lon="17.133079"><ele>1.0</ele><time>2026-03-28T16:50:01.71Z</time></trkpt><trkpt lat="39.3667793" lon="17.1330821"><ele>2.4000000000000004</ele><time>2026-03-28T16:50:02.706Z</time></trkpt><trkpt lat="39.3669009" lon="17.1330841"><ele>3.8000000000000003</ele><time>2026-03-28T16:50:04.709Z</time></trkpt><trkpt lat="39.3670017" lon="17.1330899"><ele>5.200000000000001</ele><time>2026-03-28T16:50:06.712Z</time></trkpt><trkpt lat="39.3670891" lon="17.1330913"><ele>6.6000000000000005</ele><time>2026-03-28T16:50:08.724Z</time></trkpt><trkpt lat="39.3671667" lon="17.1330908"><ele>8.0</ele><time>2026-03-28T16:50:10.722Z</time></trkpt><trkpt lat="39.3672503" lon="17.1330945"><ele>7.999999999999999</ele><time>2026-03-28T16:50:12.709Z</time></trkpt><trkpt lat="39.3673613" lon="17.1330976"><ele>8.0</ele><time>2026-03-28T16:50:14.71Z</time></trkpt><trkpt lat="39.3674558" lon="17.1330903"><ele>8.0</ele><time>2026-03-28T16:50:16.713Z</time></trkpt><trkpt lat="39.3675342" lon="17.1330857"><ele>8.0</ele><time>2026-03-28T16:50:18.717Z</time></trkpt><trkpt lat="39.3676106" lon="17.1330862"><ele>7.999999999999999</ele><time>2026-03-28T16:50:20.742Z</time></trkpt><trkpt lat="39.3676979" lon="17.1330849"><ele>8.0</ele><time>2026-03-28T16:50:22.704Z</time></trkpt><trkpt lat="39.3678088" lon="17.1330927"><ele>8.0</ele><time>2026-03-28T16:50:24.706Z</time></trkpt><trkpt lat="39.3678753" lon="17.1330864"><ele>8.0</ele><time>2026-03-28T16:50:25.71Z</time></trkpt><trkpt lat="39.3679401" lon="17.1330888"><ele>8.0</ele><time>2026-03-28T16:50:26.707Z</time></trkpt><trkpt lat="39.3680238" lon="17.133106"><ele>8.0</ele><time>2026-03-28T16:50:28.706Z</time></trkpt><trkpt lat="39.368135" lon="17.1331177"><ele>8.0</ele><time>2026-03-28T16:50:30.705Z</time></trkpt><trkpt lat="39.3682583" lon="17.1331204"><ele>8.0</ele><time>2026-03-28T16:50:32.712Z</time></trkpt><trkpt lat="39.3683471" lon="17.1331194"><ele>8.0</ele><time>2026-03-28T16:50:34.704Z</time></trkpt><trkpt lat="39.3684467" lon="17.1331239"><ele>8.0</ele><time>2026-03-28T16:50:36.712Z</time></trkpt><trkpt lat="39.3685451" lon="17.1331388"><ele>8.0</ele><time>2026-03-28T16:50:38.714Z</time></trkpt><trkpt lat="39.3686507" lon="17.1331665"><ele>8.0</ele><time>2026-03-28T16:50:40.707Z</time></trkpt><trkpt lat="39.3687537" lon="17.1331771"><ele>7.999999999999999</ele><time>2026-03-28T16:50:42.703Z</time></trkpt><trkpt lat="39.3688256" lon="17.1331815"><ele>8.0</ele><time>2026-03-28T16:50:44.705Z</time></trkpt><trkpt lat="39.368903" lon="17.1331893"><ele>8.0</ele><time>2026-03-28T16:50:46.709Z</time></trkpt><trkpt lat="39.3689855" lon="17.1332108"><ele>8.0</ele><time>2026-03-28T16:50:49.704Z</time></trkpt><trkpt lat="39.3690617" lon="17.1332348"><ele>7.999999999999999</ele><time>2026-03-28T16:50:52.71Z</time></trkpt><trkpt lat="39.369172" lon="17.1332753"><ele>8.0</ele><time>2026-03-28T16:50:54.718Z</time></trkpt><trkpt lat="39.3692784" lon="17.1333149"><ele>8.0</ele><time>2026-03-28T16:50:56.715Z</time></trkpt><trkpt lat="39.3693537" lon="17.1333413"><ele>8.0</ele><time>2026-03-28T16:50:58.713Z</time></trkpt><trkpt lat="39.3694714" lon="17.1333781"><ele>8.0</ele><time>2026-03-28T16:51:00.713Z</time></trkpt><trkpt lat="39.3695755" lon="17.133417"><ele>8.0</ele><time>2026-03-28T16:51:02.708Z</time></trkpt><trkpt lat="39.3696543" lon="17.1334602"><ele>8.0</ele><time>2026-03-28T16:51:04.713Z</time></trkpt><trkpt lat="39.3697403" lon="17.1335107"><ele>8.0</ele><time>2026-03-28T16:51:06.71Z</time></trkpt><trkpt lat="39.3698417" lon="17.1335602"><ele>8.0</ele><time>2026-03-28T16:51:08.709Z</time></trkpt><trkpt lat="39.3699604" lon="17.1336113"><ele>8.0</ele><time>2026-03-28T16:51:10.709Z</time></trkpt><trkpt lat="39.3700265" lon="17.1336376"><ele>8.0</ele><time>2026-03-28T16:51:11.714Z</time></trkpt><trkpt lat="39.3700962" lon="17.1336611"><ele>8.0</ele><time>2026-03-28T16:51:12.704Z</time></trkpt><trkpt lat="39.3701698" lon="17.133681"><ele>8.0</ele><time>2026-03-28T16:51:13.702Z</time></trkpt><trkpt lat="39.3702446" lon="17.1336991"><ele>8.0</ele><time>2026-03-28T16:51:14.705Z</time></trkpt><trkpt lat="39.3703576" lon="17.1337202"><ele>8.0</ele><time>2026-03-28T16:51:16.706Z</time></trkpt><trkpt lat="39.37046" lon="17.1337379"><ele>8.0</ele><time>2026-03-28T16:51:18.719Z</time></trkpt><trkpt lat="39.3705747" lon="17.1337602"><ele>8.0</ele><time>2026-03-28T16:51:20.703Z</time></trkpt><trkpt lat="39.3706545" lon="17.1337721"><ele>7.999999999999999</ele><time>2026-03-28T16:51:22.704Z</time></trkpt><trkpt lat="39.3707367" lon="17.1337858"><ele>8.0</ele><time>2026-03-28T16:51:24.705Z</time></trkpt><trkpt lat="39.3708059" lon="17.1338224"><ele>8.0</ele><time>2026-03-28T16:51:26.699Z</time></trkpt><trkpt lat="39.3708722" lon="17.1338332"><ele>8.0</ele><time>2026-03-28T16:51:28.721Z</time></trkpt><trkpt lat="39.3709418" lon="17.1338474"><ele>7.999999999999999</ele><time>2026-03-28T16:51:31.72Z</time></trkpt><trkpt lat="39.3710385" lon="17.1338786"><ele>8.0</ele><time>2026-03-28T16:51:34.71Z</time></trkpt><trkpt lat="39.3711199" lon="17.1339146"><ele>7.999999999999999</ele><time>2026-03-28T16:51:36.717Z</time></trkpt><trkpt lat="39.3712248" lon="17.1339518"><ele>8.0</ele><time>2026-03-28T16:51:38.707Z</time></trkpt><trkpt lat="39.3712913" lon="17.1339763"><ele>8.0</ele><time>2026-03-28T16:51:39.716Z</time></trkpt><trkpt lat="39.3713635" lon="17.1340069"><ele>8.0</ele><time>2026-03-28T16:51:40.708Z</time></trkpt><trkpt lat="39.3714434" lon="17.134043"><ele>7.999999999999999</ele><time>2026-03-28T16:51:41.707Z</time></trkpt><trkpt lat="39.3715228" lon="17.1340799"><ele>8.0</ele><time>2026-03-28T16:51:42.71Z</time></trkpt><trkpt lat="39.3716071" lon="17.1341185"><ele>7.285714285714286</ele><time>2026-03-28T16:51:43.708Z</time></trkpt><trkpt lat="39.3716788" lon="17.1341516"><ele>6.57142857142857</ele><time>2026-03-28T16:51:44.705Z</time></trkpt><trkpt lat="39.3717422" lon="17.1341767"><ele>5.857142857142857</ele><time>2026-03-28T16:51:45.709Z</time></trkpt><trkpt lat="39.3718072" lon="17.1342021"><ele>5.142857142857142</ele><time>2026-03-28T16:51:46.708Z</time></trkpt><trkpt lat="39.3718725" lon="17.1342312"><ele>4.428571428571429</ele><time>2026-03-28T16:51:47.709Z</time></trkpt><trkpt lat="39.3719417" lon="17.134259"><ele>3.714285714285714</ele><time>2026-03-28T16:51:48.711Z</time></trkpt><trkpt lat="39.3720108" lon="17.1342882"><ele>3.0</ele><time>2026-03-28T16:51:49.711Z</time></trkpt><trkpt lat="39.372079" lon="17.1343149"><ele>3.0</ele><time>2026-03-28T16:51:50.717Z</time></trkpt><trkpt lat="39.3721457" lon="17.134341"><ele>3.0</ele><time>2026-03-28T16:51:51.711Z</time></trkpt><trkpt lat="39.3722608" lon="17.1343886"><ele>3.0</ele><time>2026-03-28T16:51:53.707Z</time></trkpt><trkpt lat="39.372374" lon="17.1344302"><ele>3.0</ele><time>2026-03-28T16:51:55.708Z</time></trkpt><trkpt lat="39.3724881" lon="17.1344753"><ele>3.0</ele><time>2026-03-28T16:51:57.702Z</time></trkpt><trkpt lat="39.372607" lon="17.1345276"><ele>3.5</ele><time>2026-03-28T16:51:59.707Z</time></trkpt><trkpt lat="39.3726674" lon="17.1345555"><ele>4.0</ele><time>2026-03-28T16:52:00.704Z</time></trkpt><trkpt lat="39.3727291" lon="17.1345821"><ele>4.5</ele><time>2026-03-28T16:52:01.705Z</time></trkpt><trkpt lat="39.3728459" lon="17.1346285"><ele>5.0</ele><time>2026-03-28T16:52:03.705Z</time></trkpt><trkpt lat="39.3729618" lon="17.1346761"><ele>5.5</ele><time>2026-03-28T16:52:05.713Z</time></trkpt><trkpt lat="39.3730245" lon="17.1347038"><ele>6.0</ele><time>2026-03-28T16:52:06.719Z</time></trkpt><trkpt lat="39.3730873" lon="17.1347309"><ele>6.142857142857142</ele><time>2026-03-28T16:52:07.705Z</time></trkpt><trkpt lat="39.3731483" lon="17.1347594"><ele>6.285714285714286</ele><time>2026-03-28T16:52:08.706Z</time></trkpt><trkpt lat="39.3732123" lon="17.1347908"><ele>6.428571428571429</ele><time>2026-03-28T16:52:09.715Z</time></trkpt><trkpt lat="39.3732791" lon="17.1348254"><ele>6.571428571428571</ele><time>2026-03-28T16:52:10.705Z</time></trkpt><trkpt lat="39.3733469" lon="17.1348634"><ele>6.714285714285714</ele><time>2026-03-28T16:52:11.711Z</time></trkpt><trkpt lat="39.3734162" lon="17.1349053"><ele>6.857142857142857</ele><time>2026-03-28T16:52:12.708Z</time></trkpt><trkpt lat="39.3734856" lon="17.1349479"><ele>7.0</ele><time>2026-03-28T16:52:13.708Z</time></trkpt><trkpt lat="39.3735488" lon="17.1349854"><ele>6.6</ele><time>2026-03-28T16:52:14.708Z</time></trkpt><trkpt lat="39.3736133" lon="17.1350199"><ele>6.199999999999999</ele><time>2026-03-28T16:52:15.712Z</time></trkpt><trkpt lat="39.3736757" lon="17.1350495"><ele>5.8</ele><time>2026-03-28T16:52:16.715Z</time></trkpt><trkpt lat="39.3737855" lon="17.1351066"><ele>5.4</ele><time>2026-03-28T16:52:18.703Z</time></trkpt><trkpt lat="39.3738915" lon="17.1351729"><ele>5.0</ele><time>2026-03-28T16:52:20.713Z</time></trkpt><trkpt lat="39.3740027" lon="17.1352287"><ele>5.0</ele><time>2026-03-28T16:52:22.713Z</time></trkpt><trkpt lat="39.3740699" lon="17.1352508"><ele>5.0</ele><time>2026-03-28T16:52:23.71Z</time></trkpt><trkpt lat="39.3741407" lon="17.1352787"><ele>5.0</ele><time>2026-03-28T16:52:24.717Z</time></trkpt><trkpt lat="39.3742111" lon="17.135306"><ele>5.0</ele><time>2026-03-28T16:52:25.716Z</time></trkpt><trkpt lat="39.3742858" lon="17.1353348"><ele>5.0</ele><time>2026-03-28T16:52:26.708Z</time></trkpt><trkpt lat="39.3743702" lon="17.1353679"><ele>5.0</ele><time>2026-03-28T16:52:27.705Z</time></trkpt><trkpt lat="39.3744545" lon="17.1354056"><ele>5.0</ele><time>2026-03-28T16:52:28.716Z</time></trkpt><trkpt lat="39.3745396" lon="17.1354454"><ele>5.0</ele><time>2026-03-28T16:52:29.715Z</time></trkpt><trkpt lat="39.3746276" lon="17.1354786"><ele>5.0</ele><time>2026-03-28T16:52:30.706Z</time></trkpt><trkpt lat="39.3747164" lon="17.1355121"><ele>5.0</ele><time>2026-03-28T16:52:31.706Z</time></trkpt><trkpt lat="39.3747942" lon="17.1355438"><ele>5.0</ele><time>2026-03-28T16:52:32.714Z</time></trkpt><trkpt lat="39.3748675" lon="17.1355737"><ele>5.0</ele><time>2026-03-28T16:52:33.711Z</time></trkpt><trkpt lat="39.3749443" lon="17.1356043"><ele>5.0</ele><time>2026-03-28T16:52:34.713Z</time></trkpt><trkpt lat="39.3750262" lon="17.1356323"><ele>5.0</ele><time>2026-03-28T16:52:35.707Z</time></trkpt><trkpt lat="39.3751026" lon="17.1356573"><ele>5.0</ele><time>2026-03-28T16:52:36.711Z</time></trkpt><trkpt lat="39.3751712" lon="17.1356799"><ele>5.0</ele><time>2026-03-28T16:52:37.701Z</time></trkpt><trkpt lat="39.3752365" lon="17.1357051"><ele>5.0</ele><time>2026-03-28T16:52:38.706Z</time></trkpt><trkpt lat="39.3752974" lon="17.1357287"><ele>5.0</ele><time>2026-03-28T16:52:39.712Z</time></trkpt><trkpt lat="39.3754171" lon="17.1357759"><ele>5.0</ele><time>2026-03-28T16:52:41.702Z</time></trkpt><trkpt lat="39.3754832" lon="17.1358053"><ele>5.0</ele><time>2026-03-28T16:52:42.707Z</time></trkpt><trkpt lat="39.3755531" lon="17.1358359"><ele>5.0</ele><time>2026-03-28T16:52:43.704Z</time></trkpt><trkpt lat="39.3756228" lon="17.1358669"><ele>5.0</ele><time>2026-03-28T16:52:44.713Z</time></trkpt><trkpt lat="39.3756849" lon="17.1358932"><ele>5.0</ele><time>2026-03-28T16:52:45.715Z</time></trkpt><trkpt lat="39.3757464" lon="17.1359191"><ele>5.0</ele><time>2026-03-28T16:52:46.715Z</time></trkpt><trkpt lat="39.3758104" lon="17.1359469"><ele>5.0</ele><time>2026-03-28T16:52:47.705Z</time></trkpt><trkpt lat="39.3758761" lon="17.1359797"><ele>5.0</ele><time>2026-03-28T16:52:48.72Z</time></trkpt><trkpt lat="39.3759421" lon="17.1360153"><ele>5.0</ele><time>2026-03-28T16:52:49.708Z</time></trkpt><trkpt lat="39.3760089" lon="17.1360497"><ele>5.0</ele><time>2026-03-28T16:52:50.71Z</time></trkpt><trkpt lat="39.3760747" lon="17.1360822"><ele>5.0</ele><time>2026-03-28T16:52:51.709Z</time></trkpt><trkpt lat="39.3761367" lon="17.1361172"><ele>5.0</ele><time>2026-03-28T16:52:52.711Z</time></trkpt><trkpt lat="39.3761964" lon="17.1361531"><ele>5.0</ele><time>2026-03-28T16:52:53.709Z</time></trkpt><trkpt lat="39.3762573" lon="17.1361894"><ele>5.0</ele><time>2026-03-28T16:52:54.706Z</time></trkpt><trkpt lat="39.3763164" lon="17.136228"><ele>5.166666666666667</ele><time>2026-03-28T16:52:55.707Z</time></trkpt><trkpt lat="39.3763868" lon="17.1362721"><ele>5.333333333333334</ele><time>2026-03-28T16:52:56.707Z</time></trkpt><trkpt lat="39.3764524" lon="17.1363136"><ele>5.5</ele><time>2026-03-28T16:52:57.711Z</time></trkpt><trkpt lat="39.3765129" lon="17.136353"><ele>5.666666666666667</ele><time>2026-03-28T16:52:58.711Z</time></trkpt><trkpt lat="39.3765755" lon="17.1363956"><ele>5.833333333333333</ele><time>2026-03-28T16:52:59.703Z</time></trkpt><trkpt lat="39.3766853" lon="17.1364722"><ele>6.0</ele><time>2026-03-28T16:53:01.71Z</time></trkpt><trkpt lat="39.37675" lon="17.1365187"><ele>5.833333333333333</ele><time>2026-03-28T16:53:02.714Z</time></trkpt><trkpt lat="39.3768196" lon="17.136575"><ele>5.666666666666667</ele><time>2026-03-28T16:53:03.708Z</time></trkpt><trkpt lat="39.3768891" lon="17.1366381"><ele>5.5</ele><time>2026-03-28T16:53:04.706Z</time></trkpt><trkpt lat="39.3769556" lon="17.1367052"><ele>5.333333333333334</ele><time>2026-03-28T16:53:05.717Z</time></trkpt><trkpt lat="39.3770216" lon="17.1367652"><ele>5.166666666666667</ele><time>2026-03-28T16:53:06.718Z</time></trkpt><trkpt lat="39.3770876" lon="17.1368254"><ele>5.0</ele><time>2026-03-28T16:53:07.719Z</time></trkpt><trkpt lat="39.3771597" lon="17.1368794"><ele>5.166666666666667</ele><time>2026-03-28T16:53:08.71Z</time></trkpt><trkpt lat="39.3772279" lon="17.1369341"><ele>5.333333333333334</ele><time>2026-03-28T16:53:09.704Z</time></trkpt><trkpt lat="39.3772848" lon="17.1369799"><ele>5.5</ele><time>2026-03-28T16:53:10.713Z</time></trkpt><trkpt lat="39.3773404" lon="17.1370252"><ele>5.666666666666667</ele><time>2026-03-28T16:53:11.706Z</time></trkpt><trkpt lat="39.3773958" lon="17.1370692"><ele>5.833333333333333</ele><time>2026-03-28T16:53:12.704Z</time></trkpt><trkpt lat="39.3775039" lon="17.1371527"><ele>6.0</ele><time>2026-03-28T16:53:14.71Z</time></trkpt><trkpt lat="39.377562" lon="17.1371968"><ele>6.0</ele><time>2026-03-28T16:53:15.706Z</time></trkpt><trkpt lat="39.3776238" lon="17.1372438"><ele>6.0</ele><time>2026-03-28T16:53:16.713Z</time></trkpt><trkpt lat="39.37769" lon="17.1372998"><ele>6.0</ele><time>2026-03-28T16:53:17.707Z</time></trkpt><trkpt lat="39.3777461" lon="17.1373504"><ele>6.0</ele><time>2026-03-28T16:53:18.705Z</time></trkpt><trkpt lat="39.3777982" lon="17.1374"><ele>6.0</ele><time>2026-03-28T16:53:19.706Z</time></trkpt><trkpt lat="39.3778777" lon="17.1374739"><ele>6.0</ele><time>2026-03-28T16:53:21.707Z</time></trkpt><trkpt lat="39.3779525" lon="17.1375371"><ele>6.0</ele><time>2026-03-28T16:53:23.707Z</time></trkpt><trkpt lat="39.3780168" lon="17.1375923"><ele>6.0</ele><time>2026-03-28T16:53:25.708Z</time></trkpt><trkpt lat="39.3780732" lon="17.1376461"><ele>6.0</ele><time>2026-03-28T16:53:28.709Z</time></trkpt><trkpt lat="39.378121" lon="17.1375877"><ele>6.0</ele><time>2026-03-28T16:53:33.713Z</time></trkpt><trkpt lat="39.3780693" lon="17.1374967"><ele>6.0</ele><time>2026-03-28T16:53:35.72Z</time></trkpt><trkpt lat="39.3779808" lon="17.1374123"><ele>6.0</ele><time>2026-03-28T16:53:37.707Z</time></trkpt><trkpt lat="39.3778968" lon="17.1373372"><ele>6.0</ele><time>2026-03-28T16:53:39.713Z</time></trkpt><trkpt lat="39.3778158" lon="17.1372761"><ele>6.0</ele><time>2026-03-28T16:53:41.717Z</time></trkpt><trkpt lat="39.3777263" lon="17.1372293"><ele>6.0</ele><time>2026-03-28T16:53:43.71Z</time></trkpt><trkpt lat="39.3776443" lon="17.1371807"><ele>6.0</ele><time>2026-03-28T16:53:45.708Z</time></trkpt><trkpt lat="39.3775699" lon="17.1371305"><ele>6.0</ele><time>2026-03-28T16:53:47.712Z</time></trkpt><trkpt lat="39.3774948" lon="17.1370751"><ele>6.0</ele><time>2026-03-28T16:53:49.711Z</time></trkpt><trkpt lat="39.3774074" lon="17.1370039"><ele>6.0</ele><time>2026-03-28T16:53:51.71Z</time></trkpt><trkpt lat="39.3773107" lon="17.1369199"><ele>6.0</ele><time>2026-03-28T16:53:53.716Z</time></trkpt><trkpt lat="39.3772581" lon="17.1368729"><ele>6.0</ele><time>2026-03-28T16:53:54.716Z</time></trkpt><trkpt lat="39.3772013" lon="17.1368241"><ele>6.0</ele><time>2026-03-28T16:53:55.715Z</time></trkpt><trkpt lat="39.3771456" lon="17.1367777"><ele>6.0</ele><time>2026-03-28T16:53:56.707Z</time></trkpt><trkpt lat="39.3770872" lon="17.136729"><ele>6.0</ele><time>2026-03-28T16:53:57.718Z</time></trkpt><trkpt lat="39.377026" lon="17.1366812"><ele>6.0</ele><time>2026-03-28T16:53:58.721Z</time></trkpt><trkpt lat="39.3769669" lon="17.1366354"><ele>6.0</ele><time>2026-03-28T16:53:59.709Z</time></trkpt><trkpt lat="39.3768588" lon="17.1365536"><ele>6.0</ele><time>2026-03-28T16:54:01.714Z</time></trkpt><trkpt lat="39.3767975" lon="17.1365101"><ele>6.0</ele><time>2026-03-28T16:54:02.704Z</time></trkpt><trkpt lat="39.3767354" lon="17.1364662"><ele>6.0</ele><time>2026-03-28T16:54:03.711Z</time></trkpt><trkpt lat="39.3766695" lon="17.1364204"><ele>6.0</ele><time>2026-03-28T16:54:04.72Z</time></trkpt><trkpt lat="39.3766046" lon="17.1363781"><ele>6.0</ele><time>2026-03-28T16:54:05.711Z</time></trkpt><trkpt lat="39.3765446" lon="17.1363407"><ele>6.0</ele><time>2026-03-28T16:54:06.715Z</time></trkpt><trkpt lat="39.3764856" lon="17.1363033"><ele>6.0</ele><time>2026-03-28T16:54:07.715Z</time></trkpt><trkpt lat="39.3763735" lon="17.1362305"><ele>6.0</ele><time>2026-03-28T16:54:09.71Z</time></trkpt><trkpt lat="39.3763168" lon="17.1361924"><ele>6.0</ele><time>2026-03-28T16:54:10.711Z</time></trkpt><trkpt lat="39.3762053" lon="17.1361262"><ele>5.8</ele><time>2026-03-28T16:54:12.713Z</time></trkpt><trkpt lat="39.3761476" lon="17.1360905"><ele>5.6</ele><time>2026-03-28T16:54:13.713Z</time></trkpt><trkpt lat="39.3760449" lon="17.136023"><ele>5.4</ele><time>2026-03-28T16:54:15.715Z</time></trkpt><trkpt lat="39.3759451" lon="17.1359616"><ele>5.2</ele><time>2026-03-28T16:54:17.712Z</time></trkpt><trkpt lat="39.3758395" lon="17.1359033"><ele>5.0</ele><time>2026-03-28T16:54:19.719Z</time></trkpt><trkpt lat="39.3757305" lon="17.1358475"><ele>5.0</ele><time>2026-03-28T16:54:21.707Z</time></trkpt><trkpt lat="39.3756187" lon="17.1357963"><ele>5.0</ele><time>2026-03-28T16:54:23.704Z</time></trkpt><trkpt lat="39.3755033" lon="17.135746"><ele>5.0</ele><time>2026-03-28T16:54:25.704Z</time></trkpt><trkpt lat="39.3753997" lon="17.135707"><ele>5.0</ele><time>2026-03-28T16:54:27.703Z</time></trkpt><trkpt lat="39.3753104" lon="17.1356704"><ele>5.0</ele><time>2026-03-28T16:54:29.711Z</time></trkpt><trkpt lat="39.3752156" lon="17.1356295"><ele>5.8</ele><time>2026-03-28T16:54:31.71Z</time></trkpt><trkpt lat="39.3751534" lon="17.1356023"><ele>6.6</ele><time>2026-03-28T16:54:32.711Z</time></trkpt><trkpt lat="39.3750711" lon="17.1355637"><ele>7.4</ele><time>2026-03-28T16:54:33.712Z</time></trkpt><trkpt lat="39.3749613" lon="17.1355015"><ele>8.2</ele><time>2026-03-28T16:54:34.713Z</time></trkpt><trkpt lat="39.3748594" lon="17.1354476"><ele>9.0</ele><time>2026-03-28T16:54:35.71Z</time></trkpt><trkpt lat="39.3747679" lon="17.135408"><ele>9.000000000000002</ele><time>2026-03-28T16:54:36.706Z</time></trkpt><trkpt lat="39.374699" lon="17.135386"><ele>9.0</ele><time>2026-03-28T16:54:37.709Z</time></trkpt><trkpt lat="39.374635" lon="17.1353665"><ele>9.0</ele><time>2026-03-28T16:54:38.708Z</time></trkpt><trkpt lat="39.3745667" lon="17.1353407"><ele>9.0</ele><time>2026-03-28T16:54:39.705Z</time></trkpt><trkpt lat="39.3744995" lon="17.1353104"><ele>9.0</ele><time>2026-03-28T16:54:40.714Z</time></trkpt><trkpt lat="39.3744324" lon="17.1352816"><ele>9.000000000000002</ele><time>2026-03-28T16:54:41.72Z</time></trkpt><trkpt lat="39.3743648" lon="17.1352532"><ele>9.0</ele><time>2026-03-28T16:54:42.704Z</time></trkpt><trkpt lat="39.3742924" lon="17.1352256"><ele>8.333333333333334</ele><time>2026-03-28T16:54:43.707Z</time></trkpt><trkpt lat="39.3742205" lon="17.1352"><ele>7.666666666666667</ele><time>2026-03-28T16:54:44.72Z</time></trkpt><trkpt lat="39.3741518" lon="17.1351758"><ele>7.0</ele><time>2026-03-28T16:54:45.707Z</time></trkpt><trkpt lat="39.3740873" lon="17.1351514"><ele>6.333333333333334</ele><time>2026-03-28T16:54:46.716Z</time></trkpt><trkpt lat="39.3740247" lon="17.1351276"><ele>5.666666666666667</ele><time>2026-03-28T16:54:47.713Z</time></trkpt><trkpt lat="39.373927" lon="17.1350845"><ele>5.0</ele><time>2026-03-28T16:54:49.706Z</time></trkpt><trkpt lat="39.373809" lon="17.135029"><ele>5.0</ele><time>2026-03-28T16:54:51.706Z</time></trkpt><trkpt lat="39.373735" lon="17.1349915"><ele>5.0</ele><time>2026-03-28T16:54:52.709Z</time></trkpt><trkpt lat="39.373649" lon="17.1349469"><ele>5.0</ele><time>2026-03-28T16:54:53.703Z</time></trkpt><trkpt lat="39.373566" lon="17.1349035"><ele>5.0</ele><time>2026-03-28T16:54:54.705Z</time></trkpt><trkpt lat="39.3734934" lon="17.1348647"><ele>5.0</ele><time>2026-03-28T16:54:55.703Z</time></trkpt><trkpt lat="39.3734314" lon="17.1348288"><ele>5.0</ele><time>2026-03-28T16:54:56.716Z</time></trkpt><trkpt lat="39.3733296" lon="17.1347695"><ele>5.285714285714286</ele><time>2026-03-28T16:54:58.704Z</time></trkpt><trkpt lat="39.373261" lon="17.134732"><ele>5.571428571428571</ele><time>2026-03-28T16:55:00.71Z</time></trkpt><trkpt lat="39.3731974" lon="17.1347049"><ele>5.857142857142858</ele><time>2026-03-28T16:55:13.71Z</time></trkpt><trkpt lat="39.37312" lon="17.1346538"><ele>6.142857142857142</ele><time>2026-03-28T16:55:17.71Z</time></trkpt><trkpt lat="39.3731186" lon="17.1345719"><ele>6.428571428571429</ele><time>2026-03-28T16:55:19.718Z</time></trkpt><trkpt lat="39.3731329" lon="17.134481"><ele>6.714285714285714</ele><time>2026-03-28T16:55:22.721Z</time></trkpt><trkpt lat="39.3731361" lon="17.1343832"><ele>7.0</ele><time>2026-03-28T16:55:25.709Z</time></trkpt><trkpt lat="39.3731573" lon="17.1342939"><ele>7.000000000000001</ele><time>2026-03-28T16:55:28.708Z</time></trkpt><trkpt lat="39.373176" lon="17.1341788"><ele>7.0</ele><time>2026-03-28T16:55:31.715Z</time></trkpt><trkpt lat="39.3731952" lon="17.1340774"><ele>7.0</ele><time>2026-03-28T16:55:34.708Z</time></trkpt><trkpt lat="39.37315" lon="17.1339874"><ele>7.0</ele><time>2026-03-28T16:55:37.707Z</time></trkpt><trkpt lat="39.3730369" lon="17.1339382"><ele>7.000000000000001</ele><time>2026-03-28T16:55:39.698Z</time></trkpt><trkpt lat="39.3729641" lon="17.1339244"><ele>7.0</ele><time>2026-03-28T16:55:40.707Z</time></trkpt><trkpt lat="39.3728997" lon="17.1339067"><ele>7.166666666666667</ele><time>2026-03-28T16:55:41.712Z</time></trkpt><trkpt lat="39.3727783" lon="17.1338667"><ele>7.333333333333334</ele><time>2026-03-28T16:55:43.71Z</time></trkpt><trkpt lat="39.3727159" lon="17.1338445"><ele>7.5</ele><time>2026-03-28T16:55:44.707Z</time></trkpt><trkpt lat="39.3726448" lon="17.1338189"><ele>7.666666666666666</ele><time>2026-03-28T16:55:45.71Z</time></trkpt><trkpt lat="39.3725758" lon="17.1337975"><ele>7.833333333333333</ele><time>2026-03-28T16:55:46.709Z</time></trkpt><trkpt lat="39.3724997" lon="17.1337757"><ele>8.0</ele><time>2026-03-28T16:55:47.705Z</time></trkpt><trkpt lat="39.3724089" lon="17.1337462"><ele>7.999999999999999</ele><time>2026-03-28T16:55:48.706Z</time></trkpt><trkpt lat="39.3723208" lon="17.1337154"><ele>8.0</ele><time>2026-03-28T16:55:49.712Z</time></trkpt><trkpt lat="39.3722428" lon="17.1336884"><ele>8.0</ele><time>2026-03-28T16:55:50.718Z</time></trkpt><trkpt lat="39.3721728" lon="17.1336645"><ele>8.0</ele><time>2026-03-28T16:55:51.712Z</time></trkpt><trkpt lat="39.3721003" lon="17.1336444"><ele>7.999999999999999</ele><time>2026-03-28T16:55:52.716Z</time></trkpt><trkpt lat="39.3720277" lon="17.1336113"><ele>8.0</ele><time>2026-03-28T16:55:53.708Z</time></trkpt><trkpt lat="39.3719563" lon="17.1335893"><ele>8.166666666666666</ele><time>2026-03-28T16:55:54.715Z</time></trkpt><trkpt lat="39.3718865" lon="17.1335687"><ele>8.333333333333332</ele><time>2026-03-28T16:55:55.706Z</time></trkpt><trkpt lat="39.3718158" lon="17.133541"><ele>8.5</ele><time>2026-03-28T16:55:56.71Z</time></trkpt><trkpt lat="39.3717451" lon="17.133518"><ele>8.666666666666666</ele><time>2026-03-28T16:55:57.705Z</time></trkpt><trkpt lat="39.3716733" lon="17.133492"><ele>8.833333333333334</ele><time>2026-03-28T16:55:58.705Z</time></trkpt><trkpt lat="39.3715961" lon="17.1334735"><ele>9.0</ele><time>2026-03-28T16:55:59.705Z</time></trkpt><trkpt lat="39.3715103" lon="17.1334459"><ele>9.0</ele><time>2026-03-28T16:56:00.707Z</time></trkpt><trkpt lat="39.3714221" lon="17.1334176"><ele>9.0</ele><time>2026-03-28T16:56:01.713Z</time></trkpt><trkpt lat="39.3713349" lon="17.133388"><ele>9.0</ele><time>2026-03-28T16:56:02.706Z</time></trkpt><trkpt lat="39.3712551" lon="17.1333609"><ele>9.0</ele><time>2026-03-28T16:56:03.706Z</time></trkpt><trkpt lat="39.3711697" lon="17.133335"><ele>9.0</ele><time>2026-03-28T16:56:04.715Z</time></trkpt><trkpt lat="39.3710925" lon="17.1333025"><ele>9.0</ele><time>2026-03-28T16:56:05.707Z</time></trkpt><trkpt lat="39.3710198" lon="17.1332732"><ele>9.000000000000002</ele><time>2026-03-28T16:56:06.702Z</time></trkpt><trkpt lat="39.3709498" lon="17.1332529"><ele>9.0</ele><time>2026-03-28T16:56:07.707Z</time></trkpt><trkpt lat="39.3708765" lon="17.1332388"><ele>9.0</ele><time>2026-03-28T16:56:08.708Z</time></trkpt><trkpt lat="39.3708044" lon="17.1332214"><ele>9.0</ele><time>2026-03-28T16:56:09.706Z</time></trkpt><trkpt lat="39.3707289" lon="17.1332129"><ele>9.0</ele><time>2026-03-28T16:56:10.71Z</time></trkpt><trkpt lat="39.370653" lon="17.1332014"><ele>9.000000000000002</ele><time>2026-03-28T16:56:11.714Z</time></trkpt><trkpt lat="39.3705822" lon="17.1331922"><ele>9.0</ele><time>2026-03-28T16:56:12.706Z</time></trkpt><trkpt lat="39.3704568" lon="17.1331649"><ele>9.0</ele><time>2026-03-28T16:56:14.704Z</time></trkpt><trkpt lat="39.3703925" lon="17.1331504"><ele>9.0</ele><time>2026-03-28T16:56:15.705Z</time></trkpt><trkpt lat="39.3702914" lon="17.1331115"><ele>9.0</ele><time>2026-03-28T16:56:17.703Z</time></trkpt><trkpt lat="39.3702062" lon="17.1330726"><ele>9.0</ele><time>2026-03-28T16:56:19.705Z</time></trkpt><trkpt lat="39.3700994" lon="17.133016"><ele>9.0</ele><time>2026-03-28T16:56:21.704Z</time></trkpt><trkpt lat="39.3700355" lon="17.132984"><ele>9.0</ele><time>2026-03-28T16:56:22.711Z</time></trkpt><trkpt lat="39.3699721" lon="17.1329547"><ele>9.0</ele><time>2026-03-28T16:56:23.706Z</time></trkpt><trkpt lat="39.3699057" lon="17.1329266"><ele>9.0</ele><time>2026-03-28T16:56:24.71Z</time></trkpt><trkpt lat="39.3698383" lon="17.1328978"><ele>9.0</ele><time>2026-03-28T16:56:25.706Z</time></trkpt><trkpt lat="39.3697708" lon="17.1328699"><ele>9.0</ele><time>2026-03-28T16:56:26.705Z</time></trkpt><trkpt lat="39.3697029" lon="17.1328431"><ele>9.0</ele><time>2026-03-28T16:56:27.702Z</time></trkpt><trkpt lat="39.369638" lon="17.1328178"><ele>9.0</ele><time>2026-03-28T16:56:28.717Z</time></trkpt><trkpt lat="39.369541" lon="17.1327845"><ele>8.833333333333334</ele><time>2026-03-28T16:56:30.707Z</time></trkpt><trkpt lat="39.3694593" lon="17.1327511"><ele>8.666666666666666</ele><time>2026-03-28T16:56:33.707Z</time></trkpt><trkpt lat="39.3693863" lon="17.1327183"><ele>8.5</ele><time>2026-03-28T16:56:36.709Z</time></trkpt><trkpt lat="39.3693684" lon="17.1326087"><ele>8.333333333333332</ele><time>2026-03-28T16:56:40.709Z</time></trkpt><trkpt lat="39.3694026" lon="17.1324849"><ele>8.166666666666666</ele><time>2026-03-28T16:56:42.712Z</time></trkpt><trkpt lat="39.369437" lon="17.132388"><ele>8.0</ele><time>2026-03-28T16:56:44.706Z</time></trkpt><trkpt lat="39.3694686" lon="17.1322577"><ele>7.666666666666666</ele><time>2026-03-28T16:56:46.711Z</time></trkpt><trkpt lat="39.3694803" lon="17.1321753"><ele>7.333333333333333</ele><time>2026-03-28T16:56:47.707Z</time></trkpt><trkpt lat="39.3694984" lon="17.132028"><ele>7.0</ele><time>2026-03-28T16:56:49.705Z</time></trkpt><trkpt lat="39.3695253" lon="17.1318834"><ele>6.666666666666666</ele><time>2026-03-28T16:56:51.703Z</time></trkpt><trkpt lat="39.3695462" lon="17.1317936"><ele>6.333333333333333</ele><time>2026-03-28T16:56:52.706Z</time></trkpt><trkpt lat="39.3695649" lon="17.1317086"><ele>6.0</ele><time>2026-03-28T16:56:53.708Z</time></trkpt><trkpt lat="39.3695802" lon="17.1316225"><ele>6.333333333333333</ele><time>2026-03-28T16:56:54.705Z</time></trkpt><trkpt lat="39.3695951" lon="17.1315294"><ele>6.666666666666666</ele><time>2026-03-28T16:56:55.706Z</time></trkpt><trkpt lat="39.3696103" lon="17.131435"><ele>7.0</ele><time>2026-03-28T16:56:56.711Z</time></trkpt><trkpt lat="39.369624" lon="17.1313442"><ele>7.333333333333333</ele><time>2026-03-28T16:56:57.709Z</time></trkpt><trkpt lat="39.3696374" lon="17.1311887"><ele>7.666666666666666</ele><time>2026-03-28T16:56:59.706Z</time></trkpt><trkpt lat="39.3696454" lon="17.1311056"><ele>8.0</ele><time>2026-03-28T16:57:00.706Z</time></trkpt><trkpt lat="39.369655" lon="17.1310109"><ele>7.999999999999999</ele><time>2026-03-28T16:57:01.702Z</time></trkpt><trkpt lat="39.3696647" lon="17.1309166"><ele>8.0</ele><time>2026-03-28T16:57:02.707Z</time></trkpt><trkpt lat="39.3696769" lon="17.1308276"><ele>8.0</ele><time>2026-03-28T16:57:03.705Z</time></trkpt><trkpt lat="39.3696882" lon="17.1307462"><ele>8.0</ele><time>2026-03-28T16:57:04.706Z</time></trkpt><trkpt lat="39.3696954" lon="17.1306626"><ele>7.999999999999999</ele><time>2026-03-28T16:57:05.704Z</time></trkpt><trkpt lat="39.3697112" lon="17.1305051"><ele>8.0</ele><time>2026-03-28T16:57:07.705Z</time></trkpt><trkpt lat="39.3697221" lon="17.130367"><ele>7.800000000000001</ele><time>2026-03-28T16:57:09.709Z</time></trkpt><trkpt lat="39.3697373" lon="17.1302222"><ele>7.6000000000000005</ele><time>2026-03-28T16:57:11.708Z</time></trkpt><trkpt lat="39.3697525" lon="17.1300633"><ele>7.3999999999999995</ele><time>2026-03-28T16:57:13.703Z</time></trkpt><trkpt lat="39.3697623" lon="17.1299782"><ele>7.199999999999999</ele><time>2026-03-28T16:57:14.708Z</time></trkpt><trkpt lat="39.3697701" lon="17.1298954"><ele>7.0</ele><time>2026-03-28T16:57:15.7Z</time></trkpt><trkpt lat="39.3697905" lon="17.1297679"><ele>7.000000000000001</ele><time>2026-03-28T16:57:17.707Z</time></trkpt><trkpt lat="39.3698082" lon="17.1296795"><ele>7.0</ele><time>2026-03-28T16:57:20.706Z</time></trkpt><trkpt lat="39.3698208" lon="17.1295854"><ele>7.0</ele><time>2026-03-28T16:57:27.709Z</time></trkpt><trkpt lat="39.3698253" lon="17.1294854"><ele>7.0</ele><time>2026-03-28T16:57:30.703Z</time></trkpt><trkpt lat="39.3698301" lon="17.1294019"><ele>7.000000000000001</ele><time>2026-03-28T16:57:32.71Z</time></trkpt><trkpt lat="39.3698061" lon="17.1293045"><ele>7.0</ele><time>2026-03-28T16:57:34.7Z</time></trkpt><trkpt lat="39.3697278" lon="17.1292216"><ele>7.333333333333334</ele><time>2026-03-28T16:57:36.705Z</time></trkpt><trkpt lat="39.3696342" lon="17.1291969"><ele>7.666666666666667</ele><time>2026-03-28T16:57:37.711Z</time></trkpt><trkpt lat="39.3695534" lon="17.1291747"><ele>8.0</ele><time>2026-03-28T16:57:38.704Z</time></trkpt><trkpt lat="39.3694823" lon="17.1291558"><ele>8.333333333333334</ele><time>2026-03-28T16:57:39.706Z</time></trkpt><trkpt lat="39.3693687" lon="17.1291258"><ele>8.666666666666666</ele><time>2026-03-28T16:57:41.704Z</time></trkpt><trkpt lat="39.3693047" lon="17.1291052"><ele>9.0</ele><time>2026-03-28T16:57:42.707Z</time></trkpt><trkpt lat="39.3692286" lon="17.1290827"><ele>8.833333333333334</ele><time>2026-03-28T16:57:43.706Z</time></trkpt><trkpt lat="39.3691419" lon="17.1290574"><ele>8.666666666666666</ele><time>2026-03-28T16:57:44.7Z</time></trkpt><trkpt lat="39.3690687" lon="17.129045"><ele>8.5</ele><time>2026-03-28T16:57:45.7Z</time></trkpt><trkpt lat="39.3689681" lon="17.1290263"><ele>8.333333333333332</ele><time>2026-03-28T16:57:47.703Z</time></trkpt><trkpt lat="39.3689001" lon="17.1290102"><ele>8.166666666666666</ele><time>2026-03-28T16:57:49.713Z</time></trkpt><trkpt lat="39.3688279" lon="17.1290175"><ele>8.0</ele><time>2026-03-28T16:58:01.704Z</time></trkpt><trkpt lat="39.3687441" lon="17.1290081"><ele>7.833333333333333</ele><time>2026-03-28T16:58:05.705Z</time></trkpt><trkpt lat="39.368679" lon="17.1290001"><ele>7.666666666666666</ele><time>2026-03-28T16:58:08.708Z</time></trkpt><trkpt lat="39.3685942" lon="17.1289887"><ele>7.5</ele><time>2026-03-28T16:58:12.704Z</time></trkpt><trkpt lat="39.3685577" lon="17.1288831"><ele>7.333333333333334</ele><time>2026-03-28T16:58:16.699Z</time></trkpt><trkpt lat="39.3685436" lon="17.1287798"><ele>7.166666666666667</ele><time>2026-03-28T16:58:18.704Z</time></trkpt><trkpt lat="39.3685265" lon="17.1286819"><ele>7.0</ele><time>2026-03-28T16:58:20.702Z</time></trkpt><trkpt lat="39.3685152" lon="17.1285686"><ele>7.000000000000001</ele><time>2026-03-28T16:58:22.703Z</time></trkpt><trkpt lat="39.3685015" lon="17.1284545"><ele>7.0</ele><time>2026-03-28T16:58:24.699Z</time></trkpt><trkpt lat="39.3684877" lon="17.1283415"><ele>7.0</ele><time>2026-03-28T16:58:26.703Z</time></trkpt><trkpt lat="39.3684775" lon="17.1282282"><ele>7.0</ele><time>2026-03-28T16:58:28.703Z</time></trkpt><trkpt lat="39.3684655" lon="17.1281221"><ele>7.000000000000001</ele><time>2026-03-28T16:58:30.706Z</time></trkpt><trkpt lat="39.3684524" lon="17.1280299"><ele>7.0</ele><time>2026-03-28T16:58:32.703Z</time></trkpt><trkpt lat="39.3684393" lon="17.1279349"><ele>7.3999999999999995</ele><time>2026-03-28T16:58:34.709Z</time></trkpt><trkpt lat="39.3684205" lon="17.1278169"><ele>7.799999999999999</ele><time>2026-03-28T16:58:36.704Z</time></trkpt><trkpt lat="39.3683982" lon="17.1276818"><ele>8.2</ele><time>2026-03-28T16:58:38.7Z</time></trkpt><trkpt lat="39.3683803" lon="17.1275467"><ele>8.6</ele><time>2026-03-28T16:58:40.708Z</time></trkpt><trkpt lat="39.3683636" lon="17.1274043"><ele>9.0</ele><time>2026-03-28T16:58:42.708Z</time></trkpt><trkpt lat="39.3683447" lon="17.1272542"><ele>9.0</ele><time>2026-03-28T16:58:44.704Z</time></trkpt><trkpt lat="39.3683268" lon="17.1271146"><ele>9.0</ele><time>2026-03-28T16:58:46.706Z</time></trkpt><trkpt lat="39.3683068" lon="17.1269815"><ele>9.0</ele><time>2026-03-28T16:58:48.706Z</time></trkpt><trkpt lat="39.3682887" lon="17.1268519"><ele>9.0</ele><time>2026-03-28T16:58:50.714Z</time></trkpt><trkpt lat="39.3682688" lon="17.1266988"><ele>9.0</ele><time>2026-03-28T16:58:52.702Z</time></trkpt><trkpt lat="39.3682567" lon="17.1266188"><ele>9.2</ele><time>2026-03-28T16:58:53.702Z</time></trkpt><trkpt lat="39.3682362" lon="17.1264708"><ele>9.4</ele><time>2026-03-28T16:58:55.704Z</time></trkpt><trkpt lat="39.368216" lon="17.1263273"><ele>9.6</ele><time>2026-03-28T16:58:57.705Z</time></trkpt><trkpt lat="39.3681976" lon="17.1261912"><ele>9.8</ele><time>2026-03-28T16:58:59.701Z</time></trkpt><trkpt lat="39.3681863" lon="17.1260825"><ele>10.0</ele><time>2026-03-28T16:59:01.706Z</time></trkpt><trkpt lat="39.3681801" lon="17.1259848"><ele>10.0</ele><time>2026-03-28T16:59:06.704Z</time></trkpt><trkpt lat="39.3681666" lon="17.1258821"><ele>10.0</ele><time>2026-03-28T16:59:08.72Z</time></trkpt><trkpt lat="39.3681375" lon="17.1257142"><ele>10.0</ele><time>2026-03-28T16:59:10.704Z</time></trkpt><trkpt lat="39.3681256" lon="17.1256264"><ele>10.0</ele><time>2026-03-28T16:59:12.707Z</time></trkpt><trkpt lat="39.3681121" lon="17.1255391"><ele>10.0</ele><time>2026-03-28T16:59:15.71Z</time></trkpt><trkpt lat="39.3680957" lon="17.1254444"><ele>10.0</ele><time>2026-03-28T16:59:18.712Z</time></trkpt><trkpt lat="39.368081" lon="17.1253269"><ele>10.0</ele><time>2026-03-28T16:59:21.709Z</time></trkpt><trkpt lat="39.368071" lon="17.1252337"><ele>10.0</ele><time>2026-03-28T16:59:23.703Z</time></trkpt><trkpt lat="39.36805" lon="17.1251101"><ele>10.0</ele><time>2026-03-28T16:59:25.706Z</time></trkpt><trkpt lat="39.3680308" lon="17.1249589"><ele>10.0</ele><time>2026-03-28T16:59:27.701Z</time></trkpt><trkpt lat="39.3680188" lon="17.1248736"><ele>10.0</ele><time>2026-03-28T16:59:28.701Z</time></trkpt><trkpt lat="39.3680065" lon="17.1247906"><ele>10.0</ele><time>2026-03-28T16:59:29.703Z</time></trkpt><trkpt lat="39.3679875" lon="17.1246606"><ele>10.0</ele><time>2026-03-28T16:59:31.702Z</time></trkpt><trkpt lat="39.3679703" lon="17.1245516"><ele>10.0</ele><time>2026-03-28T16:59:33.703Z</time></trkpt><trkpt lat="39.3679587" lon="17.124458"><ele>10.0</ele><time>2026-03-28T16:59:35.708Z</time></trkpt><trkpt lat="39.3679458" lon="17.1243485"><ele>10.0</ele><time>2026-03-28T16:59:38.715Z</time></trkpt><trkpt lat="39.3679318" lon="17.1242455"><ele>10.0</ele><time>2026-03-28T16:59:41.702Z</time></trkpt><trkpt lat="39.3679343" lon="17.1241413"><ele>10.0</ele><time>2026-03-28T16:59:45.708Z</time></trkpt><trkpt lat="39.3679335" lon="17.1240457"><ele>10.0</ele><time>2026-03-28T16:59:48.714Z</time></trkpt><trkpt lat="39.3679048" lon="17.1238982"><ele>10.0</ele><time>2026-03-28T16:59:50.707Z</time></trkpt><trkpt lat="39.3678836" lon="17.1238014"><ele>10.0</ele><time>2026-03-28T16:59:51.704Z</time></trkpt><trkpt lat="39.3678661" lon="17.1236978"><ele>10.0</ele><time>2026-03-28T16:59:52.701Z</time></trkpt><trkpt lat="39.3678463" lon="17.1235934"><ele>10.0</ele><time>2026-03-28T16:59:53.703Z</time></trkpt><trkpt lat="39.367827" lon="17.1234875"><ele>10.0</ele><time>2026-03-28T16:59:54.705Z</time></trkpt><trkpt lat="39.3678113" lon="17.1233781"><ele>10.0</ele><time>2026-03-28T16:59:55.704Z</time></trkpt><trkpt lat="39.3677958" lon="17.1232674"><ele>10.0</ele><time>2026-03-28T16:59:56.702Z</time></trkpt><trkpt lat="39.3677818" lon="17.1231638"><ele>10.0</ele><time>2026-03-28T16:59:57.702Z</time></trkpt><trkpt lat="39.3677674" lon="17.1230645"><ele>10.0</ele><time>2026-03-28T16:59:58.714Z</time></trkpt><trkpt lat="39.3677555" lon="17.1229787"><ele>10.0</ele><time>2026-03-28T16:59:59.701Z</time></trkpt><trkpt lat="39.3677332" lon="17.1228214"><ele>10.0</ele><time>2026-03-28T17:00:01.706Z</time></trkpt><trkpt lat="39.3677191" lon="17.1227332"><ele>9.833333333333334</ele><time>2026-03-28T17:00:02.703Z</time></trkpt><trkpt lat="39.3677071" lon="17.122647"><ele>9.666666666666668</ele><time>2026-03-28T17:00:03.699Z</time></trkpt><trkpt lat="39.3676962" lon="17.1225657"><ele>9.5</ele><time>2026-03-28T17:00:04.701Z</time></trkpt><trkpt lat="39.3676842" lon="17.1224754"><ele>9.333333333333334</ele><time>2026-03-28T17:00:05.706Z</time></trkpt><trkpt lat="39.3676746" lon="17.122394"><ele>9.166666666666666</ele><time>2026-03-28T17:00:06.705Z</time></trkpt><trkpt lat="39.367654" lon="17.1222319"><ele>9.0</ele><time>2026-03-28T17:00:08.713Z</time></trkpt><trkpt lat="39.3676452" lon="17.1221446"><ele>9.0</ele><time>2026-03-28T17:00:09.704Z</time></trkpt><trkpt lat="39.3676287" lon="17.1219906"><ele>9.0</ele><time>2026-03-28T17:00:11.708Z</time></trkpt><trkpt lat="39.3676163" lon="17.1218996"><ele>9.0</ele><time>2026-03-28T17:00:12.699Z</time></trkpt><trkpt lat="39.3675948" lon="17.1217508"><ele>9.0</ele><time>2026-03-28T17:00:14.711Z</time></trkpt><trkpt lat="39.3675826" lon="17.1216678"><ele>9.0</ele><time>2026-03-28T17:00:15.702Z</time></trkpt><trkpt lat="39.3675667" lon="17.1215632"><ele>8.857142857142858</ele><time>2026-03-28T17:00:16.703Z</time></trkpt><trkpt lat="39.367553" lon="17.1214679"><ele>8.714285714285715</ele><time>2026-03-28T17:00:17.702Z</time></trkpt><trkpt lat="39.367539" lon="17.1213731"><ele>8.571428571428571</ele><time>2026-03-28T17:00:18.701Z</time></trkpt><trkpt lat="39.367523" lon="17.1212725"><ele>8.428571428571429</ele><time>2026-03-28T17:00:19.698Z</time></trkpt><trkpt lat="39.3675087" lon="17.1211822"><ele>8.285714285714285</ele><time>2026-03-28T17:00:20.712Z</time></trkpt><trkpt lat="39.367495" lon="17.121097"><ele>8.142857142857142</ele><time>2026-03-28T17:00:21.703Z</time></trkpt><trkpt lat="39.3674798" lon="17.1210082"><ele>8.0</ele><time>2026-03-28T17:00:22.705Z</time></trkpt><trkpt lat="39.3674658" lon="17.1209146"><ele>7.999999999999999</ele><time>2026-03-28T17:00:23.705Z</time></trkpt><trkpt lat="39.367451" lon="17.120818"><ele>8.0</ele><time>2026-03-28T17:00:24.708Z</time></trkpt><trkpt lat="39.3674391" lon="17.1207245"><ele>8.0</ele><time>2026-03-28T17:00:25.709Z</time></trkpt><trkpt lat="39.3674288" lon="17.1206405"><ele>8.0</ele><time>2026-03-28T17:00:26.705Z</time></trkpt><trkpt lat="39.3674082" lon="17.1204884"><ele>7.999999999999999</ele><time>2026-03-28T17:00:28.705Z</time></trkpt><trkpt lat="39.3673873" lon="17.1203639"><ele>8.0</ele><time>2026-03-28T17:00:30.706Z</time></trkpt><trkpt lat="39.3673644" lon="17.1202853"><ele>10.0</ele><time>2026-03-28T17:00:35.706Z</time></trkpt><trkpt lat="39.3673746" lon="17.1201958"><ele>10.0</ele><time>2026-03-28T17:00:57.713Z</time></trkpt><trkpt lat="39.3674166" lon="17.1200996"><ele>10.0</ele><time>2026-03-28T17:01:03.701Z</time></trkpt><trkpt lat="39.3674289" lon="17.1200022"><ele>10.0</ele><time>2026-03-28T17:01:28.711Z</time></trkpt><trkpt lat="39.3674838" lon="17.1199222"><ele>10.0</ele><time>2026-03-28T17:01:31.705Z</time></trkpt><trkpt lat="39.3675134" lon="17.1200497"><ele>10.0</ele><time>2026-03-28T17:03:35.71Z</time></trkpt></trkseg></trk></gpx>